<?xml version="1.0" encoding="UTF-8"?>
<gpx version="1.1" creator="https://www.youtrack.es" xsi:schemaLocation="http://www.topografix.com/GPX/1/1 http://www.topografix.com/GPX/1/1/gpx.xsd http://www.garmin.com/xmlschemas/GpxExtensions/v3 http://www.garmin.com/xmlschemas/GpxExtensionsv3.xsd http://www.garmin.com/xmlschemas/TrackPointExtension/v1 http://www.garmin.com/xmlschemas/TrackPointExtensionv1.xsd" xmlns:gpxtpx="http://www.garmin.com/xmlschemas/TrackPointExtension/v1" xmlns:gpxx="http://www.garmin.com/xmlschemas/GpxExtensions/v3" xmlns:xsi="http://www.w3.org/2001/XMLSchema-instance">
  <metadata>
    <link href="https://www.youtrack.es">
      <text>YouTrack.es</text>
    </link>
    <time>2026-05-09T02:36:10Z</time>
  </metadata>
  <trk>
    <src>https://www.youtrack.es</src>
    <link href="https://www.youtrack.es/ruta/7682-etapa-de-enrique">
      <text>YouTrack.es</text>
    </link>
    <trkseg>
      <trkpt lat="42.319" lon="3.316159">
        <ele>75</ele>
        <time>2019-08-18T23:15:20Z</time>
      </trkpt>
      <trkpt lat="42.319055" lon="3.316123">
        <ele>75</ele>
        <time>2019-08-18T23:15:26Z</time>
      </trkpt>
      <trkpt lat="42.319082" lon="3.316099">
        <ele>75</ele>
        <time>2019-08-18T23:15:28Z</time>
      </trkpt>
      <trkpt lat="42.319109" lon="3.316076">
        <ele>75</ele>
        <time>2019-08-18T23:15:29Z</time>
      </trkpt>
      <trkpt lat="42.319136" lon="3.316052">
        <ele>75</ele>
        <time>2019-08-18T23:15:30Z</time>
      </trkpt>
      <trkpt lat="42.319163" lon="3.316028">
        <ele>75</ele>
        <time>2019-08-18T23:15:31Z</time>
      </trkpt>
      <trkpt lat="42.31919" lon="3.316004">
        <ele>75</ele>
        <time>2019-08-18T23:15:32Z</time>
      </trkpt>
      <trkpt lat="42.319217" lon="3.315981">
        <ele>75</ele>
        <time>2019-08-18T23:15:33Z</time>
      </trkpt>
      <trkpt lat="42.319244" lon="3.315957">
        <ele>75</ele>
        <time>2019-08-18T23:15:34Z</time>
      </trkpt>
      <trkpt lat="42.319271" lon="3.315933">
        <ele>75</ele>
        <time>2019-08-18T23:15:35Z</time>
      </trkpt>
      <trkpt lat="42.31929" lon="3.315876">
        <ele>75</ele>
        <time>2019-08-18T23:15:36Z</time>
      </trkpt>
      <trkpt lat="42.319295" lon="3.315857">
        <ele>75</ele>
        <time>2019-08-18T23:15:37Z</time>
      </trkpt>
      <trkpt lat="42.319299" lon="3.315837">
        <ele>75</ele>
        <time>2019-08-18T23:15:38Z</time>
      </trkpt>
      <trkpt lat="42.319304" lon="3.315817">
        <ele>75</ele>
        <time>2019-08-18T23:15:39Z</time>
      </trkpt>
      <trkpt lat="42.319308" lon="3.315797">
        <ele>75</ele>
        <time>2019-08-18T23:15:41Z</time>
      </trkpt>
      <trkpt lat="42.319313" lon="3.315778">
        <ele>75</ele>
        <time>2019-08-18T23:15:44Z</time>
      </trkpt>
      <trkpt lat="42.319317" lon="3.315758">
        <ele>73</ele>
        <time>2019-08-18T23:15:45Z</time>
      </trkpt>
      <trkpt lat="42.319312" lon="3.315717">
        <ele>73</ele>
        <time>2019-08-18T23:15:47Z</time>
      </trkpt>
      <trkpt lat="42.319307" lon="3.315675">
        <ele>72</ele>
        <time>2019-08-18T23:16:25Z</time>
      </trkpt>
      <trkpt lat="42.319302" lon="3.315633">
        <ele>72</ele>
        <time>2019-08-18T23:16:26Z</time>
      </trkpt>
      <trkpt lat="42.319297" lon="3.315591">
        <ele>72</ele>
        <time>2019-08-18T23:16:27Z</time>
      </trkpt>
      <trkpt lat="42.319292" lon="3.315549">
        <ele>72</ele>
        <time>2019-08-18T23:16:28Z</time>
      </trkpt>
      <trkpt lat="42.319288" lon="3.315507">
        <ele>72</ele>
        <time>2019-08-18T23:16:29Z</time>
      </trkpt>
      <trkpt lat="42.319283" lon="3.315466">
        <ele>72</ele>
        <time>2019-08-18T23:16:30Z</time>
      </trkpt>
      <trkpt lat="42.319278" lon="3.315424">
        <ele>72</ele>
        <time>2019-08-18T23:16:31Z</time>
      </trkpt>
      <trkpt lat="42.319273" lon="3.315382">
        <ele>72</ele>
        <time>2019-08-18T23:16:32Z</time>
      </trkpt>
      <trkpt lat="42.319268" lon="3.31534">
        <ele>72</ele>
        <time>2019-08-18T23:16:33Z</time>
      </trkpt>
      <trkpt lat="42.319263" lon="3.315298">
        <ele>72</ele>
        <time>2019-08-18T23:16:34Z</time>
      </trkpt>
      <trkpt lat="42.319258" lon="3.315256">
        <ele>70</ele>
        <time>2019-08-18T23:16:35Z</time>
      </trkpt>
      <trkpt lat="42.319296" lon="3.315169">
        <ele>70</ele>
        <time>2019-08-18T23:16:36Z</time>
      </trkpt>
      <trkpt lat="42.319337" lon="3.315146">
        <ele>70</ele>
        <time>2019-08-18T23:16:37Z</time>
      </trkpt>
      <trkpt lat="42.319377" lon="3.315122">
        <ele>70</ele>
        <time>2019-08-18T23:16:38Z</time>
      </trkpt>
      <trkpt lat="42.319418" lon="3.315099">
        <ele>70</ele>
        <time>2019-08-18T23:16:39Z</time>
      </trkpt>
      <trkpt lat="42.319458" lon="3.315076">
        <ele>70</ele>
        <time>2019-08-18T23:16:40Z</time>
      </trkpt>
      <trkpt lat="42.319498" lon="3.315053">
        <ele>70</ele>
        <time>2019-08-18T23:16:41Z</time>
      </trkpt>
      <trkpt lat="42.319539" lon="3.31503">
        <ele>70</ele>
        <time>2019-08-18T23:16:42Z</time>
      </trkpt>
      <trkpt lat="42.319579" lon="3.315006">
        <ele>70</ele>
        <time>2019-08-18T23:16:43Z</time>
      </trkpt>
      <trkpt lat="42.31962" lon="3.314983">
        <ele>70</ele>
        <time>2019-08-18T23:16:44Z</time>
      </trkpt>
      <trkpt lat="42.31966" lon="3.31496">
        <ele>67</ele>
        <time>2019-08-18T23:16:45Z</time>
      </trkpt>
      <trkpt lat="42.319741" lon="3.314912">
        <ele>67</ele>
        <time>2019-08-18T23:16:46Z</time>
      </trkpt>
      <trkpt lat="42.319763" lon="3.314866">
        <ele>67</ele>
        <time>2019-08-18T23:16:47Z</time>
      </trkpt>
      <trkpt lat="42.319785" lon="3.314821">
        <ele>67</ele>
        <time>2019-08-18T23:16:48Z</time>
      </trkpt>
      <trkpt lat="42.319807" lon="3.314775">
        <ele>67</ele>
        <time>2019-08-18T23:16:49Z</time>
      </trkpt>
      <trkpt lat="42.319829" lon="3.314729">
        <ele>67</ele>
        <time>2019-08-18T23:16:50Z</time>
      </trkpt>
      <trkpt lat="42.31985" lon="3.314683">
        <ele>67</ele>
        <time>2019-08-18T23:16:51Z</time>
      </trkpt>
      <trkpt lat="42.319872" lon="3.314637">
        <ele>67</ele>
        <time>2019-08-18T23:16:52Z</time>
      </trkpt>
      <trkpt lat="42.319894" lon="3.314592">
        <ele>67</ele>
        <time>2019-08-18T23:16:53Z</time>
      </trkpt>
      <trkpt lat="42.319916" lon="3.314546">
        <ele>67</ele>
        <time>2019-08-18T23:16:54Z</time>
      </trkpt>
      <trkpt lat="42.319938" lon="3.3145">
        <ele>63</ele>
        <time>2019-08-18T23:16:55Z</time>
      </trkpt>
      <trkpt lat="42.319873" lon="3.314359">
        <ele>63</ele>
        <time>2019-08-18T23:16:56Z</time>
      </trkpt>
      <trkpt lat="42.31983" lon="3.3143">
        <ele>63</ele>
        <time>2019-08-18T23:16:57Z</time>
      </trkpt>
      <trkpt lat="42.319786" lon="3.31424">
        <ele>63</ele>
        <time>2019-08-18T23:16:58Z</time>
      </trkpt>
      <trkpt lat="42.319742" lon="3.31418">
        <ele>63</ele>
        <time>2019-08-18T23:16:59Z</time>
      </trkpt>
      <trkpt lat="42.319699" lon="3.314121">
        <ele>63</ele>
        <time>2019-08-18T23:17:00Z</time>
      </trkpt>
      <trkpt lat="42.319655" lon="3.314061">
        <ele>63</ele>
        <time>2019-08-18T23:17:01Z</time>
      </trkpt>
      <trkpt lat="42.319612" lon="3.314002">
        <ele>63</ele>
        <time>2019-08-18T23:17:02Z</time>
      </trkpt>
      <trkpt lat="42.319568" lon="3.313942">
        <ele>63</ele>
        <time>2019-08-18T23:17:03Z</time>
      </trkpt>
      <trkpt lat="42.319524" lon="3.313882">
        <ele>63</ele>
        <time>2019-08-18T23:17:04Z</time>
      </trkpt>
      <trkpt lat="42.319481" lon="3.313823">
        <ele>63</ele>
        <time>2019-08-18T23:17:05Z</time>
      </trkpt>
      <trkpt lat="42.319437" lon="3.313763">
        <ele>58</ele>
        <time>2019-08-18T23:17:06Z</time>
      </trkpt>
      <trkpt lat="42.319311" lon="3.313716">
        <ele>58</ele>
        <time>2019-08-18T23:17:07Z</time>
      </trkpt>
      <trkpt lat="42.319248" lon="3.313721">
        <ele>58</ele>
        <time>2019-08-18T23:17:08Z</time>
      </trkpt>
      <trkpt lat="42.319186" lon="3.313727">
        <ele>58</ele>
        <time>2019-08-18T23:17:09Z</time>
      </trkpt>
      <trkpt lat="42.319124" lon="3.313732">
        <ele>58</ele>
        <time>2019-08-18T23:17:10Z</time>
      </trkpt>
      <trkpt lat="42.319061" lon="3.313737">
        <ele>58</ele>
        <time>2019-08-18T23:17:11Z</time>
      </trkpt>
      <trkpt lat="42.318999" lon="3.313742">
        <ele>58</ele>
        <time>2019-08-18T23:17:12Z</time>
      </trkpt>
      <trkpt lat="42.318937" lon="3.313748">
        <ele>58</ele>
        <time>2019-08-18T23:17:13Z</time>
      </trkpt>
      <trkpt lat="42.318874" lon="3.313753">
        <ele>58</ele>
        <time>2019-08-18T23:17:14Z</time>
      </trkpt>
      <trkpt lat="42.318812" lon="3.313758">
        <ele>51</ele>
        <time>2019-08-18T23:17:15Z</time>
      </trkpt>
      <trkpt lat="42.318713" lon="3.313776">
        <ele>51</ele>
        <time>2019-08-18T23:17:16Z</time>
      </trkpt>
      <trkpt lat="42.318682" lon="3.313756">
        <ele>51</ele>
        <time>2019-08-18T23:17:17Z</time>
      </trkpt>
      <trkpt lat="42.31865" lon="3.313735">
        <ele>51</ele>
        <time>2019-08-18T23:17:18Z</time>
      </trkpt>
      <trkpt lat="42.318619" lon="3.313715">
        <ele>51</ele>
        <time>2019-08-18T23:17:19Z</time>
      </trkpt>
      <trkpt lat="42.318588" lon="3.313695">
        <ele>51</ele>
        <time>2019-08-18T23:17:20Z</time>
      </trkpt>
      <trkpt lat="42.318557" lon="3.313675">
        <ele>51</ele>
        <time>2019-08-18T23:17:21Z</time>
      </trkpt>
      <trkpt lat="42.318526" lon="3.313655">
        <ele>51</ele>
        <time>2019-08-18T23:17:22Z</time>
      </trkpt>
      <trkpt lat="42.318494" lon="3.313634">
        <ele>51</ele>
        <time>2019-08-18T23:17:23Z</time>
      </trkpt>
      <trkpt lat="42.318463" lon="3.313614">
        <ele>51</ele>
        <time>2019-08-18T23:17:24Z</time>
      </trkpt>
      <trkpt lat="42.318432" lon="3.313594">
        <ele>48</ele>
        <time>2019-08-18T23:17:25Z</time>
      </trkpt>
      <trkpt lat="42.318486" lon="3.313513">
        <ele>48</ele>
        <time>2019-08-18T23:17:26Z</time>
      </trkpt>
      <trkpt lat="42.31853" lon="3.313494">
        <ele>48</ele>
        <time>2019-08-18T23:17:27Z</time>
      </trkpt>
      <trkpt lat="42.318574" lon="3.313474">
        <ele>48</ele>
        <time>2019-08-18T23:17:28Z</time>
      </trkpt>
      <trkpt lat="42.318618" lon="3.313455">
        <ele>48</ele>
        <time>2019-08-18T23:17:29Z</time>
      </trkpt>
      <trkpt lat="42.318662" lon="3.313435">
        <ele>48</ele>
        <time>2019-08-18T23:17:30Z</time>
      </trkpt>
      <trkpt lat="42.318706" lon="3.313415">
        <ele>48</ele>
        <time>2019-08-18T23:17:31Z</time>
      </trkpt>
      <trkpt lat="42.31875" lon="3.313396">
        <ele>48</ele>
        <time>2019-08-18T23:17:32Z</time>
      </trkpt>
      <trkpt lat="42.318794" lon="3.313376">
        <ele>48</ele>
        <time>2019-08-18T23:17:33Z</time>
      </trkpt>
      <trkpt lat="42.318838" lon="3.313357">
        <ele>48</ele>
        <time>2019-08-18T23:17:34Z</time>
      </trkpt>
      <trkpt lat="42.318882" lon="3.313337">
        <ele>42</ele>
        <time>2019-08-18T23:17:35Z</time>
      </trkpt>
      <trkpt lat="42.318979" lon="3.313239">
        <ele>42</ele>
        <time>2019-08-18T23:17:36Z</time>
      </trkpt>
      <trkpt lat="42.319006" lon="3.313155">
        <ele>42</ele>
        <time>2019-08-18T23:17:37Z</time>
      </trkpt>
      <trkpt lat="42.319034" lon="3.31307">
        <ele>42</ele>
        <time>2019-08-18T23:17:38Z</time>
      </trkpt>
      <trkpt lat="42.319061" lon="3.312986">
        <ele>42</ele>
        <time>2019-08-18T23:17:39Z</time>
      </trkpt>
      <trkpt lat="42.319089" lon="3.312901">
        <ele>42</ele>
        <time>2019-08-18T23:17:40Z</time>
      </trkpt>
      <trkpt lat="42.319117" lon="3.312816">
        <ele>42</ele>
        <time>2019-08-18T23:17:41Z</time>
      </trkpt>
      <trkpt lat="42.319144" lon="3.312732">
        <ele>42</ele>
        <time>2019-08-18T23:17:42Z</time>
      </trkpt>
      <trkpt lat="42.319172" lon="3.312647">
        <ele>42</ele>
        <time>2019-08-18T23:17:43Z</time>
      </trkpt>
      <trkpt lat="42.319199" lon="3.312563">
        <ele>42</ele>
        <time>2019-08-18T23:17:44Z</time>
      </trkpt>
      <trkpt lat="42.319227" lon="3.312478">
        <ele>38</ele>
        <time>2019-08-18T23:17:45Z</time>
      </trkpt>
      <trkpt lat="42.319241" lon="3.312349">
        <ele>38</ele>
        <time>2019-08-18T23:17:46Z</time>
      </trkpt>
      <trkpt lat="42.319252" lon="3.312217">
        <ele>38</ele>
        <time>2019-08-18T23:17:47Z</time>
      </trkpt>
      <trkpt lat="42.319263" lon="3.312085">
        <ele>38</ele>
        <time>2019-08-18T23:17:48Z</time>
      </trkpt>
      <trkpt lat="42.319281" lon="3.311956">
        <ele>38</ele>
        <time>2019-08-18T23:17:49Z</time>
      </trkpt>
      <trkpt lat="42.319302" lon="3.311829">
        <ele>38</ele>
        <time>2019-08-18T23:17:50Z</time>
      </trkpt>
      <trkpt lat="42.319326" lon="3.311707">
        <ele>38</ele>
        <time>2019-08-18T23:17:51Z</time>
      </trkpt>
      <trkpt lat="42.319345" lon="3.311586">
        <ele>38</ele>
        <time>2019-08-18T23:17:52Z</time>
      </trkpt>
      <trkpt lat="42.319359" lon="3.31147">
        <ele>38</ele>
        <time>2019-08-18T23:17:53Z</time>
      </trkpt>
      <trkpt lat="42.319376" lon="3.311361">
        <ele>38</ele>
        <time>2019-08-18T23:17:54Z</time>
      </trkpt>
      <trkpt lat="42.319389" lon="3.31126">
        <ele>34</ele>
        <time>2019-08-18T23:17:55Z</time>
      </trkpt>
      <trkpt lat="42.31941" lon="3.311103">
        <ele>34</ele>
        <time>2019-08-18T23:17:56Z</time>
      </trkpt>
      <trkpt lat="42.319419" lon="3.311048">
        <ele>34</ele>
        <time>2019-08-18T23:17:57Z</time>
      </trkpt>
      <trkpt lat="42.319427" lon="3.310993">
        <ele>34</ele>
        <time>2019-08-18T23:17:58Z</time>
      </trkpt>
      <trkpt lat="42.319436" lon="3.310938">
        <ele>34</ele>
        <time>2019-08-18T23:17:59Z</time>
      </trkpt>
      <trkpt lat="42.319444" lon="3.310884">
        <ele>34</ele>
        <time>2019-08-18T23:18:00Z</time>
      </trkpt>
      <trkpt lat="42.319452" lon="3.310829">
        <ele>34</ele>
        <time>2019-08-18T23:18:01Z</time>
      </trkpt>
      <trkpt lat="42.319461" lon="3.310774">
        <ele>34</ele>
        <time>2019-08-18T23:18:02Z</time>
      </trkpt>
      <trkpt lat="42.319469" lon="3.310719">
        <ele>34</ele>
        <time>2019-08-18T23:18:03Z</time>
      </trkpt>
      <trkpt lat="42.319478" lon="3.310664">
        <ele>34</ele>
        <time>2019-08-18T23:18:04Z</time>
      </trkpt>
      <trkpt lat="42.319486" lon="3.310609">
        <ele>34</ele>
        <time>2019-08-18T23:18:05Z</time>
      </trkpt>
      <trkpt lat="42.31949" lon="3.310547">
        <ele>34</ele>
        <time>2019-08-18T23:18:06Z</time>
      </trkpt>
      <trkpt lat="42.319489" lon="3.310519">
        <ele>34</ele>
        <time>2019-08-18T23:18:07Z</time>
      </trkpt>
      <trkpt lat="42.319487" lon="3.31049">
        <ele>34</ele>
        <time>2019-08-18T23:18:08Z</time>
      </trkpt>
      <trkpt lat="42.319486" lon="3.310462">
        <ele>34</ele>
        <time>2019-08-18T23:18:09Z</time>
      </trkpt>
      <trkpt lat="42.319484" lon="3.310433">
        <ele>34</ele>
        <time>2019-08-18T23:18:10Z</time>
      </trkpt>
      <trkpt lat="42.319482" lon="3.310404">
        <ele>34</ele>
        <time>2019-08-18T23:18:11Z</time>
      </trkpt>
      <trkpt lat="42.319481" lon="3.310376">
        <ele>34</ele>
        <time>2019-08-18T23:18:12Z</time>
      </trkpt>
      <trkpt lat="42.319479" lon="3.310347">
        <ele>34</ele>
        <time>2019-08-18T23:18:13Z</time>
      </trkpt>
      <trkpt lat="42.319478" lon="3.310319">
        <ele>34</ele>
        <time>2019-08-18T23:18:14Z</time>
      </trkpt>
      <trkpt lat="42.319476" lon="3.31029">
        <ele>34</ele>
        <time>2019-08-18T23:18:15Z</time>
      </trkpt>
      <trkpt lat="42.319451" lon="3.310244">
        <ele>34</ele>
        <time>2019-08-18T23:18:16Z</time>
      </trkpt>
      <trkpt lat="42.319436" lon="3.310227">
        <ele>34</ele>
        <time>2019-08-18T23:18:17Z</time>
      </trkpt>
      <trkpt lat="42.319421" lon="3.310209">
        <ele>34</ele>
        <time>2019-08-18T23:18:18Z</time>
      </trkpt>
      <trkpt lat="42.319406" lon="3.310192">
        <ele>34</ele>
        <time>2019-08-18T23:18:19Z</time>
      </trkpt>
      <trkpt lat="42.319392" lon="3.310175">
        <ele>34</ele>
        <time>2019-08-18T23:18:20Z</time>
      </trkpt>
      <trkpt lat="42.319377" lon="3.310158">
        <ele>34</ele>
        <time>2019-08-18T23:18:21Z</time>
      </trkpt>
      <trkpt lat="42.319362" lon="3.310141">
        <ele>34</ele>
        <time>2019-08-18T23:18:22Z</time>
      </trkpt>
      <trkpt lat="42.319347" lon="3.310123">
        <ele>34</ele>
        <time>2019-08-18T23:18:23Z</time>
      </trkpt>
      <trkpt lat="42.319332" lon="3.310106">
        <ele>34</ele>
        <time>2019-08-18T23:18:24Z</time>
      </trkpt>
      <trkpt lat="42.319317" lon="3.310089">
        <ele>35</ele>
        <time>2019-08-18T23:18:25Z</time>
      </trkpt>
      <trkpt lat="42.319276" lon="3.310079">
        <ele>35</ele>
        <time>2019-08-18T23:18:26Z</time>
      </trkpt>
      <trkpt lat="42.319257" lon="3.310076">
        <ele>35</ele>
        <time>2019-08-18T23:18:27Z</time>
      </trkpt>
      <trkpt lat="42.319239" lon="3.310074">
        <ele>35</ele>
        <time>2019-08-18T23:18:28Z</time>
      </trkpt>
      <trkpt lat="42.31922" lon="3.310071">
        <ele>35</ele>
        <time>2019-08-18T23:18:29Z</time>
      </trkpt>
      <trkpt lat="42.319202" lon="3.310068">
        <ele>35</ele>
        <time>2019-08-18T23:18:30Z</time>
      </trkpt>
      <trkpt lat="42.319183" lon="3.310065">
        <ele>35</ele>
        <time>2019-08-18T23:18:31Z</time>
      </trkpt>
      <trkpt lat="42.319165" lon="3.310062">
        <ele>35</ele>
        <time>2019-08-18T23:18:32Z</time>
      </trkpt>
      <trkpt lat="42.319146" lon="3.31006">
        <ele>35</ele>
        <time>2019-08-18T23:18:33Z</time>
      </trkpt>
      <trkpt lat="42.319128" lon="3.310057">
        <ele>35</ele>
        <time>2019-08-18T23:18:34Z</time>
      </trkpt>
      <trkpt lat="42.319109" lon="3.310054">
        <ele>37</ele>
        <time>2019-08-18T23:18:35Z</time>
      </trkpt>
      <trkpt lat="42.319073" lon="3.310056">
        <ele>37</ele>
        <time>2019-08-18T23:18:36Z</time>
      </trkpt>
      <trkpt lat="42.319055" lon="3.310057">
        <ele>37</ele>
        <time>2019-08-18T23:18:37Z</time>
      </trkpt>
      <trkpt lat="42.319038" lon="3.310059">
        <ele>37</ele>
        <time>2019-08-18T23:18:38Z</time>
      </trkpt>
      <trkpt lat="42.319021" lon="3.310061">
        <ele>37</ele>
        <time>2019-08-18T23:18:39Z</time>
      </trkpt>
      <trkpt lat="42.319004" lon="3.310063">
        <ele>37</ele>
        <time>2019-08-18T23:18:40Z</time>
      </trkpt>
      <trkpt lat="42.318986" lon="3.310064">
        <ele>37</ele>
        <time>2019-08-18T23:18:41Z</time>
      </trkpt>
      <trkpt lat="42.318969" lon="3.310066">
        <ele>37</ele>
        <time>2019-08-18T23:18:42Z</time>
      </trkpt>
      <trkpt lat="42.318952" lon="3.310068">
        <ele>37</ele>
        <time>2019-08-18T23:18:43Z</time>
      </trkpt>
      <trkpt lat="42.318934" lon="3.310069">
        <ele>37</ele>
        <time>2019-08-18T23:18:44Z</time>
      </trkpt>
      <trkpt lat="42.318917" lon="3.310071">
        <ele>39</ele>
        <time>2019-08-18T23:18:45Z</time>
      </trkpt>
      <trkpt lat="42.318866" lon="3.310065">
        <ele>39</ele>
        <time>2019-08-18T23:18:47Z</time>
      </trkpt>
      <trkpt lat="42.318851" lon="3.310057">
        <ele>39</ele>
        <time>2019-08-18T23:18:48Z</time>
      </trkpt>
      <trkpt lat="42.318836" lon="3.310048">
        <ele>39</ele>
        <time>2019-08-18T23:18:49Z</time>
      </trkpt>
      <trkpt lat="42.318821" lon="3.31004">
        <ele>39</ele>
        <time>2019-08-18T23:18:50Z</time>
      </trkpt>
      <trkpt lat="42.318807" lon="3.310031">
        <ele>39</ele>
        <time>2019-08-18T23:18:51Z</time>
      </trkpt>
      <trkpt lat="42.318792" lon="3.310023">
        <ele>39</ele>
        <time>2019-08-18T23:18:52Z</time>
      </trkpt>
      <trkpt lat="42.318777" lon="3.310014">
        <ele>39</ele>
        <time>2019-08-18T23:18:53Z</time>
      </trkpt>
      <trkpt lat="42.318762" lon="3.310006">
        <ele>39</ele>
        <time>2019-08-18T23:18:54Z</time>
      </trkpt>
      <trkpt lat="42.318747" lon="3.309997">
        <ele>41</ele>
        <time>2019-08-18T23:18:55Z</time>
      </trkpt>
      <trkpt lat="42.318732" lon="3.309957">
        <ele>41</ele>
        <time>2019-08-18T23:18:56Z</time>
      </trkpt>
      <trkpt lat="42.31873" lon="3.309935">
        <ele>41</ele>
        <time>2019-08-18T23:18:57Z</time>
      </trkpt>
      <trkpt lat="42.318729" lon="3.309913">
        <ele>41</ele>
        <time>2019-08-18T23:18:58Z</time>
      </trkpt>
      <trkpt lat="42.318727" lon="3.309891">
        <ele>41</ele>
        <time>2019-08-18T23:18:59Z</time>
      </trkpt>
      <trkpt lat="42.318725" lon="3.309869">
        <ele>41</ele>
        <time>2019-08-18T23:19:00Z</time>
      </trkpt>
      <trkpt lat="42.318723" lon="3.309848">
        <ele>41</ele>
        <time>2019-08-18T23:19:01Z</time>
      </trkpt>
      <trkpt lat="42.318721" lon="3.309826">
        <ele>41</ele>
        <time>2019-08-18T23:19:02Z</time>
      </trkpt>
      <trkpt lat="42.31872" lon="3.309804">
        <ele>41</ele>
        <time>2019-08-18T23:19:03Z</time>
      </trkpt>
      <trkpt lat="42.318718" lon="3.309782">
        <ele>41</ele>
        <time>2019-08-18T23:19:04Z</time>
      </trkpt>
      <trkpt lat="42.318716" lon="3.30976">
        <ele>43</ele>
        <time>2019-08-18T23:19:05Z</time>
      </trkpt>
      <trkpt lat="42.318731" lon="3.309716">
        <ele>43</ele>
        <time>2019-08-18T23:19:06Z</time>
      </trkpt>
      <trkpt lat="42.318739" lon="3.309696">
        <ele>43</ele>
        <time>2019-08-18T23:19:07Z</time>
      </trkpt>
      <trkpt lat="42.318748" lon="3.309677">
        <ele>43</ele>
        <time>2019-08-18T23:19:08Z</time>
      </trkpt>
      <trkpt lat="42.318756" lon="3.309657">
        <ele>43</ele>
        <time>2019-08-18T23:19:09Z</time>
      </trkpt>
      <trkpt lat="42.318765" lon="3.309638">
        <ele>43</ele>
        <time>2019-08-18T23:19:10Z</time>
      </trkpt>
      <trkpt lat="42.318773" lon="3.309619">
        <ele>43</ele>
        <time>2019-08-18T23:19:11Z</time>
      </trkpt>
      <trkpt lat="42.318782" lon="3.309599">
        <ele>43</ele>
        <time>2019-08-18T23:19:12Z</time>
      </trkpt>
      <trkpt lat="42.31879" lon="3.30958">
        <ele>43</ele>
        <time>2019-08-18T23:19:13Z</time>
      </trkpt>
      <trkpt lat="42.318799" lon="3.30956">
        <ele>43</ele>
        <time>2019-08-18T23:19:14Z</time>
      </trkpt>
      <trkpt lat="42.318807" lon="3.309541">
        <ele>44</ele>
        <time>2019-08-18T23:19:15Z</time>
      </trkpt>
      <trkpt lat="42.318839" lon="3.309512">
        <ele>44</ele>
        <time>2019-08-18T23:19:16Z</time>
      </trkpt>
      <trkpt lat="42.31886" lon="3.3095">
        <ele>44</ele>
        <time>2019-08-18T23:19:18Z</time>
      </trkpt>
      <trkpt lat="42.31888" lon="3.309488">
        <ele>44</ele>
        <time>2019-08-18T23:19:20Z</time>
      </trkpt>
      <trkpt lat="42.3189" lon="3.309477">
        <ele>44</ele>
        <time>2019-08-18T23:19:22Z</time>
      </trkpt>
      <trkpt lat="42.31892" lon="3.309465">
        <ele>44</ele>
        <time>2019-08-18T23:19:23Z</time>
      </trkpt>
      <trkpt lat="42.318941" lon="3.309453">
        <ele>44</ele>
        <time>2019-08-18T23:19:24Z</time>
      </trkpt>
      <trkpt lat="42.318961" lon="3.309441">
        <ele>46</ele>
        <time>2019-08-18T23:19:25Z</time>
      </trkpt>
      <trkpt lat="42.319001" lon="3.309421">
        <ele>46</ele>
        <time>2019-08-18T23:19:26Z</time>
      </trkpt>
      <trkpt lat="42.319025" lon="3.309411">
        <ele>46</ele>
        <time>2019-08-18T23:19:28Z</time>
      </trkpt>
      <trkpt lat="42.31905" lon="3.309401">
        <ele>46</ele>
        <time>2019-08-18T23:19:30Z</time>
      </trkpt>
      <trkpt lat="42.319074" lon="3.30939">
        <ele>46</ele>
        <time>2019-08-18T23:19:32Z</time>
      </trkpt>
      <trkpt lat="42.319099" lon="3.30938">
        <ele>46</ele>
        <time>2019-08-18T23:19:34Z</time>
      </trkpt>
      <trkpt lat="42.319123" lon="3.30937">
        <ele>47</ele>
        <time>2019-08-18T23:19:35Z</time>
      </trkpt>
      <trkpt lat="42.319155" lon="3.309355">
        <ele>47</ele>
        <time>2019-08-18T23:19:36Z</time>
      </trkpt>
      <trkpt lat="42.319171" lon="3.309347">
        <ele>47</ele>
        <time>2019-08-18T23:19:37Z</time>
      </trkpt>
      <trkpt lat="42.319186" lon="3.309339">
        <ele>47</ele>
        <time>2019-08-18T23:19:38Z</time>
      </trkpt>
      <trkpt lat="42.319202" lon="3.309331">
        <ele>47</ele>
        <time>2019-08-18T23:19:39Z</time>
      </trkpt>
      <trkpt lat="42.319218" lon="3.309323">
        <ele>47</ele>
        <time>2019-08-18T23:19:40Z</time>
      </trkpt>
      <trkpt lat="42.319234" lon="3.309314">
        <ele>47</ele>
        <time>2019-08-18T23:19:41Z</time>
      </trkpt>
      <trkpt lat="42.31925" lon="3.309306">
        <ele>47</ele>
        <time>2019-08-18T23:19:42Z</time>
      </trkpt>
      <trkpt lat="42.319265" lon="3.309298">
        <ele>47</ele>
        <time>2019-08-18T23:19:43Z</time>
      </trkpt>
      <trkpt lat="42.319281" lon="3.30929">
        <ele>47</ele>
        <time>2019-08-18T23:19:44Z</time>
      </trkpt>
      <trkpt lat="42.319297" lon="3.309282">
        <ele>48</ele>
        <time>2019-08-18T23:19:45Z</time>
      </trkpt>
      <trkpt lat="42.319354" lon="3.309253">
        <ele>48</ele>
        <time>2019-08-18T23:19:47Z</time>
      </trkpt>
      <trkpt lat="42.319378" lon="3.309239">
        <ele>48</ele>
        <time>2019-08-18T23:19:49Z</time>
      </trkpt>
      <trkpt lat="42.319401" lon="3.309225">
        <ele>48</ele>
        <time>2019-08-18T23:19:51Z</time>
      </trkpt>
      <trkpt lat="42.319425" lon="3.309211">
        <ele>48</ele>
        <time>2019-08-18T23:19:53Z</time>
      </trkpt>
      <trkpt lat="42.319448" lon="3.309197">
        <ele>50</ele>
        <time>2019-08-18T23:19:55Z</time>
      </trkpt>
      <trkpt lat="42.319471" lon="3.309172">
        <ele>50</ele>
        <time>2019-08-18T23:19:57Z</time>
      </trkpt>
      <trkpt lat="42.319501" lon="3.309152">
        <ele>50</ele>
        <time>2019-08-18T23:19:59Z</time>
      </trkpt>
      <trkpt lat="42.319528" lon="3.309129">
        <ele>50</ele>
        <time>2019-08-18T23:20:01Z</time>
      </trkpt>
      <trkpt lat="42.319555" lon="3.309108">
        <ele>50</ele>
        <time>2019-08-18T23:20:03Z</time>
      </trkpt>
      <trkpt lat="42.319569" lon="3.309081">
        <ele>51</ele>
        <time>2019-08-18T23:20:05Z</time>
      </trkpt>
      <trkpt lat="42.319585" lon="3.309058">
        <ele>51</ele>
        <time>2019-08-18T23:20:07Z</time>
      </trkpt>
      <trkpt lat="42.319608" lon="3.309035">
        <ele>51</ele>
        <time>2019-08-18T23:20:09Z</time>
      </trkpt>
      <trkpt lat="42.319628" lon="3.309005">
        <ele>51</ele>
        <time>2019-08-18T23:20:11Z</time>
      </trkpt>
      <trkpt lat="42.319653" lon="3.308973">
        <ele>51</ele>
        <time>2019-08-18T23:20:13Z</time>
      </trkpt>
      <trkpt lat="42.319679" lon="3.308942">
        <ele>53</ele>
        <time>2019-08-18T23:20:15Z</time>
      </trkpt>
      <trkpt lat="42.319714" lon="3.308876">
        <ele>53</ele>
        <time>2019-08-18T23:20:17Z</time>
      </trkpt>
      <trkpt lat="42.319728" lon="3.308844">
        <ele>53</ele>
        <time>2019-08-18T23:20:19Z</time>
      </trkpt>
      <trkpt lat="42.319743" lon="3.308812">
        <ele>53</ele>
        <time>2019-08-18T23:20:21Z</time>
      </trkpt>
      <trkpt lat="42.319757" lon="3.30878">
        <ele>53</ele>
        <time>2019-08-18T23:20:23Z</time>
      </trkpt>
      <trkpt lat="42.319772" lon="3.308748">
        <ele>55</ele>
        <time>2019-08-18T23:20:25Z</time>
      </trkpt>
      <trkpt lat="42.319799" lon="3.308677">
        <ele>55</ele>
        <time>2019-08-18T23:20:27Z</time>
      </trkpt>
      <trkpt lat="42.319807" lon="3.308648">
        <ele>55</ele>
        <time>2019-08-18T23:20:28Z</time>
      </trkpt>
      <trkpt lat="42.319816" lon="3.308618">
        <ele>55</ele>
        <time>2019-08-18T23:20:29Z</time>
      </trkpt>
      <trkpt lat="42.319824" lon="3.308588">
        <ele>55</ele>
        <time>2019-08-18T23:20:31Z</time>
      </trkpt>
      <trkpt lat="42.319833" lon="3.308559">
        <ele>55</ele>
        <time>2019-08-18T23:20:33Z</time>
      </trkpt>
      <trkpt lat="42.319841" lon="3.308529">
        <ele>56</ele>
        <time>2019-08-18T23:20:35Z</time>
      </trkpt>
      <trkpt lat="42.31986" lon="3.308453">
        <ele>56</ele>
        <time>2019-08-18T23:20:37Z</time>
      </trkpt>
      <trkpt lat="42.319865" lon="3.308418">
        <ele>56</ele>
        <time>2019-08-18T23:20:39Z</time>
      </trkpt>
      <trkpt lat="42.319869" lon="3.308382">
        <ele>56</ele>
        <time>2019-08-18T23:20:41Z</time>
      </trkpt>
      <trkpt lat="42.319874" lon="3.308347">
        <ele>56</ele>
        <time>2019-08-18T23:20:43Z</time>
      </trkpt>
      <trkpt lat="42.319879" lon="3.308311">
        <ele>57</ele>
        <time>2019-08-18T23:20:45Z</time>
      </trkpt>
      <trkpt lat="42.319885" lon="3.308237">
        <ele>57</ele>
        <time>2019-08-18T23:20:47Z</time>
      </trkpt>
      <trkpt lat="42.319885" lon="3.308207">
        <ele>57</ele>
        <time>2019-08-18T23:20:49Z</time>
      </trkpt>
      <trkpt lat="42.319885" lon="3.308176">
        <ele>57</ele>
        <time>2019-08-18T23:20:51Z</time>
      </trkpt>
      <trkpt lat="42.319885" lon="3.308145">
        <ele>57</ele>
        <time>2019-08-18T23:20:53Z</time>
      </trkpt>
      <trkpt lat="42.319885" lon="3.308115">
        <ele>57</ele>
        <time>2019-08-18T23:20:54Z</time>
      </trkpt>
      <trkpt lat="42.319885" lon="3.308084">
        <ele>59</ele>
        <time>2019-08-18T23:20:55Z</time>
      </trkpt>
      <trkpt lat="42.319881" lon="3.308005">
        <ele>59</ele>
        <time>2019-08-18T23:20:57Z</time>
      </trkpt>
      <trkpt lat="42.319877" lon="3.307973">
        <ele>59</ele>
        <time>2019-08-18T23:20:59Z</time>
      </trkpt>
      <trkpt lat="42.319874" lon="3.307942">
        <ele>59</ele>
        <time>2019-08-18T23:21:01Z</time>
      </trkpt>
      <trkpt lat="42.319871" lon="3.307911">
        <ele>59</ele>
        <time>2019-08-18T23:21:02Z</time>
      </trkpt>
      <trkpt lat="42.319867" lon="3.307879">
        <ele>59</ele>
        <time>2019-08-18T23:21:03Z</time>
      </trkpt>
      <trkpt lat="42.319864" lon="3.307848">
        <ele>60</ele>
        <time>2019-08-18T23:21:05Z</time>
      </trkpt>
      <trkpt lat="42.319853" lon="3.307803">
        <ele>60</ele>
        <time>2019-08-18T23:21:07Z</time>
      </trkpt>
      <trkpt lat="42.31984" lon="3.307758">
        <ele>60</ele>
        <time>2019-08-18T23:21:09Z</time>
      </trkpt>
      <trkpt lat="42.319834" lon="3.307734">
        <ele>60</ele>
        <time>2019-08-18T23:21:10Z</time>
      </trkpt>
      <trkpt lat="42.319831" lon="3.30771">
        <ele>60</ele>
        <time>2019-08-18T23:21:11Z</time>
      </trkpt>
      <trkpt lat="42.31983" lon="3.307686">
        <ele>60</ele>
        <time>2019-08-18T23:21:12Z</time>
      </trkpt>
      <trkpt lat="42.319828" lon="3.307662">
        <ele>60</ele>
        <time>2019-08-18T23:21:13Z</time>
      </trkpt>
      <trkpt lat="42.319821" lon="3.307615">
        <ele>63</ele>
        <time>2019-08-18T23:21:15Z</time>
      </trkpt>
      <trkpt lat="42.319808" lon="3.307546">
        <ele>63</ele>
        <time>2019-08-18T23:21:17Z</time>
      </trkpt>
      <trkpt lat="42.319804" lon="3.307524">
        <ele>63</ele>
        <time>2019-08-18T23:21:18Z</time>
      </trkpt>
      <trkpt lat="42.319799" lon="3.307501">
        <ele>63</ele>
        <time>2019-08-18T23:21:19Z</time>
      </trkpt>
      <trkpt lat="42.319794" lon="3.307479">
        <ele>63</ele>
        <time>2019-08-18T23:21:20Z</time>
      </trkpt>
      <trkpt lat="42.31979" lon="3.307457">
        <ele>63</ele>
        <time>2019-08-18T23:21:21Z</time>
      </trkpt>
      <trkpt lat="42.319785" lon="3.307435">
        <ele>63</ele>
        <time>2019-08-18T23:21:22Z</time>
      </trkpt>
      <trkpt lat="42.31978" lon="3.307412">
        <ele>63</ele>
        <time>2019-08-18T23:21:23Z</time>
      </trkpt>
      <trkpt lat="42.319776" lon="3.30739">
        <ele>63</ele>
        <time>2019-08-18T23:21:24Z</time>
      </trkpt>
      <trkpt lat="42.319771" lon="3.307368">
        <ele>63</ele>
        <time>2019-08-18T23:21:25Z</time>
      </trkpt>
      <trkpt lat="42.319762" lon="3.307319">
        <ele>63</ele>
        <time>2019-08-18T23:21:26Z</time>
      </trkpt>
      <trkpt lat="42.319758" lon="3.307297">
        <ele>63</ele>
        <time>2019-08-18T23:21:27Z</time>
      </trkpt>
      <trkpt lat="42.319754" lon="3.307274">
        <ele>63</ele>
        <time>2019-08-18T23:21:28Z</time>
      </trkpt>
      <trkpt lat="42.31975" lon="3.307251">
        <ele>63</ele>
        <time>2019-08-18T23:21:29Z</time>
      </trkpt>
      <trkpt lat="42.319746" lon="3.307228">
        <ele>63</ele>
        <time>2019-08-18T23:21:30Z</time>
      </trkpt>
      <trkpt lat="42.319741" lon="3.307206">
        <ele>63</ele>
        <time>2019-08-18T23:21:31Z</time>
      </trkpt>
      <trkpt lat="42.319737" lon="3.307183">
        <ele>63</ele>
        <time>2019-08-18T23:21:32Z</time>
      </trkpt>
      <trkpt lat="42.319733" lon="3.30716">
        <ele>63</ele>
        <time>2019-08-18T23:21:33Z</time>
      </trkpt>
      <trkpt lat="42.319729" lon="3.307138">
        <ele>63</ele>
        <time>2019-08-18T23:21:34Z</time>
      </trkpt>
      <trkpt lat="42.319725" lon="3.307115">
        <ele>64</ele>
        <time>2019-08-18T23:21:35Z</time>
      </trkpt>
      <trkpt lat="42.319713" lon="3.307046">
        <ele>64</ele>
        <time>2019-08-18T23:21:37Z</time>
      </trkpt>
      <trkpt lat="42.319708" lon="3.307023">
        <ele>64</ele>
        <time>2019-08-18T23:21:38Z</time>
      </trkpt>
      <trkpt lat="42.319704" lon="3.307001">
        <ele>64</ele>
        <time>2019-08-18T23:21:39Z</time>
      </trkpt>
      <trkpt lat="42.3197" lon="3.306979">
        <ele>64</ele>
        <time>2019-08-18T23:21:40Z</time>
      </trkpt>
      <trkpt lat="42.319695" lon="3.306956">
        <ele>64</ele>
        <time>2019-08-18T23:21:41Z</time>
      </trkpt>
      <trkpt lat="42.319691" lon="3.306934">
        <ele>64</ele>
        <time>2019-08-18T23:21:42Z</time>
      </trkpt>
      <trkpt lat="42.319687" lon="3.306912">
        <ele>64</ele>
        <time>2019-08-18T23:21:43Z</time>
      </trkpt>
      <trkpt lat="42.319682" lon="3.306889">
        <ele>64</ele>
        <time>2019-08-18T23:21:44Z</time>
      </trkpt>
      <trkpt lat="42.319678" lon="3.306867">
        <ele>65</ele>
        <time>2019-08-18T23:21:45Z</time>
      </trkpt>
      <trkpt lat="42.319667" lon="3.306818">
        <ele>65</ele>
        <time>2019-08-18T23:21:46Z</time>
      </trkpt>
      <trkpt lat="42.319663" lon="3.306794">
        <ele>65</ele>
        <time>2019-08-18T23:21:47Z</time>
      </trkpt>
      <trkpt lat="42.319658" lon="3.306771">
        <ele>65</ele>
        <time>2019-08-18T23:21:48Z</time>
      </trkpt>
      <trkpt lat="42.319654" lon="3.306747">
        <ele>65</ele>
        <time>2019-08-18T23:21:49Z</time>
      </trkpt>
      <trkpt lat="42.319649" lon="3.306724">
        <ele>65</ele>
        <time>2019-08-18T23:21:50Z</time>
      </trkpt>
      <trkpt lat="42.319644" lon="3.306701">
        <ele>65</ele>
        <time>2019-08-18T23:21:51Z</time>
      </trkpt>
      <trkpt lat="42.31964" lon="3.306677">
        <ele>65</ele>
        <time>2019-08-18T23:21:52Z</time>
      </trkpt>
      <trkpt lat="42.319635" lon="3.306654">
        <ele>65</ele>
        <time>2019-08-18T23:21:53Z</time>
      </trkpt>
      <trkpt lat="42.319631" lon="3.30663">
        <ele>65</ele>
        <time>2019-08-18T23:21:54Z</time>
      </trkpt>
      <trkpt lat="42.319626" lon="3.306607">
        <ele>66</ele>
        <time>2019-08-18T23:21:55Z</time>
      </trkpt>
      <trkpt lat="42.319616" lon="3.306559">
        <ele>66</ele>
        <time>2019-08-18T23:21:56Z</time>
      </trkpt>
      <trkpt lat="42.319612" lon="3.306536">
        <ele>66</ele>
        <time>2019-08-18T23:21:57Z</time>
      </trkpt>
      <trkpt lat="42.319608" lon="3.306512">
        <ele>66</ele>
        <time>2019-08-18T23:21:58Z</time>
      </trkpt>
      <trkpt lat="42.319604" lon="3.306488">
        <ele>66</ele>
        <time>2019-08-18T23:21:59Z</time>
      </trkpt>
      <trkpt lat="42.319601" lon="3.306464">
        <ele>66</ele>
        <time>2019-08-18T23:22:00Z</time>
      </trkpt>
      <trkpt lat="42.319597" lon="3.306441">
        <ele>66</ele>
        <time>2019-08-18T23:22:01Z</time>
      </trkpt>
      <trkpt lat="42.319593" lon="3.306417">
        <ele>66</ele>
        <time>2019-08-18T23:22:02Z</time>
      </trkpt>
      <trkpt lat="42.319589" lon="3.306393">
        <ele>66</ele>
        <time>2019-08-18T23:22:03Z</time>
      </trkpt>
      <trkpt lat="42.319585" lon="3.30637">
        <ele>66</ele>
        <time>2019-08-18T23:22:04Z</time>
      </trkpt>
      <trkpt lat="42.319581" lon="3.306346">
        <ele>68</ele>
        <time>2019-08-18T23:22:05Z</time>
      </trkpt>
      <trkpt lat="42.31957" lon="3.306295">
        <ele>68</ele>
        <time>2019-08-18T23:22:06Z</time>
      </trkpt>
      <trkpt lat="42.319566" lon="3.306271">
        <ele>68</ele>
        <time>2019-08-18T23:22:07Z</time>
      </trkpt>
      <trkpt lat="42.319561" lon="3.306246">
        <ele>68</ele>
        <time>2019-08-18T23:22:08Z</time>
      </trkpt>
      <trkpt lat="42.319557" lon="3.306222">
        <ele>68</ele>
        <time>2019-08-18T23:22:09Z</time>
      </trkpt>
      <trkpt lat="42.319552" lon="3.306197">
        <ele>68</ele>
        <time>2019-08-18T23:22:10Z</time>
      </trkpt>
      <trkpt lat="42.319547" lon="3.306173">
        <ele>68</ele>
        <time>2019-08-18T23:22:11Z</time>
      </trkpt>
      <trkpt lat="42.319543" lon="3.306148">
        <ele>68</ele>
        <time>2019-08-18T23:22:12Z</time>
      </trkpt>
      <trkpt lat="42.319538" lon="3.306124">
        <ele>68</ele>
        <time>2019-08-18T23:22:13Z</time>
      </trkpt>
      <trkpt lat="42.319534" lon="3.306099">
        <ele>68</ele>
        <time>2019-08-18T23:22:14Z</time>
      </trkpt>
      <trkpt lat="42.319529" lon="3.306075">
        <ele>69</ele>
        <time>2019-08-18T23:22:15Z</time>
      </trkpt>
      <trkpt lat="42.319518" lon="3.306023">
        <ele>69</ele>
        <time>2019-08-18T23:22:16Z</time>
      </trkpt>
      <trkpt lat="42.319514" lon="3.305997">
        <ele>69</ele>
        <time>2019-08-18T23:22:17Z</time>
      </trkpt>
      <trkpt lat="42.31951" lon="3.305972">
        <ele>69</ele>
        <time>2019-08-18T23:22:18Z</time>
      </trkpt>
      <trkpt lat="42.319506" lon="3.305946">
        <ele>69</ele>
        <time>2019-08-18T23:22:19Z</time>
      </trkpt>
      <trkpt lat="42.319503" lon="3.305921">
        <ele>69</ele>
        <time>2019-08-18T23:22:20Z</time>
      </trkpt>
      <trkpt lat="42.319499" lon="3.305896">
        <ele>69</ele>
        <time>2019-08-18T23:22:21Z</time>
      </trkpt>
      <trkpt lat="42.319495" lon="3.30587">
        <ele>69</ele>
        <time>2019-08-18T23:22:22Z</time>
      </trkpt>
      <trkpt lat="42.319491" lon="3.305845">
        <ele>69</ele>
        <time>2019-08-18T23:22:23Z</time>
      </trkpt>
      <trkpt lat="42.319487" lon="3.305819">
        <ele>69</ele>
        <time>2019-08-18T23:22:24Z</time>
      </trkpt>
      <trkpt lat="42.319483" lon="3.305794">
        <ele>69</ele>
        <time>2019-08-18T23:22:25Z</time>
      </trkpt>
      <trkpt lat="42.31947" lon="3.305738">
        <ele>69</ele>
        <time>2019-08-18T23:22:26Z</time>
      </trkpt>
      <trkpt lat="42.319465" lon="3.30571">
        <ele>69</ele>
        <time>2019-08-18T23:22:27Z</time>
      </trkpt>
      <trkpt lat="42.31946" lon="3.305682">
        <ele>69</ele>
        <time>2019-08-18T23:22:28Z</time>
      </trkpt>
      <trkpt lat="42.319455" lon="3.305654">
        <ele>69</ele>
        <time>2019-08-18T23:22:29Z</time>
      </trkpt>
      <trkpt lat="42.319451" lon="3.305626">
        <ele>69</ele>
        <time>2019-08-18T23:22:30Z</time>
      </trkpt>
      <trkpt lat="42.319446" lon="3.305598">
        <ele>69</ele>
        <time>2019-08-18T23:22:31Z</time>
      </trkpt>
      <trkpt lat="42.319441" lon="3.30557">
        <ele>69</ele>
        <time>2019-08-18T23:22:32Z</time>
      </trkpt>
      <trkpt lat="42.319436" lon="3.305542">
        <ele>69</ele>
        <time>2019-08-18T23:22:33Z</time>
      </trkpt>
      <trkpt lat="42.319431" lon="3.305514">
        <ele>69</ele>
        <time>2019-08-18T23:22:34Z</time>
      </trkpt>
      <trkpt lat="42.319426" lon="3.305486">
        <ele>71</ele>
        <time>2019-08-18T23:22:35Z</time>
      </trkpt>
      <trkpt lat="42.319413" lon="3.305423">
        <ele>71</ele>
        <time>2019-08-18T23:22:36Z</time>
      </trkpt>
      <trkpt lat="42.319408" lon="3.305393">
        <ele>71</ele>
        <time>2019-08-18T23:22:37Z</time>
      </trkpt>
      <trkpt lat="42.319402" lon="3.305362">
        <ele>71</ele>
        <time>2019-08-18T23:22:38Z</time>
      </trkpt>
      <trkpt lat="42.319397" lon="3.305332">
        <ele>71</ele>
        <time>2019-08-18T23:22:39Z</time>
      </trkpt>
      <trkpt lat="42.319392" lon="3.305301">
        <ele>71</ele>
        <time>2019-08-18T23:22:40Z</time>
      </trkpt>
      <trkpt lat="42.319387" lon="3.30527">
        <ele>71</ele>
        <time>2019-08-18T23:22:41Z</time>
      </trkpt>
      <trkpt lat="42.319382" lon="3.30524">
        <ele>71</ele>
        <time>2019-08-18T23:22:42Z</time>
      </trkpt>
      <trkpt lat="42.319376" lon="3.305209">
        <ele>71</ele>
        <time>2019-08-18T23:22:43Z</time>
      </trkpt>
      <trkpt lat="42.319371" lon="3.305179">
        <ele>71</ele>
        <time>2019-08-18T23:22:44Z</time>
      </trkpt>
      <trkpt lat="42.319366" lon="3.305148">
        <ele>72</ele>
        <time>2019-08-18T23:22:45Z</time>
      </trkpt>
      <trkpt lat="42.319354" lon="3.305081">
        <ele>72</ele>
        <time>2019-08-18T23:22:46Z</time>
      </trkpt>
      <trkpt lat="42.319347" lon="3.305049">
        <ele>72</ele>
        <time>2019-08-18T23:22:47Z</time>
      </trkpt>
      <trkpt lat="42.319341" lon="3.305016">
        <ele>72</ele>
        <time>2019-08-18T23:22:48Z</time>
      </trkpt>
      <trkpt lat="42.319335" lon="3.304984">
        <ele>72</ele>
        <time>2019-08-18T23:22:49Z</time>
      </trkpt>
      <trkpt lat="42.319329" lon="3.304951">
        <ele>72</ele>
        <time>2019-08-18T23:22:50Z</time>
      </trkpt>
      <trkpt lat="42.319322" lon="3.304918">
        <ele>72</ele>
        <time>2019-08-18T23:22:51Z</time>
      </trkpt>
      <trkpt lat="42.319316" lon="3.304886">
        <ele>72</ele>
        <time>2019-08-18T23:22:52Z</time>
      </trkpt>
      <trkpt lat="42.31931" lon="3.304853">
        <ele>72</ele>
        <time>2019-08-18T23:22:53Z</time>
      </trkpt>
      <trkpt lat="42.319303" lon="3.304821">
        <ele>72</ele>
        <time>2019-08-18T23:22:54Z</time>
      </trkpt>
      <trkpt lat="42.319297" lon="3.304788">
        <ele>72</ele>
        <time>2019-08-18T23:22:55Z</time>
      </trkpt>
      <trkpt lat="42.319284" lon="3.304712">
        <ele>72</ele>
        <time>2019-08-18T23:22:56Z</time>
      </trkpt>
      <trkpt lat="42.319278" lon="3.304675">
        <ele>72</ele>
        <time>2019-08-18T23:22:57Z</time>
      </trkpt>
      <trkpt lat="42.319271" lon="3.304639">
        <ele>72</ele>
        <time>2019-08-18T23:22:58Z</time>
      </trkpt>
      <trkpt lat="42.319264" lon="3.304602">
        <ele>72</ele>
        <time>2019-08-18T23:22:59Z</time>
      </trkpt>
      <trkpt lat="42.319258" lon="3.304565">
        <ele>72</ele>
        <time>2019-08-18T23:23:00Z</time>
      </trkpt>
      <trkpt lat="42.319251" lon="3.304528">
        <ele>72</ele>
        <time>2019-08-18T23:23:01Z</time>
      </trkpt>
      <trkpt lat="42.319244" lon="3.304491">
        <ele>72</ele>
        <time>2019-08-18T23:23:02Z</time>
      </trkpt>
      <trkpt lat="42.319237" lon="3.304455">
        <ele>72</ele>
        <time>2019-08-18T23:23:03Z</time>
      </trkpt>
      <trkpt lat="42.319231" lon="3.304418">
        <ele>72</ele>
        <time>2019-08-18T23:23:04Z</time>
      </trkpt>
      <trkpt lat="42.319224" lon="3.304381">
        <ele>72</ele>
        <time>2019-08-18T23:23:05Z</time>
      </trkpt>
      <trkpt lat="42.319208" lon="3.304298">
        <ele>72</ele>
        <time>2019-08-18T23:23:06Z</time>
      </trkpt>
      <trkpt lat="42.3192" lon="3.304257">
        <ele>72</ele>
        <time>2019-08-18T23:23:07Z</time>
      </trkpt>
      <trkpt lat="42.319193" lon="3.304215">
        <ele>72</ele>
        <time>2019-08-18T23:23:08Z</time>
      </trkpt>
      <trkpt lat="42.319185" lon="3.304174">
        <ele>72</ele>
        <time>2019-08-18T23:23:09Z</time>
      </trkpt>
      <trkpt lat="42.319177" lon="3.304133">
        <ele>72</ele>
        <time>2019-08-18T23:23:10Z</time>
      </trkpt>
      <trkpt lat="42.319169" lon="3.304092">
        <ele>72</ele>
        <time>2019-08-18T23:23:11Z</time>
      </trkpt>
      <trkpt lat="42.319161" lon="3.304051">
        <ele>72</ele>
        <time>2019-08-18T23:23:12Z</time>
      </trkpt>
      <trkpt lat="42.319154" lon="3.304009">
        <ele>72</ele>
        <time>2019-08-18T23:23:13Z</time>
      </trkpt>
      <trkpt lat="42.319146" lon="3.303968">
        <ele>72</ele>
        <time>2019-08-18T23:23:14Z</time>
      </trkpt>
      <trkpt lat="42.319138" lon="3.303927">
        <ele>72</ele>
        <time>2019-08-18T23:23:15Z</time>
      </trkpt>
      <trkpt lat="42.319123" lon="3.303838">
        <ele>72</ele>
        <time>2019-08-18T23:23:16Z</time>
      </trkpt>
      <trkpt lat="42.319116" lon="3.303794">
        <ele>72</ele>
        <time>2019-08-18T23:23:17Z</time>
      </trkpt>
      <trkpt lat="42.319108" lon="3.303749">
        <ele>72</ele>
        <time>2019-08-18T23:23:18Z</time>
      </trkpt>
      <trkpt lat="42.3191" lon="3.303705">
        <ele>72</ele>
        <time>2019-08-18T23:23:19Z</time>
      </trkpt>
      <trkpt lat="42.319093" lon="3.303661">
        <ele>72</ele>
        <time>2019-08-18T23:23:20Z</time>
      </trkpt>
      <trkpt lat="42.319085" lon="3.303617">
        <ele>72</ele>
        <time>2019-08-18T23:23:21Z</time>
      </trkpt>
      <trkpt lat="42.319077" lon="3.303573">
        <ele>72</ele>
        <time>2019-08-18T23:23:22Z</time>
      </trkpt>
      <trkpt lat="42.319069" lon="3.303528">
        <ele>72</ele>
        <time>2019-08-18T23:23:23Z</time>
      </trkpt>
      <trkpt lat="42.319062" lon="3.303484">
        <ele>72</ele>
        <time>2019-08-18T23:23:24Z</time>
      </trkpt>
      <trkpt lat="42.319054" lon="3.30344">
        <ele>72</ele>
        <time>2019-08-18T23:23:25Z</time>
      </trkpt>
      <trkpt lat="42.319034" lon="3.303337">
        <ele>72</ele>
        <time>2019-08-18T23:23:26Z</time>
      </trkpt>
      <trkpt lat="42.319027" lon="3.303285">
        <ele>72</ele>
        <time>2019-08-18T23:23:27Z</time>
      </trkpt>
      <trkpt lat="42.319019" lon="3.303234">
        <ele>72</ele>
        <time>2019-08-18T23:23:28Z</time>
      </trkpt>
      <trkpt lat="42.319012" lon="3.303182">
        <ele>72</ele>
        <time>2019-08-18T23:23:29Z</time>
      </trkpt>
      <trkpt lat="42.319004" lon="3.30313">
        <ele>72</ele>
        <time>2019-08-18T23:23:30Z</time>
      </trkpt>
      <trkpt lat="42.318996" lon="3.303078">
        <ele>72</ele>
        <time>2019-08-18T23:23:31Z</time>
      </trkpt>
      <trkpt lat="42.318989" lon="3.303026">
        <ele>72</ele>
        <time>2019-08-18T23:23:32Z</time>
      </trkpt>
      <trkpt lat="42.318981" lon="3.302975">
        <ele>72</ele>
        <time>2019-08-18T23:23:33Z</time>
      </trkpt>
      <trkpt lat="42.318974" lon="3.302923">
        <ele>72</ele>
        <time>2019-08-18T23:23:34Z</time>
      </trkpt>
      <trkpt lat="42.318966" lon="3.302871">
        <ele>71</ele>
        <time>2019-08-18T23:23:35Z</time>
      </trkpt>
      <trkpt lat="42.318959" lon="3.302719">
        <ele>71</ele>
        <time>2019-08-18T23:23:36Z</time>
      </trkpt>
      <trkpt lat="42.318963" lon="3.30263">
        <ele>71</ele>
        <time>2019-08-18T23:23:37Z</time>
      </trkpt>
      <trkpt lat="42.318968" lon="3.302542">
        <ele>71</ele>
        <time>2019-08-18T23:23:38Z</time>
      </trkpt>
      <trkpt lat="42.318972" lon="3.302453">
        <ele>71</ele>
        <time>2019-08-18T23:23:39Z</time>
      </trkpt>
      <trkpt lat="42.318977" lon="3.302365">
        <ele>71</ele>
        <time>2019-08-18T23:23:40Z</time>
      </trkpt>
      <trkpt lat="42.318981" lon="3.302276">
        <ele>71</ele>
        <time>2019-08-18T23:23:41Z</time>
      </trkpt>
      <trkpt lat="42.318986" lon="3.302188">
        <ele>71</ele>
        <time>2019-08-18T23:23:42Z</time>
      </trkpt>
      <trkpt lat="42.31899" lon="3.302099">
        <ele>71</ele>
        <time>2019-08-18T23:23:44Z</time>
      </trkpt>
      <trkpt lat="42.318995" lon="3.302011">
        <ele>71</ele>
        <time>2019-08-18T23:23:45Z</time>
      </trkpt>
      <trkpt lat="42.319065" lon="3.301855">
        <ele>71</ele>
        <time>2019-08-18T23:23:46Z</time>
      </trkpt>
      <trkpt lat="42.319103" lon="3.301789">
        <ele>71</ele>
        <time>2019-08-18T23:23:47Z</time>
      </trkpt>
      <trkpt lat="42.31914" lon="3.301723">
        <ele>71</ele>
        <time>2019-08-18T23:23:48Z</time>
      </trkpt>
      <trkpt lat="42.319178" lon="3.301657">
        <ele>71</ele>
        <time>2019-08-18T23:23:49Z</time>
      </trkpt>
      <trkpt lat="42.319216" lon="3.301592">
        <ele>71</ele>
        <time>2019-08-18T23:23:50Z</time>
      </trkpt>
      <trkpt lat="42.319254" lon="3.301526">
        <ele>71</ele>
        <time>2019-08-18T23:23:51Z</time>
      </trkpt>
      <trkpt lat="42.319292" lon="3.30146">
        <ele>71</ele>
        <time>2019-08-18T23:23:52Z</time>
      </trkpt>
      <trkpt lat="42.319329" lon="3.301394">
        <ele>71</ele>
        <time>2019-08-18T23:23:53Z</time>
      </trkpt>
      <trkpt lat="42.319367" lon="3.301328">
        <ele>71</ele>
        <time>2019-08-18T23:23:54Z</time>
      </trkpt>
      <trkpt lat="42.319405" lon="3.301262">
        <ele>69</ele>
        <time>2019-08-18T23:23:55Z</time>
      </trkpt>
      <trkpt lat="42.319472" lon="3.301137">
        <ele>69</ele>
        <time>2019-08-18T23:23:56Z</time>
      </trkpt>
      <trkpt lat="42.3195" lon="3.301079">
        <ele>69</ele>
        <time>2019-08-18T23:23:57Z</time>
      </trkpt>
      <trkpt lat="42.319528" lon="3.301022">
        <ele>69</ele>
        <time>2019-08-18T23:23:58Z</time>
      </trkpt>
      <trkpt lat="42.319556" lon="3.300964">
        <ele>69</ele>
        <time>2019-08-18T23:23:59Z</time>
      </trkpt>
      <trkpt lat="42.319584" lon="3.300907">
        <ele>69</ele>
        <time>2019-08-18T23:24:00Z</time>
      </trkpt>
      <trkpt lat="42.319612" lon="3.30085">
        <ele>69</ele>
        <time>2019-08-18T23:24:01Z</time>
      </trkpt>
      <trkpt lat="42.31964" lon="3.300792">
        <ele>69</ele>
        <time>2019-08-18T23:24:02Z</time>
      </trkpt>
      <trkpt lat="42.319668" lon="3.300735">
        <ele>69</ele>
        <time>2019-08-18T23:24:03Z</time>
      </trkpt>
      <trkpt lat="42.319696" lon="3.300677">
        <ele>69</ele>
        <time>2019-08-18T23:24:04Z</time>
      </trkpt>
      <trkpt lat="42.319724" lon="3.30062">
        <ele>66</ele>
        <time>2019-08-18T23:24:05Z</time>
      </trkpt>
      <trkpt lat="42.319764" lon="3.300522">
        <ele>66</ele>
        <time>2019-08-18T23:24:06Z</time>
      </trkpt>
      <trkpt lat="42.319779" lon="3.300479">
        <ele>66</ele>
        <time>2019-08-18T23:24:07Z</time>
      </trkpt>
      <trkpt lat="42.319794" lon="3.300437">
        <ele>66</ele>
        <time>2019-08-18T23:24:08Z</time>
      </trkpt>
      <trkpt lat="42.319809" lon="3.300395">
        <ele>66</ele>
        <time>2019-08-18T23:24:09Z</time>
      </trkpt>
      <trkpt lat="42.319824" lon="3.300353">
        <ele>66</ele>
        <time>2019-08-18T23:24:10Z</time>
      </trkpt>
      <trkpt lat="42.319839" lon="3.30031">
        <ele>66</ele>
        <time>2019-08-18T23:24:11Z</time>
      </trkpt>
      <trkpt lat="42.319854" lon="3.300268">
        <ele>66</ele>
        <time>2019-08-18T23:24:12Z</time>
      </trkpt>
      <trkpt lat="42.319869" lon="3.300226">
        <ele>66</ele>
        <time>2019-08-18T23:24:13Z</time>
      </trkpt>
      <trkpt lat="42.319884" lon="3.300183">
        <ele>66</ele>
        <time>2019-08-18T23:24:14Z</time>
      </trkpt>
      <trkpt lat="42.319899" lon="3.300141">
        <ele>64</ele>
        <time>2019-08-18T23:24:15Z</time>
      </trkpt>
      <trkpt lat="42.319927" lon="3.300059">
        <ele>64</ele>
        <time>2019-08-18T23:24:16Z</time>
      </trkpt>
      <trkpt lat="42.319941" lon="3.300021">
        <ele>64</ele>
        <time>2019-08-18T23:24:17Z</time>
      </trkpt>
      <trkpt lat="42.319954" lon="3.299983">
        <ele>64</ele>
        <time>2019-08-18T23:24:18Z</time>
      </trkpt>
      <trkpt lat="42.319968" lon="3.299945">
        <ele>64</ele>
        <time>2019-08-18T23:24:19Z</time>
      </trkpt>
      <trkpt lat="42.319981" lon="3.299907">
        <ele>64</ele>
        <time>2019-08-18T23:24:20Z</time>
      </trkpt>
      <trkpt lat="42.319994" lon="3.299869">
        <ele>64</ele>
        <time>2019-08-18T23:24:21Z</time>
      </trkpt>
      <trkpt lat="42.320008" lon="3.299831">
        <ele>64</ele>
        <time>2019-08-18T23:24:22Z</time>
      </trkpt>
      <trkpt lat="42.320021" lon="3.299793">
        <ele>64</ele>
        <time>2019-08-18T23:24:23Z</time>
      </trkpt>
      <trkpt lat="42.320035" lon="3.299755">
        <ele>64</ele>
        <time>2019-08-18T23:24:24Z</time>
      </trkpt>
      <trkpt lat="42.320048" lon="3.299717">
        <ele>65</ele>
        <time>2019-08-18T23:24:25Z</time>
      </trkpt>
      <trkpt lat="42.320073" lon="3.299637">
        <ele>65</ele>
        <time>2019-08-18T23:24:26Z</time>
      </trkpt>
      <trkpt lat="42.320086" lon="3.299599">
        <ele>65</ele>
        <time>2019-08-18T23:24:27Z</time>
      </trkpt>
      <trkpt lat="42.320098" lon="3.299562">
        <ele>65</ele>
        <time>2019-08-18T23:24:28Z</time>
      </trkpt>
      <trkpt lat="42.32011" lon="3.299524">
        <ele>65</ele>
        <time>2019-08-18T23:24:29Z</time>
      </trkpt>
      <trkpt lat="42.320123" lon="3.299487">
        <ele>65</ele>
        <time>2019-08-18T23:24:30Z</time>
      </trkpt>
      <trkpt lat="42.320135" lon="3.29945">
        <ele>65</ele>
        <time>2019-08-18T23:24:31Z</time>
      </trkpt>
      <trkpt lat="42.320147" lon="3.299412">
        <ele>65</ele>
        <time>2019-08-18T23:24:32Z</time>
      </trkpt>
      <trkpt lat="42.320159" lon="3.299375">
        <ele>65</ele>
        <time>2019-08-18T23:24:33Z</time>
      </trkpt>
      <trkpt lat="42.320172" lon="3.299337">
        <ele>65</ele>
        <time>2019-08-18T23:24:34Z</time>
      </trkpt>
      <trkpt lat="42.320184" lon="3.2993">
        <ele>65</ele>
        <time>2019-08-18T23:24:35Z</time>
      </trkpt>
      <trkpt lat="42.320211" lon="3.299223">
        <ele>65</ele>
        <time>2019-08-18T23:24:36Z</time>
      </trkpt>
      <trkpt lat="42.320224" lon="3.299187">
        <ele>65</ele>
        <time>2019-08-18T23:24:37Z</time>
      </trkpt>
      <trkpt lat="42.320238" lon="3.29915">
        <ele>65</ele>
        <time>2019-08-18T23:24:38Z</time>
      </trkpt>
      <trkpt lat="42.320251" lon="3.299114">
        <ele>65</ele>
        <time>2019-08-18T23:24:39Z</time>
      </trkpt>
      <trkpt lat="42.320265" lon="3.299077">
        <ele>65</ele>
        <time>2019-08-18T23:24:40Z</time>
      </trkpt>
      <trkpt lat="42.320279" lon="3.29904">
        <ele>65</ele>
        <time>2019-08-18T23:24:41Z</time>
      </trkpt>
      <trkpt lat="42.320292" lon="3.299004">
        <ele>65</ele>
        <time>2019-08-18T23:24:42Z</time>
      </trkpt>
      <trkpt lat="42.320306" lon="3.298967">
        <ele>65</ele>
        <time>2019-08-18T23:24:43Z</time>
      </trkpt>
      <trkpt lat="42.320319" lon="3.298931">
        <ele>65</ele>
        <time>2019-08-18T23:24:44Z</time>
      </trkpt>
      <trkpt lat="42.320333" lon="3.298894">
        <ele>67</ele>
        <time>2019-08-18T23:24:45Z</time>
      </trkpt>
      <trkpt lat="42.320373" lon="3.298824">
        <ele>67</ele>
        <time>2019-08-18T23:24:46Z</time>
      </trkpt>
      <trkpt lat="42.320395" lon="3.298793">
        <ele>67</ele>
        <time>2019-08-18T23:24:47Z</time>
      </trkpt>
      <trkpt lat="42.320418" lon="3.298762">
        <ele>67</ele>
        <time>2019-08-18T23:24:48Z</time>
      </trkpt>
      <trkpt lat="42.320441" lon="3.298731">
        <ele>67</ele>
        <time>2019-08-18T23:24:49Z</time>
      </trkpt>
      <trkpt lat="42.320464" lon="3.2987">
        <ele>67</ele>
        <time>2019-08-18T23:24:50Z</time>
      </trkpt>
      <trkpt lat="42.320486" lon="3.298669">
        <ele>67</ele>
        <time>2019-08-18T23:24:51Z</time>
      </trkpt>
      <trkpt lat="42.320509" lon="3.298638">
        <ele>67</ele>
        <time>2019-08-18T23:24:52Z</time>
      </trkpt>
      <trkpt lat="42.320532" lon="3.298607">
        <ele>67</ele>
        <time>2019-08-18T23:24:53Z</time>
      </trkpt>
      <trkpt lat="42.320554" lon="3.298576">
        <ele>67</ele>
        <time>2019-08-18T23:24:54Z</time>
      </trkpt>
      <trkpt lat="42.320577" lon="3.298545">
        <ele>68</ele>
        <time>2019-08-18T23:24:55Z</time>
      </trkpt>
      <trkpt lat="42.320629" lon="3.298482">
        <ele>68</ele>
        <time>2019-08-18T23:24:56Z</time>
      </trkpt>
      <trkpt lat="42.320654" lon="3.298452">
        <ele>68</ele>
        <time>2019-08-18T23:24:57Z</time>
      </trkpt>
      <trkpt lat="42.320678" lon="3.298422">
        <ele>68</ele>
        <time>2019-08-18T23:24:58Z</time>
      </trkpt>
      <trkpt lat="42.320702" lon="3.298392">
        <ele>68</ele>
        <time>2019-08-18T23:24:59Z</time>
      </trkpt>
      <trkpt lat="42.320727" lon="3.298363">
        <ele>68</ele>
        <time>2019-08-18T23:25:00Z</time>
      </trkpt>
      <trkpt lat="42.320751" lon="3.298333">
        <ele>68</ele>
        <time>2019-08-18T23:25:01Z</time>
      </trkpt>
      <trkpt lat="42.320775" lon="3.298303">
        <ele>68</ele>
        <time>2019-08-18T23:25:02Z</time>
      </trkpt>
      <trkpt lat="42.320799" lon="3.298273">
        <ele>68</ele>
        <time>2019-08-18T23:25:03Z</time>
      </trkpt>
      <trkpt lat="42.320824" lon="3.298243">
        <ele>68</ele>
        <time>2019-08-18T23:25:04Z</time>
      </trkpt>
      <trkpt lat="42.320848" lon="3.298213">
        <ele>68</ele>
        <time>2019-08-18T23:25:05Z</time>
      </trkpt>
      <trkpt lat="42.320898" lon="3.298146">
        <ele>68</ele>
        <time>2019-08-18T23:25:06Z</time>
      </trkpt>
      <trkpt lat="42.320923" lon="3.298114">
        <ele>68</ele>
        <time>2019-08-18T23:25:07Z</time>
      </trkpt>
      <trkpt lat="42.320947" lon="3.298081">
        <ele>68</ele>
        <time>2019-08-18T23:25:08Z</time>
      </trkpt>
      <trkpt lat="42.320972" lon="3.298049">
        <ele>68</ele>
        <time>2019-08-18T23:25:09Z</time>
      </trkpt>
      <trkpt lat="42.320996" lon="3.298016">
        <ele>68</ele>
        <time>2019-08-18T23:25:10Z</time>
      </trkpt>
      <trkpt lat="42.32102" lon="3.297983">
        <ele>68</ele>
        <time>2019-08-18T23:25:11Z</time>
      </trkpt>
      <trkpt lat="42.321045" lon="3.297951">
        <ele>68</ele>
        <time>2019-08-18T23:25:12Z</time>
      </trkpt>
      <trkpt lat="42.321069" lon="3.297918">
        <ele>68</ele>
        <time>2019-08-18T23:25:13Z</time>
      </trkpt>
      <trkpt lat="42.321094" lon="3.297886">
        <ele>68</ele>
        <time>2019-08-18T23:25:14Z</time>
      </trkpt>
      <trkpt lat="42.321118" lon="3.297853">
        <ele>67</ele>
        <time>2019-08-18T23:25:15Z</time>
      </trkpt>
      <trkpt lat="42.321166" lon="3.297766">
        <ele>67</ele>
        <time>2019-08-18T23:25:16Z</time>
      </trkpt>
      <trkpt lat="42.321186" lon="3.297719">
        <ele>67</ele>
        <time>2019-08-18T23:25:17Z</time>
      </trkpt>
      <trkpt lat="42.321207" lon="3.297673">
        <ele>67</ele>
        <time>2019-08-18T23:25:18Z</time>
      </trkpt>
      <trkpt lat="42.321227" lon="3.297627">
        <ele>67</ele>
        <time>2019-08-18T23:25:19Z</time>
      </trkpt>
      <trkpt lat="42.321248" lon="3.297581">
        <ele>67</ele>
        <time>2019-08-18T23:25:20Z</time>
      </trkpt>
      <trkpt lat="42.321269" lon="3.297534">
        <ele>67</ele>
        <time>2019-08-18T23:25:21Z</time>
      </trkpt>
      <trkpt lat="42.321289" lon="3.297488">
        <ele>67</ele>
        <time>2019-08-18T23:25:22Z</time>
      </trkpt>
      <trkpt lat="42.32131" lon="3.297442">
        <ele>67</ele>
        <time>2019-08-18T23:25:23Z</time>
      </trkpt>
      <trkpt lat="42.32133" lon="3.297395">
        <ele>67</ele>
        <time>2019-08-18T23:25:24Z</time>
      </trkpt>
      <trkpt lat="42.321351" lon="3.297349">
        <ele>67</ele>
        <time>2019-08-18T23:25:25Z</time>
      </trkpt>
      <trkpt lat="42.321369" lon="3.29727">
        <ele>67</ele>
        <time>2019-08-18T23:25:26Z</time>
      </trkpt>
      <trkpt lat="42.321374" lon="3.297242">
        <ele>67</ele>
        <time>2019-08-18T23:25:27Z</time>
      </trkpt>
      <trkpt lat="42.321378" lon="3.297214">
        <ele>67</ele>
        <time>2019-08-18T23:25:28Z</time>
      </trkpt>
      <trkpt lat="42.321382" lon="3.297186">
        <ele>67</ele>
        <time>2019-08-18T23:25:29Z</time>
      </trkpt>
      <trkpt lat="42.321387" lon="3.297159">
        <ele>67</ele>
        <time>2019-08-18T23:25:30Z</time>
      </trkpt>
      <trkpt lat="42.321391" lon="3.297131">
        <ele>67</ele>
        <time>2019-08-18T23:25:31Z</time>
      </trkpt>
      <trkpt lat="42.321395" lon="3.297103">
        <ele>67</ele>
        <time>2019-08-18T23:25:33Z</time>
      </trkpt>
      <trkpt lat="42.3214" lon="3.297075">
        <ele>67</ele>
        <time>2019-08-18T23:25:34Z</time>
      </trkpt>
      <trkpt lat="42.321404" lon="3.297047">
        <ele>68</ele>
        <time>2019-08-18T23:25:35Z</time>
      </trkpt>
      <trkpt lat="42.321413" lon="3.296996">
        <ele>68</ele>
        <time>2019-08-18T23:25:36Z</time>
      </trkpt>
      <trkpt lat="42.321417" lon="3.296969">
        <ele>68</ele>
        <time>2019-08-18T23:25:37Z</time>
      </trkpt>
      <trkpt lat="42.321421" lon="3.296942">
        <ele>68</ele>
        <time>2019-08-18T23:25:38Z</time>
      </trkpt>
      <trkpt lat="42.321425" lon="3.296915">
        <ele>68</ele>
        <time>2019-08-18T23:25:39Z</time>
      </trkpt>
      <trkpt lat="42.321429" lon="3.296887">
        <ele>68</ele>
        <time>2019-08-18T23:25:41Z</time>
      </trkpt>
      <trkpt lat="42.321433" lon="3.29686">
        <ele>68</ele>
        <time>2019-08-18T23:25:42Z</time>
      </trkpt>
      <trkpt lat="42.321437" lon="3.296833">
        <ele>68</ele>
        <time>2019-08-18T23:25:44Z</time>
      </trkpt>
      <trkpt lat="42.321441" lon="3.296806">
        <ele>70</ele>
        <time>2019-08-18T23:25:45Z</time>
      </trkpt>
      <trkpt lat="42.321455" lon="3.296755">
        <ele>70</ele>
        <time>2019-08-18T23:25:46Z</time>
      </trkpt>
      <trkpt lat="42.321465" lon="3.296726">
        <ele>70</ele>
        <time>2019-08-18T23:25:47Z</time>
      </trkpt>
      <trkpt lat="42.321474" lon="3.296697">
        <ele>70</ele>
        <time>2019-08-18T23:25:49Z</time>
      </trkpt>
      <trkpt lat="42.321483" lon="3.296669">
        <ele>70</ele>
        <time>2019-08-18T23:25:51Z</time>
      </trkpt>
      <trkpt lat="42.321492" lon="3.29664">
        <ele>70</ele>
        <time>2019-08-18T23:25:53Z</time>
      </trkpt>
      <trkpt lat="42.321502" lon="3.296611">
        <ele>70</ele>
        <time>2019-08-18T23:25:54Z</time>
      </trkpt>
      <trkpt lat="42.321511" lon="3.296582">
        <ele>72</ele>
        <time>2019-08-18T23:25:55Z</time>
      </trkpt>
      <trkpt lat="42.321526" lon="3.296536">
        <ele>72</ele>
        <time>2019-08-18T23:25:56Z</time>
      </trkpt>
      <trkpt lat="42.321533" lon="3.296514">
        <ele>72</ele>
        <time>2019-08-18T23:25:57Z</time>
      </trkpt>
      <trkpt lat="42.32154" lon="3.296493">
        <ele>72</ele>
        <time>2019-08-18T23:25:58Z</time>
      </trkpt>
      <trkpt lat="42.321547" lon="3.296471">
        <ele>72</ele>
        <time>2019-08-18T23:25:59Z</time>
      </trkpt>
      <trkpt lat="42.321554" lon="3.296449">
        <ele>72</ele>
        <time>2019-08-18T23:26:00Z</time>
      </trkpt>
      <trkpt lat="42.321561" lon="3.296427">
        <ele>72</ele>
        <time>2019-08-18T23:26:01Z</time>
      </trkpt>
      <trkpt lat="42.321568" lon="3.296405">
        <ele>72</ele>
        <time>2019-08-18T23:26:02Z</time>
      </trkpt>
      <trkpt lat="42.321575" lon="3.296384">
        <ele>72</ele>
        <time>2019-08-18T23:26:03Z</time>
      </trkpt>
      <trkpt lat="42.321582" lon="3.296362">
        <ele>72</ele>
        <time>2019-08-18T23:26:04Z</time>
      </trkpt>
      <trkpt lat="42.321589" lon="3.29634">
        <ele>74</ele>
        <time>2019-08-18T23:26:05Z</time>
      </trkpt>
      <trkpt lat="42.321603" lon="3.296295">
        <ele>74</ele>
        <time>2019-08-18T23:26:06Z</time>
      </trkpt>
      <trkpt lat="42.32161" lon="3.296273">
        <ele>74</ele>
        <time>2019-08-18T23:26:07Z</time>
      </trkpt>
      <trkpt lat="42.321617" lon="3.296252">
        <ele>74</ele>
        <time>2019-08-18T23:26:08Z</time>
      </trkpt>
      <trkpt lat="42.321624" lon="3.29623">
        <ele>74</ele>
        <time>2019-08-18T23:26:09Z</time>
      </trkpt>
      <trkpt lat="42.321631" lon="3.296209">
        <ele>74</ele>
        <time>2019-08-18T23:26:10Z</time>
      </trkpt>
      <trkpt lat="42.321638" lon="3.296187">
        <ele>74</ele>
        <time>2019-08-18T23:26:11Z</time>
      </trkpt>
      <trkpt lat="42.321645" lon="3.296166">
        <ele>74</ele>
        <time>2019-08-18T23:26:12Z</time>
      </trkpt>
      <trkpt lat="42.321652" lon="3.296144">
        <ele>74</ele>
        <time>2019-08-18T23:26:13Z</time>
      </trkpt>
      <trkpt lat="42.321659" lon="3.296123">
        <ele>74</ele>
        <time>2019-08-18T23:26:14Z</time>
      </trkpt>
      <trkpt lat="42.321666" lon="3.296101">
        <ele>76</ele>
        <time>2019-08-18T23:26:15Z</time>
      </trkpt>
      <trkpt lat="42.321677" lon="3.296018">
        <ele>76</ele>
        <time>2019-08-18T23:26:17Z</time>
      </trkpt>
      <trkpt lat="42.321679" lon="3.295981">
        <ele>76</ele>
        <time>2019-08-18T23:26:19Z</time>
      </trkpt>
      <trkpt lat="42.32168" lon="3.295945">
        <ele>76</ele>
        <time>2019-08-18T23:26:21Z</time>
      </trkpt>
      <trkpt lat="42.321682" lon="3.295908">
        <ele>76</ele>
        <time>2019-08-18T23:26:23Z</time>
      </trkpt>
      <trkpt lat="42.321684" lon="3.295871">
        <ele>77</ele>
        <time>2019-08-18T23:26:25Z</time>
      </trkpt>
      <trkpt lat="42.32168" lon="3.295788">
        <ele>77</ele>
        <time>2019-08-18T23:26:27Z</time>
      </trkpt>
      <trkpt lat="42.321679" lon="3.295753">
        <ele>77</ele>
        <time>2019-08-18T23:26:29Z</time>
      </trkpt>
      <trkpt lat="42.321677" lon="3.295717">
        <ele>77</ele>
        <time>2019-08-18T23:26:31Z</time>
      </trkpt>
      <trkpt lat="42.321676" lon="3.295682">
        <ele>77</ele>
        <time>2019-08-18T23:26:33Z</time>
      </trkpt>
      <trkpt lat="42.321675" lon="3.295646">
        <ele>78</ele>
        <time>2019-08-18T23:26:35Z</time>
      </trkpt>
      <trkpt lat="42.321673" lon="3.29557">
        <ele>78</ele>
        <time>2019-08-18T23:26:37Z</time>
      </trkpt>
      <trkpt lat="42.321672" lon="3.295532">
        <ele>78</ele>
        <time>2019-08-18T23:26:39Z</time>
      </trkpt>
      <trkpt lat="42.32167" lon="3.295495">
        <ele>78</ele>
        <time>2019-08-18T23:26:41Z</time>
      </trkpt>
      <trkpt lat="42.321669" lon="3.295457">
        <ele>78</ele>
        <time>2019-08-18T23:26:43Z</time>
      </trkpt>
      <trkpt lat="42.321668" lon="3.29542">
        <ele>80</ele>
        <time>2019-08-18T23:26:45Z</time>
      </trkpt>
      <trkpt lat="42.321665" lon="3.295377">
        <ele>80</ele>
        <time>2019-08-18T23:26:47Z</time>
      </trkpt>
      <trkpt lat="42.321661" lon="3.295332">
        <ele>80</ele>
        <time>2019-08-18T23:26:49Z</time>
      </trkpt>
      <trkpt lat="42.321658" lon="3.295287">
        <ele>80</ele>
        <time>2019-08-18T23:26:51Z</time>
      </trkpt>
      <trkpt lat="42.321656" lon="3.295245">
        <ele>80</ele>
        <time>2019-08-18T23:26:53Z</time>
      </trkpt>
      <trkpt lat="42.321655" lon="3.295204">
        <ele>81</ele>
        <time>2019-08-18T23:26:55Z</time>
      </trkpt>
      <trkpt lat="42.321628" lon="3.295137">
        <ele>81</ele>
        <time>2019-08-18T23:26:57Z</time>
      </trkpt>
      <trkpt lat="42.321611" lon="3.295108">
        <ele>81</ele>
        <time>2019-08-18T23:26:59Z</time>
      </trkpt>
      <trkpt lat="42.321595" lon="3.295079">
        <ele>81</ele>
        <time>2019-08-18T23:27:01Z</time>
      </trkpt>
      <trkpt lat="42.321578" lon="3.29505">
        <ele>81</ele>
        <time>2019-08-18T23:27:03Z</time>
      </trkpt>
      <trkpt lat="42.321562" lon="3.295021">
        <ele>83</ele>
        <time>2019-08-18T23:27:05Z</time>
      </trkpt>
      <trkpt lat="42.321531" lon="3.294995">
        <ele>83</ele>
        <time>2019-08-18T23:27:06Z</time>
      </trkpt>
      <trkpt lat="42.321515" lon="3.294983">
        <ele>83</ele>
        <time>2019-08-18T23:27:07Z</time>
      </trkpt>
      <trkpt lat="42.321498" lon="3.294972">
        <ele>83</ele>
        <time>2019-08-18T23:27:08Z</time>
      </trkpt>
      <trkpt lat="42.321482" lon="3.29496">
        <ele>83</ele>
        <time>2019-08-18T23:27:10Z</time>
      </trkpt>
      <trkpt lat="42.321466" lon="3.294949">
        <ele>83</ele>
        <time>2019-08-18T23:27:11Z</time>
      </trkpt>
      <trkpt lat="42.32145" lon="3.294937">
        <ele>83</ele>
        <time>2019-08-18T23:27:12Z</time>
      </trkpt>
      <trkpt lat="42.321433" lon="3.294926">
        <ele>83</ele>
        <time>2019-08-18T23:27:13Z</time>
      </trkpt>
      <trkpt lat="42.321417" lon="3.294914">
        <ele>83</ele>
        <time>2019-08-18T23:27:14Z</time>
      </trkpt>
      <trkpt lat="42.321401" lon="3.294903">
        <ele>85</ele>
        <time>2019-08-18T23:27:15Z</time>
      </trkpt>
      <trkpt lat="42.321363" lon="3.294893">
        <ele>85</ele>
        <time>2019-08-18T23:27:16Z</time>
      </trkpt>
      <trkpt lat="42.321343" lon="3.294892">
        <ele>85</ele>
        <time>2019-08-18T23:27:17Z</time>
      </trkpt>
      <trkpt lat="42.321323" lon="3.29489">
        <ele>85</ele>
        <time>2019-08-18T23:27:18Z</time>
      </trkpt>
      <trkpt lat="42.321303" lon="3.294889">
        <ele>85</ele>
        <time>2019-08-18T23:27:19Z</time>
      </trkpt>
      <trkpt lat="42.321283" lon="3.294887">
        <ele>85</ele>
        <time>2019-08-18T23:27:20Z</time>
      </trkpt>
      <trkpt lat="42.321263" lon="3.294886">
        <ele>85</ele>
        <time>2019-08-18T23:27:21Z</time>
      </trkpt>
      <trkpt lat="42.321243" lon="3.294884">
        <ele>85</ele>
        <time>2019-08-18T23:27:23Z</time>
      </trkpt>
      <trkpt lat="42.321223" lon="3.294883">
        <ele>86</ele>
        <time>2019-08-18T23:27:25Z</time>
      </trkpt>
      <trkpt lat="42.321163" lon="3.294896">
        <ele>86</ele>
        <time>2019-08-18T23:27:27Z</time>
      </trkpt>
      <trkpt lat="42.321136" lon="3.294906">
        <ele>86</ele>
        <time>2019-08-18T23:27:29Z</time>
      </trkpt>
      <trkpt lat="42.32111" lon="3.294915">
        <ele>86</ele>
        <time>2019-08-18T23:27:32Z</time>
      </trkpt>
      <trkpt lat="42.321083" lon="3.294925">
        <ele>86</ele>
        <time>2019-08-18T23:27:33Z</time>
      </trkpt>
      <trkpt lat="42.321057" lon="3.294935">
        <ele>89</ele>
        <time>2019-08-18T23:27:35Z</time>
      </trkpt>
      <trkpt lat="42.320998" lon="3.294958">
        <ele>89</ele>
        <time>2019-08-18T23:27:37Z</time>
      </trkpt>
      <trkpt lat="42.320972" lon="3.294971">
        <ele>89</ele>
        <time>2019-08-18T23:27:39Z</time>
      </trkpt>
      <trkpt lat="42.320947" lon="3.294984">
        <ele>89</ele>
        <time>2019-08-18T23:27:41Z</time>
      </trkpt>
      <trkpt lat="42.320921" lon="3.294997">
        <ele>89</ele>
        <time>2019-08-18T23:27:43Z</time>
      </trkpt>
      <trkpt lat="42.320896" lon="3.29501">
        <ele>91</ele>
        <time>2019-08-18T23:27:45Z</time>
      </trkpt>
      <trkpt lat="42.320841" lon="3.295023">
        <ele>91</ele>
        <time>2019-08-18T23:27:47Z</time>
      </trkpt>
      <trkpt lat="42.320818" lon="3.295027">
        <ele>91</ele>
        <time>2019-08-18T23:27:49Z</time>
      </trkpt>
      <trkpt lat="42.320796" lon="3.295032">
        <ele>91</ele>
        <time>2019-08-18T23:27:51Z</time>
      </trkpt>
      <trkpt lat="42.320774" lon="3.295036">
        <ele>91</ele>
        <time>2019-08-18T23:27:53Z</time>
      </trkpt>
      <trkpt lat="42.320751" lon="3.295041">
        <ele>91</ele>
        <time>2019-08-18T23:27:54Z</time>
      </trkpt>
      <trkpt lat="42.320729" lon="3.295045">
        <ele>93</ele>
        <time>2019-08-18T23:27:55Z</time>
      </trkpt>
      <trkpt lat="42.320689" lon="3.295037">
        <ele>93</ele>
        <time>2019-08-18T23:27:56Z</time>
      </trkpt>
      <trkpt lat="42.320667" lon="3.295029">
        <ele>93</ele>
        <time>2019-08-18T23:27:57Z</time>
      </trkpt>
      <trkpt lat="42.320645" lon="3.29502">
        <ele>93</ele>
        <time>2019-08-18T23:27:59Z</time>
      </trkpt>
      <trkpt lat="42.320623" lon="3.295011">
        <ele>93</ele>
        <time>2019-08-18T23:28:01Z</time>
      </trkpt>
      <trkpt lat="42.320601" lon="3.295003">
        <ele>93</ele>
        <time>2019-08-18T23:28:03Z</time>
      </trkpt>
      <trkpt lat="42.320579" lon="3.294994">
        <ele>94</ele>
        <time>2019-08-18T23:28:05Z</time>
      </trkpt>
      <trkpt lat="42.320533" lon="3.294974">
        <ele>94</ele>
        <time>2019-08-18T23:28:07Z</time>
      </trkpt>
      <trkpt lat="42.320512" lon="3.294964">
        <ele>94</ele>
        <time>2019-08-18T23:28:11Z</time>
      </trkpt>
      <trkpt lat="42.320491" lon="3.294954">
        <ele>94</ele>
        <time>2019-08-18T23:29:12Z</time>
      </trkpt>
      <trkpt lat="42.32047" lon="3.294944">
        <ele>94</ele>
        <time>2019-08-18T23:29:13Z</time>
      </trkpt>
      <trkpt lat="42.32045" lon="3.294934">
        <ele>94</ele>
        <time>2019-08-18T23:29:15Z</time>
      </trkpt>
      <trkpt lat="42.320429" lon="3.294925">
        <ele>94</ele>
        <time>2019-08-18T23:29:16Z</time>
      </trkpt>
      <trkpt lat="42.320408" lon="3.294915">
        <ele>94</ele>
        <time>2019-08-18T23:29:17Z</time>
      </trkpt>
      <trkpt lat="42.320387" lon="3.294905">
        <ele>94</ele>
        <time>2019-08-18T23:29:18Z</time>
      </trkpt>
      <trkpt lat="42.320366" lon="3.294895">
        <ele>94</ele>
        <time>2019-08-18T23:29:20Z</time>
      </trkpt>
      <trkpt lat="42.320345" lon="3.294885">
        <ele>95</ele>
        <time>2019-08-18T23:29:22Z</time>
      </trkpt>
      <trkpt lat="42.320302" lon="3.29485">
        <ele>95</ele>
        <time>2019-08-18T23:29:23Z</time>
      </trkpt>
      <trkpt lat="42.320281" lon="3.294832">
        <ele>95</ele>
        <time>2019-08-18T23:29:24Z</time>
      </trkpt>
      <trkpt lat="42.320259" lon="3.294813">
        <ele>95</ele>
        <time>2019-08-18T23:29:25Z</time>
      </trkpt>
      <trkpt lat="42.320238" lon="3.294795">
        <ele>95</ele>
        <time>2019-08-18T23:29:26Z</time>
      </trkpt>
      <trkpt lat="42.320216" lon="3.294776">
        <ele>95</ele>
        <time>2019-08-18T23:29:27Z</time>
      </trkpt>
      <trkpt lat="42.320194" lon="3.294758">
        <ele>95</ele>
        <time>2019-08-18T23:29:28Z</time>
      </trkpt>
      <trkpt lat="42.320173" lon="3.294739">
        <ele>95</ele>
        <time>2019-08-18T23:29:29Z</time>
      </trkpt>
      <trkpt lat="42.320151" lon="3.294721">
        <ele>95</ele>
        <time>2019-08-18T23:29:30Z</time>
      </trkpt>
      <trkpt lat="42.32013" lon="3.294702">
        <ele>95</ele>
        <time>2019-08-18T23:29:31Z</time>
      </trkpt>
      <trkpt lat="42.320108" lon="3.294684">
        <ele>95</ele>
        <time>2019-08-18T23:29:32Z</time>
      </trkpt>
      <trkpt lat="42.320074" lon="3.294624">
        <ele>95</ele>
        <time>2019-08-18T23:29:33Z</time>
      </trkpt>
      <trkpt lat="42.320062" lon="3.294593">
        <ele>95</ele>
        <time>2019-08-18T23:29:34Z</time>
      </trkpt>
      <trkpt lat="42.32005" lon="3.294563">
        <ele>95</ele>
        <time>2019-08-18T23:29:35Z</time>
      </trkpt>
      <trkpt lat="42.320038" lon="3.294532">
        <ele>95</ele>
        <time>2019-08-18T23:29:36Z</time>
      </trkpt>
      <trkpt lat="42.320026" lon="3.294501">
        <ele>95</ele>
        <time>2019-08-18T23:29:37Z</time>
      </trkpt>
      <trkpt lat="42.320014" lon="3.29447">
        <ele>95</ele>
        <time>2019-08-18T23:29:38Z</time>
      </trkpt>
      <trkpt lat="42.320002" lon="3.294439">
        <ele>95</ele>
        <time>2019-08-18T23:29:39Z</time>
      </trkpt>
      <trkpt lat="42.31999" lon="3.294409">
        <ele>95</ele>
        <time>2019-08-18T23:29:40Z</time>
      </trkpt>
      <trkpt lat="42.319978" lon="3.294378">
        <ele>95</ele>
        <time>2019-08-18T23:29:41Z</time>
      </trkpt>
      <trkpt lat="42.319966" lon="3.294347">
        <ele>96</ele>
        <time>2019-08-18T23:29:42Z</time>
      </trkpt>
      <trkpt lat="42.319952" lon="3.294283">
        <ele>96</ele>
        <time>2019-08-18T23:29:43Z</time>
      </trkpt>
      <trkpt lat="42.319946" lon="3.294254">
        <ele>96</ele>
        <time>2019-08-18T23:29:44Z</time>
      </trkpt>
      <trkpt lat="42.319941" lon="3.294225">
        <ele>96</ele>
        <time>2019-08-18T23:29:45Z</time>
      </trkpt>
      <trkpt lat="42.319935" lon="3.294196">
        <ele>96</ele>
        <time>2019-08-18T23:29:46Z</time>
      </trkpt>
      <trkpt lat="42.319929" lon="3.294167">
        <ele>96</ele>
        <time>2019-08-18T23:29:47Z</time>
      </trkpt>
      <trkpt lat="42.319923" lon="3.294138">
        <ele>96</ele>
        <time>2019-08-18T23:29:48Z</time>
      </trkpt>
      <trkpt lat="42.319917" lon="3.294109">
        <ele>96</ele>
        <time>2019-08-18T23:29:49Z</time>
      </trkpt>
      <trkpt lat="42.319912" lon="3.29408">
        <ele>96</ele>
        <time>2019-08-18T23:29:50Z</time>
      </trkpt>
      <trkpt lat="42.319906" lon="3.294051">
        <ele>96</ele>
        <time>2019-08-18T23:29:51Z</time>
      </trkpt>
      <trkpt lat="42.3199" lon="3.294022">
        <ele>96</ele>
        <time>2019-08-18T23:29:52Z</time>
      </trkpt>
      <trkpt lat="42.319881" lon="3.293958">
        <ele>96</ele>
        <time>2019-08-18T23:29:53Z</time>
      </trkpt>
      <trkpt lat="42.319872" lon="3.293926">
        <ele>96</ele>
        <time>2019-08-18T23:29:54Z</time>
      </trkpt>
      <trkpt lat="42.319863" lon="3.293894">
        <ele>96</ele>
        <time>2019-08-18T23:29:55Z</time>
      </trkpt>
      <trkpt lat="42.319854" lon="3.293862">
        <ele>96</ele>
        <time>2019-08-18T23:29:56Z</time>
      </trkpt>
      <trkpt lat="42.319846" lon="3.29383">
        <ele>96</ele>
        <time>2019-08-18T23:29:57Z</time>
      </trkpt>
      <trkpt lat="42.319837" lon="3.293799">
        <ele>96</ele>
        <time>2019-08-18T23:29:58Z</time>
      </trkpt>
      <trkpt lat="42.319828" lon="3.293767">
        <ele>96</ele>
        <time>2019-08-18T23:29:59Z</time>
      </trkpt>
      <trkpt lat="42.319819" lon="3.293735">
        <ele>96</ele>
        <time>2019-08-18T23:30:00Z</time>
      </trkpt>
      <trkpt lat="42.31981" lon="3.293703">
        <ele>96</ele>
        <time>2019-08-18T23:30:01Z</time>
      </trkpt>
      <trkpt lat="42.319801" lon="3.293671">
        <ele>98</ele>
        <time>2019-08-18T23:30:02Z</time>
      </trkpt>
      <trkpt lat="42.319772" lon="3.293615">
        <ele>98</ele>
        <time>2019-08-18T23:30:03Z</time>
      </trkpt>
      <trkpt lat="42.319757" lon="3.293591">
        <ele>98</ele>
        <time>2019-08-18T23:30:04Z</time>
      </trkpt>
      <trkpt lat="42.319741" lon="3.293566">
        <ele>98</ele>
        <time>2019-08-18T23:30:05Z</time>
      </trkpt>
      <trkpt lat="42.319725" lon="3.293542">
        <ele>98</ele>
        <time>2019-08-18T23:30:06Z</time>
      </trkpt>
      <trkpt lat="42.31971" lon="3.293518">
        <ele>98</ele>
        <time>2019-08-18T23:30:07Z</time>
      </trkpt>
      <trkpt lat="42.319694" lon="3.293494">
        <ele>98</ele>
        <time>2019-08-18T23:30:08Z</time>
      </trkpt>
      <trkpt lat="42.319678" lon="3.29347">
        <ele>98</ele>
        <time>2019-08-18T23:30:09Z</time>
      </trkpt>
      <trkpt lat="42.319662" lon="3.293445">
        <ele>98</ele>
        <time>2019-08-18T23:30:10Z</time>
      </trkpt>
      <trkpt lat="42.319647" lon="3.293421">
        <ele>98</ele>
        <time>2019-08-18T23:30:11Z</time>
      </trkpt>
      <trkpt lat="42.319631" lon="3.293397">
        <ele>99</ele>
        <time>2019-08-18T23:30:12Z</time>
      </trkpt>
      <trkpt lat="42.319588" lon="3.293354">
        <ele>99</ele>
        <time>2019-08-18T23:30:13Z</time>
      </trkpt>
      <trkpt lat="42.319567" lon="3.293337">
        <ele>99</ele>
        <time>2019-08-18T23:30:14Z</time>
      </trkpt>
      <trkpt lat="42.319546" lon="3.293319">
        <ele>99</ele>
        <time>2019-08-18T23:30:15Z</time>
      </trkpt>
      <trkpt lat="42.319525" lon="3.293302">
        <ele>99</ele>
        <time>2019-08-18T23:30:16Z</time>
      </trkpt>
      <trkpt lat="42.319504" lon="3.293284">
        <ele>99</ele>
        <time>2019-08-18T23:30:17Z</time>
      </trkpt>
      <trkpt lat="42.319482" lon="3.293267">
        <ele>99</ele>
        <time>2019-08-18T23:30:18Z</time>
      </trkpt>
      <trkpt lat="42.319461" lon="3.293249">
        <ele>99</ele>
        <time>2019-08-18T23:30:19Z</time>
      </trkpt>
      <trkpt lat="42.31944" lon="3.293232">
        <ele>99</ele>
        <time>2019-08-18T23:30:20Z</time>
      </trkpt>
      <trkpt lat="42.319419" lon="3.293214">
        <ele>99</ele>
        <time>2019-08-18T23:30:21Z</time>
      </trkpt>
      <trkpt lat="42.319398" lon="3.293197">
        <ele>100</ele>
        <time>2019-08-18T23:30:22Z</time>
      </trkpt>
      <trkpt lat="42.319356" lon="3.293185">
        <ele>100</ele>
        <time>2019-08-18T23:30:23Z</time>
      </trkpt>
      <trkpt lat="42.319336" lon="3.293183">
        <ele>100</ele>
        <time>2019-08-18T23:30:24Z</time>
      </trkpt>
      <trkpt lat="42.319315" lon="3.29318">
        <ele>100</ele>
        <time>2019-08-18T23:30:25Z</time>
      </trkpt>
      <trkpt lat="42.319294" lon="3.293178">
        <ele>100</ele>
        <time>2019-08-18T23:30:26Z</time>
      </trkpt>
      <trkpt lat="42.319274" lon="3.293175">
        <ele>100</ele>
        <time>2019-08-18T23:30:27Z</time>
      </trkpt>
      <trkpt lat="42.319253" lon="3.293173">
        <ele>100</ele>
        <time>2019-08-18T23:30:28Z</time>
      </trkpt>
      <trkpt lat="42.319232" lon="3.29317">
        <ele>100</ele>
        <time>2019-08-18T23:30:29Z</time>
      </trkpt>
      <trkpt lat="42.319212" lon="3.293168">
        <ele>100</ele>
        <time>2019-08-18T23:30:30Z</time>
      </trkpt>
      <trkpt lat="42.319191" lon="3.293165">
        <ele>100</ele>
        <time>2019-08-18T23:30:32Z</time>
      </trkpt>
      <trkpt lat="42.319148" lon="3.293165">
        <ele>100</ele>
        <time>2019-08-18T23:30:33Z</time>
      </trkpt>
      <trkpt lat="42.319128" lon="3.293168">
        <ele>100</ele>
        <time>2019-08-18T23:30:34Z</time>
      </trkpt>
      <trkpt lat="42.319107" lon="3.29317">
        <ele>100</ele>
        <time>2019-08-18T23:30:35Z</time>
      </trkpt>
      <trkpt lat="42.319087" lon="3.293173">
        <ele>100</ele>
        <time>2019-08-18T23:30:36Z</time>
      </trkpt>
      <trkpt lat="42.319066" lon="3.293175">
        <ele>100</ele>
        <time>2019-08-18T23:30:37Z</time>
      </trkpt>
      <trkpt lat="42.319045" lon="3.293177">
        <ele>100</ele>
        <time>2019-08-18T23:30:38Z</time>
      </trkpt>
      <trkpt lat="42.319025" lon="3.29318">
        <ele>100</ele>
        <time>2019-08-18T23:30:39Z</time>
      </trkpt>
      <trkpt lat="42.319004" lon="3.293182">
        <ele>100</ele>
        <time>2019-08-18T23:30:40Z</time>
      </trkpt>
      <trkpt lat="42.318984" lon="3.293185">
        <ele>100</ele>
        <time>2019-08-18T23:30:41Z</time>
      </trkpt>
      <trkpt lat="42.318963" lon="3.293187">
        <ele>104</ele>
        <time>2019-08-18T23:30:42Z</time>
      </trkpt>
      <trkpt lat="42.318922" lon="3.293194">
        <ele>104</ele>
        <time>2019-08-18T23:30:43Z</time>
      </trkpt>
      <trkpt lat="42.318903" lon="3.293196">
        <ele>104</ele>
        <time>2019-08-18T23:30:44Z</time>
      </trkpt>
      <trkpt lat="42.318885" lon="3.293198">
        <ele>104</ele>
        <time>2019-08-18T23:30:45Z</time>
      </trkpt>
      <trkpt lat="42.318866" lon="3.2932">
        <ele>104</ele>
        <time>2019-08-18T23:30:46Z</time>
      </trkpt>
      <trkpt lat="42.318847" lon="3.293202">
        <ele>104</ele>
        <time>2019-08-18T23:30:47Z</time>
      </trkpt>
      <trkpt lat="42.318828" lon="3.293204">
        <ele>104</ele>
        <time>2019-08-18T23:30:48Z</time>
      </trkpt>
      <trkpt lat="42.318809" lon="3.293206">
        <ele>104</ele>
        <time>2019-08-18T23:30:49Z</time>
      </trkpt>
      <trkpt lat="42.318791" lon="3.293208">
        <ele>104</ele>
        <time>2019-08-18T23:30:50Z</time>
      </trkpt>
      <trkpt lat="42.318772" lon="3.29321">
        <ele>104</ele>
        <time>2019-08-18T23:30:51Z</time>
      </trkpt>
      <trkpt lat="42.318753" lon="3.293212">
        <ele>105</ele>
        <time>2019-08-18T23:30:52Z</time>
      </trkpt>
      <trkpt lat="42.318714" lon="3.293207">
        <ele>105</ele>
        <time>2019-08-18T23:30:53Z</time>
      </trkpt>
      <trkpt lat="42.318697" lon="3.293202">
        <ele>105</ele>
        <time>2019-08-18T23:30:54Z</time>
      </trkpt>
      <trkpt lat="42.318679" lon="3.293197">
        <ele>105</ele>
        <time>2019-08-18T23:30:55Z</time>
      </trkpt>
      <trkpt lat="42.318662" lon="3.293192">
        <ele>105</ele>
        <time>2019-08-18T23:30:56Z</time>
      </trkpt>
      <trkpt lat="42.318644" lon="3.293187">
        <ele>105</ele>
        <time>2019-08-18T23:30:57Z</time>
      </trkpt>
      <trkpt lat="42.318626" lon="3.293182">
        <ele>105</ele>
        <time>2019-08-18T23:30:58Z</time>
      </trkpt>
      <trkpt lat="42.318609" lon="3.293177">
        <ele>105</ele>
        <time>2019-08-18T23:30:59Z</time>
      </trkpt>
      <trkpt lat="42.318591" lon="3.293172">
        <ele>105</ele>
        <time>2019-08-18T23:31:00Z</time>
      </trkpt>
      <trkpt lat="42.318574" lon="3.293167">
        <ele>105</ele>
        <time>2019-08-18T23:31:01Z</time>
      </trkpt>
      <trkpt lat="42.318556" lon="3.293162">
        <ele>106</ele>
        <time>2019-08-18T23:31:02Z</time>
      </trkpt>
      <trkpt lat="42.318527" lon="3.293124">
        <ele>106</ele>
        <time>2019-08-18T23:31:03Z</time>
      </trkpt>
      <trkpt lat="42.318513" lon="3.293098">
        <ele>106</ele>
        <time>2019-08-18T23:31:04Z</time>
      </trkpt>
      <trkpt lat="42.3185" lon="3.293072">
        <ele>106</ele>
        <time>2019-08-18T23:31:05Z</time>
      </trkpt>
      <trkpt lat="42.318486" lon="3.293046">
        <ele>106</ele>
        <time>2019-08-18T23:31:07Z</time>
      </trkpt>
      <trkpt lat="42.318473" lon="3.29302">
        <ele>106</ele>
        <time>2019-08-18T23:31:09Z</time>
      </trkpt>
      <trkpt lat="42.318459" lon="3.292994">
        <ele>106</ele>
        <time>2019-08-18T23:31:11Z</time>
      </trkpt>
      <trkpt lat="42.318446" lon="3.292968">
        <ele>108</ele>
        <time>2019-08-18T23:31:12Z</time>
      </trkpt>
      <trkpt lat="42.31842" lon="3.292901">
        <ele>108</ele>
        <time>2019-08-18T23:31:13Z</time>
      </trkpt>
      <trkpt lat="42.318405" lon="3.292862">
        <ele>108</ele>
        <time>2019-08-18T23:31:14Z</time>
      </trkpt>
      <trkpt lat="42.318389" lon="3.292823">
        <ele>108</ele>
        <time>2019-08-18T23:31:15Z</time>
      </trkpt>
      <trkpt lat="42.318373" lon="3.292784">
        <ele>108</ele>
        <time>2019-08-18T23:31:16Z</time>
      </trkpt>
      <trkpt lat="42.318358" lon="3.292744">
        <ele>108</ele>
        <time>2019-08-18T23:31:17Z</time>
      </trkpt>
      <trkpt lat="42.318342" lon="3.292705">
        <ele>108</ele>
        <time>2019-08-18T23:31:18Z</time>
      </trkpt>
      <trkpt lat="42.318326" lon="3.292666">
        <ele>108</ele>
        <time>2019-08-18T23:31:19Z</time>
      </trkpt>
      <trkpt lat="42.31831" lon="3.292627">
        <ele>108</ele>
        <time>2019-08-18T23:31:20Z</time>
      </trkpt>
      <trkpt lat="42.318295" lon="3.292588">
        <ele>108</ele>
        <time>2019-08-18T23:31:21Z</time>
      </trkpt>
      <trkpt lat="42.318279" lon="3.292549">
        <ele>110</ele>
        <time>2019-08-18T23:31:22Z</time>
      </trkpt>
      <trkpt lat="42.318237" lon="3.292438">
        <ele>110</ele>
        <time>2019-08-18T23:31:23Z</time>
      </trkpt>
      <trkpt lat="42.318214" lon="3.292382">
        <ele>110</ele>
        <time>2019-08-18T23:31:24Z</time>
      </trkpt>
      <trkpt lat="42.318191" lon="3.292325">
        <ele>110</ele>
        <time>2019-08-18T23:31:25Z</time>
      </trkpt>
      <trkpt lat="42.318168" lon="3.292269">
        <ele>110</ele>
        <time>2019-08-18T23:31:26Z</time>
      </trkpt>
      <trkpt lat="42.318145" lon="3.292212">
        <ele>110</ele>
        <time>2019-08-18T23:31:27Z</time>
      </trkpt>
      <trkpt lat="42.318121" lon="3.292156">
        <ele>110</ele>
        <time>2019-08-18T23:31:28Z</time>
      </trkpt>
      <trkpt lat="42.318098" lon="3.292099">
        <ele>110</ele>
        <time>2019-08-18T23:31:29Z</time>
      </trkpt>
      <trkpt lat="42.318075" lon="3.292043">
        <ele>110</ele>
        <time>2019-08-18T23:31:30Z</time>
      </trkpt>
      <trkpt lat="42.318052" lon="3.291986">
        <ele>110</ele>
        <time>2019-08-18T23:31:31Z</time>
      </trkpt>
      <trkpt lat="42.318029" lon="3.29193">
        <ele>108</ele>
        <time>2019-08-18T23:31:32Z</time>
      </trkpt>
      <trkpt lat="42.31798" lon="3.291812">
        <ele>108</ele>
        <time>2019-08-18T23:31:33Z</time>
      </trkpt>
      <trkpt lat="42.317959" lon="3.291756">
        <ele>108</ele>
        <time>2019-08-18T23:31:34Z</time>
      </trkpt>
      <trkpt lat="42.317939" lon="3.291699">
        <ele>108</ele>
        <time>2019-08-18T23:31:35Z</time>
      </trkpt>
      <trkpt lat="42.317918" lon="3.291642">
        <ele>108</ele>
        <time>2019-08-18T23:31:36Z</time>
      </trkpt>
      <trkpt lat="42.317897" lon="3.291585">
        <ele>108</ele>
        <time>2019-08-18T23:31:37Z</time>
      </trkpt>
      <trkpt lat="42.317876" lon="3.291529">
        <ele>108</ele>
        <time>2019-08-18T23:31:38Z</time>
      </trkpt>
      <trkpt lat="42.317855" lon="3.291472">
        <ele>108</ele>
        <time>2019-08-18T23:31:39Z</time>
      </trkpt>
      <trkpt lat="42.317835" lon="3.291415">
        <ele>108</ele>
        <time>2019-08-18T23:31:40Z</time>
      </trkpt>
      <trkpt lat="42.317814" lon="3.291359">
        <ele>108</ele>
        <time>2019-08-18T23:31:41Z</time>
      </trkpt>
      <trkpt lat="42.317793" lon="3.291302">
        <ele>104</ele>
        <time>2019-08-18T23:31:42Z</time>
      </trkpt>
      <trkpt lat="42.317805" lon="3.29117">
        <ele>104</ele>
        <time>2019-08-18T23:31:43Z</time>
      </trkpt>
      <trkpt lat="42.317831" lon="3.291102">
        <ele>104</ele>
        <time>2019-08-18T23:31:44Z</time>
      </trkpt>
      <trkpt lat="42.317857" lon="3.291035">
        <ele>104</ele>
        <time>2019-08-18T23:31:45Z</time>
      </trkpt>
      <trkpt lat="42.317883" lon="3.290967">
        <ele>104</ele>
        <time>2019-08-18T23:31:46Z</time>
      </trkpt>
      <trkpt lat="42.317909" lon="3.2909">
        <ele>104</ele>
        <time>2019-08-18T23:31:47Z</time>
      </trkpt>
      <trkpt lat="42.317935" lon="3.290833">
        <ele>104</ele>
        <time>2019-08-18T23:31:48Z</time>
      </trkpt>
      <trkpt lat="42.317961" lon="3.290765">
        <ele>104</ele>
        <time>2019-08-18T23:31:49Z</time>
      </trkpt>
      <trkpt lat="42.317987" lon="3.290698">
        <ele>104</ele>
        <time>2019-08-18T23:31:50Z</time>
      </trkpt>
      <trkpt lat="42.318013" lon="3.29063">
        <ele>104</ele>
        <time>2019-08-18T23:31:51Z</time>
      </trkpt>
      <trkpt lat="42.318039" lon="3.290563">
        <ele>97</ele>
        <time>2019-08-18T23:31:52Z</time>
      </trkpt>
      <trkpt lat="42.318091" lon="3.290416">
        <ele>97</ele>
        <time>2019-08-18T23:31:53Z</time>
      </trkpt>
      <trkpt lat="42.318097" lon="3.290348">
        <ele>97</ele>
        <time>2019-08-18T23:31:54Z</time>
      </trkpt>
      <trkpt lat="42.318104" lon="3.290281">
        <ele>97</ele>
        <time>2019-08-18T23:31:55Z</time>
      </trkpt>
      <trkpt lat="42.31811" lon="3.290213">
        <ele>97</ele>
        <time>2019-08-18T23:31:56Z</time>
      </trkpt>
      <trkpt lat="42.318117" lon="3.290146">
        <ele>97</ele>
        <time>2019-08-18T23:31:57Z</time>
      </trkpt>
      <trkpt lat="42.318124" lon="3.290078">
        <ele>97</ele>
        <time>2019-08-18T23:31:58Z</time>
      </trkpt>
      <trkpt lat="42.31813" lon="3.290011">
        <ele>97</ele>
        <time>2019-08-18T23:31:59Z</time>
      </trkpt>
      <trkpt lat="42.318137" lon="3.289943">
        <ele>97</ele>
        <time>2019-08-18T23:32:00Z</time>
      </trkpt>
      <trkpt lat="42.318143" lon="3.289876">
        <ele>97</ele>
        <time>2019-08-18T23:32:01Z</time>
      </trkpt>
      <trkpt lat="42.31815" lon="3.289808">
        <ele>93</ele>
        <time>2019-08-18T23:32:02Z</time>
      </trkpt>
      <trkpt lat="42.318043" lon="3.289743">
        <ele>93</ele>
        <time>2019-08-18T23:32:03Z</time>
      </trkpt>
      <trkpt lat="42.317979" lon="3.289744">
        <ele>93</ele>
        <time>2019-08-18T23:32:04Z</time>
      </trkpt>
      <trkpt lat="42.317916" lon="3.289745">
        <ele>93</ele>
        <time>2019-08-18T23:32:05Z</time>
      </trkpt>
      <trkpt lat="42.317853" lon="3.289746">
        <ele>93</ele>
        <time>2019-08-18T23:32:06Z</time>
      </trkpt>
      <trkpt lat="42.31779" lon="3.289748">
        <ele>93</ele>
        <time>2019-08-18T23:32:07Z</time>
      </trkpt>
      <trkpt lat="42.317726" lon="3.289749">
        <ele>93</ele>
        <time>2019-08-18T23:32:08Z</time>
      </trkpt>
      <trkpt lat="42.317663" lon="3.28975">
        <ele>93</ele>
        <time>2019-08-18T23:32:09Z</time>
      </trkpt>
      <trkpt lat="42.3176" lon="3.289751">
        <ele>93</ele>
        <time>2019-08-18T23:32:10Z</time>
      </trkpt>
      <trkpt lat="42.317536" lon="3.289752">
        <ele>93</ele>
        <time>2019-08-18T23:32:11Z</time>
      </trkpt>
      <trkpt lat="42.317473" lon="3.289753">
        <ele>91</ele>
        <time>2019-08-18T23:32:12Z</time>
      </trkpt>
      <trkpt lat="42.31735" lon="3.28974">
        <ele>91</ele>
        <time>2019-08-18T23:32:13Z</time>
      </trkpt>
      <trkpt lat="42.317303" lon="3.289711">
        <ele>91</ele>
        <time>2019-08-18T23:32:14Z</time>
      </trkpt>
      <trkpt lat="42.317256" lon="3.289682">
        <ele>91</ele>
        <time>2019-08-18T23:32:15Z</time>
      </trkpt>
      <trkpt lat="42.317209" lon="3.289653">
        <ele>91</ele>
        <time>2019-08-18T23:32:16Z</time>
      </trkpt>
      <trkpt lat="42.317163" lon="3.289624">
        <ele>91</ele>
        <time>2019-08-18T23:32:17Z</time>
      </trkpt>
      <trkpt lat="42.317116" lon="3.289595">
        <ele>91</ele>
        <time>2019-08-18T23:32:18Z</time>
      </trkpt>
      <trkpt lat="42.317069" lon="3.289566">
        <ele>91</ele>
        <time>2019-08-18T23:32:19Z</time>
      </trkpt>
      <trkpt lat="42.317022" lon="3.289537">
        <ele>91</ele>
        <time>2019-08-18T23:32:20Z</time>
      </trkpt>
      <trkpt lat="42.316975" lon="3.289508">
        <ele>91</ele>
        <time>2019-08-18T23:32:21Z</time>
      </trkpt>
      <trkpt lat="42.316928" lon="3.289479">
        <ele>86</ele>
        <time>2019-08-18T23:32:22Z</time>
      </trkpt>
      <trkpt lat="42.316852" lon="3.289351">
        <ele>86</ele>
        <time>2019-08-18T23:32:23Z</time>
      </trkpt>
      <trkpt lat="42.316821" lon="3.289284">
        <ele>86</ele>
        <time>2019-08-18T23:32:24Z</time>
      </trkpt>
      <trkpt lat="42.316791" lon="3.289218">
        <ele>86</ele>
        <time>2019-08-18T23:32:25Z</time>
      </trkpt>
      <trkpt lat="42.31676" lon="3.289151">
        <ele>86</ele>
        <time>2019-08-18T23:32:26Z</time>
      </trkpt>
      <trkpt lat="42.31673" lon="3.289084">
        <ele>86</ele>
        <time>2019-08-18T23:32:27Z</time>
      </trkpt>
      <trkpt lat="42.316699" lon="3.289017">
        <ele>86</ele>
        <time>2019-08-18T23:32:28Z</time>
      </trkpt>
      <trkpt lat="42.316669" lon="3.28895">
        <ele>86</ele>
        <time>2019-08-18T23:32:29Z</time>
      </trkpt>
      <trkpt lat="42.316638" lon="3.288884">
        <ele>86</ele>
        <time>2019-08-18T23:32:30Z</time>
      </trkpt>
      <trkpt lat="42.316608" lon="3.288817">
        <ele>86</ele>
        <time>2019-08-18T23:32:31Z</time>
      </trkpt>
      <trkpt lat="42.316577" lon="3.28875">
        <ele>85</ele>
        <time>2019-08-18T23:32:32Z</time>
      </trkpt>
      <trkpt lat="42.316508" lon="3.288665">
        <ele>85</ele>
        <time>2019-08-18T23:32:33Z</time>
      </trkpt>
      <trkpt lat="42.316474" lon="3.288647">
        <ele>85</ele>
        <time>2019-08-18T23:32:34Z</time>
      </trkpt>
      <trkpt lat="42.316439" lon="3.288629">
        <ele>85</ele>
        <time>2019-08-18T23:32:35Z</time>
      </trkpt>
      <trkpt lat="42.316405" lon="3.288611">
        <ele>85</ele>
        <time>2019-08-18T23:32:36Z</time>
      </trkpt>
      <trkpt lat="42.316371" lon="3.288593">
        <ele>85</ele>
        <time>2019-08-18T23:32:37Z</time>
      </trkpt>
      <trkpt lat="42.316337" lon="3.288576">
        <ele>85</ele>
        <time>2019-08-18T23:32:38Z</time>
      </trkpt>
      <trkpt lat="42.316303" lon="3.288558">
        <ele>85</ele>
        <time>2019-08-18T23:32:39Z</time>
      </trkpt>
      <trkpt lat="42.316268" lon="3.28854">
        <ele>85</ele>
        <time>2019-08-18T23:32:40Z</time>
      </trkpt>
      <trkpt lat="42.316234" lon="3.288522">
        <ele>85</ele>
        <time>2019-08-18T23:32:41Z</time>
      </trkpt>
      <trkpt lat="42.3162" lon="3.288504">
        <ele>82</ele>
        <time>2019-08-18T23:32:42Z</time>
      </trkpt>
      <trkpt lat="42.316152" lon="3.288494">
        <ele>82</ele>
        <time>2019-08-18T23:32:43Z</time>
      </trkpt>
      <trkpt lat="42.31613" lon="3.288489">
        <ele>82</ele>
        <time>2019-08-18T23:32:44Z</time>
      </trkpt>
      <trkpt lat="42.316108" lon="3.288485">
        <ele>82</ele>
        <time>2019-08-18T23:32:45Z</time>
      </trkpt>
      <trkpt lat="42.316086" lon="3.28848">
        <ele>82</ele>
        <time>2019-08-18T23:32:46Z</time>
      </trkpt>
      <trkpt lat="42.316065" lon="3.288476">
        <ele>82</ele>
        <time>2019-08-18T23:32:47Z</time>
      </trkpt>
      <trkpt lat="42.316043" lon="3.288472">
        <ele>82</ele>
        <time>2019-08-18T23:32:48Z</time>
      </trkpt>
      <trkpt lat="42.316021" lon="3.288467">
        <ele>82</ele>
        <time>2019-08-18T23:32:49Z</time>
      </trkpt>
      <trkpt lat="42.315999" lon="3.288463">
        <ele>82</ele>
        <time>2019-08-18T23:32:50Z</time>
      </trkpt>
      <trkpt lat="42.315977" lon="3.288458">
        <ele>82</ele>
        <time>2019-08-18T23:32:51Z</time>
      </trkpt>
      <trkpt lat="42.315955" lon="3.288454">
        <ele>85</ele>
        <time>2019-08-18T23:32:52Z</time>
      </trkpt>
      <trkpt lat="42.315908" lon="3.288443">
        <ele>85</ele>
        <time>2019-08-18T23:32:53Z</time>
      </trkpt>
      <trkpt lat="42.315886" lon="3.288438">
        <ele>85</ele>
        <time>2019-08-18T23:32:54Z</time>
      </trkpt>
      <trkpt lat="42.315863" lon="3.288434">
        <ele>85</ele>
        <time>2019-08-18T23:32:55Z</time>
      </trkpt>
      <trkpt lat="42.315841" lon="3.288429">
        <ele>85</ele>
        <time>2019-08-18T23:32:56Z</time>
      </trkpt>
      <trkpt lat="42.315818" lon="3.288424">
        <ele>85</ele>
        <time>2019-08-18T23:32:57Z</time>
      </trkpt>
      <trkpt lat="42.315795" lon="3.288419">
        <ele>85</ele>
        <time>2019-08-18T23:32:58Z</time>
      </trkpt>
      <trkpt lat="42.315773" lon="3.288414">
        <ele>85</ele>
        <time>2019-08-18T23:32:59Z</time>
      </trkpt>
      <trkpt lat="42.31575" lon="3.28841">
        <ele>85</ele>
        <time>2019-08-18T23:33:00Z</time>
      </trkpt>
      <trkpt lat="42.315728" lon="3.288405">
        <ele>85</ele>
        <time>2019-08-18T23:33:01Z</time>
      </trkpt>
      <trkpt lat="42.315705" lon="3.2884">
        <ele>87</ele>
        <time>2019-08-18T23:33:02Z</time>
      </trkpt>
      <trkpt lat="42.315655" lon="3.288392">
        <ele>87</ele>
        <time>2019-08-18T23:33:03Z</time>
      </trkpt>
      <trkpt lat="42.315631" lon="3.288387">
        <ele>87</ele>
        <time>2019-08-18T23:33:04Z</time>
      </trkpt>
      <trkpt lat="42.315607" lon="3.288382">
        <ele>87</ele>
        <time>2019-08-18T23:33:05Z</time>
      </trkpt>
      <trkpt lat="42.315583" lon="3.288377">
        <ele>87</ele>
        <time>2019-08-18T23:33:06Z</time>
      </trkpt>
      <trkpt lat="42.31556" lon="3.288372">
        <ele>87</ele>
        <time>2019-08-18T23:33:07Z</time>
      </trkpt>
      <trkpt lat="42.315536" lon="3.288367">
        <ele>87</ele>
        <time>2019-08-18T23:33:08Z</time>
      </trkpt>
      <trkpt lat="42.315512" lon="3.288362">
        <ele>87</ele>
        <time>2019-08-18T23:33:09Z</time>
      </trkpt>
      <trkpt lat="42.315488" lon="3.288357">
        <ele>87</ele>
        <time>2019-08-18T23:33:10Z</time>
      </trkpt>
      <trkpt lat="42.315464" lon="3.288352">
        <ele>87</ele>
        <time>2019-08-18T23:33:11Z</time>
      </trkpt>
      <trkpt lat="42.31544" lon="3.288347">
        <ele>88</ele>
        <time>2019-08-18T23:33:12Z</time>
      </trkpt>
      <trkpt lat="42.315379" lon="3.288333">
        <ele>88</ele>
        <time>2019-08-18T23:33:13Z</time>
      </trkpt>
      <trkpt lat="42.315346" lon="3.288326">
        <ele>88</ele>
        <time>2019-08-18T23:33:14Z</time>
      </trkpt>
      <trkpt lat="42.315313" lon="3.288319">
        <ele>88</ele>
        <time>2019-08-18T23:33:15Z</time>
      </trkpt>
      <trkpt lat="42.31528" lon="3.288312">
        <ele>88</ele>
        <time>2019-08-18T23:33:16Z</time>
      </trkpt>
      <trkpt lat="42.315247" lon="3.288305">
        <ele>88</ele>
        <time>2019-08-18T23:33:17Z</time>
      </trkpt>
      <trkpt lat="42.315214" lon="3.288298">
        <ele>88</ele>
        <time>2019-08-18T23:33:18Z</time>
      </trkpt>
      <trkpt lat="42.315181" lon="3.288291">
        <ele>88</ele>
        <time>2019-08-18T23:33:19Z</time>
      </trkpt>
      <trkpt lat="42.315148" lon="3.288284">
        <ele>88</ele>
        <time>2019-08-18T23:33:20Z</time>
      </trkpt>
      <trkpt lat="42.315115" lon="3.288277">
        <ele>88</ele>
        <time>2019-08-18T23:33:21Z</time>
      </trkpt>
      <trkpt lat="42.315082" lon="3.28827">
        <ele>90</ele>
        <time>2019-08-18T23:33:22Z</time>
      </trkpt>
      <trkpt lat="42.314988" lon="3.288251">
        <ele>90</ele>
        <time>2019-08-18T23:33:23Z</time>
      </trkpt>
      <trkpt lat="42.314941" lon="3.288241">
        <ele>90</ele>
        <time>2019-08-18T23:33:24Z</time>
      </trkpt>
      <trkpt lat="42.314894" lon="3.288231">
        <ele>90</ele>
        <time>2019-08-18T23:33:25Z</time>
      </trkpt>
      <trkpt lat="42.314847" lon="3.288221">
        <ele>90</ele>
        <time>2019-08-18T23:33:26Z</time>
      </trkpt>
      <trkpt lat="42.3148" lon="3.288211">
        <ele>90</ele>
        <time>2019-08-18T23:33:27Z</time>
      </trkpt>
      <trkpt lat="42.314753" lon="3.288201">
        <ele>90</ele>
        <time>2019-08-18T23:33:28Z</time>
      </trkpt>
      <trkpt lat="42.314706" lon="3.288191">
        <ele>90</ele>
        <time>2019-08-18T23:33:29Z</time>
      </trkpt>
      <trkpt lat="42.314659" lon="3.288181">
        <ele>90</ele>
        <time>2019-08-18T23:33:30Z</time>
      </trkpt>
      <trkpt lat="42.314612" lon="3.288171">
        <ele>90</ele>
        <time>2019-08-18T23:33:31Z</time>
      </trkpt>
      <trkpt lat="42.314565" lon="3.288161">
        <ele>90</ele>
        <time>2019-08-18T23:33:32Z</time>
      </trkpt>
      <trkpt lat="42.314497" lon="3.288143">
        <ele>90</ele>
        <time>2019-08-18T23:33:33Z</time>
      </trkpt>
      <trkpt lat="42.31447" lon="3.288137">
        <ele>90</ele>
        <time>2019-08-18T23:33:34Z</time>
      </trkpt>
      <trkpt lat="42.314444" lon="3.28813">
        <ele>90</ele>
        <time>2019-08-18T23:33:35Z</time>
      </trkpt>
      <trkpt lat="42.314418" lon="3.288123">
        <ele>90</ele>
        <time>2019-08-18T23:33:36Z</time>
      </trkpt>
      <trkpt lat="42.314392" lon="3.288116">
        <ele>90</ele>
        <time>2019-08-18T23:33:37Z</time>
      </trkpt>
      <trkpt lat="42.314365" lon="3.28811">
        <ele>90</ele>
        <time>2019-08-18T23:33:38Z</time>
      </trkpt>
      <trkpt lat="42.314339" lon="3.288103">
        <ele>90</ele>
        <time>2019-08-18T23:33:39Z</time>
      </trkpt>
      <trkpt lat="42.314313" lon="3.288096">
        <ele>90</ele>
        <time>2019-08-18T23:33:40Z</time>
      </trkpt>
      <trkpt lat="42.314286" lon="3.28809">
        <ele>90</ele>
        <time>2019-08-18T23:33:41Z</time>
      </trkpt>
      <trkpt lat="42.31426" lon="3.288083">
        <ele>88</ele>
        <time>2019-08-18T23:33:42Z</time>
      </trkpt>
      <trkpt lat="42.314207" lon="3.288073">
        <ele>88</ele>
        <time>2019-08-18T23:33:43Z</time>
      </trkpt>
      <trkpt lat="42.314182" lon="3.288068">
        <ele>88</ele>
        <time>2019-08-18T23:33:44Z</time>
      </trkpt>
      <trkpt lat="42.314157" lon="3.288064">
        <ele>88</ele>
        <time>2019-08-18T23:33:45Z</time>
      </trkpt>
      <trkpt lat="42.314132" lon="3.288059">
        <ele>88</ele>
        <time>2019-08-18T23:33:46Z</time>
      </trkpt>
      <trkpt lat="42.314107" lon="3.288054">
        <ele>88</ele>
        <time>2019-08-18T23:33:47Z</time>
      </trkpt>
      <trkpt lat="42.314081" lon="3.288049">
        <ele>88</ele>
        <time>2019-08-18T23:33:48Z</time>
      </trkpt>
      <trkpt lat="42.314056" lon="3.288044">
        <ele>88</ele>
        <time>2019-08-18T23:33:49Z</time>
      </trkpt>
      <trkpt lat="42.314031" lon="3.28804">
        <ele>88</ele>
        <time>2019-08-18T23:33:50Z</time>
      </trkpt>
      <trkpt lat="42.314006" lon="3.288035">
        <ele>88</ele>
        <time>2019-08-18T23:33:51Z</time>
      </trkpt>
      <trkpt lat="42.313981" lon="3.28803">
        <ele>90</ele>
        <time>2019-08-18T23:33:52Z</time>
      </trkpt>
      <trkpt lat="42.313934" lon="3.288018">
        <ele>90</ele>
        <time>2019-08-18T23:33:53Z</time>
      </trkpt>
      <trkpt lat="42.313913" lon="3.288012">
        <ele>90</ele>
        <time>2019-08-18T23:33:54Z</time>
      </trkpt>
      <trkpt lat="42.313893" lon="3.288005">
        <ele>90</ele>
        <time>2019-08-18T23:33:55Z</time>
      </trkpt>
      <trkpt lat="42.313872" lon="3.287999">
        <ele>90</ele>
        <time>2019-08-18T23:33:56Z</time>
      </trkpt>
      <trkpt lat="42.313851" lon="3.287992">
        <ele>90</ele>
        <time>2019-08-18T23:33:57Z</time>
      </trkpt>
      <trkpt lat="42.31383" lon="3.287986">
        <ele>90</ele>
        <time>2019-08-18T23:33:58Z</time>
      </trkpt>
      <trkpt lat="42.313809" lon="3.287979">
        <ele>90</ele>
        <time>2019-08-18T23:33:59Z</time>
      </trkpt>
      <trkpt lat="42.313789" lon="3.287973">
        <ele>90</ele>
        <time>2019-08-18T23:34:00Z</time>
      </trkpt>
      <trkpt lat="42.313768" lon="3.287966">
        <ele>90</ele>
        <time>2019-08-18T23:34:01Z</time>
      </trkpt>
      <trkpt lat="42.313747" lon="3.28796">
        <ele>93</ele>
        <time>2019-08-18T23:34:02Z</time>
      </trkpt>
      <trkpt lat="42.3137" lon="3.287951">
        <ele>93</ele>
        <time>2019-08-18T23:34:03Z</time>
      </trkpt>
      <trkpt lat="42.313676" lon="3.287948">
        <ele>93</ele>
        <time>2019-08-18T23:34:04Z</time>
      </trkpt>
      <trkpt lat="42.313653" lon="3.287946">
        <ele>93</ele>
        <time>2019-08-18T23:34:05Z</time>
      </trkpt>
      <trkpt lat="42.313629" lon="3.287943">
        <ele>93</ele>
        <time>2019-08-18T23:34:06Z</time>
      </trkpt>
      <trkpt lat="42.313606" lon="3.287941">
        <ele>93</ele>
        <time>2019-08-18T23:34:07Z</time>
      </trkpt>
      <trkpt lat="42.313583" lon="3.287939">
        <ele>93</ele>
        <time>2019-08-18T23:34:08Z</time>
      </trkpt>
      <trkpt lat="42.313559" lon="3.287936">
        <ele>93</ele>
        <time>2019-08-18T23:34:09Z</time>
      </trkpt>
      <trkpt lat="42.313536" lon="3.287934">
        <ele>93</ele>
        <time>2019-08-18T23:34:10Z</time>
      </trkpt>
      <trkpt lat="42.313512" lon="3.287931">
        <ele>93</ele>
        <time>2019-08-18T23:34:11Z</time>
      </trkpt>
      <trkpt lat="42.313489" lon="3.287929">
        <ele>94</ele>
        <time>2019-08-18T23:34:12Z</time>
      </trkpt>
      <trkpt lat="42.313438" lon="3.287935">
        <ele>94</ele>
        <time>2019-08-18T23:34:13Z</time>
      </trkpt>
      <trkpt lat="42.313414" lon="3.287941">
        <ele>94</ele>
        <time>2019-08-18T23:34:14Z</time>
      </trkpt>
      <trkpt lat="42.313391" lon="3.287946">
        <ele>94</ele>
        <time>2019-08-18T23:34:15Z</time>
      </trkpt>
      <trkpt lat="42.313367" lon="3.287952">
        <ele>94</ele>
        <time>2019-08-18T23:34:16Z</time>
      </trkpt>
      <trkpt lat="42.313343" lon="3.287957">
        <ele>94</ele>
        <time>2019-08-18T23:34:17Z</time>
      </trkpt>
      <trkpt lat="42.313319" lon="3.287962">
        <ele>94</ele>
        <time>2019-08-18T23:34:18Z</time>
      </trkpt>
      <trkpt lat="42.313295" lon="3.287968">
        <ele>94</ele>
        <time>2019-08-18T23:34:19Z</time>
      </trkpt>
      <trkpt lat="42.313272" lon="3.287973">
        <ele>94</ele>
        <time>2019-08-18T23:34:20Z</time>
      </trkpt>
      <trkpt lat="42.313248" lon="3.287979">
        <ele>94</ele>
        <time>2019-08-18T23:34:21Z</time>
      </trkpt>
      <trkpt lat="42.313224" lon="3.287984">
        <ele>95</ele>
        <time>2019-08-18T23:34:22Z</time>
      </trkpt>
      <trkpt lat="42.313161" lon="3.288007">
        <ele>95</ele>
        <time>2019-08-18T23:34:23Z</time>
      </trkpt>
      <trkpt lat="42.313124" lon="3.288023">
        <ele>95</ele>
        <time>2019-08-18T23:34:24Z</time>
      </trkpt>
      <trkpt lat="42.313086" lon="3.288038">
        <ele>95</ele>
        <time>2019-08-18T23:34:25Z</time>
      </trkpt>
      <trkpt lat="42.313049" lon="3.288054">
        <ele>95</ele>
        <time>2019-08-18T23:34:26Z</time>
      </trkpt>
      <trkpt lat="42.313012" lon="3.28807">
        <ele>95</ele>
        <time>2019-08-18T23:34:27Z</time>
      </trkpt>
      <trkpt lat="42.312975" lon="3.288086">
        <ele>95</ele>
        <time>2019-08-18T23:34:28Z</time>
      </trkpt>
      <trkpt lat="42.312938" lon="3.288102">
        <ele>95</ele>
        <time>2019-08-18T23:34:29Z</time>
      </trkpt>
      <trkpt lat="42.3129" lon="3.288117">
        <ele>95</ele>
        <time>2019-08-18T23:34:30Z</time>
      </trkpt>
      <trkpt lat="42.312863" lon="3.288133">
        <ele>95</ele>
        <time>2019-08-18T23:34:31Z</time>
      </trkpt>
      <trkpt lat="42.312826" lon="3.288149">
        <ele>97</ele>
        <time>2019-08-18T23:34:32Z</time>
      </trkpt>
      <trkpt lat="42.31271" lon="3.288193">
        <ele>97</ele>
        <time>2019-08-18T23:34:33Z</time>
      </trkpt>
      <trkpt lat="42.312653" lon="3.288216">
        <ele>97</ele>
        <time>2019-08-18T23:34:34Z</time>
      </trkpt>
      <trkpt lat="42.312596" lon="3.28824">
        <ele>97</ele>
        <time>2019-08-18T23:34:35Z</time>
      </trkpt>
      <trkpt lat="42.312539" lon="3.288263">
        <ele>97</ele>
        <time>2019-08-18T23:34:36Z</time>
      </trkpt>
      <trkpt lat="42.312483" lon="3.288286">
        <ele>97</ele>
        <time>2019-08-18T23:34:37Z</time>
      </trkpt>
      <trkpt lat="42.312426" lon="3.288309">
        <ele>97</ele>
        <time>2019-08-18T23:34:38Z</time>
      </trkpt>
      <trkpt lat="42.312369" lon="3.288332">
        <ele>97</ele>
        <time>2019-08-18T23:34:39Z</time>
      </trkpt>
      <trkpt lat="42.312312" lon="3.288356">
        <ele>97</ele>
        <time>2019-08-18T23:34:40Z</time>
      </trkpt>
      <trkpt lat="42.312255" lon="3.288379">
        <ele>97</ele>
        <time>2019-08-18T23:34:41Z</time>
      </trkpt>
      <trkpt lat="42.312198" lon="3.288402">
        <ele>94</ele>
        <time>2019-08-18T23:34:42Z</time>
      </trkpt>
      <trkpt lat="42.31209" lon="3.288419">
        <ele>94</ele>
        <time>2019-08-18T23:34:43Z</time>
      </trkpt>
      <trkpt lat="42.312043" lon="3.288411">
        <ele>94</ele>
        <time>2019-08-18T23:34:44Z</time>
      </trkpt>
      <trkpt lat="42.311997" lon="3.288404">
        <ele>94</ele>
        <time>2019-08-18T23:34:45Z</time>
      </trkpt>
      <trkpt lat="42.31195" lon="3.288396">
        <ele>94</ele>
        <time>2019-08-18T23:34:46Z</time>
      </trkpt>
      <trkpt lat="42.311904" lon="3.288389">
        <ele>94</ele>
        <time>2019-08-18T23:34:47Z</time>
      </trkpt>
      <trkpt lat="42.311858" lon="3.288382">
        <ele>94</ele>
        <time>2019-08-18T23:34:48Z</time>
      </trkpt>
      <trkpt lat="42.311811" lon="3.288374">
        <ele>94</ele>
        <time>2019-08-18T23:34:49Z</time>
      </trkpt>
      <trkpt lat="42.311765" lon="3.288367">
        <ele>94</ele>
        <time>2019-08-18T23:34:50Z</time>
      </trkpt>
      <trkpt lat="42.311718" lon="3.288359">
        <ele>94</ele>
        <time>2019-08-18T23:34:51Z</time>
      </trkpt>
      <trkpt lat="42.311672" lon="3.288352">
        <ele>93</ele>
        <time>2019-08-18T23:34:52Z</time>
      </trkpt>
      <trkpt lat="42.311583" lon="3.288294">
        <ele>93</ele>
        <time>2019-08-18T23:34:53Z</time>
      </trkpt>
      <trkpt lat="42.311538" lon="3.288266">
        <ele>93</ele>
        <time>2019-08-18T23:34:54Z</time>
      </trkpt>
      <trkpt lat="42.311492" lon="3.288237">
        <ele>93</ele>
        <time>2019-08-18T23:34:55Z</time>
      </trkpt>
      <trkpt lat="42.311446" lon="3.288209">
        <ele>93</ele>
        <time>2019-08-18T23:34:56Z</time>
      </trkpt>
      <trkpt lat="42.311401" lon="3.288181">
        <ele>93</ele>
        <time>2019-08-18T23:34:57Z</time>
      </trkpt>
      <trkpt lat="42.311355" lon="3.288153">
        <ele>93</ele>
        <time>2019-08-18T23:34:58Z</time>
      </trkpt>
      <trkpt lat="42.311309" lon="3.288125">
        <ele>93</ele>
        <time>2019-08-18T23:34:59Z</time>
      </trkpt>
      <trkpt lat="42.311263" lon="3.288096">
        <ele>93</ele>
        <time>2019-08-18T23:35:00Z</time>
      </trkpt>
      <trkpt lat="42.311218" lon="3.288068">
        <ele>93</ele>
        <time>2019-08-18T23:35:01Z</time>
      </trkpt>
      <trkpt lat="42.311172" lon="3.28804">
        <ele>93</ele>
        <time>2019-08-18T23:35:02Z</time>
      </trkpt>
      <trkpt lat="42.311074" lon="3.287976">
        <ele>93</ele>
        <time>2019-08-18T23:35:03Z</time>
      </trkpt>
      <trkpt lat="42.311034" lon="3.287939">
        <ele>93</ele>
        <time>2019-08-18T23:35:04Z</time>
      </trkpt>
      <trkpt lat="42.310993" lon="3.287903">
        <ele>93</ele>
        <time>2019-08-18T23:35:05Z</time>
      </trkpt>
      <trkpt lat="42.310953" lon="3.287866">
        <ele>93</ele>
        <time>2019-08-18T23:35:06Z</time>
      </trkpt>
      <trkpt lat="42.310912" lon="3.28783">
        <ele>93</ele>
        <time>2019-08-18T23:35:07Z</time>
      </trkpt>
      <trkpt lat="42.310871" lon="3.287794">
        <ele>93</ele>
        <time>2019-08-18T23:35:08Z</time>
      </trkpt>
      <trkpt lat="42.310831" lon="3.287757">
        <ele>93</ele>
        <time>2019-08-18T23:35:09Z</time>
      </trkpt>
      <trkpt lat="42.31079" lon="3.287721">
        <ele>93</ele>
        <time>2019-08-18T23:35:10Z</time>
      </trkpt>
      <trkpt lat="42.31075" lon="3.287684">
        <ele>93</ele>
        <time>2019-08-18T23:35:11Z</time>
      </trkpt>
      <trkpt lat="42.310709" lon="3.287648">
        <ele>86</ele>
        <time>2019-08-18T23:35:12Z</time>
      </trkpt>
      <trkpt lat="42.310637" lon="3.287558">
        <ele>86</ele>
        <time>2019-08-18T23:35:13Z</time>
      </trkpt>
      <trkpt lat="42.3106" lon="3.287514">
        <ele>86</ele>
        <time>2019-08-18T23:35:14Z</time>
      </trkpt>
      <trkpt lat="42.310564" lon="3.28747">
        <ele>86</ele>
        <time>2019-08-18T23:35:15Z</time>
      </trkpt>
      <trkpt lat="42.310527" lon="3.287426">
        <ele>86</ele>
        <time>2019-08-18T23:35:16Z</time>
      </trkpt>
      <trkpt lat="42.310491" lon="3.287382">
        <ele>86</ele>
        <time>2019-08-18T23:35:17Z</time>
      </trkpt>
      <trkpt lat="42.310454" lon="3.287338">
        <ele>86</ele>
        <time>2019-08-18T23:35:18Z</time>
      </trkpt>
      <trkpt lat="42.310418" lon="3.287294">
        <ele>86</ele>
        <time>2019-08-18T23:35:19Z</time>
      </trkpt>
      <trkpt lat="42.310381" lon="3.28725">
        <ele>86</ele>
        <time>2019-08-18T23:35:20Z</time>
      </trkpt>
      <trkpt lat="42.310345" lon="3.287206">
        <ele>86</ele>
        <time>2019-08-18T23:35:21Z</time>
      </trkpt>
      <trkpt lat="42.310308" lon="3.287162">
        <ele>80</ele>
        <time>2019-08-18T23:35:22Z</time>
      </trkpt>
      <trkpt lat="42.3102" lon="3.287152">
        <ele>80</ele>
        <time>2019-08-18T23:35:23Z</time>
      </trkpt>
      <trkpt lat="42.310144" lon="3.287165">
        <ele>80</ele>
        <time>2019-08-18T23:35:24Z</time>
      </trkpt>
      <trkpt lat="42.310089" lon="3.287177">
        <ele>80</ele>
        <time>2019-08-18T23:35:25Z</time>
      </trkpt>
      <trkpt lat="42.310034" lon="3.28719">
        <ele>80</ele>
        <time>2019-08-18T23:35:26Z</time>
      </trkpt>
      <trkpt lat="42.309979" lon="3.287203">
        <ele>80</ele>
        <time>2019-08-18T23:35:27Z</time>
      </trkpt>
      <trkpt lat="42.309923" lon="3.287216">
        <ele>80</ele>
        <time>2019-08-18T23:35:28Z</time>
      </trkpt>
      <trkpt lat="42.309868" lon="3.287229">
        <ele>80</ele>
        <time>2019-08-18T23:35:29Z</time>
      </trkpt>
      <trkpt lat="42.309813" lon="3.287241">
        <ele>80</ele>
        <time>2019-08-18T23:35:30Z</time>
      </trkpt>
      <trkpt lat="42.309757" lon="3.287254">
        <ele>80</ele>
        <time>2019-08-18T23:35:31Z</time>
      </trkpt>
      <trkpt lat="42.309702" lon="3.287267">
        <ele>74</ele>
        <time>2019-08-18T23:35:32Z</time>
      </trkpt>
      <trkpt lat="42.309603" lon="3.287366">
        <ele>74</ele>
        <time>2019-08-18T23:35:33Z</time>
      </trkpt>
      <trkpt lat="42.309558" lon="3.287403">
        <ele>74</ele>
        <time>2019-08-18T23:35:34Z</time>
      </trkpt>
      <trkpt lat="42.309514" lon="3.287441">
        <ele>74</ele>
        <time>2019-08-18T23:35:35Z</time>
      </trkpt>
      <trkpt lat="42.309469" lon="3.287478">
        <ele>74</ele>
        <time>2019-08-18T23:35:36Z</time>
      </trkpt>
      <trkpt lat="42.309425" lon="3.287515">
        <ele>74</ele>
        <time>2019-08-18T23:35:37Z</time>
      </trkpt>
      <trkpt lat="42.309381" lon="3.287552">
        <ele>74</ele>
        <time>2019-08-18T23:35:38Z</time>
      </trkpt>
      <trkpt lat="42.309336" lon="3.287589">
        <ele>74</ele>
        <time>2019-08-18T23:35:39Z</time>
      </trkpt>
      <trkpt lat="42.309292" lon="3.287627">
        <ele>74</ele>
        <time>2019-08-18T23:35:40Z</time>
      </trkpt>
      <trkpt lat="42.309247" lon="3.287664">
        <ele>74</ele>
        <time>2019-08-18T23:35:41Z</time>
      </trkpt>
      <trkpt lat="42.309203" lon="3.287701">
        <ele>72</ele>
        <time>2019-08-18T23:35:42Z</time>
      </trkpt>
      <trkpt lat="42.309084" lon="3.287635">
        <ele>72</ele>
        <time>2019-08-18T23:35:43Z</time>
      </trkpt>
      <trkpt lat="42.309027" lon="3.287589">
        <ele>72</ele>
        <time>2019-08-18T23:35:44Z</time>
      </trkpt>
      <trkpt lat="42.308969" lon="3.287544">
        <ele>72</ele>
        <time>2019-08-18T23:35:45Z</time>
      </trkpt>
      <trkpt lat="42.308912" lon="3.287499">
        <ele>72</ele>
        <time>2019-08-18T23:35:46Z</time>
      </trkpt>
      <trkpt lat="42.308854" lon="3.287453">
        <ele>72</ele>
        <time>2019-08-18T23:35:47Z</time>
      </trkpt>
      <trkpt lat="42.308796" lon="3.287408">
        <ele>72</ele>
        <time>2019-08-18T23:35:48Z</time>
      </trkpt>
      <trkpt lat="42.308739" lon="3.287363">
        <ele>72</ele>
        <time>2019-08-18T23:35:49Z</time>
      </trkpt>
      <trkpt lat="42.308681" lon="3.287318">
        <ele>72</ele>
        <time>2019-08-18T23:35:50Z</time>
      </trkpt>
      <trkpt lat="42.308624" lon="3.287272">
        <ele>72</ele>
        <time>2019-08-18T23:35:51Z</time>
      </trkpt>
      <trkpt lat="42.308566" lon="3.287227">
        <ele>70</ele>
        <time>2019-08-18T23:35:53Z</time>
      </trkpt>
      <trkpt lat="42.308509" lon="3.287126">
        <ele>70</ele>
        <time>2019-08-18T23:35:54Z</time>
      </trkpt>
      <trkpt lat="42.308497" lon="3.287066">
        <ele>70</ele>
        <time>2019-08-18T23:35:55Z</time>
      </trkpt>
      <trkpt lat="42.308484" lon="3.287007">
        <ele>70</ele>
        <time>2019-08-18T23:35:56Z</time>
      </trkpt>
      <trkpt lat="42.308472" lon="3.286947">
        <ele>70</ele>
        <time>2019-08-18T23:35:57Z</time>
      </trkpt>
      <trkpt lat="42.30846" lon="3.286887">
        <ele>70</ele>
        <time>2019-08-18T23:35:58Z</time>
      </trkpt>
      <trkpt lat="42.308448" lon="3.286827">
        <ele>70</ele>
        <time>2019-08-18T23:35:59Z</time>
      </trkpt>
      <trkpt lat="42.308435" lon="3.286768">
        <ele>70</ele>
        <time>2019-08-18T23:36:00Z</time>
      </trkpt>
      <trkpt lat="42.308423" lon="3.286708">
        <ele>70</ele>
        <time>2019-08-18T23:36:01Z</time>
      </trkpt>
      <trkpt lat="42.308411" lon="3.286648">
        <ele>66</ele>
        <time>2019-08-18T23:36:02Z</time>
      </trkpt>
      <trkpt lat="42.308441" lon="3.286503">
        <ele>66</ele>
        <time>2019-08-18T23:36:03Z</time>
      </trkpt>
      <trkpt lat="42.308461" lon="3.286427">
        <ele>66</ele>
        <time>2019-08-18T23:36:04Z</time>
      </trkpt>
      <trkpt lat="42.308482" lon="3.286352">
        <ele>66</ele>
        <time>2019-08-18T23:36:05Z</time>
      </trkpt>
      <trkpt lat="42.308503" lon="3.286276">
        <ele>66</ele>
        <time>2019-08-18T23:36:06Z</time>
      </trkpt>
      <trkpt lat="42.308523" lon="3.2862">
        <ele>66</ele>
        <time>2019-08-18T23:36:07Z</time>
      </trkpt>
      <trkpt lat="42.308544" lon="3.286124">
        <ele>66</ele>
        <time>2019-08-18T23:36:08Z</time>
      </trkpt>
      <trkpt lat="42.308564" lon="3.286048">
        <ele>66</ele>
        <time>2019-08-18T23:36:09Z</time>
      </trkpt>
      <trkpt lat="42.308585" lon="3.285972">
        <ele>66</ele>
        <time>2019-08-18T23:36:10Z</time>
      </trkpt>
      <trkpt lat="42.308606" lon="3.285897">
        <ele>66</ele>
        <time>2019-08-18T23:36:11Z</time>
      </trkpt>
      <trkpt lat="42.308626" lon="3.285821">
        <ele>66</ele>
        <time>2019-08-18T23:36:12Z</time>
      </trkpt>
      <trkpt lat="42.308647" lon="3.285745">
        <ele>66</ele>
        <time>2019-08-18T23:36:13Z</time>
      </trkpt>
      <trkpt lat="42.3086" lon="3.285576">
        <ele>66</ele>
        <time>2019-08-18T23:36:14Z</time>
      </trkpt>
      <trkpt lat="42.308567" lon="3.285507">
        <ele>66</ele>
        <time>2019-08-18T23:36:15Z</time>
      </trkpt>
      <trkpt lat="42.308534" lon="3.285437">
        <ele>66</ele>
        <time>2019-08-18T23:36:16Z</time>
      </trkpt>
      <trkpt lat="42.308501" lon="3.285368">
        <ele>66</ele>
        <time>2019-08-18T23:36:17Z</time>
      </trkpt>
      <trkpt lat="42.308467" lon="3.285298">
        <ele>66</ele>
        <time>2019-08-18T23:36:18Z</time>
      </trkpt>
      <trkpt lat="42.308434" lon="3.285229">
        <ele>66</ele>
        <time>2019-08-18T23:36:19Z</time>
      </trkpt>
      <trkpt lat="42.308401" lon="3.285159">
        <ele>66</ele>
        <time>2019-08-18T23:36:20Z</time>
      </trkpt>
      <trkpt lat="42.308368" lon="3.28509">
        <ele>66</ele>
        <time>2019-08-18T23:36:21Z</time>
      </trkpt>
      <trkpt lat="42.308335" lon="3.28502">
        <ele>59</ele>
        <time>2019-08-18T23:36:22Z</time>
      </trkpt>
      <trkpt lat="42.308238" lon="3.285061">
        <ele>59</ele>
        <time>2019-08-18T23:36:23Z</time>
      </trkpt>
      <trkpt lat="42.308195" lon="3.285134">
        <ele>59</ele>
        <time>2019-08-18T23:36:24Z</time>
      </trkpt>
      <trkpt lat="42.308151" lon="3.285208">
        <ele>59</ele>
        <time>2019-08-18T23:36:25Z</time>
      </trkpt>
      <trkpt lat="42.308108" lon="3.285282">
        <ele>59</ele>
        <time>2019-08-18T23:36:26Z</time>
      </trkpt>
      <trkpt lat="42.308065" lon="3.285355">
        <ele>59</ele>
        <time>2019-08-18T23:36:27Z</time>
      </trkpt>
      <trkpt lat="42.308022" lon="3.285429">
        <ele>59</ele>
        <time>2019-08-18T23:36:28Z</time>
      </trkpt>
      <trkpt lat="42.307978" lon="3.285503">
        <ele>59</ele>
        <time>2019-08-18T23:36:29Z</time>
      </trkpt>
      <trkpt lat="42.307935" lon="3.285576">
        <ele>59</ele>
        <time>2019-08-18T23:36:30Z</time>
      </trkpt>
      <trkpt lat="42.307892" lon="3.28565">
        <ele>52</ele>
        <time>2019-08-18T23:36:32Z</time>
      </trkpt>
      <trkpt lat="42.307814" lon="3.28581">
        <ele>52</ele>
        <time>2019-08-18T23:36:33Z</time>
      </trkpt>
      <trkpt lat="42.30777" lon="3.285872">
        <ele>52</ele>
        <time>2019-08-18T23:36:34Z</time>
      </trkpt>
      <trkpt lat="42.307725" lon="3.285935">
        <ele>52</ele>
        <time>2019-08-18T23:36:35Z</time>
      </trkpt>
      <trkpt lat="42.307681" lon="3.285998">
        <ele>52</ele>
        <time>2019-08-18T23:36:36Z</time>
      </trkpt>
      <trkpt lat="42.307636" lon="3.286061">
        <ele>52</ele>
        <time>2019-08-18T23:36:37Z</time>
      </trkpt>
      <trkpt lat="42.307591" lon="3.286123">
        <ele>52</ele>
        <time>2019-08-18T23:36:38Z</time>
      </trkpt>
      <trkpt lat="42.307547" lon="3.286186">
        <ele>52</ele>
        <time>2019-08-18T23:36:39Z</time>
      </trkpt>
      <trkpt lat="42.307502" lon="3.286249">
        <ele>52</ele>
        <time>2019-08-18T23:36:40Z</time>
      </trkpt>
      <trkpt lat="42.307458" lon="3.286311">
        <ele>52</ele>
        <time>2019-08-18T23:36:41Z</time>
      </trkpt>
      <trkpt lat="42.307413" lon="3.286374">
        <ele>41</ele>
        <time>2019-08-18T23:36:42Z</time>
      </trkpt>
      <trkpt lat="42.30729" lon="3.286421">
        <ele>41</ele>
        <time>2019-08-18T23:36:43Z</time>
      </trkpt>
      <trkpt lat="42.30723" lon="3.286427">
        <ele>41</ele>
        <time>2019-08-18T23:36:44Z</time>
      </trkpt>
      <trkpt lat="42.307169" lon="3.286432">
        <ele>41</ele>
        <time>2019-08-18T23:36:45Z</time>
      </trkpt>
      <trkpt lat="42.307109" lon="3.286438">
        <ele>41</ele>
        <time>2019-08-18T23:36:46Z</time>
      </trkpt>
      <trkpt lat="42.307048" lon="3.286443">
        <ele>41</ele>
        <time>2019-08-18T23:36:47Z</time>
      </trkpt>
      <trkpt lat="42.306987" lon="3.286448">
        <ele>41</ele>
        <time>2019-08-18T23:36:48Z</time>
      </trkpt>
      <trkpt lat="42.306927" lon="3.286454">
        <ele>41</ele>
        <time>2019-08-18T23:36:49Z</time>
      </trkpt>
      <trkpt lat="42.306866" lon="3.286459">
        <ele>41</ele>
        <time>2019-08-18T23:36:50Z</time>
      </trkpt>
      <trkpt lat="42.306806" lon="3.286465">
        <ele>41</ele>
        <time>2019-08-18T23:36:51Z</time>
      </trkpt>
      <trkpt lat="42.306745" lon="3.28647">
        <ele>35</ele>
        <time>2019-08-18T23:36:52Z</time>
      </trkpt>
      <trkpt lat="42.306624" lon="3.286451">
        <ele>35</ele>
        <time>2019-08-18T23:36:53Z</time>
      </trkpt>
      <trkpt lat="42.306574" lon="3.286427">
        <ele>35</ele>
        <time>2019-08-18T23:36:54Z</time>
      </trkpt>
      <trkpt lat="42.306524" lon="3.286402">
        <ele>35</ele>
        <time>2019-08-18T23:36:55Z</time>
      </trkpt>
      <trkpt lat="42.306474" lon="3.286378">
        <ele>35</ele>
        <time>2019-08-18T23:36:56Z</time>
      </trkpt>
      <trkpt lat="42.306424" lon="3.286353">
        <ele>35</ele>
        <time>2019-08-18T23:36:57Z</time>
      </trkpt>
      <trkpt lat="42.306373" lon="3.286329">
        <ele>35</ele>
        <time>2019-08-18T23:36:58Z</time>
      </trkpt>
      <trkpt lat="42.306323" lon="3.286304">
        <ele>35</ele>
        <time>2019-08-18T23:36:59Z</time>
      </trkpt>
      <trkpt lat="42.306273" lon="3.28628">
        <ele>35</ele>
        <time>2019-08-18T23:37:00Z</time>
      </trkpt>
      <trkpt lat="42.306223" lon="3.286255">
        <ele>35</ele>
        <time>2019-08-18T23:37:01Z</time>
      </trkpt>
      <trkpt lat="42.306173" lon="3.286231">
        <ele>28</ele>
        <time>2019-08-18T23:37:02Z</time>
      </trkpt>
      <trkpt lat="42.306104" lon="3.286086">
        <ele>28</ele>
        <time>2019-08-18T23:37:03Z</time>
      </trkpt>
      <trkpt lat="42.306078" lon="3.286016">
        <ele>28</ele>
        <time>2019-08-18T23:37:04Z</time>
      </trkpt>
      <trkpt lat="42.306051" lon="3.285945">
        <ele>28</ele>
        <time>2019-08-18T23:37:05Z</time>
      </trkpt>
      <trkpt lat="42.306025" lon="3.285875">
        <ele>28</ele>
        <time>2019-08-18T23:37:06Z</time>
      </trkpt>
      <trkpt lat="42.305998" lon="3.285804">
        <ele>28</ele>
        <time>2019-08-18T23:37:07Z</time>
      </trkpt>
      <trkpt lat="42.305971" lon="3.285733">
        <ele>28</ele>
        <time>2019-08-18T23:37:08Z</time>
      </trkpt>
      <trkpt lat="42.305945" lon="3.285663">
        <ele>28</ele>
        <time>2019-08-18T23:37:09Z</time>
      </trkpt>
      <trkpt lat="42.305918" lon="3.285592">
        <ele>28</ele>
        <time>2019-08-18T23:37:10Z</time>
      </trkpt>
      <trkpt lat="42.305892" lon="3.285522">
        <ele>28</ele>
        <time>2019-08-18T23:37:11Z</time>
      </trkpt>
      <trkpt lat="42.305865" lon="3.285451">
        <ele>22</ele>
        <time>2019-08-18T23:37:12Z</time>
      </trkpt>
      <trkpt lat="42.305903" lon="3.285308">
        <ele>22</ele>
        <time>2019-08-18T23:37:13Z</time>
      </trkpt>
      <trkpt lat="42.305925" lon="3.285246">
        <ele>22</ele>
        <time>2019-08-18T23:37:14Z</time>
      </trkpt>
      <trkpt lat="42.305948" lon="3.285184">
        <ele>22</ele>
        <time>2019-08-18T23:37:15Z</time>
      </trkpt>
      <trkpt lat="42.30597" lon="3.285122">
        <ele>22</ele>
        <time>2019-08-18T23:37:16Z</time>
      </trkpt>
      <trkpt lat="42.305992" lon="3.28506">
        <ele>22</ele>
        <time>2019-08-18T23:37:17Z</time>
      </trkpt>
      <trkpt lat="42.306014" lon="3.284997">
        <ele>22</ele>
        <time>2019-08-18T23:37:18Z</time>
      </trkpt>
      <trkpt lat="42.306036" lon="3.284935">
        <ele>22</ele>
        <time>2019-08-18T23:37:19Z</time>
      </trkpt>
      <trkpt lat="42.306059" lon="3.284873">
        <ele>22</ele>
        <time>2019-08-18T23:37:20Z</time>
      </trkpt>
      <trkpt lat="42.306081" lon="3.284811">
        <ele>22</ele>
        <time>2019-08-18T23:37:21Z</time>
      </trkpt>
      <trkpt lat="42.306103" lon="3.284749">
        <ele>20</ele>
        <time>2019-08-18T23:37:22Z</time>
      </trkpt>
      <trkpt lat="42.30607" lon="3.284679">
        <ele>20</ele>
        <time>2019-08-18T23:37:23Z</time>
      </trkpt>
      <trkpt lat="42.306039" lon="3.284672">
        <ele>20</ele>
        <time>2019-08-18T23:37:24Z</time>
      </trkpt>
      <trkpt lat="42.306008" lon="3.284664">
        <ele>20</ele>
        <time>2019-08-18T23:37:25Z</time>
      </trkpt>
      <trkpt lat="42.305977" lon="3.284657">
        <ele>20</ele>
        <time>2019-08-18T23:37:26Z</time>
      </trkpt>
      <trkpt lat="42.305946" lon="3.284649">
        <ele>20</ele>
        <time>2019-08-18T23:37:27Z</time>
      </trkpt>
      <trkpt lat="42.305915" lon="3.284641">
        <ele>20</ele>
        <time>2019-08-18T23:37:28Z</time>
      </trkpt>
      <trkpt lat="42.305884" lon="3.284634">
        <ele>20</ele>
        <time>2019-08-18T23:37:29Z</time>
      </trkpt>
      <trkpt lat="42.305853" lon="3.284626">
        <ele>20</ele>
        <time>2019-08-18T23:37:30Z</time>
      </trkpt>
      <trkpt lat="42.305822" lon="3.284619">
        <ele>20</ele>
        <time>2019-08-18T23:37:31Z</time>
      </trkpt>
      <trkpt lat="42.305791" lon="3.284611">
        <ele>20</ele>
        <time>2019-08-18T23:37:32Z</time>
      </trkpt>
      <trkpt lat="42.305726" lon="3.284667">
        <ele>20</ele>
        <time>2019-08-18T23:37:33Z</time>
      </trkpt>
      <trkpt lat="42.305696" lon="3.284694">
        <ele>20</ele>
        <time>2019-08-18T23:37:34Z</time>
      </trkpt>
      <trkpt lat="42.305665" lon="3.284722">
        <ele>20</ele>
        <time>2019-08-18T23:37:35Z</time>
      </trkpt>
      <trkpt lat="42.305634" lon="3.284749">
        <ele>20</ele>
        <time>2019-08-18T23:37:36Z</time>
      </trkpt>
      <trkpt lat="42.305604" lon="3.284777">
        <ele>20</ele>
        <time>2019-08-18T23:37:37Z</time>
      </trkpt>
      <trkpt lat="42.305573" lon="3.284804">
        <ele>20</ele>
        <time>2019-08-18T23:37:38Z</time>
      </trkpt>
      <trkpt lat="42.305542" lon="3.284832">
        <ele>20</ele>
        <time>2019-08-18T23:37:39Z</time>
      </trkpt>
      <trkpt lat="42.305511" lon="3.284859">
        <ele>20</ele>
        <time>2019-08-18T23:37:40Z</time>
      </trkpt>
      <trkpt lat="42.305481" lon="3.284887">
        <ele>20</ele>
        <time>2019-08-18T23:37:41Z</time>
      </trkpt>
      <trkpt lat="42.30545" lon="3.284914">
        <ele>19</ele>
        <time>2019-08-18T23:37:42Z</time>
      </trkpt>
      <trkpt lat="42.305381" lon="3.284928">
        <ele>19</ele>
        <time>2019-08-18T23:37:43Z</time>
      </trkpt>
      <trkpt lat="42.305352" lon="3.284925">
        <ele>19</ele>
        <time>2019-08-18T23:37:44Z</time>
      </trkpt>
      <trkpt lat="42.305322" lon="3.284923">
        <ele>19</ele>
        <time>2019-08-18T23:37:45Z</time>
      </trkpt>
      <trkpt lat="42.305293" lon="3.28492">
        <ele>19</ele>
        <time>2019-08-18T23:37:46Z</time>
      </trkpt>
      <trkpt lat="42.305263" lon="3.284918">
        <ele>19</ele>
        <time>2019-08-18T23:37:47Z</time>
      </trkpt>
      <trkpt lat="42.305233" lon="3.284916">
        <ele>19</ele>
        <time>2019-08-18T23:37:48Z</time>
      </trkpt>
      <trkpt lat="42.305204" lon="3.284913">
        <ele>19</ele>
        <time>2019-08-18T23:37:49Z</time>
      </trkpt>
      <trkpt lat="42.305174" lon="3.284911">
        <ele>19</ele>
        <time>2019-08-18T23:37:50Z</time>
      </trkpt>
      <trkpt lat="42.305145" lon="3.284908">
        <ele>19</ele>
        <time>2019-08-18T23:37:51Z</time>
      </trkpt>
      <trkpt lat="42.305115" lon="3.284906">
        <ele>20</ele>
        <time>2019-08-18T23:37:52Z</time>
      </trkpt>
      <trkpt lat="42.305065" lon="3.284884">
        <ele>20</ele>
        <time>2019-08-18T23:37:53Z</time>
      </trkpt>
      <trkpt lat="42.305043" lon="3.284874">
        <ele>20</ele>
        <time>2019-08-18T23:37:54Z</time>
      </trkpt>
      <trkpt lat="42.305022" lon="3.284864">
        <ele>20</ele>
        <time>2019-08-18T23:37:55Z</time>
      </trkpt>
      <trkpt lat="42.305" lon="3.284854">
        <ele>20</ele>
        <time>2019-08-18T23:37:56Z</time>
      </trkpt>
      <trkpt lat="42.304978" lon="3.284844">
        <ele>20</ele>
        <time>2019-08-18T23:37:57Z</time>
      </trkpt>
      <trkpt lat="42.304956" lon="3.284835">
        <ele>20</ele>
        <time>2019-08-18T23:37:58Z</time>
      </trkpt>
      <trkpt lat="42.304934" lon="3.284825">
        <ele>20</ele>
        <time>2019-08-18T23:37:59Z</time>
      </trkpt>
      <trkpt lat="42.304913" lon="3.284815">
        <ele>20</ele>
        <time>2019-08-18T23:38:00Z</time>
      </trkpt>
      <trkpt lat="42.304891" lon="3.284805">
        <ele>20</ele>
        <time>2019-08-18T23:38:01Z</time>
      </trkpt>
      <trkpt lat="42.304869" lon="3.284795">
        <ele>23</ele>
        <time>2019-08-18T23:38:02Z</time>
      </trkpt>
      <trkpt lat="42.304821" lon="3.28478">
        <ele>23</ele>
        <time>2019-08-18T23:38:03Z</time>
      </trkpt>
      <trkpt lat="42.304797" lon="3.284772">
        <ele>23</ele>
        <time>2019-08-18T23:38:04Z</time>
      </trkpt>
      <trkpt lat="42.304772" lon="3.284765">
        <ele>23</ele>
        <time>2019-08-18T23:38:06Z</time>
      </trkpt>
      <trkpt lat="42.304748" lon="3.284757">
        <ele>23</ele>
        <time>2019-08-18T23:38:07Z</time>
      </trkpt>
      <trkpt lat="42.304724" lon="3.28475">
        <ele>23</ele>
        <time>2019-08-18T23:38:08Z</time>
      </trkpt>
      <trkpt lat="42.3047" lon="3.284742">
        <ele>23</ele>
        <time>2019-08-18T23:38:09Z</time>
      </trkpt>
      <trkpt lat="42.304675" lon="3.284735">
        <ele>23</ele>
        <time>2019-08-18T23:38:10Z</time>
      </trkpt>
      <trkpt lat="42.304651" lon="3.284727">
        <ele>23</ele>
        <time>2019-08-18T23:38:11Z</time>
      </trkpt>
      <trkpt lat="42.304627" lon="3.28472">
        <ele>24</ele>
        <time>2019-08-18T23:38:12Z</time>
      </trkpt>
      <trkpt lat="42.304584" lon="3.284702">
        <ele>24</ele>
        <time>2019-08-18T23:38:13Z</time>
      </trkpt>
      <trkpt lat="42.304565" lon="3.284694">
        <ele>24</ele>
        <time>2019-08-18T23:38:14Z</time>
      </trkpt>
      <trkpt lat="42.304545" lon="3.284687">
        <ele>24</ele>
        <time>2019-08-18T23:38:15Z</time>
      </trkpt>
      <trkpt lat="42.304526" lon="3.284679">
        <ele>24</ele>
        <time>2019-08-18T23:38:16Z</time>
      </trkpt>
      <trkpt lat="42.304506" lon="3.284672">
        <ele>24</ele>
        <time>2019-08-18T23:38:17Z</time>
      </trkpt>
      <trkpt lat="42.304486" lon="3.284665">
        <ele>24</ele>
        <time>2019-08-18T23:38:18Z</time>
      </trkpt>
      <trkpt lat="42.304467" lon="3.284657">
        <ele>24</ele>
        <time>2019-08-18T23:38:19Z</time>
      </trkpt>
      <trkpt lat="42.304447" lon="3.28465">
        <ele>24</ele>
        <time>2019-08-18T23:38:20Z</time>
      </trkpt>
      <trkpt lat="42.304428" lon="3.284642">
        <ele>24</ele>
        <time>2019-08-18T23:38:21Z</time>
      </trkpt>
      <trkpt lat="42.304408" lon="3.284635">
        <ele>26</ele>
        <time>2019-08-18T23:38:22Z</time>
      </trkpt>
      <trkpt lat="42.30437" lon="3.284614">
        <ele>26</ele>
        <time>2019-08-18T23:38:23Z</time>
      </trkpt>
      <trkpt lat="42.304354" lon="3.284602">
        <ele>26</ele>
        <time>2019-08-18T23:38:24Z</time>
      </trkpt>
      <trkpt lat="42.304338" lon="3.284589">
        <ele>26</ele>
        <time>2019-08-18T23:38:25Z</time>
      </trkpt>
      <trkpt lat="42.304322" lon="3.284577">
        <ele>26</ele>
        <time>2019-08-18T23:38:26Z</time>
      </trkpt>
      <trkpt lat="42.304306" lon="3.284564">
        <ele>26</ele>
        <time>2019-08-18T23:38:27Z</time>
      </trkpt>
      <trkpt lat="42.30429" lon="3.284551">
        <ele>26</ele>
        <time>2019-08-18T23:38:28Z</time>
      </trkpt>
      <trkpt lat="42.304274" lon="3.284539">
        <ele>26</ele>
        <time>2019-08-18T23:38:29Z</time>
      </trkpt>
      <trkpt lat="42.304258" lon="3.284526">
        <ele>26</ele>
        <time>2019-08-18T23:38:30Z</time>
      </trkpt>
      <trkpt lat="42.304242" lon="3.284514">
        <ele>26</ele>
        <time>2019-08-18T23:38:31Z</time>
      </trkpt>
      <trkpt lat="42.304226" lon="3.284501">
        <ele>28</ele>
        <time>2019-08-18T23:38:32Z</time>
      </trkpt>
      <trkpt lat="42.304197" lon="3.284463">
        <ele>28</ele>
        <time>2019-08-18T23:38:33Z</time>
      </trkpt>
      <trkpt lat="42.304181" lon="3.284447">
        <ele>28</ele>
        <time>2019-08-18T23:38:34Z</time>
      </trkpt>
      <trkpt lat="42.304166" lon="3.28443">
        <ele>28</ele>
        <time>2019-08-18T23:38:35Z</time>
      </trkpt>
      <trkpt lat="42.304151" lon="3.284414">
        <ele>28</ele>
        <time>2019-08-18T23:38:36Z</time>
      </trkpt>
      <trkpt lat="42.304136" lon="3.284397">
        <ele>28</ele>
        <time>2019-08-18T23:38:37Z</time>
      </trkpt>
      <trkpt lat="42.30412" lon="3.28438">
        <ele>28</ele>
        <time>2019-08-18T23:38:38Z</time>
      </trkpt>
      <trkpt lat="42.304105" lon="3.284364">
        <ele>28</ele>
        <time>2019-08-18T23:38:39Z</time>
      </trkpt>
      <trkpt lat="42.30409" lon="3.284347">
        <ele>28</ele>
        <time>2019-08-18T23:38:40Z</time>
      </trkpt>
      <trkpt lat="42.304074" lon="3.284331">
        <ele>28</ele>
        <time>2019-08-18T23:38:41Z</time>
      </trkpt>
      <trkpt lat="42.304059" lon="3.284314">
        <ele>28</ele>
        <time>2019-08-18T23:38:42Z</time>
      </trkpt>
      <trkpt lat="42.304017" lon="3.28432">
        <ele>28</ele>
        <time>2019-08-18T23:38:43Z</time>
      </trkpt>
      <trkpt lat="42.303999" lon="3.284329">
        <ele>28</ele>
        <time>2019-08-18T23:38:44Z</time>
      </trkpt>
      <trkpt lat="42.303981" lon="3.284338">
        <ele>28</ele>
        <time>2019-08-18T23:38:45Z</time>
      </trkpt>
      <trkpt lat="42.303963" lon="3.284347">
        <ele>28</ele>
        <time>2019-08-18T23:38:46Z</time>
      </trkpt>
      <trkpt lat="42.303945" lon="3.284356">
        <ele>28</ele>
        <time>2019-08-18T23:38:47Z</time>
      </trkpt>
      <trkpt lat="42.303926" lon="3.284364">
        <ele>28</ele>
        <time>2019-08-18T23:38:48Z</time>
      </trkpt>
      <trkpt lat="42.303908" lon="3.284373">
        <ele>28</ele>
        <time>2019-08-18T23:38:49Z</time>
      </trkpt>
      <trkpt lat="42.30389" lon="3.284382">
        <ele>28</ele>
        <time>2019-08-18T23:38:50Z</time>
      </trkpt>
      <trkpt lat="42.303872" lon="3.284391">
        <ele>28</ele>
        <time>2019-08-18T23:38:51Z</time>
      </trkpt>
      <trkpt lat="42.303854" lon="3.2844">
        <ele>30</ele>
        <time>2019-08-18T23:38:52Z</time>
      </trkpt>
      <trkpt lat="42.303821" lon="3.284421">
        <ele>30</ele>
        <time>2019-08-18T23:38:53Z</time>
      </trkpt>
      <trkpt lat="42.303804" lon="3.28443">
        <ele>30</ele>
        <time>2019-08-18T23:38:54Z</time>
      </trkpt>
      <trkpt lat="42.303788" lon="3.284438">
        <ele>30</ele>
        <time>2019-08-18T23:38:55Z</time>
      </trkpt>
      <trkpt lat="42.303771" lon="3.284447">
        <ele>30</ele>
        <time>2019-08-18T23:38:56Z</time>
      </trkpt>
      <trkpt lat="42.303755" lon="3.284456">
        <ele>30</ele>
        <time>2019-08-18T23:38:57Z</time>
      </trkpt>
      <trkpt lat="42.303739" lon="3.284465">
        <ele>30</ele>
        <time>2019-08-18T23:38:58Z</time>
      </trkpt>
      <trkpt lat="42.303722" lon="3.284474">
        <ele>30</ele>
        <time>2019-08-18T23:38:59Z</time>
      </trkpt>
      <trkpt lat="42.303706" lon="3.284482">
        <ele>30</ele>
        <time>2019-08-18T23:39:00Z</time>
      </trkpt>
      <trkpt lat="42.303689" lon="3.284491">
        <ele>30</ele>
        <time>2019-08-18T23:39:01Z</time>
      </trkpt>
      <trkpt lat="42.303673" lon="3.2845">
        <ele>34</ele>
        <time>2019-08-18T23:39:02Z</time>
      </trkpt>
      <trkpt lat="42.303636" lon="3.284515">
        <ele>34</ele>
        <time>2019-08-18T23:39:03Z</time>
      </trkpt>
      <trkpt lat="42.303618" lon="3.284521">
        <ele>34</ele>
        <time>2019-08-18T23:39:04Z</time>
      </trkpt>
      <trkpt lat="42.3036" lon="3.284526">
        <ele>34</ele>
        <time>2019-08-18T23:39:05Z</time>
      </trkpt>
      <trkpt lat="42.303582" lon="3.284532">
        <ele>34</ele>
        <time>2019-08-18T23:39:06Z</time>
      </trkpt>
      <trkpt lat="42.303564" lon="3.284538">
        <ele>34</ele>
        <time>2019-08-18T23:39:07Z</time>
      </trkpt>
      <trkpt lat="42.303545" lon="3.284544">
        <ele>34</ele>
        <time>2019-08-18T23:39:08Z</time>
      </trkpt>
      <trkpt lat="42.303527" lon="3.28455">
        <ele>34</ele>
        <time>2019-08-18T23:39:09Z</time>
      </trkpt>
      <trkpt lat="42.303509" lon="3.284555">
        <ele>34</ele>
        <time>2019-08-18T23:39:10Z</time>
      </trkpt>
      <trkpt lat="42.303491" lon="3.284561">
        <ele>34</ele>
        <time>2019-08-18T23:39:11Z</time>
      </trkpt>
      <trkpt lat="42.303473" lon="3.284567">
        <ele>34</ele>
        <time>2019-08-18T23:39:12Z</time>
      </trkpt>
      <trkpt lat="42.303434" lon="3.284577">
        <ele>34</ele>
        <time>2019-08-18T23:39:13Z</time>
      </trkpt>
      <trkpt lat="42.303415" lon="3.284581">
        <ele>34</ele>
        <time>2019-08-18T23:39:14Z</time>
      </trkpt>
      <trkpt lat="42.303395" lon="3.284586">
        <ele>34</ele>
        <time>2019-08-18T23:39:15Z</time>
      </trkpt>
      <trkpt lat="42.303376" lon="3.284591">
        <ele>34</ele>
        <time>2019-08-18T23:39:16Z</time>
      </trkpt>
      <trkpt lat="42.303357" lon="3.284596">
        <ele>34</ele>
        <time>2019-08-18T23:39:17Z</time>
      </trkpt>
      <trkpt lat="42.303338" lon="3.2846">
        <ele>34</ele>
        <time>2019-08-18T23:39:18Z</time>
      </trkpt>
      <trkpt lat="42.303319" lon="3.284605">
        <ele>34</ele>
        <time>2019-08-18T23:39:19Z</time>
      </trkpt>
      <trkpt lat="42.303299" lon="3.28461">
        <ele>34</ele>
        <time>2019-08-18T23:39:20Z</time>
      </trkpt>
      <trkpt lat="42.30328" lon="3.284614">
        <ele>34</ele>
        <time>2019-08-18T23:39:21Z</time>
      </trkpt>
      <trkpt lat="42.303261" lon="3.284619">
        <ele>35</ele>
        <time>2019-08-18T23:39:22Z</time>
      </trkpt>
      <trkpt lat="42.30322" lon="3.284628">
        <ele>35</ele>
        <time>2019-08-18T23:39:23Z</time>
      </trkpt>
      <trkpt lat="42.303201" lon="3.284633">
        <ele>35</ele>
        <time>2019-08-18T23:39:24Z</time>
      </trkpt>
      <trkpt lat="42.303182" lon="3.284639">
        <ele>35</ele>
        <time>2019-08-18T23:39:25Z</time>
      </trkpt>
      <trkpt lat="42.303163" lon="3.284645">
        <ele>35</ele>
        <time>2019-08-18T23:39:26Z</time>
      </trkpt>
      <trkpt lat="42.303145" lon="3.284651">
        <ele>35</ele>
        <time>2019-08-18T23:39:27Z</time>
      </trkpt>
      <trkpt lat="42.303126" lon="3.284656">
        <ele>35</ele>
        <time>2019-08-18T23:39:28Z</time>
      </trkpt>
      <trkpt lat="42.303107" lon="3.284662">
        <ele>35</ele>
        <time>2019-08-18T23:39:29Z</time>
      </trkpt>
      <trkpt lat="42.303088" lon="3.284668">
        <ele>35</ele>
        <time>2019-08-18T23:39:30Z</time>
      </trkpt>
      <trkpt lat="42.303069" lon="3.284673">
        <ele>35</ele>
        <time>2019-08-18T23:39:31Z</time>
      </trkpt>
      <trkpt lat="42.30305" lon="3.284679">
        <ele>38</ele>
        <time>2019-08-18T23:39:32Z</time>
      </trkpt>
      <trkpt lat="42.303013" lon="3.284696">
        <ele>38</ele>
        <time>2019-08-18T23:39:33Z</time>
      </trkpt>
      <trkpt lat="42.302995" lon="3.284704">
        <ele>38</ele>
        <time>2019-08-18T23:39:34Z</time>
      </trkpt>
      <trkpt lat="42.302976" lon="3.284711">
        <ele>38</ele>
        <time>2019-08-18T23:39:35Z</time>
      </trkpt>
      <trkpt lat="42.302958" lon="3.284719">
        <ele>38</ele>
        <time>2019-08-18T23:39:36Z</time>
      </trkpt>
      <trkpt lat="42.30294" lon="3.284727">
        <ele>38</ele>
        <time>2019-08-18T23:39:37Z</time>
      </trkpt>
      <trkpt lat="42.302922" lon="3.284735">
        <ele>38</ele>
        <time>2019-08-18T23:39:38Z</time>
      </trkpt>
      <trkpt lat="42.302904" lon="3.284743">
        <ele>38</ele>
        <time>2019-08-18T23:39:39Z</time>
      </trkpt>
      <trkpt lat="42.302885" lon="3.28475">
        <ele>38</ele>
        <time>2019-08-18T23:39:40Z</time>
      </trkpt>
      <trkpt lat="42.302867" lon="3.284758">
        <ele>38</ele>
        <time>2019-08-18T23:39:41Z</time>
      </trkpt>
      <trkpt lat="42.302849" lon="3.284766">
        <ele>41</ele>
        <time>2019-08-18T23:39:42Z</time>
      </trkpt>
      <trkpt lat="42.302807" lon="3.284775">
        <ele>41</ele>
        <time>2019-08-18T23:39:43Z</time>
      </trkpt>
      <trkpt lat="42.302786" lon="3.284779">
        <ele>41</ele>
        <time>2019-08-18T23:39:44Z</time>
      </trkpt>
      <trkpt lat="42.302766" lon="3.284783">
        <ele>41</ele>
        <time>2019-08-18T23:39:45Z</time>
      </trkpt>
      <trkpt lat="42.302746" lon="3.284787">
        <ele>41</ele>
        <time>2019-08-18T23:39:46Z</time>
      </trkpt>
      <trkpt lat="42.302726" lon="3.284792">
        <ele>41</ele>
        <time>2019-08-18T23:39:47Z</time>
      </trkpt>
      <trkpt lat="42.302705" lon="3.284796">
        <ele>41</ele>
        <time>2019-08-18T23:39:48Z</time>
      </trkpt>
      <trkpt lat="42.302685" lon="3.2848">
        <ele>41</ele>
        <time>2019-08-18T23:39:49Z</time>
      </trkpt>
      <trkpt lat="42.302665" lon="3.284804">
        <ele>41</ele>
        <time>2019-08-18T23:39:50Z</time>
      </trkpt>
      <trkpt lat="42.302644" lon="3.284808">
        <ele>41</ele>
        <time>2019-08-18T23:39:51Z</time>
      </trkpt>
      <trkpt lat="42.302624" lon="3.284812">
        <ele>42</ele>
        <time>2019-08-18T23:39:52Z</time>
      </trkpt>
      <trkpt lat="42.302577" lon="3.284813">
        <ele>42</ele>
        <time>2019-08-18T23:39:53Z</time>
      </trkpt>
      <trkpt lat="42.302554" lon="3.284813">
        <ele>42</ele>
        <time>2019-08-18T23:39:54Z</time>
      </trkpt>
      <trkpt lat="42.30253" lon="3.284812">
        <ele>42</ele>
        <time>2019-08-18T23:39:55Z</time>
      </trkpt>
      <trkpt lat="42.302506" lon="3.284811">
        <ele>42</ele>
        <time>2019-08-18T23:39:56Z</time>
      </trkpt>
      <trkpt lat="42.302483" lon="3.284811">
        <ele>42</ele>
        <time>2019-08-18T23:39:57Z</time>
      </trkpt>
      <trkpt lat="42.302459" lon="3.28481">
        <ele>42</ele>
        <time>2019-08-18T23:39:58Z</time>
      </trkpt>
      <trkpt lat="42.302435" lon="3.284809">
        <ele>42</ele>
        <time>2019-08-18T23:40:00Z</time>
      </trkpt>
      <trkpt lat="42.302412" lon="3.284809">
        <ele>42</ele>
        <time>2019-08-18T23:40:01Z</time>
      </trkpt>
      <trkpt lat="42.302388" lon="3.284808">
        <ele>44</ele>
        <time>2019-08-18T23:40:02Z</time>
      </trkpt>
      <trkpt lat="42.302343" lon="3.284812">
        <ele>44</ele>
        <time>2019-08-18T23:40:03Z</time>
      </trkpt>
      <trkpt lat="42.302322" lon="3.284815">
        <ele>44</ele>
        <time>2019-08-18T23:40:04Z</time>
      </trkpt>
      <trkpt lat="42.302301" lon="3.284818">
        <ele>44</ele>
        <time>2019-08-18T23:40:05Z</time>
      </trkpt>
      <trkpt lat="42.30228" lon="3.284821">
        <ele>44</ele>
        <time>2019-08-18T23:40:06Z</time>
      </trkpt>
      <trkpt lat="42.302259" lon="3.284824">
        <ele>44</ele>
        <time>2019-08-18T23:40:07Z</time>
      </trkpt>
      <trkpt lat="42.302237" lon="3.284826">
        <ele>44</ele>
        <time>2019-08-18T23:40:08Z</time>
      </trkpt>
      <trkpt lat="42.302216" lon="3.284829">
        <ele>44</ele>
        <time>2019-08-18T23:40:09Z</time>
      </trkpt>
      <trkpt lat="42.302195" lon="3.284832">
        <ele>44</ele>
        <time>2019-08-18T23:40:10Z</time>
      </trkpt>
      <trkpt lat="42.302174" lon="3.284835">
        <ele>44</ele>
        <time>2019-08-18T23:40:11Z</time>
      </trkpt>
      <trkpt lat="42.302153" lon="3.284838">
        <ele>44</ele>
        <time>2019-08-18T23:40:12Z</time>
      </trkpt>
      <trkpt lat="42.302106" lon="3.284845">
        <ele>44</ele>
        <time>2019-08-18T23:40:13Z</time>
      </trkpt>
      <trkpt lat="42.302084" lon="3.284849">
        <ele>44</ele>
        <time>2019-08-18T23:40:14Z</time>
      </trkpt>
      <trkpt lat="42.302061" lon="3.284852">
        <ele>44</ele>
        <time>2019-08-18T23:40:15Z</time>
      </trkpt>
      <trkpt lat="42.302038" lon="3.284855">
        <ele>44</ele>
        <time>2019-08-18T23:40:16Z</time>
      </trkpt>
      <trkpt lat="42.302016" lon="3.284859">
        <ele>44</ele>
        <time>2019-08-18T23:40:17Z</time>
      </trkpt>
      <trkpt lat="42.301993" lon="3.284862">
        <ele>44</ele>
        <time>2019-08-18T23:40:18Z</time>
      </trkpt>
      <trkpt lat="42.30197" lon="3.284865">
        <ele>44</ele>
        <time>2019-08-18T23:40:19Z</time>
      </trkpt>
      <trkpt lat="42.301947" lon="3.284868">
        <ele>44</ele>
        <time>2019-08-18T23:40:20Z</time>
      </trkpt>
      <trkpt lat="42.301925" lon="3.284872">
        <ele>44</ele>
        <time>2019-08-18T23:40:21Z</time>
      </trkpt>
      <trkpt lat="42.301902" lon="3.284875">
        <ele>44</ele>
        <time>2019-08-18T23:40:22Z</time>
      </trkpt>
      <trkpt lat="42.301851" lon="3.28488">
        <ele>44</ele>
        <time>2019-08-18T23:40:23Z</time>
      </trkpt>
      <trkpt lat="42.301827" lon="3.28488">
        <ele>44</ele>
        <time>2019-08-18T23:40:24Z</time>
      </trkpt>
      <trkpt lat="42.301803" lon="3.284881">
        <ele>44</ele>
        <time>2019-08-18T23:40:25Z</time>
      </trkpt>
      <trkpt lat="42.301779" lon="3.284882">
        <ele>44</ele>
        <time>2019-08-18T23:40:26Z</time>
      </trkpt>
      <trkpt lat="42.301756" lon="3.284883">
        <ele>44</ele>
        <time>2019-08-18T23:40:27Z</time>
      </trkpt>
      <trkpt lat="42.301732" lon="3.284883">
        <ele>44</ele>
        <time>2019-08-18T23:40:28Z</time>
      </trkpt>
      <trkpt lat="42.301708" lon="3.284884">
        <ele>44</ele>
        <time>2019-08-18T23:40:29Z</time>
      </trkpt>
      <trkpt lat="42.301684" lon="3.284885">
        <ele>44</ele>
        <time>2019-08-18T23:40:30Z</time>
      </trkpt>
      <trkpt lat="42.30166" lon="3.284885">
        <ele>44</ele>
        <time>2019-08-18T23:40:31Z</time>
      </trkpt>
      <trkpt lat="42.301636" lon="3.284886">
        <ele>46</ele>
        <time>2019-08-18T23:40:32Z</time>
      </trkpt>
      <trkpt lat="42.301582" lon="3.284885">
        <ele>46</ele>
        <time>2019-08-18T23:40:33Z</time>
      </trkpt>
      <trkpt lat="42.301555" lon="3.284884">
        <ele>46</ele>
        <time>2019-08-18T23:40:34Z</time>
      </trkpt>
      <trkpt lat="42.301528" lon="3.284883">
        <ele>46</ele>
        <time>2019-08-18T23:40:35Z</time>
      </trkpt>
      <trkpt lat="42.301501" lon="3.284882">
        <ele>46</ele>
        <time>2019-08-18T23:40:36Z</time>
      </trkpt>
      <trkpt lat="42.301474" lon="3.28488">
        <ele>46</ele>
        <time>2019-08-18T23:40:37Z</time>
      </trkpt>
      <trkpt lat="42.301446" lon="3.284879">
        <ele>46</ele>
        <time>2019-08-18T23:40:38Z</time>
      </trkpt>
      <trkpt lat="42.301419" lon="3.284878">
        <ele>46</ele>
        <time>2019-08-18T23:40:39Z</time>
      </trkpt>
      <trkpt lat="42.301392" lon="3.284877">
        <ele>46</ele>
        <time>2019-08-18T23:40:40Z</time>
      </trkpt>
      <trkpt lat="42.301365" lon="3.284876">
        <ele>46</ele>
        <time>2019-08-18T23:40:41Z</time>
      </trkpt>
      <trkpt lat="42.301338" lon="3.284875">
        <ele>46</ele>
        <time>2019-08-18T23:40:42Z</time>
      </trkpt>
      <trkpt lat="42.301263" lon="3.284888">
        <ele>46</ele>
        <time>2019-08-18T23:40:43Z</time>
      </trkpt>
      <trkpt lat="42.301222" lon="3.284903">
        <ele>46</ele>
        <time>2019-08-18T23:40:44Z</time>
      </trkpt>
      <trkpt lat="42.30118" lon="3.284917">
        <ele>46</ele>
        <time>2019-08-18T23:40:45Z</time>
      </trkpt>
      <trkpt lat="42.301138" lon="3.284932">
        <ele>46</ele>
        <time>2019-08-18T23:40:46Z</time>
      </trkpt>
      <trkpt lat="42.301097" lon="3.284946">
        <ele>46</ele>
        <time>2019-08-18T23:40:47Z</time>
      </trkpt>
      <trkpt lat="42.301055" lon="3.28496">
        <ele>46</ele>
        <time>2019-08-18T23:40:48Z</time>
      </trkpt>
      <trkpt lat="42.301013" lon="3.284975">
        <ele>46</ele>
        <time>2019-08-18T23:40:49Z</time>
      </trkpt>
      <trkpt lat="42.300971" lon="3.284989">
        <ele>46</ele>
        <time>2019-08-18T23:40:50Z</time>
      </trkpt>
      <trkpt lat="42.30093" lon="3.285004">
        <ele>46</ele>
        <time>2019-08-18T23:40:51Z</time>
      </trkpt>
      <trkpt lat="42.300888" lon="3.285018">
        <ele>46</ele>
        <time>2019-08-18T23:40:52Z</time>
      </trkpt>
      <trkpt lat="42.300801" lon="3.285091">
        <ele>46</ele>
        <time>2019-08-18T23:40:53Z</time>
      </trkpt>
      <trkpt lat="42.300759" lon="3.285127">
        <ele>46</ele>
        <time>2019-08-18T23:40:54Z</time>
      </trkpt>
      <trkpt lat="42.300717" lon="3.285162">
        <ele>46</ele>
        <time>2019-08-18T23:40:55Z</time>
      </trkpt>
      <trkpt lat="42.300675" lon="3.285198">
        <ele>46</ele>
        <time>2019-08-18T23:40:56Z</time>
      </trkpt>
      <trkpt lat="42.300634" lon="3.285233">
        <ele>46</ele>
        <time>2019-08-18T23:40:57Z</time>
      </trkpt>
      <trkpt lat="42.300592" lon="3.285268">
        <ele>46</ele>
        <time>2019-08-18T23:40:58Z</time>
      </trkpt>
      <trkpt lat="42.30055" lon="3.285304">
        <ele>46</ele>
        <time>2019-08-18T23:40:59Z</time>
      </trkpt>
      <trkpt lat="42.300508" lon="3.285339">
        <ele>46</ele>
        <time>2019-08-18T23:41:00Z</time>
      </trkpt>
      <trkpt lat="42.300466" lon="3.285375">
        <ele>46</ele>
        <time>2019-08-18T23:41:01Z</time>
      </trkpt>
      <trkpt lat="42.300424" lon="3.28541">
        <ele>45</ele>
        <time>2019-08-18T23:41:02Z</time>
      </trkpt>
      <trkpt lat="42.300317" lon="3.285497">
        <ele>45</ele>
        <time>2019-08-18T23:41:03Z</time>
      </trkpt>
      <trkpt lat="42.300263" lon="3.285544">
        <ele>45</ele>
        <time>2019-08-18T23:41:04Z</time>
      </trkpt>
      <trkpt lat="42.30021" lon="3.285592">
        <ele>45</ele>
        <time>2019-08-18T23:41:05Z</time>
      </trkpt>
      <trkpt lat="42.300156" lon="3.285639">
        <ele>45</ele>
        <time>2019-08-18T23:41:06Z</time>
      </trkpt>
      <trkpt lat="42.300102" lon="3.285686">
        <ele>45</ele>
        <time>2019-08-18T23:41:07Z</time>
      </trkpt>
      <trkpt lat="42.300048" lon="3.285733">
        <ele>45</ele>
        <time>2019-08-18T23:41:08Z</time>
      </trkpt>
      <trkpt lat="42.299994" lon="3.28578">
        <ele>45</ele>
        <time>2019-08-18T23:41:09Z</time>
      </trkpt>
      <trkpt lat="42.299941" lon="3.285828">
        <ele>45</ele>
        <time>2019-08-18T23:41:10Z</time>
      </trkpt>
      <trkpt lat="42.299887" lon="3.285875">
        <ele>45</ele>
        <time>2019-08-18T23:41:11Z</time>
      </trkpt>
      <trkpt lat="42.299833" lon="3.285922">
        <ele>39</ele>
        <time>2019-08-18T23:41:12Z</time>
      </trkpt>
      <trkpt lat="42.299707" lon="3.285979">
        <ele>39</ele>
        <time>2019-08-18T23:41:13Z</time>
      </trkpt>
      <trkpt lat="42.299646" lon="3.285983">
        <ele>39</ele>
        <time>2019-08-18T23:41:14Z</time>
      </trkpt>
      <trkpt lat="42.299585" lon="3.285988">
        <ele>39</ele>
        <time>2019-08-18T23:41:16Z</time>
      </trkpt>
      <trkpt lat="42.299524" lon="3.285992">
        <ele>39</ele>
        <time>2019-08-18T23:41:17Z</time>
      </trkpt>
      <trkpt lat="42.299464" lon="3.285996">
        <ele>39</ele>
        <time>2019-08-18T23:41:18Z</time>
      </trkpt>
      <trkpt lat="42.299403" lon="3.286">
        <ele>39</ele>
        <time>2019-08-18T23:41:19Z</time>
      </trkpt>
      <trkpt lat="42.299342" lon="3.286005">
        <ele>39</ele>
        <time>2019-08-18T23:41:20Z</time>
      </trkpt>
      <trkpt lat="42.299281" lon="3.286009">
        <ele>39</ele>
        <time>2019-08-18T23:41:21Z</time>
      </trkpt>
      <trkpt lat="42.29922" lon="3.286013">
        <ele>33</ele>
        <time>2019-08-18T23:41:22Z</time>
      </trkpt>
      <trkpt lat="42.299154" lon="3.285865">
        <ele>33</ele>
        <time>2019-08-18T23:41:23Z</time>
      </trkpt>
      <trkpt lat="42.299131" lon="3.285774">
        <ele>33</ele>
        <time>2019-08-18T23:41:24Z</time>
      </trkpt>
      <trkpt lat="42.299107" lon="3.285684">
        <ele>33</ele>
        <time>2019-08-18T23:41:25Z</time>
      </trkpt>
      <trkpt lat="42.299084" lon="3.285593">
        <ele>33</ele>
        <time>2019-08-18T23:41:26Z</time>
      </trkpt>
      <trkpt lat="42.299061" lon="3.285502">
        <ele>33</ele>
        <time>2019-08-18T23:41:27Z</time>
      </trkpt>
      <trkpt lat="42.299038" lon="3.285411">
        <ele>33</ele>
        <time>2019-08-18T23:41:28Z</time>
      </trkpt>
      <trkpt lat="42.299015" lon="3.28532">
        <ele>33</ele>
        <time>2019-08-18T23:41:29Z</time>
      </trkpt>
      <trkpt lat="42.298991" lon="3.28523">
        <ele>33</ele>
        <time>2019-08-18T23:41:30Z</time>
      </trkpt>
      <trkpt lat="42.298968" lon="3.285139">
        <ele>33</ele>
        <time>2019-08-18T23:41:31Z</time>
      </trkpt>
      <trkpt lat="42.298945" lon="3.285048">
        <ele>29</ele>
        <time>2019-08-18T23:41:32Z</time>
      </trkpt>
      <trkpt lat="42.298923" lon="3.284924">
        <ele>29</ele>
        <time>2019-08-18T23:41:33Z</time>
      </trkpt>
      <trkpt lat="42.298901" lon="3.284791">
        <ele>29</ele>
        <time>2019-08-18T23:41:34Z</time>
      </trkpt>
      <trkpt lat="42.298876" lon="3.284656">
        <ele>29</ele>
        <time>2019-08-18T23:41:35Z</time>
      </trkpt>
      <trkpt lat="42.298848" lon="3.284518">
        <ele>29</ele>
        <time>2019-08-18T23:41:36Z</time>
      </trkpt>
      <trkpt lat="42.298818" lon="3.28438">
        <ele>29</ele>
        <time>2019-08-18T23:41:37Z</time>
      </trkpt>
      <trkpt lat="42.29879" lon="3.284239">
        <ele>29</ele>
        <time>2019-08-18T23:41:38Z</time>
      </trkpt>
      <trkpt lat="42.29876" lon="3.2841">
        <ele>29</ele>
        <time>2019-08-18T23:41:39Z</time>
      </trkpt>
      <trkpt lat="42.29873" lon="3.283964">
        <ele>29</ele>
        <time>2019-08-18T23:41:40Z</time>
      </trkpt>
      <trkpt lat="42.298694" lon="3.283768">
        <ele>29</ele>
        <time>2019-08-18T23:41:41Z</time>
      </trkpt>
      <trkpt lat="42.298682" lon="3.283707">
        <ele>20</ele>
        <time>2019-08-18T23:41:42Z</time>
      </trkpt>
      <trkpt lat="42.298627" lon="3.28351">
        <ele>20</ele>
        <time>2019-08-18T23:41:43Z</time>
      </trkpt>
      <trkpt lat="42.298596" lon="3.283435">
        <ele>20</ele>
        <time>2019-08-18T23:41:44Z</time>
      </trkpt>
      <trkpt lat="42.298565" lon="3.283361">
        <ele>20</ele>
        <time>2019-08-18T23:41:45Z</time>
      </trkpt>
      <trkpt lat="42.298534" lon="3.283287">
        <ele>20</ele>
        <time>2019-08-18T23:41:46Z</time>
      </trkpt>
      <trkpt lat="42.298503" lon="3.283212">
        <ele>20</ele>
        <time>2019-08-18T23:41:47Z</time>
      </trkpt>
      <trkpt lat="42.298472" lon="3.283138">
        <ele>20</ele>
        <time>2019-08-18T23:41:48Z</time>
      </trkpt>
      <trkpt lat="42.298441" lon="3.283064">
        <ele>20</ele>
        <time>2019-08-18T23:41:49Z</time>
      </trkpt>
      <trkpt lat="42.29841" lon="3.28299">
        <ele>20</ele>
        <time>2019-08-18T23:41:50Z</time>
      </trkpt>
      <trkpt lat="42.298379" lon="3.282915">
        <ele>20</ele>
        <time>2019-08-18T23:41:51Z</time>
      </trkpt>
      <trkpt lat="42.298348" lon="3.282841">
        <ele>20</ele>
        <time>2019-08-18T23:41:52Z</time>
      </trkpt>
      <trkpt lat="42.298288" lon="3.282762">
        <ele>20</ele>
        <time>2019-08-18T23:41:53Z</time>
      </trkpt>
      <trkpt lat="42.298267" lon="3.282739">
        <ele>20</ele>
        <time>2019-08-18T23:41:54Z</time>
      </trkpt>
      <trkpt lat="42.298246" lon="3.282715">
        <ele>20</ele>
        <time>2019-08-18T23:41:55Z</time>
      </trkpt>
      <trkpt lat="42.298225" lon="3.282692">
        <ele>20</ele>
        <time>2019-08-18T23:41:56Z</time>
      </trkpt>
      <trkpt lat="42.298205" lon="3.282668">
        <ele>20</ele>
        <time>2019-08-18T23:41:57Z</time>
      </trkpt>
      <trkpt lat="42.298184" lon="3.282645">
        <ele>20</ele>
        <time>2019-08-18T23:41:58Z</time>
      </trkpt>
      <trkpt lat="42.298163" lon="3.282621">
        <ele>20</ele>
        <time>2019-08-18T23:41:59Z</time>
      </trkpt>
      <trkpt lat="42.298142" lon="3.282598">
        <ele>20</ele>
        <time>2019-08-18T23:42:00Z</time>
      </trkpt>
      <trkpt lat="42.298121" lon="3.282574">
        <ele>20</ele>
        <time>2019-08-18T23:42:01Z</time>
      </trkpt>
      <trkpt lat="42.2981" lon="3.282551">
        <ele>21</ele>
        <time>2019-08-18T23:42:02Z</time>
      </trkpt>
      <trkpt lat="42.298061" lon="3.282526">
        <ele>21</ele>
        <time>2019-08-18T23:42:03Z</time>
      </trkpt>
      <trkpt lat="42.298043" lon="3.282517">
        <ele>21</ele>
        <time>2019-08-18T23:42:04Z</time>
      </trkpt>
      <trkpt lat="42.298024" lon="3.282507">
        <ele>21</ele>
        <time>2019-08-18T23:42:05Z</time>
      </trkpt>
      <trkpt lat="42.298006" lon="3.282498">
        <ele>21</ele>
        <time>2019-08-18T23:42:06Z</time>
      </trkpt>
      <trkpt lat="42.297987" lon="3.282488">
        <ele>21</ele>
        <time>2019-08-18T23:42:07Z</time>
      </trkpt>
      <trkpt lat="42.297968" lon="3.282479">
        <ele>21</ele>
        <time>2019-08-18T23:42:08Z</time>
      </trkpt>
      <trkpt lat="42.29795" lon="3.282469">
        <ele>21</ele>
        <time>2019-08-18T23:42:09Z</time>
      </trkpt>
      <trkpt lat="42.297931" lon="3.28246">
        <ele>21</ele>
        <time>2019-08-18T23:42:10Z</time>
      </trkpt>
      <trkpt lat="42.297913" lon="3.28245">
        <ele>21</ele>
        <time>2019-08-18T23:42:11Z</time>
      </trkpt>
      <trkpt lat="42.297894" lon="3.282441">
        <ele>23</ele>
        <time>2019-08-18T23:42:12Z</time>
      </trkpt>
      <trkpt lat="42.297852" lon="3.282439">
        <ele>23</ele>
        <time>2019-08-18T23:42:13Z</time>
      </trkpt>
      <trkpt lat="42.297832" lon="3.28244">
        <ele>23</ele>
        <time>2019-08-18T23:42:14Z</time>
      </trkpt>
      <trkpt lat="42.297813" lon="3.282441">
        <ele>23</ele>
        <time>2019-08-18T23:42:15Z</time>
      </trkpt>
      <trkpt lat="42.297793" lon="3.282442">
        <ele>23</ele>
        <time>2019-08-18T23:42:16Z</time>
      </trkpt>
      <trkpt lat="42.297774" lon="3.282443">
        <ele>23</ele>
        <time>2019-08-18T23:42:17Z</time>
      </trkpt>
      <trkpt lat="42.297755" lon="3.282443">
        <ele>23</ele>
        <time>2019-08-18T23:42:18Z</time>
      </trkpt>
      <trkpt lat="42.297735" lon="3.282444">
        <ele>23</ele>
        <time>2019-08-18T23:42:19Z</time>
      </trkpt>
      <trkpt lat="42.297716" lon="3.282445">
        <ele>23</ele>
        <time>2019-08-18T23:42:20Z</time>
      </trkpt>
      <trkpt lat="42.297696" lon="3.282446">
        <ele>23</ele>
        <time>2019-08-18T23:42:21Z</time>
      </trkpt>
      <trkpt lat="42.297677" lon="3.282447">
        <ele>24</ele>
        <time>2019-08-18T23:42:22Z</time>
      </trkpt>
      <trkpt lat="42.297634" lon="3.282459">
        <ele>24</ele>
        <time>2019-08-18T23:42:23Z</time>
      </trkpt>
      <trkpt lat="42.297613" lon="3.282465">
        <ele>24</ele>
        <time>2019-08-18T23:42:24Z</time>
      </trkpt>
      <trkpt lat="42.297593" lon="3.282472">
        <ele>24</ele>
        <time>2019-08-18T23:42:25Z</time>
      </trkpt>
      <trkpt lat="42.297573" lon="3.282479">
        <ele>24</ele>
        <time>2019-08-18T23:42:26Z</time>
      </trkpt>
      <trkpt lat="42.297553" lon="3.282485">
        <ele>24</ele>
        <time>2019-08-18T23:42:27Z</time>
      </trkpt>
      <trkpt lat="42.297532" lon="3.282492">
        <ele>24</ele>
        <time>2019-08-18T23:42:28Z</time>
      </trkpt>
      <trkpt lat="42.297512" lon="3.282498">
        <ele>24</ele>
        <time>2019-08-18T23:42:29Z</time>
      </trkpt>
      <trkpt lat="42.297492" lon="3.282505">
        <ele>24</ele>
        <time>2019-08-18T23:42:30Z</time>
      </trkpt>
      <trkpt lat="42.297472" lon="3.282512">
        <ele>24</ele>
        <time>2019-08-18T23:42:31Z</time>
      </trkpt>
      <trkpt lat="42.297451" lon="3.282518">
        <ele>24</ele>
        <time>2019-08-18T23:42:32Z</time>
      </trkpt>
      <trkpt lat="42.297431" lon="3.282525">
        <ele>28</ele>
        <time>2019-08-18T23:42:33Z</time>
      </trkpt>
      <trkpt lat="42.297389" lon="3.282548">
        <ele>28</ele>
        <time>2019-08-18T23:42:34Z</time>
      </trkpt>
      <trkpt lat="42.297368" lon="3.282559">
        <ele>28</ele>
        <time>2019-08-18T23:42:35Z</time>
      </trkpt>
      <trkpt lat="42.297348" lon="3.282571">
        <ele>28</ele>
        <time>2019-08-18T23:42:36Z</time>
      </trkpt>
      <trkpt lat="42.297328" lon="3.282583">
        <ele>28</ele>
        <time>2019-08-18T23:42:37Z</time>
      </trkpt>
      <trkpt lat="42.297307" lon="3.282594">
        <ele>28</ele>
        <time>2019-08-18T23:42:38Z</time>
      </trkpt>
      <trkpt lat="42.297287" lon="3.282606">
        <ele>28</ele>
        <time>2019-08-18T23:42:39Z</time>
      </trkpt>
      <trkpt lat="42.297267" lon="3.282618">
        <ele>28</ele>
        <time>2019-08-18T23:42:40Z</time>
      </trkpt>
      <trkpt lat="42.297246" lon="3.282629">
        <ele>28</ele>
        <time>2019-08-18T23:42:41Z</time>
      </trkpt>
      <trkpt lat="42.297226" lon="3.282641">
        <ele>31</ele>
        <time>2019-08-18T23:42:42Z</time>
      </trkpt>
      <trkpt lat="42.297182" lon="3.282669">
        <ele>31</ele>
        <time>2019-08-18T23:42:43Z</time>
      </trkpt>
      <trkpt lat="42.297161" lon="3.282682">
        <ele>31</ele>
        <time>2019-08-18T23:42:44Z</time>
      </trkpt>
      <trkpt lat="42.297139" lon="3.282696">
        <ele>31</ele>
        <time>2019-08-18T23:42:45Z</time>
      </trkpt>
      <trkpt lat="42.297118" lon="3.282709">
        <ele>31</ele>
        <time>2019-08-18T23:42:46Z</time>
      </trkpt>
      <trkpt lat="42.297097" lon="3.282722">
        <ele>31</ele>
        <time>2019-08-18T23:42:47Z</time>
      </trkpt>
      <trkpt lat="42.297076" lon="3.282735">
        <ele>31</ele>
        <time>2019-08-18T23:42:48Z</time>
      </trkpt>
      <trkpt lat="42.297055" lon="3.282748">
        <ele>31</ele>
        <time>2019-08-18T23:42:49Z</time>
      </trkpt>
      <trkpt lat="42.297033" lon="3.282762">
        <ele>31</ele>
        <time>2019-08-18T23:42:50Z</time>
      </trkpt>
      <trkpt lat="42.297012" lon="3.282775">
        <ele>31</ele>
        <time>2019-08-18T23:42:51Z</time>
      </trkpt>
      <trkpt lat="42.296991" lon="3.282788">
        <ele>31</ele>
        <time>2019-08-18T23:42:52Z</time>
      </trkpt>
      <trkpt lat="42.29694" lon="3.282818">
        <ele>31</ele>
        <time>2019-08-18T23:42:53Z</time>
      </trkpt>
      <trkpt lat="42.296914" lon="3.282834">
        <ele>31</ele>
        <time>2019-08-18T23:42:54Z</time>
      </trkpt>
      <trkpt lat="42.296888" lon="3.282849">
        <ele>31</ele>
        <time>2019-08-18T23:42:55Z</time>
      </trkpt>
      <trkpt lat="42.296862" lon="3.282865">
        <ele>31</ele>
        <time>2019-08-18T23:42:56Z</time>
      </trkpt>
      <trkpt lat="42.296837" lon="3.282881">
        <ele>31</ele>
        <time>2019-08-18T23:42:57Z</time>
      </trkpt>
      <trkpt lat="42.296811" lon="3.282897">
        <ele>31</ele>
        <time>2019-08-18T23:42:58Z</time>
      </trkpt>
      <trkpt lat="42.296785" lon="3.282913">
        <ele>31</ele>
        <time>2019-08-18T23:42:59Z</time>
      </trkpt>
      <trkpt lat="42.296759" lon="3.282928">
        <ele>31</ele>
        <time>2019-08-18T23:43:00Z</time>
      </trkpt>
      <trkpt lat="42.296733" lon="3.282944">
        <ele>31</ele>
        <time>2019-08-18T23:43:01Z</time>
      </trkpt>
      <trkpt lat="42.296707" lon="3.28296">
        <ele>32</ele>
        <time>2019-08-18T23:43:02Z</time>
      </trkpt>
      <trkpt lat="42.296627" lon="3.282988">
        <ele>32</ele>
        <time>2019-08-18T23:43:03Z</time>
      </trkpt>
      <trkpt lat="42.296583" lon="3.282996">
        <ele>32</ele>
        <time>2019-08-18T23:43:04Z</time>
      </trkpt>
      <trkpt lat="42.296539" lon="3.283004">
        <ele>32</ele>
        <time>2019-08-18T23:43:05Z</time>
      </trkpt>
      <trkpt lat="42.296495" lon="3.283012">
        <ele>32</ele>
        <time>2019-08-18T23:43:06Z</time>
      </trkpt>
      <trkpt lat="42.296452" lon="3.28302">
        <ele>32</ele>
        <time>2019-08-18T23:43:07Z</time>
      </trkpt>
      <trkpt lat="42.296408" lon="3.283028">
        <ele>32</ele>
        <time>2019-08-18T23:43:08Z</time>
      </trkpt>
      <trkpt lat="42.296364" lon="3.283036">
        <ele>32</ele>
        <time>2019-08-18T23:43:09Z</time>
      </trkpt>
      <trkpt lat="42.29632" lon="3.283044">
        <ele>32</ele>
        <time>2019-08-18T23:43:10Z</time>
      </trkpt>
      <trkpt lat="42.296276" lon="3.283052">
        <ele>32</ele>
        <time>2019-08-18T23:43:11Z</time>
      </trkpt>
      <trkpt lat="42.296232" lon="3.28306">
        <ele>33</ele>
        <time>2019-08-18T23:43:12Z</time>
      </trkpt>
      <trkpt lat="42.296139" lon="3.28304">
        <ele>33</ele>
        <time>2019-08-18T23:43:13Z</time>
      </trkpt>
      <trkpt lat="42.296101" lon="3.283029">
        <ele>33</ele>
        <time>2019-08-18T23:43:14Z</time>
      </trkpt>
      <trkpt lat="42.296063" lon="3.283017">
        <ele>33</ele>
        <time>2019-08-18T23:43:15Z</time>
      </trkpt>
      <trkpt lat="42.296025" lon="3.283005">
        <ele>33</ele>
        <time>2019-08-18T23:43:16Z</time>
      </trkpt>
      <trkpt lat="42.295988" lon="3.282993">
        <ele>33</ele>
        <time>2019-08-18T23:43:17Z</time>
      </trkpt>
      <trkpt lat="42.29595" lon="3.282982">
        <ele>33</ele>
        <time>2019-08-18T23:43:18Z</time>
      </trkpt>
      <trkpt lat="42.295912" lon="3.28297">
        <ele>33</ele>
        <time>2019-08-18T23:43:19Z</time>
      </trkpt>
      <trkpt lat="42.295874" lon="3.282958">
        <ele>33</ele>
        <time>2019-08-18T23:43:20Z</time>
      </trkpt>
      <trkpt lat="42.295836" lon="3.282947">
        <ele>33</ele>
        <time>2019-08-18T23:43:21Z</time>
      </trkpt>
      <trkpt lat="42.295798" lon="3.282935">
        <ele>32</ele>
        <time>2019-08-18T23:43:22Z</time>
      </trkpt>
      <trkpt lat="42.295746" lon="3.282915">
        <ele>32</ele>
        <time>2019-08-18T23:43:23Z</time>
      </trkpt>
      <trkpt lat="42.295723" lon="3.282905">
        <ele>32</ele>
        <time>2019-08-18T23:43:24Z</time>
      </trkpt>
      <trkpt lat="42.295701" lon="3.282896">
        <ele>32</ele>
        <time>2019-08-18T23:43:25Z</time>
      </trkpt>
      <trkpt lat="42.295678" lon="3.282886">
        <ele>32</ele>
        <time>2019-08-18T23:43:26Z</time>
      </trkpt>
      <trkpt lat="42.295656" lon="3.282877">
        <ele>32</ele>
        <time>2019-08-18T23:43:27Z</time>
      </trkpt>
      <trkpt lat="42.295634" lon="3.282868">
        <ele>32</ele>
        <time>2019-08-18T23:43:28Z</time>
      </trkpt>
      <trkpt lat="42.295611" lon="3.282858">
        <ele>32</ele>
        <time>2019-08-18T23:43:29Z</time>
      </trkpt>
      <trkpt lat="42.295589" lon="3.282849">
        <ele>32</ele>
        <time>2019-08-18T23:43:30Z</time>
      </trkpt>
      <trkpt lat="42.295566" lon="3.282839">
        <ele>32</ele>
        <time>2019-08-18T23:43:31Z</time>
      </trkpt>
      <trkpt lat="42.295544" lon="3.28283">
        <ele>33</ele>
        <time>2019-08-18T23:43:32Z</time>
      </trkpt>
      <trkpt lat="42.295504" lon="3.282797">
        <ele>33</ele>
        <time>2019-08-18T23:43:33Z</time>
      </trkpt>
      <trkpt lat="42.295484" lon="3.282776">
        <ele>33</ele>
        <time>2019-08-18T23:43:34Z</time>
      </trkpt>
      <trkpt lat="42.295464" lon="3.282754">
        <ele>33</ele>
        <time>2019-08-18T23:43:35Z</time>
      </trkpt>
      <trkpt lat="42.295444" lon="3.282733">
        <ele>33</ele>
        <time>2019-08-18T23:43:36Z</time>
      </trkpt>
      <trkpt lat="42.295424" lon="3.282712">
        <ele>33</ele>
        <time>2019-08-18T23:43:37Z</time>
      </trkpt>
      <trkpt lat="42.295403" lon="3.282691">
        <ele>33</ele>
        <time>2019-08-18T23:43:38Z</time>
      </trkpt>
      <trkpt lat="42.295383" lon="3.28267">
        <ele>33</ele>
        <time>2019-08-18T23:43:39Z</time>
      </trkpt>
      <trkpt lat="42.295363" lon="3.282648">
        <ele>33</ele>
        <time>2019-08-18T23:43:40Z</time>
      </trkpt>
      <trkpt lat="42.295343" lon="3.282627">
        <ele>33</ele>
        <time>2019-08-18T23:43:41Z</time>
      </trkpt>
      <trkpt lat="42.295323" lon="3.282606">
        <ele>37</ele>
        <time>2019-08-18T23:43:42Z</time>
      </trkpt>
      <trkpt lat="42.295291" lon="3.282537">
        <ele>37</ele>
        <time>2019-08-18T23:43:43Z</time>
      </trkpt>
      <trkpt lat="42.295278" lon="3.2825">
        <ele>37</ele>
        <time>2019-08-18T23:43:44Z</time>
      </trkpt>
      <trkpt lat="42.295266" lon="3.282464">
        <ele>37</ele>
        <time>2019-08-18T23:43:45Z</time>
      </trkpt>
      <trkpt lat="42.295253" lon="3.282427">
        <ele>37</ele>
        <time>2019-08-18T23:43:46Z</time>
      </trkpt>
      <trkpt lat="42.295241" lon="3.28239">
        <ele>37</ele>
        <time>2019-08-18T23:43:48Z</time>
      </trkpt>
      <trkpt lat="42.295228" lon="3.282353">
        <ele>37</ele>
        <time>2019-08-18T23:43:49Z</time>
      </trkpt>
      <trkpt lat="42.295216" lon="3.282317">
        <ele>37</ele>
        <time>2019-08-18T23:43:50Z</time>
      </trkpt>
      <trkpt lat="42.295203" lon="3.28228">
        <ele>37</ele>
        <time>2019-08-18T23:43:51Z</time>
      </trkpt>
      <trkpt lat="42.295191" lon="3.282243">
        <ele>36</ele>
        <time>2019-08-18T23:43:52Z</time>
      </trkpt>
      <trkpt lat="42.295159" lon="3.282185">
        <ele>36</ele>
        <time>2019-08-18T23:43:53Z</time>
      </trkpt>
      <trkpt lat="42.295143" lon="3.282164">
        <ele>36</ele>
        <time>2019-08-18T23:43:54Z</time>
      </trkpt>
      <trkpt lat="42.295128" lon="3.282142">
        <ele>36</ele>
        <time>2019-08-18T23:43:55Z</time>
      </trkpt>
      <trkpt lat="42.295113" lon="3.282121">
        <ele>36</ele>
        <time>2019-08-18T23:43:56Z</time>
      </trkpt>
      <trkpt lat="42.295098" lon="3.2821">
        <ele>36</ele>
        <time>2019-08-18T23:43:57Z</time>
      </trkpt>
      <trkpt lat="42.295082" lon="3.282079">
        <ele>36</ele>
        <time>2019-08-18T23:43:58Z</time>
      </trkpt>
      <trkpt lat="42.295067" lon="3.282058">
        <ele>36</ele>
        <time>2019-08-18T23:43:59Z</time>
      </trkpt>
      <trkpt lat="42.295052" lon="3.282036">
        <ele>36</ele>
        <time>2019-08-18T23:44:00Z</time>
      </trkpt>
      <trkpt lat="42.295036" lon="3.282015">
        <ele>36</ele>
        <time>2019-08-18T23:44:01Z</time>
      </trkpt>
      <trkpt lat="42.295021" lon="3.281994">
        <ele>37</ele>
        <time>2019-08-18T23:44:02Z</time>
      </trkpt>
      <trkpt lat="42.294992" lon="3.281958">
        <ele>37</ele>
        <time>2019-08-18T23:44:03Z</time>
      </trkpt>
      <trkpt lat="42.294979" lon="3.281941">
        <ele>37</ele>
        <time>2019-08-18T23:44:04Z</time>
      </trkpt>
      <trkpt lat="42.294966" lon="3.281923">
        <ele>37</ele>
        <time>2019-08-18T23:44:05Z</time>
      </trkpt>
      <trkpt lat="42.294953" lon="3.281906">
        <ele>37</ele>
        <time>2019-08-18T23:44:06Z</time>
      </trkpt>
      <trkpt lat="42.29494" lon="3.281888">
        <ele>37</ele>
        <time>2019-08-18T23:44:07Z</time>
      </trkpt>
      <trkpt lat="42.294927" lon="3.281871">
        <ele>37</ele>
        <time>2019-08-18T23:44:08Z</time>
      </trkpt>
      <trkpt lat="42.294914" lon="3.281853">
        <ele>37</ele>
        <time>2019-08-18T23:44:09Z</time>
      </trkpt>
      <trkpt lat="42.294901" lon="3.281836">
        <ele>37</ele>
        <time>2019-08-18T23:44:10Z</time>
      </trkpt>
      <trkpt lat="42.294888" lon="3.281818">
        <ele>37</ele>
        <time>2019-08-18T23:44:11Z</time>
      </trkpt>
      <trkpt lat="42.294875" lon="3.281801">
        <ele>38</ele>
        <time>2019-08-18T23:44:12Z</time>
      </trkpt>
      <trkpt lat="42.294857" lon="3.281755">
        <ele>38</ele>
        <time>2019-08-18T23:44:13Z</time>
      </trkpt>
      <trkpt lat="42.29485" lon="3.281733">
        <ele>38</ele>
        <time>2019-08-18T23:44:14Z</time>
      </trkpt>
      <trkpt lat="42.294842" lon="3.281712">
        <ele>38</ele>
        <time>2019-08-18T23:44:15Z</time>
      </trkpt>
      <trkpt lat="42.294835" lon="3.28169">
        <ele>38</ele>
        <time>2019-08-18T23:44:16Z</time>
      </trkpt>
      <trkpt lat="42.294827" lon="3.281668">
        <ele>38</ele>
        <time>2019-08-18T23:44:17Z</time>
      </trkpt>
      <trkpt lat="42.294819" lon="3.281646">
        <ele>38</ele>
        <time>2019-08-18T23:44:18Z</time>
      </trkpt>
      <trkpt lat="42.294812" lon="3.281624">
        <ele>38</ele>
        <time>2019-08-18T23:44:19Z</time>
      </trkpt>
      <trkpt lat="42.294804" lon="3.281603">
        <ele>38</ele>
        <time>2019-08-18T23:44:20Z</time>
      </trkpt>
      <trkpt lat="42.294797" lon="3.281581">
        <ele>38</ele>
        <time>2019-08-18T23:44:21Z</time>
      </trkpt>
      <trkpt lat="42.294789" lon="3.281559">
        <ele>40</ele>
        <time>2019-08-18T23:44:22Z</time>
      </trkpt>
      <trkpt lat="42.294777" lon="3.281513">
        <ele>40</ele>
        <time>2019-08-18T23:44:23Z</time>
      </trkpt>
      <trkpt lat="42.29477" lon="3.281492">
        <ele>40</ele>
        <time>2019-08-18T23:44:24Z</time>
      </trkpt>
      <trkpt lat="42.294762" lon="3.281472">
        <ele>40</ele>
        <time>2019-08-18T23:44:25Z</time>
      </trkpt>
      <trkpt lat="42.294754" lon="3.281451">
        <ele>40</ele>
        <time>2019-08-18T23:44:26Z</time>
      </trkpt>
      <trkpt lat="42.294747" lon="3.281431">
        <ele>40</ele>
        <time>2019-08-18T23:44:27Z</time>
      </trkpt>
      <trkpt lat="42.294739" lon="3.281411">
        <ele>40</ele>
        <time>2019-08-18T23:44:28Z</time>
      </trkpt>
      <trkpt lat="42.294731" lon="3.28139">
        <ele>40</ele>
        <time>2019-08-18T23:44:29Z</time>
      </trkpt>
      <trkpt lat="42.294723" lon="3.28137">
        <ele>40</ele>
        <time>2019-08-18T23:44:30Z</time>
      </trkpt>
      <trkpt lat="42.294716" lon="3.281349">
        <ele>40</ele>
        <time>2019-08-18T23:44:31Z</time>
      </trkpt>
      <trkpt lat="42.294708" lon="3.281329">
        <ele>44</ele>
        <time>2019-08-18T23:44:32Z</time>
      </trkpt>
      <trkpt lat="42.294685" lon="3.281289">
        <ele>44</ele>
        <time>2019-08-18T23:44:33Z</time>
      </trkpt>
      <trkpt lat="42.294672" lon="3.28127">
        <ele>44</ele>
        <time>2019-08-18T23:44:34Z</time>
      </trkpt>
      <trkpt lat="42.29466" lon="3.281252">
        <ele>44</ele>
        <time>2019-08-18T23:44:35Z</time>
      </trkpt>
      <trkpt lat="42.294647" lon="3.281233">
        <ele>44</ele>
        <time>2019-08-18T23:44:36Z</time>
      </trkpt>
      <trkpt lat="42.294635" lon="3.281214">
        <ele>44</ele>
        <time>2019-08-18T23:44:37Z</time>
      </trkpt>
      <trkpt lat="42.294622" lon="3.281195">
        <ele>44</ele>
        <time>2019-08-18T23:44:38Z</time>
      </trkpt>
      <trkpt lat="42.29461" lon="3.281176">
        <ele>44</ele>
        <time>2019-08-18T23:44:39Z</time>
      </trkpt>
      <trkpt lat="42.294597" lon="3.281158">
        <ele>44</ele>
        <time>2019-08-18T23:44:40Z</time>
      </trkpt>
      <trkpt lat="42.294585" lon="3.281139">
        <ele>44</ele>
        <time>2019-08-18T23:44:41Z</time>
      </trkpt>
      <trkpt lat="42.294572" lon="3.28112">
        <ele>46</ele>
        <time>2019-08-18T23:44:42Z</time>
      </trkpt>
      <trkpt lat="42.294536" lon="3.281096">
        <ele>46</ele>
        <time>2019-08-18T23:44:43Z</time>
      </trkpt>
      <trkpt lat="42.294517" lon="3.281086">
        <ele>46</ele>
        <time>2019-08-18T23:44:44Z</time>
      </trkpt>
      <trkpt lat="42.294499" lon="3.281076">
        <ele>46</ele>
        <time>2019-08-18T23:44:45Z</time>
      </trkpt>
      <trkpt lat="42.294481" lon="3.281066">
        <ele>46</ele>
        <time>2019-08-18T23:44:46Z</time>
      </trkpt>
      <trkpt lat="42.294463" lon="3.281055">
        <ele>46</ele>
        <time>2019-08-18T23:44:47Z</time>
      </trkpt>
      <trkpt lat="42.294444" lon="3.281045">
        <ele>46</ele>
        <time>2019-08-18T23:44:48Z</time>
      </trkpt>
      <trkpt lat="42.294426" lon="3.281035">
        <ele>46</ele>
        <time>2019-08-18T23:44:49Z</time>
      </trkpt>
      <trkpt lat="42.294408" lon="3.281025">
        <ele>46</ele>
        <time>2019-08-18T23:44:50Z</time>
      </trkpt>
      <trkpt lat="42.294389" lon="3.281015">
        <ele>46</ele>
        <time>2019-08-18T23:44:51Z</time>
      </trkpt>
      <trkpt lat="42.294371" lon="3.281005">
        <ele>47</ele>
        <time>2019-08-18T23:44:52Z</time>
      </trkpt>
      <trkpt lat="42.294329" lon="3.280993">
        <ele>47</ele>
        <time>2019-08-18T23:44:53Z</time>
      </trkpt>
      <trkpt lat="42.294308" lon="3.280989">
        <ele>47</ele>
        <time>2019-08-18T23:44:54Z</time>
      </trkpt>
      <trkpt lat="42.294287" lon="3.280984">
        <ele>47</ele>
        <time>2019-08-18T23:44:55Z</time>
      </trkpt>
      <trkpt lat="42.294266" lon="3.28098">
        <ele>47</ele>
        <time>2019-08-18T23:44:56Z</time>
      </trkpt>
      <trkpt lat="42.294246" lon="3.280975">
        <ele>47</ele>
        <time>2019-08-18T23:44:57Z</time>
      </trkpt>
      <trkpt lat="42.294225" lon="3.280971">
        <ele>47</ele>
        <time>2019-08-18T23:44:58Z</time>
      </trkpt>
      <trkpt lat="42.294204" lon="3.280966">
        <ele>47</ele>
        <time>2019-08-18T23:44:59Z</time>
      </trkpt>
      <trkpt lat="42.294183" lon="3.280962">
        <ele>47</ele>
        <time>2019-08-18T23:45:00Z</time>
      </trkpt>
      <trkpt lat="42.294162" lon="3.280957">
        <ele>47</ele>
        <time>2019-08-18T23:45:01Z</time>
      </trkpt>
      <trkpt lat="42.294141" lon="3.280953">
        <ele>49</ele>
        <time>2019-08-18T23:45:02Z</time>
      </trkpt>
      <trkpt lat="42.294089" lon="3.28096">
        <ele>49</ele>
        <time>2019-08-18T23:45:03Z</time>
      </trkpt>
      <trkpt lat="42.294063" lon="3.280966">
        <ele>49</ele>
        <time>2019-08-18T23:45:04Z</time>
      </trkpt>
      <trkpt lat="42.294036" lon="3.280973">
        <ele>49</ele>
        <time>2019-08-18T23:45:05Z</time>
      </trkpt>
      <trkpt lat="42.294009" lon="3.280979">
        <ele>49</ele>
        <time>2019-08-18T23:45:06Z</time>
      </trkpt>
      <trkpt lat="42.293983" lon="3.280986">
        <ele>49</ele>
        <time>2019-08-18T23:45:07Z</time>
      </trkpt>
      <trkpt lat="42.293956" lon="3.280992">
        <ele>49</ele>
        <time>2019-08-18T23:45:08Z</time>
      </trkpt>
      <trkpt lat="42.293929" lon="3.280999">
        <ele>49</ele>
        <time>2019-08-18T23:45:09Z</time>
      </trkpt>
      <trkpt lat="42.293902" lon="3.281005">
        <ele>49</ele>
        <time>2019-08-18T23:45:10Z</time>
      </trkpt>
      <trkpt lat="42.293876" lon="3.281012">
        <ele>49</ele>
        <time>2019-08-18T23:45:11Z</time>
      </trkpt>
      <trkpt lat="42.293849" lon="3.281018">
        <ele>49</ele>
        <time>2019-08-18T23:45:12Z</time>
      </trkpt>
      <trkpt lat="42.293777" lon="3.281032">
        <ele>49</ele>
        <time>2019-08-18T23:45:13Z</time>
      </trkpt>
      <trkpt lat="42.293739" lon="3.281035">
        <ele>49</ele>
        <time>2019-08-18T23:45:14Z</time>
      </trkpt>
      <trkpt lat="42.293702" lon="3.281039">
        <ele>49</ele>
        <time>2019-08-18T23:45:15Z</time>
      </trkpt>
      <trkpt lat="42.293664" lon="3.281042">
        <ele>49</ele>
        <time>2019-08-18T23:45:16Z</time>
      </trkpt>
      <trkpt lat="42.293627" lon="3.281046">
        <ele>49</ele>
        <time>2019-08-18T23:45:17Z</time>
      </trkpt>
      <trkpt lat="42.293589" lon="3.281049">
        <ele>49</ele>
        <time>2019-08-18T23:45:18Z</time>
      </trkpt>
      <trkpt lat="42.293552" lon="3.281053">
        <ele>49</ele>
        <time>2019-08-18T23:45:19Z</time>
      </trkpt>
      <trkpt lat="42.293514" lon="3.281056">
        <ele>49</ele>
        <time>2019-08-18T23:45:20Z</time>
      </trkpt>
      <trkpt lat="42.293477" lon="3.28106">
        <ele>49</ele>
        <time>2019-08-18T23:45:21Z</time>
      </trkpt>
      <trkpt lat="42.293439" lon="3.281063">
        <ele>49</ele>
        <time>2019-08-18T23:45:22Z</time>
      </trkpt>
      <trkpt lat="42.293365" lon="3.281045">
        <ele>49</ele>
        <time>2019-08-18T23:45:23Z</time>
      </trkpt>
      <trkpt lat="42.293331" lon="3.28103">
        <ele>49</ele>
        <time>2019-08-18T23:45:24Z</time>
      </trkpt>
      <trkpt lat="42.293298" lon="3.281015">
        <ele>49</ele>
        <time>2019-08-18T23:45:25Z</time>
      </trkpt>
      <trkpt lat="42.293264" lon="3.281">
        <ele>49</ele>
        <time>2019-08-18T23:45:26Z</time>
      </trkpt>
      <trkpt lat="42.293231" lon="3.280985">
        <ele>49</ele>
        <time>2019-08-18T23:45:27Z</time>
      </trkpt>
      <trkpt lat="42.293198" lon="3.28097">
        <ele>49</ele>
        <time>2019-08-18T23:45:28Z</time>
      </trkpt>
      <trkpt lat="42.293164" lon="3.280955">
        <ele>49</ele>
        <time>2019-08-18T23:45:29Z</time>
      </trkpt>
      <trkpt lat="42.293131" lon="3.28094">
        <ele>49</ele>
        <time>2019-08-18T23:45:30Z</time>
      </trkpt>
      <trkpt lat="42.293097" lon="3.280925">
        <ele>49</ele>
        <time>2019-08-18T23:45:31Z</time>
      </trkpt>
      <trkpt lat="42.293064" lon="3.28091">
        <ele>48</ele>
        <time>2019-08-18T23:45:32Z</time>
      </trkpt>
      <trkpt lat="42.293018" lon="3.280864">
        <ele>48</ele>
        <time>2019-08-18T23:45:33Z</time>
      </trkpt>
      <trkpt lat="42.292994" lon="3.280837">
        <ele>48</ele>
        <time>2019-08-18T23:45:34Z</time>
      </trkpt>
      <trkpt lat="42.292971" lon="3.280811">
        <ele>48</ele>
        <time>2019-08-18T23:45:35Z</time>
      </trkpt>
      <trkpt lat="42.292947" lon="3.280784">
        <ele>48</ele>
        <time>2019-08-18T23:45:36Z</time>
      </trkpt>
      <trkpt lat="42.292923" lon="3.280758">
        <ele>48</ele>
        <time>2019-08-18T23:45:37Z</time>
      </trkpt>
      <trkpt lat="42.292899" lon="3.280731">
        <ele>48</ele>
        <time>2019-08-18T23:45:38Z</time>
      </trkpt>
      <trkpt lat="42.292875" lon="3.280705">
        <ele>48</ele>
        <time>2019-08-18T23:45:39Z</time>
      </trkpt>
      <trkpt lat="42.292851" lon="3.280678">
        <ele>48</ele>
        <time>2019-08-18T23:45:40Z</time>
      </trkpt>
      <trkpt lat="42.292828" lon="3.280652">
        <ele>48</ele>
        <time>2019-08-18T23:45:41Z</time>
      </trkpt>
      <trkpt lat="42.292804" lon="3.280625">
        <ele>48</ele>
        <time>2019-08-18T23:45:42Z</time>
      </trkpt>
      <trkpt lat="42.29278" lon="3.280599">
        <ele>48</ele>
        <time>2019-08-18T23:45:43Z</time>
      </trkpt>
      <trkpt lat="42.29269" lon="3.280532">
        <ele>48</ele>
        <time>2019-08-18T23:45:44Z</time>
      </trkpt>
      <trkpt lat="42.29265" lon="3.280492">
        <ele>48</ele>
        <time>2019-08-18T23:45:45Z</time>
      </trkpt>
      <trkpt lat="42.29261" lon="3.280452">
        <ele>48</ele>
        <time>2019-08-18T23:45:46Z</time>
      </trkpt>
      <trkpt lat="42.29257" lon="3.280412">
        <ele>48</ele>
        <time>2019-08-18T23:45:47Z</time>
      </trkpt>
      <trkpt lat="42.29253" lon="3.280372">
        <ele>48</ele>
        <time>2019-08-18T23:45:48Z</time>
      </trkpt>
      <trkpt lat="42.29249" lon="3.280332">
        <ele>48</ele>
        <time>2019-08-18T23:45:49Z</time>
      </trkpt>
      <trkpt lat="42.29245" lon="3.280292">
        <ele>48</ele>
        <time>2019-08-18T23:45:50Z</time>
      </trkpt>
      <trkpt lat="42.29241" lon="3.280252">
        <ele>48</ele>
        <time>2019-08-18T23:45:51Z</time>
      </trkpt>
      <trkpt lat="42.29237" lon="3.280212">
        <ele>46</ele>
        <time>2019-08-18T23:45:52Z</time>
      </trkpt>
      <trkpt lat="42.292307" lon="3.28012">
        <ele>46</ele>
        <time>2019-08-18T23:45:53Z</time>
      </trkpt>
      <trkpt lat="42.292278" lon="3.280079">
        <ele>46</ele>
        <time>2019-08-18T23:45:54Z</time>
      </trkpt>
      <trkpt lat="42.292248" lon="3.280037">
        <ele>46</ele>
        <time>2019-08-18T23:45:55Z</time>
      </trkpt>
      <trkpt lat="42.292219" lon="3.279996">
        <ele>46</ele>
        <time>2019-08-18T23:45:56Z</time>
      </trkpt>
      <trkpt lat="42.29219" lon="3.279955">
        <ele>46</ele>
        <time>2019-08-18T23:45:57Z</time>
      </trkpt>
      <trkpt lat="42.292161" lon="3.279914">
        <ele>46</ele>
        <time>2019-08-18T23:45:58Z</time>
      </trkpt>
      <trkpt lat="42.292132" lon="3.279873">
        <ele>46</ele>
        <time>2019-08-18T23:45:59Z</time>
      </trkpt>
      <trkpt lat="42.292102" lon="3.279831">
        <ele>46</ele>
        <time>2019-08-18T23:46:00Z</time>
      </trkpt>
      <trkpt lat="42.292073" lon="3.27979">
        <ele>46</ele>
        <time>2019-08-18T23:46:01Z</time>
      </trkpt>
      <trkpt lat="42.292044" lon="3.279749">
        <ele>40</ele>
        <time>2019-08-18T23:46:02Z</time>
      </trkpt>
      <trkpt lat="42.292057" lon="3.279654">
        <ele>40</ele>
        <time>2019-08-18T23:46:03Z</time>
      </trkpt>
      <trkpt lat="42.292072" lon="3.27961">
        <ele>40</ele>
        <time>2019-08-18T23:46:04Z</time>
      </trkpt>
      <trkpt lat="42.292087" lon="3.279567">
        <ele>40</ele>
        <time>2019-08-18T23:46:05Z</time>
      </trkpt>
      <trkpt lat="42.292102" lon="3.279523">
        <ele>40</ele>
        <time>2019-08-18T23:46:06Z</time>
      </trkpt>
      <trkpt lat="42.292118" lon="3.27948">
        <ele>40</ele>
        <time>2019-08-18T23:46:07Z</time>
      </trkpt>
      <trkpt lat="42.292133" lon="3.279436">
        <ele>40</ele>
        <time>2019-08-18T23:46:08Z</time>
      </trkpt>
      <trkpt lat="42.292148" lon="3.279393">
        <ele>40</ele>
        <time>2019-08-18T23:46:09Z</time>
      </trkpt>
      <trkpt lat="42.292163" lon="3.279349">
        <ele>40</ele>
        <time>2019-08-18T23:46:10Z</time>
      </trkpt>
      <trkpt lat="42.292178" lon="3.279306">
        <ele>40</ele>
        <time>2019-08-18T23:46:11Z</time>
      </trkpt>
      <trkpt lat="42.292193" lon="3.279262">
        <ele>38</ele>
        <time>2019-08-18T23:46:12Z</time>
      </trkpt>
      <trkpt lat="42.29223" lon="3.279179">
        <ele>38</ele>
        <time>2019-08-18T23:46:13Z</time>
      </trkpt>
      <trkpt lat="42.292246" lon="3.27914">
        <ele>38</ele>
        <time>2019-08-18T23:46:14Z</time>
      </trkpt>
      <trkpt lat="42.292263" lon="3.2791">
        <ele>38</ele>
        <time>2019-08-18T23:46:15Z</time>
      </trkpt>
      <trkpt lat="42.292279" lon="3.279061">
        <ele>38</ele>
        <time>2019-08-18T23:46:16Z</time>
      </trkpt>
      <trkpt lat="42.292295" lon="3.279022">
        <ele>38</ele>
        <time>2019-08-18T23:46:17Z</time>
      </trkpt>
      <trkpt lat="42.292311" lon="3.278983">
        <ele>38</ele>
        <time>2019-08-18T23:46:18Z</time>
      </trkpt>
      <trkpt lat="42.292327" lon="3.278944">
        <ele>38</ele>
        <time>2019-08-18T23:46:19Z</time>
      </trkpt>
      <trkpt lat="42.292344" lon="3.278904">
        <ele>38</ele>
        <time>2019-08-18T23:46:20Z</time>
      </trkpt>
      <trkpt lat="42.29236" lon="3.278865">
        <ele>38</ele>
        <time>2019-08-18T23:46:21Z</time>
      </trkpt>
      <trkpt lat="42.292376" lon="3.278826">
        <ele>39</ele>
        <time>2019-08-18T23:46:22Z</time>
      </trkpt>
      <trkpt lat="42.29242" lon="3.278755">
        <ele>39</ele>
        <time>2019-08-18T23:46:23Z</time>
      </trkpt>
      <trkpt lat="42.292446" lon="3.278728">
        <ele>39</ele>
        <time>2019-08-18T23:46:24Z</time>
      </trkpt>
      <trkpt lat="42.292471" lon="3.2787">
        <ele>39</ele>
        <time>2019-08-18T23:46:25Z</time>
      </trkpt>
      <trkpt lat="42.292497" lon="3.278673">
        <ele>39</ele>
        <time>2019-08-18T23:46:26Z</time>
      </trkpt>
      <trkpt lat="42.292523" lon="3.278645">
        <ele>39</ele>
        <time>2019-08-18T23:46:27Z</time>
      </trkpt>
      <trkpt lat="42.292549" lon="3.278617">
        <ele>39</ele>
        <time>2019-08-18T23:46:28Z</time>
      </trkpt>
      <trkpt lat="42.292575" lon="3.27859">
        <ele>39</ele>
        <time>2019-08-18T23:46:29Z</time>
      </trkpt>
      <trkpt lat="42.2926" lon="3.278562">
        <ele>39</ele>
        <time>2019-08-18T23:46:30Z</time>
      </trkpt>
      <trkpt lat="42.292626" lon="3.278535">
        <ele>39</ele>
        <time>2019-08-18T23:46:31Z</time>
      </trkpt>
      <trkpt lat="42.292652" lon="3.278507">
        <ele>39</ele>
        <time>2019-08-18T23:46:32Z</time>
      </trkpt>
      <trkpt lat="42.292726" lon="3.278462">
        <ele>39</ele>
        <time>2019-08-18T23:46:33Z</time>
      </trkpt>
      <trkpt lat="42.292764" lon="3.278439">
        <ele>39</ele>
        <time>2019-08-18T23:46:34Z</time>
      </trkpt>
      <trkpt lat="42.292802" lon="3.278416">
        <ele>39</ele>
        <time>2019-08-18T23:46:35Z</time>
      </trkpt>
      <trkpt lat="42.29284" lon="3.278393">
        <ele>39</ele>
        <time>2019-08-18T23:46:36Z</time>
      </trkpt>
      <trkpt lat="42.292878" lon="3.278369">
        <ele>39</ele>
        <time>2019-08-18T23:46:37Z</time>
      </trkpt>
      <trkpt lat="42.292916" lon="3.278346">
        <ele>39</ele>
        <time>2019-08-18T23:46:39Z</time>
      </trkpt>
      <trkpt lat="42.292954" lon="3.278323">
        <ele>39</ele>
        <time>2019-08-18T23:46:40Z</time>
      </trkpt>
      <trkpt lat="42.292992" lon="3.2783">
        <ele>39</ele>
        <time>2019-08-18T23:46:41Z</time>
      </trkpt>
      <trkpt lat="42.29303" lon="3.278277">
        <ele>39</ele>
        <time>2019-08-18T23:46:42Z</time>
      </trkpt>
      <trkpt lat="42.293089" lon="3.278211">
        <ele>39</ele>
        <time>2019-08-18T23:46:43Z</time>
      </trkpt>
      <trkpt lat="42.293116" lon="3.278179">
        <ele>39</ele>
        <time>2019-08-18T23:46:44Z</time>
      </trkpt>
      <trkpt lat="42.293142" lon="3.278147">
        <ele>39</ele>
        <time>2019-08-18T23:46:45Z</time>
      </trkpt>
      <trkpt lat="42.293168" lon="3.278115">
        <ele>39</ele>
        <time>2019-08-18T23:46:46Z</time>
      </trkpt>
      <trkpt lat="42.293195" lon="3.278083">
        <ele>39</ele>
        <time>2019-08-18T23:46:47Z</time>
      </trkpt>
      <trkpt lat="42.293221" lon="3.278051">
        <ele>39</ele>
        <time>2019-08-18T23:46:48Z</time>
      </trkpt>
      <trkpt lat="42.293247" lon="3.278019">
        <ele>39</ele>
        <time>2019-08-18T23:46:49Z</time>
      </trkpt>
      <trkpt lat="42.293273" lon="3.277987">
        <ele>39</ele>
        <time>2019-08-18T23:46:50Z</time>
      </trkpt>
      <trkpt lat="42.2933" lon="3.277955">
        <ele>39</ele>
        <time>2019-08-18T23:46:51Z</time>
      </trkpt>
      <trkpt lat="42.293326" lon="3.277923">
        <ele>39</ele>
        <time>2019-08-18T23:46:52Z</time>
      </trkpt>
      <trkpt lat="42.293338" lon="3.277846">
        <ele>39</ele>
        <time>2019-08-18T23:46:53Z</time>
      </trkpt>
      <trkpt lat="42.293324" lon="3.277808">
        <ele>39</ele>
        <time>2019-08-18T23:46:54Z</time>
      </trkpt>
      <trkpt lat="42.293311" lon="3.277769">
        <ele>39</ele>
        <time>2019-08-18T23:46:55Z</time>
      </trkpt>
      <trkpt lat="42.293297" lon="3.277731">
        <ele>39</ele>
        <time>2019-08-18T23:46:56Z</time>
      </trkpt>
      <trkpt lat="42.293283" lon="3.277693">
        <ele>39</ele>
        <time>2019-08-18T23:46:57Z</time>
      </trkpt>
      <trkpt lat="42.293269" lon="3.277655">
        <ele>39</ele>
        <time>2019-08-18T23:46:58Z</time>
      </trkpt>
      <trkpt lat="42.293255" lon="3.277617">
        <ele>39</ele>
        <time>2019-08-18T23:46:59Z</time>
      </trkpt>
      <trkpt lat="42.293242" lon="3.277578">
        <ele>39</ele>
        <time>2019-08-18T23:47:00Z</time>
      </trkpt>
      <trkpt lat="42.293228" lon="3.27754">
        <ele>39</ele>
        <time>2019-08-18T23:47:01Z</time>
      </trkpt>
      <trkpt lat="42.293214" lon="3.277502">
        <ele>39</ele>
        <time>2019-08-18T23:47:02Z</time>
      </trkpt>
      <trkpt lat="42.293129" lon="3.277484">
        <ele>39</ele>
        <time>2019-08-18T23:47:03Z</time>
      </trkpt>
      <trkpt lat="42.293089" lon="3.277478">
        <ele>39</ele>
        <time>2019-08-18T23:47:04Z</time>
      </trkpt>
      <trkpt lat="42.29305" lon="3.277471">
        <ele>39</ele>
        <time>2019-08-18T23:47:05Z</time>
      </trkpt>
      <trkpt lat="42.293011" lon="3.277464">
        <ele>39</ele>
        <time>2019-08-18T23:47:06Z</time>
      </trkpt>
      <trkpt lat="42.292972" lon="3.277457">
        <ele>39</ele>
        <time>2019-08-18T23:47:07Z</time>
      </trkpt>
      <trkpt lat="42.292932" lon="3.277451">
        <ele>39</ele>
        <time>2019-08-18T23:47:08Z</time>
      </trkpt>
      <trkpt lat="42.292893" lon="3.277444">
        <ele>39</ele>
        <time>2019-08-18T23:47:09Z</time>
      </trkpt>
      <trkpt lat="42.292854" lon="3.277437">
        <ele>39</ele>
        <time>2019-08-18T23:47:10Z</time>
      </trkpt>
      <trkpt lat="42.292814" lon="3.277431">
        <ele>39</ele>
        <time>2019-08-18T23:47:11Z</time>
      </trkpt>
      <trkpt lat="42.292775" lon="3.277424">
        <ele>38</ele>
        <time>2019-08-18T23:47:12Z</time>
      </trkpt>
      <trkpt lat="42.292699" lon="3.277382">
        <ele>38</ele>
        <time>2019-08-18T23:47:13Z</time>
      </trkpt>
      <trkpt lat="42.292665" lon="3.277357">
        <ele>38</ele>
        <time>2019-08-18T23:47:14Z</time>
      </trkpt>
      <trkpt lat="42.29263" lon="3.277332">
        <ele>38</ele>
        <time>2019-08-18T23:47:15Z</time>
      </trkpt>
      <trkpt lat="42.292596" lon="3.277307">
        <ele>38</ele>
        <time>2019-08-18T23:47:16Z</time>
      </trkpt>
      <trkpt lat="42.292561" lon="3.277281">
        <ele>38</ele>
        <time>2019-08-18T23:47:17Z</time>
      </trkpt>
      <trkpt lat="42.292526" lon="3.277256">
        <ele>38</ele>
        <time>2019-08-18T23:47:18Z</time>
      </trkpt>
      <trkpt lat="42.292492" lon="3.277231">
        <ele>38</ele>
        <time>2019-08-18T23:47:19Z</time>
      </trkpt>
      <trkpt lat="42.292457" lon="3.277206">
        <ele>38</ele>
        <time>2019-08-18T23:47:20Z</time>
      </trkpt>
      <trkpt lat="42.292423" lon="3.277181">
        <ele>38</ele>
        <time>2019-08-18T23:47:21Z</time>
      </trkpt>
      <trkpt lat="42.292388" lon="3.277156">
        <ele>38</ele>
        <time>2019-08-18T23:47:22Z</time>
      </trkpt>
      <trkpt lat="42.292344" lon="3.277066">
        <ele>38</ele>
        <time>2019-08-18T23:47:23Z</time>
      </trkpt>
      <trkpt lat="42.292334" lon="3.277015">
        <ele>38</ele>
        <time>2019-08-18T23:47:24Z</time>
      </trkpt>
      <trkpt lat="42.292325" lon="3.276965">
        <ele>38</ele>
        <time>2019-08-18T23:47:25Z</time>
      </trkpt>
      <trkpt lat="42.292315" lon="3.276914">
        <ele>38</ele>
        <time>2019-08-18T23:47:26Z</time>
      </trkpt>
      <trkpt lat="42.292305" lon="3.276864">
        <ele>38</ele>
        <time>2019-08-18T23:47:27Z</time>
      </trkpt>
      <trkpt lat="42.292295" lon="3.276814">
        <ele>38</ele>
        <time>2019-08-18T23:47:28Z</time>
      </trkpt>
      <trkpt lat="42.292285" lon="3.276763">
        <ele>38</ele>
        <time>2019-08-18T23:47:29Z</time>
      </trkpt>
      <trkpt lat="42.292276" lon="3.276713">
        <ele>38</ele>
        <time>2019-08-18T23:47:30Z</time>
      </trkpt>
      <trkpt lat="42.292266" lon="3.276662">
        <ele>38</ele>
        <time>2019-08-18T23:47:31Z</time>
      </trkpt>
      <trkpt lat="42.292256" lon="3.276612">
        <ele>39</ele>
        <time>2019-08-18T23:47:32Z</time>
      </trkpt>
      <trkpt lat="42.292248" lon="3.276509">
        <ele>39</ele>
        <time>2019-08-18T23:47:33Z</time>
      </trkpt>
      <trkpt lat="42.292245" lon="3.276463">
        <ele>39</ele>
        <time>2019-08-18T23:47:34Z</time>
      </trkpt>
      <trkpt lat="42.292242" lon="3.276417">
        <ele>39</ele>
        <time>2019-08-18T23:47:35Z</time>
      </trkpt>
      <trkpt lat="42.292239" lon="3.276371">
        <ele>39</ele>
        <time>2019-08-18T23:47:36Z</time>
      </trkpt>
      <trkpt lat="42.292236" lon="3.276325">
        <ele>39</ele>
        <time>2019-08-18T23:47:37Z</time>
      </trkpt>
      <trkpt lat="42.292232" lon="3.27628">
        <ele>39</ele>
        <time>2019-08-18T23:47:38Z</time>
      </trkpt>
      <trkpt lat="42.292229" lon="3.276234">
        <ele>39</ele>
        <time>2019-08-18T23:47:39Z</time>
      </trkpt>
      <trkpt lat="42.292226" lon="3.276188">
        <ele>39</ele>
        <time>2019-08-18T23:47:40Z</time>
      </trkpt>
      <trkpt lat="42.292223" lon="3.276142">
        <ele>39</ele>
        <time>2019-08-18T23:47:41Z</time>
      </trkpt>
      <trkpt lat="42.29222" lon="3.276096">
        <ele>39</ele>
        <time>2019-08-18T23:47:42Z</time>
      </trkpt>
      <trkpt lat="42.29225" lon="3.276009">
        <ele>39</ele>
        <time>2019-08-18T23:47:43Z</time>
      </trkpt>
      <trkpt lat="42.292272" lon="3.275973">
        <ele>39</ele>
        <time>2019-08-18T23:47:44Z</time>
      </trkpt>
      <trkpt lat="42.292294" lon="3.275936">
        <ele>39</ele>
        <time>2019-08-18T23:47:45Z</time>
      </trkpt>
      <trkpt lat="42.292316" lon="3.2759">
        <ele>39</ele>
        <time>2019-08-18T23:47:46Z</time>
      </trkpt>
      <trkpt lat="42.292338" lon="3.275863">
        <ele>39</ele>
        <time>2019-08-18T23:47:47Z</time>
      </trkpt>
      <trkpt lat="42.29236" lon="3.275826">
        <ele>39</ele>
        <time>2019-08-18T23:47:48Z</time>
      </trkpt>
      <trkpt lat="42.292382" lon="3.27579">
        <ele>39</ele>
        <time>2019-08-18T23:47:49Z</time>
      </trkpt>
      <trkpt lat="42.292404" lon="3.275753">
        <ele>39</ele>
        <time>2019-08-18T23:47:50Z</time>
      </trkpt>
      <trkpt lat="42.292426" lon="3.275717">
        <ele>39</ele>
        <time>2019-08-18T23:47:51Z</time>
      </trkpt>
      <trkpt lat="42.292448" lon="3.27568">
        <ele>40</ele>
        <time>2019-08-18T23:47:52Z</time>
      </trkpt>
      <trkpt lat="42.292514" lon="3.275627">
        <ele>40</ele>
        <time>2019-08-18T23:47:53Z</time>
      </trkpt>
      <trkpt lat="42.292548" lon="3.275607">
        <ele>40</ele>
        <time>2019-08-18T23:47:54Z</time>
      </trkpt>
      <trkpt lat="42.292583" lon="3.275586">
        <ele>40</ele>
        <time>2019-08-18T23:47:55Z</time>
      </trkpt>
      <trkpt lat="42.292617" lon="3.275566">
        <ele>40</ele>
        <time>2019-08-18T23:47:56Z</time>
      </trkpt>
      <trkpt lat="42.292651" lon="3.275545">
        <ele>40</ele>
        <time>2019-08-18T23:47:57Z</time>
      </trkpt>
      <trkpt lat="42.292685" lon="3.275524">
        <ele>40</ele>
        <time>2019-08-18T23:47:58Z</time>
      </trkpt>
      <trkpt lat="42.292719" lon="3.275504">
        <ele>40</ele>
        <time>2019-08-18T23:47:59Z</time>
      </trkpt>
      <trkpt lat="42.292754" lon="3.275483">
        <ele>40</ele>
        <time>2019-08-18T23:48:00Z</time>
      </trkpt>
      <trkpt lat="42.292788" lon="3.275463">
        <ele>40</ele>
        <time>2019-08-18T23:48:01Z</time>
      </trkpt>
      <trkpt lat="42.292822" lon="3.275442">
        <ele>40</ele>
        <time>2019-08-18T23:48:02Z</time>
      </trkpt>
      <trkpt lat="42.292903" lon="3.275402">
        <ele>40</ele>
        <time>2019-08-18T23:48:03Z</time>
      </trkpt>
      <trkpt lat="42.292943" lon="3.275382">
        <ele>40</ele>
        <time>2019-08-18T23:48:04Z</time>
      </trkpt>
      <trkpt lat="42.292982" lon="3.275362">
        <ele>40</ele>
        <time>2019-08-18T23:48:05Z</time>
      </trkpt>
      <trkpt lat="42.293022" lon="3.275342">
        <ele>40</ele>
        <time>2019-08-18T23:48:06Z</time>
      </trkpt>
      <trkpt lat="42.293062" lon="3.275322">
        <ele>40</ele>
        <time>2019-08-18T23:48:07Z</time>
      </trkpt>
      <trkpt lat="42.293102" lon="3.275301">
        <ele>40</ele>
        <time>2019-08-18T23:48:08Z</time>
      </trkpt>
      <trkpt lat="42.293142" lon="3.275281">
        <ele>40</ele>
        <time>2019-08-18T23:48:09Z</time>
      </trkpt>
      <trkpt lat="42.293181" lon="3.275261">
        <ele>40</ele>
        <time>2019-08-18T23:48:10Z</time>
      </trkpt>
      <trkpt lat="42.293221" lon="3.275241">
        <ele>40</ele>
        <time>2019-08-18T23:48:11Z</time>
      </trkpt>
      <trkpt lat="42.293261" lon="3.275221">
        <ele>40</ele>
        <time>2019-08-18T23:48:12Z</time>
      </trkpt>
      <trkpt lat="42.293313" lon="3.275093">
        <ele>40</ele>
        <time>2019-08-18T23:48:13Z</time>
      </trkpt>
      <trkpt lat="42.293325" lon="3.275013">
        <ele>40</ele>
        <time>2019-08-18T23:48:14Z</time>
      </trkpt>
      <trkpt lat="42.293336" lon="3.274934">
        <ele>40</ele>
        <time>2019-08-18T23:48:15Z</time>
      </trkpt>
      <trkpt lat="42.293348" lon="3.274855">
        <ele>40</ele>
        <time>2019-08-18T23:48:16Z</time>
      </trkpt>
      <trkpt lat="42.293359" lon="3.274776">
        <ele>40</ele>
        <time>2019-08-18T23:48:17Z</time>
      </trkpt>
      <trkpt lat="42.29337" lon="3.274696">
        <ele>40</ele>
        <time>2019-08-18T23:48:18Z</time>
      </trkpt>
      <trkpt lat="42.293382" lon="3.274617">
        <ele>40</ele>
        <time>2019-08-18T23:48:19Z</time>
      </trkpt>
      <trkpt lat="42.293393" lon="3.274538">
        <ele>40</ele>
        <time>2019-08-18T23:48:20Z</time>
      </trkpt>
      <trkpt lat="42.293405" lon="3.274458">
        <ele>40</ele>
        <time>2019-08-18T23:48:21Z</time>
      </trkpt>
      <trkpt lat="42.293416" lon="3.274379">
        <ele>40</ele>
        <time>2019-08-18T23:48:22Z</time>
      </trkpt>
      <trkpt lat="42.293364" lon="3.274276">
        <ele>40</ele>
        <time>2019-08-18T23:48:23Z</time>
      </trkpt>
      <trkpt lat="42.293314" lon="3.274266">
        <ele>40</ele>
        <time>2019-08-18T23:48:24Z</time>
      </trkpt>
      <trkpt lat="42.293265" lon="3.274256">
        <ele>40</ele>
        <time>2019-08-18T23:48:25Z</time>
      </trkpt>
      <trkpt lat="42.293215" lon="3.274246">
        <ele>40</ele>
        <time>2019-08-18T23:48:26Z</time>
      </trkpt>
      <trkpt lat="42.293165" lon="3.274235">
        <ele>40</ele>
        <time>2019-08-18T23:48:27Z</time>
      </trkpt>
      <trkpt lat="42.293115" lon="3.274225">
        <ele>40</ele>
        <time>2019-08-18T23:48:28Z</time>
      </trkpt>
      <trkpt lat="42.293065" lon="3.274215">
        <ele>40</ele>
        <time>2019-08-18T23:48:29Z</time>
      </trkpt>
      <trkpt lat="42.293016" lon="3.274205">
        <ele>40</ele>
        <time>2019-08-18T23:48:30Z</time>
      </trkpt>
      <trkpt lat="42.292966" lon="3.274195">
        <ele>40</ele>
        <time>2019-08-18T23:48:31Z</time>
      </trkpt>
      <trkpt lat="42.292916" lon="3.274185">
        <ele>35</ele>
        <time>2019-08-18T23:48:32Z</time>
      </trkpt>
      <trkpt lat="42.292794" lon="3.274291">
        <ele>35</ele>
        <time>2019-08-18T23:48:33Z</time>
      </trkpt>
      <trkpt lat="42.292732" lon="3.274316">
        <ele>35</ele>
        <time>2019-08-18T23:48:34Z</time>
      </trkpt>
      <trkpt lat="42.292671" lon="3.27434">
        <ele>35</ele>
        <time>2019-08-18T23:48:35Z</time>
      </trkpt>
      <trkpt lat="42.292609" lon="3.274365">
        <ele>35</ele>
        <time>2019-08-18T23:48:36Z</time>
      </trkpt>
      <trkpt lat="42.292548" lon="3.27439">
        <ele>35</ele>
        <time>2019-08-18T23:48:37Z</time>
      </trkpt>
      <trkpt lat="42.292487" lon="3.274415">
        <ele>35</ele>
        <time>2019-08-18T23:48:38Z</time>
      </trkpt>
      <trkpt lat="42.292425" lon="3.27444">
        <ele>35</ele>
        <time>2019-08-18T23:48:39Z</time>
      </trkpt>
      <trkpt lat="42.292364" lon="3.274464">
        <ele>35</ele>
        <time>2019-08-18T23:48:40Z</time>
      </trkpt>
      <trkpt lat="42.292302" lon="3.274489">
        <ele>35</ele>
        <time>2019-08-18T23:48:41Z</time>
      </trkpt>
      <trkpt lat="42.292241" lon="3.274514">
        <ele>28</ele>
        <time>2019-08-18T23:48:42Z</time>
      </trkpt>
      <trkpt lat="42.292159" lon="3.2745">
        <ele>28</ele>
        <time>2019-08-18T23:48:43Z</time>
      </trkpt>
      <trkpt lat="42.292116" lon="3.274488">
        <ele>28</ele>
        <time>2019-08-18T23:48:44Z</time>
      </trkpt>
      <trkpt lat="42.292072" lon="3.274475">
        <ele>28</ele>
        <time>2019-08-18T23:48:45Z</time>
      </trkpt>
      <trkpt lat="42.292029" lon="3.274463">
        <ele>28</ele>
        <time>2019-08-18T23:48:46Z</time>
      </trkpt>
      <trkpt lat="42.291986" lon="3.27445">
        <ele>28</ele>
        <time>2019-08-18T23:48:47Z</time>
      </trkpt>
      <trkpt lat="42.291943" lon="3.274438">
        <ele>28</ele>
        <time>2019-08-18T23:48:48Z</time>
      </trkpt>
      <trkpt lat="42.2919" lon="3.274425">
        <ele>28</ele>
        <time>2019-08-18T23:48:49Z</time>
      </trkpt>
      <trkpt lat="42.291856" lon="3.274413">
        <ele>28</ele>
        <time>2019-08-18T23:48:50Z</time>
      </trkpt>
      <trkpt lat="42.291813" lon="3.2744">
        <ele>28</ele>
        <time>2019-08-18T23:48:51Z</time>
      </trkpt>
      <trkpt lat="42.29177" lon="3.274388">
        <ele>26</ele>
        <time>2019-08-18T23:48:52Z</time>
      </trkpt>
      <trkpt lat="42.291676" lon="3.274313">
        <ele>26</ele>
        <time>2019-08-18T23:48:53Z</time>
      </trkpt>
      <trkpt lat="42.29163" lon="3.274277">
        <ele>26</ele>
        <time>2019-08-18T23:48:54Z</time>
      </trkpt>
      <trkpt lat="42.291585" lon="3.274242">
        <ele>26</ele>
        <time>2019-08-18T23:48:55Z</time>
      </trkpt>
      <trkpt lat="42.29154" lon="3.274206">
        <ele>26</ele>
        <time>2019-08-18T23:48:56Z</time>
      </trkpt>
      <trkpt lat="42.291495" lon="3.27417">
        <ele>26</ele>
        <time>2019-08-18T23:48:57Z</time>
      </trkpt>
      <trkpt lat="42.291449" lon="3.274134">
        <ele>26</ele>
        <time>2019-08-18T23:48:58Z</time>
      </trkpt>
      <trkpt lat="42.291404" lon="3.274098">
        <ele>26</ele>
        <time>2019-08-18T23:48:59Z</time>
      </trkpt>
      <trkpt lat="42.291359" lon="3.274063">
        <ele>26</ele>
        <time>2019-08-18T23:49:00Z</time>
      </trkpt>
      <trkpt lat="42.291313" lon="3.274027">
        <ele>26</ele>
        <time>2019-08-18T23:49:01Z</time>
      </trkpt>
      <trkpt lat="42.291268" lon="3.273991">
        <ele>22</ele>
        <time>2019-08-18T23:49:02Z</time>
      </trkpt>
      <trkpt lat="42.291171" lon="3.273954">
        <ele>22</ele>
        <time>2019-08-18T23:49:03Z</time>
      </trkpt>
      <trkpt lat="42.291121" lon="3.273939">
        <ele>22</ele>
        <time>2019-08-18T23:49:04Z</time>
      </trkpt>
      <trkpt lat="42.291072" lon="3.273923">
        <ele>22</ele>
        <time>2019-08-18T23:49:05Z</time>
      </trkpt>
      <trkpt lat="42.291023" lon="3.273907">
        <ele>22</ele>
        <time>2019-08-18T23:49:06Z</time>
      </trkpt>
      <trkpt lat="42.290974" lon="3.273891">
        <ele>22</ele>
        <time>2019-08-18T23:49:07Z</time>
      </trkpt>
      <trkpt lat="42.290924" lon="3.273876">
        <ele>22</ele>
        <time>2019-08-18T23:49:08Z</time>
      </trkpt>
      <trkpt lat="42.290875" lon="3.27386">
        <ele>22</ele>
        <time>2019-08-18T23:49:09Z</time>
      </trkpt>
      <trkpt lat="42.290826" lon="3.273844">
        <ele>22</ele>
        <time>2019-08-18T23:49:10Z</time>
      </trkpt>
      <trkpt lat="42.290776" lon="3.273829">
        <ele>22</ele>
        <time>2019-08-18T23:49:11Z</time>
      </trkpt>
      <trkpt lat="42.290727" lon="3.273813">
        <ele>19</ele>
        <time>2019-08-18T23:49:12Z</time>
      </trkpt>
      <trkpt lat="42.290633" lon="3.273813">
        <ele>19</ele>
        <time>2019-08-18T23:49:13Z</time>
      </trkpt>
      <trkpt lat="42.290603" lon="3.273799">
        <ele>19</ele>
        <time>2019-08-18T23:49:14Z</time>
      </trkpt>
      <trkpt lat="42.290573" lon="3.273786">
        <ele>19</ele>
        <time>2019-08-18T23:49:15Z</time>
      </trkpt>
      <trkpt lat="42.290543" lon="3.273773">
        <ele>19</ele>
        <time>2019-08-18T23:49:16Z</time>
      </trkpt>
      <trkpt lat="42.290513" lon="3.273759">
        <ele>19</ele>
        <time>2019-08-18T23:49:17Z</time>
      </trkpt>
      <trkpt lat="42.290483" lon="3.273746">
        <ele>19</ele>
        <time>2019-08-18T23:49:18Z</time>
      </trkpt>
      <trkpt lat="42.290453" lon="3.273733">
        <ele>19</ele>
        <time>2019-08-18T23:49:19Z</time>
      </trkpt>
      <trkpt lat="42.290423" lon="3.27372">
        <ele>19</ele>
        <time>2019-08-18T23:49:20Z</time>
      </trkpt>
      <trkpt lat="42.290393" lon="3.273706">
        <ele>19</ele>
        <time>2019-08-18T23:49:21Z</time>
      </trkpt>
      <trkpt lat="42.290363" lon="3.273693">
        <ele>15</ele>
        <time>2019-08-18T23:49:22Z</time>
      </trkpt>
      <trkpt lat="42.290393" lon="3.273614">
        <ele>15</ele>
        <time>2019-08-18T23:49:23Z</time>
      </trkpt>
      <trkpt lat="42.290409" lon="3.273587">
        <ele>15</ele>
        <time>2019-08-18T23:49:24Z</time>
      </trkpt>
      <trkpt lat="42.290424" lon="3.273561">
        <ele>15</ele>
        <time>2019-08-18T23:49:25Z</time>
      </trkpt>
      <trkpt lat="42.29044" lon="3.273534">
        <ele>15</ele>
        <time>2019-08-18T23:49:26Z</time>
      </trkpt>
      <trkpt lat="42.290455" lon="3.273508">
        <ele>15</ele>
        <time>2019-08-18T23:49:27Z</time>
      </trkpt>
      <trkpt lat="42.29047" lon="3.273481">
        <ele>15</ele>
        <time>2019-08-18T23:49:28Z</time>
      </trkpt>
      <trkpt lat="42.290486" lon="3.273455">
        <ele>15</ele>
        <time>2019-08-18T23:49:29Z</time>
      </trkpt>
      <trkpt lat="42.290501" lon="3.273428">
        <ele>15</ele>
        <time>2019-08-18T23:49:30Z</time>
      </trkpt>
      <trkpt lat="42.290517" lon="3.273402">
        <ele>15</ele>
        <time>2019-08-18T23:49:31Z</time>
      </trkpt>
      <trkpt lat="42.290532" lon="3.273375">
        <ele>14</ele>
        <time>2019-08-18T23:49:32Z</time>
      </trkpt>
      <trkpt lat="42.290561" lon="3.273325">
        <ele>14</ele>
        <time>2019-08-18T23:49:33Z</time>
      </trkpt>
      <trkpt lat="42.290576" lon="3.273301">
        <ele>14</ele>
        <time>2019-08-18T23:49:34Z</time>
      </trkpt>
      <trkpt lat="42.29059" lon="3.273278">
        <ele>14</ele>
        <time>2019-08-18T23:49:35Z</time>
      </trkpt>
      <trkpt lat="42.290605" lon="3.273254">
        <ele>14</ele>
        <time>2019-08-18T23:49:36Z</time>
      </trkpt>
      <trkpt lat="42.29062" lon="3.27323">
        <ele>14</ele>
        <time>2019-08-18T23:49:37Z</time>
      </trkpt>
      <trkpt lat="42.290635" lon="3.273206">
        <ele>14</ele>
        <time>2019-08-18T23:49:38Z</time>
      </trkpt>
      <trkpt lat="42.29065" lon="3.273182">
        <ele>14</ele>
        <time>2019-08-18T23:49:39Z</time>
      </trkpt>
      <trkpt lat="42.290664" lon="3.273159">
        <ele>14</ele>
        <time>2019-08-18T23:49:40Z</time>
      </trkpt>
      <trkpt lat="42.290679" lon="3.273135">
        <ele>14</ele>
        <time>2019-08-18T23:49:41Z</time>
      </trkpt>
      <trkpt lat="42.290694" lon="3.273111">
        <ele>14</ele>
        <time>2019-08-18T23:49:42Z</time>
      </trkpt>
      <trkpt lat="42.290726" lon="3.273057">
        <ele>14</ele>
        <time>2019-08-18T23:49:43Z</time>
      </trkpt>
      <trkpt lat="42.290741" lon="3.27303">
        <ele>14</ele>
        <time>2019-08-18T23:49:44Z</time>
      </trkpt>
      <trkpt lat="42.290755" lon="3.273004">
        <ele>14</ele>
        <time>2019-08-18T23:49:45Z</time>
      </trkpt>
      <trkpt lat="42.29077" lon="3.272977">
        <ele>14</ele>
        <time>2019-08-18T23:49:46Z</time>
      </trkpt>
      <trkpt lat="42.290785" lon="3.27295">
        <ele>14</ele>
        <time>2019-08-18T23:49:47Z</time>
      </trkpt>
      <trkpt lat="42.2908" lon="3.272923">
        <ele>14</ele>
        <time>2019-08-18T23:49:49Z</time>
      </trkpt>
      <trkpt lat="42.290814" lon="3.272897">
        <ele>14</ele>
        <time>2019-08-18T23:49:50Z</time>
      </trkpt>
      <trkpt lat="42.290829" lon="3.27287">
        <ele>14</ele>
        <time>2019-08-18T23:49:51Z</time>
      </trkpt>
      <trkpt lat="42.290844" lon="3.272843">
        <ele>17</ele>
        <time>2019-08-18T23:49:52Z</time>
      </trkpt>
      <trkpt lat="42.290859" lon="3.272786">
        <ele>17</ele>
        <time>2019-08-18T23:49:53Z</time>
      </trkpt>
      <trkpt lat="42.290862" lon="3.272757">
        <ele>17</ele>
        <time>2019-08-18T23:49:54Z</time>
      </trkpt>
      <trkpt lat="42.290864" lon="3.272729">
        <ele>17</ele>
        <time>2019-08-18T23:49:55Z</time>
      </trkpt>
      <trkpt lat="42.290867" lon="3.2727">
        <ele>17</ele>
        <time>2019-08-18T23:49:56Z</time>
      </trkpt>
      <trkpt lat="42.29087" lon="3.272671">
        <ele>17</ele>
        <time>2019-08-18T23:49:57Z</time>
      </trkpt>
      <trkpt lat="42.290873" lon="3.272642">
        <ele>17</ele>
        <time>2019-08-18T23:49:58Z</time>
      </trkpt>
      <trkpt lat="42.290876" lon="3.272613">
        <ele>17</ele>
        <time>2019-08-18T23:49:59Z</time>
      </trkpt>
      <trkpt lat="42.290878" lon="3.272585">
        <ele>17</ele>
        <time>2019-08-18T23:50:00Z</time>
      </trkpt>
      <trkpt lat="42.290881" lon="3.272556">
        <ele>17</ele>
        <time>2019-08-18T23:50:01Z</time>
      </trkpt>
      <trkpt lat="42.290884" lon="3.272527">
        <ele>17</ele>
        <time>2019-08-18T23:50:02Z</time>
      </trkpt>
      <trkpt lat="42.290854" lon="3.272476">
        <ele>17</ele>
        <time>2019-08-18T23:50:03Z</time>
      </trkpt>
      <trkpt lat="42.290835" lon="3.272459">
        <ele>17</ele>
        <time>2019-08-18T23:50:04Z</time>
      </trkpt>
      <trkpt lat="42.290816" lon="3.272441">
        <ele>17</ele>
        <time>2019-08-18T23:50:05Z</time>
      </trkpt>
      <trkpt lat="42.290797" lon="3.272424">
        <ele>17</ele>
        <time>2019-08-18T23:50:06Z</time>
      </trkpt>
      <trkpt lat="42.290779" lon="3.272406">
        <ele>17</ele>
        <time>2019-08-18T23:50:07Z</time>
      </trkpt>
      <trkpt lat="42.29076" lon="3.272389">
        <ele>17</ele>
        <time>2019-08-18T23:50:08Z</time>
      </trkpt>
      <trkpt lat="42.290741" lon="3.272371">
        <ele>17</ele>
        <time>2019-08-18T23:50:09Z</time>
      </trkpt>
      <trkpt lat="42.290722" lon="3.272354">
        <ele>17</ele>
        <time>2019-08-18T23:50:10Z</time>
      </trkpt>
      <trkpt lat="42.290703" lon="3.272336">
        <ele>17</ele>
        <time>2019-08-18T23:50:11Z</time>
      </trkpt>
      <trkpt lat="42.290684" lon="3.272319">
        <ele>19</ele>
        <time>2019-08-18T23:50:12Z</time>
      </trkpt>
      <trkpt lat="42.290633" lon="3.272317">
        <ele>19</ele>
        <time>2019-08-18T23:50:13Z</time>
      </trkpt>
      <trkpt lat="42.290609" lon="3.272317">
        <ele>19</ele>
        <time>2019-08-18T23:50:14Z</time>
      </trkpt>
      <trkpt lat="42.290586" lon="3.272318">
        <ele>19</ele>
        <time>2019-08-18T23:50:15Z</time>
      </trkpt>
      <trkpt lat="42.290563" lon="3.272318">
        <ele>19</ele>
        <time>2019-08-18T23:50:16Z</time>
      </trkpt>
      <trkpt lat="42.29054" lon="3.272319">
        <ele>19</ele>
        <time>2019-08-18T23:50:17Z</time>
      </trkpt>
      <trkpt lat="42.290516" lon="3.272319">
        <ele>19</ele>
        <time>2019-08-18T23:50:18Z</time>
      </trkpt>
      <trkpt lat="42.290493" lon="3.27232">
        <ele>19</ele>
        <time>2019-08-18T23:50:19Z</time>
      </trkpt>
      <trkpt lat="42.29047" lon="3.27232">
        <ele>19</ele>
        <time>2019-08-18T23:50:20Z</time>
      </trkpt>
      <trkpt lat="42.290446" lon="3.272321">
        <ele>19</ele>
        <time>2019-08-18T23:50:21Z</time>
      </trkpt>
      <trkpt lat="42.290423" lon="3.272321">
        <ele>22</ele>
        <time>2019-08-18T23:50:22Z</time>
      </trkpt>
      <trkpt lat="42.290376" lon="3.272315">
        <ele>22</ele>
        <time>2019-08-18T23:50:23Z</time>
      </trkpt>
      <trkpt lat="42.290354" lon="3.272308">
        <ele>22</ele>
        <time>2019-08-18T23:50:24Z</time>
      </trkpt>
      <trkpt lat="42.290333" lon="3.2723">
        <ele>22</ele>
        <time>2019-08-18T23:50:25Z</time>
      </trkpt>
      <trkpt lat="42.290311" lon="3.272293">
        <ele>22</ele>
        <time>2019-08-18T23:50:26Z</time>
      </trkpt>
      <trkpt lat="42.29029" lon="3.272286">
        <ele>22</ele>
        <time>2019-08-18T23:50:27Z</time>
      </trkpt>
      <trkpt lat="42.290268" lon="3.272279">
        <ele>22</ele>
        <time>2019-08-18T23:50:28Z</time>
      </trkpt>
      <trkpt lat="42.290247" lon="3.272272">
        <ele>22</ele>
        <time>2019-08-18T23:50:29Z</time>
      </trkpt>
      <trkpt lat="42.290225" lon="3.272264">
        <ele>22</ele>
        <time>2019-08-18T23:50:30Z</time>
      </trkpt>
      <trkpt lat="42.290204" lon="3.272257">
        <ele>22</ele>
        <time>2019-08-18T23:50:31Z</time>
      </trkpt>
      <trkpt lat="42.290182" lon="3.27225">
        <ele>23</ele>
        <time>2019-08-18T23:50:32Z</time>
      </trkpt>
      <trkpt lat="42.290141" lon="3.272218">
        <ele>23</ele>
        <time>2019-08-18T23:50:33Z</time>
      </trkpt>
      <trkpt lat="42.290122" lon="3.2722">
        <ele>23</ele>
        <time>2019-08-18T23:50:34Z</time>
      </trkpt>
      <trkpt lat="42.290104" lon="3.272182">
        <ele>23</ele>
        <time>2019-08-18T23:50:35Z</time>
      </trkpt>
      <trkpt lat="42.290085" lon="3.272164">
        <ele>23</ele>
        <time>2019-08-18T23:50:36Z</time>
      </trkpt>
      <trkpt lat="42.290067" lon="3.272146">
        <ele>23</ele>
        <time>2019-08-18T23:50:37Z</time>
      </trkpt>
      <trkpt lat="42.290049" lon="3.272129">
        <ele>23</ele>
        <time>2019-08-18T23:50:38Z</time>
      </trkpt>
      <trkpt lat="42.29003" lon="3.272111">
        <ele>23</ele>
        <time>2019-08-18T23:50:39Z</time>
      </trkpt>
      <trkpt lat="42.290012" lon="3.272093">
        <ele>23</ele>
        <time>2019-08-18T23:50:40Z</time>
      </trkpt>
      <trkpt lat="42.289993" lon="3.272075">
        <ele>23</ele>
        <time>2019-08-18T23:50:41Z</time>
      </trkpt>
      <trkpt lat="42.289975" lon="3.272057">
        <ele>24</ele>
        <time>2019-08-18T23:50:42Z</time>
      </trkpt>
      <trkpt lat="42.289934" lon="3.272022">
        <ele>24</ele>
        <time>2019-08-18T23:50:43Z</time>
      </trkpt>
      <trkpt lat="42.289914" lon="3.272005">
        <ele>24</ele>
        <time>2019-08-18T23:50:44Z</time>
      </trkpt>
      <trkpt lat="42.289894" lon="3.271989">
        <ele>24</ele>
        <time>2019-08-18T23:50:45Z</time>
      </trkpt>
      <trkpt lat="42.289874" lon="3.271973">
        <ele>24</ele>
        <time>2019-08-18T23:50:46Z</time>
      </trkpt>
      <trkpt lat="42.289855" lon="3.271956">
        <ele>24</ele>
        <time>2019-08-18T23:50:47Z</time>
      </trkpt>
      <trkpt lat="42.289835" lon="3.27194">
        <ele>24</ele>
        <time>2019-08-18T23:50:48Z</time>
      </trkpt>
      <trkpt lat="42.289815" lon="3.271924">
        <ele>24</ele>
        <time>2019-08-18T23:50:49Z</time>
      </trkpt>
      <trkpt lat="42.289795" lon="3.271908">
        <ele>24</ele>
        <time>2019-08-18T23:50:50Z</time>
      </trkpt>
      <trkpt lat="42.289775" lon="3.271891">
        <ele>24</ele>
        <time>2019-08-18T23:50:51Z</time>
      </trkpt>
      <trkpt lat="42.289755" lon="3.271875">
        <ele>26</ele>
        <time>2019-08-18T23:50:52Z</time>
      </trkpt>
      <trkpt lat="42.289714" lon="3.271843">
        <ele>26</ele>
        <time>2019-08-18T23:50:53Z</time>
      </trkpt>
      <trkpt lat="42.289695" lon="3.271827">
        <ele>26</ele>
        <time>2019-08-18T23:50:54Z</time>
      </trkpt>
      <trkpt lat="42.289676" lon="3.271812">
        <ele>26</ele>
        <time>2019-08-18T23:50:55Z</time>
      </trkpt>
      <trkpt lat="42.289657" lon="3.271797">
        <ele>26</ele>
        <time>2019-08-18T23:50:56Z</time>
      </trkpt>
      <trkpt lat="42.289638" lon="3.271781">
        <ele>26</ele>
        <time>2019-08-18T23:50:57Z</time>
      </trkpt>
      <trkpt lat="42.289618" lon="3.271766">
        <ele>26</ele>
        <time>2019-08-18T23:50:58Z</time>
      </trkpt>
      <trkpt lat="42.289599" lon="3.271751">
        <ele>26</ele>
        <time>2019-08-18T23:50:59Z</time>
      </trkpt>
      <trkpt lat="42.28958" lon="3.271736">
        <ele>26</ele>
        <time>2019-08-18T23:51:00Z</time>
      </trkpt>
      <trkpt lat="42.289561" lon="3.27172">
        <ele>26</ele>
        <time>2019-08-18T23:51:01Z</time>
      </trkpt>
      <trkpt lat="42.289542" lon="3.271705">
        <ele>27</ele>
        <time>2019-08-18T23:51:02Z</time>
      </trkpt>
      <trkpt lat="42.289504" lon="3.271673">
        <ele>27</ele>
        <time>2019-08-18T23:51:03Z</time>
      </trkpt>
      <trkpt lat="42.289487" lon="3.271656">
        <ele>27</ele>
        <time>2019-08-18T23:51:04Z</time>
      </trkpt>
      <trkpt lat="42.289469" lon="3.27164">
        <ele>27</ele>
        <time>2019-08-18T23:51:05Z</time>
      </trkpt>
      <trkpt lat="42.289452" lon="3.271623">
        <ele>27</ele>
        <time>2019-08-18T23:51:06Z</time>
      </trkpt>
      <trkpt lat="42.289435" lon="3.271607">
        <ele>27</ele>
        <time>2019-08-18T23:51:07Z</time>
      </trkpt>
      <trkpt lat="42.289418" lon="3.271591">
        <ele>27</ele>
        <time>2019-08-18T23:51:08Z</time>
      </trkpt>
      <trkpt lat="42.289401" lon="3.271574">
        <ele>27</ele>
        <time>2019-08-18T23:51:09Z</time>
      </trkpt>
      <trkpt lat="42.289383" lon="3.271558">
        <ele>27</ele>
        <time>2019-08-18T23:51:10Z</time>
      </trkpt>
      <trkpt lat="42.289366" lon="3.271541">
        <ele>27</ele>
        <time>2019-08-18T23:51:11Z</time>
      </trkpt>
      <trkpt lat="42.289349" lon="3.271525">
        <ele>28</ele>
        <time>2019-08-18T23:51:12Z</time>
      </trkpt>
      <trkpt lat="42.289317" lon="3.271483">
        <ele>28</ele>
        <time>2019-08-18T23:51:13Z</time>
      </trkpt>
      <trkpt lat="42.289304" lon="3.271461">
        <ele>28</ele>
        <time>2019-08-18T23:51:14Z</time>
      </trkpt>
      <trkpt lat="42.289292" lon="3.271439">
        <ele>28</ele>
        <time>2019-08-18T23:51:15Z</time>
      </trkpt>
      <trkpt lat="42.289279" lon="3.271417">
        <ele>28</ele>
        <time>2019-08-18T23:51:16Z</time>
      </trkpt>
      <trkpt lat="42.289266" lon="3.271394">
        <ele>28</ele>
        <time>2019-08-18T23:51:17Z</time>
      </trkpt>
      <trkpt lat="42.289253" lon="3.271372">
        <ele>28</ele>
        <time>2019-08-18T23:51:18Z</time>
      </trkpt>
      <trkpt lat="42.28924" lon="3.27135">
        <ele>28</ele>
        <time>2019-08-18T23:51:19Z</time>
      </trkpt>
      <trkpt lat="42.289228" lon="3.271328">
        <ele>28</ele>
        <time>2019-08-18T23:51:20Z</time>
      </trkpt>
      <trkpt lat="42.289215" lon="3.271306">
        <ele>28</ele>
        <time>2019-08-18T23:51:21Z</time>
      </trkpt>
      <trkpt lat="42.289202" lon="3.271284">
        <ele>31</ele>
        <time>2019-08-18T23:51:22Z</time>
      </trkpt>
      <trkpt lat="42.289187" lon="3.271233">
        <ele>31</ele>
        <time>2019-08-18T23:51:23Z</time>
      </trkpt>
      <trkpt lat="42.289181" lon="3.27121">
        <ele>31</ele>
        <time>2019-08-18T23:51:24Z</time>
      </trkpt>
      <trkpt lat="42.289175" lon="3.271186">
        <ele>31</ele>
        <time>2019-08-18T23:51:25Z</time>
      </trkpt>
      <trkpt lat="42.289169" lon="3.271163">
        <ele>31</ele>
        <time>2019-08-18T23:51:26Z</time>
      </trkpt>
      <trkpt lat="42.289163" lon="3.271139">
        <ele>31</ele>
        <time>2019-08-18T23:51:27Z</time>
      </trkpt>
      <trkpt lat="42.289157" lon="3.271115">
        <ele>31</ele>
        <time>2019-08-18T23:51:28Z</time>
      </trkpt>
      <trkpt lat="42.289151" lon="3.271092">
        <ele>31</ele>
        <time>2019-08-18T23:51:29Z</time>
      </trkpt>
      <trkpt lat="42.289145" lon="3.271068">
        <ele>31</ele>
        <time>2019-08-18T23:51:30Z</time>
      </trkpt>
      <trkpt lat="42.289139" lon="3.271045">
        <ele>31</ele>
        <time>2019-08-18T23:51:31Z</time>
      </trkpt>
      <trkpt lat="42.289133" lon="3.271021">
        <ele>32</ele>
        <time>2019-08-18T23:51:32Z</time>
      </trkpt>
      <trkpt lat="42.289122" lon="3.270967">
        <ele>32</ele>
        <time>2019-08-18T23:51:33Z</time>
      </trkpt>
      <trkpt lat="42.289117" lon="3.270941">
        <ele>32</ele>
        <time>2019-08-18T23:51:34Z</time>
      </trkpt>
      <trkpt lat="42.289111" lon="3.270914">
        <ele>32</ele>
        <time>2019-08-18T23:51:35Z</time>
      </trkpt>
      <trkpt lat="42.289106" lon="3.270888">
        <ele>32</ele>
        <time>2019-08-18T23:51:36Z</time>
      </trkpt>
      <trkpt lat="42.289101" lon="3.270862">
        <ele>32</ele>
        <time>2019-08-18T23:51:37Z</time>
      </trkpt>
      <trkpt lat="42.289096" lon="3.270836">
        <ele>32</ele>
        <time>2019-08-18T23:51:38Z</time>
      </trkpt>
      <trkpt lat="42.289091" lon="3.27081">
        <ele>32</ele>
        <time>2019-08-18T23:51:39Z</time>
      </trkpt>
      <trkpt lat="42.289085" lon="3.270783">
        <ele>32</ele>
        <time>2019-08-18T23:51:40Z</time>
      </trkpt>
      <trkpt lat="42.28908" lon="3.270757">
        <ele>32</ele>
        <time>2019-08-18T23:51:41Z</time>
      </trkpt>
      <trkpt lat="42.289075" lon="3.270731">
        <ele>34</ele>
        <time>2019-08-18T23:51:42Z</time>
      </trkpt>
      <trkpt lat="42.289064" lon="3.270675">
        <ele>34</ele>
        <time>2019-08-18T23:51:43Z</time>
      </trkpt>
      <trkpt lat="42.289058" lon="3.270649">
        <ele>34</ele>
        <time>2019-08-18T23:51:44Z</time>
      </trkpt>
      <trkpt lat="42.289053" lon="3.270622">
        <ele>34</ele>
        <time>2019-08-18T23:51:45Z</time>
      </trkpt>
      <trkpt lat="42.289047" lon="3.270596">
        <ele>34</ele>
        <time>2019-08-18T23:51:46Z</time>
      </trkpt>
      <trkpt lat="42.289042" lon="3.270569">
        <ele>34</ele>
        <time>2019-08-18T23:51:47Z</time>
      </trkpt>
      <trkpt lat="42.289037" lon="3.270543">
        <ele>34</ele>
        <time>2019-08-18T23:51:48Z</time>
      </trkpt>
      <trkpt lat="42.289031" lon="3.270516">
        <ele>34</ele>
        <time>2019-08-18T23:51:49Z</time>
      </trkpt>
      <trkpt lat="42.289026" lon="3.27049">
        <ele>34</ele>
        <time>2019-08-18T23:51:50Z</time>
      </trkpt>
      <trkpt lat="42.28902" lon="3.270463">
        <ele>34</ele>
        <time>2019-08-18T23:51:51Z</time>
      </trkpt>
      <trkpt lat="42.289015" lon="3.270437">
        <ele>36</ele>
        <time>2019-08-18T23:51:52Z</time>
      </trkpt>
      <trkpt lat="42.289012" lon="3.270381">
        <ele>36</ele>
        <time>2019-08-18T23:51:53Z</time>
      </trkpt>
      <trkpt lat="42.289013" lon="3.270354">
        <ele>36</ele>
        <time>2019-08-18T23:51:54Z</time>
      </trkpt>
      <trkpt lat="42.289015" lon="3.270328">
        <ele>36</ele>
        <time>2019-08-18T23:51:55Z</time>
      </trkpt>
      <trkpt lat="42.289016" lon="3.270302">
        <ele>36</ele>
        <time>2019-08-18T23:51:56Z</time>
      </trkpt>
      <trkpt lat="42.289017" lon="3.270276">
        <ele>36</ele>
        <time>2019-08-18T23:51:57Z</time>
      </trkpt>
      <trkpt lat="42.289018" lon="3.270249">
        <ele>36</ele>
        <time>2019-08-18T23:51:58Z</time>
      </trkpt>
      <trkpt lat="42.289019" lon="3.270223">
        <ele>36</ele>
        <time>2019-08-18T23:51:59Z</time>
      </trkpt>
      <trkpt lat="42.289021" lon="3.270197">
        <ele>36</ele>
        <time>2019-08-18T23:52:00Z</time>
      </trkpt>
      <trkpt lat="42.289022" lon="3.27017">
        <ele>36</ele>
        <time>2019-08-18T23:52:01Z</time>
      </trkpt>
      <trkpt lat="42.289023" lon="3.270144">
        <ele>37</ele>
        <time>2019-08-18T23:52:02Z</time>
      </trkpt>
      <trkpt lat="42.289038" lon="3.270094">
        <ele>37</ele>
        <time>2019-08-18T23:52:03Z</time>
      </trkpt>
      <trkpt lat="42.289048" lon="3.270074">
        <ele>37</ele>
        <time>2019-08-18T23:52:04Z</time>
      </trkpt>
      <trkpt lat="42.289058" lon="3.270053">
        <ele>37</ele>
        <time>2019-08-18T23:52:05Z</time>
      </trkpt>
      <trkpt lat="42.289068" lon="3.270033">
        <ele>37</ele>
        <time>2019-08-18T23:52:06Z</time>
      </trkpt>
      <trkpt lat="42.289078" lon="3.270012">
        <ele>37</ele>
        <time>2019-08-18T23:52:07Z</time>
      </trkpt>
      <trkpt lat="42.289087" lon="3.269991">
        <ele>37</ele>
        <time>2019-08-18T23:52:08Z</time>
      </trkpt>
      <trkpt lat="42.289097" lon="3.269971">
        <ele>37</ele>
        <time>2019-08-18T23:52:09Z</time>
      </trkpt>
      <trkpt lat="42.289107" lon="3.26995">
        <ele>37</ele>
        <time>2019-08-18T23:52:10Z</time>
      </trkpt>
      <trkpt lat="42.289117" lon="3.26993">
        <ele>37</ele>
        <time>2019-08-18T23:52:11Z</time>
      </trkpt>
      <trkpt lat="42.289127" lon="3.269909">
        <ele>39</ele>
        <time>2019-08-18T23:52:12Z</time>
      </trkpt>
      <trkpt lat="42.289161" lon="3.269891">
        <ele>39</ele>
        <time>2019-08-18T23:52:13Z</time>
      </trkpt>
      <trkpt lat="42.289179" lon="3.269886">
        <ele>39</ele>
        <time>2019-08-18T23:52:14Z</time>
      </trkpt>
      <trkpt lat="42.289197" lon="3.269882">
        <ele>39</ele>
        <time>2019-08-18T23:52:15Z</time>
      </trkpt>
      <trkpt lat="42.289215" lon="3.269877">
        <ele>39</ele>
        <time>2019-08-18T23:52:16Z</time>
      </trkpt>
      <trkpt lat="42.289233" lon="3.269873">
        <ele>39</ele>
        <time>2019-08-18T23:52:17Z</time>
      </trkpt>
      <trkpt lat="42.289251" lon="3.269869">
        <ele>39</ele>
        <time>2019-08-18T23:52:18Z</time>
      </trkpt>
      <trkpt lat="42.289269" lon="3.269864">
        <ele>39</ele>
        <time>2019-08-18T23:52:19Z</time>
      </trkpt>
      <trkpt lat="42.289287" lon="3.26986">
        <ele>39</ele>
        <time>2019-08-18T23:52:20Z</time>
      </trkpt>
      <trkpt lat="42.289305" lon="3.269855">
        <ele>39</ele>
        <time>2019-08-18T23:52:21Z</time>
      </trkpt>
      <trkpt lat="42.289323" lon="3.269851">
        <ele>40</ele>
        <time>2019-08-18T23:52:22Z</time>
      </trkpt>
      <trkpt lat="42.289365" lon="3.269856">
        <ele>40</ele>
        <time>2019-08-18T23:52:23Z</time>
      </trkpt>
      <trkpt lat="42.289385" lon="3.269858">
        <ele>40</ele>
        <time>2019-08-18T23:52:24Z</time>
      </trkpt>
      <trkpt lat="42.289404" lon="3.26986">
        <ele>40</ele>
        <time>2019-08-18T23:52:25Z</time>
      </trkpt>
      <trkpt lat="42.289424" lon="3.269862">
        <ele>40</ele>
        <time>2019-08-18T23:52:26Z</time>
      </trkpt>
      <trkpt lat="42.289444" lon="3.269864">
        <ele>40</ele>
        <time>2019-08-18T23:52:27Z</time>
      </trkpt>
      <trkpt lat="42.289464" lon="3.269867">
        <ele>40</ele>
        <time>2019-08-18T23:52:28Z</time>
      </trkpt>
      <trkpt lat="42.289484" lon="3.269869">
        <ele>40</ele>
        <time>2019-08-18T23:52:29Z</time>
      </trkpt>
      <trkpt lat="42.289503" lon="3.269871">
        <ele>40</ele>
        <time>2019-08-18T23:52:30Z</time>
      </trkpt>
      <trkpt lat="42.289523" lon="3.269873">
        <ele>40</ele>
        <time>2019-08-18T23:52:31Z</time>
      </trkpt>
      <trkpt lat="42.289543" lon="3.269875">
        <ele>43</ele>
        <time>2019-08-18T23:52:32Z</time>
      </trkpt>
      <trkpt lat="42.289585" lon="3.269882">
        <ele>43</ele>
        <time>2019-08-18T23:52:33Z</time>
      </trkpt>
      <trkpt lat="42.289605" lon="3.269884">
        <ele>43</ele>
        <time>2019-08-18T23:52:34Z</time>
      </trkpt>
      <trkpt lat="42.289624" lon="3.269887">
        <ele>43</ele>
        <time>2019-08-18T23:52:35Z</time>
      </trkpt>
      <trkpt lat="42.289644" lon="3.269889">
        <ele>43</ele>
        <time>2019-08-18T23:52:36Z</time>
      </trkpt>
      <trkpt lat="42.289664" lon="3.269892">
        <ele>43</ele>
        <time>2019-08-18T23:52:37Z</time>
      </trkpt>
      <trkpt lat="42.289684" lon="3.269895">
        <ele>43</ele>
        <time>2019-08-18T23:52:38Z</time>
      </trkpt>
      <trkpt lat="42.289704" lon="3.269897">
        <ele>43</ele>
        <time>2019-08-18T23:52:39Z</time>
      </trkpt>
      <trkpt lat="42.289723" lon="3.2699">
        <ele>43</ele>
        <time>2019-08-18T23:52:40Z</time>
      </trkpt>
      <trkpt lat="42.289743" lon="3.269902">
        <ele>43</ele>
        <time>2019-08-18T23:52:41Z</time>
      </trkpt>
      <trkpt lat="42.289763" lon="3.269905">
        <ele>44</ele>
        <time>2019-08-18T23:52:42Z</time>
      </trkpt>
      <trkpt lat="42.289805" lon="3.26991">
        <ele>44</ele>
        <time>2019-08-18T23:52:43Z</time>
      </trkpt>
      <trkpt lat="42.289825" lon="3.269912">
        <ele>44</ele>
        <time>2019-08-18T23:52:44Z</time>
      </trkpt>
      <trkpt lat="42.289845" lon="3.269913">
        <ele>44</ele>
        <time>2019-08-18T23:52:45Z</time>
      </trkpt>
      <trkpt lat="42.289865" lon="3.269915">
        <ele>44</ele>
        <time>2019-08-18T23:52:46Z</time>
      </trkpt>
      <trkpt lat="42.289885" lon="3.269917">
        <ele>44</ele>
        <time>2019-08-18T23:52:47Z</time>
      </trkpt>
      <trkpt lat="42.289904" lon="3.269919">
        <ele>44</ele>
        <time>2019-08-18T23:52:48Z</time>
      </trkpt>
      <trkpt lat="42.289924" lon="3.269921">
        <ele>44</ele>
        <time>2019-08-18T23:52:49Z</time>
      </trkpt>
      <trkpt lat="42.289944" lon="3.269922">
        <ele>44</ele>
        <time>2019-08-18T23:52:50Z</time>
      </trkpt>
      <trkpt lat="42.289964" lon="3.269924">
        <ele>44</ele>
        <time>2019-08-18T23:52:51Z</time>
      </trkpt>
      <trkpt lat="42.289984" lon="3.269926">
        <ele>44</ele>
        <time>2019-08-18T23:52:52Z</time>
      </trkpt>
      <trkpt lat="42.290026" lon="3.269932">
        <ele>44</ele>
        <time>2019-08-18T23:52:53Z</time>
      </trkpt>
      <trkpt lat="42.290048" lon="3.269935">
        <ele>44</ele>
        <time>2019-08-18T23:52:54Z</time>
      </trkpt>
      <trkpt lat="42.290069" lon="3.269937">
        <ele>44</ele>
        <time>2019-08-18T23:52:55Z</time>
      </trkpt>
      <trkpt lat="42.290091" lon="3.26994">
        <ele>44</ele>
        <time>2019-08-18T23:52:56Z</time>
      </trkpt>
      <trkpt lat="42.290112" lon="3.269942">
        <ele>44</ele>
        <time>2019-08-18T23:52:57Z</time>
      </trkpt>
      <trkpt lat="42.290133" lon="3.269945">
        <ele>44</ele>
        <time>2019-08-18T23:52:58Z</time>
      </trkpt>
      <trkpt lat="42.290155" lon="3.269947">
        <ele>44</ele>
        <time>2019-08-18T23:52:59Z</time>
      </trkpt>
      <trkpt lat="42.290176" lon="3.26995">
        <ele>44</ele>
        <time>2019-08-18T23:53:00Z</time>
      </trkpt>
      <trkpt lat="42.290198" lon="3.269952">
        <ele>44</ele>
        <time>2019-08-18T23:53:01Z</time>
      </trkpt>
      <trkpt lat="42.290219" lon="3.269955">
        <ele>46</ele>
        <time>2019-08-18T23:53:02Z</time>
      </trkpt>
      <trkpt lat="42.290264" lon="3.269964">
        <ele>46</ele>
        <time>2019-08-18T23:53:03Z</time>
      </trkpt>
      <trkpt lat="42.290285" lon="3.269969">
        <ele>46</ele>
        <time>2019-08-18T23:53:04Z</time>
      </trkpt>
      <trkpt lat="42.290305" lon="3.269973">
        <ele>46</ele>
        <time>2019-08-18T23:53:05Z</time>
      </trkpt>
      <trkpt lat="42.290325" lon="3.269978">
        <ele>46</ele>
        <time>2019-08-18T23:53:06Z</time>
      </trkpt>
      <trkpt lat="42.290346" lon="3.269983">
        <ele>46</ele>
        <time>2019-08-18T23:53:07Z</time>
      </trkpt>
      <trkpt lat="42.290366" lon="3.269988">
        <ele>46</ele>
        <time>2019-08-18T23:53:08Z</time>
      </trkpt>
      <trkpt lat="42.290386" lon="3.269993">
        <ele>46</ele>
        <time>2019-08-18T23:53:09Z</time>
      </trkpt>
      <trkpt lat="42.290406" lon="3.269997">
        <ele>46</ele>
        <time>2019-08-18T23:53:10Z</time>
      </trkpt>
      <trkpt lat="42.290427" lon="3.270002">
        <ele>46</ele>
        <time>2019-08-18T23:53:11Z</time>
      </trkpt>
      <trkpt lat="42.290447" lon="3.270007">
        <ele>48</ele>
        <time>2019-08-18T23:53:12Z</time>
      </trkpt>
      <trkpt lat="42.290487" lon="3.270026">
        <ele>48</ele>
        <time>2019-08-18T23:53:13Z</time>
      </trkpt>
      <trkpt lat="42.290506" lon="3.270037">
        <ele>48</ele>
        <time>2019-08-18T23:53:14Z</time>
      </trkpt>
      <trkpt lat="42.290524" lon="3.270048">
        <ele>48</ele>
        <time>2019-08-18T23:53:15Z</time>
      </trkpt>
      <trkpt lat="42.290543" lon="3.270059">
        <ele>48</ele>
        <time>2019-08-18T23:53:16Z</time>
      </trkpt>
      <trkpt lat="42.290561" lon="3.27007">
        <ele>48</ele>
        <time>2019-08-18T23:53:17Z</time>
      </trkpt>
      <trkpt lat="42.290579" lon="3.270082">
        <ele>48</ele>
        <time>2019-08-18T23:53:18Z</time>
      </trkpt>
      <trkpt lat="42.290598" lon="3.270093">
        <ele>48</ele>
        <time>2019-08-18T23:53:19Z</time>
      </trkpt>
      <trkpt lat="42.290616" lon="3.270104">
        <ele>48</ele>
        <time>2019-08-18T23:53:20Z</time>
      </trkpt>
      <trkpt lat="42.290635" lon="3.270115">
        <ele>48</ele>
        <time>2019-08-18T23:53:21Z</time>
      </trkpt>
      <trkpt lat="42.290653" lon="3.270126">
        <ele>49</ele>
        <time>2019-08-18T23:53:22Z</time>
      </trkpt>
      <trkpt lat="42.290689" lon="3.270155">
        <ele>49</ele>
        <time>2019-08-18T23:53:23Z</time>
      </trkpt>
      <trkpt lat="42.290706" lon="3.270169">
        <ele>49</ele>
        <time>2019-08-18T23:53:24Z</time>
      </trkpt>
      <trkpt lat="42.290723" lon="3.270182">
        <ele>49</ele>
        <time>2019-08-18T23:53:25Z</time>
      </trkpt>
      <trkpt lat="42.29074" lon="3.270196">
        <ele>49</ele>
        <time>2019-08-18T23:53:26Z</time>
      </trkpt>
      <trkpt lat="42.290758" lon="3.27021">
        <ele>49</ele>
        <time>2019-08-18T23:53:27Z</time>
      </trkpt>
      <trkpt lat="42.290775" lon="3.270224">
        <ele>49</ele>
        <time>2019-08-18T23:53:28Z</time>
      </trkpt>
      <trkpt lat="42.290792" lon="3.270238">
        <ele>49</ele>
        <time>2019-08-18T23:53:29Z</time>
      </trkpt>
      <trkpt lat="42.290809" lon="3.270251">
        <ele>49</ele>
        <time>2019-08-18T23:53:30Z</time>
      </trkpt>
      <trkpt lat="42.290826" lon="3.270265">
        <ele>49</ele>
        <time>2019-08-18T23:53:31Z</time>
      </trkpt>
      <trkpt lat="42.290843" lon="3.270279">
        <ele>51</ele>
        <time>2019-08-18T23:53:32Z</time>
      </trkpt>
      <trkpt lat="42.290882" lon="3.270299">
        <ele>51</ele>
        <time>2019-08-18T23:53:33Z</time>
      </trkpt>
      <trkpt lat="42.2909" lon="3.270306">
        <ele>51</ele>
        <time>2019-08-18T23:53:34Z</time>
      </trkpt>
      <trkpt lat="42.290919" lon="3.270312">
        <ele>51</ele>
        <time>2019-08-18T23:53:35Z</time>
      </trkpt>
      <trkpt lat="42.290937" lon="3.270319">
        <ele>51</ele>
        <time>2019-08-18T23:53:36Z</time>
      </trkpt>
      <trkpt lat="42.290956" lon="3.270326">
        <ele>51</ele>
        <time>2019-08-18T23:53:37Z</time>
      </trkpt>
      <trkpt lat="42.290974" lon="3.270333">
        <ele>51</ele>
        <time>2019-08-18T23:53:38Z</time>
      </trkpt>
      <trkpt lat="42.290993" lon="3.27034">
        <ele>51</ele>
        <time>2019-08-18T23:53:39Z</time>
      </trkpt>
      <trkpt lat="42.291011" lon="3.270346">
        <ele>51</ele>
        <time>2019-08-18T23:53:40Z</time>
      </trkpt>
      <trkpt lat="42.29103" lon="3.270353">
        <ele>51</ele>
        <time>2019-08-18T23:53:41Z</time>
      </trkpt>
      <trkpt lat="42.291048" lon="3.27036">
        <ele>52</ele>
        <time>2019-08-18T23:53:42Z</time>
      </trkpt>
      <trkpt lat="42.291091" lon="3.270365">
        <ele>52</ele>
        <time>2019-08-18T23:53:43Z</time>
      </trkpt>
      <trkpt lat="42.291113" lon="3.270365">
        <ele>52</ele>
        <time>2019-08-18T23:53:44Z</time>
      </trkpt>
      <trkpt lat="42.291135" lon="3.270364">
        <ele>52</ele>
        <time>2019-08-18T23:53:45Z</time>
      </trkpt>
      <trkpt lat="42.291157" lon="3.270364">
        <ele>52</ele>
        <time>2019-08-18T23:53:46Z</time>
      </trkpt>
      <trkpt lat="42.291179" lon="3.270364">
        <ele>52</ele>
        <time>2019-08-18T23:53:47Z</time>
      </trkpt>
      <trkpt lat="42.291201" lon="3.270364">
        <ele>52</ele>
        <time>2019-08-18T23:53:48Z</time>
      </trkpt>
      <trkpt lat="42.291223" lon="3.270364">
        <ele>52</ele>
        <time>2019-08-18T23:53:49Z</time>
      </trkpt>
      <trkpt lat="42.291245" lon="3.270363">
        <ele>52</ele>
        <time>2019-08-18T23:53:50Z</time>
      </trkpt>
      <trkpt lat="42.291267" lon="3.270363">
        <ele>52</ele>
        <time>2019-08-18T23:53:51Z</time>
      </trkpt>
      <trkpt lat="42.291289" lon="3.270363">
        <ele>53</ele>
        <time>2019-08-18T23:53:52Z</time>
      </trkpt>
      <trkpt lat="42.291336" lon="3.270349">
        <ele>53</ele>
        <time>2019-08-18T23:53:53Z</time>
      </trkpt>
      <trkpt lat="42.29136" lon="3.270343">
        <ele>53</ele>
        <time>2019-08-18T23:53:54Z</time>
      </trkpt>
      <trkpt lat="42.291383" lon="3.270336">
        <ele>53</ele>
        <time>2019-08-18T23:53:55Z</time>
      </trkpt>
      <trkpt lat="42.291406" lon="3.27033">
        <ele>53</ele>
        <time>2019-08-18T23:53:56Z</time>
      </trkpt>
      <trkpt lat="42.29143" lon="3.270323">
        <ele>53</ele>
        <time>2019-08-18T23:53:57Z</time>
      </trkpt>
      <trkpt lat="42.291453" lon="3.270316">
        <ele>53</ele>
        <time>2019-08-18T23:53:58Z</time>
      </trkpt>
      <trkpt lat="42.291476" lon="3.27031">
        <ele>53</ele>
        <time>2019-08-18T23:53:59Z</time>
      </trkpt>
      <trkpt lat="42.291499" lon="3.270303">
        <ele>53</ele>
        <time>2019-08-18T23:54:00Z</time>
      </trkpt>
      <trkpt lat="42.291523" lon="3.270297">
        <ele>53</ele>
        <time>2019-08-18T23:54:01Z</time>
      </trkpt>
      <trkpt lat="42.291546" lon="3.27029">
        <ele>54</ele>
        <time>2019-08-18T23:54:02Z</time>
      </trkpt>
      <trkpt lat="42.29159" lon="3.270281">
        <ele>54</ele>
        <time>2019-08-18T23:54:03Z</time>
      </trkpt>
      <trkpt lat="42.291609" lon="3.270278">
        <ele>54</ele>
        <time>2019-08-18T23:54:04Z</time>
      </trkpt>
      <trkpt lat="42.291629" lon="3.270276">
        <ele>54</ele>
        <time>2019-08-18T23:54:05Z</time>
      </trkpt>
      <trkpt lat="42.291649" lon="3.270273">
        <ele>54</ele>
        <time>2019-08-18T23:54:06Z</time>
      </trkpt>
      <trkpt lat="42.291669" lon="3.270271">
        <ele>54</ele>
        <time>2019-08-18T23:54:07Z</time>
      </trkpt>
      <trkpt lat="42.291688" lon="3.270268">
        <ele>54</ele>
        <time>2019-08-18T23:54:08Z</time>
      </trkpt>
      <trkpt lat="42.291708" lon="3.270266">
        <ele>54</ele>
        <time>2019-08-18T23:54:09Z</time>
      </trkpt>
      <trkpt lat="42.291728" lon="3.270263">
        <ele>54</ele>
        <time>2019-08-18T23:54:10Z</time>
      </trkpt>
      <trkpt lat="42.291747" lon="3.270261">
        <ele>54</ele>
        <time>2019-08-18T23:54:11Z</time>
      </trkpt>
      <trkpt lat="42.291767" lon="3.270258">
        <ele>56</ele>
        <time>2019-08-18T23:54:12Z</time>
      </trkpt>
      <trkpt lat="42.291809" lon="3.270252">
        <ele>56</ele>
        <time>2019-08-18T23:54:13Z</time>
      </trkpt>
      <trkpt lat="42.29183" lon="3.270249">
        <ele>56</ele>
        <time>2019-08-18T23:54:14Z</time>
      </trkpt>
      <trkpt lat="42.29185" lon="3.270247">
        <ele>56</ele>
        <time>2019-08-18T23:54:15Z</time>
      </trkpt>
      <trkpt lat="42.291871" lon="3.270244">
        <ele>56</ele>
        <time>2019-08-18T23:54:16Z</time>
      </trkpt>
      <trkpt lat="42.291891" lon="3.270242">
        <ele>56</ele>
        <time>2019-08-18T23:54:17Z</time>
      </trkpt>
      <trkpt lat="42.291911" lon="3.270239">
        <ele>56</ele>
        <time>2019-08-18T23:54:18Z</time>
      </trkpt>
      <trkpt lat="42.291932" lon="3.270237">
        <ele>56</ele>
        <time>2019-08-18T23:54:19Z</time>
      </trkpt>
      <trkpt lat="42.291952" lon="3.270234">
        <ele>56</ele>
        <time>2019-08-18T23:54:20Z</time>
      </trkpt>
      <trkpt lat="42.291973" lon="3.270232">
        <ele>56</ele>
        <time>2019-08-18T23:54:21Z</time>
      </trkpt>
      <trkpt lat="42.291993" lon="3.270229">
        <ele>60</ele>
        <time>2019-08-18T23:54:22Z</time>
      </trkpt>
      <trkpt lat="42.292035" lon="3.270221">
        <ele>60</ele>
        <time>2019-08-18T23:54:23Z</time>
      </trkpt>
      <trkpt lat="42.292054" lon="3.270214">
        <ele>60</ele>
        <time>2019-08-18T23:54:24Z</time>
      </trkpt>
      <trkpt lat="42.292074" lon="3.270208">
        <ele>60</ele>
        <time>2019-08-18T23:54:25Z</time>
      </trkpt>
      <trkpt lat="42.292093" lon="3.270201">
        <ele>60</ele>
        <time>2019-08-18T23:54:26Z</time>
      </trkpt>
      <trkpt lat="42.292113" lon="3.270195">
        <ele>60</ele>
        <time>2019-08-18T23:54:27Z</time>
      </trkpt>
      <trkpt lat="42.292133" lon="3.270188">
        <ele>60</ele>
        <time>2019-08-18T23:54:28Z</time>
      </trkpt>
      <trkpt lat="42.292152" lon="3.270182">
        <ele>60</ele>
        <time>2019-08-18T23:54:29Z</time>
      </trkpt>
      <trkpt lat="42.292172" lon="3.270175">
        <ele>60</ele>
        <time>2019-08-18T23:54:30Z</time>
      </trkpt>
      <trkpt lat="42.292191" lon="3.270169">
        <ele>60</ele>
        <time>2019-08-18T23:54:31Z</time>
      </trkpt>
      <trkpt lat="42.292211" lon="3.270162">
        <ele>60</ele>
        <time>2019-08-18T23:54:32Z</time>
      </trkpt>
      <trkpt lat="42.292248" lon="3.270131">
        <ele>60</ele>
        <time>2019-08-18T23:54:33Z</time>
      </trkpt>
      <trkpt lat="42.292265" lon="3.270114">
        <ele>60</ele>
        <time>2019-08-18T23:54:34Z</time>
      </trkpt>
      <trkpt lat="42.292282" lon="3.270097">
        <ele>60</ele>
        <time>2019-08-18T23:54:35Z</time>
      </trkpt>
      <trkpt lat="42.292299" lon="3.27008">
        <ele>60</ele>
        <time>2019-08-18T23:54:36Z</time>
      </trkpt>
      <trkpt lat="42.292317" lon="3.270064">
        <ele>60</ele>
        <time>2019-08-18T23:54:37Z</time>
      </trkpt>
      <trkpt lat="42.292334" lon="3.270047">
        <ele>60</ele>
        <time>2019-08-18T23:54:38Z</time>
      </trkpt>
      <trkpt lat="42.292351" lon="3.27003">
        <ele>60</ele>
        <time>2019-08-18T23:54:39Z</time>
      </trkpt>
      <trkpt lat="42.292368" lon="3.270013">
        <ele>60</ele>
        <time>2019-08-18T23:54:40Z</time>
      </trkpt>
      <trkpt lat="42.292385" lon="3.269996">
        <ele>60</ele>
        <time>2019-08-18T23:54:41Z</time>
      </trkpt>
      <trkpt lat="42.292402" lon="3.269979">
        <ele>61</ele>
        <time>2019-08-18T23:54:42Z</time>
      </trkpt>
      <trkpt lat="42.292439" lon="3.269952">
        <ele>61</ele>
        <time>2019-08-18T23:54:43Z</time>
      </trkpt>
      <trkpt lat="42.292457" lon="3.269942">
        <ele>61</ele>
        <time>2019-08-18T23:54:44Z</time>
      </trkpt>
      <trkpt lat="42.292476" lon="3.269933">
        <ele>61</ele>
        <time>2019-08-18T23:54:45Z</time>
      </trkpt>
      <trkpt lat="42.292494" lon="3.269923">
        <ele>61</ele>
        <time>2019-08-18T23:54:46Z</time>
      </trkpt>
      <trkpt lat="42.292513" lon="3.269913">
        <ele>61</ele>
        <time>2019-08-18T23:54:47Z</time>
      </trkpt>
      <trkpt lat="42.292532" lon="3.269903">
        <ele>61</ele>
        <time>2019-08-18T23:54:48Z</time>
      </trkpt>
      <trkpt lat="42.29255" lon="3.269893">
        <ele>61</ele>
        <time>2019-08-18T23:54:49Z</time>
      </trkpt>
      <trkpt lat="42.292569" lon="3.269884">
        <ele>61</ele>
        <time>2019-08-18T23:54:50Z</time>
      </trkpt>
      <trkpt lat="42.292587" lon="3.269874">
        <ele>61</ele>
        <time>2019-08-18T23:54:51Z</time>
      </trkpt>
      <trkpt lat="42.292606" lon="3.269864">
        <ele>62</ele>
        <time>2019-08-18T23:54:52Z</time>
      </trkpt>
      <trkpt lat="42.292646" lon="3.269852">
        <ele>62</ele>
        <time>2019-08-18T23:54:53Z</time>
      </trkpt>
      <trkpt lat="42.292664" lon="3.269845">
        <ele>62</ele>
        <time>2019-08-18T23:54:54Z</time>
      </trkpt>
      <trkpt lat="42.292683" lon="3.269839">
        <ele>62</ele>
        <time>2019-08-18T23:54:55Z</time>
      </trkpt>
      <trkpt lat="42.292701" lon="3.269833">
        <ele>62</ele>
        <time>2019-08-18T23:54:56Z</time>
      </trkpt>
      <trkpt lat="42.29272" lon="3.269827">
        <ele>62</ele>
        <time>2019-08-18T23:54:57Z</time>
      </trkpt>
      <trkpt lat="42.292738" lon="3.26982">
        <ele>62</ele>
        <time>2019-08-18T23:54:58Z</time>
      </trkpt>
      <trkpt lat="42.292757" lon="3.269814">
        <ele>62</ele>
        <time>2019-08-18T23:54:59Z</time>
      </trkpt>
      <trkpt lat="42.292775" lon="3.269808">
        <ele>62</ele>
        <time>2019-08-18T23:55:00Z</time>
      </trkpt>
      <trkpt lat="42.292794" lon="3.269801">
        <ele>62</ele>
        <time>2019-08-18T23:55:01Z</time>
      </trkpt>
      <trkpt lat="42.292812" lon="3.269795">
        <ele>63</ele>
        <time>2019-08-18T23:55:02Z</time>
      </trkpt>
      <trkpt lat="42.292844" lon="3.269761">
        <ele>63</ele>
        <time>2019-08-18T23:55:03Z</time>
      </trkpt>
      <trkpt lat="42.292857" lon="3.269737">
        <ele>63</ele>
        <time>2019-08-18T23:55:04Z</time>
      </trkpt>
      <trkpt lat="42.292869" lon="3.269714">
        <ele>63</ele>
        <time>2019-08-18T23:55:05Z</time>
      </trkpt>
      <trkpt lat="42.292882" lon="3.26969">
        <ele>63</ele>
        <time>2019-08-18T23:55:06Z</time>
      </trkpt>
      <trkpt lat="42.292894" lon="3.269667">
        <ele>63</ele>
        <time>2019-08-18T23:55:07Z</time>
      </trkpt>
      <trkpt lat="42.292907" lon="3.269643">
        <ele>63</ele>
        <time>2019-08-18T23:55:08Z</time>
      </trkpt>
      <trkpt lat="42.292919" lon="3.26962">
        <ele>63</ele>
        <time>2019-08-18T23:55:09Z</time>
      </trkpt>
      <trkpt lat="42.292932" lon="3.269596">
        <ele>63</ele>
        <time>2019-08-18T23:55:10Z</time>
      </trkpt>
      <trkpt lat="42.292944" lon="3.269573">
        <ele>65</ele>
        <time>2019-08-18T23:55:12Z</time>
      </trkpt>
      <trkpt lat="42.292934" lon="3.269514">
        <ele>65</ele>
        <time>2019-08-18T23:55:13Z</time>
      </trkpt>
      <trkpt lat="42.292927" lon="3.269487">
        <ele>65</ele>
        <time>2019-08-18T23:55:14Z</time>
      </trkpt>
      <trkpt lat="42.29292" lon="3.26946">
        <ele>65</ele>
        <time>2019-08-18T23:55:15Z</time>
      </trkpt>
      <trkpt lat="42.292913" lon="3.269433">
        <ele>65</ele>
        <time>2019-08-18T23:55:16Z</time>
      </trkpt>
      <trkpt lat="42.292907" lon="3.269406">
        <ele>65</ele>
        <time>2019-08-18T23:55:17Z</time>
      </trkpt>
      <trkpt lat="42.2929" lon="3.269379">
        <ele>65</ele>
        <time>2019-08-18T23:55:18Z</time>
      </trkpt>
      <trkpt lat="42.292893" lon="3.269352">
        <ele>65</ele>
        <time>2019-08-18T23:55:19Z</time>
      </trkpt>
      <trkpt lat="42.292886" lon="3.269325">
        <ele>65</ele>
        <time>2019-08-18T23:55:20Z</time>
      </trkpt>
      <trkpt lat="42.292879" lon="3.269298">
        <ele>65</ele>
        <time>2019-08-18T23:55:21Z</time>
      </trkpt>
      <trkpt lat="42.292872" lon="3.269271">
        <ele>67</ele>
        <time>2019-08-18T23:55:22Z</time>
      </trkpt>
      <trkpt lat="42.292854" lon="3.269219">
        <ele>67</ele>
        <time>2019-08-18T23:55:23Z</time>
      </trkpt>
      <trkpt lat="42.292846" lon="3.269194">
        <ele>67</ele>
        <time>2019-08-18T23:55:24Z</time>
      </trkpt>
      <trkpt lat="42.292837" lon="3.269169">
        <ele>67</ele>
        <time>2019-08-18T23:55:25Z</time>
      </trkpt>
      <trkpt lat="42.292829" lon="3.269144">
        <ele>67</ele>
        <time>2019-08-18T23:55:26Z</time>
      </trkpt>
      <trkpt lat="42.292821" lon="3.269118">
        <ele>67</ele>
        <time>2019-08-18T23:55:27Z</time>
      </trkpt>
      <trkpt lat="42.292813" lon="3.269093">
        <ele>67</ele>
        <time>2019-08-18T23:55:28Z</time>
      </trkpt>
      <trkpt lat="42.292805" lon="3.269068">
        <ele>67</ele>
        <time>2019-08-18T23:55:29Z</time>
      </trkpt>
      <trkpt lat="42.292796" lon="3.269043">
        <ele>67</ele>
        <time>2019-08-18T23:55:30Z</time>
      </trkpt>
      <trkpt lat="42.292788" lon="3.269018">
        <ele>67</ele>
        <time>2019-08-18T23:55:31Z</time>
      </trkpt>
      <trkpt lat="42.29278" lon="3.268993">
        <ele>69</ele>
        <time>2019-08-18T23:55:32Z</time>
      </trkpt>
      <trkpt lat="42.292767" lon="3.268938">
        <ele>69</ele>
        <time>2019-08-18T23:55:33Z</time>
      </trkpt>
      <trkpt lat="42.292763" lon="3.26891">
        <ele>69</ele>
        <time>2019-08-18T23:55:34Z</time>
      </trkpt>
      <trkpt lat="42.292759" lon="3.268883">
        <ele>69</ele>
        <time>2019-08-18T23:55:35Z</time>
      </trkpt>
      <trkpt lat="42.292755" lon="3.268856">
        <ele>69</ele>
        <time>2019-08-18T23:55:36Z</time>
      </trkpt>
      <trkpt lat="42.292751" lon="3.268828">
        <ele>69</ele>
        <time>2019-08-18T23:55:37Z</time>
      </trkpt>
      <trkpt lat="42.292747" lon="3.268801">
        <ele>69</ele>
        <time>2019-08-18T23:55:38Z</time>
      </trkpt>
      <trkpt lat="42.292743" lon="3.268774">
        <ele>69</ele>
        <time>2019-08-18T23:55:39Z</time>
      </trkpt>
      <trkpt lat="42.292739" lon="3.268747">
        <ele>69</ele>
        <time>2019-08-18T23:55:40Z</time>
      </trkpt>
      <trkpt lat="42.292735" lon="3.268719">
        <ele>69</ele>
        <time>2019-08-18T23:55:41Z</time>
      </trkpt>
      <trkpt lat="42.292731" lon="3.268692">
        <ele>69</ele>
        <time>2019-08-18T23:55:42Z</time>
      </trkpt>
      <trkpt lat="42.292729" lon="3.268635">
        <ele>69</ele>
        <time>2019-08-18T23:55:43Z</time>
      </trkpt>
      <trkpt lat="42.292729" lon="3.268608">
        <ele>69</ele>
        <time>2019-08-18T23:55:44Z</time>
      </trkpt>
      <trkpt lat="42.29273" lon="3.268581">
        <ele>69</ele>
        <time>2019-08-18T23:55:45Z</time>
      </trkpt>
      <trkpt lat="42.29273" lon="3.268554">
        <ele>69</ele>
        <time>2019-08-18T23:55:46Z</time>
      </trkpt>
      <trkpt lat="42.29273" lon="3.268527">
        <ele>69</ele>
        <time>2019-08-18T23:55:47Z</time>
      </trkpt>
      <trkpt lat="42.29273" lon="3.2685">
        <ele>69</ele>
        <time>2019-08-18T23:55:48Z</time>
      </trkpt>
      <trkpt lat="42.29273" lon="3.268473">
        <ele>69</ele>
        <time>2019-08-18T23:55:49Z</time>
      </trkpt>
      <trkpt lat="42.292731" lon="3.268446">
        <ele>69</ele>
        <time>2019-08-18T23:55:50Z</time>
      </trkpt>
      <trkpt lat="42.292731" lon="3.268419">
        <ele>69</ele>
        <time>2019-08-18T23:55:51Z</time>
      </trkpt>
      <trkpt lat="42.292731" lon="3.268392">
        <ele>70</ele>
        <time>2019-08-18T23:55:52Z</time>
      </trkpt>
      <trkpt lat="42.292731" lon="3.268334">
        <ele>70</ele>
        <time>2019-08-18T23:55:53Z</time>
      </trkpt>
      <trkpt lat="42.29273" lon="3.268307">
        <ele>70</ele>
        <time>2019-08-18T23:55:54Z</time>
      </trkpt>
      <trkpt lat="42.29273" lon="3.268279">
        <ele>70</ele>
        <time>2019-08-18T23:55:55Z</time>
      </trkpt>
      <trkpt lat="42.292729" lon="3.268252">
        <ele>70</ele>
        <time>2019-08-18T23:55:56Z</time>
      </trkpt>
      <trkpt lat="42.292729" lon="3.268224">
        <ele>70</ele>
        <time>2019-08-18T23:55:57Z</time>
      </trkpt>
      <trkpt lat="42.292729" lon="3.268196">
        <ele>70</ele>
        <time>2019-08-18T23:55:58Z</time>
      </trkpt>
      <trkpt lat="42.292728" lon="3.268169">
        <ele>70</ele>
        <time>2019-08-18T23:55:59Z</time>
      </trkpt>
      <trkpt lat="42.292728" lon="3.268141">
        <ele>70</ele>
        <time>2019-08-18T23:56:00Z</time>
      </trkpt>
      <trkpt lat="42.292727" lon="3.268114">
        <ele>70</ele>
        <time>2019-08-18T23:56:01Z</time>
      </trkpt>
      <trkpt lat="42.292727" lon="3.268086">
        <ele>72</ele>
        <time>2019-08-18T23:56:02Z</time>
      </trkpt>
      <trkpt lat="42.292727" lon="3.268028">
        <ele>72</ele>
        <time>2019-08-18T23:56:03Z</time>
      </trkpt>
      <trkpt lat="42.292727" lon="3.268">
        <ele>72</ele>
        <time>2019-08-18T23:56:04Z</time>
      </trkpt>
      <trkpt lat="42.292728" lon="3.267973">
        <ele>72</ele>
        <time>2019-08-18T23:56:05Z</time>
      </trkpt>
      <trkpt lat="42.292728" lon="3.267946">
        <ele>72</ele>
        <time>2019-08-18T23:56:06Z</time>
      </trkpt>
      <trkpt lat="42.292728" lon="3.267919">
        <ele>72</ele>
        <time>2019-08-18T23:56:07Z</time>
      </trkpt>
      <trkpt lat="42.292728" lon="3.267891">
        <ele>72</ele>
        <time>2019-08-18T23:56:08Z</time>
      </trkpt>
      <trkpt lat="42.292728" lon="3.267864">
        <ele>72</ele>
        <time>2019-08-18T23:56:09Z</time>
      </trkpt>
      <trkpt lat="42.292729" lon="3.267837">
        <ele>72</ele>
        <time>2019-08-18T23:56:10Z</time>
      </trkpt>
      <trkpt lat="42.292729" lon="3.267809">
        <ele>72</ele>
        <time>2019-08-18T23:56:11Z</time>
      </trkpt>
      <trkpt lat="42.292729" lon="3.267782">
        <ele>74</ele>
        <time>2019-08-18T23:56:12Z</time>
      </trkpt>
      <trkpt lat="42.292728" lon="3.267724">
        <ele>74</ele>
        <time>2019-08-18T23:56:13Z</time>
      </trkpt>
      <trkpt lat="42.292728" lon="3.267696">
        <ele>74</ele>
        <time>2019-08-18T23:56:14Z</time>
      </trkpt>
      <trkpt lat="42.292728" lon="3.267669">
        <ele>74</ele>
        <time>2019-08-18T23:56:15Z</time>
      </trkpt>
      <trkpt lat="42.292728" lon="3.267642">
        <ele>74</ele>
        <time>2019-08-18T23:56:16Z</time>
      </trkpt>
      <trkpt lat="42.292728" lon="3.267614">
        <ele>74</ele>
        <time>2019-08-18T23:56:17Z</time>
      </trkpt>
      <trkpt lat="42.292727" lon="3.267587">
        <ele>74</ele>
        <time>2019-08-18T23:56:18Z</time>
      </trkpt>
      <trkpt lat="42.292727" lon="3.26756">
        <ele>74</ele>
        <time>2019-08-18T23:56:19Z</time>
      </trkpt>
      <trkpt lat="42.292727" lon="3.267533">
        <ele>74</ele>
        <time>2019-08-18T23:56:20Z</time>
      </trkpt>
      <trkpt lat="42.292727" lon="3.267505">
        <ele>74</ele>
        <time>2019-08-18T23:56:21Z</time>
      </trkpt>
      <trkpt lat="42.292727" lon="3.267478">
        <ele>75</ele>
        <time>2019-08-18T23:56:22Z</time>
      </trkpt>
      <trkpt lat="42.292724" lon="3.267421">
        <ele>75</ele>
        <time>2019-08-18T23:56:23Z</time>
      </trkpt>
      <trkpt lat="42.292724" lon="3.267395">
        <ele>75</ele>
        <time>2019-08-18T23:56:24Z</time>
      </trkpt>
      <trkpt lat="42.292723" lon="3.267368">
        <ele>75</ele>
        <time>2019-08-18T23:56:25Z</time>
      </trkpt>
      <trkpt lat="42.292723" lon="3.267342">
        <ele>75</ele>
        <time>2019-08-18T23:56:26Z</time>
      </trkpt>
      <trkpt lat="42.292722" lon="3.267315">
        <ele>75</ele>
        <time>2019-08-18T23:56:27Z</time>
      </trkpt>
      <trkpt lat="42.292721" lon="3.267289">
        <ele>75</ele>
        <time>2019-08-18T23:56:28Z</time>
      </trkpt>
      <trkpt lat="42.292721" lon="3.267262">
        <ele>75</ele>
        <time>2019-08-18T23:56:29Z</time>
      </trkpt>
      <trkpt lat="42.29272" lon="3.267236">
        <ele>75</ele>
        <time>2019-08-18T23:56:30Z</time>
      </trkpt>
      <trkpt lat="42.29272" lon="3.267209">
        <ele>75</ele>
        <time>2019-08-18T23:56:31Z</time>
      </trkpt>
      <trkpt lat="42.292719" lon="3.267183">
        <ele>77</ele>
        <time>2019-08-18T23:56:32Z</time>
      </trkpt>
      <trkpt lat="42.292714" lon="3.267127">
        <ele>77</ele>
        <time>2019-08-18T23:56:33Z</time>
      </trkpt>
      <trkpt lat="42.29271" lon="3.267101">
        <ele>77</ele>
        <time>2019-08-18T23:56:34Z</time>
      </trkpt>
      <trkpt lat="42.292707" lon="3.267074">
        <ele>77</ele>
        <time>2019-08-18T23:56:35Z</time>
      </trkpt>
      <trkpt lat="42.292703" lon="3.267047">
        <ele>77</ele>
        <time>2019-08-18T23:56:36Z</time>
      </trkpt>
      <trkpt lat="42.2927" lon="3.26702">
        <ele>77</ele>
        <time>2019-08-18T23:56:37Z</time>
      </trkpt>
      <trkpt lat="42.292696" lon="3.266994">
        <ele>77</ele>
        <time>2019-08-18T23:56:38Z</time>
      </trkpt>
      <trkpt lat="42.292693" lon="3.266967">
        <ele>77</ele>
        <time>2019-08-18T23:56:39Z</time>
      </trkpt>
      <trkpt lat="42.292689" lon="3.26694">
        <ele>77</ele>
        <time>2019-08-18T23:56:40Z</time>
      </trkpt>
      <trkpt lat="42.292686" lon="3.266914">
        <ele>77</ele>
        <time>2019-08-18T23:56:41Z</time>
      </trkpt>
      <trkpt lat="42.292682" lon="3.266887">
        <ele>78</ele>
        <time>2019-08-18T23:56:42Z</time>
      </trkpt>
      <trkpt lat="42.292664" lon="3.266834">
        <ele>78</ele>
        <time>2019-08-18T23:56:43Z</time>
      </trkpt>
      <trkpt lat="42.292655" lon="3.266809">
        <ele>78</ele>
        <time>2019-08-18T23:56:44Z</time>
      </trkpt>
      <trkpt lat="42.292645" lon="3.266785">
        <ele>78</ele>
        <time>2019-08-18T23:56:45Z</time>
      </trkpt>
      <trkpt lat="42.292636" lon="3.26676">
        <ele>78</ele>
        <time>2019-08-18T23:56:46Z</time>
      </trkpt>
      <trkpt lat="42.292626" lon="3.266736">
        <ele>78</ele>
        <time>2019-08-18T23:56:47Z</time>
      </trkpt>
      <trkpt lat="42.292616" lon="3.266712">
        <ele>78</ele>
        <time>2019-08-18T23:56:48Z</time>
      </trkpt>
      <trkpt lat="42.292607" lon="3.266687">
        <ele>78</ele>
        <time>2019-08-18T23:56:49Z</time>
      </trkpt>
      <trkpt lat="42.292597" lon="3.266663">
        <ele>78</ele>
        <time>2019-08-18T23:56:50Z</time>
      </trkpt>
      <trkpt lat="42.292588" lon="3.266638">
        <ele>78</ele>
        <time>2019-08-18T23:56:51Z</time>
      </trkpt>
      <trkpt lat="42.292578" lon="3.266614">
        <ele>80</ele>
        <time>2019-08-18T23:56:52Z</time>
      </trkpt>
      <trkpt lat="42.292558" lon="3.266563">
        <ele>80</ele>
        <time>2019-08-18T23:56:53Z</time>
      </trkpt>
      <trkpt lat="42.292548" lon="3.266539">
        <ele>80</ele>
        <time>2019-08-18T23:56:54Z</time>
      </trkpt>
      <trkpt lat="42.292539" lon="3.266515">
        <ele>80</ele>
        <time>2019-08-18T23:56:55Z</time>
      </trkpt>
      <trkpt lat="42.292529" lon="3.266491">
        <ele>80</ele>
        <time>2019-08-18T23:56:56Z</time>
      </trkpt>
      <trkpt lat="42.29252" lon="3.266467">
        <ele>80</ele>
        <time>2019-08-18T23:56:57Z</time>
      </trkpt>
      <trkpt lat="42.292511" lon="3.266444">
        <ele>80</ele>
        <time>2019-08-18T23:56:58Z</time>
      </trkpt>
      <trkpt lat="42.292501" lon="3.26642">
        <ele>80</ele>
        <time>2019-08-18T23:56:59Z</time>
      </trkpt>
      <trkpt lat="42.292492" lon="3.266396">
        <ele>80</ele>
        <time>2019-08-18T23:57:00Z</time>
      </trkpt>
      <trkpt lat="42.292482" lon="3.266372">
        <ele>80</ele>
        <time>2019-08-18T23:57:01Z</time>
      </trkpt>
      <trkpt lat="42.292473" lon="3.266348">
        <ele>82</ele>
        <time>2019-08-18T23:57:02Z</time>
      </trkpt>
      <trkpt lat="42.292464" lon="3.266295">
        <ele>82</ele>
        <time>2019-08-18T23:57:03Z</time>
      </trkpt>
      <trkpt lat="42.292463" lon="3.266269">
        <ele>82</ele>
        <time>2019-08-18T23:57:04Z</time>
      </trkpt>
      <trkpt lat="42.292462" lon="3.266244">
        <ele>82</ele>
        <time>2019-08-18T23:57:05Z</time>
      </trkpt>
      <trkpt lat="42.292461" lon="3.266218">
        <ele>82</ele>
        <time>2019-08-18T23:57:06Z</time>
      </trkpt>
      <trkpt lat="42.29246" lon="3.266192">
        <ele>82</ele>
        <time>2019-08-18T23:57:07Z</time>
      </trkpt>
      <trkpt lat="42.292458" lon="3.266166">
        <ele>82</ele>
        <time>2019-08-18T23:57:08Z</time>
      </trkpt>
      <trkpt lat="42.292457" lon="3.26614">
        <ele>82</ele>
        <time>2019-08-18T23:57:09Z</time>
      </trkpt>
      <trkpt lat="42.292456" lon="3.266115">
        <ele>82</ele>
        <time>2019-08-18T23:57:10Z</time>
      </trkpt>
      <trkpt lat="42.292455" lon="3.266089">
        <ele>82</ele>
        <time>2019-08-18T23:57:11Z</time>
      </trkpt>
      <trkpt lat="42.292454" lon="3.266063">
        <ele>83</ele>
        <time>2019-08-18T23:57:12Z</time>
      </trkpt>
      <trkpt lat="42.292464" lon="3.26601">
        <ele>83</ele>
        <time>2019-08-18T23:57:13Z</time>
      </trkpt>
      <trkpt lat="42.292469" lon="3.265985">
        <ele>83</ele>
        <time>2019-08-18T23:57:14Z</time>
      </trkpt>
      <trkpt lat="42.292475" lon="3.265959">
        <ele>83</ele>
        <time>2019-08-18T23:57:15Z</time>
      </trkpt>
      <trkpt lat="42.29248" lon="3.265934">
        <ele>83</ele>
        <time>2019-08-18T23:57:16Z</time>
      </trkpt>
      <trkpt lat="42.292486" lon="3.265909">
        <ele>83</ele>
        <time>2019-08-18T23:57:17Z</time>
      </trkpt>
      <trkpt lat="42.292492" lon="3.265884">
        <ele>83</ele>
        <time>2019-08-18T23:57:18Z</time>
      </trkpt>
      <trkpt lat="42.292497" lon="3.265859">
        <ele>83</ele>
        <time>2019-08-18T23:57:19Z</time>
      </trkpt>
      <trkpt lat="42.292503" lon="3.265833">
        <ele>83</ele>
        <time>2019-08-18T23:57:20Z</time>
      </trkpt>
      <trkpt lat="42.292508" lon="3.265808">
        <ele>83</ele>
        <time>2019-08-18T23:57:21Z</time>
      </trkpt>
      <trkpt lat="42.292514" lon="3.265783">
        <ele>84</ele>
        <time>2019-08-18T23:57:22Z</time>
      </trkpt>
      <trkpt lat="42.292528" lon="3.265732">
        <ele>84</ele>
        <time>2019-08-18T23:57:23Z</time>
      </trkpt>
      <trkpt lat="42.292535" lon="3.265708">
        <ele>84</ele>
        <time>2019-08-18T23:57:24Z</time>
      </trkpt>
      <trkpt lat="42.292543" lon="3.265684">
        <ele>84</ele>
        <time>2019-08-18T23:57:25Z</time>
      </trkpt>
      <trkpt lat="42.292551" lon="3.26566">
        <ele>84</ele>
        <time>2019-08-18T23:57:26Z</time>
      </trkpt>
      <trkpt lat="42.292559" lon="3.265637">
        <ele>84</ele>
        <time>2019-08-18T23:57:27Z</time>
      </trkpt>
      <trkpt lat="42.292566" lon="3.265613">
        <ele>84</ele>
        <time>2019-08-18T23:57:28Z</time>
      </trkpt>
      <trkpt lat="42.292574" lon="3.265589">
        <ele>84</ele>
        <time>2019-08-18T23:57:29Z</time>
      </trkpt>
      <trkpt lat="42.292582" lon="3.265565">
        <ele>84</ele>
        <time>2019-08-18T23:57:30Z</time>
      </trkpt>
      <trkpt lat="42.292589" lon="3.265541">
        <ele>84</ele>
        <time>2019-08-18T23:57:31Z</time>
      </trkpt>
      <trkpt lat="42.292597" lon="3.265517">
        <ele>86</ele>
        <time>2019-08-18T23:57:32Z</time>
      </trkpt>
      <trkpt lat="42.292619" lon="3.265473">
        <ele>86</ele>
        <time>2019-08-18T23:57:33Z</time>
      </trkpt>
      <trkpt lat="42.292632" lon="3.265454">
        <ele>86</ele>
        <time>2019-08-18T23:57:34Z</time>
      </trkpt>
      <trkpt lat="42.292644" lon="3.265436">
        <ele>86</ele>
        <time>2019-08-18T23:57:35Z</time>
      </trkpt>
      <trkpt lat="42.292656" lon="3.265417">
        <ele>86</ele>
        <time>2019-08-18T23:57:36Z</time>
      </trkpt>
      <trkpt lat="42.292669" lon="3.265399">
        <ele>86</ele>
        <time>2019-08-18T23:57:37Z</time>
      </trkpt>
      <trkpt lat="42.292681" lon="3.26538">
        <ele>86</ele>
        <time>2019-08-18T23:57:38Z</time>
      </trkpt>
      <trkpt lat="42.292693" lon="3.265362">
        <ele>86</ele>
        <time>2019-08-18T23:57:39Z</time>
      </trkpt>
      <trkpt lat="42.292705" lon="3.265343">
        <ele>86</ele>
        <time>2019-08-18T23:57:40Z</time>
      </trkpt>
      <trkpt lat="42.292718" lon="3.265325">
        <ele>86</ele>
        <time>2019-08-18T23:57:41Z</time>
      </trkpt>
      <trkpt lat="42.29273" lon="3.265306">
        <ele>87</ele>
        <time>2019-08-18T23:57:42Z</time>
      </trkpt>
      <trkpt lat="42.292763" lon="3.265274">
        <ele>87</ele>
        <time>2019-08-18T23:57:43Z</time>
      </trkpt>
      <trkpt lat="42.292778" lon="3.265256">
        <ele>87</ele>
        <time>2019-08-18T23:57:44Z</time>
      </trkpt>
      <trkpt lat="42.292794" lon="3.265237">
        <ele>87</ele>
        <time>2019-08-18T23:57:45Z</time>
      </trkpt>
      <trkpt lat="42.29281" lon="3.265219">
        <ele>87</ele>
        <time>2019-08-18T23:57:46Z</time>
      </trkpt>
      <trkpt lat="42.292825" lon="3.265201">
        <ele>87</ele>
        <time>2019-08-18T23:57:47Z</time>
      </trkpt>
      <trkpt lat="42.292841" lon="3.265183">
        <ele>87</ele>
        <time>2019-08-18T23:57:48Z</time>
      </trkpt>
      <trkpt lat="42.292856" lon="3.265164">
        <ele>87</ele>
        <time>2019-08-18T23:57:50Z</time>
      </trkpt>
      <trkpt lat="42.292872" lon="3.265146">
        <ele>88</ele>
        <time>2019-08-18T23:57:52Z</time>
      </trkpt>
      <trkpt lat="42.292911" lon="3.265092">
        <ele>88</ele>
        <time>2019-08-18T23:57:54Z</time>
      </trkpt>
      <trkpt lat="42.292926" lon="3.265067">
        <ele>88</ele>
        <time>2019-08-18T23:57:56Z</time>
      </trkpt>
      <trkpt lat="42.29294" lon="3.265041">
        <ele>88</ele>
        <time>2019-08-18T23:57:58Z</time>
      </trkpt>
      <trkpt lat="42.292955" lon="3.265016">
        <ele>88</ele>
        <time>2019-08-18T23:58:00Z</time>
      </trkpt>
      <trkpt lat="42.292969" lon="3.264991">
        <ele>90</ele>
        <time>2019-08-18T23:58:02Z</time>
      </trkpt>
      <trkpt lat="42.292993" lon="3.264918">
        <ele>90</ele>
        <time>2019-08-18T23:58:04Z</time>
      </trkpt>
      <trkpt lat="42.293006" lon="3.264885">
        <ele>90</ele>
        <time>2019-08-18T23:58:06Z</time>
      </trkpt>
      <trkpt lat="42.293018" lon="3.264851">
        <ele>90</ele>
        <time>2019-08-18T23:58:10Z</time>
      </trkpt>
      <trkpt lat="42.293031" lon="3.264818">
        <ele>90</ele>
        <time>2019-08-18T23:58:11Z</time>
      </trkpt>
      <trkpt lat="42.293043" lon="3.264784">
        <ele>91</ele>
        <time>2019-08-18T23:58:12Z</time>
      </trkpt>
      <trkpt lat="42.293058" lon="3.264734">
        <ele>91</ele>
        <time>2019-08-18T23:58:13Z</time>
      </trkpt>
      <trkpt lat="42.293065" lon="3.264706">
        <ele>91</ele>
        <time>2019-08-18T23:58:14Z</time>
      </trkpt>
      <trkpt lat="42.293072" lon="3.264678">
        <ele>91</ele>
        <time>2019-08-18T23:58:15Z</time>
      </trkpt>
      <trkpt lat="42.293078" lon="3.26465">
        <ele>91</ele>
        <time>2019-08-18T23:58:17Z</time>
      </trkpt>
      <trkpt lat="42.293085" lon="3.264622">
        <ele>91</ele>
        <time>2019-08-18T23:58:19Z</time>
      </trkpt>
      <trkpt lat="42.293092" lon="3.264594">
        <ele>91</ele>
        <time>2019-08-18T23:58:21Z</time>
      </trkpt>
      <trkpt lat="42.293099" lon="3.264566">
        <ele>91</ele>
        <time>2019-08-18T23:58:22Z</time>
      </trkpt>
      <trkpt lat="42.293097" lon="3.264516">
        <ele>91</ele>
        <time>2019-08-18T23:58:23Z</time>
      </trkpt>
      <trkpt lat="42.293093" lon="3.264491">
        <ele>91</ele>
        <time>2019-08-18T23:58:24Z</time>
      </trkpt>
      <trkpt lat="42.293088" lon="3.264467">
        <ele>91</ele>
        <time>2019-08-18T23:58:25Z</time>
      </trkpt>
      <trkpt lat="42.293083" lon="3.264443">
        <ele>91</ele>
        <time>2019-08-18T23:58:26Z</time>
      </trkpt>
      <trkpt lat="42.293079" lon="3.264418">
        <ele>91</ele>
        <time>2019-08-18T23:58:27Z</time>
      </trkpt>
      <trkpt lat="42.293074" lon="3.264394">
        <ele>91</ele>
        <time>2019-08-18T23:58:28Z</time>
      </trkpt>
      <trkpt lat="42.293069" lon="3.26437">
        <ele>91</ele>
        <time>2019-08-18T23:58:29Z</time>
      </trkpt>
      <trkpt lat="42.293064" lon="3.264346">
        <ele>91</ele>
        <time>2019-08-18T23:58:30Z</time>
      </trkpt>
      <trkpt lat="42.29306" lon="3.264321">
        <ele>91</ele>
        <time>2019-08-18T23:58:31Z</time>
      </trkpt>
      <trkpt lat="42.293055" lon="3.264297">
        <ele>92</ele>
        <time>2019-08-18T23:58:32Z</time>
      </trkpt>
      <trkpt lat="42.293031" lon="3.264242">
        <ele>92</ele>
        <time>2019-08-18T23:58:33Z</time>
      </trkpt>
      <trkpt lat="42.293019" lon="3.264212">
        <ele>92</ele>
        <time>2019-08-18T23:58:34Z</time>
      </trkpt>
      <trkpt lat="42.293007" lon="3.264183">
        <ele>92</ele>
        <time>2019-08-18T23:58:35Z</time>
      </trkpt>
      <trkpt lat="42.292995" lon="3.264154">
        <ele>92</ele>
        <time>2019-08-18T23:58:36Z</time>
      </trkpt>
      <trkpt lat="42.292983" lon="3.264125">
        <ele>92</ele>
        <time>2019-08-18T23:58:37Z</time>
      </trkpt>
      <trkpt lat="42.292971" lon="3.264095">
        <ele>92</ele>
        <time>2019-08-18T23:58:38Z</time>
      </trkpt>
      <trkpt lat="42.292959" lon="3.264066">
        <ele>92</ele>
        <time>2019-08-18T23:58:41Z</time>
      </trkpt>
      <trkpt lat="42.292947" lon="3.264037">
        <ele>93</ele>
        <time>2019-08-18T23:58:42Z</time>
      </trkpt>
      <trkpt lat="42.292928" lon="3.263986">
        <ele>93</ele>
        <time>2019-08-18T23:58:43Z</time>
      </trkpt>
      <trkpt lat="42.292922" lon="3.263961">
        <ele>93</ele>
        <time>2019-08-18T23:58:44Z</time>
      </trkpt>
      <trkpt lat="42.292916" lon="3.263937">
        <ele>93</ele>
        <time>2019-08-18T23:58:45Z</time>
      </trkpt>
      <trkpt lat="42.29291" lon="3.263912">
        <ele>93</ele>
        <time>2019-08-18T23:58:46Z</time>
      </trkpt>
      <trkpt lat="42.292904" lon="3.263887">
        <ele>93</ele>
        <time>2019-08-18T23:58:47Z</time>
      </trkpt>
      <trkpt lat="42.292897" lon="3.263862">
        <ele>93</ele>
        <time>2019-08-18T23:58:48Z</time>
      </trkpt>
      <trkpt lat="42.292891" lon="3.263837">
        <ele>93</ele>
        <time>2019-08-18T23:58:49Z</time>
      </trkpt>
      <trkpt lat="42.292885" lon="3.263813">
        <ele>93</ele>
        <time>2019-08-18T23:58:50Z</time>
      </trkpt>
      <trkpt lat="42.292879" lon="3.263788">
        <ele>93</ele>
        <time>2019-08-18T23:58:51Z</time>
      </trkpt>
      <trkpt lat="42.292873" lon="3.263763">
        <ele>94</ele>
        <time>2019-08-18T23:58:52Z</time>
      </trkpt>
      <trkpt lat="42.292871" lon="3.26371">
        <ele>94</ele>
        <time>2019-08-18T23:58:53Z</time>
      </trkpt>
      <trkpt lat="42.292871" lon="3.263684">
        <ele>94</ele>
        <time>2019-08-18T23:58:54Z</time>
      </trkpt>
      <trkpt lat="42.292872" lon="3.263659">
        <ele>94</ele>
        <time>2019-08-18T23:58:55Z</time>
      </trkpt>
      <trkpt lat="42.292873" lon="3.263633">
        <ele>94</ele>
        <time>2019-08-18T23:58:56Z</time>
      </trkpt>
      <trkpt lat="42.292874" lon="3.263608">
        <ele>94</ele>
        <time>2019-08-18T23:58:57Z</time>
      </trkpt>
      <trkpt lat="42.292874" lon="3.263583">
        <ele>94</ele>
        <time>2019-08-18T23:58:58Z</time>
      </trkpt>
      <trkpt lat="42.292875" lon="3.263557">
        <ele>94</ele>
        <time>2019-08-18T23:58:59Z</time>
      </trkpt>
      <trkpt lat="42.292876" lon="3.263532">
        <ele>94</ele>
        <time>2019-08-18T23:59:00Z</time>
      </trkpt>
      <trkpt lat="42.292876" lon="3.263506">
        <ele>94</ele>
        <time>2019-08-18T23:59:01Z</time>
      </trkpt>
      <trkpt lat="42.292877" lon="3.263481">
        <ele>95</ele>
        <time>2019-08-18T23:59:02Z</time>
      </trkpt>
      <trkpt lat="42.292882" lon="3.26343">
        <ele>95</ele>
        <time>2019-08-18T23:59:03Z</time>
      </trkpt>
      <trkpt lat="42.292885" lon="3.263404">
        <ele>95</ele>
        <time>2019-08-18T23:59:04Z</time>
      </trkpt>
      <trkpt lat="42.292887" lon="3.263379">
        <ele>95</ele>
        <time>2019-08-18T23:59:05Z</time>
      </trkpt>
      <trkpt lat="42.292889" lon="3.263353">
        <ele>95</ele>
        <time>2019-08-18T23:59:06Z</time>
      </trkpt>
      <trkpt lat="42.292892" lon="3.263328">
        <ele>95</ele>
        <time>2019-08-18T23:59:07Z</time>
      </trkpt>
      <trkpt lat="42.292894" lon="3.263303">
        <ele>95</ele>
        <time>2019-08-18T23:59:08Z</time>
      </trkpt>
      <trkpt lat="42.292896" lon="3.263277">
        <ele>95</ele>
        <time>2019-08-18T23:59:09Z</time>
      </trkpt>
      <trkpt lat="42.292898" lon="3.263252">
        <ele>95</ele>
        <time>2019-08-18T23:59:10Z</time>
      </trkpt>
      <trkpt lat="42.292901" lon="3.263226">
        <ele>95</ele>
        <time>2019-08-18T23:59:11Z</time>
      </trkpt>
      <trkpt lat="42.292903" lon="3.263201">
        <ele>96</ele>
        <time>2019-08-18T23:59:12Z</time>
      </trkpt>
      <trkpt lat="42.292916" lon="3.263152">
        <ele>96</ele>
        <time>2019-08-18T23:59:13Z</time>
      </trkpt>
      <trkpt lat="42.292925" lon="3.263129">
        <ele>96</ele>
        <time>2019-08-18T23:59:14Z</time>
      </trkpt>
      <trkpt lat="42.292934" lon="3.263107">
        <ele>96</ele>
        <time>2019-08-18T23:59:15Z</time>
      </trkpt>
      <trkpt lat="42.292943" lon="3.263085">
        <ele>96</ele>
        <time>2019-08-18T23:59:16Z</time>
      </trkpt>
      <trkpt lat="42.292953" lon="3.263062">
        <ele>96</ele>
        <time>2019-08-18T23:59:18Z</time>
      </trkpt>
      <trkpt lat="42.292962" lon="3.26304">
        <ele>96</ele>
        <time>2019-08-18T23:59:19Z</time>
      </trkpt>
      <trkpt lat="42.292971" lon="3.263018">
        <ele>96</ele>
        <time>2019-08-18T23:59:20Z</time>
      </trkpt>
      <trkpt lat="42.29298" lon="3.262995">
        <ele>96</ele>
        <time>2019-08-18T23:59:21Z</time>
      </trkpt>
      <trkpt lat="42.292989" lon="3.262973">
        <ele>97</ele>
        <time>2019-08-18T23:59:22Z</time>
      </trkpt>
      <trkpt lat="42.293017" lon="3.262938">
        <ele>97</ele>
        <time>2019-08-18T23:59:23Z</time>
      </trkpt>
      <trkpt lat="42.293031" lon="3.262924">
        <ele>97</ele>
        <time>2019-08-18T23:59:24Z</time>
      </trkpt>
      <trkpt lat="42.293046" lon="3.262909">
        <ele>97</ele>
        <time>2019-08-18T23:59:25Z</time>
      </trkpt>
      <trkpt lat="42.29306" lon="3.262894">
        <ele>97</ele>
        <time>2019-08-18T23:59:26Z</time>
      </trkpt>
      <trkpt lat="42.293074" lon="3.26288">
        <ele>97</ele>
        <time>2019-08-18T23:59:27Z</time>
      </trkpt>
      <trkpt lat="42.293088" lon="3.262865">
        <ele>97</ele>
        <time>2019-08-18T23:59:28Z</time>
      </trkpt>
      <trkpt lat="42.293102" lon="3.26285">
        <ele>97</ele>
        <time>2019-08-18T23:59:29Z</time>
      </trkpt>
      <trkpt lat="42.293117" lon="3.262835">
        <ele>97</ele>
        <time>2019-08-18T23:59:30Z</time>
      </trkpt>
      <trkpt lat="42.293131" lon="3.262821">
        <ele>97</ele>
        <time>2019-08-18T23:59:31Z</time>
      </trkpt>
      <trkpt lat="42.293145" lon="3.262806">
        <ele>97</ele>
        <time>2019-08-18T23:59:32Z</time>
      </trkpt>
      <trkpt lat="42.293178" lon="3.26278">
        <ele>97</ele>
        <time>2019-08-18T23:59:33Z</time>
      </trkpt>
      <trkpt lat="42.293194" lon="3.262768">
        <ele>97</ele>
        <time>2019-08-18T23:59:34Z</time>
      </trkpt>
      <trkpt lat="42.293211" lon="3.262757">
        <ele>97</ele>
        <time>2019-08-18T23:59:35Z</time>
      </trkpt>
      <trkpt lat="42.293227" lon="3.262745">
        <ele>97</ele>
        <time>2019-08-18T23:59:36Z</time>
      </trkpt>
      <trkpt lat="42.293243" lon="3.262734">
        <ele>97</ele>
        <time>2019-08-18T23:59:37Z</time>
      </trkpt>
      <trkpt lat="42.293259" lon="3.262722">
        <ele>97</ele>
        <time>2019-08-18T23:59:38Z</time>
      </trkpt>
      <trkpt lat="42.293275" lon="3.262711">
        <ele>97</ele>
        <time>2019-08-18T23:59:39Z</time>
      </trkpt>
      <trkpt lat="42.293292" lon="3.262699">
        <ele>97</ele>
        <time>2019-08-18T23:59:40Z</time>
      </trkpt>
      <trkpt lat="42.293308" lon="3.262688">
        <ele>97</ele>
        <time>2019-08-18T23:59:41Z</time>
      </trkpt>
      <trkpt lat="42.293324" lon="3.262676">
        <ele>99</ele>
        <time>2019-08-18T23:59:42Z</time>
      </trkpt>
      <trkpt lat="42.293364" lon="3.262656">
        <ele>99</ele>
        <time>2019-08-18T23:59:43Z</time>
      </trkpt>
      <trkpt lat="42.293382" lon="3.262647">
        <ele>99</ele>
        <time>2019-08-18T23:59:44Z</time>
      </trkpt>
      <trkpt lat="42.293401" lon="3.262637">
        <ele>99</ele>
        <time>2019-08-18T23:59:45Z</time>
      </trkpt>
      <trkpt lat="42.293419" lon="3.262627">
        <ele>99</ele>
        <time>2019-08-18T23:59:46Z</time>
      </trkpt>
      <trkpt lat="42.293438" lon="3.262618">
        <ele>99</ele>
        <time>2019-08-18T23:59:47Z</time>
      </trkpt>
      <trkpt lat="42.293456" lon="3.262608">
        <ele>99</ele>
        <time>2019-08-18T23:59:48Z</time>
      </trkpt>
      <trkpt lat="42.293475" lon="3.262598">
        <ele>99</ele>
        <time>2019-08-18T23:59:49Z</time>
      </trkpt>
      <trkpt lat="42.293493" lon="3.262588">
        <ele>99</ele>
        <time>2019-08-18T23:59:50Z</time>
      </trkpt>
      <trkpt lat="42.293512" lon="3.262579">
        <ele>99</ele>
        <time>2019-08-18T23:59:51Z</time>
      </trkpt>
      <trkpt lat="42.29353" lon="3.262569">
        <ele>99</ele>
        <time>2019-08-18T23:59:52Z</time>
      </trkpt>
      <trkpt lat="42.293579" lon="3.262546">
        <ele>99</ele>
        <time>2019-08-18T23:59:53Z</time>
      </trkpt>
      <trkpt lat="42.293606" lon="3.262533">
        <ele>99</ele>
        <time>2019-08-18T23:59:54Z</time>
      </trkpt>
      <trkpt lat="42.293634" lon="3.26252">
        <ele>99</ele>
        <time>2019-08-18T23:59:58Z</time>
      </trkpt>
      <trkpt lat="42.293661" lon="3.262506">
        <ele>99</ele>
        <time>2019-08-18T23:59:59Z</time>
      </trkpt>
      <trkpt lat="42.293689" lon="3.262493">
        <ele>99</ele>
        <time>2019-08-19T00:00:00Z</time>
      </trkpt>
      <trkpt lat="42.293716" lon="3.26248">
        <ele>99</ele>
        <time>2019-08-19T00:00:01Z</time>
      </trkpt>
      <trkpt lat="42.293744" lon="3.262467">
        <ele>101</ele>
        <time>2019-08-19T00:00:02Z</time>
      </trkpt>
      <trkpt lat="42.293786" lon="3.262445">
        <ele>101</ele>
        <time>2019-08-19T00:00:03Z</time>
      </trkpt>
      <trkpt lat="42.293807" lon="3.262433">
        <ele>101</ele>
        <time>2019-08-19T00:00:04Z</time>
      </trkpt>
      <trkpt lat="42.293828" lon="3.262422">
        <ele>101</ele>
        <time>2019-08-19T00:00:05Z</time>
      </trkpt>
      <trkpt lat="42.293849" lon="3.262411">
        <ele>101</ele>
        <time>2019-08-19T00:00:06Z</time>
      </trkpt>
      <trkpt lat="42.293871" lon="3.262399">
        <ele>101</ele>
        <time>2019-08-19T00:00:07Z</time>
      </trkpt>
      <trkpt lat="42.293892" lon="3.262388">
        <ele>101</ele>
        <time>2019-08-19T00:00:09Z</time>
      </trkpt>
      <trkpt lat="42.293913" lon="3.262377">
        <ele>101</ele>
        <time>2019-08-19T00:00:10Z</time>
      </trkpt>
      <trkpt lat="42.293934" lon="3.262365">
        <ele>101</ele>
        <time>2019-08-19T00:00:11Z</time>
      </trkpt>
      <trkpt lat="42.293955" lon="3.262354">
        <ele>102</ele>
        <time>2019-08-19T00:00:12Z</time>
      </trkpt>
      <trkpt lat="42.293993" lon="3.26233">
        <ele>102</ele>
        <time>2019-08-19T00:00:13Z</time>
      </trkpt>
      <trkpt lat="42.294012" lon="3.262318">
        <ele>102</ele>
        <time>2019-08-19T00:00:14Z</time>
      </trkpt>
      <trkpt lat="42.29403" lon="3.262307">
        <ele>102</ele>
        <time>2019-08-19T00:00:15Z</time>
      </trkpt>
      <trkpt lat="42.294048" lon="3.262296">
        <ele>102</ele>
        <time>2019-08-19T00:00:16Z</time>
      </trkpt>
      <trkpt lat="42.294067" lon="3.262285">
        <ele>102</ele>
        <time>2019-08-19T00:00:17Z</time>
      </trkpt>
      <trkpt lat="42.294085" lon="3.262273">
        <ele>102</ele>
        <time>2019-08-19T00:00:18Z</time>
      </trkpt>
      <trkpt lat="42.294103" lon="3.262262">
        <ele>102</ele>
        <time>2019-08-19T00:00:19Z</time>
      </trkpt>
      <trkpt lat="42.294121" lon="3.262251">
        <ele>102</ele>
        <time>2019-08-19T00:00:20Z</time>
      </trkpt>
      <trkpt lat="42.29414" lon="3.262239">
        <ele>102</ele>
        <time>2019-08-19T00:00:21Z</time>
      </trkpt>
      <trkpt lat="42.294158" lon="3.262228">
        <ele>103</ele>
        <time>2019-08-19T00:00:22Z</time>
      </trkpt>
      <trkpt lat="42.294182" lon="3.262184">
        <ele>103</ele>
        <time>2019-08-19T00:00:23Z</time>
      </trkpt>
      <trkpt lat="42.294188" lon="3.262158">
        <ele>103</ele>
        <time>2019-08-19T00:00:24Z</time>
      </trkpt>
      <trkpt lat="42.294194" lon="3.262132">
        <ele>103</ele>
        <time>2019-08-19T00:00:25Z</time>
      </trkpt>
      <trkpt lat="42.2942" lon="3.262106">
        <ele>103</ele>
        <time>2019-08-19T00:00:26Z</time>
      </trkpt>
      <trkpt lat="42.294205" lon="3.26208">
        <ele>103</ele>
        <time>2019-08-19T00:00:27Z</time>
      </trkpt>
      <trkpt lat="42.294211" lon="3.262054">
        <ele>103</ele>
        <time>2019-08-19T00:00:28Z</time>
      </trkpt>
      <trkpt lat="42.294217" lon="3.262028">
        <ele>103</ele>
        <time>2019-08-19T00:00:30Z</time>
      </trkpt>
      <trkpt lat="42.294223" lon="3.262002">
        <ele>103</ele>
        <time>2019-08-19T00:00:32Z</time>
      </trkpt>
      <trkpt lat="42.294192" lon="3.261875">
        <ele>103</ele>
        <time>2019-08-19T00:00:33Z</time>
      </trkpt>
      <trkpt lat="42.294174" lon="3.26185">
        <ele>103</ele>
        <time>2019-08-19T00:00:34Z</time>
      </trkpt>
      <trkpt lat="42.294156" lon="3.261825">
        <ele>103</ele>
        <time>2019-08-19T00:00:35Z</time>
      </trkpt>
      <trkpt lat="42.294138" lon="3.2618">
        <ele>103</ele>
        <time>2019-08-19T00:00:36Z</time>
      </trkpt>
      <trkpt lat="42.29412" lon="3.261774">
        <ele>103</ele>
        <time>2019-08-19T00:00:38Z</time>
      </trkpt>
      <trkpt lat="42.294102" lon="3.261749">
        <ele>103</ele>
        <time>2019-08-19T00:00:39Z</time>
      </trkpt>
      <trkpt lat="42.294084" lon="3.261724">
        <ele>103</ele>
        <time>2019-08-19T00:00:40Z</time>
      </trkpt>
      <trkpt lat="42.294066" lon="3.261699">
        <ele>103</ele>
        <time>2019-08-19T00:00:41Z</time>
      </trkpt>
      <trkpt lat="42.294048" lon="3.261674">
        <ele>105</ele>
        <time>2019-08-19T00:00:42Z</time>
      </trkpt>
      <trkpt lat="42.294004" lon="3.261634">
        <ele>105</ele>
        <time>2019-08-19T00:00:43Z</time>
      </trkpt>
      <trkpt lat="42.293982" lon="3.261615">
        <ele>105</ele>
        <time>2019-08-19T00:00:44Z</time>
      </trkpt>
      <trkpt lat="42.293961" lon="3.261595">
        <ele>105</ele>
        <time>2019-08-19T00:00:45Z</time>
      </trkpt>
      <trkpt lat="42.29394" lon="3.261576">
        <ele>105</ele>
        <time>2019-08-19T00:00:46Z</time>
      </trkpt>
      <trkpt lat="42.293919" lon="3.261557">
        <ele>105</ele>
        <time>2019-08-19T00:00:47Z</time>
      </trkpt>
      <trkpt lat="42.293897" lon="3.261538">
        <ele>105</ele>
        <time>2019-08-19T00:00:48Z</time>
      </trkpt>
      <trkpt lat="42.293876" lon="3.261519">
        <ele>105</ele>
        <time>2019-08-19T00:00:49Z</time>
      </trkpt>
      <trkpt lat="42.293855" lon="3.261499">
        <ele>105</ele>
        <time>2019-08-19T00:00:50Z</time>
      </trkpt>
      <trkpt lat="42.293833" lon="3.26148">
        <ele>105</ele>
        <time>2019-08-19T00:00:51Z</time>
      </trkpt>
      <trkpt lat="42.293812" lon="3.261461">
        <ele>107</ele>
        <time>2019-08-19T00:00:52Z</time>
      </trkpt>
      <trkpt lat="42.293767" lon="3.26142">
        <ele>107</ele>
        <time>2019-08-19T00:00:53Z</time>
      </trkpt>
      <trkpt lat="42.293746" lon="3.2614">
        <ele>107</ele>
        <time>2019-08-19T00:00:54Z</time>
      </trkpt>
      <trkpt lat="42.293725" lon="3.261381">
        <ele>107</ele>
        <time>2019-08-19T00:00:55Z</time>
      </trkpt>
      <trkpt lat="42.293704" lon="3.261362">
        <ele>107</ele>
        <time>2019-08-19T00:00:56Z</time>
      </trkpt>
      <trkpt lat="42.293683" lon="3.261342">
        <ele>107</ele>
        <time>2019-08-19T00:00:57Z</time>
      </trkpt>
      <trkpt lat="42.293661" lon="3.261323">
        <ele>107</ele>
        <time>2019-08-19T00:00:58Z</time>
      </trkpt>
      <trkpt lat="42.29364" lon="3.261304">
        <ele>107</ele>
        <time>2019-08-19T00:00:59Z</time>
      </trkpt>
      <trkpt lat="42.293619" lon="3.261285">
        <ele>107</ele>
        <time>2019-08-19T00:01:00Z</time>
      </trkpt>
      <trkpt lat="42.293598" lon="3.261265">
        <ele>107</ele>
        <time>2019-08-19T00:01:01Z</time>
      </trkpt>
      <trkpt lat="42.293577" lon="3.261246">
        <ele>108</ele>
        <time>2019-08-19T00:01:02Z</time>
      </trkpt>
      <trkpt lat="42.293537" lon="3.261201">
        <ele>108</ele>
        <time>2019-08-19T00:01:03Z</time>
      </trkpt>
      <trkpt lat="42.293519" lon="3.261177">
        <ele>108</ele>
        <time>2019-08-19T00:01:04Z</time>
      </trkpt>
      <trkpt lat="42.293502" lon="3.261152">
        <ele>108</ele>
        <time>2019-08-19T00:01:05Z</time>
      </trkpt>
      <trkpt lat="42.293484" lon="3.261127">
        <ele>108</ele>
        <time>2019-08-19T00:01:06Z</time>
      </trkpt>
      <trkpt lat="42.293467" lon="3.261102">
        <ele>108</ele>
        <time>2019-08-19T00:01:07Z</time>
      </trkpt>
      <trkpt lat="42.293449" lon="3.261078">
        <ele>108</ele>
        <time>2019-08-19T00:01:08Z</time>
      </trkpt>
      <trkpt lat="42.293432" lon="3.261053">
        <ele>108</ele>
        <time>2019-08-19T00:01:09Z</time>
      </trkpt>
      <trkpt lat="42.293414" lon="3.261028">
        <ele>108</ele>
        <time>2019-08-19T00:01:10Z</time>
      </trkpt>
      <trkpt lat="42.293397" lon="3.261004">
        <ele>108</ele>
        <time>2019-08-19T00:01:11Z</time>
      </trkpt>
      <trkpt lat="42.293379" lon="3.260979">
        <ele>108</ele>
        <time>2019-08-19T00:01:12Z</time>
      </trkpt>
      <trkpt lat="42.293367" lon="3.260911">
        <ele>108</ele>
        <time>2019-08-19T00:01:13Z</time>
      </trkpt>
      <trkpt lat="42.293368" lon="3.260878">
        <ele>108</ele>
        <time>2019-08-19T00:01:14Z</time>
      </trkpt>
      <trkpt lat="42.293368" lon="3.260844">
        <ele>108</ele>
        <time>2019-08-19T00:01:15Z</time>
      </trkpt>
      <trkpt lat="42.293369" lon="3.260811">
        <ele>108</ele>
        <time>2019-08-19T00:01:16Z</time>
      </trkpt>
      <trkpt lat="42.29337" lon="3.260778">
        <ele>108</ele>
        <time>2019-08-19T00:01:17Z</time>
      </trkpt>
      <trkpt lat="42.293371" lon="3.260745">
        <ele>108</ele>
        <time>2019-08-19T00:01:18Z</time>
      </trkpt>
      <trkpt lat="42.293372" lon="3.260712">
        <ele>108</ele>
        <time>2019-08-19T00:01:19Z</time>
      </trkpt>
      <trkpt lat="42.293372" lon="3.260678">
        <ele>108</ele>
        <time>2019-08-19T00:01:20Z</time>
      </trkpt>
      <trkpt lat="42.293373" lon="3.260645">
        <ele>108</ele>
        <time>2019-08-19T00:01:21Z</time>
      </trkpt>
      <trkpt lat="42.293374" lon="3.260612">
        <ele>108</ele>
        <time>2019-08-19T00:01:22Z</time>
      </trkpt>
      <trkpt lat="42.293392" lon="3.260546">
        <ele>108</ele>
        <time>2019-08-19T00:01:23Z</time>
      </trkpt>
      <trkpt lat="42.293404" lon="3.260516">
        <ele>108</ele>
        <time>2019-08-19T00:01:24Z</time>
      </trkpt>
      <trkpt lat="42.293415" lon="3.260486">
        <ele>108</ele>
        <time>2019-08-19T00:01:25Z</time>
      </trkpt>
      <trkpt lat="42.293426" lon="3.260456">
        <ele>108</ele>
        <time>2019-08-19T00:01:26Z</time>
      </trkpt>
      <trkpt lat="42.293438" lon="3.260427">
        <ele>108</ele>
        <time>2019-08-19T00:01:27Z</time>
      </trkpt>
      <trkpt lat="42.293449" lon="3.260397">
        <ele>108</ele>
        <time>2019-08-19T00:01:28Z</time>
      </trkpt>
      <trkpt lat="42.29346" lon="3.260367">
        <ele>108</ele>
        <time>2019-08-19T00:01:29Z</time>
      </trkpt>
      <trkpt lat="42.293471" lon="3.260337">
        <ele>108</ele>
        <time>2019-08-19T00:01:30Z</time>
      </trkpt>
      <trkpt lat="42.293483" lon="3.260307">
        <ele>108</ele>
        <time>2019-08-19T00:01:31Z</time>
      </trkpt>
      <trkpt lat="42.293494" lon="3.260277">
        <ele>109</ele>
        <time>2019-08-19T00:01:32Z</time>
      </trkpt>
      <trkpt lat="42.293521" lon="3.260217">
        <ele>109</ele>
        <time>2019-08-19T00:01:33Z</time>
      </trkpt>
      <trkpt lat="42.293535" lon="3.260189">
        <ele>109</ele>
        <time>2019-08-19T00:01:34Z</time>
      </trkpt>
      <trkpt lat="42.293548" lon="3.260161">
        <ele>109</ele>
        <time>2019-08-19T00:01:35Z</time>
      </trkpt>
      <trkpt lat="42.293562" lon="3.260133">
        <ele>109</ele>
        <time>2019-08-19T00:01:36Z</time>
      </trkpt>
      <trkpt lat="42.293575" lon="3.260106">
        <ele>109</ele>
        <time>2019-08-19T00:01:37Z</time>
      </trkpt>
      <trkpt lat="42.293588" lon="3.260078">
        <ele>109</ele>
        <time>2019-08-19T00:01:38Z</time>
      </trkpt>
      <trkpt lat="42.293602" lon="3.26005">
        <ele>109</ele>
        <time>2019-08-19T00:01:39Z</time>
      </trkpt>
      <trkpt lat="42.293615" lon="3.260022">
        <ele>109</ele>
        <time>2019-08-19T00:01:40Z</time>
      </trkpt>
      <trkpt lat="42.293629" lon="3.259994">
        <ele>109</ele>
        <time>2019-08-19T00:01:41Z</time>
      </trkpt>
      <trkpt lat="42.293642" lon="3.259966">
        <ele>110</ele>
        <time>2019-08-19T00:01:42Z</time>
      </trkpt>
      <trkpt lat="42.293682" lon="3.259916">
        <ele>110</ele>
        <time>2019-08-19T00:01:43Z</time>
      </trkpt>
      <trkpt lat="42.293704" lon="3.259893">
        <ele>110</ele>
        <time>2019-08-19T00:01:44Z</time>
      </trkpt>
      <trkpt lat="42.293727" lon="3.259871">
        <ele>110</ele>
        <time>2019-08-19T00:01:45Z</time>
      </trkpt>
      <trkpt lat="42.293749" lon="3.259849">
        <ele>110</ele>
        <time>2019-08-19T00:01:46Z</time>
      </trkpt>
      <trkpt lat="42.293771" lon="3.259826">
        <ele>110</ele>
        <time>2019-08-19T00:01:47Z</time>
      </trkpt>
      <trkpt lat="42.293793" lon="3.259804">
        <ele>110</ele>
        <time>2019-08-19T00:01:48Z</time>
      </trkpt>
      <trkpt lat="42.293816" lon="3.259782">
        <ele>110</ele>
        <time>2019-08-19T00:01:49Z</time>
      </trkpt>
      <trkpt lat="42.293838" lon="3.259759">
        <ele>110</ele>
        <time>2019-08-19T00:01:51Z</time>
      </trkpt>
      <trkpt lat="42.29386" lon="3.259737">
        <ele>112</ele>
        <time>2019-08-19T00:01:52Z</time>
      </trkpt>
      <trkpt lat="42.293908" lon="3.259707">
        <ele>112</ele>
        <time>2019-08-19T00:01:53Z</time>
      </trkpt>
      <trkpt lat="42.293931" lon="3.259695">
        <ele>112</ele>
        <time>2019-08-19T00:01:54Z</time>
      </trkpt>
      <trkpt lat="42.293955" lon="3.259684">
        <ele>112</ele>
        <time>2019-08-19T00:01:55Z</time>
      </trkpt>
      <trkpt lat="42.293978" lon="3.259673">
        <ele>112</ele>
        <time>2019-08-19T00:01:56Z</time>
      </trkpt>
      <trkpt lat="42.294002" lon="3.259662">
        <ele>112</ele>
        <time>2019-08-19T00:01:57Z</time>
      </trkpt>
      <trkpt lat="42.294025" lon="3.25965">
        <ele>112</ele>
        <time>2019-08-19T00:01:58Z</time>
      </trkpt>
      <trkpt lat="42.294049" lon="3.259639">
        <ele>112</ele>
        <time>2019-08-19T00:01:59Z</time>
      </trkpt>
      <trkpt lat="42.294072" lon="3.259628">
        <ele>112</ele>
        <time>2019-08-19T00:02:00Z</time>
      </trkpt>
      <trkpt lat="42.294096" lon="3.259616">
        <ele>112</ele>
        <time>2019-08-19T00:02:01Z</time>
      </trkpt>
      <trkpt lat="42.294119" lon="3.259605">
        <ele>112</ele>
        <time>2019-08-19T00:02:02Z</time>
      </trkpt>
      <trkpt lat="42.294172" lon="3.259608">
        <ele>112</ele>
        <time>2019-08-19T00:02:03Z</time>
      </trkpt>
      <trkpt lat="42.294198" lon="3.259613">
        <ele>112</ele>
        <time>2019-08-19T00:02:04Z</time>
      </trkpt>
      <trkpt lat="42.294223" lon="3.259618">
        <ele>112</ele>
        <time>2019-08-19T00:02:05Z</time>
      </trkpt>
      <trkpt lat="42.294249" lon="3.259623">
        <ele>112</ele>
        <time>2019-08-19T00:02:06Z</time>
      </trkpt>
      <trkpt lat="42.294275" lon="3.259628">
        <ele>112</ele>
        <time>2019-08-19T00:02:07Z</time>
      </trkpt>
      <trkpt lat="42.294301" lon="3.259633">
        <ele>112</ele>
        <time>2019-08-19T00:02:08Z</time>
      </trkpt>
      <trkpt lat="42.294326" lon="3.259638">
        <ele>112</ele>
        <time>2019-08-19T00:02:10Z</time>
      </trkpt>
      <trkpt lat="42.294352" lon="3.259643">
        <ele>112</ele>
        <time>2019-08-19T00:02:11Z</time>
      </trkpt>
      <trkpt lat="42.294378" lon="3.259648">
        <ele>112</ele>
        <time>2019-08-19T00:02:12Z</time>
      </trkpt>
      <trkpt lat="42.294427" lon="3.259659">
        <ele>112</ele>
        <time>2019-08-19T00:02:13Z</time>
      </trkpt>
      <trkpt lat="42.29445" lon="3.259664">
        <ele>112</ele>
        <time>2019-08-19T00:02:14Z</time>
      </trkpt>
      <trkpt lat="42.294473" lon="3.259669">
        <ele>112</ele>
        <time>2019-08-19T00:02:15Z</time>
      </trkpt>
      <trkpt lat="42.294496" lon="3.259674">
        <ele>112</ele>
        <time>2019-08-19T00:02:16Z</time>
      </trkpt>
      <trkpt lat="42.29452" lon="3.259679">
        <ele>112</ele>
        <time>2019-08-19T00:02:17Z</time>
      </trkpt>
      <trkpt lat="42.294543" lon="3.259684">
        <ele>112</ele>
        <time>2019-08-19T00:02:18Z</time>
      </trkpt>
      <trkpt lat="42.294566" lon="3.259689">
        <ele>112</ele>
        <time>2019-08-19T00:02:19Z</time>
      </trkpt>
      <trkpt lat="42.294589" lon="3.259694">
        <ele>112</ele>
        <time>2019-08-19T00:02:20Z</time>
      </trkpt>
      <trkpt lat="42.294612" lon="3.259699">
        <ele>112</ele>
        <time>2019-08-19T00:02:21Z</time>
      </trkpt>
      <trkpt lat="42.294635" lon="3.259704">
        <ele>113</ele>
        <time>2019-08-19T00:02:22Z</time>
      </trkpt>
      <trkpt lat="42.294687" lon="3.259715">
        <ele>113</ele>
        <time>2019-08-19T00:02:23Z</time>
      </trkpt>
      <trkpt lat="42.294713" lon="3.25972">
        <ele>113</ele>
        <time>2019-08-19T00:02:24Z</time>
      </trkpt>
      <trkpt lat="42.294739" lon="3.259726">
        <ele>113</ele>
        <time>2019-08-19T00:02:25Z</time>
      </trkpt>
      <trkpt lat="42.294765" lon="3.259731">
        <ele>113</ele>
        <time>2019-08-19T00:02:26Z</time>
      </trkpt>
      <trkpt lat="42.294791" lon="3.259736">
        <ele>113</ele>
        <time>2019-08-19T00:02:27Z</time>
      </trkpt>
      <trkpt lat="42.294817" lon="3.259741">
        <ele>113</ele>
        <time>2019-08-19T00:02:29Z</time>
      </trkpt>
      <trkpt lat="42.294843" lon="3.259747">
        <ele>113</ele>
        <time>2019-08-19T00:02:30Z</time>
      </trkpt>
      <trkpt lat="42.294869" lon="3.259752">
        <ele>113</ele>
        <time>2019-08-19T00:02:31Z</time>
      </trkpt>
      <trkpt lat="42.294895" lon="3.259757">
        <ele>115</ele>
        <time>2019-08-19T00:02:32Z</time>
      </trkpt>
      <trkpt lat="42.29492" lon="3.259759">
        <ele>115</ele>
        <time>2019-08-19T00:02:33Z</time>
      </trkpt>
      <trkpt lat="42.294946" lon="3.259756">
        <ele>115</ele>
        <time>2019-08-19T00:02:34Z</time>
      </trkpt>
      <trkpt lat="42.294972" lon="3.259749">
        <ele>115</ele>
        <time>2019-08-19T00:02:35Z</time>
      </trkpt>
      <trkpt lat="42.295058" lon="3.259707">
        <ele>115</ele>
        <time>2019-08-19T00:02:38Z</time>
      </trkpt>
      <trkpt lat="42.295134" lon="3.259595">
        <ele>115</ele>
        <time>2019-08-19T00:02:42Z</time>
      </trkpt>
      <trkpt lat="42.29516" lon="3.259448">
        <ele>115</ele>
        <time>2019-08-19T00:02:46Z</time>
      </trkpt>
      <trkpt lat="42.295147" lon="3.259319">
        <ele>115</ele>
        <time>2019-08-19T00:02:49Z</time>
      </trkpt>
      <trkpt lat="42.295147" lon="3.259319">
        <ele>120</ele>
        <time>2019-08-19T00:02:52Z</time>
      </trkpt>
      <trkpt lat="42.295082" lon="3.259157">
        <ele>120</ele>
        <time>2019-08-19T00:02:53Z</time>
      </trkpt>
      <trkpt lat="42.295071" lon="3.259129">
        <ele>120</ele>
        <time>2019-08-19T00:02:54Z</time>
      </trkpt>
      <trkpt lat="42.29506" lon="3.259101">
        <ele>120</ele>
        <time>2019-08-19T00:02:55Z</time>
      </trkpt>
      <trkpt lat="42.295049" lon="3.259073">
        <ele>120</ele>
        <time>2019-08-19T00:02:56Z</time>
      </trkpt>
      <trkpt lat="42.295038" lon="3.259045">
        <ele>120</ele>
        <time>2019-08-19T00:02:57Z</time>
      </trkpt>
      <trkpt lat="42.295026" lon="3.259017">
        <ele>120</ele>
        <time>2019-08-19T00:02:58Z</time>
      </trkpt>
      <trkpt lat="42.295015" lon="3.258989">
        <ele>120</ele>
        <time>2019-08-19T00:02:59Z</time>
      </trkpt>
      <trkpt lat="42.295004" lon="3.258961">
        <ele>120</ele>
        <time>2019-08-19T00:03:00Z</time>
      </trkpt>
      <trkpt lat="42.294993" lon="3.258933">
        <ele>120</ele>
        <time>2019-08-19T00:03:01Z</time>
      </trkpt>
      <trkpt lat="42.294982" lon="3.258905">
        <ele>121</ele>
        <time>2019-08-19T00:03:02Z</time>
      </trkpt>
      <trkpt lat="42.294964" lon="3.258845">
        <ele>121</ele>
        <time>2019-08-19T00:03:03Z</time>
      </trkpt>
      <trkpt lat="42.294957" lon="3.258816">
        <ele>121</ele>
        <time>2019-08-19T00:03:04Z</time>
      </trkpt>
      <trkpt lat="42.294951" lon="3.258787">
        <ele>121</ele>
        <time>2019-08-19T00:03:05Z</time>
      </trkpt>
      <trkpt lat="42.294944" lon="3.258758">
        <ele>121</ele>
        <time>2019-08-19T00:03:06Z</time>
      </trkpt>
      <trkpt lat="42.294938" lon="3.258728">
        <ele>121</ele>
        <time>2019-08-19T00:03:07Z</time>
      </trkpt>
      <trkpt lat="42.294932" lon="3.258699">
        <ele>121</ele>
        <time>2019-08-19T00:03:08Z</time>
      </trkpt>
      <trkpt lat="42.294925" lon="3.25867">
        <ele>121</ele>
        <time>2019-08-19T00:03:09Z</time>
      </trkpt>
      <trkpt lat="42.294919" lon="3.258641">
        <ele>121</ele>
        <time>2019-08-19T00:03:10Z</time>
      </trkpt>
      <trkpt lat="42.294912" lon="3.258612">
        <ele>121</ele>
        <time>2019-08-19T00:03:11Z</time>
      </trkpt>
      <trkpt lat="42.294906" lon="3.258583">
        <ele>121</ele>
        <time>2019-08-19T00:03:12Z</time>
      </trkpt>
      <trkpt lat="42.294898" lon="3.258518">
        <ele>121</ele>
        <time>2019-08-19T00:03:13Z</time>
      </trkpt>
      <trkpt lat="42.294897" lon="3.258488">
        <ele>121</ele>
        <time>2019-08-19T00:03:14Z</time>
      </trkpt>
      <trkpt lat="42.294895" lon="3.258457">
        <ele>121</ele>
        <time>2019-08-19T00:03:15Z</time>
      </trkpt>
      <trkpt lat="42.294893" lon="3.258426">
        <ele>121</ele>
        <time>2019-08-19T00:03:16Z</time>
      </trkpt>
      <trkpt lat="42.294892" lon="3.258395">
        <ele>121</ele>
        <time>2019-08-19T00:03:17Z</time>
      </trkpt>
      <trkpt lat="42.29489" lon="3.258365">
        <ele>121</ele>
        <time>2019-08-19T00:03:18Z</time>
      </trkpt>
      <trkpt lat="42.294888" lon="3.258334">
        <ele>121</ele>
        <time>2019-08-19T00:03:19Z</time>
      </trkpt>
      <trkpt lat="42.294886" lon="3.258303">
        <ele>121</ele>
        <time>2019-08-19T00:03:20Z</time>
      </trkpt>
      <trkpt lat="42.294885" lon="3.258273">
        <ele>121</ele>
        <time>2019-08-19T00:03:21Z</time>
      </trkpt>
      <trkpt lat="42.294883" lon="3.258242">
        <ele>122</ele>
        <time>2019-08-19T00:03:22Z</time>
      </trkpt>
      <trkpt lat="42.2949" lon="3.258186">
        <ele>122</ele>
        <time>2019-08-19T00:03:23Z</time>
      </trkpt>
      <trkpt lat="42.294911" lon="3.258162">
        <ele>122</ele>
        <time>2019-08-19T00:03:24Z</time>
      </trkpt>
      <trkpt lat="42.294923" lon="3.258139">
        <ele>122</ele>
        <time>2019-08-19T00:03:25Z</time>
      </trkpt>
      <trkpt lat="42.294934" lon="3.258116">
        <ele>122</ele>
        <time>2019-08-19T00:03:26Z</time>
      </trkpt>
      <trkpt lat="42.294946" lon="3.258093">
        <ele>122</ele>
        <time>2019-08-19T00:03:27Z</time>
      </trkpt>
      <trkpt lat="42.294958" lon="3.258069">
        <ele>122</ele>
        <time>2019-08-19T00:03:28Z</time>
      </trkpt>
      <trkpt lat="42.294969" lon="3.258046">
        <ele>122</ele>
        <time>2019-08-19T00:03:29Z</time>
      </trkpt>
      <trkpt lat="42.294981" lon="3.258023">
        <ele>122</ele>
        <time>2019-08-19T00:03:30Z</time>
      </trkpt>
      <trkpt lat="42.294992" lon="3.257999">
        <ele>122</ele>
        <time>2019-08-19T00:03:31Z</time>
      </trkpt>
      <trkpt lat="42.295004" lon="3.257976">
        <ele>124</ele>
        <time>2019-08-19T00:03:32Z</time>
      </trkpt>
      <trkpt lat="42.295033" lon="3.257935">
        <ele>124</ele>
        <time>2019-08-19T00:03:33Z</time>
      </trkpt>
      <trkpt lat="42.295047" lon="3.257914">
        <ele>124</ele>
        <time>2019-08-19T00:03:34Z</time>
      </trkpt>
      <trkpt lat="42.29506" lon="3.257894">
        <ele>124</ele>
        <time>2019-08-19T00:03:35Z</time>
      </trkpt>
      <trkpt lat="42.295073" lon="3.257873">
        <ele>124</ele>
        <time>2019-08-19T00:03:36Z</time>
      </trkpt>
      <trkpt lat="42.295087" lon="3.257853">
        <ele>124</ele>
        <time>2019-08-19T00:03:37Z</time>
      </trkpt>
      <trkpt lat="42.2951" lon="3.257833">
        <ele>124</ele>
        <time>2019-08-19T00:03:38Z</time>
      </trkpt>
      <trkpt lat="42.295113" lon="3.257812">
        <ele>124</ele>
        <time>2019-08-19T00:03:39Z</time>
      </trkpt>
      <trkpt lat="42.295126" lon="3.257792">
        <ele>124</ele>
        <time>2019-08-19T00:03:40Z</time>
      </trkpt>
      <trkpt lat="42.29514" lon="3.257771">
        <ele>124</ele>
        <time>2019-08-19T00:03:41Z</time>
      </trkpt>
      <trkpt lat="42.295153" lon="3.257751">
        <ele>125</ele>
        <time>2019-08-19T00:03:42Z</time>
      </trkpt>
      <trkpt lat="42.295181" lon="3.257707">
        <ele>125</ele>
        <time>2019-08-19T00:03:43Z</time>
      </trkpt>
      <trkpt lat="42.295194" lon="3.257687">
        <ele>125</ele>
        <time>2019-08-19T00:03:44Z</time>
      </trkpt>
      <trkpt lat="42.295208" lon="3.257668">
        <ele>125</ele>
        <time>2019-08-19T00:03:45Z</time>
      </trkpt>
      <trkpt lat="42.295222" lon="3.257648">
        <ele>125</ele>
        <time>2019-08-19T00:03:46Z</time>
      </trkpt>
      <trkpt lat="42.295236" lon="3.257628">
        <ele>125</ele>
        <time>2019-08-19T00:03:47Z</time>
      </trkpt>
      <trkpt lat="42.295249" lon="3.257608">
        <ele>125</ele>
        <time>2019-08-19T00:03:48Z</time>
      </trkpt>
      <trkpt lat="42.295263" lon="3.257588">
        <ele>125</ele>
        <time>2019-08-19T00:03:49Z</time>
      </trkpt>
      <trkpt lat="42.295277" lon="3.257569">
        <ele>125</ele>
        <time>2019-08-19T00:03:50Z</time>
      </trkpt>
      <trkpt lat="42.29529" lon="3.257549">
        <ele>125</ele>
        <time>2019-08-19T00:03:51Z</time>
      </trkpt>
      <trkpt lat="42.295304" lon="3.257529">
        <ele>126</ele>
        <time>2019-08-19T00:03:52Z</time>
      </trkpt>
      <trkpt lat="42.295333" lon="3.257487">
        <ele>126</ele>
        <time>2019-08-19T00:03:53Z</time>
      </trkpt>
      <trkpt lat="42.295346" lon="3.257467">
        <ele>126</ele>
        <time>2019-08-19T00:03:54Z</time>
      </trkpt>
      <trkpt lat="42.29536" lon="3.257448">
        <ele>126</ele>
        <time>2019-08-19T00:03:55Z</time>
      </trkpt>
      <trkpt lat="42.295374" lon="3.257428">
        <ele>126</ele>
        <time>2019-08-19T00:03:56Z</time>
      </trkpt>
      <trkpt lat="42.295388" lon="3.257409">
        <ele>126</ele>
        <time>2019-08-19T00:03:57Z</time>
      </trkpt>
      <trkpt lat="42.295401" lon="3.257389">
        <ele>126</ele>
        <time>2019-08-19T00:03:58Z</time>
      </trkpt>
      <trkpt lat="42.295415" lon="3.25737">
        <ele>126</ele>
        <time>2019-08-19T00:03:59Z</time>
      </trkpt>
      <trkpt lat="42.295429" lon="3.25735">
        <ele>126</ele>
        <time>2019-08-19T00:04:00Z</time>
      </trkpt>
      <trkpt lat="42.295442" lon="3.257331">
        <ele>126</ele>
        <time>2019-08-19T00:04:01Z</time>
      </trkpt>
      <trkpt lat="42.295456" lon="3.257311">
        <ele>128</ele>
        <time>2019-08-19T00:04:02Z</time>
      </trkpt>
      <trkpt lat="42.295487" lon="3.257279">
        <ele>128</ele>
        <time>2019-08-19T00:04:03Z</time>
      </trkpt>
      <trkpt lat="42.295502" lon="3.257266">
        <ele>128</ele>
        <time>2019-08-19T00:04:04Z</time>
      </trkpt>
      <trkpt lat="42.295516" lon="3.257252">
        <ele>128</ele>
        <time>2019-08-19T00:04:05Z</time>
      </trkpt>
      <trkpt lat="42.295531" lon="3.257239">
        <ele>128</ele>
        <time>2019-08-19T00:04:06Z</time>
      </trkpt>
      <trkpt lat="42.295545" lon="3.257226">
        <ele>128</ele>
        <time>2019-08-19T00:04:07Z</time>
      </trkpt>
      <trkpt lat="42.29556" lon="3.257213">
        <ele>128</ele>
        <time>2019-08-19T00:04:08Z</time>
      </trkpt>
      <trkpt lat="42.295574" lon="3.257199">
        <ele>128</ele>
        <time>2019-08-19T00:04:09Z</time>
      </trkpt>
      <trkpt lat="42.295589" lon="3.257186">
        <ele>128</ele>
        <time>2019-08-19T00:04:10Z</time>
      </trkpt>
      <trkpt lat="42.295603" lon="3.257173">
        <ele>129</ele>
        <time>2019-08-19T00:04:12Z</time>
      </trkpt>
      <trkpt lat="42.295679" lon="3.257106">
        <ele>129</ele>
        <time>2019-08-19T00:04:14Z</time>
      </trkpt>
      <trkpt lat="42.295759" lon="3.257042">
        <ele>129</ele>
        <time>2019-08-19T00:04:18Z</time>
      </trkpt>
      <trkpt lat="42.295838" lon="3.256975">
        <ele>131</ele>
        <time>2019-08-19T00:04:22Z</time>
      </trkpt>
      <trkpt lat="42.295942" lon="3.256888">
        <ele>131</ele>
        <time>2019-08-19T00:04:26Z</time>
      </trkpt>
      <trkpt lat="42.295967" lon="3.256864">
        <ele>131</ele>
        <time>2019-08-19T00:04:30Z</time>
      </trkpt>
      <trkpt lat="42.295992" lon="3.256841">
        <ele>132</ele>
        <time>2019-08-19T00:04:32Z</time>
      </trkpt>
      <trkpt lat="42.296065" lon="3.256674">
        <ele>132</ele>
        <time>2019-08-19T00:04:34Z</time>
      </trkpt>
      <trkpt lat="42.296072" lon="3.256601">
        <ele>132</ele>
        <time>2019-08-19T00:04:38Z</time>
      </trkpt>
      <trkpt lat="42.29608" lon="3.256528">
        <ele>132</ele>
        <time>2019-08-19T00:04:42Z</time>
      </trkpt>
      <trkpt lat="42.296087" lon="3.256455">
        <ele>132</ele>
        <time>2019-08-19T00:04:43Z</time>
      </trkpt>
      <trkpt lat="42.296052" lon="3.256368">
        <ele>132</ele>
        <time>2019-08-19T00:04:45Z</time>
      </trkpt>
      <trkpt lat="42.296039" lon="3.256345">
        <ele>132</ele>
        <time>2019-08-19T00:04:46Z</time>
      </trkpt>
      <trkpt lat="42.296027" lon="3.256323">
        <ele>132</ele>
        <time>2019-08-19T00:04:47Z</time>
      </trkpt>
      <trkpt lat="42.296015" lon="3.256301">
        <ele>132</ele>
        <time>2019-08-19T00:04:48Z</time>
      </trkpt>
      <trkpt lat="42.296002" lon="3.256279">
        <ele>132</ele>
        <time>2019-08-19T00:04:49Z</time>
      </trkpt>
      <trkpt lat="42.29599" lon="3.256256">
        <ele>132</ele>
        <time>2019-08-19T00:04:50Z</time>
      </trkpt>
      <trkpt lat="42.295977" lon="3.256234">
        <ele>132</ele>
        <time>2019-08-19T00:04:51Z</time>
      </trkpt>
      <trkpt lat="42.295965" lon="3.256212">
        <ele>134</ele>
        <time>2019-08-19T00:04:52Z</time>
      </trkpt>
      <trkpt lat="42.295935" lon="3.256171">
        <ele>134</ele>
        <time>2019-08-19T00:04:53Z</time>
      </trkpt>
      <trkpt lat="42.295923" lon="3.256152">
        <ele>134</ele>
        <time>2019-08-19T00:04:54Z</time>
      </trkpt>
      <trkpt lat="42.29591" lon="3.256133">
        <ele>134</ele>
        <time>2019-08-19T00:04:55Z</time>
      </trkpt>
      <trkpt lat="42.295897" lon="3.256114">
        <ele>134</ele>
        <time>2019-08-19T00:04:56Z</time>
      </trkpt>
      <trkpt lat="42.295885" lon="3.256094">
        <ele>134</ele>
        <time>2019-08-19T00:04:57Z</time>
      </trkpt>
      <trkpt lat="42.295872" lon="3.256075">
        <ele>134</ele>
        <time>2019-08-19T00:04:58Z</time>
      </trkpt>
      <trkpt lat="42.295859" lon="3.256056">
        <ele>134</ele>
        <time>2019-08-19T00:04:59Z</time>
      </trkpt>
      <trkpt lat="42.295846" lon="3.256037">
        <ele>134</ele>
        <time>2019-08-19T00:05:00Z</time>
      </trkpt>
      <trkpt lat="42.295834" lon="3.256018">
        <ele>134</ele>
        <time>2019-08-19T00:05:01Z</time>
      </trkpt>
      <trkpt lat="42.295821" lon="3.255999">
        <ele>136</ele>
        <time>2019-08-19T00:05:02Z</time>
      </trkpt>
      <trkpt lat="42.29579" lon="3.255963">
        <ele>136</ele>
        <time>2019-08-19T00:05:03Z</time>
      </trkpt>
      <trkpt lat="42.295774" lon="3.255945">
        <ele>136</ele>
        <time>2019-08-19T00:05:05Z</time>
      </trkpt>
      <trkpt lat="42.295758" lon="3.255927">
        <ele>136</ele>
        <time>2019-08-19T00:05:07Z</time>
      </trkpt>
      <trkpt lat="42.295742" lon="3.255908">
        <ele>136</ele>
        <time>2019-08-19T00:05:08Z</time>
      </trkpt>
      <trkpt lat="42.295725" lon="3.25589">
        <ele>136</ele>
        <time>2019-08-19T00:05:09Z</time>
      </trkpt>
      <trkpt lat="42.295709" lon="3.255872">
        <ele>136</ele>
        <time>2019-08-19T00:05:10Z</time>
      </trkpt>
      <trkpt lat="42.295693" lon="3.255854">
        <ele>136</ele>
        <time>2019-08-19T00:05:11Z</time>
      </trkpt>
      <trkpt lat="42.295677" lon="3.255836">
        <ele>137</ele>
        <time>2019-08-19T00:05:12Z</time>
      </trkpt>
      <trkpt lat="42.295638" lon="3.255817">
        <ele>137</ele>
        <time>2019-08-19T00:05:13Z</time>
      </trkpt>
      <trkpt lat="42.295617" lon="3.255813">
        <ele>137</ele>
        <time>2019-08-19T00:05:14Z</time>
      </trkpt>
      <trkpt lat="42.295597" lon="3.255809">
        <ele>137</ele>
        <time>2019-08-19T00:05:15Z</time>
      </trkpt>
      <trkpt lat="42.295576" lon="3.255805">
        <ele>137</ele>
        <time>2019-08-19T00:05:16Z</time>
      </trkpt>
      <trkpt lat="42.295556" lon="3.255801">
        <ele>137</ele>
        <time>2019-08-19T00:05:17Z</time>
      </trkpt>
      <trkpt lat="42.295536" lon="3.255798">
        <ele>137</ele>
        <time>2019-08-19T00:05:18Z</time>
      </trkpt>
      <trkpt lat="42.295515" lon="3.255794">
        <ele>137</ele>
        <time>2019-08-19T00:05:19Z</time>
      </trkpt>
      <trkpt lat="42.295495" lon="3.25579">
        <ele>137</ele>
        <time>2019-08-19T00:05:20Z</time>
      </trkpt>
      <trkpt lat="42.295474" lon="3.255786">
        <ele>137</ele>
        <time>2019-08-19T00:05:21Z</time>
      </trkpt>
      <trkpt lat="42.295454" lon="3.255782">
        <ele>138</ele>
        <time>2019-08-19T00:05:22Z</time>
      </trkpt>
      <trkpt lat="42.295409" lon="3.255789">
        <ele>138</ele>
        <time>2019-08-19T00:05:23Z</time>
      </trkpt>
      <trkpt lat="42.295388" lon="3.255793">
        <ele>138</ele>
        <time>2019-08-19T00:05:24Z</time>
      </trkpt>
      <trkpt lat="42.295367" lon="3.255796">
        <ele>138</ele>
        <time>2019-08-19T00:05:25Z</time>
      </trkpt>
      <trkpt lat="42.295346" lon="3.2558">
        <ele>138</ele>
        <time>2019-08-19T00:05:26Z</time>
      </trkpt>
      <trkpt lat="42.295325" lon="3.255804">
        <ele>138</ele>
        <time>2019-08-19T00:05:27Z</time>
      </trkpt>
      <trkpt lat="42.295303" lon="3.255808">
        <ele>138</ele>
        <time>2019-08-19T00:05:28Z</time>
      </trkpt>
      <trkpt lat="42.295282" lon="3.255812">
        <ele>138</ele>
        <time>2019-08-19T00:05:29Z</time>
      </trkpt>
      <trkpt lat="42.295261" lon="3.255815">
        <ele>138</ele>
        <time>2019-08-19T00:05:30Z</time>
      </trkpt>
      <trkpt lat="42.29524" lon="3.255819">
        <ele>138</ele>
        <time>2019-08-19T00:05:31Z</time>
      </trkpt>
      <trkpt lat="42.295219" lon="3.255823">
        <ele>138</ele>
        <time>2019-08-19T00:05:32Z</time>
      </trkpt>
      <trkpt lat="42.295174" lon="3.25583">
        <ele>138</ele>
        <time>2019-08-19T00:05:33Z</time>
      </trkpt>
      <trkpt lat="42.295153" lon="3.255833">
        <ele>138</ele>
        <time>2019-08-19T00:05:34Z</time>
      </trkpt>
      <trkpt lat="42.295133" lon="3.255836">
        <ele>138</ele>
        <time>2019-08-19T00:05:35Z</time>
      </trkpt>
      <trkpt lat="42.295112" lon="3.255839">
        <ele>138</ele>
        <time>2019-08-19T00:05:36Z</time>
      </trkpt>
      <trkpt lat="42.295091" lon="3.255842">
        <ele>138</ele>
        <time>2019-08-19T00:05:37Z</time>
      </trkpt>
      <trkpt lat="42.29507" lon="3.255845">
        <ele>138</ele>
        <time>2019-08-19T00:05:38Z</time>
      </trkpt>
      <trkpt lat="42.295049" lon="3.255848">
        <ele>138</ele>
        <time>2019-08-19T00:05:39Z</time>
      </trkpt>
      <trkpt lat="42.295029" lon="3.255851">
        <ele>138</ele>
        <time>2019-08-19T00:05:40Z</time>
      </trkpt>
      <trkpt lat="42.295008" lon="3.255854">
        <ele>138</ele>
        <time>2019-08-19T00:05:41Z</time>
      </trkpt>
      <trkpt lat="42.294987" lon="3.255857">
        <ele>139</ele>
        <time>2019-08-19T00:05:42Z</time>
      </trkpt>
      <trkpt lat="42.294941" lon="3.255862">
        <ele>139</ele>
        <time>2019-08-19T00:05:43Z</time>
      </trkpt>
      <trkpt lat="42.294919" lon="3.255865">
        <ele>139</ele>
        <time>2019-08-19T00:05:44Z</time>
      </trkpt>
      <trkpt lat="42.294897" lon="3.255868">
        <ele>139</ele>
        <time>2019-08-19T00:05:45Z</time>
      </trkpt>
      <trkpt lat="42.294875" lon="3.255871">
        <ele>139</ele>
        <time>2019-08-19T00:05:46Z</time>
      </trkpt>
      <trkpt lat="42.294853" lon="3.255874">
        <ele>139</ele>
        <time>2019-08-19T00:05:47Z</time>
      </trkpt>
      <trkpt lat="42.29483" lon="3.255876">
        <ele>139</ele>
        <time>2019-08-19T00:05:48Z</time>
      </trkpt>
      <trkpt lat="42.294808" lon="3.255879">
        <ele>139</ele>
        <time>2019-08-19T00:05:49Z</time>
      </trkpt>
      <trkpt lat="42.294786" lon="3.255882">
        <ele>139</ele>
        <time>2019-08-19T00:05:50Z</time>
      </trkpt>
      <trkpt lat="42.294764" lon="3.255885">
        <ele>139</ele>
        <time>2019-08-19T00:05:51Z</time>
      </trkpt>
      <trkpt lat="42.294742" lon="3.255888">
        <ele>141</ele>
        <time>2019-08-19T00:05:52Z</time>
      </trkpt>
      <trkpt lat="42.294694" lon="3.255894">
        <ele>141</ele>
        <time>2019-08-19T00:05:53Z</time>
      </trkpt>
      <trkpt lat="42.29467" lon="3.255896">
        <ele>141</ele>
        <time>2019-08-19T00:05:54Z</time>
      </trkpt>
      <trkpt lat="42.294647" lon="3.255899">
        <ele>141</ele>
        <time>2019-08-19T00:05:55Z</time>
      </trkpt>
      <trkpt lat="42.294623" lon="3.255902">
        <ele>141</ele>
        <time>2019-08-19T00:05:56Z</time>
      </trkpt>
      <trkpt lat="42.2946" lon="3.255905">
        <ele>141</ele>
        <time>2019-08-19T00:05:57Z</time>
      </trkpt>
      <trkpt lat="42.294577" lon="3.255907">
        <ele>141</ele>
        <time>2019-08-19T00:05:58Z</time>
      </trkpt>
      <trkpt lat="42.294553" lon="3.25591">
        <ele>141</ele>
        <time>2019-08-19T00:05:59Z</time>
      </trkpt>
      <trkpt lat="42.29453" lon="3.255913">
        <ele>141</ele>
        <time>2019-08-19T00:06:00Z</time>
      </trkpt>
      <trkpt lat="42.294506" lon="3.255915">
        <ele>141</ele>
        <time>2019-08-19T00:06:01Z</time>
      </trkpt>
      <trkpt lat="42.294483" lon="3.255918">
        <ele>143</ele>
        <time>2019-08-19T00:06:02Z</time>
      </trkpt>
      <trkpt lat="42.294433" lon="3.25592">
        <ele>143</ele>
        <time>2019-08-19T00:06:03Z</time>
      </trkpt>
      <trkpt lat="42.294411" lon="3.255919">
        <ele>143</ele>
        <time>2019-08-19T00:06:04Z</time>
      </trkpt>
      <trkpt lat="42.294388" lon="3.255917">
        <ele>143</ele>
        <time>2019-08-19T00:06:05Z</time>
      </trkpt>
      <trkpt lat="42.294366" lon="3.255916">
        <ele>143</ele>
        <time>2019-08-19T00:06:06Z</time>
      </trkpt>
      <trkpt lat="42.294343" lon="3.255915">
        <ele>143</ele>
        <time>2019-08-19T00:06:07Z</time>
      </trkpt>
      <trkpt lat="42.29432" lon="3.255914">
        <ele>143</ele>
        <time>2019-08-19T00:06:08Z</time>
      </trkpt>
      <trkpt lat="42.294298" lon="3.255913">
        <ele>143</ele>
        <time>2019-08-19T00:06:09Z</time>
      </trkpt>
      <trkpt lat="42.294275" lon="3.255911">
        <ele>143</ele>
        <time>2019-08-19T00:06:10Z</time>
      </trkpt>
      <trkpt lat="42.294253" lon="3.25591">
        <ele>143</ele>
        <time>2019-08-19T00:06:11Z</time>
      </trkpt>
      <trkpt lat="42.29423" lon="3.255909">
        <ele>144</ele>
        <time>2019-08-19T00:06:12Z</time>
      </trkpt>
      <trkpt lat="42.294191" lon="3.255883">
        <ele>144</ele>
        <time>2019-08-19T00:06:13Z</time>
      </trkpt>
      <trkpt lat="42.294176" lon="3.255865">
        <ele>144</ele>
        <time>2019-08-19T00:06:14Z</time>
      </trkpt>
      <trkpt lat="42.294162" lon="3.255848">
        <ele>144</ele>
        <time>2019-08-19T00:06:15Z</time>
      </trkpt>
      <trkpt lat="42.294147" lon="3.25583">
        <ele>144</ele>
        <time>2019-08-19T00:06:16Z</time>
      </trkpt>
      <trkpt lat="42.294133" lon="3.255812">
        <ele>144</ele>
        <time>2019-08-19T00:06:17Z</time>
      </trkpt>
      <trkpt lat="42.294119" lon="3.255794">
        <ele>144</ele>
        <time>2019-08-19T00:06:18Z</time>
      </trkpt>
      <trkpt lat="42.294104" lon="3.255776">
        <ele>144</ele>
        <time>2019-08-19T00:06:19Z</time>
      </trkpt>
      <trkpt lat="42.29409" lon="3.255759">
        <ele>144</ele>
        <time>2019-08-19T00:06:20Z</time>
      </trkpt>
      <trkpt lat="42.294075" lon="3.255741">
        <ele>144</ele>
        <time>2019-08-19T00:06:21Z</time>
      </trkpt>
      <trkpt lat="42.294061" lon="3.255723">
        <ele>145</ele>
        <time>2019-08-19T00:06:22Z</time>
      </trkpt>
      <trkpt lat="42.294053" lon="3.255667">
        <ele>145</ele>
        <time>2019-08-19T00:06:23Z</time>
      </trkpt>
      <trkpt lat="42.294052" lon="3.255639">
        <ele>145</ele>
        <time>2019-08-19T00:06:24Z</time>
      </trkpt>
      <trkpt lat="42.29405" lon="3.255611">
        <ele>145</ele>
        <time>2019-08-19T00:06:25Z</time>
      </trkpt>
      <trkpt lat="42.294048" lon="3.255583">
        <ele>145</ele>
        <time>2019-08-19T00:06:26Z</time>
      </trkpt>
      <trkpt lat="42.294047" lon="3.255555">
        <ele>145</ele>
        <time>2019-08-19T00:06:27Z</time>
      </trkpt>
      <trkpt lat="42.294045" lon="3.255527">
        <ele>145</ele>
        <time>2019-08-19T00:06:28Z</time>
      </trkpt>
      <trkpt lat="42.294043" lon="3.255499">
        <ele>145</ele>
        <time>2019-08-19T00:06:29Z</time>
      </trkpt>
      <trkpt lat="42.294041" lon="3.255471">
        <ele>145</ele>
        <time>2019-08-19T00:06:30Z</time>
      </trkpt>
      <trkpt lat="42.29404" lon="3.255443">
        <ele>145</ele>
        <time>2019-08-19T00:06:31Z</time>
      </trkpt>
      <trkpt lat="42.294038" lon="3.255415">
        <ele>147</ele>
        <time>2019-08-19T00:06:32Z</time>
      </trkpt>
      <trkpt lat="42.294025" lon="3.25527">
        <ele>147</ele>
        <time>2019-08-19T00:06:35Z</time>
      </trkpt>
      <trkpt lat="42.29402" lon="3.255231">
        <ele>147</ele>
        <time>2019-08-19T00:06:39Z</time>
      </trkpt>
      <trkpt lat="42.294016" lon="3.255191">
        <ele>147</ele>
        <time>2019-08-19T00:06:40Z</time>
      </trkpt>
      <trkpt lat="42.294011" lon="3.255152">
        <ele>147</ele>
        <time>2019-08-19T00:06:41Z</time>
      </trkpt>
      <trkpt lat="42.294007" lon="3.255112">
        <ele>149</ele>
        <time>2019-08-19T00:06:42Z</time>
      </trkpt>
      <trkpt lat="42.293993" lon="3.255066">
        <ele>149</ele>
        <time>2019-08-19T00:06:43Z</time>
      </trkpt>
      <trkpt lat="42.293983" lon="3.255046">
        <ele>149</ele>
        <time>2019-08-19T00:06:44Z</time>
      </trkpt>
      <trkpt lat="42.293972" lon="3.255027">
        <ele>149</ele>
        <time>2019-08-19T00:06:45Z</time>
      </trkpt>
      <trkpt lat="42.293962" lon="3.255007">
        <ele>149</ele>
        <time>2019-08-19T00:06:46Z</time>
      </trkpt>
      <trkpt lat="42.293951" lon="3.254987">
        <ele>149</ele>
        <time>2019-08-19T00:06:47Z</time>
      </trkpt>
      <trkpt lat="42.29394" lon="3.254967">
        <ele>149</ele>
        <time>2019-08-19T00:06:48Z</time>
      </trkpt>
      <trkpt lat="42.29393" lon="3.254947">
        <ele>149</ele>
        <time>2019-08-19T00:06:49Z</time>
      </trkpt>
      <trkpt lat="42.293919" lon="3.254928">
        <ele>149</ele>
        <time>2019-08-19T00:06:50Z</time>
      </trkpt>
      <trkpt lat="42.293909" lon="3.254908">
        <ele>149</ele>
        <time>2019-08-19T00:06:51Z</time>
      </trkpt>
      <trkpt lat="42.293898" lon="3.254888">
        <ele>151</ele>
        <time>2019-08-19T00:06:52Z</time>
      </trkpt>
      <trkpt lat="42.293858" lon="3.254869">
        <ele>151</ele>
        <time>2019-08-19T00:06:53Z</time>
      </trkpt>
      <trkpt lat="42.293836" lon="3.254865">
        <ele>151</ele>
        <time>2019-08-19T00:06:54Z</time>
      </trkpt>
      <trkpt lat="42.293815" lon="3.254862">
        <ele>151</ele>
        <time>2019-08-19T00:06:55Z</time>
      </trkpt>
      <trkpt lat="42.293793" lon="3.254858">
        <ele>151</ele>
        <time>2019-08-19T00:06:56Z</time>
      </trkpt>
      <trkpt lat="42.293772" lon="3.254855">
        <ele>151</ele>
        <time>2019-08-19T00:06:57Z</time>
      </trkpt>
      <trkpt lat="42.293751" lon="3.254852">
        <ele>151</ele>
        <time>2019-08-19T00:06:58Z</time>
      </trkpt>
      <trkpt lat="42.293729" lon="3.254848">
        <ele>151</ele>
        <time>2019-08-19T00:06:59Z</time>
      </trkpt>
      <trkpt lat="42.293708" lon="3.254845">
        <ele>151</ele>
        <time>2019-08-19T00:07:00Z</time>
      </trkpt>
      <trkpt lat="42.293686" lon="3.254841">
        <ele>151</ele>
        <time>2019-08-19T00:07:01Z</time>
      </trkpt>
      <trkpt lat="42.293665" lon="3.254838">
        <ele>151</ele>
        <time>2019-08-19T00:07:02Z</time>
      </trkpt>
      <trkpt lat="42.293616" lon="3.254842">
        <ele>151</ele>
        <time>2019-08-19T00:07:03Z</time>
      </trkpt>
      <trkpt lat="42.293594" lon="3.254844">
        <ele>151</ele>
        <time>2019-08-19T00:07:04Z</time>
      </trkpt>
      <trkpt lat="42.293572" lon="3.254847">
        <ele>151</ele>
        <time>2019-08-19T00:07:05Z</time>
      </trkpt>
      <trkpt lat="42.29355" lon="3.254849">
        <ele>151</ele>
        <time>2019-08-19T00:07:06Z</time>
      </trkpt>
      <trkpt lat="42.293529" lon="3.254851">
        <ele>151</ele>
        <time>2019-08-19T00:07:07Z</time>
      </trkpt>
      <trkpt lat="42.293507" lon="3.254853">
        <ele>151</ele>
        <time>2019-08-19T00:07:08Z</time>
      </trkpt>
      <trkpt lat="42.293485" lon="3.254855">
        <ele>151</ele>
        <time>2019-08-19T00:07:09Z</time>
      </trkpt>
      <trkpt lat="42.293463" lon="3.254858">
        <ele>151</ele>
        <time>2019-08-19T00:07:10Z</time>
      </trkpt>
      <trkpt lat="42.293441" lon="3.25486">
        <ele>151</ele>
        <time>2019-08-19T00:07:11Z</time>
      </trkpt>
      <trkpt lat="42.293419" lon="3.254862">
        <ele>153</ele>
        <time>2019-08-19T00:07:12Z</time>
      </trkpt>
      <trkpt lat="42.293376" lon="3.254851">
        <ele>153</ele>
        <time>2019-08-19T00:07:13Z</time>
      </trkpt>
      <trkpt lat="42.293358" lon="3.254841">
        <ele>153</ele>
        <time>2019-08-19T00:07:14Z</time>
      </trkpt>
      <trkpt lat="42.293339" lon="3.254831">
        <ele>153</ele>
        <time>2019-08-19T00:07:15Z</time>
      </trkpt>
      <trkpt lat="42.293321" lon="3.254821">
        <ele>153</ele>
        <time>2019-08-19T00:07:16Z</time>
      </trkpt>
      <trkpt lat="42.293302" lon="3.254811">
        <ele>153</ele>
        <time>2019-08-19T00:07:17Z</time>
      </trkpt>
      <trkpt lat="42.293283" lon="3.254801">
        <ele>153</ele>
        <time>2019-08-19T00:07:18Z</time>
      </trkpt>
      <trkpt lat="42.293265" lon="3.254791">
        <ele>153</ele>
        <time>2019-08-19T00:07:19Z</time>
      </trkpt>
      <trkpt lat="42.293246" lon="3.254781">
        <ele>153</ele>
        <time>2019-08-19T00:07:20Z</time>
      </trkpt>
      <trkpt lat="42.293228" lon="3.254771">
        <ele>153</ele>
        <time>2019-08-19T00:07:21Z</time>
      </trkpt>
      <trkpt lat="42.293209" lon="3.254761">
        <ele>153</ele>
        <time>2019-08-19T00:07:22Z</time>
      </trkpt>
      <trkpt lat="42.293181" lon="3.254722">
        <ele>153</ele>
        <time>2019-08-19T00:07:23Z</time>
      </trkpt>
      <trkpt lat="42.293172" lon="3.254699">
        <ele>153</ele>
        <time>2019-08-19T00:07:24Z</time>
      </trkpt>
      <trkpt lat="42.293163" lon="3.254675">
        <ele>153</ele>
        <time>2019-08-19T00:07:25Z</time>
      </trkpt>
      <trkpt lat="42.293154" lon="3.254652">
        <ele>153</ele>
        <time>2019-08-19T00:07:26Z</time>
      </trkpt>
      <trkpt lat="42.293146" lon="3.254629">
        <ele>153</ele>
        <time>2019-08-19T00:07:27Z</time>
      </trkpt>
      <trkpt lat="42.293137" lon="3.254606">
        <ele>153</ele>
        <time>2019-08-19T00:07:28Z</time>
      </trkpt>
      <trkpt lat="42.293128" lon="3.254583">
        <ele>153</ele>
        <time>2019-08-19T00:07:29Z</time>
      </trkpt>
      <trkpt lat="42.293119" lon="3.254559">
        <ele>153</ele>
        <time>2019-08-19T00:07:30Z</time>
      </trkpt>
      <trkpt lat="42.29311" lon="3.254536">
        <ele>153</ele>
        <time>2019-08-19T00:07:31Z</time>
      </trkpt>
      <trkpt lat="42.293101" lon="3.254513">
        <ele>155</ele>
        <time>2019-08-19T00:07:32Z</time>
      </trkpt>
      <trkpt lat="42.293097" lon="3.254456">
        <ele>155</ele>
        <time>2019-08-19T00:07:33Z</time>
      </trkpt>
      <trkpt lat="42.293096" lon="3.254429">
        <ele>155</ele>
        <time>2019-08-19T00:07:34Z</time>
      </trkpt>
      <trkpt lat="42.293094" lon="3.254402">
        <ele>155</ele>
        <time>2019-08-19T00:07:35Z</time>
      </trkpt>
      <trkpt lat="42.293093" lon="3.254375">
        <ele>155</ele>
        <time>2019-08-19T00:07:36Z</time>
      </trkpt>
      <trkpt lat="42.293091" lon="3.254348">
        <ele>155</ele>
        <time>2019-08-19T00:07:37Z</time>
      </trkpt>
      <trkpt lat="42.293089" lon="3.254322">
        <ele>155</ele>
        <time>2019-08-19T00:07:38Z</time>
      </trkpt>
      <trkpt lat="42.293088" lon="3.254295">
        <ele>155</ele>
        <time>2019-08-19T00:07:39Z</time>
      </trkpt>
      <trkpt lat="42.293086" lon="3.254268">
        <ele>155</ele>
        <time>2019-08-19T00:07:40Z</time>
      </trkpt>
      <trkpt lat="42.293085" lon="3.254241">
        <ele>155</ele>
        <time>2019-08-19T00:07:41Z</time>
      </trkpt>
      <trkpt lat="42.293083" lon="3.254214">
        <ele>156</ele>
        <time>2019-08-19T00:07:42Z</time>
      </trkpt>
      <trkpt lat="42.293078" lon="3.254154">
        <ele>156</ele>
        <time>2019-08-19T00:07:43Z</time>
      </trkpt>
      <trkpt lat="42.293076" lon="3.254122">
        <ele>156</ele>
        <time>2019-08-19T00:07:44Z</time>
      </trkpt>
      <trkpt lat="42.293074" lon="3.254091">
        <ele>156</ele>
        <time>2019-08-19T00:07:45Z</time>
      </trkpt>
      <trkpt lat="42.293072" lon="3.25406">
        <ele>156</ele>
        <time>2019-08-19T00:07:46Z</time>
      </trkpt>
      <trkpt lat="42.29307" lon="3.254029">
        <ele>156</ele>
        <time>2019-08-19T00:07:47Z</time>
      </trkpt>
      <trkpt lat="42.293068" lon="3.253997">
        <ele>156</ele>
        <time>2019-08-19T00:07:48Z</time>
      </trkpt>
      <trkpt lat="42.293066" lon="3.253966">
        <ele>156</ele>
        <time>2019-08-19T00:07:49Z</time>
      </trkpt>
      <trkpt lat="42.293064" lon="3.253935">
        <ele>156</ele>
        <time>2019-08-19T00:07:50Z</time>
      </trkpt>
      <trkpt lat="42.293062" lon="3.253904">
        <ele>156</ele>
        <time>2019-08-19T00:07:51Z</time>
      </trkpt>
      <trkpt lat="42.29306" lon="3.253872">
        <ele>156</ele>
        <time>2019-08-19T00:07:52Z</time>
      </trkpt>
      <trkpt lat="42.293058" lon="3.253841">
        <ele>158</ele>
        <time>2019-08-19T00:07:53Z</time>
      </trkpt>
      <trkpt lat="42.293054" lon="3.253773">
        <ele>158</ele>
        <time>2019-08-19T00:07:54Z</time>
      </trkpt>
      <trkpt lat="42.293052" lon="3.25374">
        <ele>158</ele>
        <time>2019-08-19T00:07:55Z</time>
      </trkpt>
      <trkpt lat="42.293049" lon="3.253707">
        <ele>158</ele>
        <time>2019-08-19T00:07:56Z</time>
      </trkpt>
      <trkpt lat="42.293047" lon="3.253674">
        <ele>158</ele>
        <time>2019-08-19T00:07:57Z</time>
      </trkpt>
      <trkpt lat="42.293045" lon="3.25364">
        <ele>158</ele>
        <time>2019-08-19T00:07:58Z</time>
      </trkpt>
      <trkpt lat="42.293043" lon="3.253607">
        <ele>158</ele>
        <time>2019-08-19T00:07:59Z</time>
      </trkpt>
      <trkpt lat="42.29304" lon="3.253574">
        <ele>158</ele>
        <time>2019-08-19T00:08:00Z</time>
      </trkpt>
      <trkpt lat="42.293038" lon="3.253541">
        <ele>158</ele>
        <time>2019-08-19T00:08:01Z</time>
      </trkpt>
      <trkpt lat="42.293036" lon="3.253508">
        <ele>158</ele>
        <time>2019-08-19T00:08:02Z</time>
      </trkpt>
      <trkpt lat="42.293034" lon="3.253436">
        <ele>158</ele>
        <time>2019-08-19T00:08:03Z</time>
      </trkpt>
      <trkpt lat="42.293034" lon="3.253402">
        <ele>158</ele>
        <time>2019-08-19T00:08:04Z</time>
      </trkpt>
      <trkpt lat="42.293033" lon="3.253367">
        <ele>158</ele>
        <time>2019-08-19T00:08:05Z</time>
      </trkpt>
      <trkpt lat="42.293033" lon="3.253333">
        <ele>158</ele>
        <time>2019-08-19T00:08:06Z</time>
      </trkpt>
      <trkpt lat="42.293033" lon="3.253299">
        <ele>158</ele>
        <time>2019-08-19T00:08:07Z</time>
      </trkpt>
      <trkpt lat="42.293033" lon="3.253265">
        <ele>158</ele>
        <time>2019-08-19T00:08:08Z</time>
      </trkpt>
      <trkpt lat="42.293033" lon="3.253231">
        <ele>158</ele>
        <time>2019-08-19T00:08:09Z</time>
      </trkpt>
      <trkpt lat="42.293032" lon="3.253196">
        <ele>158</ele>
        <time>2019-08-19T00:08:10Z</time>
      </trkpt>
      <trkpt lat="42.293032" lon="3.253162">
        <ele>158</ele>
        <time>2019-08-19T00:08:11Z</time>
      </trkpt>
      <trkpt lat="42.293032" lon="3.253128">
        <ele>160</ele>
        <time>2019-08-19T00:08:12Z</time>
      </trkpt>
      <trkpt lat="42.29304" lon="3.253057">
        <ele>160</ele>
        <time>2019-08-19T00:08:13Z</time>
      </trkpt>
      <trkpt lat="42.293045" lon="3.253023">
        <ele>160</ele>
        <time>2019-08-19T00:08:14Z</time>
      </trkpt>
      <trkpt lat="42.293049" lon="3.25299">
        <ele>160</ele>
        <time>2019-08-19T00:08:15Z</time>
      </trkpt>
      <trkpt lat="42.293054" lon="3.252956">
        <ele>160</ele>
        <time>2019-08-19T00:08:16Z</time>
      </trkpt>
      <trkpt lat="42.293059" lon="3.252922">
        <ele>160</ele>
        <time>2019-08-19T00:08:17Z</time>
      </trkpt>
      <trkpt lat="42.293064" lon="3.252888">
        <ele>160</ele>
        <time>2019-08-19T00:08:18Z</time>
      </trkpt>
      <trkpt lat="42.293069" lon="3.252854">
        <ele>160</ele>
        <time>2019-08-19T00:08:19Z</time>
      </trkpt>
      <trkpt lat="42.293073" lon="3.252821">
        <ele>160</ele>
        <time>2019-08-19T00:08:20Z</time>
      </trkpt>
      <trkpt lat="42.293078" lon="3.252787">
        <ele>160</ele>
        <time>2019-08-19T00:08:21Z</time>
      </trkpt>
      <trkpt lat="42.293083" lon="3.252753">
        <ele>162</ele>
        <time>2019-08-19T00:08:22Z</time>
      </trkpt>
      <trkpt lat="42.293099" lon="3.252687">
        <ele>162</ele>
        <time>2019-08-19T00:08:23Z</time>
      </trkpt>
      <trkpt lat="42.293108" lon="3.252657">
        <ele>162</ele>
        <time>2019-08-19T00:08:24Z</time>
      </trkpt>
      <trkpt lat="42.293118" lon="3.252626">
        <ele>162</ele>
        <time>2019-08-19T00:08:25Z</time>
      </trkpt>
      <trkpt lat="42.293127" lon="3.252595">
        <ele>162</ele>
        <time>2019-08-19T00:08:26Z</time>
      </trkpt>
      <trkpt lat="42.293136" lon="3.252565">
        <ele>162</ele>
        <time>2019-08-19T00:08:27Z</time>
      </trkpt>
      <trkpt lat="42.293145" lon="3.252534">
        <ele>162</ele>
        <time>2019-08-19T00:08:28Z</time>
      </trkpt>
      <trkpt lat="42.293154" lon="3.252503">
        <ele>162</ele>
        <time>2019-08-19T00:08:29Z</time>
      </trkpt>
      <trkpt lat="42.293164" lon="3.252472">
        <ele>162</ele>
        <time>2019-08-19T00:08:30Z</time>
      </trkpt>
      <trkpt lat="42.293173" lon="3.252442">
        <ele>162</ele>
        <time>2019-08-19T00:08:31Z</time>
      </trkpt>
      <trkpt lat="42.293182" lon="3.252411">
        <ele>163</ele>
        <time>2019-08-19T00:08:32Z</time>
      </trkpt>
      <trkpt lat="42.293206" lon="3.252353">
        <ele>163</ele>
        <time>2019-08-19T00:08:33Z</time>
      </trkpt>
      <trkpt lat="42.293218" lon="3.252324">
        <ele>163</ele>
        <time>2019-08-19T00:08:34Z</time>
      </trkpt>
      <trkpt lat="42.293229" lon="3.252296">
        <ele>163</ele>
        <time>2019-08-19T00:08:35Z</time>
      </trkpt>
      <trkpt lat="42.293241" lon="3.252267">
        <ele>163</ele>
        <time>2019-08-19T00:08:36Z</time>
      </trkpt>
      <trkpt lat="42.293253" lon="3.252239">
        <ele>163</ele>
        <time>2019-08-19T00:08:37Z</time>
      </trkpt>
      <trkpt lat="42.293265" lon="3.252211">
        <ele>163</ele>
        <time>2019-08-19T00:08:38Z</time>
      </trkpt>
      <trkpt lat="42.293277" lon="3.252182">
        <ele>163</ele>
        <time>2019-08-19T00:08:39Z</time>
      </trkpt>
      <trkpt lat="42.293288" lon="3.252154">
        <ele>163</ele>
        <time>2019-08-19T00:08:40Z</time>
      </trkpt>
      <trkpt lat="42.2933" lon="3.252125">
        <ele>163</ele>
        <time>2019-08-19T00:08:41Z</time>
      </trkpt>
      <trkpt lat="42.293312" lon="3.252097">
        <ele>164</ele>
        <time>2019-08-19T00:08:42Z</time>
      </trkpt>
      <trkpt lat="42.293339" lon="3.25203">
        <ele>164</ele>
        <time>2019-08-19T00:08:43Z</time>
      </trkpt>
      <trkpt lat="42.293352" lon="3.251997">
        <ele>164</ele>
        <time>2019-08-19T00:08:44Z</time>
      </trkpt>
      <trkpt lat="42.293366" lon="3.251965">
        <ele>164</ele>
        <time>2019-08-19T00:08:45Z</time>
      </trkpt>
      <trkpt lat="42.293379" lon="3.251932">
        <ele>164</ele>
        <time>2019-08-19T00:08:46Z</time>
      </trkpt>
      <trkpt lat="42.293393" lon="3.251899">
        <ele>164</ele>
        <time>2019-08-19T00:08:47Z</time>
      </trkpt>
      <trkpt lat="42.293407" lon="3.251866">
        <ele>164</ele>
        <time>2019-08-19T00:08:48Z</time>
      </trkpt>
      <trkpt lat="42.29342" lon="3.251833">
        <ele>164</ele>
        <time>2019-08-19T00:08:49Z</time>
      </trkpt>
      <trkpt lat="42.293434" lon="3.251801">
        <ele>164</ele>
        <time>2019-08-19T00:08:50Z</time>
      </trkpt>
      <trkpt lat="42.293447" lon="3.251768">
        <ele>164</ele>
        <time>2019-08-19T00:08:51Z</time>
      </trkpt>
      <trkpt lat="42.293461" lon="3.251735">
        <ele>164</ele>
        <time>2019-08-19T00:08:52Z</time>
      </trkpt>
      <trkpt lat="42.293481" lon="3.251653">
        <ele>164</ele>
        <time>2019-08-19T00:08:53Z</time>
      </trkpt>
      <trkpt lat="42.293488" lon="3.251609">
        <ele>164</ele>
        <time>2019-08-19T00:08:54Z</time>
      </trkpt>
      <trkpt lat="42.293496" lon="3.251564">
        <ele>164</ele>
        <time>2019-08-19T00:08:55Z</time>
      </trkpt>
      <trkpt lat="42.293504" lon="3.251519">
        <ele>164</ele>
        <time>2019-08-19T00:08:56Z</time>
      </trkpt>
      <trkpt lat="42.293512" lon="3.251474">
        <ele>164</ele>
        <time>2019-08-19T00:08:57Z</time>
      </trkpt>
      <trkpt lat="42.293519" lon="3.25143">
        <ele>164</ele>
        <time>2019-08-19T00:09:01Z</time>
      </trkpt>
      <trkpt lat="42.293527" lon="3.251385">
        <ele>166</ele>
        <time>2019-08-19T00:09:02Z</time>
      </trkpt>
      <trkpt lat="42.293521" lon="3.251272">
        <ele>166</ele>
        <time>2019-08-19T00:09:05Z</time>
      </trkpt>
      <trkpt lat="42.293501" lon="3.25112">
        <ele>166</ele>
        <time>2019-08-19T00:09:09Z</time>
      </trkpt>
      <trkpt lat="42.293501" lon="3.25112">
        <ele>169</ele>
        <time>2019-08-19T00:09:12Z</time>
      </trkpt>
      <trkpt lat="42.293475" lon="3.250896">
        <ele>169</ele>
        <time>2019-08-19T00:09:13Z</time>
      </trkpt>
      <trkpt lat="42.293468" lon="3.250819">
        <ele>169</ele>
        <time>2019-08-19T00:09:17Z</time>
      </trkpt>
      <trkpt lat="42.29346" lon="3.250743">
        <ele>169</ele>
        <time>2019-08-19T00:09:21Z</time>
      </trkpt>
      <trkpt lat="42.293452" lon="3.250666">
        <ele>170</ele>
        <time>2019-08-19T00:09:22Z</time>
      </trkpt>
      <trkpt lat="42.293439" lon="3.250564">
        <ele>170</ele>
        <time>2019-08-19T00:09:25Z</time>
      </trkpt>
      <trkpt lat="42.293425" lon="3.250425">
        <ele>170</ele>
        <time>2019-08-19T00:09:29Z</time>
      </trkpt>
      <trkpt lat="42.293427" lon="3.250323">
        <ele>171</ele>
        <time>2019-08-19T00:09:32Z</time>
      </trkpt>
      <trkpt lat="42.293449" lon="3.250261">
        <ele>171</ele>
        <time>2019-08-19T00:09:33Z</time>
      </trkpt>
      <trkpt lat="42.293464" lon="3.250231">
        <ele>171</ele>
        <time>2019-08-19T00:09:35Z</time>
      </trkpt>
      <trkpt lat="42.293479" lon="3.250202">
        <ele>171</ele>
        <time>2019-08-19T00:09:36Z</time>
      </trkpt>
      <trkpt lat="42.293494" lon="3.250173">
        <ele>171</ele>
        <time>2019-08-19T00:09:37Z</time>
      </trkpt>
      <trkpt lat="42.29351" lon="3.250143">
        <ele>171</ele>
        <time>2019-08-19T00:09:38Z</time>
      </trkpt>
      <trkpt lat="42.293525" lon="3.250114">
        <ele>171</ele>
        <time>2019-08-19T00:09:39Z</time>
      </trkpt>
      <trkpt lat="42.29354" lon="3.250085">
        <ele>171</ele>
        <time>2019-08-19T00:09:40Z</time>
      </trkpt>
      <trkpt lat="42.293555" lon="3.250055">
        <ele>171</ele>
        <time>2019-08-19T00:09:41Z</time>
      </trkpt>
      <trkpt lat="42.29357" lon="3.250026">
        <ele>174</ele>
        <time>2019-08-19T00:09:42Z</time>
      </trkpt>
      <trkpt lat="42.293605" lon="3.249975">
        <ele>174</ele>
        <time>2019-08-19T00:09:43Z</time>
      </trkpt>
      <trkpt lat="42.293622" lon="3.24995">
        <ele>174</ele>
        <time>2019-08-19T00:09:44Z</time>
      </trkpt>
      <trkpt lat="42.293638" lon="3.249926">
        <ele>174</ele>
        <time>2019-08-19T00:09:45Z</time>
      </trkpt>
      <trkpt lat="42.293655" lon="3.249902">
        <ele>174</ele>
        <time>2019-08-19T00:09:46Z</time>
      </trkpt>
      <trkpt lat="42.293671" lon="3.249878">
        <ele>174</ele>
        <time>2019-08-19T00:09:47Z</time>
      </trkpt>
      <trkpt lat="42.293687" lon="3.249853">
        <ele>174</ele>
        <time>2019-08-19T00:09:48Z</time>
      </trkpt>
      <trkpt lat="42.293704" lon="3.249829">
        <ele>174</ele>
        <time>2019-08-19T00:09:49Z</time>
      </trkpt>
      <trkpt lat="42.29372" lon="3.249805">
        <ele>174</ele>
        <time>2019-08-19T00:09:50Z</time>
      </trkpt>
      <trkpt lat="42.293737" lon="3.24978">
        <ele>174</ele>
        <time>2019-08-19T00:09:51Z</time>
      </trkpt>
      <trkpt lat="42.293753" lon="3.249756">
        <ele>176</ele>
        <time>2019-08-19T00:09:52Z</time>
      </trkpt>
      <trkpt lat="42.293786" lon="3.249705">
        <ele>176</ele>
        <time>2019-08-19T00:09:53Z</time>
      </trkpt>
      <trkpt lat="42.293802" lon="3.24968">
        <ele>176</ele>
        <time>2019-08-19T00:09:54Z</time>
      </trkpt>
      <trkpt lat="42.293818" lon="3.249656">
        <ele>176</ele>
        <time>2019-08-19T00:09:55Z</time>
      </trkpt>
      <trkpt lat="42.293834" lon="3.249632">
        <ele>176</ele>
        <time>2019-08-19T00:09:56Z</time>
      </trkpt>
      <trkpt lat="42.29385" lon="3.249608">
        <ele>176</ele>
        <time>2019-08-19T00:09:57Z</time>
      </trkpt>
      <trkpt lat="42.293866" lon="3.249583">
        <ele>176</ele>
        <time>2019-08-19T00:09:58Z</time>
      </trkpt>
      <trkpt lat="42.293882" lon="3.249559">
        <ele>176</ele>
        <time>2019-08-19T00:09:59Z</time>
      </trkpt>
      <trkpt lat="42.293898" lon="3.249535">
        <ele>176</ele>
        <time>2019-08-19T00:10:00Z</time>
      </trkpt>
      <trkpt lat="42.293914" lon="3.24951">
        <ele>176</ele>
        <time>2019-08-19T00:10:01Z</time>
      </trkpt>
      <trkpt lat="42.29393" lon="3.249486">
        <ele>176</ele>
        <time>2019-08-19T00:10:02Z</time>
      </trkpt>
      <trkpt lat="42.293963" lon="3.249436">
        <ele>176</ele>
        <time>2019-08-19T00:10:03Z</time>
      </trkpt>
      <trkpt lat="42.293979" lon="3.249413">
        <ele>176</ele>
        <time>2019-08-19T00:10:04Z</time>
      </trkpt>
      <trkpt lat="42.293994" lon="3.249389">
        <ele>176</ele>
        <time>2019-08-19T00:10:05Z</time>
      </trkpt>
      <trkpt lat="42.29401" lon="3.249366">
        <ele>176</ele>
        <time>2019-08-19T00:10:06Z</time>
      </trkpt>
      <trkpt lat="42.294026" lon="3.249342">
        <ele>176</ele>
        <time>2019-08-19T00:10:07Z</time>
      </trkpt>
      <trkpt lat="42.294042" lon="3.249318">
        <ele>176</ele>
        <time>2019-08-19T00:10:08Z</time>
      </trkpt>
      <trkpt lat="42.294058" lon="3.249295">
        <ele>176</ele>
        <time>2019-08-19T00:10:09Z</time>
      </trkpt>
      <trkpt lat="42.294073" lon="3.249271">
        <ele>176</ele>
        <time>2019-08-19T00:10:10Z</time>
      </trkpt>
      <trkpt lat="42.294089" lon="3.249248">
        <ele>176</ele>
        <time>2019-08-19T00:10:11Z</time>
      </trkpt>
      <trkpt lat="42.294105" lon="3.249224">
        <ele>177</ele>
        <time>2019-08-19T00:10:12Z</time>
      </trkpt>
      <trkpt lat="42.294143" lon="3.249182">
        <ele>177</ele>
        <time>2019-08-19T00:10:13Z</time>
      </trkpt>
      <trkpt lat="42.294163" lon="3.249166">
        <ele>177</ele>
        <time>2019-08-19T00:10:14Z</time>
      </trkpt>
      <trkpt lat="42.294182" lon="3.24915">
        <ele>177</ele>
        <time>2019-08-19T00:10:15Z</time>
      </trkpt>
      <trkpt lat="42.294202" lon="3.249134">
        <ele>177</ele>
        <time>2019-08-19T00:10:16Z</time>
      </trkpt>
      <trkpt lat="42.294222" lon="3.249118">
        <ele>177</ele>
        <time>2019-08-19T00:10:17Z</time>
      </trkpt>
      <trkpt lat="42.294242" lon="3.249101">
        <ele>177</ele>
        <time>2019-08-19T00:10:18Z</time>
      </trkpt>
      <trkpt lat="42.294262" lon="3.249085">
        <ele>177</ele>
        <time>2019-08-19T00:10:19Z</time>
      </trkpt>
      <trkpt lat="42.294281" lon="3.249069">
        <ele>177</ele>
        <time>2019-08-19T00:10:20Z</time>
      </trkpt>
      <trkpt lat="42.294301" lon="3.249053">
        <ele>177</ele>
        <time>2019-08-19T00:10:21Z</time>
      </trkpt>
      <trkpt lat="42.294321" lon="3.249037">
        <ele>178</ele>
        <time>2019-08-19T00:10:22Z</time>
      </trkpt>
      <trkpt lat="42.294366" lon="3.249023">
        <ele>178</ele>
        <time>2019-08-19T00:10:23Z</time>
      </trkpt>
      <trkpt lat="42.294386" lon="3.249017">
        <ele>178</ele>
        <time>2019-08-19T00:10:24Z</time>
      </trkpt>
      <trkpt lat="42.294407" lon="3.24901">
        <ele>178</ele>
        <time>2019-08-19T00:10:25Z</time>
      </trkpt>
      <trkpt lat="42.294427" lon="3.249004">
        <ele>178</ele>
        <time>2019-08-19T00:10:26Z</time>
      </trkpt>
      <trkpt lat="42.294448" lon="3.248997">
        <ele>178</ele>
        <time>2019-08-19T00:10:27Z</time>
      </trkpt>
      <trkpt lat="42.294468" lon="3.24899">
        <ele>178</ele>
        <time>2019-08-19T00:10:28Z</time>
      </trkpt>
      <trkpt lat="42.294489" lon="3.248984">
        <ele>178</ele>
        <time>2019-08-19T00:10:29Z</time>
      </trkpt>
      <trkpt lat="42.294509" lon="3.248977">
        <ele>178</ele>
        <time>2019-08-19T00:10:30Z</time>
      </trkpt>
      <trkpt lat="42.29453" lon="3.248971">
        <ele>178</ele>
        <time>2019-08-19T00:10:31Z</time>
      </trkpt>
      <trkpt lat="42.29455" lon="3.248964">
        <ele>180</ele>
        <time>2019-08-19T00:10:32Z</time>
      </trkpt>
      <trkpt lat="42.29458" lon="3.248919">
        <ele>180</ele>
        <time>2019-08-19T00:10:33Z</time>
      </trkpt>
      <trkpt lat="42.29459" lon="3.248891">
        <ele>180</ele>
        <time>2019-08-19T00:10:34Z</time>
      </trkpt>
      <trkpt lat="42.294599" lon="3.248862">
        <ele>180</ele>
        <time>2019-08-19T00:10:35Z</time>
      </trkpt>
      <trkpt lat="42.294609" lon="3.248834">
        <ele>180</ele>
        <time>2019-08-19T00:10:37Z</time>
      </trkpt>
      <trkpt lat="42.294619" lon="3.248806">
        <ele>180</ele>
        <time>2019-08-19T00:10:38Z</time>
      </trkpt>
      <trkpt lat="42.294629" lon="3.248778">
        <ele>180</ele>
        <time>2019-08-19T00:10:39Z</time>
      </trkpt>
      <trkpt lat="42.294638" lon="3.248749">
        <ele>180</ele>
        <time>2019-08-19T00:10:40Z</time>
      </trkpt>
      <trkpt lat="42.294648" lon="3.248721">
        <ele>180</ele>
        <time>2019-08-19T00:10:41Z</time>
      </trkpt>
      <trkpt lat="42.294658" lon="3.248693">
        <ele>181</ele>
        <time>2019-08-19T00:10:42Z</time>
      </trkpt>
      <trkpt lat="42.294653" lon="3.248623">
        <ele>181</ele>
        <time>2019-08-19T00:10:43Z</time>
      </trkpt>
      <trkpt lat="42.294648" lon="3.248587">
        <ele>181</ele>
        <time>2019-08-19T00:10:46Z</time>
      </trkpt>
      <trkpt lat="42.294643" lon="3.24855">
        <ele>181</ele>
        <time>2019-08-19T00:10:47Z</time>
      </trkpt>
      <trkpt lat="42.294638" lon="3.248513">
        <ele>181</ele>
        <time>2019-08-19T00:10:48Z</time>
      </trkpt>
      <trkpt lat="42.294632" lon="3.248477">
        <ele>181</ele>
        <time>2019-08-19T00:10:49Z</time>
      </trkpt>
      <trkpt lat="42.294627" lon="3.24844">
        <ele>181</ele>
        <time>2019-08-19T00:10:50Z</time>
      </trkpt>
      <trkpt lat="42.294622" lon="3.248404">
        <ele>181</ele>
        <time>2019-08-19T00:10:51Z</time>
      </trkpt>
      <trkpt lat="42.294617" lon="3.248367">
        <ele>183</ele>
        <time>2019-08-19T00:10:52Z</time>
      </trkpt>
      <trkpt lat="42.294621" lon="3.248308">
        <ele>183</ele>
        <time>2019-08-19T00:10:53Z</time>
      </trkpt>
      <trkpt lat="42.29463" lon="3.248282">
        <ele>183</ele>
        <time>2019-08-19T00:10:54Z</time>
      </trkpt>
      <trkpt lat="42.294638" lon="3.248257">
        <ele>183</ele>
        <time>2019-08-19T00:10:55Z</time>
      </trkpt>
      <trkpt lat="42.294647" lon="3.248231">
        <ele>183</ele>
        <time>2019-08-19T00:10:56Z</time>
      </trkpt>
      <trkpt lat="42.294655" lon="3.248206">
        <ele>183</ele>
        <time>2019-08-19T00:10:57Z</time>
      </trkpt>
      <trkpt lat="42.294664" lon="3.24818">
        <ele>183</ele>
        <time>2019-08-19T00:10:58Z</time>
      </trkpt>
      <trkpt lat="42.294672" lon="3.248155">
        <ele>183</ele>
        <time>2019-08-19T00:10:59Z</time>
      </trkpt>
      <trkpt lat="42.294681" lon="3.248129">
        <ele>183</ele>
        <time>2019-08-19T00:11:00Z</time>
      </trkpt>
      <trkpt lat="42.294689" lon="3.248104">
        <ele>183</ele>
        <time>2019-08-19T00:11:01Z</time>
      </trkpt>
      <trkpt lat="42.294698" lon="3.248078">
        <ele>183</ele>
        <time>2019-08-19T00:11:02Z</time>
      </trkpt>
      <trkpt lat="42.294706" lon="3.248053">
        <ele>183</ele>
        <time>2019-08-19T00:11:03Z</time>
      </trkpt>
      <trkpt lat="42.294741" lon="3.24802">
        <ele>183</ele>
        <time>2019-08-19T00:11:04Z</time>
      </trkpt>
      <trkpt lat="42.294759" lon="3.248007">
        <ele>183</ele>
        <time>2019-08-19T00:11:05Z</time>
      </trkpt>
      <trkpt lat="42.294777" lon="3.247995">
        <ele>183</ele>
        <time>2019-08-19T00:11:06Z</time>
      </trkpt>
      <trkpt lat="42.294795" lon="3.247983">
        <ele>183</ele>
        <time>2019-08-19T00:11:07Z</time>
      </trkpt>
      <trkpt lat="42.294813" lon="3.24797">
        <ele>183</ele>
        <time>2019-08-19T00:11:08Z</time>
      </trkpt>
      <trkpt lat="42.294831" lon="3.247958">
        <ele>183</ele>
        <time>2019-08-19T00:11:09Z</time>
      </trkpt>
      <trkpt lat="42.294849" lon="3.247946">
        <ele>183</ele>
        <time>2019-08-19T00:11:10Z</time>
      </trkpt>
      <trkpt lat="42.294867" lon="3.247933">
        <ele>183</ele>
        <time>2019-08-19T00:11:11Z</time>
      </trkpt>
      <trkpt lat="42.294885" lon="3.247921">
        <ele>184</ele>
        <time>2019-08-19T00:11:12Z</time>
      </trkpt>
      <trkpt lat="42.294923" lon="3.247894">
        <ele>184</ele>
        <time>2019-08-19T00:11:13Z</time>
      </trkpt>
      <trkpt lat="42.294941" lon="3.247882">
        <ele>184</ele>
        <time>2019-08-19T00:11:14Z</time>
      </trkpt>
      <trkpt lat="42.29496" lon="3.24787">
        <ele>184</ele>
        <time>2019-08-19T00:11:15Z</time>
      </trkpt>
      <trkpt lat="42.294978" lon="3.247858">
        <ele>184</ele>
        <time>2019-08-19T00:11:16Z</time>
      </trkpt>
      <trkpt lat="42.294996" lon="3.247846">
        <ele>184</ele>
        <time>2019-08-19T00:11:17Z</time>
      </trkpt>
      <trkpt lat="42.295014" lon="3.247834">
        <ele>184</ele>
        <time>2019-08-19T00:11:18Z</time>
      </trkpt>
      <trkpt lat="42.295032" lon="3.247822">
        <ele>184</ele>
        <time>2019-08-19T00:11:19Z</time>
      </trkpt>
      <trkpt lat="42.295051" lon="3.24781">
        <ele>184</ele>
        <time>2019-08-19T00:11:20Z</time>
      </trkpt>
      <trkpt lat="42.295069" lon="3.247798">
        <ele>184</ele>
        <time>2019-08-19T00:11:21Z</time>
      </trkpt>
      <trkpt lat="42.295087" lon="3.247786">
        <ele>186</ele>
        <time>2019-08-19T00:11:22Z</time>
      </trkpt>
      <trkpt lat="42.295115" lon="3.24775">
        <ele>186</ele>
        <time>2019-08-19T00:11:23Z</time>
      </trkpt>
      <trkpt lat="42.295125" lon="3.247729">
        <ele>186</ele>
        <time>2019-08-19T00:11:24Z</time>
      </trkpt>
      <trkpt lat="42.295134" lon="3.247709">
        <ele>186</ele>
        <time>2019-08-19T00:11:25Z</time>
      </trkpt>
      <trkpt lat="42.295144" lon="3.247688">
        <ele>186</ele>
        <time>2019-08-19T00:11:26Z</time>
      </trkpt>
      <trkpt lat="42.295154" lon="3.247667">
        <ele>186</ele>
        <time>2019-08-19T00:11:27Z</time>
      </trkpt>
      <trkpt lat="42.295164" lon="3.247646">
        <ele>186</ele>
        <time>2019-08-19T00:11:28Z</time>
      </trkpt>
      <trkpt lat="42.295174" lon="3.247625">
        <ele>186</ele>
        <time>2019-08-19T00:11:29Z</time>
      </trkpt>
      <trkpt lat="42.295183" lon="3.247605">
        <ele>186</ele>
        <time>2019-08-19T00:11:30Z</time>
      </trkpt>
      <trkpt lat="42.295193" lon="3.247584">
        <ele>186</ele>
        <time>2019-08-19T00:11:31Z</time>
      </trkpt>
      <trkpt lat="42.295203" lon="3.247563">
        <ele>187</ele>
        <time>2019-08-19T00:11:32Z</time>
      </trkpt>
      <trkpt lat="42.295205" lon="3.247532">
        <ele>187</ele>
        <time>2019-08-19T00:11:33Z</time>
      </trkpt>
      <trkpt lat="42.295206" lon="3.247501">
        <ele>187</ele>
        <time>2019-08-19T00:11:34Z</time>
      </trkpt>
      <trkpt lat="42.295203" lon="3.24747">
        <ele>187</ele>
        <time>2019-08-19T00:11:35Z</time>
      </trkpt>
      <trkpt lat="42.295182" lon="3.247343">
        <ele>187</ele>
        <time>2019-08-19T00:11:39Z</time>
      </trkpt>
      <trkpt lat="42.295182" lon="3.247343">
        <ele>189</ele>
        <time>2019-08-19T00:11:42Z</time>
      </trkpt>
      <trkpt lat="42.295161" lon="3.247212">
        <ele>189</ele>
        <time>2019-08-19T00:11:43Z</time>
      </trkpt>
      <trkpt lat="42.295176" lon="3.247081">
        <ele>189</ele>
        <time>2019-08-19T00:11:47Z</time>
      </trkpt>
      <trkpt lat="42.295214" lon="3.246942">
        <ele>190</ele>
        <time>2019-08-19T00:11:52Z</time>
      </trkpt>
      <trkpt lat="42.29526" lon="3.24677">
        <ele>190</ele>
        <time>2019-08-19T00:11:56Z</time>
      </trkpt>
      <trkpt lat="42.29527" lon="3.246713">
        <ele>190</ele>
        <time>2019-08-19T00:12:01Z</time>
      </trkpt>
      <trkpt lat="42.295279" lon="3.246655">
        <ele>191</ele>
        <time>2019-08-19T00:12:02Z</time>
      </trkpt>
      <trkpt lat="42.295281" lon="3.246563">
        <ele>191</ele>
        <time>2019-08-19T00:12:05Z</time>
      </trkpt>
      <trkpt lat="42.295267" lon="3.24644">
        <ele>191</ele>
        <time>2019-08-19T00:12:09Z</time>
      </trkpt>
      <trkpt lat="42.295267" lon="3.24644">
        <ele>193</ele>
        <time>2019-08-19T00:12:12Z</time>
      </trkpt>
      <trkpt lat="42.295254" lon="3.246319">
        <ele>193</ele>
        <time>2019-08-19T00:12:13Z</time>
      </trkpt>
      <trkpt lat="42.295222" lon="3.246181">
        <ele>193</ele>
        <time>2019-08-19T00:12:18Z</time>
      </trkpt>
      <trkpt lat="42.295184" lon="3.24607">
        <ele>195</ele>
        <time>2019-08-19T00:12:22Z</time>
      </trkpt>
      <trkpt lat="42.295099" lon="3.245926">
        <ele>195</ele>
        <time>2019-08-19T00:12:26Z</time>
      </trkpt>
      <trkpt lat="42.295072" lon="3.245883">
        <ele>195</ele>
        <time>2019-08-19T00:12:31Z</time>
      </trkpt>
      <trkpt lat="42.295044" lon="3.245839">
        <ele>195</ele>
        <time>2019-08-19T00:12:32Z</time>
      </trkpt>
      <trkpt lat="42.294991" lon="3.245746">
        <ele>195</ele>
        <time>2019-08-19T00:12:35Z</time>
      </trkpt>
      <trkpt lat="42.29498" lon="3.24572">
        <ele>195</ele>
        <time>2019-08-19T00:12:37Z</time>
      </trkpt>
      <trkpt lat="42.294968" lon="3.245694">
        <ele>195</ele>
        <time>2019-08-19T00:12:38Z</time>
      </trkpt>
      <trkpt lat="42.294956" lon="3.245667">
        <ele>195</ele>
        <time>2019-08-19T00:12:39Z</time>
      </trkpt>
      <trkpt lat="42.294944" lon="3.245641">
        <ele>195</ele>
        <time>2019-08-19T00:12:40Z</time>
      </trkpt>
      <trkpt lat="42.294933" lon="3.245615">
        <ele>195</ele>
        <time>2019-08-19T00:12:41Z</time>
      </trkpt>
      <trkpt lat="42.294921" lon="3.245589">
        <ele>197</ele>
        <time>2019-08-19T00:12:42Z</time>
      </trkpt>
      <trkpt lat="42.294914" lon="3.245533">
        <ele>197</ele>
        <time>2019-08-19T00:12:43Z</time>
      </trkpt>
      <trkpt lat="42.294916" lon="3.245507">
        <ele>197</ele>
        <time>2019-08-19T00:12:44Z</time>
      </trkpt>
      <trkpt lat="42.294917" lon="3.24548">
        <ele>197</ele>
        <time>2019-08-19T00:12:45Z</time>
      </trkpt>
      <trkpt lat="42.294919" lon="3.245454">
        <ele>197</ele>
        <time>2019-08-19T00:12:46Z</time>
      </trkpt>
      <trkpt lat="42.294921" lon="3.245428">
        <ele>197</ele>
        <time>2019-08-19T00:12:47Z</time>
      </trkpt>
      <trkpt lat="42.294923" lon="3.245402">
        <ele>197</ele>
        <time>2019-08-19T00:12:48Z</time>
      </trkpt>
      <trkpt lat="42.294925" lon="3.245376">
        <ele>197</ele>
        <time>2019-08-19T00:12:49Z</time>
      </trkpt>
      <trkpt lat="42.294926" lon="3.245349">
        <ele>197</ele>
        <time>2019-08-19T00:12:50Z</time>
      </trkpt>
      <trkpt lat="42.294928" lon="3.245323">
        <ele>197</ele>
        <time>2019-08-19T00:12:51Z</time>
      </trkpt>
      <trkpt lat="42.29493" lon="3.245297">
        <ele>199</ele>
        <time>2019-08-19T00:12:52Z</time>
      </trkpt>
      <trkpt lat="42.294952" lon="3.245247">
        <ele>199</ele>
        <time>2019-08-19T00:12:53Z</time>
      </trkpt>
      <trkpt lat="42.294964" lon="3.245222">
        <ele>199</ele>
        <time>2019-08-19T00:12:54Z</time>
      </trkpt>
      <trkpt lat="42.294977" lon="3.245198">
        <ele>199</ele>
        <time>2019-08-19T00:12:55Z</time>
      </trkpt>
      <trkpt lat="42.294989" lon="3.245174">
        <ele>199</ele>
        <time>2019-08-19T00:12:56Z</time>
      </trkpt>
      <trkpt lat="42.295002" lon="3.245149">
        <ele>199</ele>
        <time>2019-08-19T00:12:57Z</time>
      </trkpt>
      <trkpt lat="42.295014" lon="3.245125">
        <ele>199</ele>
        <time>2019-08-19T00:12:58Z</time>
      </trkpt>
      <trkpt lat="42.295027" lon="3.245101">
        <ele>199</ele>
        <time>2019-08-19T00:12:59Z</time>
      </trkpt>
      <trkpt lat="42.295039" lon="3.245076">
        <ele>199</ele>
        <time>2019-08-19T00:13:00Z</time>
      </trkpt>
      <trkpt lat="42.295052" lon="3.245052">
        <ele>200</ele>
        <time>2019-08-19T00:13:02Z</time>
      </trkpt>
      <trkpt lat="42.295076" lon="3.245005">
        <ele>200</ele>
        <time>2019-08-19T00:13:03Z</time>
      </trkpt>
      <trkpt lat="42.295086" lon="3.244983">
        <ele>200</ele>
        <time>2019-08-19T00:13:04Z</time>
      </trkpt>
      <trkpt lat="42.295097" lon="3.244961">
        <ele>200</ele>
        <time>2019-08-19T00:13:05Z</time>
      </trkpt>
      <trkpt lat="42.295107" lon="3.244939">
        <ele>200</ele>
        <time>2019-08-19T00:13:06Z</time>
      </trkpt>
      <trkpt lat="42.295118" lon="3.244918">
        <ele>200</ele>
        <time>2019-08-19T00:13:07Z</time>
      </trkpt>
      <trkpt lat="42.295128" lon="3.244896">
        <ele>200</ele>
        <time>2019-08-19T00:13:08Z</time>
      </trkpt>
      <trkpt lat="42.295139" lon="3.244874">
        <ele>200</ele>
        <time>2019-08-19T00:13:09Z</time>
      </trkpt>
      <trkpt lat="42.295149" lon="3.244852">
        <ele>200</ele>
        <time>2019-08-19T00:13:10Z</time>
      </trkpt>
      <trkpt lat="42.29516" lon="3.24483">
        <ele>200</ele>
        <time>2019-08-19T00:13:11Z</time>
      </trkpt>
      <trkpt lat="42.29517" lon="3.244808">
        <ele>201</ele>
        <time>2019-08-19T00:13:12Z</time>
      </trkpt>
      <trkpt lat="42.295193" lon="3.244759">
        <ele>201</ele>
        <time>2019-08-19T00:13:13Z</time>
      </trkpt>
      <trkpt lat="42.295204" lon="3.244735">
        <ele>201</ele>
        <time>2019-08-19T00:13:14Z</time>
      </trkpt>
      <trkpt lat="42.295216" lon="3.244712">
        <ele>201</ele>
        <time>2019-08-19T00:13:15Z</time>
      </trkpt>
      <trkpt lat="42.295227" lon="3.244689">
        <ele>201</ele>
        <time>2019-08-19T00:13:16Z</time>
      </trkpt>
      <trkpt lat="42.295238" lon="3.244666">
        <ele>201</ele>
        <time>2019-08-19T00:13:17Z</time>
      </trkpt>
      <trkpt lat="42.295249" lon="3.244642">
        <ele>201</ele>
        <time>2019-08-19T00:13:18Z</time>
      </trkpt>
      <trkpt lat="42.29526" lon="3.244619">
        <ele>201</ele>
        <time>2019-08-19T00:13:19Z</time>
      </trkpt>
      <trkpt lat="42.295272" lon="3.244596">
        <ele>201</ele>
        <time>2019-08-19T00:13:20Z</time>
      </trkpt>
      <trkpt lat="42.295283" lon="3.244572">
        <ele>201</ele>
        <time>2019-08-19T00:13:21Z</time>
      </trkpt>
      <trkpt lat="42.295294" lon="3.244549">
        <ele>202</ele>
        <time>2019-08-19T00:13:22Z</time>
      </trkpt>
      <trkpt lat="42.295332" lon="3.244482">
        <ele>202</ele>
        <time>2019-08-19T00:13:24Z</time>
      </trkpt>
      <trkpt lat="42.295345" lon="3.244463">
        <ele>202</ele>
        <time>2019-08-19T00:13:25Z</time>
      </trkpt>
      <trkpt lat="42.295357" lon="3.244443">
        <ele>202</ele>
        <time>2019-08-19T00:13:26Z</time>
      </trkpt>
      <trkpt lat="42.29537" lon="3.244424">
        <ele>202</ele>
        <time>2019-08-19T00:13:27Z</time>
      </trkpt>
      <trkpt lat="42.295383" lon="3.244404">
        <ele>202</ele>
        <time>2019-08-19T00:13:28Z</time>
      </trkpt>
      <trkpt lat="42.295396" lon="3.244385">
        <ele>202</ele>
        <time>2019-08-19T00:13:29Z</time>
      </trkpt>
      <trkpt lat="42.295408" lon="3.244365">
        <ele>202</ele>
        <time>2019-08-19T00:13:30Z</time>
      </trkpt>
      <trkpt lat="42.295421" lon="3.244346">
        <ele>202</ele>
        <time>2019-08-19T00:13:31Z</time>
      </trkpt>
      <trkpt lat="42.295434" lon="3.244326">
        <ele>204</ele>
        <time>2019-08-19T00:13:32Z</time>
      </trkpt>
      <trkpt lat="42.295469" lon="3.244296">
        <ele>204</ele>
        <time>2019-08-19T00:13:33Z</time>
      </trkpt>
      <trkpt lat="42.295486" lon="3.244283">
        <ele>204</ele>
        <time>2019-08-19T00:13:34Z</time>
      </trkpt>
      <trkpt lat="42.295504" lon="3.244271">
        <ele>204</ele>
        <time>2019-08-19T00:13:35Z</time>
      </trkpt>
      <trkpt lat="42.295522" lon="3.244259">
        <ele>204</ele>
        <time>2019-08-19T00:13:36Z</time>
      </trkpt>
      <trkpt lat="42.29554" lon="3.244247">
        <ele>204</ele>
        <time>2019-08-19T00:13:37Z</time>
      </trkpt>
      <trkpt lat="42.295557" lon="3.244234">
        <ele>204</ele>
        <time>2019-08-19T00:13:38Z</time>
      </trkpt>
      <trkpt lat="42.295575" lon="3.244222">
        <ele>204</ele>
        <time>2019-08-19T00:13:39Z</time>
      </trkpt>
      <trkpt lat="42.295593" lon="3.24421">
        <ele>204</ele>
        <time>2019-08-19T00:13:40Z</time>
      </trkpt>
      <trkpt lat="42.29561" lon="3.244197">
        <ele>204</ele>
        <time>2019-08-19T00:13:41Z</time>
      </trkpt>
      <trkpt lat="42.295628" lon="3.244185">
        <ele>206</ele>
        <time>2019-08-19T00:13:42Z</time>
      </trkpt>
      <trkpt lat="42.295666" lon="3.244172">
        <ele>206</ele>
        <time>2019-08-19T00:13:43Z</time>
      </trkpt>
      <trkpt lat="42.295685" lon="3.244168">
        <ele>206</ele>
        <time>2019-08-19T00:13:44Z</time>
      </trkpt>
      <trkpt lat="42.295703" lon="3.244164">
        <ele>206</ele>
        <time>2019-08-19T00:13:45Z</time>
      </trkpt>
      <trkpt lat="42.295721" lon="3.24416">
        <ele>206</ele>
        <time>2019-08-19T00:13:46Z</time>
      </trkpt>
      <trkpt lat="42.29574" lon="3.244156">
        <ele>206</ele>
        <time>2019-08-19T00:13:47Z</time>
      </trkpt>
      <trkpt lat="42.295758" lon="3.244151">
        <ele>206</ele>
        <time>2019-08-19T00:13:48Z</time>
      </trkpt>
      <trkpt lat="42.295776" lon="3.244147">
        <ele>206</ele>
        <time>2019-08-19T00:13:49Z</time>
      </trkpt>
      <trkpt lat="42.295794" lon="3.244143">
        <ele>206</ele>
        <time>2019-08-19T00:13:50Z</time>
      </trkpt>
      <trkpt lat="42.295813" lon="3.244139">
        <ele>206</ele>
        <time>2019-08-19T00:13:51Z</time>
      </trkpt>
      <trkpt lat="42.295831" lon="3.244135">
        <ele>207</ele>
        <time>2019-08-19T00:13:52Z</time>
      </trkpt>
      <trkpt lat="42.295875" lon="3.244142">
        <ele>207</ele>
        <time>2019-08-19T00:13:53Z</time>
      </trkpt>
      <trkpt lat="42.295895" lon="3.244146">
        <ele>207</ele>
        <time>2019-08-19T00:13:54Z</time>
      </trkpt>
      <trkpt lat="42.295915" lon="3.244151">
        <ele>207</ele>
        <time>2019-08-19T00:13:55Z</time>
      </trkpt>
      <trkpt lat="42.295935" lon="3.244155">
        <ele>207</ele>
        <time>2019-08-19T00:13:56Z</time>
      </trkpt>
      <trkpt lat="42.295955" lon="3.244159">
        <ele>207</ele>
        <time>2019-08-19T00:13:57Z</time>
      </trkpt>
      <trkpt lat="42.295974" lon="3.244163">
        <ele>207</ele>
        <time>2019-08-19T00:13:58Z</time>
      </trkpt>
      <trkpt lat="42.295994" lon="3.244167">
        <ele>207</ele>
        <time>2019-08-19T00:13:59Z</time>
      </trkpt>
      <trkpt lat="42.296014" lon="3.244172">
        <ele>207</ele>
        <time>2019-08-19T00:14:00Z</time>
      </trkpt>
      <trkpt lat="42.296034" lon="3.244176">
        <ele>207</ele>
        <time>2019-08-19T00:14:01Z</time>
      </trkpt>
      <trkpt lat="42.296054" lon="3.24418">
        <ele>207</ele>
        <time>2019-08-19T00:14:02Z</time>
      </trkpt>
      <trkpt lat="42.296096" lon="3.244181">
        <ele>207</ele>
        <time>2019-08-19T00:14:03Z</time>
      </trkpt>
      <trkpt lat="42.296116" lon="3.244176">
        <ele>207</ele>
        <time>2019-08-19T00:14:04Z</time>
      </trkpt>
      <trkpt lat="42.296136" lon="3.244172">
        <ele>207</ele>
        <time>2019-08-19T00:14:05Z</time>
      </trkpt>
      <trkpt lat="42.296156" lon="3.244168">
        <ele>207</ele>
        <time>2019-08-19T00:14:06Z</time>
      </trkpt>
      <trkpt lat="42.296176" lon="3.244164">
        <ele>207</ele>
        <time>2019-08-19T00:14:07Z</time>
      </trkpt>
      <trkpt lat="42.296195" lon="3.244159">
        <ele>207</ele>
        <time>2019-08-19T00:14:08Z</time>
      </trkpt>
      <trkpt lat="42.296215" lon="3.244155">
        <ele>207</ele>
        <time>2019-08-19T00:14:09Z</time>
      </trkpt>
      <trkpt lat="42.296235" lon="3.244151">
        <ele>207</ele>
        <time>2019-08-19T00:14:10Z</time>
      </trkpt>
      <trkpt lat="42.296255" lon="3.244146">
        <ele>207</ele>
        <time>2019-08-19T00:14:11Z</time>
      </trkpt>
      <trkpt lat="42.296275" lon="3.244142">
        <ele>209</ele>
        <time>2019-08-19T00:14:12Z</time>
      </trkpt>
      <trkpt lat="42.296344" lon="3.24401">
        <ele>209</ele>
        <time>2019-08-19T00:14:16Z</time>
      </trkpt>
      <trkpt lat="42.296347" lon="3.243967">
        <ele>209</ele>
        <time>2019-08-19T00:14:19Z</time>
      </trkpt>
      <trkpt lat="42.29635" lon="3.243924">
        <ele>209</ele>
        <time>2019-08-19T00:14:20Z</time>
      </trkpt>
      <trkpt lat="42.296353" lon="3.243881">
        <ele>209</ele>
        <time>2019-08-19T00:14:21Z</time>
      </trkpt>
      <trkpt lat="42.296356" lon="3.243838">
        <ele>211</ele>
        <time>2019-08-19T00:14:22Z</time>
      </trkpt>
      <trkpt lat="42.29633" lon="3.243768">
        <ele>211</ele>
        <time>2019-08-19T00:14:23Z</time>
      </trkpt>
      <trkpt lat="42.29631" lon="3.243735">
        <ele>211</ele>
        <time>2019-08-19T00:14:24Z</time>
      </trkpt>
      <trkpt lat="42.29629" lon="3.243702">
        <ele>211</ele>
        <time>2019-08-19T00:14:25Z</time>
      </trkpt>
      <trkpt lat="42.296269" lon="3.24367">
        <ele>211</ele>
        <time>2019-08-19T00:14:26Z</time>
      </trkpt>
      <trkpt lat="42.296249" lon="3.243637">
        <ele>211</ele>
        <time>2019-08-19T00:14:30Z</time>
      </trkpt>
      <trkpt lat="42.296229" lon="3.243604">
        <ele>212</ele>
        <time>2019-08-19T00:14:32Z</time>
      </trkpt>
      <trkpt lat="42.296089" lon="3.243453">
        <ele>212</ele>
        <time>2019-08-19T00:14:33Z</time>
      </trkpt>
      <trkpt lat="42.296022" lon="3.24338">
        <ele>212</ele>
        <time>2019-08-19T00:14:36Z</time>
      </trkpt>
      <trkpt lat="42.295954" lon="3.243306">
        <ele>212</ele>
        <time>2019-08-19T00:14:39Z</time>
      </trkpt>
      <trkpt lat="42.295886" lon="3.243233">
        <ele>213</ele>
        <time>2019-08-19T00:14:42Z</time>
      </trkpt>
      <trkpt lat="42.295845" lon="3.243157">
        <ele>213</ele>
        <time>2019-08-19T00:14:43Z</time>
      </trkpt>
      <trkpt lat="42.295833" lon="3.243116">
        <ele>213</ele>
        <time>2019-08-19T00:14:44Z</time>
      </trkpt>
      <trkpt lat="42.295822" lon="3.243075">
        <ele>213</ele>
        <time>2019-08-19T00:14:45Z</time>
      </trkpt>
      <trkpt lat="42.29581" lon="3.243034">
        <ele>213</ele>
        <time>2019-08-19T00:14:46Z</time>
      </trkpt>
      <trkpt lat="42.295798" lon="3.242993">
        <ele>213</ele>
        <time>2019-08-19T00:14:47Z</time>
      </trkpt>
      <trkpt lat="42.295786" lon="3.242952">
        <ele>213</ele>
        <time>2019-08-19T00:14:48Z</time>
      </trkpt>
      <trkpt lat="42.295775" lon="3.242911">
        <ele>213</ele>
        <time>2019-08-19T00:14:49Z</time>
      </trkpt>
      <trkpt lat="42.295763" lon="3.24287">
        <ele>213</ele>
        <time>2019-08-19T00:14:50Z</time>
      </trkpt>
      <trkpt lat="42.295751" lon="3.242829">
        <ele>214</ele>
        <time>2019-08-19T00:14:52Z</time>
      </trkpt>
      <trkpt lat="42.295766" lon="3.24276">
        <ele>214</ele>
        <time>2019-08-19T00:14:53Z</time>
      </trkpt>
      <trkpt lat="42.295776" lon="3.242731">
        <ele>214</ele>
        <time>2019-08-19T00:14:54Z</time>
      </trkpt>
      <trkpt lat="42.295785" lon="3.242702">
        <ele>214</ele>
        <time>2019-08-19T00:14:55Z</time>
      </trkpt>
      <trkpt lat="42.295795" lon="3.242673">
        <ele>214</ele>
        <time>2019-08-19T00:14:56Z</time>
      </trkpt>
      <trkpt lat="42.295804" lon="3.242644">
        <ele>214</ele>
        <time>2019-08-19T00:14:57Z</time>
      </trkpt>
      <trkpt lat="42.295813" lon="3.242615">
        <ele>214</ele>
        <time>2019-08-19T00:14:58Z</time>
      </trkpt>
      <trkpt lat="42.295823" lon="3.242586">
        <ele>214</ele>
        <time>2019-08-19T00:14:59Z</time>
      </trkpt>
      <trkpt lat="42.295832" lon="3.242557">
        <ele>214</ele>
        <time>2019-08-19T00:15:00Z</time>
      </trkpt>
      <trkpt lat="42.295842" lon="3.242528">
        <ele>214</ele>
        <time>2019-08-19T00:15:01Z</time>
      </trkpt>
      <trkpt lat="42.295851" lon="3.242499">
        <ele>215</ele>
        <time>2019-08-19T00:15:02Z</time>
      </trkpt>
      <trkpt lat="42.295871" lon="3.242445">
        <ele>215</ele>
        <time>2019-08-19T00:15:03Z</time>
      </trkpt>
      <trkpt lat="42.295881" lon="3.242419">
        <ele>215</ele>
        <time>2019-08-19T00:15:04Z</time>
      </trkpt>
      <trkpt lat="42.295891" lon="3.242394">
        <ele>215</ele>
        <time>2019-08-19T00:15:05Z</time>
      </trkpt>
      <trkpt lat="42.295901" lon="3.242368">
        <ele>215</ele>
        <time>2019-08-19T00:15:06Z</time>
      </trkpt>
      <trkpt lat="42.295911" lon="3.242343">
        <ele>215</ele>
        <time>2019-08-19T00:15:07Z</time>
      </trkpt>
      <trkpt lat="42.295921" lon="3.242318">
        <ele>215</ele>
        <time>2019-08-19T00:15:08Z</time>
      </trkpt>
      <trkpt lat="42.295931" lon="3.242292">
        <ele>215</ele>
        <time>2019-08-19T00:15:09Z</time>
      </trkpt>
      <trkpt lat="42.295941" lon="3.242267">
        <ele>215</ele>
        <time>2019-08-19T00:15:10Z</time>
      </trkpt>
      <trkpt lat="42.295951" lon="3.242241">
        <ele>215</ele>
        <time>2019-08-19T00:15:11Z</time>
      </trkpt>
      <trkpt lat="42.295961" lon="3.242216">
        <ele>217</ele>
        <time>2019-08-19T00:15:12Z</time>
      </trkpt>
      <trkpt lat="42.29598" lon="3.242159">
        <ele>217</ele>
        <time>2019-08-19T00:15:13Z</time>
      </trkpt>
      <trkpt lat="42.29599" lon="3.242132">
        <ele>217</ele>
        <time>2019-08-19T00:15:14Z</time>
      </trkpt>
      <trkpt lat="42.295999" lon="3.242104">
        <ele>217</ele>
        <time>2019-08-19T00:15:15Z</time>
      </trkpt>
      <trkpt lat="42.296008" lon="3.242077">
        <ele>217</ele>
        <time>2019-08-19T00:15:16Z</time>
      </trkpt>
      <trkpt lat="42.296018" lon="3.242049">
        <ele>217</ele>
        <time>2019-08-19T00:15:17Z</time>
      </trkpt>
      <trkpt lat="42.296027" lon="3.242021">
        <ele>217</ele>
        <time>2019-08-19T00:15:18Z</time>
      </trkpt>
      <trkpt lat="42.296036" lon="3.241994">
        <ele>217</ele>
        <time>2019-08-19T00:15:19Z</time>
      </trkpt>
      <trkpt lat="42.296045" lon="3.241966">
        <ele>217</ele>
        <time>2019-08-19T00:15:20Z</time>
      </trkpt>
      <trkpt lat="42.296055" lon="3.241939">
        <ele>217</ele>
        <time>2019-08-19T00:15:21Z</time>
      </trkpt>
      <trkpt lat="42.296064" lon="3.241911">
        <ele>218</ele>
        <time>2019-08-19T00:15:22Z</time>
      </trkpt>
      <trkpt lat="42.296083" lon="3.24185">
        <ele>218</ele>
        <time>2019-08-19T00:15:23Z</time>
      </trkpt>
      <trkpt lat="42.296094" lon="3.241819">
        <ele>218</ele>
        <time>2019-08-19T00:15:24Z</time>
      </trkpt>
      <trkpt lat="42.296105" lon="3.241787">
        <ele>218</ele>
        <time>2019-08-19T00:15:25Z</time>
      </trkpt>
      <trkpt lat="42.296116" lon="3.241756">
        <ele>218</ele>
        <time>2019-08-19T00:15:26Z</time>
      </trkpt>
      <trkpt lat="42.296126" lon="3.241725">
        <ele>218</ele>
        <time>2019-08-19T00:15:27Z</time>
      </trkpt>
      <trkpt lat="42.296137" lon="3.241694">
        <ele>218</ele>
        <time>2019-08-19T00:15:28Z</time>
      </trkpt>
      <trkpt lat="42.296148" lon="3.241662">
        <ele>218</ele>
        <time>2019-08-19T00:15:29Z</time>
      </trkpt>
      <trkpt lat="42.296159" lon="3.241631">
        <ele>218</ele>
        <time>2019-08-19T00:15:30Z</time>
      </trkpt>
      <trkpt lat="42.29617" lon="3.2416">
        <ele>220</ele>
        <time>2019-08-19T00:15:32Z</time>
      </trkpt>
      <trkpt lat="42.29619" lon="3.241542">
        <ele>220</ele>
        <time>2019-08-19T00:15:33Z</time>
      </trkpt>
      <trkpt lat="42.2962" lon="3.241514">
        <ele>220</ele>
        <time>2019-08-19T00:15:34Z</time>
      </trkpt>
      <trkpt lat="42.296209" lon="3.241486">
        <ele>220</ele>
        <time>2019-08-19T00:15:35Z</time>
      </trkpt>
      <trkpt lat="42.296219" lon="3.241458">
        <ele>220</ele>
        <time>2019-08-19T00:15:36Z</time>
      </trkpt>
      <trkpt lat="42.296229" lon="3.24143">
        <ele>220</ele>
        <time>2019-08-19T00:15:37Z</time>
      </trkpt>
      <trkpt lat="42.296239" lon="3.241401">
        <ele>220</ele>
        <time>2019-08-19T00:15:38Z</time>
      </trkpt>
      <trkpt lat="42.296249" lon="3.241373">
        <ele>220</ele>
        <time>2019-08-19T00:15:39Z</time>
      </trkpt>
      <trkpt lat="42.296258" lon="3.241345">
        <ele>220</ele>
        <time>2019-08-19T00:15:40Z</time>
      </trkpt>
      <trkpt lat="42.296268" lon="3.241317">
        <ele>220</ele>
        <time>2019-08-19T00:15:41Z</time>
      </trkpt>
      <trkpt lat="42.296278" lon="3.241289">
        <ele>221</ele>
        <time>2019-08-19T00:15:42Z</time>
      </trkpt>
      <trkpt lat="42.296299" lon="3.241231">
        <ele>221</ele>
        <time>2019-08-19T00:15:43Z</time>
      </trkpt>
      <trkpt lat="42.296309" lon="3.241204">
        <ele>221</ele>
        <time>2019-08-19T00:15:44Z</time>
      </trkpt>
      <trkpt lat="42.296318" lon="3.241178">
        <ele>221</ele>
        <time>2019-08-19T00:15:45Z</time>
      </trkpt>
      <trkpt lat="42.296328" lon="3.241151">
        <ele>221</ele>
        <time>2019-08-19T00:15:46Z</time>
      </trkpt>
      <trkpt lat="42.296338" lon="3.241125">
        <ele>221</ele>
        <time>2019-08-19T00:15:47Z</time>
      </trkpt>
      <trkpt lat="42.296348" lon="3.241098">
        <ele>221</ele>
        <time>2019-08-19T00:15:48Z</time>
      </trkpt>
      <trkpt lat="42.296358" lon="3.241072">
        <ele>221</ele>
        <time>2019-08-19T00:15:49Z</time>
      </trkpt>
      <trkpt lat="42.296367" lon="3.241045">
        <ele>221</ele>
        <time>2019-08-19T00:15:50Z</time>
      </trkpt>
      <trkpt lat="42.296377" lon="3.241019">
        <ele>221</ele>
        <time>2019-08-19T00:15:51Z</time>
      </trkpt>
      <trkpt lat="42.296387" lon="3.240992">
        <ele>222</ele>
        <time>2019-08-19T00:15:52Z</time>
      </trkpt>
      <trkpt lat="42.296406" lon="3.240933">
        <ele>222</ele>
        <time>2019-08-19T00:15:53Z</time>
      </trkpt>
      <trkpt lat="42.296414" lon="3.240904">
        <ele>222</ele>
        <time>2019-08-19T00:15:54Z</time>
      </trkpt>
      <trkpt lat="42.296422" lon="3.240876">
        <ele>222</ele>
        <time>2019-08-19T00:15:55Z</time>
      </trkpt>
      <trkpt lat="42.29643" lon="3.240847">
        <ele>222</ele>
        <time>2019-08-19T00:15:56Z</time>
      </trkpt>
      <trkpt lat="42.296439" lon="3.240819">
        <ele>222</ele>
        <time>2019-08-19T00:15:57Z</time>
      </trkpt>
      <trkpt lat="42.296447" lon="3.24079">
        <ele>222</ele>
        <time>2019-08-19T00:15:58Z</time>
      </trkpt>
      <trkpt lat="42.296455" lon="3.240762">
        <ele>222</ele>
        <time>2019-08-19T00:15:59Z</time>
      </trkpt>
      <trkpt lat="42.296463" lon="3.240733">
        <ele>222</ele>
        <time>2019-08-19T00:16:00Z</time>
      </trkpt>
      <trkpt lat="42.296471" lon="3.240705">
        <ele>222</ele>
        <time>2019-08-19T00:16:01Z</time>
      </trkpt>
      <trkpt lat="42.296479" lon="3.240676">
        <ele>224</ele>
        <time>2019-08-19T00:16:02Z</time>
      </trkpt>
      <trkpt lat="42.296487" lon="3.240609">
        <ele>224</ele>
        <time>2019-08-19T00:16:03Z</time>
      </trkpt>
      <trkpt lat="42.296489" lon="3.240578">
        <ele>224</ele>
        <time>2019-08-19T00:16:04Z</time>
      </trkpt>
      <trkpt lat="42.29649" lon="3.240546">
        <ele>224</ele>
        <time>2019-08-19T00:16:05Z</time>
      </trkpt>
      <trkpt lat="42.296492" lon="3.240515">
        <ele>224</ele>
        <time>2019-08-19T00:16:06Z</time>
      </trkpt>
      <trkpt lat="42.296494" lon="3.240483">
        <ele>224</ele>
        <time>2019-08-19T00:16:07Z</time>
      </trkpt>
      <trkpt lat="42.296496" lon="3.240451">
        <ele>224</ele>
        <time>2019-08-19T00:16:08Z</time>
      </trkpt>
      <trkpt lat="42.296498" lon="3.24042">
        <ele>224</ele>
        <time>2019-08-19T00:16:09Z</time>
      </trkpt>
      <trkpt lat="42.296499" lon="3.240388">
        <ele>224</ele>
        <time>2019-08-19T00:16:10Z</time>
      </trkpt>
      <trkpt lat="42.296501" lon="3.240357">
        <ele>224</ele>
        <time>2019-08-19T00:16:11Z</time>
      </trkpt>
      <trkpt lat="42.296503" lon="3.240325">
        <ele>226</ele>
        <time>2019-08-19T00:16:12Z</time>
      </trkpt>
      <trkpt lat="42.296503" lon="3.240261">
        <ele>226</ele>
        <time>2019-08-19T00:16:13Z</time>
      </trkpt>
      <trkpt lat="42.296505" lon="3.240231">
        <ele>226</ele>
        <time>2019-08-19T00:16:14Z</time>
      </trkpt>
      <trkpt lat="42.296506" lon="3.240202">
        <ele>226</ele>
        <time>2019-08-19T00:16:15Z</time>
      </trkpt>
      <trkpt lat="42.296507" lon="3.240172">
        <ele>226</ele>
        <time>2019-08-19T00:16:16Z</time>
      </trkpt>
      <trkpt lat="42.296509" lon="3.240142">
        <ele>226</ele>
        <time>2019-08-19T00:16:17Z</time>
      </trkpt>
      <trkpt lat="42.29651" lon="3.240112">
        <ele>226</ele>
        <time>2019-08-19T00:16:18Z</time>
      </trkpt>
      <trkpt lat="42.296511" lon="3.240082">
        <ele>226</ele>
        <time>2019-08-19T00:16:19Z</time>
      </trkpt>
      <trkpt lat="42.296512" lon="3.240053">
        <ele>226</ele>
        <time>2019-08-19T00:16:20Z</time>
      </trkpt>
      <trkpt lat="42.296514" lon="3.240023">
        <ele>226</ele>
        <time>2019-08-19T00:16:21Z</time>
      </trkpt>
      <trkpt lat="42.296515" lon="3.239993">
        <ele>226</ele>
        <time>2019-08-19T00:16:22Z</time>
      </trkpt>
      <trkpt lat="42.296525" lon="3.239936">
        <ele>226</ele>
        <time>2019-08-19T00:16:23Z</time>
      </trkpt>
      <trkpt lat="42.296532" lon="3.23991">
        <ele>226</ele>
        <time>2019-08-19T00:16:24Z</time>
      </trkpt>
      <trkpt lat="42.29654" lon="3.239885">
        <ele>226</ele>
        <time>2019-08-19T00:16:25Z</time>
      </trkpt>
      <trkpt lat="42.296547" lon="3.239859">
        <ele>226</ele>
        <time>2019-08-19T00:16:26Z</time>
      </trkpt>
      <trkpt lat="42.296555" lon="3.239834">
        <ele>226</ele>
        <time>2019-08-19T00:16:27Z</time>
      </trkpt>
      <trkpt lat="42.296562" lon="3.239808">
        <ele>226</ele>
        <time>2019-08-19T00:16:28Z</time>
      </trkpt>
      <trkpt lat="42.29657" lon="3.239783">
        <ele>226</ele>
        <time>2019-08-19T00:16:29Z</time>
      </trkpt>
      <trkpt lat="42.296577" lon="3.239757">
        <ele>226</ele>
        <time>2019-08-19T00:16:30Z</time>
      </trkpt>
      <trkpt lat="42.296585" lon="3.239732">
        <ele>226</ele>
        <time>2019-08-19T00:16:31Z</time>
      </trkpt>
      <trkpt lat="42.296592" lon="3.239706">
        <ele>228</ele>
        <time>2019-08-19T00:16:32Z</time>
      </trkpt>
      <trkpt lat="42.296609" lon="3.239654">
        <ele>228</ele>
        <time>2019-08-19T00:16:33Z</time>
      </trkpt>
      <trkpt lat="42.296616" lon="3.239629">
        <ele>228</ele>
        <time>2019-08-19T00:16:34Z</time>
      </trkpt>
      <trkpt lat="42.296624" lon="3.239604">
        <ele>228</ele>
        <time>2019-08-19T00:16:35Z</time>
      </trkpt>
      <trkpt lat="42.296631" lon="3.239579">
        <ele>228</ele>
        <time>2019-08-19T00:16:36Z</time>
      </trkpt>
      <trkpt lat="42.296638" lon="3.239554">
        <ele>228</ele>
        <time>2019-08-19T00:16:37Z</time>
      </trkpt>
      <trkpt lat="42.296645" lon="3.239528">
        <ele>228</ele>
        <time>2019-08-19T00:16:38Z</time>
      </trkpt>
      <trkpt lat="42.296652" lon="3.239503">
        <ele>228</ele>
        <time>2019-08-19T00:16:39Z</time>
      </trkpt>
      <trkpt lat="42.29666" lon="3.239478">
        <ele>228</ele>
        <time>2019-08-19T00:16:40Z</time>
      </trkpt>
      <trkpt lat="42.296667" lon="3.239453">
        <ele>228</ele>
        <time>2019-08-19T00:16:41Z</time>
      </trkpt>
      <trkpt lat="42.296674" lon="3.239428">
        <ele>229</ele>
        <time>2019-08-19T00:16:42Z</time>
      </trkpt>
      <trkpt lat="42.296681" lon="3.239368">
        <ele>229</ele>
        <time>2019-08-19T00:16:43Z</time>
      </trkpt>
      <trkpt lat="42.296683" lon="3.239337">
        <ele>229</ele>
        <time>2019-08-19T00:16:44Z</time>
      </trkpt>
      <trkpt lat="42.296686" lon="3.239307">
        <ele>229</ele>
        <time>2019-08-19T00:16:45Z</time>
      </trkpt>
      <trkpt lat="42.296688" lon="3.239276">
        <ele>229</ele>
        <time>2019-08-19T00:16:46Z</time>
      </trkpt>
      <trkpt lat="42.29669" lon="3.239246">
        <ele>229</ele>
        <time>2019-08-19T00:16:47Z</time>
      </trkpt>
      <trkpt lat="42.296692" lon="3.239216">
        <ele>229</ele>
        <time>2019-08-19T00:16:48Z</time>
      </trkpt>
      <trkpt lat="42.296694" lon="3.239185">
        <ele>229</ele>
        <time>2019-08-19T00:16:49Z</time>
      </trkpt>
      <trkpt lat="42.296697" lon="3.239155">
        <ele>229</ele>
        <time>2019-08-19T00:16:50Z</time>
      </trkpt>
      <trkpt lat="42.296699" lon="3.239124">
        <ele>229</ele>
        <time>2019-08-19T00:16:51Z</time>
      </trkpt>
      <trkpt lat="42.296701" lon="3.239094">
        <ele>230</ele>
        <time>2019-08-19T00:16:52Z</time>
      </trkpt>
      <trkpt lat="42.296699" lon="3.239028">
        <ele>230</ele>
        <time>2019-08-19T00:16:53Z</time>
      </trkpt>
      <trkpt lat="42.296697" lon="3.238995">
        <ele>230</ele>
        <time>2019-08-19T00:16:54Z</time>
      </trkpt>
      <trkpt lat="42.296694" lon="3.238961">
        <ele>230</ele>
        <time>2019-08-19T00:16:55Z</time>
      </trkpt>
      <trkpt lat="42.296692" lon="3.238928">
        <ele>230</ele>
        <time>2019-08-19T00:16:56Z</time>
      </trkpt>
      <trkpt lat="42.296689" lon="3.238895">
        <ele>230</ele>
        <time>2019-08-19T00:16:57Z</time>
      </trkpt>
      <trkpt lat="42.296686" lon="3.238862">
        <ele>230</ele>
        <time>2019-08-19T00:16:58Z</time>
      </trkpt>
      <trkpt lat="42.296684" lon="3.238829">
        <ele>230</ele>
        <time>2019-08-19T00:16:59Z</time>
      </trkpt>
      <trkpt lat="42.296681" lon="3.238795">
        <ele>230</ele>
        <time>2019-08-19T00:17:00Z</time>
      </trkpt>
      <trkpt lat="42.296679" lon="3.238762">
        <ele>230</ele>
        <time>2019-08-19T00:17:01Z</time>
      </trkpt>
      <trkpt lat="42.296676" lon="3.238729">
        <ele>232</ele>
        <time>2019-08-19T00:17:03Z</time>
      </trkpt>
      <trkpt lat="42.296659" lon="3.23867">
        <ele>232</ele>
        <time>2019-08-19T00:17:04Z</time>
      </trkpt>
      <trkpt lat="42.296649" lon="3.238642">
        <ele>232</ele>
        <time>2019-08-19T00:17:05Z</time>
      </trkpt>
      <trkpt lat="42.29664" lon="3.238614">
        <ele>232</ele>
        <time>2019-08-19T00:17:06Z</time>
      </trkpt>
      <trkpt lat="42.296631" lon="3.238586">
        <ele>232</ele>
        <time>2019-08-19T00:17:07Z</time>
      </trkpt>
      <trkpt lat="42.296621" lon="3.238558">
        <ele>232</ele>
        <time>2019-08-19T00:17:08Z</time>
      </trkpt>
      <trkpt lat="42.296612" lon="3.23853">
        <ele>232</ele>
        <time>2019-08-19T00:17:09Z</time>
      </trkpt>
      <trkpt lat="42.296603" lon="3.238502">
        <ele>232</ele>
        <time>2019-08-19T00:17:10Z</time>
      </trkpt>
      <trkpt lat="42.296593" lon="3.238474">
        <ele>232</ele>
        <time>2019-08-19T00:17:11Z</time>
      </trkpt>
      <trkpt lat="42.296584" lon="3.238446">
        <ele>233</ele>
        <time>2019-08-19T00:17:12Z</time>
      </trkpt>
      <trkpt lat="42.296564" lon="3.238387">
        <ele>233</ele>
        <time>2019-08-19T00:17:13Z</time>
      </trkpt>
      <trkpt lat="42.296555" lon="3.23836">
        <ele>233</ele>
        <time>2019-08-19T00:17:14Z</time>
      </trkpt>
      <trkpt lat="42.296545" lon="3.238332">
        <ele>233</ele>
        <time>2019-08-19T00:17:15Z</time>
      </trkpt>
      <trkpt lat="42.296536" lon="3.238305">
        <ele>233</ele>
        <time>2019-08-19T00:17:16Z</time>
      </trkpt>
      <trkpt lat="42.296526" lon="3.238277">
        <ele>233</ele>
        <time>2019-08-19T00:17:17Z</time>
      </trkpt>
      <trkpt lat="42.296516" lon="3.238249">
        <ele>233</ele>
        <time>2019-08-19T00:17:18Z</time>
      </trkpt>
      <trkpt lat="42.296507" lon="3.238222">
        <ele>233</ele>
        <time>2019-08-19T00:17:19Z</time>
      </trkpt>
      <trkpt lat="42.296497" lon="3.238194">
        <ele>233</ele>
        <time>2019-08-19T00:17:20Z</time>
      </trkpt>
      <trkpt lat="42.296488" lon="3.238167">
        <ele>233</ele>
        <time>2019-08-19T00:17:21Z</time>
      </trkpt>
      <trkpt lat="42.296478" lon="3.238139">
        <ele>233</ele>
        <time>2019-08-19T00:17:22Z</time>
      </trkpt>
      <trkpt lat="42.296457" lon="3.238082">
        <ele>233</ele>
        <time>2019-08-19T00:17:23Z</time>
      </trkpt>
      <trkpt lat="42.296447" lon="3.238055">
        <ele>233</ele>
        <time>2019-08-19T00:17:24Z</time>
      </trkpt>
      <trkpt lat="42.296436" lon="3.238028">
        <ele>233</ele>
        <time>2019-08-19T00:17:25Z</time>
      </trkpt>
      <trkpt lat="42.296426" lon="3.238001">
        <ele>233</ele>
        <time>2019-08-19T00:17:26Z</time>
      </trkpt>
      <trkpt lat="42.296416" lon="3.237974">
        <ele>233</ele>
        <time>2019-08-19T00:17:27Z</time>
      </trkpt>
      <trkpt lat="42.296406" lon="3.237947">
        <ele>233</ele>
        <time>2019-08-19T00:17:28Z</time>
      </trkpt>
      <trkpt lat="42.296396" lon="3.23792">
        <ele>233</ele>
        <time>2019-08-19T00:17:29Z</time>
      </trkpt>
      <trkpt lat="42.296385" lon="3.237893">
        <ele>233</ele>
        <time>2019-08-19T00:17:30Z</time>
      </trkpt>
      <trkpt lat="42.296375" lon="3.237866">
        <ele>233</ele>
        <time>2019-08-19T00:17:31Z</time>
      </trkpt>
      <trkpt lat="42.296365" lon="3.237839">
        <ele>235</ele>
        <time>2019-08-19T00:17:32Z</time>
      </trkpt>
      <trkpt lat="42.296353" lon="3.237779">
        <ele>235</ele>
        <time>2019-08-19T00:17:33Z</time>
      </trkpt>
      <trkpt lat="42.296352" lon="3.23775">
        <ele>235</ele>
        <time>2019-08-19T00:17:34Z</time>
      </trkpt>
      <trkpt lat="42.296352" lon="3.23772">
        <ele>235</ele>
        <time>2019-08-19T00:17:35Z</time>
      </trkpt>
      <trkpt lat="42.296351" lon="3.23769">
        <ele>235</ele>
        <time>2019-08-19T00:17:36Z</time>
      </trkpt>
      <trkpt lat="42.296351" lon="3.23766">
        <ele>235</ele>
        <time>2019-08-19T00:17:37Z</time>
      </trkpt>
      <trkpt lat="42.29635" lon="3.237631">
        <ele>235</ele>
        <time>2019-08-19T00:17:38Z</time>
      </trkpt>
      <trkpt lat="42.29635" lon="3.237601">
        <ele>235</ele>
        <time>2019-08-19T00:17:39Z</time>
      </trkpt>
      <trkpt lat="42.296349" lon="3.237571">
        <ele>235</ele>
        <time>2019-08-19T00:17:40Z</time>
      </trkpt>
      <trkpt lat="42.296349" lon="3.237542">
        <ele>235</ele>
        <time>2019-08-19T00:17:41Z</time>
      </trkpt>
      <trkpt lat="42.296348" lon="3.237512">
        <ele>236</ele>
        <time>2019-08-19T00:17:42Z</time>
      </trkpt>
      <trkpt lat="42.296368" lon="3.237451">
        <ele>236</ele>
        <time>2019-08-19T00:17:43Z</time>
      </trkpt>
      <trkpt lat="42.296379" lon="3.23742">
        <ele>236</ele>
        <time>2019-08-19T00:17:44Z</time>
      </trkpt>
      <trkpt lat="42.296389" lon="3.23739">
        <ele>236</ele>
        <time>2019-08-19T00:17:45Z</time>
      </trkpt>
      <trkpt lat="42.2964" lon="3.237359">
        <ele>236</ele>
        <time>2019-08-19T00:17:46Z</time>
      </trkpt>
      <trkpt lat="42.29641" lon="3.237328">
        <ele>236</ele>
        <time>2019-08-19T00:17:47Z</time>
      </trkpt>
      <trkpt lat="42.29642" lon="3.237297">
        <ele>236</ele>
        <time>2019-08-19T00:17:48Z</time>
      </trkpt>
      <trkpt lat="42.296431" lon="3.237266">
        <ele>236</ele>
        <time>2019-08-19T00:17:49Z</time>
      </trkpt>
      <trkpt lat="42.296441" lon="3.237236">
        <ele>236</ele>
        <time>2019-08-19T00:17:50Z</time>
      </trkpt>
      <trkpt lat="42.296452" lon="3.237205">
        <ele>236</ele>
        <time>2019-08-19T00:17:51Z</time>
      </trkpt>
      <trkpt lat="42.296462" lon="3.237174">
        <ele>236</ele>
        <time>2019-08-19T00:17:52Z</time>
      </trkpt>
      <trkpt lat="42.296484" lon="3.237101">
        <ele>236</ele>
        <time>2019-08-19T00:17:53Z</time>
      </trkpt>
      <trkpt lat="42.296496" lon="3.237068">
        <ele>236</ele>
        <time>2019-08-19T00:17:54Z</time>
      </trkpt>
      <trkpt lat="42.296507" lon="3.237034">
        <ele>236</ele>
        <time>2019-08-19T00:17:55Z</time>
      </trkpt>
      <trkpt lat="42.296519" lon="3.237">
        <ele>236</ele>
        <time>2019-08-19T00:17:56Z</time>
      </trkpt>
      <trkpt lat="42.29653" lon="3.236967">
        <ele>236</ele>
        <time>2019-08-19T00:17:57Z</time>
      </trkpt>
      <trkpt lat="42.296541" lon="3.236933">
        <ele>236</ele>
        <time>2019-08-19T00:17:58Z</time>
      </trkpt>
      <trkpt lat="42.296553" lon="3.236899">
        <ele>236</ele>
        <time>2019-08-19T00:17:59Z</time>
      </trkpt>
      <trkpt lat="42.296564" lon="3.236865">
        <ele>236</ele>
        <time>2019-08-19T00:18:00Z</time>
      </trkpt>
      <trkpt lat="42.296576" lon="3.236832">
        <ele>236</ele>
        <time>2019-08-19T00:18:01Z</time>
      </trkpt>
      <trkpt lat="42.296587" lon="3.236798">
        <ele>237</ele>
        <time>2019-08-19T00:18:02Z</time>
      </trkpt>
      <trkpt lat="42.296619" lon="3.236734">
        <ele>237</ele>
        <time>2019-08-19T00:18:03Z</time>
      </trkpt>
      <trkpt lat="42.296638" lon="3.236709">
        <ele>237</ele>
        <time>2019-08-19T00:18:04Z</time>
      </trkpt>
      <trkpt lat="42.296657" lon="3.236684">
        <ele>237</ele>
        <time>2019-08-19T00:18:05Z</time>
      </trkpt>
      <trkpt lat="42.296676" lon="3.236659">
        <ele>237</ele>
        <time>2019-08-19T00:18:06Z</time>
      </trkpt>
      <trkpt lat="42.296696" lon="3.236634">
        <ele>237</ele>
        <time>2019-08-19T00:18:07Z</time>
      </trkpt>
      <trkpt lat="42.296715" lon="3.236609">
        <ele>237</ele>
        <time>2019-08-19T00:18:08Z</time>
      </trkpt>
      <trkpt lat="42.296734" lon="3.236584">
        <ele>237</ele>
        <time>2019-08-19T00:18:09Z</time>
      </trkpt>
      <trkpt lat="42.296753" lon="3.236559">
        <ele>237</ele>
        <time>2019-08-19T00:18:10Z</time>
      </trkpt>
      <trkpt lat="42.296772" lon="3.236534">
        <ele>237</ele>
        <time>2019-08-19T00:18:11Z</time>
      </trkpt>
      <trkpt lat="42.296791" lon="3.236509">
        <ele>238</ele>
        <time>2019-08-19T00:18:12Z</time>
      </trkpt>
      <trkpt lat="42.296812" lon="3.23648">
        <ele>238</ele>
        <time>2019-08-19T00:18:14Z</time>
      </trkpt>
      <trkpt lat="42.296812" lon="3.236453">
        <ele>238</ele>
        <time>2019-08-19T00:18:19Z</time>
      </trkpt>
      <trkpt lat="42.296812" lon="3.236453">
        <ele>237</ele>
        <time>2019-08-19T00:18:22Z</time>
      </trkpt>
      <trkpt lat="42.296812" lon="3.236437">
        <ele>237</ele>
        <time>2019-08-19T00:18:26Z</time>
      </trkpt>
      <trkpt lat="42.29688" lon="3.236454">
        <ele>244</ele>
        <time>2019-08-19T00:28:40Z</time>
      </trkpt>
      <trkpt lat="42.296887" lon="3.236428">
        <ele>244</ele>
        <time>2019-08-19T00:28:41Z</time>
      </trkpt>
      <trkpt lat="42.296886" lon="3.236383">
        <ele>244</ele>
        <time>2019-08-19T00:28:43Z</time>
      </trkpt>
      <trkpt lat="42.296877" lon="3.236342">
        <ele>244</ele>
        <time>2019-08-19T00:28:45Z</time>
      </trkpt>
      <trkpt lat="42.296871" lon="3.236304">
        <ele>244</ele>
        <time>2019-08-19T00:28:47Z</time>
      </trkpt>
      <trkpt lat="42.296868" lon="3.236274">
        <ele>244</ele>
        <time>2019-08-19T00:28:49Z</time>
      </trkpt>
      <trkpt lat="42.296855" lon="3.236203">
        <ele>244</ele>
        <time>2019-08-19T00:28:51Z</time>
      </trkpt>
      <trkpt lat="42.296853" lon="3.236174">
        <ele>244</ele>
        <time>2019-08-19T00:28:52Z</time>
      </trkpt>
      <trkpt lat="42.296852" lon="3.236146">
        <ele>244</ele>
        <time>2019-08-19T00:28:53Z</time>
      </trkpt>
      <trkpt lat="42.29685" lon="3.236118">
        <ele>244</ele>
        <time>2019-08-19T00:28:54Z</time>
      </trkpt>
      <trkpt lat="42.296848" lon="3.236089">
        <ele>244</ele>
        <time>2019-08-19T00:28:55Z</time>
      </trkpt>
      <trkpt lat="42.296846" lon="3.236061">
        <ele>244</ele>
        <time>2019-08-19T00:28:56Z</time>
      </trkpt>
      <trkpt lat="42.296845" lon="3.236033">
        <ele>244</ele>
        <time>2019-08-19T00:28:57Z</time>
      </trkpt>
      <trkpt lat="42.296843" lon="3.236004">
        <ele>244</ele>
        <time>2019-08-19T00:28:58Z</time>
      </trkpt>
      <trkpt lat="42.296841" lon="3.235976">
        <ele>245</ele>
        <time>2019-08-19T00:28:59Z</time>
      </trkpt>
      <trkpt lat="42.296854" lon="3.235913">
        <ele>245</ele>
        <time>2019-08-19T00:29:00Z</time>
      </trkpt>
      <trkpt lat="42.296863" lon="3.235883">
        <ele>245</ele>
        <time>2019-08-19T00:29:01Z</time>
      </trkpt>
      <trkpt lat="42.296872" lon="3.235853">
        <ele>245</ele>
        <time>2019-08-19T00:29:02Z</time>
      </trkpt>
      <trkpt lat="42.296881" lon="3.235823">
        <ele>245</ele>
        <time>2019-08-19T00:29:03Z</time>
      </trkpt>
      <trkpt lat="42.29689" lon="3.235794">
        <ele>245</ele>
        <time>2019-08-19T00:29:04Z</time>
      </trkpt>
      <trkpt lat="42.296899" lon="3.235764">
        <ele>245</ele>
        <time>2019-08-19T00:29:05Z</time>
      </trkpt>
      <trkpt lat="42.296908" lon="3.235734">
        <ele>245</ele>
        <time>2019-08-19T00:29:06Z</time>
      </trkpt>
      <trkpt lat="42.296917" lon="3.235704">
        <ele>245</ele>
        <time>2019-08-19T00:29:07Z</time>
      </trkpt>
      <trkpt lat="42.296926" lon="3.235674">
        <ele>245</ele>
        <time>2019-08-19T00:29:08Z</time>
      </trkpt>
      <trkpt lat="42.296935" lon="3.235644">
        <ele>246</ele>
        <time>2019-08-19T00:29:09Z</time>
      </trkpt>
      <trkpt lat="42.296945" lon="3.235577">
        <ele>246</ele>
        <time>2019-08-19T00:29:10Z</time>
      </trkpt>
      <trkpt lat="42.296944" lon="3.235543">
        <ele>246</ele>
        <time>2019-08-19T00:29:11Z</time>
      </trkpt>
      <trkpt lat="42.296943" lon="3.235509">
        <ele>246</ele>
        <time>2019-08-19T00:29:12Z</time>
      </trkpt>
      <trkpt lat="42.296942" lon="3.235475">
        <ele>246</ele>
        <time>2019-08-19T00:29:13Z</time>
      </trkpt>
      <trkpt lat="42.296942" lon="3.235441">
        <ele>246</ele>
        <time>2019-08-19T00:29:14Z</time>
      </trkpt>
      <trkpt lat="42.296941" lon="3.235407">
        <ele>246</ele>
        <time>2019-08-19T00:29:15Z</time>
      </trkpt>
      <trkpt lat="42.29694" lon="3.235373">
        <ele>246</ele>
        <time>2019-08-19T00:29:16Z</time>
      </trkpt>
      <trkpt lat="42.296939" lon="3.235339">
        <ele>246</ele>
        <time>2019-08-19T00:29:17Z</time>
      </trkpt>
      <trkpt lat="42.296938" lon="3.235305">
        <ele>246</ele>
        <time>2019-08-19T00:29:18Z</time>
      </trkpt>
      <trkpt lat="42.296937" lon="3.235271">
        <ele>246</ele>
        <time>2019-08-19T00:29:19Z</time>
      </trkpt>
      <trkpt lat="42.296899" lon="3.235216">
        <ele>246</ele>
        <time>2019-08-19T00:29:20Z</time>
      </trkpt>
      <trkpt lat="42.296874" lon="3.235195">
        <ele>246</ele>
        <time>2019-08-19T00:29:21Z</time>
      </trkpt>
      <trkpt lat="42.296848" lon="3.235173">
        <ele>246</ele>
        <time>2019-08-19T00:29:22Z</time>
      </trkpt>
      <trkpt lat="42.296823" lon="3.235152">
        <ele>246</ele>
        <time>2019-08-19T00:29:23Z</time>
      </trkpt>
      <trkpt lat="42.296798" lon="3.23513">
        <ele>246</ele>
        <time>2019-08-19T00:29:24Z</time>
      </trkpt>
      <trkpt lat="42.296773" lon="3.235108">
        <ele>246</ele>
        <time>2019-08-19T00:29:25Z</time>
      </trkpt>
      <trkpt lat="42.296748" lon="3.235087">
        <ele>246</ele>
        <time>2019-08-19T00:29:26Z</time>
      </trkpt>
      <trkpt lat="42.296722" lon="3.235065">
        <ele>246</ele>
        <time>2019-08-19T00:29:27Z</time>
      </trkpt>
      <trkpt lat="42.296697" lon="3.235044">
        <ele>246</ele>
        <time>2019-08-19T00:29:28Z</time>
      </trkpt>
      <trkpt lat="42.296672" lon="3.235022">
        <ele>247</ele>
        <time>2019-08-19T00:29:29Z</time>
      </trkpt>
      <trkpt lat="42.296605" lon="3.235">
        <ele>247</ele>
        <time>2019-08-19T00:29:30Z</time>
      </trkpt>
      <trkpt lat="42.296574" lon="3.234988">
        <ele>247</ele>
        <time>2019-08-19T00:29:31Z</time>
      </trkpt>
      <trkpt lat="42.296543" lon="3.234977">
        <ele>247</ele>
        <time>2019-08-19T00:29:32Z</time>
      </trkpt>
      <trkpt lat="42.296512" lon="3.234966">
        <ele>247</ele>
        <time>2019-08-19T00:29:33Z</time>
      </trkpt>
      <trkpt lat="42.296481" lon="3.234954">
        <ele>247</ele>
        <time>2019-08-19T00:29:34Z</time>
      </trkpt>
      <trkpt lat="42.296449" lon="3.234943">
        <ele>247</ele>
        <time>2019-08-19T00:29:35Z</time>
      </trkpt>
      <trkpt lat="42.296418" lon="3.234932">
        <ele>247</ele>
        <time>2019-08-19T00:29:36Z</time>
      </trkpt>
      <trkpt lat="42.296387" lon="3.234921">
        <ele>247</ele>
        <time>2019-08-19T00:29:37Z</time>
      </trkpt>
      <trkpt lat="42.296356" lon="3.234909">
        <ele>247</ele>
        <time>2019-08-19T00:29:38Z</time>
      </trkpt>
      <trkpt lat="42.296325" lon="3.234898">
        <ele>246</ele>
        <time>2019-08-19T00:29:39Z</time>
      </trkpt>
      <trkpt lat="42.296254" lon="3.234871">
        <ele>246</ele>
        <time>2019-08-19T00:29:40Z</time>
      </trkpt>
      <trkpt lat="42.296218" lon="3.234859">
        <ele>246</ele>
        <time>2019-08-19T00:29:41Z</time>
      </trkpt>
      <trkpt lat="42.296183" lon="3.234846">
        <ele>246</ele>
        <time>2019-08-19T00:29:42Z</time>
      </trkpt>
      <trkpt lat="42.296147" lon="3.234834">
        <ele>246</ele>
        <time>2019-08-19T00:29:43Z</time>
      </trkpt>
      <trkpt lat="42.296112" lon="3.234821">
        <ele>246</ele>
        <time>2019-08-19T00:29:44Z</time>
      </trkpt>
      <trkpt lat="42.296076" lon="3.234808">
        <ele>246</ele>
        <time>2019-08-19T00:29:45Z</time>
      </trkpt>
      <trkpt lat="42.296041" lon="3.234796">
        <ele>246</ele>
        <time>2019-08-19T00:29:46Z</time>
      </trkpt>
      <trkpt lat="42.296005" lon="3.234783">
        <ele>246</ele>
        <time>2019-08-19T00:29:47Z</time>
      </trkpt>
      <trkpt lat="42.29597" lon="3.234771">
        <ele>246</ele>
        <time>2019-08-19T00:29:48Z</time>
      </trkpt>
      <trkpt lat="42.295934" lon="3.234758">
        <ele>246</ele>
        <time>2019-08-19T00:29:49Z</time>
      </trkpt>
      <trkpt lat="42.295858" lon="3.234728">
        <ele>246</ele>
        <time>2019-08-19T00:29:50Z</time>
      </trkpt>
      <trkpt lat="42.295821" lon="3.234715">
        <ele>246</ele>
        <time>2019-08-19T00:29:51Z</time>
      </trkpt>
      <trkpt lat="42.295785" lon="3.234701">
        <ele>246</ele>
        <time>2019-08-19T00:29:52Z</time>
      </trkpt>
      <trkpt lat="42.295748" lon="3.234687">
        <ele>246</ele>
        <time>2019-08-19T00:29:53Z</time>
      </trkpt>
      <trkpt lat="42.295712" lon="3.234673">
        <ele>246</ele>
        <time>2019-08-19T00:29:54Z</time>
      </trkpt>
      <trkpt lat="42.295675" lon="3.23466">
        <ele>246</ele>
        <time>2019-08-19T00:29:55Z</time>
      </trkpt>
      <trkpt lat="42.295639" lon="3.234646">
        <ele>246</ele>
        <time>2019-08-19T00:29:56Z</time>
      </trkpt>
      <trkpt lat="42.295602" lon="3.234632">
        <ele>246</ele>
        <time>2019-08-19T00:29:57Z</time>
      </trkpt>
      <trkpt lat="42.295566" lon="3.234619">
        <ele>246</ele>
        <time>2019-08-19T00:29:58Z</time>
      </trkpt>
      <trkpt lat="42.295529" lon="3.234605">
        <ele>246</ele>
        <time>2019-08-19T00:29:59Z</time>
      </trkpt>
      <trkpt lat="42.295444" lon="3.234593">
        <ele>246</ele>
        <time>2019-08-19T00:30:00Z</time>
      </trkpt>
      <trkpt lat="42.295403" lon="3.234596">
        <ele>246</ele>
        <time>2019-08-19T00:30:01Z</time>
      </trkpt>
      <trkpt lat="42.295362" lon="3.234598">
        <ele>246</ele>
        <time>2019-08-19T00:30:02Z</time>
      </trkpt>
      <trkpt lat="42.295321" lon="3.234601">
        <ele>246</ele>
        <time>2019-08-19T00:30:03Z</time>
      </trkpt>
      <trkpt lat="42.29528" lon="3.234604">
        <ele>246</ele>
        <time>2019-08-19T00:30:04Z</time>
      </trkpt>
      <trkpt lat="42.295238" lon="3.234607">
        <ele>246</ele>
        <time>2019-08-19T00:30:05Z</time>
      </trkpt>
      <trkpt lat="42.295197" lon="3.23461">
        <ele>246</ele>
        <time>2019-08-19T00:30:06Z</time>
      </trkpt>
      <trkpt lat="42.295156" lon="3.234612">
        <ele>246</ele>
        <time>2019-08-19T00:30:07Z</time>
      </trkpt>
      <trkpt lat="42.295115" lon="3.234615">
        <ele>246</ele>
        <time>2019-08-19T00:30:08Z</time>
      </trkpt>
      <trkpt lat="42.295074" lon="3.234618">
        <ele>246</ele>
        <time>2019-08-19T00:30:09Z</time>
      </trkpt>
      <trkpt lat="42.29499" lon="3.234631">
        <ele>246</ele>
        <time>2019-08-19T00:30:10Z</time>
      </trkpt>
      <trkpt lat="42.294951" lon="3.234635">
        <ele>246</ele>
        <time>2019-08-19T00:30:11Z</time>
      </trkpt>
      <trkpt lat="42.294913" lon="3.234639">
        <ele>246</ele>
        <time>2019-08-19T00:30:12Z</time>
      </trkpt>
      <trkpt lat="42.294874" lon="3.234643">
        <ele>246</ele>
        <time>2019-08-19T00:30:13Z</time>
      </trkpt>
      <trkpt lat="42.294835" lon="3.234648">
        <ele>246</ele>
        <time>2019-08-19T00:30:14Z</time>
      </trkpt>
      <trkpt lat="42.294796" lon="3.234652">
        <ele>246</ele>
        <time>2019-08-19T00:30:15Z</time>
      </trkpt>
      <trkpt lat="42.294757" lon="3.234656">
        <ele>246</ele>
        <time>2019-08-19T00:30:16Z</time>
      </trkpt>
      <trkpt lat="42.294719" lon="3.23466">
        <ele>246</ele>
        <time>2019-08-19T00:30:17Z</time>
      </trkpt>
      <trkpt lat="42.29468" lon="3.234664">
        <ele>246</ele>
        <time>2019-08-19T00:30:18Z</time>
      </trkpt>
      <trkpt lat="42.294641" lon="3.234668">
        <ele>246</ele>
        <time>2019-08-19T00:30:19Z</time>
      </trkpt>
      <trkpt lat="42.294566" lon="3.234636">
        <ele>246</ele>
        <time>2019-08-19T00:30:20Z</time>
      </trkpt>
      <trkpt lat="42.294533" lon="3.234615">
        <ele>246</ele>
        <time>2019-08-19T00:30:21Z</time>
      </trkpt>
      <trkpt lat="42.2945" lon="3.234594">
        <ele>246</ele>
        <time>2019-08-19T00:30:22Z</time>
      </trkpt>
      <trkpt lat="42.294467" lon="3.234573">
        <ele>246</ele>
        <time>2019-08-19T00:30:23Z</time>
      </trkpt>
      <trkpt lat="42.294434" lon="3.234551">
        <ele>246</ele>
        <time>2019-08-19T00:30:24Z</time>
      </trkpt>
      <trkpt lat="42.2944" lon="3.23453">
        <ele>246</ele>
        <time>2019-08-19T00:30:25Z</time>
      </trkpt>
      <trkpt lat="42.294367" lon="3.234509">
        <ele>246</ele>
        <time>2019-08-19T00:30:26Z</time>
      </trkpt>
      <trkpt lat="42.294334" lon="3.234488">
        <ele>246</ele>
        <time>2019-08-19T00:30:27Z</time>
      </trkpt>
      <trkpt lat="42.294301" lon="3.234467">
        <ele>246</ele>
        <time>2019-08-19T00:30:28Z</time>
      </trkpt>
      <trkpt lat="42.294268" lon="3.234446">
        <ele>245</ele>
        <time>2019-08-19T00:30:29Z</time>
      </trkpt>
      <trkpt lat="42.2942" lon="3.234401">
        <ele>245</ele>
        <time>2019-08-19T00:30:30Z</time>
      </trkpt>
      <trkpt lat="42.294167" lon="3.23438">
        <ele>245</ele>
        <time>2019-08-19T00:30:32Z</time>
      </trkpt>
      <trkpt lat="42.294133" lon="3.234359">
        <ele>245</ele>
        <time>2019-08-19T00:30:33Z</time>
      </trkpt>
      <trkpt lat="42.2941" lon="3.234338">
        <ele>245</ele>
        <time>2019-08-19T00:30:34Z</time>
      </trkpt>
      <trkpt lat="42.294066" lon="3.234316">
        <ele>245</ele>
        <time>2019-08-19T00:30:35Z</time>
      </trkpt>
      <trkpt lat="42.294033" lon="3.234295">
        <ele>245</ele>
        <time>2019-08-19T00:30:36Z</time>
      </trkpt>
      <trkpt lat="42.293999" lon="3.234274">
        <ele>245</ele>
        <time>2019-08-19T00:30:37Z</time>
      </trkpt>
      <trkpt lat="42.293966" lon="3.234253">
        <ele>245</ele>
        <time>2019-08-19T00:30:38Z</time>
      </trkpt>
      <trkpt lat="42.293932" lon="3.234232">
        <ele>245</ele>
        <time>2019-08-19T00:30:39Z</time>
      </trkpt>
      <trkpt lat="42.293876" lon="3.234174">
        <ele>245</ele>
        <time>2019-08-19T00:30:40Z</time>
      </trkpt>
      <trkpt lat="42.293853" lon="3.234138">
        <ele>245</ele>
        <time>2019-08-19T00:30:41Z</time>
      </trkpt>
      <trkpt lat="42.293829" lon="3.234101">
        <ele>245</ele>
        <time>2019-08-19T00:30:42Z</time>
      </trkpt>
      <trkpt lat="42.293805" lon="3.234065">
        <ele>245</ele>
        <time>2019-08-19T00:30:43Z</time>
      </trkpt>
      <trkpt lat="42.293782" lon="3.234028">
        <ele>245</ele>
        <time>2019-08-19T00:30:44Z</time>
      </trkpt>
      <trkpt lat="42.293758" lon="3.233992">
        <ele>245</ele>
        <time>2019-08-19T00:30:45Z</time>
      </trkpt>
      <trkpt lat="42.293734" lon="3.233955">
        <ele>245</ele>
        <time>2019-08-19T00:30:46Z</time>
      </trkpt>
      <trkpt lat="42.29371" lon="3.233919">
        <ele>245</ele>
        <time>2019-08-19T00:30:47Z</time>
      </trkpt>
      <trkpt lat="42.293687" lon="3.233882">
        <ele>245</ele>
        <time>2019-08-19T00:30:48Z</time>
      </trkpt>
      <trkpt lat="42.293663" lon="3.233846">
        <ele>245</ele>
        <time>2019-08-19T00:30:49Z</time>
      </trkpt>
      <trkpt lat="42.293625" lon="3.233751">
        <ele>245</ele>
        <time>2019-08-19T00:30:50Z</time>
      </trkpt>
      <trkpt lat="42.293606" lon="3.233706">
        <ele>245</ele>
        <time>2019-08-19T00:30:51Z</time>
      </trkpt>
      <trkpt lat="42.293588" lon="3.23366">
        <ele>245</ele>
        <time>2019-08-19T00:30:52Z</time>
      </trkpt>
      <trkpt lat="42.293569" lon="3.233615">
        <ele>245</ele>
        <time>2019-08-19T00:30:53Z</time>
      </trkpt>
      <trkpt lat="42.293551" lon="3.23357">
        <ele>245</ele>
        <time>2019-08-19T00:30:54Z</time>
      </trkpt>
      <trkpt lat="42.293532" lon="3.233525">
        <ele>245</ele>
        <time>2019-08-19T00:30:55Z</time>
      </trkpt>
      <trkpt lat="42.293514" lon="3.23348">
        <ele>245</ele>
        <time>2019-08-19T00:30:56Z</time>
      </trkpt>
      <trkpt lat="42.293495" lon="3.233434">
        <ele>245</ele>
        <time>2019-08-19T00:30:57Z</time>
      </trkpt>
      <trkpt lat="42.293477" lon="3.233389">
        <ele>245</ele>
        <time>2019-08-19T00:30:58Z</time>
      </trkpt>
      <trkpt lat="42.293458" lon="3.233344">
        <ele>245</ele>
        <time>2019-08-19T00:30:59Z</time>
      </trkpt>
      <trkpt lat="42.293397" lon="3.233282">
        <ele>245</ele>
        <time>2019-08-19T00:31:00Z</time>
      </trkpt>
      <trkpt lat="42.293361" lon="3.233264">
        <ele>245</ele>
        <time>2019-08-19T00:31:01Z</time>
      </trkpt>
      <trkpt lat="42.293326" lon="3.233247">
        <ele>245</ele>
        <time>2019-08-19T00:31:02Z</time>
      </trkpt>
      <trkpt lat="42.29329" lon="3.233229">
        <ele>245</ele>
        <time>2019-08-19T00:31:03Z</time>
      </trkpt>
      <trkpt lat="42.293254" lon="3.233212">
        <ele>245</ele>
        <time>2019-08-19T00:31:04Z</time>
      </trkpt>
      <trkpt lat="42.293218" lon="3.233195">
        <ele>245</ele>
        <time>2019-08-19T00:31:05Z</time>
      </trkpt>
      <trkpt lat="42.293182" lon="3.233177">
        <ele>245</ele>
        <time>2019-08-19T00:31:06Z</time>
      </trkpt>
      <trkpt lat="42.293147" lon="3.23316">
        <ele>245</ele>
        <time>2019-08-19T00:31:07Z</time>
      </trkpt>
      <trkpt lat="42.293111" lon="3.233142">
        <ele>245</ele>
        <time>2019-08-19T00:31:08Z</time>
      </trkpt>
      <trkpt lat="42.293075" lon="3.233125">
        <ele>245</ele>
        <time>2019-08-19T00:31:09Z</time>
      </trkpt>
      <trkpt lat="42.292988" lon="3.233113">
        <ele>245</ele>
        <time>2019-08-19T00:31:10Z</time>
      </trkpt>
      <trkpt lat="42.292947" lon="3.233108">
        <ele>245</ele>
        <time>2019-08-19T00:31:11Z</time>
      </trkpt>
      <trkpt lat="42.292905" lon="3.233103">
        <ele>245</ele>
        <time>2019-08-19T00:31:12Z</time>
      </trkpt>
      <trkpt lat="42.292864" lon="3.233098">
        <ele>245</ele>
        <time>2019-08-19T00:31:13Z</time>
      </trkpt>
      <trkpt lat="42.292823" lon="3.233093">
        <ele>245</ele>
        <time>2019-08-19T00:31:14Z</time>
      </trkpt>
      <trkpt lat="42.292782" lon="3.233089">
        <ele>245</ele>
        <time>2019-08-19T00:31:15Z</time>
      </trkpt>
      <trkpt lat="42.292741" lon="3.233084">
        <ele>245</ele>
        <time>2019-08-19T00:31:16Z</time>
      </trkpt>
      <trkpt lat="42.292699" lon="3.233079">
        <ele>245</ele>
        <time>2019-08-19T00:31:17Z</time>
      </trkpt>
      <trkpt lat="42.292658" lon="3.233074">
        <ele>245</ele>
        <time>2019-08-19T00:31:18Z</time>
      </trkpt>
      <trkpt lat="42.292617" lon="3.233069">
        <ele>244</ele>
        <time>2019-08-19T00:31:19Z</time>
      </trkpt>
      <trkpt lat="42.292531" lon="3.233079">
        <ele>244</ele>
        <time>2019-08-19T00:31:20Z</time>
      </trkpt>
      <trkpt lat="42.29249" lon="3.233088">
        <ele>244</ele>
        <time>2019-08-19T00:31:21Z</time>
      </trkpt>
      <trkpt lat="42.29245" lon="3.233098">
        <ele>244</ele>
        <time>2019-08-19T00:31:22Z</time>
      </trkpt>
      <trkpt lat="42.292409" lon="3.233107">
        <ele>244</ele>
        <time>2019-08-19T00:31:23Z</time>
      </trkpt>
      <trkpt lat="42.292368" lon="3.233117">
        <ele>244</ele>
        <time>2019-08-19T00:31:24Z</time>
      </trkpt>
      <trkpt lat="42.292327" lon="3.233127">
        <ele>244</ele>
        <time>2019-08-19T00:31:25Z</time>
      </trkpt>
      <trkpt lat="42.292286" lon="3.233136">
        <ele>244</ele>
        <time>2019-08-19T00:31:26Z</time>
      </trkpt>
      <trkpt lat="42.292246" lon="3.233146">
        <ele>244</ele>
        <time>2019-08-19T00:31:27Z</time>
      </trkpt>
      <trkpt lat="42.292205" lon="3.233155">
        <ele>244</ele>
        <time>2019-08-19T00:31:28Z</time>
      </trkpt>
      <trkpt lat="42.292164" lon="3.233165">
        <ele>244</ele>
        <time>2019-08-19T00:31:29Z</time>
      </trkpt>
      <trkpt lat="42.292076" lon="3.233186">
        <ele>244</ele>
        <time>2019-08-19T00:31:30Z</time>
      </trkpt>
      <trkpt lat="42.292034" lon="3.233195">
        <ele>244</ele>
        <time>2019-08-19T00:31:31Z</time>
      </trkpt>
      <trkpt lat="42.291993" lon="3.233205">
        <ele>244</ele>
        <time>2019-08-19T00:31:32Z</time>
      </trkpt>
      <trkpt lat="42.291951" lon="3.233214">
        <ele>244</ele>
        <time>2019-08-19T00:31:33Z</time>
      </trkpt>
      <trkpt lat="42.291909" lon="3.233224">
        <ele>244</ele>
        <time>2019-08-19T00:31:34Z</time>
      </trkpt>
      <trkpt lat="42.291867" lon="3.233234">
        <ele>244</ele>
        <time>2019-08-19T00:31:35Z</time>
      </trkpt>
      <trkpt lat="42.291825" lon="3.233243">
        <ele>244</ele>
        <time>2019-08-19T00:31:36Z</time>
      </trkpt>
      <trkpt lat="42.291784" lon="3.233253">
        <ele>244</ele>
        <time>2019-08-19T00:31:37Z</time>
      </trkpt>
      <trkpt lat="42.291742" lon="3.233262">
        <ele>244</ele>
        <time>2019-08-19T00:31:38Z</time>
      </trkpt>
      <trkpt lat="42.2917" lon="3.233272">
        <ele>244</ele>
        <time>2019-08-19T00:31:39Z</time>
      </trkpt>
      <trkpt lat="42.291624" lon="3.233249">
        <ele>244</ele>
        <time>2019-08-19T00:31:40Z</time>
      </trkpt>
      <trkpt lat="42.291594" lon="3.23322">
        <ele>244</ele>
        <time>2019-08-19T00:31:41Z</time>
      </trkpt>
      <trkpt lat="42.291565" lon="3.233191">
        <ele>244</ele>
        <time>2019-08-19T00:31:42Z</time>
      </trkpt>
      <trkpt lat="42.291535" lon="3.233162">
        <ele>244</ele>
        <time>2019-08-19T00:31:43Z</time>
      </trkpt>
      <trkpt lat="42.291506" lon="3.233132">
        <ele>244</ele>
        <time>2019-08-19T00:31:44Z</time>
      </trkpt>
      <trkpt lat="42.291477" lon="3.233103">
        <ele>244</ele>
        <time>2019-08-19T00:31:45Z</time>
      </trkpt>
      <trkpt lat="42.291447" lon="3.233074">
        <ele>244</ele>
        <time>2019-08-19T00:31:46Z</time>
      </trkpt>
      <trkpt lat="42.291418" lon="3.233045">
        <ele>244</ele>
        <time>2019-08-19T00:31:47Z</time>
      </trkpt>
      <trkpt lat="42.291388" lon="3.233016">
        <ele>244</ele>
        <time>2019-08-19T00:31:48Z</time>
      </trkpt>
      <trkpt lat="42.291359" lon="3.232987">
        <ele>244</ele>
        <time>2019-08-19T00:31:49Z</time>
      </trkpt>
      <trkpt lat="42.291355" lon="3.232882">
        <ele>244</ele>
        <time>2019-08-19T00:31:50Z</time>
      </trkpt>
      <trkpt lat="42.291364" lon="3.232833">
        <ele>244</ele>
        <time>2019-08-19T00:31:51Z</time>
      </trkpt>
      <trkpt lat="42.291372" lon="3.232784">
        <ele>244</ele>
        <time>2019-08-19T00:31:52Z</time>
      </trkpt>
      <trkpt lat="42.29138" lon="3.232735">
        <ele>244</ele>
        <time>2019-08-19T00:31:53Z</time>
      </trkpt>
      <trkpt lat="42.291389" lon="3.232686">
        <ele>244</ele>
        <time>2019-08-19T00:31:54Z</time>
      </trkpt>
      <trkpt lat="42.291397" lon="3.232636">
        <ele>244</ele>
        <time>2019-08-19T00:31:55Z</time>
      </trkpt>
      <trkpt lat="42.291405" lon="3.232587">
        <ele>244</ele>
        <time>2019-08-19T00:31:56Z</time>
      </trkpt>
      <trkpt lat="42.291413" lon="3.232538">
        <ele>244</ele>
        <time>2019-08-19T00:31:57Z</time>
      </trkpt>
      <trkpt lat="42.291422" lon="3.232489">
        <ele>244</ele>
        <time>2019-08-19T00:31:58Z</time>
      </trkpt>
      <trkpt lat="42.29143" lon="3.23244">
        <ele>244</ele>
        <time>2019-08-19T00:31:59Z</time>
      </trkpt>
      <trkpt lat="42.291499" lon="3.232366">
        <ele>244</ele>
        <time>2019-08-19T00:32:00Z</time>
      </trkpt>
      <trkpt lat="42.291537" lon="3.232335">
        <ele>244</ele>
        <time>2019-08-19T00:32:01Z</time>
      </trkpt>
      <trkpt lat="42.291575" lon="3.232303">
        <ele>244</ele>
        <time>2019-08-19T00:32:02Z</time>
      </trkpt>
      <trkpt lat="42.291613" lon="3.232271">
        <ele>244</ele>
        <time>2019-08-19T00:32:03Z</time>
      </trkpt>
      <trkpt lat="42.291651" lon="3.23224">
        <ele>244</ele>
        <time>2019-08-19T00:32:04Z</time>
      </trkpt>
      <trkpt lat="42.291688" lon="3.232208">
        <ele>244</ele>
        <time>2019-08-19T00:32:05Z</time>
      </trkpt>
      <trkpt lat="42.291726" lon="3.232176">
        <ele>244</ele>
        <time>2019-08-19T00:32:06Z</time>
      </trkpt>
      <trkpt lat="42.291764" lon="3.232144">
        <ele>244</ele>
        <time>2019-08-19T00:32:07Z</time>
      </trkpt>
      <trkpt lat="42.291802" lon="3.232113">
        <ele>244</ele>
        <time>2019-08-19T00:32:08Z</time>
      </trkpt>
      <trkpt lat="42.29184" lon="3.232081">
        <ele>245</ele>
        <time>2019-08-19T00:32:10Z</time>
      </trkpt>
      <trkpt lat="42.291896" lon="3.232002">
        <ele>245</ele>
        <time>2019-08-19T00:32:11Z</time>
      </trkpt>
      <trkpt lat="42.291917" lon="3.231959">
        <ele>245</ele>
        <time>2019-08-19T00:32:12Z</time>
      </trkpt>
      <trkpt lat="42.291939" lon="3.231916">
        <ele>245</ele>
        <time>2019-08-19T00:32:13Z</time>
      </trkpt>
      <trkpt lat="42.29196" lon="3.231873">
        <ele>245</ele>
        <time>2019-08-19T00:32:14Z</time>
      </trkpt>
      <trkpt lat="42.291981" lon="3.231829">
        <ele>245</ele>
        <time>2019-08-19T00:32:15Z</time>
      </trkpt>
      <trkpt lat="42.292002" lon="3.231786">
        <ele>245</ele>
        <time>2019-08-19T00:32:16Z</time>
      </trkpt>
      <trkpt lat="42.292024" lon="3.231743">
        <ele>245</ele>
        <time>2019-08-19T00:32:17Z</time>
      </trkpt>
      <trkpt lat="42.292045" lon="3.2317">
        <ele>245</ele>
        <time>2019-08-19T00:32:18Z</time>
      </trkpt>
      <trkpt lat="42.292066" lon="3.231657">
        <ele>245</ele>
        <time>2019-08-19T00:32:19Z</time>
      </trkpt>
      <trkpt lat="42.292055" lon="3.231552">
        <ele>245</ele>
        <time>2019-08-19T00:32:20Z</time>
      </trkpt>
      <trkpt lat="42.292034" lon="3.231507">
        <ele>245</ele>
        <time>2019-08-19T00:32:21Z</time>
      </trkpt>
      <trkpt lat="42.292012" lon="3.231461">
        <ele>245</ele>
        <time>2019-08-19T00:32:22Z</time>
      </trkpt>
      <trkpt lat="42.291991" lon="3.231415">
        <ele>245</ele>
        <time>2019-08-19T00:32:23Z</time>
      </trkpt>
      <trkpt lat="42.291969" lon="3.23137">
        <ele>245</ele>
        <time>2019-08-19T00:32:24Z</time>
      </trkpt>
      <trkpt lat="42.291948" lon="3.231324">
        <ele>245</ele>
        <time>2019-08-19T00:32:25Z</time>
      </trkpt>
      <trkpt lat="42.291926" lon="3.231279">
        <ele>245</ele>
        <time>2019-08-19T00:32:26Z</time>
      </trkpt>
      <trkpt lat="42.291905" lon="3.231233">
        <ele>245</ele>
        <time>2019-08-19T00:32:27Z</time>
      </trkpt>
      <trkpt lat="42.291883" lon="3.231187">
        <ele>245</ele>
        <time>2019-08-19T00:32:28Z</time>
      </trkpt>
      <trkpt lat="42.291862" lon="3.231142">
        <ele>245</ele>
        <time>2019-08-19T00:32:29Z</time>
      </trkpt>
      <trkpt lat="42.29184" lon="3.231096">
        <ele>245</ele>
        <time>2019-08-19T00:32:30Z</time>
      </trkpt>
      <trkpt lat="42.29178" lon="3.231012">
        <ele>245</ele>
        <time>2019-08-19T00:32:31Z</time>
      </trkpt>
      <trkpt lat="42.29176" lon="3.230966">
        <ele>245</ele>
        <time>2019-08-19T00:32:32Z</time>
      </trkpt>
      <trkpt lat="42.29174" lon="3.230921">
        <ele>245</ele>
        <time>2019-08-19T00:32:33Z</time>
      </trkpt>
      <trkpt lat="42.29172" lon="3.230875">
        <ele>245</ele>
        <time>2019-08-19T00:32:34Z</time>
      </trkpt>
      <trkpt lat="42.2917" lon="3.230829">
        <ele>245</ele>
        <time>2019-08-19T00:32:35Z</time>
      </trkpt>
      <trkpt lat="42.29168" lon="3.230783">
        <ele>245</ele>
        <time>2019-08-19T00:32:36Z</time>
      </trkpt>
      <trkpt lat="42.29166" lon="3.230738">
        <ele>245</ele>
        <time>2019-08-19T00:32:37Z</time>
      </trkpt>
      <trkpt lat="42.29164" lon="3.230692">
        <ele>245</ele>
        <time>2019-08-19T00:32:38Z</time>
      </trkpt>
      <trkpt lat="42.29162" lon="3.230646">
        <ele>246</ele>
        <time>2019-08-19T00:32:39Z</time>
      </trkpt>
      <trkpt lat="42.291664" lon="3.230571">
        <ele>246</ele>
        <time>2019-08-19T00:32:40Z</time>
      </trkpt>
      <trkpt lat="42.291697" lon="3.230557">
        <ele>246</ele>
        <time>2019-08-19T00:32:41Z</time>
      </trkpt>
      <trkpt lat="42.291731" lon="3.230544">
        <ele>246</ele>
        <time>2019-08-19T00:32:42Z</time>
      </trkpt>
      <trkpt lat="42.291764" lon="3.230531">
        <ele>246</ele>
        <time>2019-08-19T00:32:43Z</time>
      </trkpt>
      <trkpt lat="42.291798" lon="3.230518">
        <ele>246</ele>
        <time>2019-08-19T00:32:44Z</time>
      </trkpt>
      <trkpt lat="42.291832" lon="3.230504">
        <ele>246</ele>
        <time>2019-08-19T00:32:45Z</time>
      </trkpt>
      <trkpt lat="42.291865" lon="3.230491">
        <ele>246</ele>
        <time>2019-08-19T00:32:46Z</time>
      </trkpt>
      <trkpt lat="42.291899" lon="3.230478">
        <ele>246</ele>
        <time>2019-08-19T00:32:47Z</time>
      </trkpt>
      <trkpt lat="42.291932" lon="3.230464">
        <ele>246</ele>
        <time>2019-08-19T00:32:48Z</time>
      </trkpt>
      <trkpt lat="42.291966" lon="3.230451">
        <ele>246</ele>
        <time>2019-08-19T00:32:49Z</time>
      </trkpt>
      <trkpt lat="42.292028" lon="3.23046">
        <ele>246</ele>
        <time>2019-08-19T00:32:50Z</time>
      </trkpt>
      <trkpt lat="42.292054" lon="3.230461">
        <ele>246</ele>
        <time>2019-08-19T00:32:51Z</time>
      </trkpt>
      <trkpt lat="42.292079" lon="3.230463">
        <ele>246</ele>
        <time>2019-08-19T00:32:52Z</time>
      </trkpt>
      <trkpt lat="42.292105" lon="3.230464">
        <ele>246</ele>
        <time>2019-08-19T00:32:53Z</time>
      </trkpt>
      <trkpt lat="42.292131" lon="3.230466">
        <ele>246</ele>
        <time>2019-08-19T00:32:54Z</time>
      </trkpt>
      <trkpt lat="42.292157" lon="3.230468">
        <ele>246</ele>
        <time>2019-08-19T00:32:55Z</time>
      </trkpt>
      <trkpt lat="42.292183" lon="3.230469">
        <ele>246</ele>
        <time>2019-08-19T00:32:56Z</time>
      </trkpt>
      <trkpt lat="42.292208" lon="3.230471">
        <ele>246</ele>
        <time>2019-08-19T00:32:57Z</time>
      </trkpt>
      <trkpt lat="42.292234" lon="3.230472">
        <ele>246</ele>
        <time>2019-08-19T00:32:58Z</time>
      </trkpt>
      <trkpt lat="42.29226" lon="3.230474">
        <ele>247</ele>
        <time>2019-08-19T00:32:59Z</time>
      </trkpt>
      <trkpt lat="42.292305" lon="3.230467">
        <ele>247</ele>
        <time>2019-08-19T00:33:00Z</time>
      </trkpt>
      <trkpt lat="42.292326" lon="3.230461">
        <ele>247</ele>
        <time>2019-08-19T00:33:01Z</time>
      </trkpt>
      <trkpt lat="42.292346" lon="3.230456">
        <ele>247</ele>
        <time>2019-08-19T00:33:02Z</time>
      </trkpt>
      <trkpt lat="42.292366" lon="3.23045">
        <ele>247</ele>
        <time>2019-08-19T00:33:03Z</time>
      </trkpt>
      <trkpt lat="42.292387" lon="3.230444">
        <ele>247</ele>
        <time>2019-08-19T00:33:04Z</time>
      </trkpt>
      <trkpt lat="42.292407" lon="3.230438">
        <ele>247</ele>
        <time>2019-08-19T00:33:05Z</time>
      </trkpt>
      <trkpt lat="42.292427" lon="3.230432">
        <ele>247</ele>
        <time>2019-08-19T00:33:06Z</time>
      </trkpt>
      <trkpt lat="42.292447" lon="3.230427">
        <ele>247</ele>
        <time>2019-08-19T00:33:07Z</time>
      </trkpt>
      <trkpt lat="42.292468" lon="3.230421">
        <ele>247</ele>
        <time>2019-08-19T00:33:08Z</time>
      </trkpt>
      <trkpt lat="42.292488" lon="3.230415">
        <ele>249</ele>
        <time>2019-08-19T00:33:09Z</time>
      </trkpt>
      <trkpt lat="42.292527" lon="3.230386">
        <ele>249</ele>
        <time>2019-08-19T00:33:10Z</time>
      </trkpt>
      <trkpt lat="42.292546" lon="3.230373">
        <ele>249</ele>
        <time>2019-08-19T00:33:11Z</time>
      </trkpt>
      <trkpt lat="42.292564" lon="3.230359">
        <ele>249</ele>
        <time>2019-08-19T00:33:12Z</time>
      </trkpt>
      <trkpt lat="42.292583" lon="3.230346">
        <ele>249</ele>
        <time>2019-08-19T00:33:13Z</time>
      </trkpt>
      <trkpt lat="42.292602" lon="3.230332">
        <ele>249</ele>
        <time>2019-08-19T00:33:14Z</time>
      </trkpt>
      <trkpt lat="42.292621" lon="3.230318">
        <ele>249</ele>
        <time>2019-08-19T00:33:15Z</time>
      </trkpt>
      <trkpt lat="42.29264" lon="3.230305">
        <ele>249</ele>
        <time>2019-08-19T00:33:16Z</time>
      </trkpt>
      <trkpt lat="42.292658" lon="3.230291">
        <ele>249</ele>
        <time>2019-08-19T00:33:17Z</time>
      </trkpt>
      <trkpt lat="42.292677" lon="3.230278">
        <ele>249</ele>
        <time>2019-08-19T00:33:18Z</time>
      </trkpt>
      <trkpt lat="42.292696" lon="3.230264">
        <ele>250</ele>
        <time>2019-08-19T00:33:19Z</time>
      </trkpt>
      <trkpt lat="42.292734" lon="3.230233">
        <ele>250</ele>
        <time>2019-08-19T00:33:20Z</time>
      </trkpt>
      <trkpt lat="42.292751" lon="3.230217">
        <ele>250</ele>
        <time>2019-08-19T00:33:21Z</time>
      </trkpt>
      <trkpt lat="42.292769" lon="3.230202">
        <ele>250</ele>
        <time>2019-08-19T00:33:22Z</time>
      </trkpt>
      <trkpt lat="42.292787" lon="3.230186">
        <ele>250</ele>
        <time>2019-08-19T00:33:23Z</time>
      </trkpt>
      <trkpt lat="42.292805" lon="3.230171">
        <ele>250</ele>
        <time>2019-08-19T00:33:24Z</time>
      </trkpt>
      <trkpt lat="42.292822" lon="3.230155">
        <ele>250</ele>
        <time>2019-08-19T00:33:25Z</time>
      </trkpt>
      <trkpt lat="42.29284" lon="3.23014">
        <ele>250</ele>
        <time>2019-08-19T00:33:26Z</time>
      </trkpt>
      <trkpt lat="42.292858" lon="3.230124">
        <ele>250</ele>
        <time>2019-08-19T00:33:27Z</time>
      </trkpt>
      <trkpt lat="42.292875" lon="3.230109">
        <ele>250</ele>
        <time>2019-08-19T00:33:28Z</time>
      </trkpt>
      <trkpt lat="42.292893" lon="3.230093">
        <ele>252</ele>
        <time>2019-08-19T00:33:29Z</time>
      </trkpt>
      <trkpt lat="42.292928" lon="3.230055">
        <ele>252</ele>
        <time>2019-08-19T00:33:30Z</time>
      </trkpt>
      <trkpt lat="42.292944" lon="3.230037">
        <ele>252</ele>
        <time>2019-08-19T00:33:31Z</time>
      </trkpt>
      <trkpt lat="42.292961" lon="3.230019">
        <ele>252</ele>
        <time>2019-08-19T00:33:32Z</time>
      </trkpt>
      <trkpt lat="42.292978" lon="3.230001">
        <ele>252</ele>
        <time>2019-08-19T00:33:33Z</time>
      </trkpt>
      <trkpt lat="42.292995" lon="3.229983">
        <ele>252</ele>
        <time>2019-08-19T00:33:34Z</time>
      </trkpt>
      <trkpt lat="42.293011" lon="3.229965">
        <ele>252</ele>
        <time>2019-08-19T00:33:35Z</time>
      </trkpt>
      <trkpt lat="42.293028" lon="3.229947">
        <ele>252</ele>
        <time>2019-08-19T00:33:36Z</time>
      </trkpt>
      <trkpt lat="42.293045" lon="3.229929">
        <ele>252</ele>
        <time>2019-08-19T00:33:37Z</time>
      </trkpt>
      <trkpt lat="42.293061" lon="3.229911">
        <ele>252</ele>
        <time>2019-08-19T00:33:38Z</time>
      </trkpt>
      <trkpt lat="42.293078" lon="3.229893">
        <ele>253</ele>
        <time>2019-08-19T00:33:39Z</time>
      </trkpt>
      <trkpt lat="42.293113" lon="3.229853">
        <ele>253</ele>
        <time>2019-08-19T00:33:40Z</time>
      </trkpt>
      <trkpt lat="42.29313" lon="3.229834">
        <ele>253</ele>
        <time>2019-08-19T00:33:41Z</time>
      </trkpt>
      <trkpt lat="42.293147" lon="3.229815">
        <ele>253</ele>
        <time>2019-08-19T00:33:42Z</time>
      </trkpt>
      <trkpt lat="42.293164" lon="3.229796">
        <ele>253</ele>
        <time>2019-08-19T00:33:43Z</time>
      </trkpt>
      <trkpt lat="42.293182" lon="3.229777">
        <ele>253</ele>
        <time>2019-08-19T00:33:44Z</time>
      </trkpt>
      <trkpt lat="42.293199" lon="3.229757">
        <ele>253</ele>
        <time>2019-08-19T00:33:45Z</time>
      </trkpt>
      <trkpt lat="42.293216" lon="3.229738">
        <ele>253</ele>
        <time>2019-08-19T00:33:46Z</time>
      </trkpt>
      <trkpt lat="42.293233" lon="3.229719">
        <ele>253</ele>
        <time>2019-08-19T00:33:47Z</time>
      </trkpt>
      <trkpt lat="42.29325" lon="3.2297">
        <ele>253</ele>
        <time>2019-08-19T00:33:48Z</time>
      </trkpt>
      <trkpt lat="42.293267" lon="3.229681">
        <ele>254</ele>
        <time>2019-08-19T00:33:49Z</time>
      </trkpt>
      <trkpt lat="42.293302" lon="3.229641">
        <ele>254</ele>
        <time>2019-08-19T00:33:50Z</time>
      </trkpt>
      <trkpt lat="42.293318" lon="3.229622">
        <ele>254</ele>
        <time>2019-08-19T00:33:51Z</time>
      </trkpt>
      <trkpt lat="42.293335" lon="3.229604">
        <ele>254</ele>
        <time>2019-08-19T00:33:52Z</time>
      </trkpt>
      <trkpt lat="42.293351" lon="3.229585">
        <ele>254</ele>
        <time>2019-08-19T00:33:53Z</time>
      </trkpt>
      <trkpt lat="42.293368" lon="3.229567">
        <ele>254</ele>
        <time>2019-08-19T00:33:54Z</time>
      </trkpt>
      <trkpt lat="42.293385" lon="3.229548">
        <ele>254</ele>
        <time>2019-08-19T00:33:55Z</time>
      </trkpt>
      <trkpt lat="42.293401" lon="3.22953">
        <ele>254</ele>
        <time>2019-08-19T00:33:56Z</time>
      </trkpt>
      <trkpt lat="42.293418" lon="3.229511">
        <ele>254</ele>
        <time>2019-08-19T00:33:57Z</time>
      </trkpt>
      <trkpt lat="42.293434" lon="3.229493">
        <ele>254</ele>
        <time>2019-08-19T00:33:58Z</time>
      </trkpt>
      <trkpt lat="42.293451" lon="3.229474">
        <ele>256</ele>
        <time>2019-08-19T00:33:59Z</time>
      </trkpt>
      <trkpt lat="42.293485" lon="3.229435">
        <ele>256</ele>
        <time>2019-08-19T00:34:00Z</time>
      </trkpt>
      <trkpt lat="42.293502" lon="3.229416">
        <ele>256</ele>
        <time>2019-08-19T00:34:01Z</time>
      </trkpt>
      <trkpt lat="42.293518" lon="3.229397">
        <ele>256</ele>
        <time>2019-08-19T00:34:02Z</time>
      </trkpt>
      <trkpt lat="42.293535" lon="3.229378">
        <ele>256</ele>
        <time>2019-08-19T00:34:03Z</time>
      </trkpt>
      <trkpt lat="42.293551" lon="3.229359">
        <ele>256</ele>
        <time>2019-08-19T00:34:04Z</time>
      </trkpt>
      <trkpt lat="42.293567" lon="3.22934">
        <ele>256</ele>
        <time>2019-08-19T00:34:05Z</time>
      </trkpt>
      <trkpt lat="42.293584" lon="3.229321">
        <ele>256</ele>
        <time>2019-08-19T00:34:06Z</time>
      </trkpt>
      <trkpt lat="42.2936" lon="3.229302">
        <ele>256</ele>
        <time>2019-08-19T00:34:07Z</time>
      </trkpt>
      <trkpt lat="42.293617" lon="3.229283">
        <ele>256</ele>
        <time>2019-08-19T00:34:08Z</time>
      </trkpt>
      <trkpt lat="42.293633" lon="3.229264">
        <ele>257</ele>
        <time>2019-08-19T00:34:09Z</time>
      </trkpt>
      <trkpt lat="42.293664" lon="3.229221">
        <ele>257</ele>
        <time>2019-08-19T00:34:10Z</time>
      </trkpt>
      <trkpt lat="42.293677" lon="3.229198">
        <ele>257</ele>
        <time>2019-08-19T00:34:11Z</time>
      </trkpt>
      <trkpt lat="42.293691" lon="3.229176">
        <ele>257</ele>
        <time>2019-08-19T00:34:12Z</time>
      </trkpt>
      <trkpt lat="42.293704" lon="3.229153">
        <ele>257</ele>
        <time>2019-08-19T00:34:13Z</time>
      </trkpt>
      <trkpt lat="42.293717" lon="3.229131">
        <ele>257</ele>
        <time>2019-08-19T00:34:14Z</time>
      </trkpt>
      <trkpt lat="42.29373" lon="3.229109">
        <ele>257</ele>
        <time>2019-08-19T00:34:15Z</time>
      </trkpt>
      <trkpt lat="42.293743" lon="3.229086">
        <ele>257</ele>
        <time>2019-08-19T00:34:16Z</time>
      </trkpt>
      <trkpt lat="42.293757" lon="3.229064">
        <ele>257</ele>
        <time>2019-08-19T00:34:17Z</time>
      </trkpt>
      <trkpt lat="42.29377" lon="3.229041">
        <ele>257</ele>
        <time>2019-08-19T00:34:18Z</time>
      </trkpt>
      <trkpt lat="42.293783" lon="3.229019">
        <ele>259</ele>
        <time>2019-08-19T00:34:19Z</time>
      </trkpt>
      <trkpt lat="42.293798" lon="3.228957">
        <ele>259</ele>
        <time>2019-08-19T00:34:20Z</time>
      </trkpt>
      <trkpt lat="42.293803" lon="3.228926">
        <ele>259</ele>
        <time>2019-08-19T00:34:21Z</time>
      </trkpt>
      <trkpt lat="42.293808" lon="3.228894">
        <ele>259</ele>
        <time>2019-08-19T00:34:22Z</time>
      </trkpt>
      <trkpt lat="42.293813" lon="3.228863">
        <ele>259</ele>
        <time>2019-08-19T00:34:23Z</time>
      </trkpt>
      <trkpt lat="42.293819" lon="3.228831">
        <ele>259</ele>
        <time>2019-08-19T00:34:24Z</time>
      </trkpt>
      <trkpt lat="42.293824" lon="3.228799">
        <ele>259</ele>
        <time>2019-08-19T00:34:25Z</time>
      </trkpt>
      <trkpt lat="42.293829" lon="3.228768">
        <ele>259</ele>
        <time>2019-08-19T00:34:26Z</time>
      </trkpt>
      <trkpt lat="42.293834" lon="3.228736">
        <ele>259</ele>
        <time>2019-08-19T00:34:27Z</time>
      </trkpt>
      <trkpt lat="42.293839" lon="3.228705">
        <ele>259</ele>
        <time>2019-08-19T00:34:28Z</time>
      </trkpt>
      <trkpt lat="42.293844" lon="3.228673">
        <ele>261</ele>
        <time>2019-08-19T00:34:29Z</time>
      </trkpt>
      <trkpt lat="42.293851" lon="3.228592">
        <ele>261</ele>
        <time>2019-08-19T00:34:30Z</time>
      </trkpt>
      <trkpt lat="42.293855" lon="3.228553">
        <ele>261</ele>
        <time>2019-08-19T00:34:31Z</time>
      </trkpt>
      <trkpt lat="42.293858" lon="3.228514">
        <ele>261</ele>
        <time>2019-08-19T00:34:32Z</time>
      </trkpt>
      <trkpt lat="42.293862" lon="3.228475">
        <ele>261</ele>
        <time>2019-08-19T00:34:33Z</time>
      </trkpt>
      <trkpt lat="42.293865" lon="3.228436">
        <ele>261</ele>
        <time>2019-08-19T00:34:34Z</time>
      </trkpt>
      <trkpt lat="42.293868" lon="3.228397">
        <ele>261</ele>
        <time>2019-08-19T00:34:35Z</time>
      </trkpt>
      <trkpt lat="42.293872" lon="3.228358">
        <ele>261</ele>
        <time>2019-08-19T00:34:36Z</time>
      </trkpt>
      <trkpt lat="42.293875" lon="3.228319">
        <ele>261</ele>
        <time>2019-08-19T00:34:37Z</time>
      </trkpt>
      <trkpt lat="42.293879" lon="3.22828">
        <ele>261</ele>
        <time>2019-08-19T00:34:38Z</time>
      </trkpt>
      <trkpt lat="42.293882" lon="3.228241">
        <ele>261</ele>
        <time>2019-08-19T00:34:39Z</time>
      </trkpt>
      <trkpt lat="42.293888" lon="3.228151">
        <ele>261</ele>
        <time>2019-08-19T00:34:40Z</time>
      </trkpt>
      <trkpt lat="42.293892" lon="3.228108">
        <ele>261</ele>
        <time>2019-08-19T00:34:41Z</time>
      </trkpt>
      <trkpt lat="42.293895" lon="3.228064">
        <ele>261</ele>
        <time>2019-08-19T00:34:42Z</time>
      </trkpt>
      <trkpt lat="42.293898" lon="3.228021">
        <ele>261</ele>
        <time>2019-08-19T00:34:43Z</time>
      </trkpt>
      <trkpt lat="42.293902" lon="3.227977">
        <ele>261</ele>
        <time>2019-08-19T00:34:44Z</time>
      </trkpt>
      <trkpt lat="42.293905" lon="3.227933">
        <ele>261</ele>
        <time>2019-08-19T00:34:45Z</time>
      </trkpt>
      <trkpt lat="42.293908" lon="3.22789">
        <ele>261</ele>
        <time>2019-08-19T00:34:46Z</time>
      </trkpt>
      <trkpt lat="42.293911" lon="3.227846">
        <ele>261</ele>
        <time>2019-08-19T00:34:47Z</time>
      </trkpt>
      <trkpt lat="42.293915" lon="3.227803">
        <ele>261</ele>
        <time>2019-08-19T00:34:48Z</time>
      </trkpt>
      <trkpt lat="42.293918" lon="3.227759">
        <ele>261</ele>
        <time>2019-08-19T00:34:49Z</time>
      </trkpt>
      <trkpt lat="42.293923" lon="3.227666">
        <ele>261</ele>
        <time>2019-08-19T00:34:50Z</time>
      </trkpt>
      <trkpt lat="42.293927" lon="3.227622">
        <ele>261</ele>
        <time>2019-08-19T00:34:51Z</time>
      </trkpt>
      <trkpt lat="42.29393" lon="3.227579">
        <ele>261</ele>
        <time>2019-08-19T00:34:52Z</time>
      </trkpt>
      <trkpt lat="42.293933" lon="3.227535">
        <ele>261</ele>
        <time>2019-08-19T00:34:53Z</time>
      </trkpt>
      <trkpt lat="42.293937" lon="3.227491">
        <ele>261</ele>
        <time>2019-08-19T00:34:54Z</time>
      </trkpt>
      <trkpt lat="42.29394" lon="3.227447">
        <ele>261</ele>
        <time>2019-08-19T00:34:55Z</time>
      </trkpt>
      <trkpt lat="42.293943" lon="3.227403">
        <ele>261</ele>
        <time>2019-08-19T00:34:56Z</time>
      </trkpt>
      <trkpt lat="42.293946" lon="3.22736">
        <ele>261</ele>
        <time>2019-08-19T00:34:57Z</time>
      </trkpt>
      <trkpt lat="42.29395" lon="3.227316">
        <ele>261</ele>
        <time>2019-08-19T00:34:58Z</time>
      </trkpt>
      <trkpt lat="42.293953" lon="3.227272">
        <ele>261</ele>
        <time>2019-08-19T00:34:59Z</time>
      </trkpt>
      <trkpt lat="42.29396" lon="3.227177">
        <ele>261</ele>
        <time>2019-08-19T00:35:00Z</time>
      </trkpt>
      <trkpt lat="42.293963" lon="3.227132">
        <ele>261</ele>
        <time>2019-08-19T00:35:01Z</time>
      </trkpt>
      <trkpt lat="42.293965" lon="3.227088">
        <ele>261</ele>
        <time>2019-08-19T00:35:02Z</time>
      </trkpt>
      <trkpt lat="42.293968" lon="3.227043">
        <ele>261</ele>
        <time>2019-08-19T00:35:03Z</time>
      </trkpt>
      <trkpt lat="42.29397" lon="3.226998">
        <ele>261</ele>
        <time>2019-08-19T00:35:04Z</time>
      </trkpt>
      <trkpt lat="42.293972" lon="3.226953">
        <ele>261</ele>
        <time>2019-08-19T00:35:05Z</time>
      </trkpt>
      <trkpt lat="42.293975" lon="3.226908">
        <ele>261</ele>
        <time>2019-08-19T00:35:06Z</time>
      </trkpt>
      <trkpt lat="42.293977" lon="3.226864">
        <ele>261</ele>
        <time>2019-08-19T00:35:07Z</time>
      </trkpt>
      <trkpt lat="42.29398" lon="3.226819">
        <ele>261</ele>
        <time>2019-08-19T00:35:08Z</time>
      </trkpt>
      <trkpt lat="42.293982" lon="3.226774">
        <ele>261</ele>
        <time>2019-08-19T00:35:09Z</time>
      </trkpt>
      <trkpt lat="42.293968" lon="3.226681">
        <ele>261</ele>
        <time>2019-08-19T00:35:10Z</time>
      </trkpt>
      <trkpt lat="42.293958" lon="3.226637">
        <ele>261</ele>
        <time>2019-08-19T00:35:11Z</time>
      </trkpt>
      <trkpt lat="42.293949" lon="3.226592">
        <ele>261</ele>
        <time>2019-08-19T00:35:12Z</time>
      </trkpt>
      <trkpt lat="42.293939" lon="3.226548">
        <ele>261</ele>
        <time>2019-08-19T00:35:13Z</time>
      </trkpt>
      <trkpt lat="42.293929" lon="3.226504">
        <ele>261</ele>
        <time>2019-08-19T00:35:14Z</time>
      </trkpt>
      <trkpt lat="42.293919" lon="3.22646">
        <ele>261</ele>
        <time>2019-08-19T00:35:15Z</time>
      </trkpt>
      <trkpt lat="42.293909" lon="3.226416">
        <ele>261</ele>
        <time>2019-08-19T00:35:16Z</time>
      </trkpt>
      <trkpt lat="42.2939" lon="3.226371">
        <ele>261</ele>
        <time>2019-08-19T00:35:17Z</time>
      </trkpt>
      <trkpt lat="42.29389" lon="3.226327">
        <ele>261</ele>
        <time>2019-08-19T00:35:18Z</time>
      </trkpt>
      <trkpt lat="42.29388" lon="3.226283">
        <ele>262</ele>
        <time>2019-08-19T00:35:19Z</time>
      </trkpt>
      <trkpt lat="42.293857" lon="3.22619">
        <ele>262</ele>
        <time>2019-08-19T00:35:20Z</time>
      </trkpt>
      <trkpt lat="42.293846" lon="3.226146">
        <ele>262</ele>
        <time>2019-08-19T00:35:21Z</time>
      </trkpt>
      <trkpt lat="42.293834" lon="3.226103">
        <ele>262</ele>
        <time>2019-08-19T00:35:22Z</time>
      </trkpt>
      <trkpt lat="42.293822" lon="3.226059">
        <ele>262</ele>
        <time>2019-08-19T00:35:23Z</time>
      </trkpt>
      <trkpt lat="42.293811" lon="3.226016">
        <ele>262</ele>
        <time>2019-08-19T00:35:24Z</time>
      </trkpt>
      <trkpt lat="42.293799" lon="3.225973">
        <ele>262</ele>
        <time>2019-08-19T00:35:25Z</time>
      </trkpt>
      <trkpt lat="42.293787" lon="3.225929">
        <ele>262</ele>
        <time>2019-08-19T00:35:26Z</time>
      </trkpt>
      <trkpt lat="42.293775" lon="3.225886">
        <ele>262</ele>
        <time>2019-08-19T00:35:27Z</time>
      </trkpt>
      <trkpt lat="42.293764" lon="3.225842">
        <ele>262</ele>
        <time>2019-08-19T00:35:28Z</time>
      </trkpt>
      <trkpt lat="42.293752" lon="3.225799">
        <ele>263</ele>
        <time>2019-08-19T00:35:29Z</time>
      </trkpt>
      <trkpt lat="42.293718" lon="3.225716">
        <ele>263</ele>
        <time>2019-08-19T00:35:30Z</time>
      </trkpt>
      <trkpt lat="42.293699" lon="3.225679">
        <ele>263</ele>
        <time>2019-08-19T00:35:31Z</time>
      </trkpt>
      <trkpt lat="42.29368" lon="3.225641">
        <ele>263</ele>
        <time>2019-08-19T00:35:32Z</time>
      </trkpt>
      <trkpt lat="42.293661" lon="3.225604">
        <ele>263</ele>
        <time>2019-08-19T00:35:33Z</time>
      </trkpt>
      <trkpt lat="42.293643" lon="3.225566">
        <ele>263</ele>
        <time>2019-08-19T00:35:34Z</time>
      </trkpt>
      <trkpt lat="42.293624" lon="3.225528">
        <ele>263</ele>
        <time>2019-08-19T00:35:35Z</time>
      </trkpt>
      <trkpt lat="42.293605" lon="3.225491">
        <ele>263</ele>
        <time>2019-08-19T00:35:36Z</time>
      </trkpt>
      <trkpt lat="42.293586" lon="3.225453">
        <ele>263</ele>
        <time>2019-08-19T00:35:37Z</time>
      </trkpt>
      <trkpt lat="42.293567" lon="3.225416">
        <ele>263</ele>
        <time>2019-08-19T00:35:38Z</time>
      </trkpt>
      <trkpt lat="42.293548" lon="3.225378">
        <ele>263</ele>
        <time>2019-08-19T00:35:39Z</time>
      </trkpt>
      <trkpt lat="42.293491" lon="3.225329">
        <ele>263</ele>
        <time>2019-08-19T00:35:40Z</time>
      </trkpt>
      <trkpt lat="42.293459" lon="3.225318">
        <ele>263</ele>
        <time>2019-08-19T00:35:41Z</time>
      </trkpt>
      <trkpt lat="42.293428" lon="3.225306">
        <ele>263</ele>
        <time>2019-08-19T00:35:42Z</time>
      </trkpt>
      <trkpt lat="42.293396" lon="3.225295">
        <ele>263</ele>
        <time>2019-08-19T00:35:43Z</time>
      </trkpt>
      <trkpt lat="42.293365" lon="3.225283">
        <ele>263</ele>
        <time>2019-08-19T00:35:44Z</time>
      </trkpt>
      <trkpt lat="42.293334" lon="3.225272">
        <ele>263</ele>
        <time>2019-08-19T00:35:45Z</time>
      </trkpt>
      <trkpt lat="42.293302" lon="3.22526">
        <ele>263</ele>
        <time>2019-08-19T00:35:46Z</time>
      </trkpt>
      <trkpt lat="42.293271" lon="3.225249">
        <ele>263</ele>
        <time>2019-08-19T00:35:47Z</time>
      </trkpt>
      <trkpt lat="42.293239" lon="3.225237">
        <ele>263</ele>
        <time>2019-08-19T00:35:48Z</time>
      </trkpt>
      <trkpt lat="42.293208" lon="3.225226">
        <ele>264</ele>
        <time>2019-08-19T00:35:49Z</time>
      </trkpt>
      <trkpt lat="42.293131" lon="3.225237">
        <ele>264</ele>
        <time>2019-08-19T00:35:50Z</time>
      </trkpt>
      <trkpt lat="42.293092" lon="3.225243">
        <ele>264</ele>
        <time>2019-08-19T00:35:51Z</time>
      </trkpt>
      <trkpt lat="42.293054" lon="3.22525">
        <ele>264</ele>
        <time>2019-08-19T00:35:52Z</time>
      </trkpt>
      <trkpt lat="42.293016" lon="3.225256">
        <ele>264</ele>
        <time>2019-08-19T00:35:53Z</time>
      </trkpt>
      <trkpt lat="42.292977" lon="3.225262">
        <ele>264</ele>
        <time>2019-08-19T00:35:54Z</time>
      </trkpt>
      <trkpt lat="42.292939" lon="3.225268">
        <ele>264</ele>
        <time>2019-08-19T00:35:55Z</time>
      </trkpt>
      <trkpt lat="42.292901" lon="3.225275">
        <ele>264</ele>
        <time>2019-08-19T00:35:56Z</time>
      </trkpt>
      <trkpt lat="42.292862" lon="3.225281">
        <ele>264</ele>
        <time>2019-08-19T00:35:58Z</time>
      </trkpt>
      <trkpt lat="42.292824" lon="3.225287">
        <ele>264</ele>
        <time>2019-08-19T00:35:59Z</time>
      </trkpt>
      <trkpt lat="42.292756" lon="3.225277">
        <ele>264</ele>
        <time>2019-08-19T00:36:00Z</time>
      </trkpt>
      <trkpt lat="42.292727" lon="3.225262">
        <ele>264</ele>
        <time>2019-08-19T00:36:01Z</time>
      </trkpt>
      <trkpt lat="42.292698" lon="3.225246">
        <ele>264</ele>
        <time>2019-08-19T00:36:02Z</time>
      </trkpt>
      <trkpt lat="42.292669" lon="3.22523">
        <ele>264</ele>
        <time>2019-08-19T00:36:03Z</time>
      </trkpt>
      <trkpt lat="42.29264" lon="3.225214">
        <ele>264</ele>
        <time>2019-08-19T00:36:04Z</time>
      </trkpt>
      <trkpt lat="42.29261" lon="3.225199">
        <ele>264</ele>
        <time>2019-08-19T00:36:05Z</time>
      </trkpt>
      <trkpt lat="42.292581" lon="3.225183">
        <ele>264</ele>
        <time>2019-08-19T00:36:06Z</time>
      </trkpt>
      <trkpt lat="42.292552" lon="3.225167">
        <ele>264</ele>
        <time>2019-08-19T00:36:07Z</time>
      </trkpt>
      <trkpt lat="42.292523" lon="3.225152">
        <ele>264</ele>
        <time>2019-08-19T00:36:08Z</time>
      </trkpt>
      <trkpt lat="42.292494" lon="3.225136">
        <ele>265</ele>
        <time>2019-08-19T00:36:09Z</time>
      </trkpt>
      <trkpt lat="42.292473" lon="3.225046">
        <ele>265</ele>
        <time>2019-08-19T00:36:10Z</time>
      </trkpt>
      <trkpt lat="42.292466" lon="3.225001">
        <ele>265</ele>
        <time>2019-08-19T00:36:11Z</time>
      </trkpt>
      <trkpt lat="42.29246" lon="3.224955">
        <ele>265</ele>
        <time>2019-08-19T00:36:12Z</time>
      </trkpt>
      <trkpt lat="42.292453" lon="3.22491">
        <ele>265</ele>
        <time>2019-08-19T00:36:13Z</time>
      </trkpt>
      <trkpt lat="42.292447" lon="3.224865">
        <ele>265</ele>
        <time>2019-08-19T00:36:14Z</time>
      </trkpt>
      <trkpt lat="42.292441" lon="3.22482">
        <ele>265</ele>
        <time>2019-08-19T00:36:15Z</time>
      </trkpt>
      <trkpt lat="42.292434" lon="3.224775">
        <ele>265</ele>
        <time>2019-08-19T00:36:16Z</time>
      </trkpt>
      <trkpt lat="42.292428" lon="3.224729">
        <ele>265</ele>
        <time>2019-08-19T00:36:17Z</time>
      </trkpt>
      <trkpt lat="42.292421" lon="3.224684">
        <ele>265</ele>
        <time>2019-08-19T00:36:18Z</time>
      </trkpt>
      <trkpt lat="42.292415" lon="3.224639">
        <ele>266</ele>
        <time>2019-08-19T00:36:19Z</time>
      </trkpt>
      <trkpt lat="42.29239" lon="3.224546">
        <ele>266</ele>
        <time>2019-08-19T00:36:20Z</time>
      </trkpt>
      <trkpt lat="42.292372" lon="3.224505">
        <ele>266</ele>
        <time>2019-08-19T00:36:21Z</time>
      </trkpt>
      <trkpt lat="42.292355" lon="3.224463">
        <ele>266</ele>
        <time>2019-08-19T00:36:22Z</time>
      </trkpt>
      <trkpt lat="42.292337" lon="3.224421">
        <ele>266</ele>
        <time>2019-08-19T00:36:23Z</time>
      </trkpt>
      <trkpt lat="42.29232" lon="3.224379">
        <ele>266</ele>
        <time>2019-08-19T00:36:24Z</time>
      </trkpt>
      <trkpt lat="42.292303" lon="3.224338">
        <ele>266</ele>
        <time>2019-08-19T00:36:25Z</time>
      </trkpt>
      <trkpt lat="42.292285" lon="3.224296">
        <ele>266</ele>
        <time>2019-08-19T00:36:26Z</time>
      </trkpt>
      <trkpt lat="42.292268" lon="3.224254">
        <ele>266</ele>
        <time>2019-08-19T00:36:27Z</time>
      </trkpt>
      <trkpt lat="42.29225" lon="3.224213">
        <ele>266</ele>
        <time>2019-08-19T00:36:28Z</time>
      </trkpt>
      <trkpt lat="42.292233" lon="3.224171">
        <ele>266</ele>
        <time>2019-08-19T00:36:29Z</time>
      </trkpt>
      <trkpt lat="42.292173" lon="3.2241">
        <ele>266</ele>
        <time>2019-08-19T00:36:30Z</time>
      </trkpt>
      <trkpt lat="42.292144" lon="3.224068">
        <ele>266</ele>
        <time>2019-08-19T00:36:31Z</time>
      </trkpt>
      <trkpt lat="42.292114" lon="3.224037">
        <ele>266</ele>
        <time>2019-08-19T00:36:32Z</time>
      </trkpt>
      <trkpt lat="42.292085" lon="3.224005">
        <ele>266</ele>
        <time>2019-08-19T00:36:33Z</time>
      </trkpt>
      <trkpt lat="42.292055" lon="3.223974">
        <ele>266</ele>
        <time>2019-08-19T00:36:34Z</time>
      </trkpt>
      <trkpt lat="42.292025" lon="3.223943">
        <ele>266</ele>
        <time>2019-08-19T00:36:35Z</time>
      </trkpt>
      <trkpt lat="42.291996" lon="3.223911">
        <ele>266</ele>
        <time>2019-08-19T00:36:36Z</time>
      </trkpt>
      <trkpt lat="42.291966" lon="3.22388">
        <ele>266</ele>
        <time>2019-08-19T00:36:37Z</time>
      </trkpt>
      <trkpt lat="42.291937" lon="3.223848">
        <ele>266</ele>
        <time>2019-08-19T00:36:38Z</time>
      </trkpt>
      <trkpt lat="42.291907" lon="3.223817">
        <ele>266</ele>
        <time>2019-08-19T00:36:39Z</time>
      </trkpt>
      <trkpt lat="42.291837" lon="3.223767">
        <ele>266</ele>
        <time>2019-08-19T00:36:40Z</time>
      </trkpt>
      <trkpt lat="42.291802" lon="3.223746">
        <ele>266</ele>
        <time>2019-08-19T00:36:41Z</time>
      </trkpt>
      <trkpt lat="42.291768" lon="3.223726">
        <ele>266</ele>
        <time>2019-08-19T00:36:42Z</time>
      </trkpt>
      <trkpt lat="42.291733" lon="3.223706">
        <ele>266</ele>
        <time>2019-08-19T00:36:43Z</time>
      </trkpt>
      <trkpt lat="42.291698" lon="3.223685">
        <ele>266</ele>
        <time>2019-08-19T00:36:44Z</time>
      </trkpt>
      <trkpt lat="42.291663" lon="3.223665">
        <ele>266</ele>
        <time>2019-08-19T00:36:45Z</time>
      </trkpt>
      <trkpt lat="42.291628" lon="3.223645">
        <ele>266</ele>
        <time>2019-08-19T00:36:46Z</time>
      </trkpt>
      <trkpt lat="42.291594" lon="3.223625">
        <ele>266</ele>
        <time>2019-08-19T00:36:47Z</time>
      </trkpt>
      <trkpt lat="42.291559" lon="3.223604">
        <ele>266</ele>
        <time>2019-08-19T00:36:48Z</time>
      </trkpt>
      <trkpt lat="42.291524" lon="3.223584">
        <ele>267</ele>
        <time>2019-08-19T00:36:49Z</time>
      </trkpt>
      <trkpt lat="42.291445" lon="3.223547">
        <ele>267</ele>
        <time>2019-08-19T00:36:50Z</time>
      </trkpt>
      <trkpt lat="42.291407" lon="3.223529">
        <ele>267</ele>
        <time>2019-08-19T00:36:51Z</time>
      </trkpt>
      <trkpt lat="42.29137" lon="3.22351">
        <ele>267</ele>
        <time>2019-08-19T00:36:52Z</time>
      </trkpt>
      <trkpt lat="42.291332" lon="3.223492">
        <ele>267</ele>
        <time>2019-08-19T00:36:53Z</time>
      </trkpt>
      <trkpt lat="42.291294" lon="3.223474">
        <ele>267</ele>
        <time>2019-08-19T00:36:54Z</time>
      </trkpt>
      <trkpt lat="42.291256" lon="3.223456">
        <ele>267</ele>
        <time>2019-08-19T00:36:55Z</time>
      </trkpt>
      <trkpt lat="42.291218" lon="3.223438">
        <ele>267</ele>
        <time>2019-08-19T00:36:56Z</time>
      </trkpt>
      <trkpt lat="42.291181" lon="3.223419">
        <ele>267</ele>
        <time>2019-08-19T00:36:57Z</time>
      </trkpt>
      <trkpt lat="42.291143" lon="3.223401">
        <ele>267</ele>
        <time>2019-08-19T00:36:58Z</time>
      </trkpt>
      <trkpt lat="42.291105" lon="3.223383">
        <ele>267</ele>
        <time>2019-08-19T00:36:59Z</time>
      </trkpt>
      <trkpt lat="42.291023" lon="3.223345">
        <ele>267</ele>
        <time>2019-08-19T00:37:00Z</time>
      </trkpt>
      <trkpt lat="42.290985" lon="3.223326">
        <ele>267</ele>
        <time>2019-08-19T00:37:01Z</time>
      </trkpt>
      <trkpt lat="42.290947" lon="3.223308">
        <ele>267</ele>
        <time>2019-08-19T00:37:02Z</time>
      </trkpt>
      <trkpt lat="42.290909" lon="3.223289">
        <ele>267</ele>
        <time>2019-08-19T00:37:03Z</time>
      </trkpt>
      <trkpt lat="42.290872" lon="3.22327">
        <ele>267</ele>
        <time>2019-08-19T00:37:04Z</time>
      </trkpt>
      <trkpt lat="42.290834" lon="3.223251">
        <ele>267</ele>
        <time>2019-08-19T00:37:05Z</time>
      </trkpt>
      <trkpt lat="42.290796" lon="3.223232">
        <ele>267</ele>
        <time>2019-08-19T00:37:06Z</time>
      </trkpt>
      <trkpt lat="42.290758" lon="3.223214">
        <ele>267</ele>
        <time>2019-08-19T00:37:07Z</time>
      </trkpt>
      <trkpt lat="42.29072" lon="3.223195">
        <ele>267</ele>
        <time>2019-08-19T00:37:08Z</time>
      </trkpt>
      <trkpt lat="42.290682" lon="3.223176">
        <ele>267</ele>
        <time>2019-08-19T00:37:09Z</time>
      </trkpt>
      <trkpt lat="42.290603" lon="3.223139">
        <ele>267</ele>
        <time>2019-08-19T00:37:10Z</time>
      </trkpt>
      <trkpt lat="42.290566" lon="3.223123">
        <ele>267</ele>
        <time>2019-08-19T00:37:11Z</time>
      </trkpt>
      <trkpt lat="42.290529" lon="3.223107">
        <ele>267</ele>
        <time>2019-08-19T00:37:12Z</time>
      </trkpt>
      <trkpt lat="42.290492" lon="3.223091">
        <ele>267</ele>
        <time>2019-08-19T00:37:13Z</time>
      </trkpt>
      <trkpt lat="42.290456" lon="3.223075">
        <ele>267</ele>
        <time>2019-08-19T00:37:14Z</time>
      </trkpt>
      <trkpt lat="42.290419" lon="3.22306">
        <ele>267</ele>
        <time>2019-08-19T00:37:15Z</time>
      </trkpt>
      <trkpt lat="42.290382" lon="3.223044">
        <ele>267</ele>
        <time>2019-08-19T00:37:16Z</time>
      </trkpt>
      <trkpt lat="42.290345" lon="3.223028">
        <ele>267</ele>
        <time>2019-08-19T00:37:17Z</time>
      </trkpt>
      <trkpt lat="42.290308" lon="3.223012">
        <ele>267</ele>
        <time>2019-08-19T00:37:18Z</time>
      </trkpt>
      <trkpt lat="42.290271" lon="3.222996">
        <ele>268</ele>
        <time>2019-08-19T00:37:19Z</time>
      </trkpt>
      <trkpt lat="42.290193" lon="3.222976">
        <ele>268</ele>
        <time>2019-08-19T00:37:20Z</time>
      </trkpt>
      <trkpt lat="42.290155" lon="3.222969">
        <ele>268</ele>
        <time>2019-08-19T00:37:21Z</time>
      </trkpt>
      <trkpt lat="42.290118" lon="3.222963">
        <ele>268</ele>
        <time>2019-08-19T00:37:22Z</time>
      </trkpt>
      <trkpt lat="42.29008" lon="3.222956">
        <ele>268</ele>
        <time>2019-08-19T00:37:23Z</time>
      </trkpt>
      <trkpt lat="42.290043" lon="3.222949">
        <ele>268</ele>
        <time>2019-08-19T00:37:24Z</time>
      </trkpt>
      <trkpt lat="42.290006" lon="3.222942">
        <ele>268</ele>
        <time>2019-08-19T00:37:25Z</time>
      </trkpt>
      <trkpt lat="42.289968" lon="3.222935">
        <ele>268</ele>
        <time>2019-08-19T00:37:26Z</time>
      </trkpt>
      <trkpt lat="42.289931" lon="3.222929">
        <ele>268</ele>
        <time>2019-08-19T00:37:27Z</time>
      </trkpt>
      <trkpt lat="42.289893" lon="3.222922">
        <ele>268</ele>
        <time>2019-08-19T00:37:28Z</time>
      </trkpt>
      <trkpt lat="42.289856" lon="3.222915">
        <ele>269</ele>
        <time>2019-08-19T00:37:29Z</time>
      </trkpt>
      <trkpt lat="42.289777" lon="3.222899">
        <ele>269</ele>
        <time>2019-08-19T00:37:30Z</time>
      </trkpt>
      <trkpt lat="42.28974" lon="3.222892">
        <ele>269</ele>
        <time>2019-08-19T00:37:31Z</time>
      </trkpt>
      <trkpt lat="42.289702" lon="3.222884">
        <ele>269</ele>
        <time>2019-08-19T00:37:32Z</time>
      </trkpt>
      <trkpt lat="42.289665" lon="3.222876">
        <ele>269</ele>
        <time>2019-08-19T00:37:33Z</time>
      </trkpt>
      <trkpt lat="42.289628" lon="3.222868">
        <ele>269</ele>
        <time>2019-08-19T00:37:34Z</time>
      </trkpt>
      <trkpt lat="42.289591" lon="3.222861">
        <ele>269</ele>
        <time>2019-08-19T00:37:35Z</time>
      </trkpt>
      <trkpt lat="42.289554" lon="3.222853">
        <ele>269</ele>
        <time>2019-08-19T00:37:36Z</time>
      </trkpt>
      <trkpt lat="42.289516" lon="3.222845">
        <ele>269</ele>
        <time>2019-08-19T00:37:37Z</time>
      </trkpt>
      <trkpt lat="42.289479" lon="3.222838">
        <ele>269</ele>
        <time>2019-08-19T00:37:38Z</time>
      </trkpt>
      <trkpt lat="42.289442" lon="3.22283">
        <ele>269</ele>
        <time>2019-08-19T00:37:39Z</time>
      </trkpt>
      <trkpt lat="42.289367" lon="3.222803">
        <ele>269</ele>
        <time>2019-08-19T00:37:40Z</time>
      </trkpt>
      <trkpt lat="42.289332" lon="3.222786">
        <ele>269</ele>
        <time>2019-08-19T00:37:41Z</time>
      </trkpt>
      <trkpt lat="42.289298" lon="3.222768">
        <ele>269</ele>
        <time>2019-08-19T00:37:42Z</time>
      </trkpt>
      <trkpt lat="42.289263" lon="3.222751">
        <ele>269</ele>
        <time>2019-08-19T00:37:43Z</time>
      </trkpt>
      <trkpt lat="42.289229" lon="3.222734">
        <ele>269</ele>
        <time>2019-08-19T00:37:44Z</time>
      </trkpt>
      <trkpt lat="42.289194" lon="3.222717">
        <ele>269</ele>
        <time>2019-08-19T00:37:45Z</time>
      </trkpt>
      <trkpt lat="42.28916" lon="3.2227">
        <ele>269</ele>
        <time>2019-08-19T00:37:46Z</time>
      </trkpt>
      <trkpt lat="42.289125" lon="3.222682">
        <ele>269</ele>
        <time>2019-08-19T00:37:47Z</time>
      </trkpt>
      <trkpt lat="42.289091" lon="3.222665">
        <ele>269</ele>
        <time>2019-08-19T00:37:48Z</time>
      </trkpt>
      <trkpt lat="42.289056" lon="3.222648">
        <ele>269</ele>
        <time>2019-08-19T00:37:49Z</time>
      </trkpt>
      <trkpt lat="42.288985" lon="3.222609">
        <ele>269</ele>
        <time>2019-08-19T00:37:50Z</time>
      </trkpt>
      <trkpt lat="42.288952" lon="3.222593">
        <ele>269</ele>
        <time>2019-08-19T00:37:51Z</time>
      </trkpt>
      <trkpt lat="42.288918" lon="3.222577">
        <ele>269</ele>
        <time>2019-08-19T00:37:52Z</time>
      </trkpt>
      <trkpt lat="42.288885" lon="3.222561">
        <ele>269</ele>
        <time>2019-08-19T00:37:53Z</time>
      </trkpt>
      <trkpt lat="42.288851" lon="3.222545">
        <ele>269</ele>
        <time>2019-08-19T00:37:54Z</time>
      </trkpt>
      <trkpt lat="42.288817" lon="3.222529">
        <ele>269</ele>
        <time>2019-08-19T00:37:55Z</time>
      </trkpt>
      <trkpt lat="42.288784" lon="3.222513">
        <ele>269</ele>
        <time>2019-08-19T00:37:56Z</time>
      </trkpt>
      <trkpt lat="42.28875" lon="3.222497">
        <ele>269</ele>
        <time>2019-08-19T00:37:57Z</time>
      </trkpt>
      <trkpt lat="42.288717" lon="3.222481">
        <ele>269</ele>
        <time>2019-08-19T00:37:58Z</time>
      </trkpt>
      <trkpt lat="42.288683" lon="3.222465">
        <ele>271</ele>
        <time>2019-08-19T00:37:59Z</time>
      </trkpt>
      <trkpt lat="42.288609" lon="3.222451">
        <ele>271</ele>
        <time>2019-08-19T00:38:00Z</time>
      </trkpt>
      <trkpt lat="42.288573" lon="3.222448">
        <ele>271</ele>
        <time>2019-08-19T00:38:01Z</time>
      </trkpt>
      <trkpt lat="42.288536" lon="3.222444">
        <ele>271</ele>
        <time>2019-08-19T00:38:02Z</time>
      </trkpt>
      <trkpt lat="42.2885" lon="3.22244">
        <ele>271</ele>
        <time>2019-08-19T00:38:03Z</time>
      </trkpt>
      <trkpt lat="42.288464" lon="3.222436">
        <ele>271</ele>
        <time>2019-08-19T00:38:04Z</time>
      </trkpt>
      <trkpt lat="42.288428" lon="3.222433">
        <ele>271</ele>
        <time>2019-08-19T00:38:05Z</time>
      </trkpt>
      <trkpt lat="42.288392" lon="3.222429">
        <ele>271</ele>
        <time>2019-08-19T00:38:06Z</time>
      </trkpt>
      <trkpt lat="42.288355" lon="3.222425">
        <ele>271</ele>
        <time>2019-08-19T00:38:07Z</time>
      </trkpt>
      <trkpt lat="42.288319" lon="3.222422">
        <ele>271</ele>
        <time>2019-08-19T00:38:08Z</time>
      </trkpt>
      <trkpt lat="42.288283" lon="3.222418">
        <ele>271</ele>
        <time>2019-08-19T00:38:09Z</time>
      </trkpt>
      <trkpt lat="42.288167" lon="3.222407">
        <ele>271</ele>
        <time>2019-08-19T00:38:11Z</time>
      </trkpt>
      <trkpt lat="42.288131" lon="3.222403">
        <ele>271</ele>
        <time>2019-08-19T00:38:12Z</time>
      </trkpt>
      <trkpt lat="42.288094" lon="3.222398">
        <ele>271</ele>
        <time>2019-08-19T00:38:13Z</time>
      </trkpt>
      <trkpt lat="42.288058" lon="3.222394">
        <ele>271</ele>
        <time>2019-08-19T00:38:14Z</time>
      </trkpt>
      <trkpt lat="42.288022" lon="3.22239">
        <ele>271</ele>
        <time>2019-08-19T00:38:15Z</time>
      </trkpt>
      <trkpt lat="42.287986" lon="3.222386">
        <ele>271</ele>
        <time>2019-08-19T00:38:16Z</time>
      </trkpt>
      <trkpt lat="42.287949" lon="3.222381">
        <ele>271</ele>
        <time>2019-08-19T00:38:17Z</time>
      </trkpt>
      <trkpt lat="42.287913" lon="3.222377">
        <ele>271</ele>
        <time>2019-08-19T00:38:18Z</time>
      </trkpt>
      <trkpt lat="42.287877" lon="3.222373">
        <ele>272</ele>
        <time>2019-08-19T00:38:19Z</time>
      </trkpt>
      <trkpt lat="42.287801" lon="3.222364">
        <ele>272</ele>
        <time>2019-08-19T00:38:20Z</time>
      </trkpt>
      <trkpt lat="42.287765" lon="3.22236">
        <ele>272</ele>
        <time>2019-08-19T00:38:21Z</time>
      </trkpt>
      <trkpt lat="42.28773" lon="3.222355">
        <ele>272</ele>
        <time>2019-08-19T00:38:22Z</time>
      </trkpt>
      <trkpt lat="42.287694" lon="3.222351">
        <ele>272</ele>
        <time>2019-08-19T00:38:23Z</time>
      </trkpt>
      <trkpt lat="42.287658" lon="3.222347">
        <ele>272</ele>
        <time>2019-08-19T00:38:24Z</time>
      </trkpt>
      <trkpt lat="42.287622" lon="3.222343">
        <ele>272</ele>
        <time>2019-08-19T00:38:25Z</time>
      </trkpt>
      <trkpt lat="42.287586" lon="3.222339">
        <ele>272</ele>
        <time>2019-08-19T00:38:26Z</time>
      </trkpt>
      <trkpt lat="42.287551" lon="3.222334">
        <ele>272</ele>
        <time>2019-08-19T00:38:27Z</time>
      </trkpt>
      <trkpt lat="42.287515" lon="3.22233">
        <ele>272</ele>
        <time>2019-08-19T00:38:28Z</time>
      </trkpt>
      <trkpt lat="42.287479" lon="3.222326">
        <ele>272</ele>
        <time>2019-08-19T00:38:29Z</time>
      </trkpt>
      <trkpt lat="42.287404" lon="3.222302">
        <ele>272</ele>
        <time>2019-08-19T00:38:30Z</time>
      </trkpt>
      <trkpt lat="42.28737" lon="3.222285">
        <ele>272</ele>
        <time>2019-08-19T00:38:31Z</time>
      </trkpt>
      <trkpt lat="42.287336" lon="3.222268">
        <ele>272</ele>
        <time>2019-08-19T00:38:32Z</time>
      </trkpt>
      <trkpt lat="42.287302" lon="3.222251">
        <ele>272</ele>
        <time>2019-08-19T00:38:33Z</time>
      </trkpt>
      <trkpt lat="42.287269" lon="3.222234">
        <ele>272</ele>
        <time>2019-08-19T00:38:34Z</time>
      </trkpt>
      <trkpt lat="42.287235" lon="3.222217">
        <ele>272</ele>
        <time>2019-08-19T00:38:35Z</time>
      </trkpt>
      <trkpt lat="42.287201" lon="3.2222">
        <ele>272</ele>
        <time>2019-08-19T00:38:36Z</time>
      </trkpt>
      <trkpt lat="42.287167" lon="3.222183">
        <ele>272</ele>
        <time>2019-08-19T00:38:37Z</time>
      </trkpt>
      <trkpt lat="42.287133" lon="3.222166">
        <ele>272</ele>
        <time>2019-08-19T00:38:38Z</time>
      </trkpt>
      <trkpt lat="42.287099" lon="3.222149">
        <ele>274</ele>
        <time>2019-08-19T00:38:39Z</time>
      </trkpt>
      <trkpt lat="42.287113" lon="3.222064">
        <ele>274</ele>
        <time>2019-08-19T00:38:40Z</time>
      </trkpt>
      <trkpt lat="42.287144" lon="3.222036">
        <ele>274</ele>
        <time>2019-08-19T00:38:41Z</time>
      </trkpt>
      <trkpt lat="42.287174" lon="3.222007">
        <ele>274</ele>
        <time>2019-08-19T00:38:42Z</time>
      </trkpt>
      <trkpt lat="42.287205" lon="3.221978">
        <ele>274</ele>
        <time>2019-08-19T00:38:43Z</time>
      </trkpt>
      <trkpt lat="42.287235" lon="3.22195">
        <ele>274</ele>
        <time>2019-08-19T00:38:44Z</time>
      </trkpt>
      <trkpt lat="42.287265" lon="3.221921">
        <ele>274</ele>
        <time>2019-08-19T00:38:45Z</time>
      </trkpt>
      <trkpt lat="42.287296" lon="3.221892">
        <ele>274</ele>
        <time>2019-08-19T00:38:46Z</time>
      </trkpt>
      <trkpt lat="42.287326" lon="3.221863">
        <ele>274</ele>
        <time>2019-08-19T00:38:47Z</time>
      </trkpt>
      <trkpt lat="42.287357" lon="3.221835">
        <ele>274</ele>
        <time>2019-08-19T00:38:48Z</time>
      </trkpt>
      <trkpt lat="42.287387" lon="3.221806">
        <ele>274</ele>
        <time>2019-08-19T00:38:49Z</time>
      </trkpt>
      <trkpt lat="42.287472" lon="3.221787">
        <ele>274</ele>
        <time>2019-08-19T00:38:50Z</time>
      </trkpt>
      <trkpt lat="42.287513" lon="3.221778">
        <ele>274</ele>
        <time>2019-08-19T00:38:51Z</time>
      </trkpt>
      <trkpt lat="42.287553" lon="3.22177">
        <ele>274</ele>
        <time>2019-08-19T00:38:52Z</time>
      </trkpt>
      <trkpt lat="42.287593" lon="3.221761">
        <ele>274</ele>
        <time>2019-08-19T00:38:53Z</time>
      </trkpt>
      <trkpt lat="42.287634" lon="3.221752">
        <ele>274</ele>
        <time>2019-08-19T00:38:54Z</time>
      </trkpt>
      <trkpt lat="42.287674" lon="3.221743">
        <ele>274</ele>
        <time>2019-08-19T00:38:55Z</time>
      </trkpt>
      <trkpt lat="42.287714" lon="3.221734">
        <ele>274</ele>
        <time>2019-08-19T00:38:56Z</time>
      </trkpt>
      <trkpt lat="42.287754" lon="3.221726">
        <ele>274</ele>
        <time>2019-08-19T00:38:57Z</time>
      </trkpt>
      <trkpt lat="42.287795" lon="3.221717">
        <ele>274</ele>
        <time>2019-08-19T00:38:58Z</time>
      </trkpt>
      <trkpt lat="42.287835" lon="3.221708">
        <ele>274</ele>
        <time>2019-08-19T00:38:59Z</time>
      </trkpt>
      <trkpt lat="42.287921" lon="3.221685">
        <ele>274</ele>
        <time>2019-08-19T00:39:00Z</time>
      </trkpt>
      <trkpt lat="42.287961" lon="3.221675">
        <ele>274</ele>
        <time>2019-08-19T00:39:01Z</time>
      </trkpt>
      <trkpt lat="42.288002" lon="3.221666">
        <ele>274</ele>
        <time>2019-08-19T00:39:02Z</time>
      </trkpt>
      <trkpt lat="42.288043" lon="3.221656">
        <ele>274</ele>
        <time>2019-08-19T00:39:03Z</time>
      </trkpt>
      <trkpt lat="42.288084" lon="3.221646">
        <ele>274</ele>
        <time>2019-08-19T00:39:04Z</time>
      </trkpt>
      <trkpt lat="42.288124" lon="3.221636">
        <ele>274</ele>
        <time>2019-08-19T00:39:05Z</time>
      </trkpt>
      <trkpt lat="42.288165" lon="3.221626">
        <ele>274</ele>
        <time>2019-08-19T00:39:06Z</time>
      </trkpt>
      <trkpt lat="42.288206" lon="3.221617">
        <ele>274</ele>
        <time>2019-08-19T00:39:07Z</time>
      </trkpt>
      <trkpt lat="42.288246" lon="3.221607">
        <ele>274</ele>
        <time>2019-08-19T00:39:08Z</time>
      </trkpt>
      <trkpt lat="42.288287" lon="3.221597">
        <ele>273</ele>
        <time>2019-08-19T00:39:09Z</time>
      </trkpt>
      <trkpt lat="42.288369" lon="3.221575">
        <ele>273</ele>
        <time>2019-08-19T00:39:10Z</time>
      </trkpt>
      <trkpt lat="42.288409" lon="3.221564">
        <ele>273</ele>
        <time>2019-08-19T00:39:11Z</time>
      </trkpt>
      <trkpt lat="42.288448" lon="3.221554">
        <ele>273</ele>
        <time>2019-08-19T00:39:12Z</time>
      </trkpt>
      <trkpt lat="42.288488" lon="3.221543">
        <ele>273</ele>
        <time>2019-08-19T00:39:13Z</time>
      </trkpt>
      <trkpt lat="42.288527" lon="3.221533">
        <ele>273</ele>
        <time>2019-08-19T00:39:14Z</time>
      </trkpt>
      <trkpt lat="42.288566" lon="3.221522">
        <ele>273</ele>
        <time>2019-08-19T00:39:15Z</time>
      </trkpt>
      <trkpt lat="42.288606" lon="3.221512">
        <ele>273</ele>
        <time>2019-08-19T00:39:16Z</time>
      </trkpt>
      <trkpt lat="42.288645" lon="3.221501">
        <ele>273</ele>
        <time>2019-08-19T00:39:17Z</time>
      </trkpt>
      <trkpt lat="42.288685" lon="3.221491">
        <ele>273</ele>
        <time>2019-08-19T00:39:18Z</time>
      </trkpt>
      <trkpt lat="42.288724" lon="3.22148">
        <ele>274</ele>
        <time>2019-08-19T00:39:19Z</time>
      </trkpt>
      <trkpt lat="42.288804" lon="3.221445">
        <ele>274</ele>
        <time>2019-08-19T00:39:20Z</time>
      </trkpt>
      <trkpt lat="42.28884" lon="3.221423">
        <ele>274</ele>
        <time>2019-08-19T00:39:21Z</time>
      </trkpt>
      <trkpt lat="42.288877" lon="3.221401">
        <ele>274</ele>
        <time>2019-08-19T00:39:22Z</time>
      </trkpt>
      <trkpt lat="42.288913" lon="3.221379">
        <ele>274</ele>
        <time>2019-08-19T00:39:23Z</time>
      </trkpt>
      <trkpt lat="42.288949" lon="3.221357">
        <ele>274</ele>
        <time>2019-08-19T00:39:24Z</time>
      </trkpt>
      <trkpt lat="42.288985" lon="3.221335">
        <ele>274</ele>
        <time>2019-08-19T00:39:25Z</time>
      </trkpt>
      <trkpt lat="42.289021" lon="3.221313">
        <ele>274</ele>
        <time>2019-08-19T00:39:26Z</time>
      </trkpt>
      <trkpt lat="42.289058" lon="3.221291">
        <ele>274</ele>
        <time>2019-08-19T00:39:27Z</time>
      </trkpt>
      <trkpt lat="42.289094" lon="3.221269">
        <ele>274</ele>
        <time>2019-08-19T00:39:28Z</time>
      </trkpt>
      <trkpt lat="42.28913" lon="3.221247">
        <ele>275</ele>
        <time>2019-08-19T00:39:29Z</time>
      </trkpt>
      <trkpt lat="42.289203" lon="3.221191">
        <ele>275</ele>
        <time>2019-08-19T00:39:30Z</time>
      </trkpt>
      <trkpt lat="42.289239" lon="3.221168">
        <ele>275</ele>
        <time>2019-08-19T00:39:31Z</time>
      </trkpt>
      <trkpt lat="42.289274" lon="3.221145">
        <ele>275</ele>
        <time>2019-08-19T00:39:32Z</time>
      </trkpt>
      <trkpt lat="42.28931" lon="3.221122">
        <ele>275</ele>
        <time>2019-08-19T00:39:33Z</time>
      </trkpt>
      <trkpt lat="42.289346" lon="3.2211">
        <ele>275</ele>
        <time>2019-08-19T00:39:34Z</time>
      </trkpt>
      <trkpt lat="42.289382" lon="3.221077">
        <ele>275</ele>
        <time>2019-08-19T00:39:35Z</time>
      </trkpt>
      <trkpt lat="42.289418" lon="3.221054">
        <ele>275</ele>
        <time>2019-08-19T00:39:36Z</time>
      </trkpt>
      <trkpt lat="42.289453" lon="3.221031">
        <ele>275</ele>
        <time>2019-08-19T00:39:37Z</time>
      </trkpt>
      <trkpt lat="42.289489" lon="3.221008">
        <ele>275</ele>
        <time>2019-08-19T00:39:38Z</time>
      </trkpt>
      <trkpt lat="42.289525" lon="3.220985">
        <ele>275</ele>
        <time>2019-08-19T00:39:39Z</time>
      </trkpt>
      <trkpt lat="42.289606" lon="3.220955">
        <ele>275</ele>
        <time>2019-08-19T00:39:40Z</time>
      </trkpt>
      <trkpt lat="42.289643" lon="3.220938">
        <ele>275</ele>
        <time>2019-08-19T00:39:41Z</time>
      </trkpt>
      <trkpt lat="42.289681" lon="3.220921">
        <ele>275</ele>
        <time>2019-08-19T00:39:42Z</time>
      </trkpt>
      <trkpt lat="42.289718" lon="3.220904">
        <ele>275</ele>
        <time>2019-08-19T00:39:43Z</time>
      </trkpt>
      <trkpt lat="42.289756" lon="3.220887">
        <ele>275</ele>
        <time>2019-08-19T00:39:44Z</time>
      </trkpt>
      <trkpt lat="42.289794" lon="3.220869">
        <ele>275</ele>
        <time>2019-08-19T00:39:45Z</time>
      </trkpt>
      <trkpt lat="42.289831" lon="3.220852">
        <ele>275</ele>
        <time>2019-08-19T00:39:46Z</time>
      </trkpt>
      <trkpt lat="42.289869" lon="3.220835">
        <ele>275</ele>
        <time>2019-08-19T00:39:47Z</time>
      </trkpt>
      <trkpt lat="42.289906" lon="3.220818">
        <ele>275</ele>
        <time>2019-08-19T00:39:48Z</time>
      </trkpt>
      <trkpt lat="42.289944" lon="3.220801">
        <ele>275</ele>
        <time>2019-08-19T00:39:49Z</time>
      </trkpt>
      <trkpt lat="42.29001" lon="3.22074">
        <ele>275</ele>
        <time>2019-08-19T00:39:50Z</time>
      </trkpt>
      <trkpt lat="42.290036" lon="3.220704">
        <ele>275</ele>
        <time>2019-08-19T00:39:51Z</time>
      </trkpt>
      <trkpt lat="42.290063" lon="3.220667">
        <ele>275</ele>
        <time>2019-08-19T00:39:52Z</time>
      </trkpt>
      <trkpt lat="42.290089" lon="3.220631">
        <ele>275</ele>
        <time>2019-08-19T00:39:53Z</time>
      </trkpt>
      <trkpt lat="42.290116" lon="3.220595">
        <ele>275</ele>
        <time>2019-08-19T00:39:54Z</time>
      </trkpt>
      <trkpt lat="42.290142" lon="3.220559">
        <ele>275</ele>
        <time>2019-08-19T00:39:55Z</time>
      </trkpt>
      <trkpt lat="42.290169" lon="3.220523">
        <ele>275</ele>
        <time>2019-08-19T00:39:56Z</time>
      </trkpt>
      <trkpt lat="42.290195" lon="3.220486">
        <ele>275</ele>
        <time>2019-08-19T00:39:57Z</time>
      </trkpt>
      <trkpt lat="42.290222" lon="3.22045">
        <ele>275</ele>
        <time>2019-08-19T00:39:58Z</time>
      </trkpt>
      <trkpt lat="42.290248" lon="3.220414">
        <ele>277</ele>
        <time>2019-08-19T00:39:59Z</time>
      </trkpt>
      <trkpt lat="42.29027" lon="3.220308">
        <ele>277</ele>
        <time>2019-08-19T00:40:00Z</time>
      </trkpt>
      <trkpt lat="42.290279" lon="3.220259">
        <ele>277</ele>
        <time>2019-08-19T00:40:01Z</time>
      </trkpt>
      <trkpt lat="42.290287" lon="3.220209">
        <ele>277</ele>
        <time>2019-08-19T00:40:02Z</time>
      </trkpt>
      <trkpt lat="42.290296" lon="3.220159">
        <ele>277</ele>
        <time>2019-08-19T00:40:03Z</time>
      </trkpt>
      <trkpt lat="42.290305" lon="3.22011">
        <ele>277</ele>
        <time>2019-08-19T00:40:04Z</time>
      </trkpt>
      <trkpt lat="42.290314" lon="3.22006">
        <ele>277</ele>
        <time>2019-08-19T00:40:05Z</time>
      </trkpt>
      <trkpt lat="42.290323" lon="3.22001">
        <ele>277</ele>
        <time>2019-08-19T00:40:06Z</time>
      </trkpt>
      <trkpt lat="42.290331" lon="3.21996">
        <ele>277</ele>
        <time>2019-08-19T00:40:07Z</time>
      </trkpt>
      <trkpt lat="42.29034" lon="3.219911">
        <ele>277</ele>
        <time>2019-08-19T00:40:08Z</time>
      </trkpt>
      <trkpt lat="42.290349" lon="3.219861">
        <ele>277</ele>
        <time>2019-08-19T00:40:09Z</time>
      </trkpt>
      <trkpt lat="42.2904" lon="3.219789">
        <ele>277</ele>
        <time>2019-08-19T00:40:10Z</time>
      </trkpt>
      <trkpt lat="42.290434" lon="3.219769">
        <ele>277</ele>
        <time>2019-08-19T00:40:11Z</time>
      </trkpt>
      <trkpt lat="42.290469" lon="3.219748">
        <ele>277</ele>
        <time>2019-08-19T00:40:12Z</time>
      </trkpt>
      <trkpt lat="42.290503" lon="3.219727">
        <ele>277</ele>
        <time>2019-08-19T00:40:13Z</time>
      </trkpt>
      <trkpt lat="42.290537" lon="3.219707">
        <ele>277</ele>
        <time>2019-08-19T00:40:14Z</time>
      </trkpt>
      <trkpt lat="42.290571" lon="3.219686">
        <ele>277</ele>
        <time>2019-08-19T00:40:15Z</time>
      </trkpt>
      <trkpt lat="42.290605" lon="3.219665">
        <ele>277</ele>
        <time>2019-08-19T00:40:16Z</time>
      </trkpt>
      <trkpt lat="42.29064" lon="3.219644">
        <ele>277</ele>
        <time>2019-08-19T00:40:17Z</time>
      </trkpt>
      <trkpt lat="42.290674" lon="3.219624">
        <ele>277</ele>
        <time>2019-08-19T00:40:18Z</time>
      </trkpt>
      <trkpt lat="42.290708" lon="3.219603">
        <ele>277</ele>
        <time>2019-08-19T00:40:19Z</time>
      </trkpt>
      <trkpt lat="42.290789" lon="3.219602">
        <ele>277</ele>
        <time>2019-08-19T00:40:20Z</time>
      </trkpt>
      <trkpt lat="42.290828" lon="3.219614">
        <ele>277</ele>
        <time>2019-08-19T00:40:21Z</time>
      </trkpt>
      <trkpt lat="42.290866" lon="3.219625">
        <ele>277</ele>
        <time>2019-08-19T00:40:22Z</time>
      </trkpt>
      <trkpt lat="42.290904" lon="3.219636">
        <ele>277</ele>
        <time>2019-08-19T00:40:23Z</time>
      </trkpt>
      <trkpt lat="42.290943" lon="3.219647">
        <ele>277</ele>
        <time>2019-08-19T00:40:24Z</time>
      </trkpt>
      <trkpt lat="42.290981" lon="3.219659">
        <ele>277</ele>
        <time>2019-08-19T00:40:25Z</time>
      </trkpt>
      <trkpt lat="42.291019" lon="3.21967">
        <ele>277</ele>
        <time>2019-08-19T00:40:26Z</time>
      </trkpt>
      <trkpt lat="42.291057" lon="3.219681">
        <ele>277</ele>
        <time>2019-08-19T00:40:27Z</time>
      </trkpt>
      <trkpt lat="42.291096" lon="3.219693">
        <ele>277</ele>
        <time>2019-08-19T00:40:28Z</time>
      </trkpt>
      <trkpt lat="42.291134" lon="3.219704">
        <ele>277</ele>
        <time>2019-08-19T00:40:29Z</time>
      </trkpt>
      <trkpt lat="42.291209" lon="3.219722">
        <ele>277</ele>
        <time>2019-08-19T00:40:30Z</time>
      </trkpt>
      <trkpt lat="42.291245" lon="3.219713">
        <ele>277</ele>
        <time>2019-08-19T00:40:31Z</time>
      </trkpt>
      <trkpt lat="42.29128" lon="3.219705">
        <ele>277</ele>
        <time>2019-08-19T00:40:32Z</time>
      </trkpt>
      <trkpt lat="42.291315" lon="3.219697">
        <ele>277</ele>
        <time>2019-08-19T00:40:33Z</time>
      </trkpt>
      <trkpt lat="42.291351" lon="3.219689">
        <ele>277</ele>
        <time>2019-08-19T00:40:34Z</time>
      </trkpt>
      <trkpt lat="42.291386" lon="3.21968">
        <ele>277</ele>
        <time>2019-08-19T00:40:35Z</time>
      </trkpt>
      <trkpt lat="42.291421" lon="3.219672">
        <ele>277</ele>
        <time>2019-08-19T00:40:36Z</time>
      </trkpt>
      <trkpt lat="42.291456" lon="3.219664">
        <ele>277</ele>
        <time>2019-08-19T00:40:37Z</time>
      </trkpt>
      <trkpt lat="42.291492" lon="3.219655">
        <ele>277</ele>
        <time>2019-08-19T00:40:38Z</time>
      </trkpt>
      <trkpt lat="42.291527" lon="3.219647">
        <ele>278</ele>
        <time>2019-08-19T00:40:39Z</time>
      </trkpt>
      <trkpt lat="42.291566" lon="3.219555">
        <ele>278</ele>
        <time>2019-08-19T00:40:40Z</time>
      </trkpt>
      <trkpt lat="42.291577" lon="3.219506">
        <ele>278</ele>
        <time>2019-08-19T00:40:41Z</time>
      </trkpt>
      <trkpt lat="42.291587" lon="3.219457">
        <ele>278</ele>
        <time>2019-08-19T00:40:42Z</time>
      </trkpt>
      <trkpt lat="42.291597" lon="3.219408">
        <ele>278</ele>
        <time>2019-08-19T00:40:43Z</time>
      </trkpt>
      <trkpt lat="42.291608" lon="3.219359">
        <ele>278</ele>
        <time>2019-08-19T00:40:44Z</time>
      </trkpt>
      <trkpt lat="42.291618" lon="3.21931">
        <ele>278</ele>
        <time>2019-08-19T00:40:45Z</time>
      </trkpt>
      <trkpt lat="42.291628" lon="3.219261">
        <ele>278</ele>
        <time>2019-08-19T00:40:46Z</time>
      </trkpt>
      <trkpt lat="42.291638" lon="3.219212">
        <ele>278</ele>
        <time>2019-08-19T00:40:47Z</time>
      </trkpt>
      <trkpt lat="42.291649" lon="3.219163">
        <ele>278</ele>
        <time>2019-08-19T00:40:48Z</time>
      </trkpt>
      <trkpt lat="42.291659" lon="3.219114">
        <ele>279</ele>
        <time>2019-08-19T00:40:49Z</time>
      </trkpt>
      <trkpt lat="42.291644" lon="3.219001">
        <ele>279</ele>
        <time>2019-08-19T00:40:50Z</time>
      </trkpt>
      <trkpt lat="42.291634" lon="3.218948">
        <ele>279</ele>
        <time>2019-08-19T00:40:51Z</time>
      </trkpt>
      <trkpt lat="42.291625" lon="3.218894">
        <ele>279</ele>
        <time>2019-08-19T00:40:52Z</time>
      </trkpt>
      <trkpt lat="42.291615" lon="3.218841">
        <ele>279</ele>
        <time>2019-08-19T00:40:53Z</time>
      </trkpt>
      <trkpt lat="42.291606" lon="3.218788">
        <ele>279</ele>
        <time>2019-08-19T00:40:54Z</time>
      </trkpt>
      <trkpt lat="42.291596" lon="3.218735">
        <ele>279</ele>
        <time>2019-08-19T00:40:55Z</time>
      </trkpt>
      <trkpt lat="42.291587" lon="3.218682">
        <ele>279</ele>
        <time>2019-08-19T00:40:56Z</time>
      </trkpt>
      <trkpt lat="42.291577" lon="3.218628">
        <ele>279</ele>
        <time>2019-08-19T00:40:57Z</time>
      </trkpt>
      <trkpt lat="42.291568" lon="3.218575">
        <ele>279</ele>
        <time>2019-08-19T00:40:58Z</time>
      </trkpt>
      <trkpt lat="42.291558" lon="3.218522">
        <ele>279</ele>
        <time>2019-08-19T00:40:59Z</time>
      </trkpt>
      <trkpt lat="42.291533" lon="3.218414">
        <ele>279</ele>
        <time>2019-08-19T00:41:00Z</time>
      </trkpt>
      <trkpt lat="42.29152" lon="3.218363">
        <ele>279</ele>
        <time>2019-08-19T00:41:01Z</time>
      </trkpt>
      <trkpt lat="42.291506" lon="3.218312">
        <ele>279</ele>
        <time>2019-08-19T00:41:02Z</time>
      </trkpt>
      <trkpt lat="42.291493" lon="3.218261">
        <ele>279</ele>
        <time>2019-08-19T00:41:03Z</time>
      </trkpt>
      <trkpt lat="42.29148" lon="3.21821">
        <ele>279</ele>
        <time>2019-08-19T00:41:04Z</time>
      </trkpt>
      <trkpt lat="42.291467" lon="3.21816">
        <ele>279</ele>
        <time>2019-08-19T00:41:05Z</time>
      </trkpt>
      <trkpt lat="42.291454" lon="3.218109">
        <ele>279</ele>
        <time>2019-08-19T00:41:06Z</time>
      </trkpt>
      <trkpt lat="42.29144" lon="3.218058">
        <ele>279</ele>
        <time>2019-08-19T00:41:07Z</time>
      </trkpt>
      <trkpt lat="42.291427" lon="3.218007">
        <ele>279</ele>
        <time>2019-08-19T00:41:08Z</time>
      </trkpt>
      <trkpt lat="42.291414" lon="3.217956">
        <ele>280</ele>
        <time>2019-08-19T00:41:09Z</time>
      </trkpt>
      <trkpt lat="42.291362" lon="3.217871">
        <ele>280</ele>
        <time>2019-08-19T00:41:10Z</time>
      </trkpt>
      <trkpt lat="42.29133" lon="3.217836">
        <ele>280</ele>
        <time>2019-08-19T00:41:11Z</time>
      </trkpt>
      <trkpt lat="42.291299" lon="3.217802">
        <ele>280</ele>
        <time>2019-08-19T00:41:12Z</time>
      </trkpt>
      <trkpt lat="42.291267" lon="3.217768">
        <ele>280</ele>
        <time>2019-08-19T00:41:13Z</time>
      </trkpt>
      <trkpt lat="42.291236" lon="3.217733">
        <ele>280</ele>
        <time>2019-08-19T00:41:14Z</time>
      </trkpt>
      <trkpt lat="42.291205" lon="3.217699">
        <ele>280</ele>
        <time>2019-08-19T00:41:15Z</time>
      </trkpt>
      <trkpt lat="42.291173" lon="3.217665">
        <ele>280</ele>
        <time>2019-08-19T00:41:16Z</time>
      </trkpt>
      <trkpt lat="42.291142" lon="3.217631">
        <ele>280</ele>
        <time>2019-08-19T00:41:17Z</time>
      </trkpt>
      <trkpt lat="42.29111" lon="3.217596">
        <ele>280</ele>
        <time>2019-08-19T00:41:18Z</time>
      </trkpt>
      <trkpt lat="42.291079" lon="3.217562">
        <ele>280</ele>
        <time>2019-08-19T00:41:19Z</time>
      </trkpt>
      <trkpt lat="42.291007" lon="3.2175">
        <ele>280</ele>
        <time>2019-08-19T00:41:20Z</time>
      </trkpt>
      <trkpt lat="42.290974" lon="3.217471">
        <ele>280</ele>
        <time>2019-08-19T00:41:21Z</time>
      </trkpt>
      <trkpt lat="42.29094" lon="3.217441">
        <ele>280</ele>
        <time>2019-08-19T00:41:22Z</time>
      </trkpt>
      <trkpt lat="42.290907" lon="3.217412">
        <ele>280</ele>
        <time>2019-08-19T00:41:23Z</time>
      </trkpt>
      <trkpt lat="42.290873" lon="3.217383">
        <ele>280</ele>
        <time>2019-08-19T00:41:24Z</time>
      </trkpt>
      <trkpt lat="42.290839" lon="3.217354">
        <ele>280</ele>
        <time>2019-08-19T00:41:25Z</time>
      </trkpt>
      <trkpt lat="42.290806" lon="3.217325">
        <ele>280</ele>
        <time>2019-08-19T00:41:26Z</time>
      </trkpt>
      <trkpt lat="42.290772" lon="3.217295">
        <ele>280</ele>
        <time>2019-08-19T00:41:27Z</time>
      </trkpt>
      <trkpt lat="42.290739" lon="3.217266">
        <ele>280</ele>
        <time>2019-08-19T00:41:28Z</time>
      </trkpt>
      <trkpt lat="42.290705" lon="3.217237">
        <ele>282</ele>
        <time>2019-08-19T00:41:29Z</time>
      </trkpt>
      <trkpt lat="42.290633" lon="3.217175">
        <ele>282</ele>
        <time>2019-08-19T00:41:30Z</time>
      </trkpt>
      <trkpt lat="42.290599" lon="3.217147">
        <ele>282</ele>
        <time>2019-08-19T00:41:31Z</time>
      </trkpt>
      <trkpt lat="42.290566" lon="3.217118">
        <ele>282</ele>
        <time>2019-08-19T00:41:32Z</time>
      </trkpt>
      <trkpt lat="42.290532" lon="3.21709">
        <ele>282</ele>
        <time>2019-08-19T00:41:33Z</time>
      </trkpt>
      <trkpt lat="42.290498" lon="3.217061">
        <ele>282</ele>
        <time>2019-08-19T00:41:34Z</time>
      </trkpt>
      <trkpt lat="42.290464" lon="3.217032">
        <ele>282</ele>
        <time>2019-08-19T00:41:35Z</time>
      </trkpt>
      <trkpt lat="42.29043" lon="3.217004">
        <ele>282</ele>
        <time>2019-08-19T00:41:36Z</time>
      </trkpt>
      <trkpt lat="42.290397" lon="3.216975">
        <ele>282</ele>
        <time>2019-08-19T00:41:37Z</time>
      </trkpt>
      <trkpt lat="42.290363" lon="3.216947">
        <ele>282</ele>
        <time>2019-08-19T00:41:38Z</time>
      </trkpt>
      <trkpt lat="42.290329" lon="3.216918">
        <ele>281</ele>
        <time>2019-08-19T00:41:39Z</time>
      </trkpt>
      <trkpt lat="42.290252" lon="3.216882">
        <ele>281</ele>
        <time>2019-08-19T00:41:40Z</time>
      </trkpt>
      <trkpt lat="42.290212" lon="3.216874">
        <ele>281</ele>
        <time>2019-08-19T00:41:41Z</time>
      </trkpt>
      <trkpt lat="42.290173" lon="3.216867">
        <ele>281</ele>
        <time>2019-08-19T00:41:42Z</time>
      </trkpt>
      <trkpt lat="42.290134" lon="3.21686">
        <ele>281</ele>
        <time>2019-08-19T00:41:43Z</time>
      </trkpt>
      <trkpt lat="42.290095" lon="3.216852">
        <ele>281</ele>
        <time>2019-08-19T00:41:44Z</time>
      </trkpt>
      <trkpt lat="42.290055" lon="3.216845">
        <ele>281</ele>
        <time>2019-08-19T00:41:45Z</time>
      </trkpt>
      <trkpt lat="42.290016" lon="3.216838">
        <ele>281</ele>
        <time>2019-08-19T00:41:46Z</time>
      </trkpt>
      <trkpt lat="42.289977" lon="3.216831">
        <ele>281</ele>
        <time>2019-08-19T00:41:47Z</time>
      </trkpt>
      <trkpt lat="42.289937" lon="3.216823">
        <ele>281</ele>
        <time>2019-08-19T00:41:48Z</time>
      </trkpt>
      <trkpt lat="42.289898" lon="3.216816">
        <ele>282</ele>
        <time>2019-08-19T00:41:49Z</time>
      </trkpt>
      <trkpt lat="42.289809" lon="3.216815">
        <ele>282</ele>
        <time>2019-08-19T00:41:50Z</time>
      </trkpt>
      <trkpt lat="42.289767" lon="3.216814">
        <ele>282</ele>
        <time>2019-08-19T00:41:51Z</time>
      </trkpt>
      <trkpt lat="42.289724" lon="3.216814">
        <ele>282</ele>
        <time>2019-08-19T00:41:52Z</time>
      </trkpt>
      <trkpt lat="42.289682" lon="3.216813">
        <ele>282</ele>
        <time>2019-08-19T00:41:53Z</time>
      </trkpt>
      <trkpt lat="42.28964" lon="3.216813">
        <ele>282</ele>
        <time>2019-08-19T00:41:54Z</time>
      </trkpt>
      <trkpt lat="42.289598" lon="3.216813">
        <ele>282</ele>
        <time>2019-08-19T00:41:55Z</time>
      </trkpt>
      <trkpt lat="42.289556" lon="3.216812">
        <ele>282</ele>
        <time>2019-08-19T00:41:56Z</time>
      </trkpt>
      <trkpt lat="42.289513" lon="3.216812">
        <ele>282</ele>
        <time>2019-08-19T00:41:57Z</time>
      </trkpt>
      <trkpt lat="42.289471" lon="3.216811">
        <ele>282</ele>
        <time>2019-08-19T00:41:58Z</time>
      </trkpt>
      <trkpt lat="42.289429" lon="3.216811">
        <ele>282</ele>
        <time>2019-08-19T00:41:59Z</time>
      </trkpt>
      <trkpt lat="42.28934" lon="3.216805">
        <ele>282</ele>
        <time>2019-08-19T00:42:00Z</time>
      </trkpt>
      <trkpt lat="42.289297" lon="3.2168">
        <ele>282</ele>
        <time>2019-08-19T00:42:01Z</time>
      </trkpt>
      <trkpt lat="42.289255" lon="3.216795">
        <ele>282</ele>
        <time>2019-08-19T00:42:02Z</time>
      </trkpt>
      <trkpt lat="42.289212" lon="3.21679">
        <ele>282</ele>
        <time>2019-08-19T00:42:03Z</time>
      </trkpt>
      <trkpt lat="42.28917" lon="3.216785">
        <ele>282</ele>
        <time>2019-08-19T00:42:04Z</time>
      </trkpt>
      <trkpt lat="42.289128" lon="3.21678">
        <ele>282</ele>
        <time>2019-08-19T00:42:05Z</time>
      </trkpt>
      <trkpt lat="42.289085" lon="3.216775">
        <ele>282</ele>
        <time>2019-08-19T00:42:06Z</time>
      </trkpt>
      <trkpt lat="42.289043" lon="3.21677">
        <ele>282</ele>
        <time>2019-08-19T00:42:07Z</time>
      </trkpt>
      <trkpt lat="42.289" lon="3.216765">
        <ele>282</ele>
        <time>2019-08-19T00:42:08Z</time>
      </trkpt>
      <trkpt lat="42.288958" lon="3.21676">
        <ele>283</ele>
        <time>2019-08-19T00:42:09Z</time>
      </trkpt>
      <trkpt lat="42.288874" lon="3.216715">
        <ele>283</ele>
        <time>2019-08-19T00:42:10Z</time>
      </trkpt>
      <trkpt lat="42.288836" lon="3.21669">
        <ele>283</ele>
        <time>2019-08-19T00:42:11Z</time>
      </trkpt>
      <trkpt lat="42.288797" lon="3.216664">
        <ele>283</ele>
        <time>2019-08-19T00:42:12Z</time>
      </trkpt>
      <trkpt lat="42.288759" lon="3.216638">
        <ele>283</ele>
        <time>2019-08-19T00:42:13Z</time>
      </trkpt>
      <trkpt lat="42.28872" lon="3.216612">
        <ele>283</ele>
        <time>2019-08-19T00:42:14Z</time>
      </trkpt>
      <trkpt lat="42.288681" lon="3.216587">
        <ele>283</ele>
        <time>2019-08-19T00:42:15Z</time>
      </trkpt>
      <trkpt lat="42.288643" lon="3.216561">
        <ele>283</ele>
        <time>2019-08-19T00:42:16Z</time>
      </trkpt>
      <trkpt lat="42.288604" lon="3.216535">
        <ele>283</ele>
        <time>2019-08-19T00:42:17Z</time>
      </trkpt>
      <trkpt lat="42.288566" lon="3.21651">
        <ele>283</ele>
        <time>2019-08-19T00:42:18Z</time>
      </trkpt>
      <trkpt lat="42.288527" lon="3.216484">
        <ele>283</ele>
        <time>2019-08-19T00:42:19Z</time>
      </trkpt>
      <trkpt lat="42.288494" lon="3.216397">
        <ele>283</ele>
        <time>2019-08-19T00:42:20Z</time>
      </trkpt>
      <trkpt lat="42.288499" lon="3.216346">
        <ele>283</ele>
        <time>2019-08-19T00:42:21Z</time>
      </trkpt>
      <trkpt lat="42.288505" lon="3.216294">
        <ele>283</ele>
        <time>2019-08-19T00:42:22Z</time>
      </trkpt>
      <trkpt lat="42.288511" lon="3.216243">
        <ele>283</ele>
        <time>2019-08-19T00:42:23Z</time>
      </trkpt>
      <trkpt lat="42.288517" lon="3.216191">
        <ele>283</ele>
        <time>2019-08-19T00:42:24Z</time>
      </trkpt>
      <trkpt lat="42.288522" lon="3.216139">
        <ele>283</ele>
        <time>2019-08-19T00:42:25Z</time>
      </trkpt>
      <trkpt lat="42.288528" lon="3.216088">
        <ele>283</ele>
        <time>2019-08-19T00:42:26Z</time>
      </trkpt>
      <trkpt lat="42.288534" lon="3.216036">
        <ele>283</ele>
        <time>2019-08-19T00:42:27Z</time>
      </trkpt>
      <trkpt lat="42.288539" lon="3.215985">
        <ele>283</ele>
        <time>2019-08-19T00:42:28Z</time>
      </trkpt>
      <trkpt lat="42.288545" lon="3.215933">
        <ele>284</ele>
        <time>2019-08-19T00:42:29Z</time>
      </trkpt>
      <trkpt lat="42.288598" lon="3.215834">
        <ele>284</ele>
        <time>2019-08-19T00:42:30Z</time>
      </trkpt>
      <trkpt lat="42.288622" lon="3.215789">
        <ele>284</ele>
        <time>2019-08-19T00:42:31Z</time>
      </trkpt>
      <trkpt lat="42.288646" lon="3.215743">
        <ele>284</ele>
        <time>2019-08-19T00:42:32Z</time>
      </trkpt>
      <trkpt lat="42.28867" lon="3.215698">
        <ele>284</ele>
        <time>2019-08-19T00:42:33Z</time>
      </trkpt>
      <trkpt lat="42.288695" lon="3.215653">
        <ele>284</ele>
        <time>2019-08-19T00:42:34Z</time>
      </trkpt>
      <trkpt lat="42.288719" lon="3.215608">
        <ele>284</ele>
        <time>2019-08-19T00:42:35Z</time>
      </trkpt>
      <trkpt lat="42.288743" lon="3.215563">
        <ele>284</ele>
        <time>2019-08-19T00:42:36Z</time>
      </trkpt>
      <trkpt lat="42.288767" lon="3.215517">
        <ele>284</ele>
        <time>2019-08-19T00:42:37Z</time>
      </trkpt>
      <trkpt lat="42.288791" lon="3.215472">
        <ele>284</ele>
        <time>2019-08-19T00:42:38Z</time>
      </trkpt>
      <trkpt lat="42.288815" lon="3.215427">
        <ele>285</ele>
        <time>2019-08-19T00:42:39Z</time>
      </trkpt>
      <trkpt lat="42.288846" lon="3.215332">
        <ele>285</ele>
        <time>2019-08-19T00:42:40Z</time>
      </trkpt>
      <trkpt lat="42.288857" lon="3.215281">
        <ele>285</ele>
        <time>2019-08-19T00:42:41Z</time>
      </trkpt>
      <trkpt lat="42.288868" lon="3.215231">
        <ele>285</ele>
        <time>2019-08-19T00:42:42Z</time>
      </trkpt>
      <trkpt lat="42.288879" lon="3.21518">
        <ele>285</ele>
        <time>2019-08-19T00:42:43Z</time>
      </trkpt>
      <trkpt lat="42.288891" lon="3.21513">
        <ele>285</ele>
        <time>2019-08-19T00:42:44Z</time>
      </trkpt>
      <trkpt lat="42.288902" lon="3.215079">
        <ele>285</ele>
        <time>2019-08-19T00:42:45Z</time>
      </trkpt>
      <trkpt lat="42.288913" lon="3.215029">
        <ele>285</ele>
        <time>2019-08-19T00:42:46Z</time>
      </trkpt>
      <trkpt lat="42.288924" lon="3.214978">
        <ele>285</ele>
        <time>2019-08-19T00:42:47Z</time>
      </trkpt>
      <trkpt lat="42.288935" lon="3.214928">
        <ele>285</ele>
        <time>2019-08-19T00:42:48Z</time>
      </trkpt>
      <trkpt lat="42.288946" lon="3.214877">
        <ele>286</ele>
        <time>2019-08-19T00:42:49Z</time>
      </trkpt>
      <trkpt lat="42.288957" lon="3.21477">
        <ele>286</ele>
        <time>2019-08-19T00:42:50Z</time>
      </trkpt>
      <trkpt lat="42.288961" lon="3.214726">
        <ele>286</ele>
        <time>2019-08-19T00:42:51Z</time>
      </trkpt>
      <trkpt lat="42.288964" lon="3.214681">
        <ele>286</ele>
        <time>2019-08-19T00:42:52Z</time>
      </trkpt>
      <trkpt lat="42.288967" lon="3.214637">
        <ele>286</ele>
        <time>2019-08-19T00:42:53Z</time>
      </trkpt>
      <trkpt lat="42.288971" lon="3.214592">
        <ele>286</ele>
        <time>2019-08-19T00:42:54Z</time>
      </trkpt>
      <trkpt lat="42.288974" lon="3.214547">
        <ele>286</ele>
        <time>2019-08-19T00:42:55Z</time>
      </trkpt>
      <trkpt lat="42.288977" lon="3.214503">
        <ele>286</ele>
        <time>2019-08-19T00:42:56Z</time>
      </trkpt>
      <trkpt lat="42.28898" lon="3.214458">
        <ele>286</ele>
        <time>2019-08-19T00:42:57Z</time>
      </trkpt>
      <trkpt lat="42.288984" lon="3.214414">
        <ele>286</ele>
        <time>2019-08-19T00:42:58Z</time>
      </trkpt>
      <trkpt lat="42.288987" lon="3.214369">
        <ele>286</ele>
        <time>2019-08-19T00:42:59Z</time>
      </trkpt>
      <trkpt lat="42.28897" lon="3.214263">
        <ele>286</ele>
        <time>2019-08-19T00:43:00Z</time>
      </trkpt>
      <trkpt lat="42.288957" lon="3.214204">
        <ele>286</ele>
        <time>2019-08-19T00:43:01Z</time>
      </trkpt>
      <trkpt lat="42.288943" lon="3.214144">
        <ele>286</ele>
        <time>2019-08-19T00:43:02Z</time>
      </trkpt>
      <trkpt lat="42.28893" lon="3.214085">
        <ele>286</ele>
        <time>2019-08-19T00:43:03Z</time>
      </trkpt>
      <trkpt lat="42.288917" lon="3.214026">
        <ele>286</ele>
        <time>2019-08-19T00:43:04Z</time>
      </trkpt>
      <trkpt lat="42.288904" lon="3.213967">
        <ele>286</ele>
        <time>2019-08-19T00:43:05Z</time>
      </trkpt>
      <trkpt lat="42.288891" lon="3.213908">
        <ele>286</ele>
        <time>2019-08-19T00:43:06Z</time>
      </trkpt>
      <trkpt lat="42.288877" lon="3.213848">
        <ele>286</ele>
        <time>2019-08-19T00:43:07Z</time>
      </trkpt>
      <trkpt lat="42.288864" lon="3.213789">
        <ele>286</ele>
        <time>2019-08-19T00:43:08Z</time>
      </trkpt>
      <trkpt lat="42.288851" lon="3.21373">
        <ele>287</ele>
        <time>2019-08-19T00:43:09Z</time>
      </trkpt>
      <trkpt lat="42.288821" lon="3.21357">
        <ele>287</ele>
        <time>2019-08-19T00:43:10Z</time>
      </trkpt>
      <trkpt lat="42.288808" lon="3.213489">
        <ele>287</ele>
        <time>2019-08-19T00:43:11Z</time>
      </trkpt>
      <trkpt lat="42.288794" lon="3.213407">
        <ele>287</ele>
        <time>2019-08-19T00:43:12Z</time>
      </trkpt>
      <trkpt lat="42.28878" lon="3.213326">
        <ele>287</ele>
        <time>2019-08-19T00:43:13Z</time>
      </trkpt>
      <trkpt lat="42.288767" lon="3.213244">
        <ele>287</ele>
        <time>2019-08-19T00:43:14Z</time>
      </trkpt>
      <trkpt lat="42.288753" lon="3.213163">
        <ele>287</ele>
        <time>2019-08-19T00:43:15Z</time>
      </trkpt>
      <trkpt lat="42.288739" lon="3.213081">
        <ele>287</ele>
        <time>2019-08-19T00:43:16Z</time>
      </trkpt>
      <trkpt lat="42.288725" lon="3.213">
        <ele>287</ele>
        <time>2019-08-19T00:43:17Z</time>
      </trkpt>
      <trkpt lat="42.288712" lon="3.212918">
        <ele>287</ele>
        <time>2019-08-19T00:43:18Z</time>
      </trkpt>
      <trkpt lat="42.288698" lon="3.212837">
        <ele>285</ele>
        <time>2019-08-19T00:43:19Z</time>
      </trkpt>
      <trkpt lat="42.28868" lon="3.212653">
        <ele>285</ele>
        <time>2019-08-19T00:43:20Z</time>
      </trkpt>
      <trkpt lat="42.288676" lon="3.21257">
        <ele>285</ele>
        <time>2019-08-19T00:43:21Z</time>
      </trkpt>
      <trkpt lat="42.288672" lon="3.212486">
        <ele>285</ele>
        <time>2019-08-19T00:43:22Z</time>
      </trkpt>
      <trkpt lat="42.288668" lon="3.212403">
        <ele>285</ele>
        <time>2019-08-19T00:43:23Z</time>
      </trkpt>
      <trkpt lat="42.288664" lon="3.212319">
        <ele>285</ele>
        <time>2019-08-19T00:43:24Z</time>
      </trkpt>
      <trkpt lat="42.28866" lon="3.212235">
        <ele>285</ele>
        <time>2019-08-19T00:43:25Z</time>
      </trkpt>
      <trkpt lat="42.288656" lon="3.212152">
        <ele>285</ele>
        <time>2019-08-19T00:43:26Z</time>
      </trkpt>
      <trkpt lat="42.288652" lon="3.212068">
        <ele>285</ele>
        <time>2019-08-19T00:43:27Z</time>
      </trkpt>
      <trkpt lat="42.288648" lon="3.211985">
        <ele>285</ele>
        <time>2019-08-19T00:43:28Z</time>
      </trkpt>
      <trkpt lat="42.288644" lon="3.211901">
        <ele>283</ele>
        <time>2019-08-19T00:43:29Z</time>
      </trkpt>
      <trkpt lat="42.288598" lon="3.211746">
        <ele>283</ele>
        <time>2019-08-19T00:43:30Z</time>
      </trkpt>
      <trkpt lat="42.288574" lon="3.211672">
        <ele>283</ele>
        <time>2019-08-19T00:43:31Z</time>
      </trkpt>
      <trkpt lat="42.288551" lon="3.211597">
        <ele>283</ele>
        <time>2019-08-19T00:43:32Z</time>
      </trkpt>
      <trkpt lat="42.288527" lon="3.211522">
        <ele>283</ele>
        <time>2019-08-19T00:43:33Z</time>
      </trkpt>
      <trkpt lat="42.288504" lon="3.211447">
        <ele>283</ele>
        <time>2019-08-19T00:43:34Z</time>
      </trkpt>
      <trkpt lat="42.28848" lon="3.211373">
        <ele>283</ele>
        <time>2019-08-19T00:43:35Z</time>
      </trkpt>
      <trkpt lat="42.288457" lon="3.211298">
        <ele>283</ele>
        <time>2019-08-19T00:43:36Z</time>
      </trkpt>
      <trkpt lat="42.288433" lon="3.211223">
        <ele>283</ele>
        <time>2019-08-19T00:43:37Z</time>
      </trkpt>
      <trkpt lat="42.28841" lon="3.211149">
        <ele>283</ele>
        <time>2019-08-19T00:43:38Z</time>
      </trkpt>
      <trkpt lat="42.288386" lon="3.211074">
        <ele>283</ele>
        <time>2019-08-19T00:43:39Z</time>
      </trkpt>
      <trkpt lat="42.28842" lon="3.210931">
        <ele>283</ele>
        <time>2019-08-19T00:43:40Z</time>
      </trkpt>
      <trkpt lat="42.28846" lon="3.210879">
        <ele>283</ele>
        <time>2019-08-19T00:43:41Z</time>
      </trkpt>
      <trkpt lat="42.2885" lon="3.210827">
        <ele>283</ele>
        <time>2019-08-19T00:43:42Z</time>
      </trkpt>
      <trkpt lat="42.28854" lon="3.210775">
        <ele>283</ele>
        <time>2019-08-19T00:43:43Z</time>
      </trkpt>
      <trkpt lat="42.28858" lon="3.210724">
        <ele>283</ele>
        <time>2019-08-19T00:43:44Z</time>
      </trkpt>
      <trkpt lat="42.288619" lon="3.210672">
        <ele>283</ele>
        <time>2019-08-19T00:43:45Z</time>
      </trkpt>
      <trkpt lat="42.288659" lon="3.21062">
        <ele>283</ele>
        <time>2019-08-19T00:43:46Z</time>
      </trkpt>
      <trkpt lat="42.288699" lon="3.210568">
        <ele>283</ele>
        <time>2019-08-19T00:43:47Z</time>
      </trkpt>
      <trkpt lat="42.288739" lon="3.210516">
        <ele>283</ele>
        <time>2019-08-19T00:43:48Z</time>
      </trkpt>
      <trkpt lat="42.288779" lon="3.210464">
        <ele>283</ele>
        <time>2019-08-19T00:43:49Z</time>
      </trkpt>
      <trkpt lat="42.288872" lon="3.210369">
        <ele>283</ele>
        <time>2019-08-19T00:43:50Z</time>
      </trkpt>
      <trkpt lat="42.288916" lon="3.210323">
        <ele>283</ele>
        <time>2019-08-19T00:43:51Z</time>
      </trkpt>
      <trkpt lat="42.288959" lon="3.210278">
        <ele>283</ele>
        <time>2019-08-19T00:43:52Z</time>
      </trkpt>
      <trkpt lat="42.289002" lon="3.210232">
        <ele>283</ele>
        <time>2019-08-19T00:43:53Z</time>
      </trkpt>
      <trkpt lat="42.289046" lon="3.210187">
        <ele>283</ele>
        <time>2019-08-19T00:43:54Z</time>
      </trkpt>
      <trkpt lat="42.289089" lon="3.210141">
        <ele>283</ele>
        <time>2019-08-19T00:43:55Z</time>
      </trkpt>
      <trkpt lat="42.289132" lon="3.210096">
        <ele>283</ele>
        <time>2019-08-19T00:43:56Z</time>
      </trkpt>
      <trkpt lat="42.289175" lon="3.21005">
        <ele>283</ele>
        <time>2019-08-19T00:43:57Z</time>
      </trkpt>
      <trkpt lat="42.289219" lon="3.210005">
        <ele>283</ele>
        <time>2019-08-19T00:43:58Z</time>
      </trkpt>
      <trkpt lat="42.289262" lon="3.209959">
        <ele>282</ele>
        <time>2019-08-19T00:43:59Z</time>
      </trkpt>
      <trkpt lat="42.289321" lon="3.209832">
        <ele>282</ele>
        <time>2019-08-19T00:44:00Z</time>
      </trkpt>
      <trkpt lat="42.289342" lon="3.209766">
        <ele>282</ele>
        <time>2019-08-19T00:44:01Z</time>
      </trkpt>
      <trkpt lat="42.289362" lon="3.209701">
        <ele>282</ele>
        <time>2019-08-19T00:44:02Z</time>
      </trkpt>
      <trkpt lat="42.289383" lon="3.209636">
        <ele>282</ele>
        <time>2019-08-19T00:44:03Z</time>
      </trkpt>
      <trkpt lat="42.289404" lon="3.209571">
        <ele>282</ele>
        <time>2019-08-19T00:44:04Z</time>
      </trkpt>
      <trkpt lat="42.289425" lon="3.209505">
        <ele>282</ele>
        <time>2019-08-19T00:44:05Z</time>
      </trkpt>
      <trkpt lat="42.289446" lon="3.20944">
        <ele>282</ele>
        <time>2019-08-19T00:44:06Z</time>
      </trkpt>
      <trkpt lat="42.289466" lon="3.209375">
        <ele>282</ele>
        <time>2019-08-19T00:44:07Z</time>
      </trkpt>
      <trkpt lat="42.289487" lon="3.209309">
        <ele>282</ele>
        <time>2019-08-19T00:44:08Z</time>
      </trkpt>
      <trkpt lat="42.289508" lon="3.209244">
        <ele>282</ele>
        <time>2019-08-19T00:44:09Z</time>
      </trkpt>
      <trkpt lat="42.289552" lon="3.209112">
        <ele>282</ele>
        <time>2019-08-19T00:44:10Z</time>
      </trkpt>
      <trkpt lat="42.289576" lon="3.209053">
        <ele>282</ele>
        <time>2019-08-19T00:44:11Z</time>
      </trkpt>
      <trkpt lat="42.289601" lon="3.208995">
        <ele>282</ele>
        <time>2019-08-19T00:44:12Z</time>
      </trkpt>
      <trkpt lat="42.289626" lon="3.208936">
        <ele>282</ele>
        <time>2019-08-19T00:44:13Z</time>
      </trkpt>
      <trkpt lat="42.289651" lon="3.208878">
        <ele>282</ele>
        <time>2019-08-19T00:44:14Z</time>
      </trkpt>
      <trkpt lat="42.289675" lon="3.208819">
        <ele>282</ele>
        <time>2019-08-19T00:44:15Z</time>
      </trkpt>
      <trkpt lat="42.2897" lon="3.208761">
        <ele>282</ele>
        <time>2019-08-19T00:44:16Z</time>
      </trkpt>
      <trkpt lat="42.289725" lon="3.208702">
        <ele>282</ele>
        <time>2019-08-19T00:44:17Z</time>
      </trkpt>
      <trkpt lat="42.289749" lon="3.208644">
        <ele>282</ele>
        <time>2019-08-19T00:44:18Z</time>
      </trkpt>
      <trkpt lat="42.289774" lon="3.208585">
        <ele>281</ele>
        <time>2019-08-19T00:44:19Z</time>
      </trkpt>
      <trkpt lat="42.289838" lon="3.208481">
        <ele>281</ele>
        <time>2019-08-19T00:44:20Z</time>
      </trkpt>
      <trkpt lat="42.289861" lon="3.208423">
        <ele>281</ele>
        <time>2019-08-19T00:44:21Z</time>
      </trkpt>
      <trkpt lat="42.289885" lon="3.208366">
        <ele>281</ele>
        <time>2019-08-19T00:44:22Z</time>
      </trkpt>
      <trkpt lat="42.289908" lon="3.208308">
        <ele>281</ele>
        <time>2019-08-19T00:44:23Z</time>
      </trkpt>
      <trkpt lat="42.289932" lon="3.208251">
        <ele>281</ele>
        <time>2019-08-19T00:44:24Z</time>
      </trkpt>
      <trkpt lat="42.289956" lon="3.208194">
        <ele>281</ele>
        <time>2019-08-19T00:44:25Z</time>
      </trkpt>
      <trkpt lat="42.289979" lon="3.208136">
        <ele>281</ele>
        <time>2019-08-19T00:44:26Z</time>
      </trkpt>
      <trkpt lat="42.290003" lon="3.208079">
        <ele>281</ele>
        <time>2019-08-19T00:44:27Z</time>
      </trkpt>
      <trkpt lat="42.290026" lon="3.208021">
        <ele>281</ele>
        <time>2019-08-19T00:44:28Z</time>
      </trkpt>
      <trkpt lat="42.29005" lon="3.207964">
        <ele>281</ele>
        <time>2019-08-19T00:44:29Z</time>
      </trkpt>
      <trkpt lat="42.290129" lon="3.207892">
        <ele>281</ele>
        <time>2019-08-19T00:44:30Z</time>
      </trkpt>
      <trkpt lat="42.290181" lon="3.207899">
        <ele>281</ele>
        <time>2019-08-19T00:44:31Z</time>
      </trkpt>
      <trkpt lat="42.290233" lon="3.207907">
        <ele>281</ele>
        <time>2019-08-19T00:44:32Z</time>
      </trkpt>
      <trkpt lat="42.290285" lon="3.207914">
        <ele>281</ele>
        <time>2019-08-19T00:44:33Z</time>
      </trkpt>
      <trkpt lat="42.290337" lon="3.207921">
        <ele>281</ele>
        <time>2019-08-19T00:44:34Z</time>
      </trkpt>
      <trkpt lat="42.290389" lon="3.207928">
        <ele>281</ele>
        <time>2019-08-19T00:44:35Z</time>
      </trkpt>
      <trkpt lat="42.290441" lon="3.207935">
        <ele>281</ele>
        <time>2019-08-19T00:44:36Z</time>
      </trkpt>
      <trkpt lat="42.290493" lon="3.207943">
        <ele>281</ele>
        <time>2019-08-19T00:44:37Z</time>
      </trkpt>
      <trkpt lat="42.290545" lon="3.20795">
        <ele>281</ele>
        <time>2019-08-19T00:44:38Z</time>
      </trkpt>
      <trkpt lat="42.290597" lon="3.207957">
        <ele>277</ele>
        <time>2019-08-19T00:44:39Z</time>
      </trkpt>
      <trkpt lat="42.290711" lon="3.208015">
        <ele>277</ele>
        <time>2019-08-19T00:44:40Z</time>
      </trkpt>
      <trkpt lat="42.290769" lon="3.208038">
        <ele>277</ele>
        <time>2019-08-19T00:44:41Z</time>
      </trkpt>
      <trkpt lat="42.290826" lon="3.208061">
        <ele>277</ele>
        <time>2019-08-19T00:44:42Z</time>
      </trkpt>
      <trkpt lat="42.290884" lon="3.208084">
        <ele>277</ele>
        <time>2019-08-19T00:44:43Z</time>
      </trkpt>
      <trkpt lat="42.290942" lon="3.208107">
        <ele>277</ele>
        <time>2019-08-19T00:44:44Z</time>
      </trkpt>
      <trkpt lat="42.291" lon="3.20813">
        <ele>277</ele>
        <time>2019-08-19T00:44:45Z</time>
      </trkpt>
      <trkpt lat="42.291058" lon="3.208153">
        <ele>277</ele>
        <time>2019-08-19T00:44:46Z</time>
      </trkpt>
      <trkpt lat="42.291115" lon="3.208176">
        <ele>277</ele>
        <time>2019-08-19T00:44:47Z</time>
      </trkpt>
      <trkpt lat="42.291173" lon="3.208199">
        <ele>277</ele>
        <time>2019-08-19T00:44:48Z</time>
      </trkpt>
      <trkpt lat="42.291231" lon="3.208222">
        <ele>278</ele>
        <time>2019-08-19T00:44:50Z</time>
      </trkpt>
      <trkpt lat="42.291356" lon="3.208184">
        <ele>278</ele>
        <time>2019-08-19T00:44:51Z</time>
      </trkpt>
      <trkpt lat="42.291417" lon="3.208148">
        <ele>278</ele>
        <time>2019-08-19T00:44:52Z</time>
      </trkpt>
      <trkpt lat="42.291477" lon="3.208113">
        <ele>278</ele>
        <time>2019-08-19T00:44:53Z</time>
      </trkpt>
      <trkpt lat="42.291537" lon="3.208077">
        <ele>278</ele>
        <time>2019-08-19T00:44:54Z</time>
      </trkpt>
      <trkpt lat="42.291598" lon="3.208042">
        <ele>278</ele>
        <time>2019-08-19T00:44:55Z</time>
      </trkpt>
      <trkpt lat="42.291658" lon="3.208006">
        <ele>278</ele>
        <time>2019-08-19T00:44:56Z</time>
      </trkpt>
      <trkpt lat="42.291718" lon="3.207971">
        <ele>278</ele>
        <time>2019-08-19T00:44:57Z</time>
      </trkpt>
      <trkpt lat="42.291779" lon="3.207935">
        <ele>278</ele>
        <time>2019-08-19T00:44:58Z</time>
      </trkpt>
      <trkpt lat="42.291839" lon="3.2079">
        <ele>278</ele>
        <time>2019-08-19T00:44:59Z</time>
      </trkpt>
      <trkpt lat="42.291913" lon="3.207856">
        <ele>278</ele>
        <time>2019-08-19T00:45:00Z</time>
      </trkpt>
      <trkpt lat="42.291991" lon="3.207819">
        <ele>278</ele>
        <time>2019-08-19T00:45:01Z</time>
      </trkpt>
      <trkpt lat="42.292072" lon="3.207787">
        <ele>278</ele>
        <time>2019-08-19T00:45:02Z</time>
      </trkpt>
      <trkpt lat="42.292155" lon="3.207762">
        <ele>278</ele>
        <time>2019-08-19T00:45:03Z</time>
      </trkpt>
      <trkpt lat="42.292239" lon="3.207739">
        <ele>278</ele>
        <time>2019-08-19T00:45:04Z</time>
      </trkpt>
      <trkpt lat="42.292322" lon="3.207712">
        <ele>278</ele>
        <time>2019-08-19T00:45:05Z</time>
      </trkpt>
      <trkpt lat="42.292407" lon="3.207686">
        <ele>278</ele>
        <time>2019-08-19T00:45:06Z</time>
      </trkpt>
      <trkpt lat="42.292494" lon="3.207663">
        <ele>278</ele>
        <time>2019-08-19T00:45:07Z</time>
      </trkpt>
      <trkpt lat="42.292581" lon="3.207642">
        <ele>278</ele>
        <time>2019-08-19T00:45:08Z</time>
      </trkpt>
      <trkpt lat="42.292669" lon="3.20762">
        <ele>278</ele>
        <time>2019-08-19T00:45:09Z</time>
      </trkpt>
      <trkpt lat="42.292758" lon="3.207601">
        <ele>274</ele>
        <time>2019-08-19T00:45:10Z</time>
      </trkpt>
      <trkpt lat="42.29293" lon="3.207576">
        <ele>274</ele>
        <time>2019-08-19T00:45:11Z</time>
      </trkpt>
      <trkpt lat="42.293013" lon="3.207569">
        <ele>274</ele>
        <time>2019-08-19T00:45:12Z</time>
      </trkpt>
      <trkpt lat="42.293096" lon="3.207563">
        <ele>274</ele>
        <time>2019-08-19T00:45:13Z</time>
      </trkpt>
      <trkpt lat="42.293179" lon="3.207556">
        <ele>274</ele>
        <time>2019-08-19T00:45:14Z</time>
      </trkpt>
      <trkpt lat="42.293262" lon="3.20755">
        <ele>274</ele>
        <time>2019-08-19T00:45:15Z</time>
      </trkpt>
      <trkpt lat="42.293345" lon="3.207543">
        <ele>274</ele>
        <time>2019-08-19T00:45:16Z</time>
      </trkpt>
      <trkpt lat="42.293428" lon="3.207537">
        <ele>274</ele>
        <time>2019-08-19T00:45:17Z</time>
      </trkpt>
      <trkpt lat="42.293511" lon="3.20753">
        <ele>274</ele>
        <time>2019-08-19T00:45:18Z</time>
      </trkpt>
      <trkpt lat="42.293594" lon="3.207524">
        <ele>271</ele>
        <time>2019-08-19T00:45:19Z</time>
      </trkpt>
      <trkpt lat="42.293684" lon="3.207478">
        <ele>271</ele>
        <time>2019-08-19T00:45:20Z</time>
      </trkpt>
      <trkpt lat="42.29377" lon="3.207417">
        <ele>271</ele>
        <time>2019-08-19T00:45:21Z</time>
      </trkpt>
      <trkpt lat="42.293853" lon="3.207347">
        <ele>271</ele>
        <time>2019-08-19T00:45:22Z</time>
      </trkpt>
      <trkpt lat="42.29393" lon="3.207266">
        <ele>271</ele>
        <time>2019-08-19T00:45:23Z</time>
      </trkpt>
      <trkpt lat="42.294003" lon="3.207176">
        <ele>271</ele>
        <time>2019-08-19T00:45:24Z</time>
      </trkpt>
      <trkpt lat="42.294074" lon="3.20708">
        <ele>271</ele>
        <time>2019-08-19T00:45:25Z</time>
      </trkpt>
      <trkpt lat="42.294144" lon="3.206981">
        <ele>271</ele>
        <time>2019-08-19T00:45:26Z</time>
      </trkpt>
      <trkpt lat="42.294213" lon="3.206886">
        <ele>271</ele>
        <time>2019-08-19T00:45:27Z</time>
      </trkpt>
      <trkpt lat="42.294281" lon="3.206791">
        <ele>271</ele>
        <time>2019-08-19T00:45:28Z</time>
      </trkpt>
      <trkpt lat="42.294348" lon="3.206696">
        <ele>270</ele>
        <time>2019-08-19T00:45:29Z</time>
      </trkpt>
      <trkpt lat="42.294415" lon="3.2066">
        <ele>270</ele>
        <time>2019-08-19T00:45:30Z</time>
      </trkpt>
      <trkpt lat="42.294478" lon="3.206502">
        <ele>270</ele>
        <time>2019-08-19T00:45:31Z</time>
      </trkpt>
      <trkpt lat="42.29454" lon="3.206403">
        <ele>270</ele>
        <time>2019-08-19T00:45:32Z</time>
      </trkpt>
      <trkpt lat="42.294601" lon="3.206305">
        <ele>270</ele>
        <time>2019-08-19T00:45:33Z</time>
      </trkpt>
      <trkpt lat="42.294661" lon="3.206204">
        <ele>270</ele>
        <time>2019-08-19T00:45:34Z</time>
      </trkpt>
      <trkpt lat="42.294719" lon="3.206104">
        <ele>270</ele>
        <time>2019-08-19T00:45:35Z</time>
      </trkpt>
      <trkpt lat="42.294776" lon="3.206004">
        <ele>270</ele>
        <time>2019-08-19T00:45:36Z</time>
      </trkpt>
      <trkpt lat="42.294833" lon="3.205906">
        <ele>270</ele>
        <time>2019-08-19T00:45:37Z</time>
      </trkpt>
      <trkpt lat="42.294888" lon="3.205811">
        <ele>270</ele>
        <time>2019-08-19T00:45:38Z</time>
      </trkpt>
      <trkpt lat="42.294937" lon="3.205716">
        <ele>266</ele>
        <time>2019-08-19T00:45:39Z</time>
      </trkpt>
      <trkpt lat="42.295053" lon="3.2056">
        <ele>266</ele>
        <time>2019-08-19T00:45:40Z</time>
      </trkpt>
      <trkpt lat="42.29512" lon="3.20558">
        <ele>266</ele>
        <time>2019-08-19T00:45:41Z</time>
      </trkpt>
      <trkpt lat="42.295188" lon="3.20556">
        <ele>266</ele>
        <time>2019-08-19T00:45:42Z</time>
      </trkpt>
      <trkpt lat="42.295255" lon="3.20554">
        <ele>266</ele>
        <time>2019-08-19T00:45:43Z</time>
      </trkpt>
      <trkpt lat="42.295322" lon="3.205519">
        <ele>266</ele>
        <time>2019-08-19T00:45:44Z</time>
      </trkpt>
      <trkpt lat="42.295389" lon="3.205499">
        <ele>266</ele>
        <time>2019-08-19T00:45:45Z</time>
      </trkpt>
      <trkpt lat="42.295457" lon="3.205479">
        <ele>266</ele>
        <time>2019-08-19T00:45:47Z</time>
      </trkpt>
      <trkpt lat="42.295524" lon="3.205459">
        <ele>266</ele>
        <time>2019-08-19T00:45:48Z</time>
      </trkpt>
      <trkpt lat="42.295591" lon="3.205439">
        <ele>265</ele>
        <time>2019-08-19T00:45:49Z</time>
      </trkpt>
      <trkpt lat="42.29571" lon="3.205374">
        <ele>265</ele>
        <time>2019-08-19T00:45:50Z</time>
      </trkpt>
      <trkpt lat="42.295749" lon="3.205303">
        <ele>265</ele>
        <time>2019-08-19T00:45:51Z</time>
      </trkpt>
      <trkpt lat="42.295788" lon="3.205232">
        <ele>265</ele>
        <time>2019-08-19T00:45:52Z</time>
      </trkpt>
      <trkpt lat="42.295827" lon="3.205161">
        <ele>265</ele>
        <time>2019-08-19T00:45:53Z</time>
      </trkpt>
      <trkpt lat="42.295866" lon="3.20509">
        <ele>265</ele>
        <time>2019-08-19T00:45:54Z</time>
      </trkpt>
      <trkpt lat="42.295904" lon="3.205019">
        <ele>265</ele>
        <time>2019-08-19T00:45:55Z</time>
      </trkpt>
      <trkpt lat="42.295943" lon="3.204948">
        <ele>265</ele>
        <time>2019-08-19T00:45:56Z</time>
      </trkpt>
      <trkpt lat="42.295982" lon="3.204877">
        <ele>265</ele>
        <time>2019-08-19T00:45:57Z</time>
      </trkpt>
      <trkpt lat="42.296021" lon="3.204806">
        <ele>265</ele>
        <time>2019-08-19T00:45:58Z</time>
      </trkpt>
      <trkpt lat="42.29606" lon="3.204735">
        <ele>258</ele>
        <time>2019-08-19T00:45:59Z</time>
      </trkpt>
      <trkpt lat="42.296051" lon="3.204601">
        <ele>258</ele>
        <time>2019-08-19T00:46:00Z</time>
      </trkpt>
      <trkpt lat="42.296031" lon="3.204465">
        <ele>258</ele>
        <time>2019-08-19T00:46:01Z</time>
      </trkpt>
      <trkpt lat="42.296002" lon="3.204327">
        <ele>258</ele>
        <time>2019-08-19T00:46:02Z</time>
      </trkpt>
      <trkpt lat="42.295966" lon="3.20419">
        <ele>258</ele>
        <time>2019-08-19T00:46:03Z</time>
      </trkpt>
      <trkpt lat="42.295928" lon="3.204059">
        <ele>258</ele>
        <time>2019-08-19T00:46:04Z</time>
      </trkpt>
      <trkpt lat="42.295892" lon="3.203942">
        <ele>258</ele>
        <time>2019-08-19T00:46:05Z</time>
      </trkpt>
      <trkpt lat="42.295864" lon="3.203832">
        <ele>258</ele>
        <time>2019-08-19T00:46:06Z</time>
      </trkpt>
      <trkpt lat="42.29585" lon="3.203723">
        <ele>258</ele>
        <time>2019-08-19T00:46:07Z</time>
      </trkpt>
      <trkpt lat="42.295858" lon="3.203609">
        <ele>258</ele>
        <time>2019-08-19T00:46:08Z</time>
      </trkpt>
      <trkpt lat="42.295898" lon="3.2035">
        <ele>252</ele>
        <time>2019-08-19T00:46:09Z</time>
      </trkpt>
      <trkpt lat="42.295937" lon="3.20339">
        <ele>252</ele>
        <time>2019-08-19T00:46:10Z</time>
      </trkpt>
      <trkpt lat="42.295985" lon="3.203277">
        <ele>252</ele>
        <time>2019-08-19T00:46:11Z</time>
      </trkpt>
      <trkpt lat="42.296025" lon="3.203153">
        <ele>252</ele>
        <time>2019-08-19T00:46:12Z</time>
      </trkpt>
      <trkpt lat="42.296053" lon="3.203018">
        <ele>252</ele>
        <time>2019-08-19T00:46:13Z</time>
      </trkpt>
      <trkpt lat="42.296073" lon="3.202878">
        <ele>252</ele>
        <time>2019-08-19T00:46:14Z</time>
      </trkpt>
      <trkpt lat="42.296089" lon="3.202739">
        <ele>252</ele>
        <time>2019-08-19T00:46:15Z</time>
      </trkpt>
      <trkpt lat="42.296101" lon="3.202611">
        <ele>252</ele>
        <time>2019-08-19T00:46:16Z</time>
      </trkpt>
      <trkpt lat="42.296115" lon="3.202492">
        <ele>252</ele>
        <time>2019-08-19T00:46:17Z</time>
      </trkpt>
      <trkpt lat="42.296143" lon="3.202382">
        <ele>252</ele>
        <time>2019-08-19T00:46:18Z</time>
      </trkpt>
      <trkpt lat="42.2962" lon="3.202288">
        <ele>246</ele>
        <time>2019-08-19T00:46:19Z</time>
      </trkpt>
      <trkpt lat="42.296256" lon="3.202194">
        <ele>246</ele>
        <time>2019-08-19T00:46:20Z</time>
      </trkpt>
      <trkpt lat="42.296336" lon="3.20212">
        <ele>246</ele>
        <time>2019-08-19T00:46:21Z</time>
      </trkpt>
      <trkpt lat="42.296427" lon="3.202062">
        <ele>246</ele>
        <time>2019-08-19T00:46:22Z</time>
      </trkpt>
      <trkpt lat="42.296525" lon="3.202017">
        <ele>246</ele>
        <time>2019-08-19T00:46:23Z</time>
      </trkpt>
      <trkpt lat="42.296626" lon="3.201974">
        <ele>246</ele>
        <time>2019-08-19T00:46:24Z</time>
      </trkpt>
      <trkpt lat="42.296728" lon="3.201924">
        <ele>246</ele>
        <time>2019-08-19T00:46:25Z</time>
      </trkpt>
      <trkpt lat="42.296825" lon="3.201859">
        <ele>246</ele>
        <time>2019-08-19T00:46:26Z</time>
      </trkpt>
      <trkpt lat="42.296915" lon="3.201778">
        <ele>246</ele>
        <time>2019-08-19T00:46:27Z</time>
      </trkpt>
      <trkpt lat="42.297018" lon="3.201643">
        <ele>246</ele>
        <time>2019-08-19T00:46:28Z</time>
      </trkpt>
      <trkpt lat="42.297045" lon="3.201597">
        <ele>239</ele>
        <time>2019-08-19T00:46:29Z</time>
      </trkpt>
      <trkpt lat="42.297058" lon="3.20141">
        <ele>239</ele>
        <time>2019-08-19T00:46:30Z</time>
      </trkpt>
      <trkpt lat="42.297017" lon="3.201316">
        <ele>239</ele>
        <time>2019-08-19T00:46:31Z</time>
      </trkpt>
      <trkpt lat="42.296976" lon="3.201221">
        <ele>239</ele>
        <time>2019-08-19T00:46:32Z</time>
      </trkpt>
      <trkpt lat="42.296935" lon="3.201127">
        <ele>239</ele>
        <time>2019-08-19T00:46:33Z</time>
      </trkpt>
      <trkpt lat="42.296894" lon="3.201032">
        <ele>239</ele>
        <time>2019-08-19T00:46:34Z</time>
      </trkpt>
      <trkpt lat="42.296852" lon="3.200938">
        <ele>239</ele>
        <time>2019-08-19T00:46:35Z</time>
      </trkpt>
      <trkpt lat="42.296811" lon="3.200843">
        <ele>239</ele>
        <time>2019-08-19T00:46:36Z</time>
      </trkpt>
      <trkpt lat="42.29677" lon="3.200749">
        <ele>239</ele>
        <time>2019-08-19T00:46:37Z</time>
      </trkpt>
      <trkpt lat="42.296729" lon="3.200654">
        <ele>239</ele>
        <time>2019-08-19T00:46:38Z</time>
      </trkpt>
      <trkpt lat="42.296688" lon="3.20056">
        <ele>232</ele>
        <time>2019-08-19T00:46:39Z</time>
      </trkpt>
      <trkpt lat="42.296612" lon="3.200444">
        <ele>232</ele>
        <time>2019-08-19T00:46:40Z</time>
      </trkpt>
      <trkpt lat="42.296527" lon="3.200335">
        <ele>232</ele>
        <time>2019-08-19T00:46:41Z</time>
      </trkpt>
      <trkpt lat="42.296432" lon="3.200234">
        <ele>232</ele>
        <time>2019-08-19T00:46:42Z</time>
      </trkpt>
      <trkpt lat="42.29633" lon="3.200143">
        <ele>232</ele>
        <time>2019-08-19T00:46:43Z</time>
      </trkpt>
      <trkpt lat="42.296218" lon="3.200065">
        <ele>232</ele>
        <time>2019-08-19T00:46:44Z</time>
      </trkpt>
      <trkpt lat="42.296097" lon="3.199999">
        <ele>232</ele>
        <time>2019-08-19T00:46:45Z</time>
      </trkpt>
      <trkpt lat="42.295973" lon="3.199942">
        <ele>232</ele>
        <time>2019-08-19T00:46:46Z</time>
      </trkpt>
      <trkpt lat="42.295759" lon="3.19985">
        <ele>232</ele>
        <time>2019-08-19T00:46:47Z</time>
      </trkpt>
      <trkpt lat="42.295675" lon="3.19981">
        <ele>232</ele>
        <time>2019-08-19T00:46:48Z</time>
      </trkpt>
      <trkpt lat="42.29559" lon="3.19977">
        <ele>225</ele>
        <time>2019-08-19T00:46:49Z</time>
      </trkpt>
      <trkpt lat="42.295404" lon="3.199667">
        <ele>225</ele>
        <time>2019-08-19T00:46:50Z</time>
      </trkpt>
      <trkpt lat="42.295344" lon="3.199626">
        <ele>225</ele>
        <time>2019-08-19T00:46:51Z</time>
      </trkpt>
      <trkpt lat="42.295283" lon="3.199586">
        <ele>225</ele>
        <time>2019-08-19T00:46:52Z</time>
      </trkpt>
      <trkpt lat="42.295222" lon="3.199545">
        <ele>225</ele>
        <time>2019-08-19T00:46:53Z</time>
      </trkpt>
      <trkpt lat="42.295162" lon="3.199504">
        <ele>225</ele>
        <time>2019-08-19T00:46:54Z</time>
      </trkpt>
      <trkpt lat="42.295101" lon="3.199463">
        <ele>225</ele>
        <time>2019-08-19T00:46:55Z</time>
      </trkpt>
      <trkpt lat="42.29504" lon="3.199422">
        <ele>225</ele>
        <time>2019-08-19T00:46:56Z</time>
      </trkpt>
      <trkpt lat="42.294979" lon="3.199382">
        <ele>225</ele>
        <time>2019-08-19T00:46:57Z</time>
      </trkpt>
      <trkpt lat="42.294919" lon="3.199341">
        <ele>225</ele>
        <time>2019-08-19T00:46:58Z</time>
      </trkpt>
      <trkpt lat="42.294858" lon="3.1993">
        <ele>218</ele>
        <time>2019-08-19T00:46:59Z</time>
      </trkpt>
      <trkpt lat="42.294937" lon="3.199171">
        <ele>218</ele>
        <time>2019-08-19T00:47:00Z</time>
      </trkpt>
      <trkpt lat="42.295002" lon="3.199127">
        <ele>218</ele>
        <time>2019-08-19T00:47:01Z</time>
      </trkpt>
      <trkpt lat="42.295066" lon="3.199082">
        <ele>218</ele>
        <time>2019-08-19T00:47:02Z</time>
      </trkpt>
      <trkpt lat="42.295131" lon="3.199038">
        <ele>218</ele>
        <time>2019-08-19T00:47:03Z</time>
      </trkpt>
      <trkpt lat="42.295195" lon="3.198994">
        <ele>218</ele>
        <time>2019-08-19T00:47:04Z</time>
      </trkpt>
      <trkpt lat="42.295259" lon="3.19895">
        <ele>218</ele>
        <time>2019-08-19T00:47:05Z</time>
      </trkpt>
      <trkpt lat="42.295324" lon="3.198906">
        <ele>218</ele>
        <time>2019-08-19T00:47:06Z</time>
      </trkpt>
      <trkpt lat="42.295388" lon="3.198861">
        <ele>218</ele>
        <time>2019-08-19T00:47:07Z</time>
      </trkpt>
      <trkpt lat="42.295453" lon="3.198817">
        <ele>218</ele>
        <time>2019-08-19T00:47:08Z</time>
      </trkpt>
      <trkpt lat="42.295517" lon="3.198773">
        <ele>214</ele>
        <time>2019-08-19T00:47:09Z</time>
      </trkpt>
      <trkpt lat="42.295591" lon="3.198714">
        <ele>214</ele>
        <time>2019-08-19T00:47:10Z</time>
      </trkpt>
      <trkpt lat="42.295657" lon="3.198641">
        <ele>214</ele>
        <time>2019-08-19T00:47:11Z</time>
      </trkpt>
      <trkpt lat="42.295715" lon="3.198553">
        <ele>214</ele>
        <time>2019-08-19T00:47:12Z</time>
      </trkpt>
      <trkpt lat="42.295769" lon="3.198456">
        <ele>214</ele>
        <time>2019-08-19T00:47:13Z</time>
      </trkpt>
      <trkpt lat="42.295822" lon="3.198355">
        <ele>214</ele>
        <time>2019-08-19T00:47:14Z</time>
      </trkpt>
      <trkpt lat="42.295883" lon="3.198257">
        <ele>214</ele>
        <time>2019-08-19T00:47:15Z</time>
      </trkpt>
      <trkpt lat="42.295955" lon="3.198171">
        <ele>214</ele>
        <time>2019-08-19T00:47:16Z</time>
      </trkpt>
      <trkpt lat="42.296039" lon="3.198099">
        <ele>214</ele>
        <time>2019-08-19T00:47:17Z</time>
      </trkpt>
      <trkpt lat="42.296125" lon="3.198028">
        <ele>214</ele>
        <time>2019-08-19T00:47:18Z</time>
      </trkpt>
      <trkpt lat="42.296203" lon="3.197944">
        <ele>209</ele>
        <time>2019-08-19T00:47:19Z</time>
      </trkpt>
      <trkpt lat="42.296275" lon="3.197774">
        <ele>209</ele>
        <time>2019-08-19T00:47:20Z</time>
      </trkpt>
      <trkpt lat="42.296269" lon="3.197689">
        <ele>209</ele>
        <time>2019-08-19T00:47:21Z</time>
      </trkpt>
      <trkpt lat="42.296262" lon="3.197603">
        <ele>209</ele>
        <time>2019-08-19T00:47:22Z</time>
      </trkpt>
      <trkpt lat="42.296256" lon="3.197518">
        <ele>209</ele>
        <time>2019-08-19T00:47:23Z</time>
      </trkpt>
      <trkpt lat="42.29625" lon="3.197433">
        <ele>209</ele>
        <time>2019-08-19T00:47:24Z</time>
      </trkpt>
      <trkpt lat="42.296244" lon="3.197348">
        <ele>209</ele>
        <time>2019-08-19T00:47:25Z</time>
      </trkpt>
      <trkpt lat="42.296238" lon="3.197263">
        <ele>209</ele>
        <time>2019-08-19T00:47:26Z</time>
      </trkpt>
      <trkpt lat="42.296231" lon="3.197177">
        <ele>209</ele>
        <time>2019-08-19T00:47:27Z</time>
      </trkpt>
      <trkpt lat="42.296225" lon="3.197092">
        <ele>209</ele>
        <time>2019-08-19T00:47:28Z</time>
      </trkpt>
      <trkpt lat="42.296219" lon="3.197007">
        <ele>205</ele>
        <time>2019-08-19T00:47:29Z</time>
      </trkpt>
      <trkpt lat="42.296153" lon="3.196909">
        <ele>205</ele>
        <time>2019-08-19T00:47:30Z</time>
      </trkpt>
      <trkpt lat="42.296107" lon="3.196781">
        <ele>205</ele>
        <time>2019-08-19T00:47:31Z</time>
      </trkpt>
      <trkpt lat="42.29607" lon="3.196649">
        <ele>205</ele>
        <time>2019-08-19T00:47:32Z</time>
      </trkpt>
      <trkpt lat="42.296036" lon="3.196521">
        <ele>205</ele>
        <time>2019-08-19T00:47:33Z</time>
      </trkpt>
      <trkpt lat="42.295995" lon="3.196405">
        <ele>205</ele>
        <time>2019-08-19T00:47:34Z</time>
      </trkpt>
      <trkpt lat="42.295936" lon="3.196304">
        <ele>205</ele>
        <time>2019-08-19T00:47:35Z</time>
      </trkpt>
      <trkpt lat="42.295861" lon="3.19622">
        <ele>205</ele>
        <time>2019-08-19T00:47:36Z</time>
      </trkpt>
      <trkpt lat="42.295774" lon="3.196149">
        <ele>205</ele>
        <time>2019-08-19T00:47:37Z</time>
      </trkpt>
      <trkpt lat="42.295679" lon="3.196087">
        <ele>205</ele>
        <time>2019-08-19T00:47:38Z</time>
      </trkpt>
      <trkpt lat="42.295579" lon="3.196027">
        <ele>196</ele>
        <time>2019-08-19T00:47:39Z</time>
      </trkpt>
      <trkpt lat="42.295478" lon="3.195967">
        <ele>196</ele>
        <time>2019-08-19T00:47:40Z</time>
      </trkpt>
      <trkpt lat="42.295374" lon="3.195907">
        <ele>196</ele>
        <time>2019-08-19T00:47:41Z</time>
      </trkpt>
      <trkpt lat="42.295269" lon="3.195845">
        <ele>196</ele>
        <time>2019-08-19T00:47:42Z</time>
      </trkpt>
      <trkpt lat="42.295163" lon="3.195781">
        <ele>196</ele>
        <time>2019-08-19T00:47:43Z</time>
      </trkpt>
      <trkpt lat="42.295055" lon="3.195716">
        <ele>196</ele>
        <time>2019-08-19T00:47:44Z</time>
      </trkpt>
      <trkpt lat="42.294948" lon="3.195645">
        <ele>196</ele>
        <time>2019-08-19T00:47:45Z</time>
      </trkpt>
      <trkpt lat="42.294846" lon="3.19556">
        <ele>196</ele>
        <time>2019-08-19T00:47:46Z</time>
      </trkpt>
      <trkpt lat="42.29475" lon="3.19546">
        <ele>196</ele>
        <time>2019-08-19T00:47:47Z</time>
      </trkpt>
      <trkpt lat="42.294619" lon="3.195288">
        <ele>196</ele>
        <time>2019-08-19T00:47:48Z</time>
      </trkpt>
      <trkpt lat="42.294576" lon="3.195228">
        <ele>190</ele>
        <time>2019-08-19T00:47:49Z</time>
      </trkpt>
      <trkpt lat="42.294491" lon="3.195109">
        <ele>190</ele>
        <time>2019-08-19T00:47:50Z</time>
      </trkpt>
      <trkpt lat="42.294406" lon="3.194989">
        <ele>190</ele>
        <time>2019-08-19T00:47:51Z</time>
      </trkpt>
      <trkpt lat="42.294324" lon="3.194879">
        <ele>190</ele>
        <time>2019-08-19T00:47:52Z</time>
      </trkpt>
      <trkpt lat="42.29425" lon="3.194777">
        <ele>190</ele>
        <time>2019-08-19T00:47:53Z</time>
      </trkpt>
      <trkpt lat="42.294179" lon="3.194682">
        <ele>190</ele>
        <time>2019-08-19T00:47:54Z</time>
      </trkpt>
      <trkpt lat="42.294106" lon="3.194587">
        <ele>190</ele>
        <time>2019-08-19T00:47:55Z</time>
      </trkpt>
      <trkpt lat="42.294039" lon="3.194492">
        <ele>190</ele>
        <time>2019-08-19T00:47:56Z</time>
      </trkpt>
      <trkpt lat="42.293982" lon="3.194387">
        <ele>190</ele>
        <time>2019-08-19T00:47:57Z</time>
      </trkpt>
      <trkpt lat="42.293918" lon="3.194175">
        <ele>190</ele>
        <time>2019-08-19T00:47:58Z</time>
      </trkpt>
      <trkpt lat="42.293899" lon="3.194084">
        <ele>190</ele>
        <time>2019-08-19T00:47:59Z</time>
      </trkpt>
      <trkpt lat="42.29388" lon="3.193994">
        <ele>182</ele>
        <time>2019-08-19T00:48:00Z</time>
      </trkpt>
      <trkpt lat="42.293893" lon="3.193757">
        <ele>182</ele>
        <time>2019-08-19T00:48:01Z</time>
      </trkpt>
      <trkpt lat="42.293929" lon="3.193657">
        <ele>182</ele>
        <time>2019-08-19T00:48:02Z</time>
      </trkpt>
      <trkpt lat="42.293964" lon="3.193556">
        <ele>182</ele>
        <time>2019-08-19T00:48:03Z</time>
      </trkpt>
      <trkpt lat="42.294" lon="3.193456">
        <ele>182</ele>
        <time>2019-08-19T00:48:04Z</time>
      </trkpt>
      <trkpt lat="42.294036" lon="3.193356">
        <ele>182</ele>
        <time>2019-08-19T00:48:05Z</time>
      </trkpt>
      <trkpt lat="42.294072" lon="3.193256">
        <ele>182</ele>
        <time>2019-08-19T00:48:06Z</time>
      </trkpt>
      <trkpt lat="42.294107" lon="3.193155">
        <ele>182</ele>
        <time>2019-08-19T00:48:07Z</time>
      </trkpt>
      <trkpt lat="42.294143" lon="3.193055">
        <ele>182</ele>
        <time>2019-08-19T00:48:08Z</time>
      </trkpt>
      <trkpt lat="42.294179" lon="3.192955">
        <ele>175</ele>
        <time>2019-08-19T00:48:09Z</time>
      </trkpt>
      <trkpt lat="42.294263" lon="3.1929">
        <ele>175</ele>
        <time>2019-08-19T00:48:10Z</time>
      </trkpt>
      <trkpt lat="42.294357" lon="3.192869">
        <ele>175</ele>
        <time>2019-08-19T00:48:11Z</time>
      </trkpt>
      <trkpt lat="42.294454" lon="3.192847">
        <ele>175</ele>
        <time>2019-08-19T00:48:12Z</time>
      </trkpt>
      <trkpt lat="42.294554" lon="3.192824">
        <ele>175</ele>
        <time>2019-08-19T00:48:13Z</time>
      </trkpt>
      <trkpt lat="42.294655" lon="3.192796">
        <ele>175</ele>
        <time>2019-08-19T00:48:14Z</time>
      </trkpt>
      <trkpt lat="42.294757" lon="3.192767">
        <ele>175</ele>
        <time>2019-08-19T00:48:15Z</time>
      </trkpt>
      <trkpt lat="42.294862" lon="3.192736">
        <ele>175</ele>
        <time>2019-08-19T00:48:16Z</time>
      </trkpt>
      <trkpt lat="42.29497" lon="3.192705">
        <ele>175</ele>
        <time>2019-08-19T00:48:17Z</time>
      </trkpt>
      <trkpt lat="42.295135" lon="3.192658">
        <ele>175</ele>
        <time>2019-08-19T00:48:18Z</time>
      </trkpt>
      <trkpt lat="42.295191" lon="3.192643">
        <ele>168</ele>
        <time>2019-08-19T00:48:19Z</time>
      </trkpt>
      <trkpt lat="42.295302" lon="3.192613">
        <ele>168</ele>
        <time>2019-08-19T00:48:20Z</time>
      </trkpt>
      <trkpt lat="42.295418" lon="3.192601">
        <ele>168</ele>
        <time>2019-08-19T00:48:21Z</time>
      </trkpt>
      <trkpt lat="42.295535" lon="3.192602">
        <ele>168</ele>
        <time>2019-08-19T00:48:22Z</time>
      </trkpt>
      <trkpt lat="42.295652" lon="3.19261">
        <ele>168</ele>
        <time>2019-08-19T00:48:23Z</time>
      </trkpt>
      <trkpt lat="42.29577" lon="3.192618">
        <ele>168</ele>
        <time>2019-08-19T00:48:24Z</time>
      </trkpt>
      <trkpt lat="42.295888" lon="3.192626">
        <ele>168</ele>
        <time>2019-08-19T00:48:25Z</time>
      </trkpt>
      <trkpt lat="42.296003" lon="3.192634">
        <ele>168</ele>
        <time>2019-08-19T00:48:26Z</time>
      </trkpt>
      <trkpt lat="42.296109" lon="3.192645">
        <ele>168</ele>
        <time>2019-08-19T00:48:27Z</time>
      </trkpt>
      <trkpt lat="42.296255" lon="3.192692">
        <ele>168</ele>
        <time>2019-08-19T00:48:28Z</time>
      </trkpt>
      <trkpt lat="42.2963" lon="3.192713">
        <ele>161</ele>
        <time>2019-08-19T00:48:29Z</time>
      </trkpt>
      <trkpt lat="42.296397" lon="3.192698">
        <ele>161</ele>
        <time>2019-08-19T00:48:30Z</time>
      </trkpt>
      <trkpt lat="42.296405" lon="3.19264">
        <ele>161</ele>
        <time>2019-08-19T00:48:31Z</time>
      </trkpt>
      <trkpt lat="42.296412" lon="3.192582">
        <ele>161</ele>
        <time>2019-08-19T00:48:32Z</time>
      </trkpt>
      <trkpt lat="42.29642" lon="3.192524">
        <ele>161</ele>
        <time>2019-08-19T00:48:33Z</time>
      </trkpt>
      <trkpt lat="42.296428" lon="3.192466">
        <ele>161</ele>
        <time>2019-08-19T00:48:34Z</time>
      </trkpt>
      <trkpt lat="42.296436" lon="3.192408">
        <ele>161</ele>
        <time>2019-08-19T00:48:35Z</time>
      </trkpt>
      <trkpt lat="42.296444" lon="3.19235">
        <ele>161</ele>
        <time>2019-08-19T00:48:36Z</time>
      </trkpt>
      <trkpt lat="42.296451" lon="3.192292">
        <ele>161</ele>
        <time>2019-08-19T00:48:37Z</time>
      </trkpt>
      <trkpt lat="42.296459" lon="3.192234">
        <ele>161</ele>
        <time>2019-08-19T00:48:38Z</time>
      </trkpt>
      <trkpt lat="42.296467" lon="3.192176">
        <ele>157</ele>
        <time>2019-08-19T00:48:39Z</time>
      </trkpt>
      <trkpt lat="42.296406" lon="3.192089">
        <ele>157</ele>
        <time>2019-08-19T00:48:40Z</time>
      </trkpt>
      <trkpt lat="42.296338" lon="3.191988">
        <ele>157</ele>
        <time>2019-08-19T00:48:41Z</time>
      </trkpt>
      <trkpt lat="42.296268" lon="3.191881">
        <ele>157</ele>
        <time>2019-08-19T00:48:42Z</time>
      </trkpt>
      <trkpt lat="42.296197" lon="3.191768">
        <ele>157</ele>
        <time>2019-08-19T00:48:43Z</time>
      </trkpt>
      <trkpt lat="42.296126" lon="3.191653">
        <ele>157</ele>
        <time>2019-08-19T00:48:44Z</time>
      </trkpt>
      <trkpt lat="42.296057" lon="3.191535">
        <ele>157</ele>
        <time>2019-08-19T00:48:45Z</time>
      </trkpt>
      <trkpt lat="42.295983" lon="3.191417">
        <ele>157</ele>
        <time>2019-08-19T00:48:46Z</time>
      </trkpt>
      <trkpt lat="42.295899" lon="3.191302">
        <ele>157</ele>
        <time>2019-08-19T00:48:47Z</time>
      </trkpt>
      <trkpt lat="42.295764" lon="3.19114">
        <ele>157</ele>
        <time>2019-08-19T00:48:48Z</time>
      </trkpt>
      <trkpt lat="42.295717" lon="3.191089">
        <ele>150</ele>
        <time>2019-08-19T00:48:49Z</time>
      </trkpt>
      <trkpt lat="42.295624" lon="3.190986">
        <ele>150</ele>
        <time>2019-08-19T00:48:50Z</time>
      </trkpt>
      <trkpt lat="42.295537" lon="3.190889">
        <ele>150</ele>
        <time>2019-08-19T00:48:51Z</time>
      </trkpt>
      <trkpt lat="42.295461" lon="3.190783">
        <ele>150</ele>
        <time>2019-08-19T00:48:52Z</time>
      </trkpt>
      <trkpt lat="42.295396" lon="3.190658">
        <ele>150</ele>
        <time>2019-08-19T00:48:53Z</time>
      </trkpt>
      <trkpt lat="42.295343" lon="3.190518">
        <ele>150</ele>
        <time>2019-08-19T00:48:54Z</time>
      </trkpt>
      <trkpt lat="42.295298" lon="3.19037">
        <ele>150</ele>
        <time>2019-08-19T00:48:55Z</time>
      </trkpt>
      <trkpt lat="42.295256" lon="3.190215">
        <ele>150</ele>
        <time>2019-08-19T00:48:56Z</time>
      </trkpt>
      <trkpt lat="42.295221" lon="3.190057">
        <ele>150</ele>
        <time>2019-08-19T00:48:57Z</time>
      </trkpt>
      <trkpt lat="42.295183" lon="3.189821">
        <ele>150</ele>
        <time>2019-08-19T00:48:58Z</time>
      </trkpt>
      <trkpt lat="42.295175" lon="3.189748">
        <ele>141</ele>
        <time>2019-08-19T00:48:59Z</time>
      </trkpt>
      <trkpt lat="42.295158" lon="3.189602">
        <ele>141</ele>
        <time>2019-08-19T00:49:00Z</time>
      </trkpt>
      <trkpt lat="42.295158" lon="3.189469">
        <ele>141</ele>
        <time>2019-08-19T00:49:01Z</time>
      </trkpt>
      <trkpt lat="42.295179" lon="3.189348">
        <ele>141</ele>
        <time>2019-08-19T00:49:02Z</time>
      </trkpt>
      <trkpt lat="42.295223" lon="3.189237">
        <ele>141</ele>
        <time>2019-08-19T00:49:03Z</time>
      </trkpt>
      <trkpt lat="42.295288" lon="3.18914">
        <ele>141</ele>
        <time>2019-08-19T00:49:04Z</time>
      </trkpt>
      <trkpt lat="42.295368" lon="3.189062">
        <ele>141</ele>
        <time>2019-08-19T00:49:05Z</time>
      </trkpt>
      <trkpt lat="42.295457" lon="3.188994">
        <ele>141</ele>
        <time>2019-08-19T00:49:06Z</time>
      </trkpt>
      <trkpt lat="42.29555" lon="3.188932">
        <ele>141</ele>
        <time>2019-08-19T00:49:07Z</time>
      </trkpt>
      <trkpt lat="42.295644" lon="3.188869">
        <ele>141</ele>
        <time>2019-08-19T00:49:08Z</time>
      </trkpt>
      <trkpt lat="42.29573" lon="3.188804">
        <ele>134</ele>
        <time>2019-08-19T00:49:09Z</time>
      </trkpt>
      <trkpt lat="42.295789" lon="3.188673">
        <ele>134</ele>
        <time>2019-08-19T00:49:10Z</time>
      </trkpt>
      <trkpt lat="42.295764" lon="3.188607">
        <ele>134</ele>
        <time>2019-08-19T00:49:11Z</time>
      </trkpt>
      <trkpt lat="42.295738" lon="3.188542">
        <ele>134</ele>
        <time>2019-08-19T00:49:12Z</time>
      </trkpt>
      <trkpt lat="42.295713" lon="3.188476">
        <ele>134</ele>
        <time>2019-08-19T00:49:13Z</time>
      </trkpt>
      <trkpt lat="42.295687" lon="3.188411">
        <ele>134</ele>
        <time>2019-08-19T00:49:14Z</time>
      </trkpt>
      <trkpt lat="42.295661" lon="3.188346">
        <ele>134</ele>
        <time>2019-08-19T00:49:15Z</time>
      </trkpt>
      <trkpt lat="42.295636" lon="3.18828">
        <ele>134</ele>
        <time>2019-08-19T00:49:16Z</time>
      </trkpt>
      <trkpt lat="42.29561" lon="3.188215">
        <ele>134</ele>
        <time>2019-08-19T00:49:17Z</time>
      </trkpt>
      <trkpt lat="42.295585" lon="3.188149">
        <ele>134</ele>
        <time>2019-08-19T00:49:18Z</time>
      </trkpt>
      <trkpt lat="42.295559" lon="3.188084">
        <ele>130</ele>
        <time>2019-08-19T00:49:19Z</time>
      </trkpt>
      <trkpt lat="42.295471" lon="3.188037">
        <ele>130</ele>
        <time>2019-08-19T00:49:20Z</time>
      </trkpt>
      <trkpt lat="42.295385" lon="3.187979">
        <ele>130</ele>
        <time>2019-08-19T00:49:21Z</time>
      </trkpt>
      <trkpt lat="42.295303" lon="3.187904">
        <ele>130</ele>
        <time>2019-08-19T00:49:22Z</time>
      </trkpt>
      <trkpt lat="42.295228" lon="3.187814">
        <ele>130</ele>
        <time>2019-08-19T00:49:23Z</time>
      </trkpt>
      <trkpt lat="42.295154" lon="3.187717">
        <ele>130</ele>
        <time>2019-08-19T00:49:24Z</time>
      </trkpt>
      <trkpt lat="42.295078" lon="3.187616">
        <ele>130</ele>
        <time>2019-08-19T00:49:25Z</time>
      </trkpt>
      <trkpt lat="42.295001" lon="3.187512">
        <ele>130</ele>
        <time>2019-08-19T00:49:26Z</time>
      </trkpt>
      <trkpt lat="42.294921" lon="3.187407">
        <ele>130</ele>
        <time>2019-08-19T00:49:27Z</time>
      </trkpt>
      <trkpt lat="42.294807" lon="3.187235">
        <ele>130</ele>
        <time>2019-08-19T00:49:28Z</time>
      </trkpt>
      <trkpt lat="42.294773" lon="3.187172">
        <ele>123</ele>
        <time>2019-08-19T00:49:29Z</time>
      </trkpt>
      <trkpt lat="42.294706" lon="3.187047">
        <ele>123</ele>
        <time>2019-08-19T00:49:30Z</time>
      </trkpt>
      <trkpt lat="42.294659" lon="3.18691">
        <ele>123</ele>
        <time>2019-08-19T00:49:31Z</time>
      </trkpt>
      <trkpt lat="42.294618" lon="3.18678">
        <ele>123</ele>
        <time>2019-08-19T00:49:32Z</time>
      </trkpt>
      <trkpt lat="42.294578" lon="3.186663">
        <ele>123</ele>
        <time>2019-08-19T00:49:33Z</time>
      </trkpt>
      <trkpt lat="42.294526" lon="3.186558">
        <ele>123</ele>
        <time>2019-08-19T00:49:34Z</time>
      </trkpt>
      <trkpt lat="42.294457" lon="3.186467">
        <ele>123</ele>
        <time>2019-08-19T00:49:35Z</time>
      </trkpt>
      <trkpt lat="42.294373" lon="3.186395">
        <ele>123</ele>
        <time>2019-08-19T00:49:36Z</time>
      </trkpt>
      <trkpt lat="42.294278" lon="3.186344">
        <ele>123</ele>
        <time>2019-08-19T00:49:37Z</time>
      </trkpt>
      <trkpt lat="42.294176" lon="3.186307">
        <ele>123</ele>
        <time>2019-08-19T00:49:38Z</time>
      </trkpt>
      <trkpt lat="42.29408" lon="3.186266">
        <ele>115</ele>
        <time>2019-08-19T00:49:39Z</time>
      </trkpt>
      <trkpt lat="42.293926" lon="3.186159">
        <ele>115</ele>
        <time>2019-08-19T00:49:40Z</time>
      </trkpt>
      <trkpt lat="42.293869" lon="3.186094">
        <ele>115</ele>
        <time>2019-08-19T00:49:41Z</time>
      </trkpt>
      <trkpt lat="42.293811" lon="3.186028">
        <ele>115</ele>
        <time>2019-08-19T00:49:42Z</time>
      </trkpt>
      <trkpt lat="42.293753" lon="3.185963">
        <ele>115</ele>
        <time>2019-08-19T00:49:43Z</time>
      </trkpt>
      <trkpt lat="42.293696" lon="3.185897">
        <ele>115</ele>
        <time>2019-08-19T00:49:44Z</time>
      </trkpt>
      <trkpt lat="42.293638" lon="3.185831">
        <ele>115</ele>
        <time>2019-08-19T00:49:45Z</time>
      </trkpt>
      <trkpt lat="42.29358" lon="3.185766">
        <ele>115</ele>
        <time>2019-08-19T00:49:46Z</time>
      </trkpt>
      <trkpt lat="42.293522" lon="3.1857">
        <ele>115</ele>
        <time>2019-08-19T00:49:47Z</time>
      </trkpt>
      <trkpt lat="42.293465" lon="3.185635">
        <ele>115</ele>
        <time>2019-08-19T00:49:48Z</time>
      </trkpt>
      <trkpt lat="42.293407" lon="3.185569">
        <ele>109</ele>
        <time>2019-08-19T00:49:49Z</time>
      </trkpt>
      <trkpt lat="42.293308" lon="3.185569">
        <ele>109</ele>
        <time>2019-08-19T00:49:50Z</time>
      </trkpt>
      <trkpt lat="42.293206" lon="3.185557">
        <ele>109</ele>
        <time>2019-08-19T00:49:51Z</time>
      </trkpt>
      <trkpt lat="42.293103" lon="3.18553">
        <ele>109</ele>
        <time>2019-08-19T00:49:52Z</time>
      </trkpt>
      <trkpt lat="42.293002" lon="3.185487">
        <ele>109</ele>
        <time>2019-08-19T00:49:53Z</time>
      </trkpt>
      <trkpt lat="42.292904" lon="3.185428">
        <ele>109</ele>
        <time>2019-08-19T00:49:54Z</time>
      </trkpt>
      <trkpt lat="42.292808" lon="3.185357">
        <ele>109</ele>
        <time>2019-08-19T00:49:55Z</time>
      </trkpt>
      <trkpt lat="42.292712" lon="3.185277">
        <ele>109</ele>
        <time>2019-08-19T00:49:56Z</time>
      </trkpt>
      <trkpt lat="42.292616" lon="3.185196">
        <ele>109</ele>
        <time>2019-08-19T00:49:57Z</time>
      </trkpt>
      <trkpt lat="42.292468" lon="3.185076">
        <ele>109</ele>
        <time>2019-08-19T00:49:58Z</time>
      </trkpt>
      <trkpt lat="42.292419" lon="3.185036">
        <ele>103</ele>
        <time>2019-08-19T00:49:59Z</time>
      </trkpt>
      <trkpt lat="42.29232" lon="3.184955">
        <ele>103</ele>
        <time>2019-08-19T00:50:00Z</time>
      </trkpt>
      <trkpt lat="42.292234" lon="3.184868">
        <ele>103</ele>
        <time>2019-08-19T00:50:01Z</time>
      </trkpt>
      <trkpt lat="42.292163" lon="3.184777">
        <ele>103</ele>
        <time>2019-08-19T00:50:02Z</time>
      </trkpt>
      <trkpt lat="42.292094" lon="3.184696">
        <ele>103</ele>
        <time>2019-08-19T00:50:03Z</time>
      </trkpt>
      <trkpt lat="42.292014" lon="3.184637">
        <ele>103</ele>
        <time>2019-08-19T00:50:04Z</time>
      </trkpt>
      <trkpt lat="42.291925" lon="3.184601">
        <ele>103</ele>
        <time>2019-08-19T00:50:05Z</time>
      </trkpt>
      <trkpt lat="42.29183" lon="3.184589">
        <ele>103</ele>
        <time>2019-08-19T00:50:06Z</time>
      </trkpt>
      <trkpt lat="42.291734" lon="3.184597">
        <ele>103</ele>
        <time>2019-08-19T00:50:07Z</time>
      </trkpt>
      <trkpt lat="42.291637" lon="3.184624">
        <ele>103</ele>
        <time>2019-08-19T00:50:08Z</time>
      </trkpt>
      <trkpt lat="42.291541" lon="3.184652">
        <ele>98</ele>
        <time>2019-08-19T00:50:09Z</time>
      </trkpt>
      <trkpt lat="42.291389" lon="3.184599">
        <ele>98</ele>
        <time>2019-08-19T00:50:10Z</time>
      </trkpt>
      <trkpt lat="42.291333" lon="3.184519">
        <ele>98</ele>
        <time>2019-08-19T00:50:11Z</time>
      </trkpt>
      <trkpt lat="42.291278" lon="3.184438">
        <ele>98</ele>
        <time>2019-08-19T00:50:12Z</time>
      </trkpt>
      <trkpt lat="42.291222" lon="3.184357">
        <ele>98</ele>
        <time>2019-08-19T00:50:13Z</time>
      </trkpt>
      <trkpt lat="42.291166" lon="3.184276">
        <ele>98</ele>
        <time>2019-08-19T00:50:14Z</time>
      </trkpt>
      <trkpt lat="42.29111" lon="3.184196">
        <ele>98</ele>
        <time>2019-08-19T00:50:15Z</time>
      </trkpt>
      <trkpt lat="42.291054" lon="3.184115">
        <ele>98</ele>
        <time>2019-08-19T00:50:16Z</time>
      </trkpt>
      <trkpt lat="42.290999" lon="3.184034">
        <ele>98</ele>
        <time>2019-08-19T00:50:17Z</time>
      </trkpt>
      <trkpt lat="42.290943" lon="3.183954">
        <ele>98</ele>
        <time>2019-08-19T00:50:18Z</time>
      </trkpt>
      <trkpt lat="42.290887" lon="3.183873">
        <ele>91</ele>
        <time>2019-08-19T00:50:19Z</time>
      </trkpt>
      <trkpt lat="42.290843" lon="3.183742">
        <ele>91</ele>
        <time>2019-08-19T00:50:20Z</time>
      </trkpt>
      <trkpt lat="42.2908" lon="3.183625">
        <ele>91</ele>
        <time>2019-08-19T00:50:21Z</time>
      </trkpt>
      <trkpt lat="42.290745" lon="3.183525">
        <ele>91</ele>
        <time>2019-08-19T00:50:22Z</time>
      </trkpt>
      <trkpt lat="42.290672" lon="3.183446">
        <ele>91</ele>
        <time>2019-08-19T00:50:23Z</time>
      </trkpt>
      <trkpt lat="42.290582" lon="3.18339">
        <ele>91</ele>
        <time>2019-08-19T00:50:24Z</time>
      </trkpt>
      <trkpt lat="42.290485" lon="3.183356">
        <ele>91</ele>
        <time>2019-08-19T00:50:25Z</time>
      </trkpt>
      <trkpt lat="42.290383" lon="3.183335">
        <ele>91</ele>
        <time>2019-08-19T00:50:26Z</time>
      </trkpt>
      <trkpt lat="42.290277" lon="3.18332">
        <ele>91</ele>
        <time>2019-08-19T00:50:27Z</time>
      </trkpt>
      <trkpt lat="42.290169" lon="3.183309">
        <ele>91</ele>
        <time>2019-08-19T00:50:28Z</time>
      </trkpt>
      <trkpt lat="42.290058" lon="3.183298">
        <ele>84</ele>
        <time>2019-08-19T00:50:29Z</time>
      </trkpt>
      <trkpt lat="42.289884" lon="3.183251">
        <ele>84</ele>
        <time>2019-08-19T00:50:30Z</time>
      </trkpt>
      <trkpt lat="42.289822" lon="3.183214">
        <ele>84</ele>
        <time>2019-08-19T00:50:31Z</time>
      </trkpt>
      <trkpt lat="42.28976" lon="3.183178">
        <ele>84</ele>
        <time>2019-08-19T00:50:32Z</time>
      </trkpt>
      <trkpt lat="42.289698" lon="3.183142">
        <ele>84</ele>
        <time>2019-08-19T00:50:33Z</time>
      </trkpt>
      <trkpt lat="42.289636" lon="3.183105">
        <ele>84</ele>
        <time>2019-08-19T00:50:34Z</time>
      </trkpt>
      <trkpt lat="42.289574" lon="3.183069">
        <ele>84</ele>
        <time>2019-08-19T00:50:35Z</time>
      </trkpt>
      <trkpt lat="42.289512" lon="3.183033">
        <ele>84</ele>
        <time>2019-08-19T00:50:36Z</time>
      </trkpt>
      <trkpt lat="42.28945" lon="3.182997">
        <ele>84</ele>
        <time>2019-08-19T00:50:37Z</time>
      </trkpt>
      <trkpt lat="42.289388" lon="3.18296">
        <ele>84</ele>
        <time>2019-08-19T00:50:38Z</time>
      </trkpt>
      <trkpt lat="42.289326" lon="3.182924">
        <ele>78</ele>
        <time>2019-08-19T00:50:39Z</time>
      </trkpt>
      <trkpt lat="42.289308" lon="3.182741">
        <ele>78</ele>
        <time>2019-08-19T00:50:40Z</time>
      </trkpt>
      <trkpt lat="42.289291" lon="3.18266">
        <ele>78</ele>
        <time>2019-08-19T00:50:41Z</time>
      </trkpt>
      <trkpt lat="42.289274" lon="3.18258">
        <ele>78</ele>
        <time>2019-08-19T00:50:42Z</time>
      </trkpt>
      <trkpt lat="42.289257" lon="3.182499">
        <ele>78</ele>
        <time>2019-08-19T00:50:43Z</time>
      </trkpt>
      <trkpt lat="42.28924" lon="3.182418">
        <ele>78</ele>
        <time>2019-08-19T00:50:44Z</time>
      </trkpt>
      <trkpt lat="42.289222" lon="3.182337">
        <ele>78</ele>
        <time>2019-08-19T00:50:45Z</time>
      </trkpt>
      <trkpt lat="42.289205" lon="3.182256">
        <ele>78</ele>
        <time>2019-08-19T00:50:46Z</time>
      </trkpt>
      <trkpt lat="42.289188" lon="3.182176">
        <ele>78</ele>
        <time>2019-08-19T00:50:47Z</time>
      </trkpt>
      <trkpt lat="42.289171" lon="3.182095">
        <ele>78</ele>
        <time>2019-08-19T00:50:48Z</time>
      </trkpt>
      <trkpt lat="42.289154" lon="3.182014">
        <ele>72</ele>
        <time>2019-08-19T00:50:49Z</time>
      </trkpt>
      <trkpt lat="42.289071" lon="3.181962">
        <ele>72</ele>
        <time>2019-08-19T00:50:50Z</time>
      </trkpt>
      <trkpt lat="42.288985" lon="3.181909">
        <ele>72</ele>
        <time>2019-08-19T00:50:51Z</time>
      </trkpt>
      <trkpt lat="42.288898" lon="3.181849">
        <ele>72</ele>
        <time>2019-08-19T00:50:52Z</time>
      </trkpt>
      <trkpt lat="42.288812" lon="3.181777">
        <ele>72</ele>
        <time>2019-08-19T00:50:53Z</time>
      </trkpt>
      <trkpt lat="42.288732" lon="3.181691">
        <ele>72</ele>
        <time>2019-08-19T00:50:54Z</time>
      </trkpt>
      <trkpt lat="42.288657" lon="3.181588">
        <ele>72</ele>
        <time>2019-08-19T00:50:55Z</time>
      </trkpt>
      <trkpt lat="42.288589" lon="3.181475">
        <ele>72</ele>
        <time>2019-08-19T00:50:56Z</time>
      </trkpt>
      <trkpt lat="42.288519" lon="3.18136">
        <ele>72</ele>
        <time>2019-08-19T00:50:57Z</time>
      </trkpt>
      <trkpt lat="42.288444" lon="3.181248">
        <ele>72</ele>
        <time>2019-08-19T00:50:58Z</time>
      </trkpt>
      <trkpt lat="42.288368" lon="3.181133">
        <ele>66</ele>
        <time>2019-08-19T00:50:59Z</time>
      </trkpt>
      <trkpt lat="42.288291" lon="3.181019">
        <ele>66</ele>
        <time>2019-08-19T00:51:00Z</time>
      </trkpt>
      <trkpt lat="42.288213" lon="3.180902">
        <ele>66</ele>
        <time>2019-08-19T00:51:01Z</time>
      </trkpt>
      <trkpt lat="42.288132" lon="3.180783">
        <ele>66</ele>
        <time>2019-08-19T00:51:02Z</time>
      </trkpt>
      <trkpt lat="42.288052" lon="3.180664">
        <ele>66</ele>
        <time>2019-08-19T00:51:03Z</time>
      </trkpt>
      <trkpt lat="42.28797" lon="3.180543">
        <ele>66</ele>
        <time>2019-08-19T00:51:04Z</time>
      </trkpt>
      <trkpt lat="42.287888" lon="3.180422">
        <ele>66</ele>
        <time>2019-08-19T00:51:05Z</time>
      </trkpt>
      <trkpt lat="42.287802" lon="3.180301">
        <ele>66</ele>
        <time>2019-08-19T00:51:06Z</time>
      </trkpt>
      <trkpt lat="42.287652" lon="3.180103">
        <ele>66</ele>
        <time>2019-08-19T00:51:07Z</time>
      </trkpt>
      <trkpt lat="42.287591" lon="3.180024">
        <ele>66</ele>
        <time>2019-08-19T00:51:08Z</time>
      </trkpt>
      <trkpt lat="42.287529" lon="3.179946">
        <ele>61</ele>
        <time>2019-08-19T00:51:09Z</time>
      </trkpt>
      <trkpt lat="42.287435" lon="3.179829">
        <ele>61</ele>
        <time>2019-08-19T00:51:10Z</time>
      </trkpt>
      <trkpt lat="42.28734" lon="3.179712">
        <ele>61</ele>
        <time>2019-08-19T00:51:11Z</time>
      </trkpt>
      <trkpt lat="42.287244" lon="3.179593">
        <ele>61</ele>
        <time>2019-08-19T00:51:12Z</time>
      </trkpt>
      <trkpt lat="42.287148" lon="3.179472">
        <ele>61</ele>
        <time>2019-08-19T00:51:13Z</time>
      </trkpt>
      <trkpt lat="42.287051" lon="3.179354">
        <ele>61</ele>
        <time>2019-08-19T00:51:14Z</time>
      </trkpt>
      <trkpt lat="42.286955" lon="3.179237">
        <ele>61</ele>
        <time>2019-08-19T00:51:15Z</time>
      </trkpt>
      <trkpt lat="42.286861" lon="3.179121">
        <ele>61</ele>
        <time>2019-08-19T00:51:16Z</time>
      </trkpt>
      <trkpt lat="42.286713" lon="3.178916">
        <ele>61</ele>
        <time>2019-08-19T00:51:17Z</time>
      </trkpt>
      <trkpt lat="42.286656" lon="3.178831">
        <ele>61</ele>
        <time>2019-08-19T00:51:18Z</time>
      </trkpt>
      <trkpt lat="42.286599" lon="3.178746">
        <ele>56</ele>
        <time>2019-08-19T00:51:19Z</time>
      </trkpt>
      <trkpt lat="42.286519" lon="3.178615">
        <ele>56</ele>
        <time>2019-08-19T00:51:20Z</time>
      </trkpt>
      <trkpt lat="42.286455" lon="3.17847">
        <ele>56</ele>
        <time>2019-08-19T00:51:21Z</time>
      </trkpt>
      <trkpt lat="42.286402" lon="3.178316">
        <ele>56</ele>
        <time>2019-08-19T00:51:22Z</time>
      </trkpt>
      <trkpt lat="42.28636" lon="3.178158">
        <ele>56</ele>
        <time>2019-08-19T00:51:23Z</time>
      </trkpt>
      <trkpt lat="42.286325" lon="3.177997">
        <ele>56</ele>
        <time>2019-08-19T00:51:24Z</time>
      </trkpt>
      <trkpt lat="42.286292" lon="3.177836">
        <ele>56</ele>
        <time>2019-08-19T00:51:25Z</time>
      </trkpt>
      <trkpt lat="42.286262" lon="3.177675">
        <ele>56</ele>
        <time>2019-08-19T00:51:26Z</time>
      </trkpt>
      <trkpt lat="42.286213" lon="3.177393">
        <ele>56</ele>
        <time>2019-08-19T00:51:27Z</time>
      </trkpt>
      <trkpt lat="42.286193" lon="3.177272">
        <ele>56</ele>
        <time>2019-08-19T00:51:28Z</time>
      </trkpt>
      <trkpt lat="42.286174" lon="3.177152">
        <ele>56</ele>
        <time>2019-08-19T00:51:29Z</time>
      </trkpt>
      <trkpt lat="42.286154" lon="3.177031">
        <ele>52</ele>
        <time>2019-08-19T00:51:30Z</time>
      </trkpt>
      <trkpt lat="42.286128" lon="3.176869">
        <ele>52</ele>
        <time>2019-08-19T00:51:31Z</time>
      </trkpt>
      <trkpt lat="42.286099" lon="3.176707">
        <ele>52</ele>
        <time>2019-08-19T00:51:32Z</time>
      </trkpt>
      <trkpt lat="42.286066" lon="3.176547">
        <ele>52</ele>
        <time>2019-08-19T00:51:33Z</time>
      </trkpt>
      <trkpt lat="42.286026" lon="3.176393">
        <ele>52</ele>
        <time>2019-08-19T00:51:34Z</time>
      </trkpt>
      <trkpt lat="42.285978" lon="3.176243">
        <ele>52</ele>
        <time>2019-08-19T00:51:35Z</time>
      </trkpt>
      <trkpt lat="42.285922" lon="3.176099">
        <ele>52</ele>
        <time>2019-08-19T00:51:36Z</time>
      </trkpt>
      <trkpt lat="42.28586" lon="3.17596">
        <ele>52</ele>
        <time>2019-08-19T00:51:37Z</time>
      </trkpt>
      <trkpt lat="42.285757" lon="3.175762">
        <ele>52</ele>
        <time>2019-08-19T00:51:38Z</time>
      </trkpt>
      <trkpt lat="42.285721" lon="3.175697">
        <ele>48</ele>
        <time>2019-08-19T00:51:39Z</time>
      </trkpt>
      <trkpt lat="42.285649" lon="3.175568">
        <ele>48</ele>
        <time>2019-08-19T00:51:40Z</time>
      </trkpt>
      <trkpt lat="42.285581" lon="3.175441">
        <ele>48</ele>
        <time>2019-08-19T00:51:41Z</time>
      </trkpt>
      <trkpt lat="42.285514" lon="3.175316">
        <ele>48</ele>
        <time>2019-08-19T00:51:42Z</time>
      </trkpt>
      <trkpt lat="42.285449" lon="3.175194">
        <ele>48</ele>
        <time>2019-08-19T00:51:43Z</time>
      </trkpt>
      <trkpt lat="42.285384" lon="3.175075">
        <ele>48</ele>
        <time>2019-08-19T00:51:44Z</time>
      </trkpt>
      <trkpt lat="42.28532" lon="3.174959">
        <ele>48</ele>
        <time>2019-08-19T00:51:45Z</time>
      </trkpt>
      <trkpt lat="42.285257" lon="3.174846">
        <ele>48</ele>
        <time>2019-08-19T00:51:46Z</time>
      </trkpt>
      <trkpt lat="42.285197" lon="3.174736">
        <ele>48</ele>
        <time>2019-08-19T00:51:47Z</time>
      </trkpt>
      <trkpt lat="42.28511" lon="3.174577">
        <ele>48</ele>
        <time>2019-08-19T00:51:48Z</time>
      </trkpt>
      <trkpt lat="42.285081" lon="3.174526">
        <ele>47</ele>
        <time>2019-08-19T00:51:49Z</time>
      </trkpt>
      <trkpt lat="42.284979" lon="3.174341">
        <ele>47</ele>
        <time>2019-08-19T00:51:50Z</time>
      </trkpt>
      <trkpt lat="42.284934" lon="3.174257">
        <ele>47</ele>
        <time>2019-08-19T00:51:51Z</time>
      </trkpt>
      <trkpt lat="42.28489" lon="3.174173">
        <ele>47</ele>
        <time>2019-08-19T00:51:52Z</time>
      </trkpt>
      <trkpt lat="42.284846" lon="3.174089">
        <ele>47</ele>
        <time>2019-08-19T00:51:53Z</time>
      </trkpt>
      <trkpt lat="42.284802" lon="3.174005">
        <ele>47</ele>
        <time>2019-08-19T00:51:54Z</time>
      </trkpt>
      <trkpt lat="42.284757" lon="3.173922">
        <ele>47</ele>
        <time>2019-08-19T00:51:55Z</time>
      </trkpt>
      <trkpt lat="42.284713" lon="3.173838">
        <ele>47</ele>
        <time>2019-08-19T00:51:56Z</time>
      </trkpt>
      <trkpt lat="42.284669" lon="3.173754">
        <ele>47</ele>
        <time>2019-08-19T00:51:57Z</time>
      </trkpt>
      <trkpt lat="42.284624" lon="3.17367">
        <ele>47</ele>
        <time>2019-08-19T00:51:58Z</time>
      </trkpt>
      <trkpt lat="42.28458" lon="3.173586">
        <ele>47</ele>
        <time>2019-08-19T00:51:59Z</time>
      </trkpt>
      <trkpt lat="42.284496" lon="3.173431">
        <ele>47</ele>
        <time>2019-08-19T00:52:00Z</time>
      </trkpt>
      <trkpt lat="42.284457" lon="3.173361">
        <ele>47</ele>
        <time>2019-08-19T00:52:01Z</time>
      </trkpt>
      <trkpt lat="42.284417" lon="3.173292">
        <ele>47</ele>
        <time>2019-08-19T00:52:02Z</time>
      </trkpt>
      <trkpt lat="42.284377" lon="3.173222">
        <ele>47</ele>
        <time>2019-08-19T00:52:03Z</time>
      </trkpt>
      <trkpt lat="42.284338" lon="3.173153">
        <ele>47</ele>
        <time>2019-08-19T00:52:04Z</time>
      </trkpt>
      <trkpt lat="42.284298" lon="3.173084">
        <ele>47</ele>
        <time>2019-08-19T00:52:05Z</time>
      </trkpt>
      <trkpt lat="42.284258" lon="3.173014">
        <ele>47</ele>
        <time>2019-08-19T00:52:06Z</time>
      </trkpt>
      <trkpt lat="42.284218" lon="3.172945">
        <ele>47</ele>
        <time>2019-08-19T00:52:07Z</time>
      </trkpt>
      <trkpt lat="42.284179" lon="3.172875">
        <ele>47</ele>
        <time>2019-08-19T00:52:08Z</time>
      </trkpt>
      <trkpt lat="42.284139" lon="3.172806">
        <ele>47</ele>
        <time>2019-08-19T00:52:09Z</time>
      </trkpt>
      <trkpt lat="42.284067" lon="3.172669">
        <ele>47</ele>
        <time>2019-08-19T00:52:10Z</time>
      </trkpt>
      <trkpt lat="42.284036" lon="3.172606">
        <ele>47</ele>
        <time>2019-08-19T00:52:11Z</time>
      </trkpt>
      <trkpt lat="42.284006" lon="3.172544">
        <ele>47</ele>
        <time>2019-08-19T00:52:12Z</time>
      </trkpt>
      <trkpt lat="42.283975" lon="3.172481">
        <ele>47</ele>
        <time>2019-08-19T00:52:13Z</time>
      </trkpt>
      <trkpt lat="42.283944" lon="3.172418">
        <ele>47</ele>
        <time>2019-08-19T00:52:14Z</time>
      </trkpt>
      <trkpt lat="42.283913" lon="3.172355">
        <ele>47</ele>
        <time>2019-08-19T00:52:15Z</time>
      </trkpt>
      <trkpt lat="42.283882" lon="3.172292">
        <ele>47</ele>
        <time>2019-08-19T00:52:16Z</time>
      </trkpt>
      <trkpt lat="42.283852" lon="3.17223">
        <ele>47</ele>
        <time>2019-08-19T00:52:17Z</time>
      </trkpt>
      <trkpt lat="42.283821" lon="3.172167">
        <ele>47</ele>
        <time>2019-08-19T00:52:18Z</time>
      </trkpt>
      <trkpt lat="42.28379" lon="3.172104">
        <ele>47</ele>
        <time>2019-08-19T00:52:19Z</time>
      </trkpt>
      <trkpt lat="42.283751" lon="3.172021">
        <ele>47</ele>
        <time>2019-08-19T00:52:20Z</time>
      </trkpt>
      <trkpt lat="42.283732" lon="3.171989">
        <ele>47</ele>
        <time>2019-08-19T00:52:21Z</time>
      </trkpt>
      <trkpt lat="42.283713" lon="3.171958">
        <ele>47</ele>
        <time>2019-08-19T00:52:26Z</time>
      </trkpt>
      <trkpt lat="42.283695" lon="3.171927">
        <ele>46</ele>
        <time>2019-08-19T00:52:40Z</time>
      </trkpt>
      <trkpt lat="42.283676" lon="3.171895">
        <ele>46</ele>
        <time>2019-08-19T00:52:41Z</time>
      </trkpt>
      <trkpt lat="42.283657" lon="3.171864">
        <ele>46</ele>
        <time>2019-08-19T00:52:42Z</time>
      </trkpt>
      <trkpt lat="42.283638" lon="3.171832">
        <ele>46</ele>
        <time>2019-08-19T00:52:43Z</time>
      </trkpt>
      <trkpt lat="42.283619" lon="3.171801">
        <ele>46</ele>
        <time>2019-08-19T00:52:44Z</time>
      </trkpt>
      <trkpt lat="42.2836" lon="3.17177">
        <ele>46</ele>
        <time>2019-08-19T00:52:45Z</time>
      </trkpt>
      <trkpt lat="42.283581" lon="3.171738">
        <ele>46</ele>
        <time>2019-08-19T00:52:46Z</time>
      </trkpt>
      <trkpt lat="42.283563" lon="3.171707">
        <ele>46</ele>
        <time>2019-08-19T00:52:47Z</time>
      </trkpt>
      <trkpt lat="42.283544" lon="3.171676">
        <ele>46</ele>
        <time>2019-08-19T00:52:48Z</time>
      </trkpt>
      <trkpt lat="42.283525" lon="3.171644">
        <ele>46</ele>
        <time>2019-08-19T00:52:49Z</time>
      </trkpt>
      <trkpt lat="42.283506" lon="3.171613">
        <ele>46</ele>
        <time>2019-08-19T00:52:50Z</time>
      </trkpt>
      <trkpt lat="42.283453" lon="3.171524">
        <ele>46</ele>
        <time>2019-08-19T00:52:51Z</time>
      </trkpt>
      <trkpt lat="42.283424" lon="3.171475">
        <ele>46</ele>
        <time>2019-08-19T00:52:52Z</time>
      </trkpt>
      <trkpt lat="42.283396" lon="3.171426">
        <ele>46</ele>
        <time>2019-08-19T00:52:53Z</time>
      </trkpt>
      <trkpt lat="42.283367" lon="3.171377">
        <ele>46</ele>
        <time>2019-08-19T00:52:54Z</time>
      </trkpt>
      <trkpt lat="42.283339" lon="3.171328">
        <ele>46</ele>
        <time>2019-08-19T00:52:55Z</time>
      </trkpt>
      <trkpt lat="42.28331" lon="3.171279">
        <ele>46</ele>
        <time>2019-08-19T00:52:56Z</time>
      </trkpt>
      <trkpt lat="42.283282" lon="3.17123">
        <ele>46</ele>
        <time>2019-08-19T00:52:57Z</time>
      </trkpt>
      <trkpt lat="42.283253" lon="3.171181">
        <ele>46</ele>
        <time>2019-08-19T00:52:58Z</time>
      </trkpt>
      <trkpt lat="42.283225" lon="3.171132">
        <ele>46</ele>
        <time>2019-08-19T00:52:59Z</time>
      </trkpt>
      <trkpt lat="42.283196" lon="3.171083">
        <ele>46</ele>
        <time>2019-08-19T00:53:00Z</time>
      </trkpt>
      <trkpt lat="42.283131" lon="3.170964">
        <ele>46</ele>
        <time>2019-08-19T00:53:01Z</time>
      </trkpt>
      <trkpt lat="42.283098" lon="3.170906">
        <ele>46</ele>
        <time>2019-08-19T00:53:02Z</time>
      </trkpt>
      <trkpt lat="42.283066" lon="3.170849">
        <ele>46</ele>
        <time>2019-08-19T00:53:03Z</time>
      </trkpt>
      <trkpt lat="42.283033" lon="3.170791">
        <ele>46</ele>
        <time>2019-08-19T00:53:04Z</time>
      </trkpt>
      <trkpt lat="42.283001" lon="3.170734">
        <ele>46</ele>
        <time>2019-08-19T00:53:05Z</time>
      </trkpt>
      <trkpt lat="42.282968" lon="3.170677">
        <ele>46</ele>
        <time>2019-08-19T00:53:06Z</time>
      </trkpt>
      <trkpt lat="42.282936" lon="3.170619">
        <ele>46</ele>
        <time>2019-08-19T00:53:07Z</time>
      </trkpt>
      <trkpt lat="42.282903" lon="3.170562">
        <ele>46</ele>
        <time>2019-08-19T00:53:08Z</time>
      </trkpt>
      <trkpt lat="42.282871" lon="3.170504">
        <ele>46</ele>
        <time>2019-08-19T00:53:09Z</time>
      </trkpt>
      <trkpt lat="42.282838" lon="3.170447">
        <ele>46</ele>
        <time>2019-08-19T00:53:10Z</time>
      </trkpt>
      <trkpt lat="42.282765" lon="3.170318">
        <ele>46</ele>
        <time>2019-08-19T00:53:11Z</time>
      </trkpt>
      <trkpt lat="42.28273" lon="3.170255">
        <ele>46</ele>
        <time>2019-08-19T00:53:12Z</time>
      </trkpt>
      <trkpt lat="42.282696" lon="3.170192">
        <ele>46</ele>
        <time>2019-08-19T00:53:13Z</time>
      </trkpt>
      <trkpt lat="42.282661" lon="3.170129">
        <ele>46</ele>
        <time>2019-08-19T00:53:14Z</time>
      </trkpt>
      <trkpt lat="42.282626" lon="3.170066">
        <ele>46</ele>
        <time>2019-08-19T00:53:15Z</time>
      </trkpt>
      <trkpt lat="42.282591" lon="3.170004">
        <ele>46</ele>
        <time>2019-08-19T00:53:16Z</time>
      </trkpt>
      <trkpt lat="42.282556" lon="3.169941">
        <ele>46</ele>
        <time>2019-08-19T00:53:17Z</time>
      </trkpt>
      <trkpt lat="42.282522" lon="3.169878">
        <ele>46</ele>
        <time>2019-08-19T00:53:18Z</time>
      </trkpt>
      <trkpt lat="42.282487" lon="3.169815">
        <ele>46</ele>
        <time>2019-08-19T00:53:19Z</time>
      </trkpt>
      <trkpt lat="42.282452" lon="3.169752">
        <ele>44</ele>
        <time>2019-08-19T00:53:20Z</time>
      </trkpt>
      <trkpt lat="42.282374" lon="3.169613">
        <ele>44</ele>
        <time>2019-08-19T00:53:21Z</time>
      </trkpt>
      <trkpt lat="42.282337" lon="3.169545">
        <ele>44</ele>
        <time>2019-08-19T00:53:22Z</time>
      </trkpt>
      <trkpt lat="42.282299" lon="3.169478">
        <ele>44</ele>
        <time>2019-08-19T00:53:23Z</time>
      </trkpt>
      <trkpt lat="42.282262" lon="3.169411">
        <ele>44</ele>
        <time>2019-08-19T00:53:24Z</time>
      </trkpt>
      <trkpt lat="42.282224" lon="3.169343">
        <ele>44</ele>
        <time>2019-08-19T00:53:25Z</time>
      </trkpt>
      <trkpt lat="42.282186" lon="3.169276">
        <ele>44</ele>
        <time>2019-08-19T00:53:26Z</time>
      </trkpt>
      <trkpt lat="42.282149" lon="3.169209">
        <ele>44</ele>
        <time>2019-08-19T00:53:27Z</time>
      </trkpt>
      <trkpt lat="42.282111" lon="3.169142">
        <ele>44</ele>
        <time>2019-08-19T00:53:28Z</time>
      </trkpt>
      <trkpt lat="42.282074" lon="3.169074">
        <ele>44</ele>
        <time>2019-08-19T00:53:29Z</time>
      </trkpt>
      <trkpt lat="42.282036" lon="3.169007">
        <ele>43</ele>
        <time>2019-08-19T00:53:30Z</time>
      </trkpt>
      <trkpt lat="42.281955" lon="3.168861">
        <ele>43</ele>
        <time>2019-08-19T00:53:31Z</time>
      </trkpt>
      <trkpt lat="42.281916" lon="3.16879">
        <ele>43</ele>
        <time>2019-08-19T00:53:32Z</time>
      </trkpt>
      <trkpt lat="42.281876" lon="3.16872">
        <ele>43</ele>
        <time>2019-08-19T00:53:33Z</time>
      </trkpt>
      <trkpt lat="42.281837" lon="3.168649">
        <ele>43</ele>
        <time>2019-08-19T00:53:34Z</time>
      </trkpt>
      <trkpt lat="42.281798" lon="3.168579">
        <ele>43</ele>
        <time>2019-08-19T00:53:35Z</time>
      </trkpt>
      <trkpt lat="42.281759" lon="3.168509">
        <ele>43</ele>
        <time>2019-08-19T00:53:36Z</time>
      </trkpt>
      <trkpt lat="42.28172" lon="3.168438">
        <ele>43</ele>
        <time>2019-08-19T00:53:37Z</time>
      </trkpt>
      <trkpt lat="42.28168" lon="3.168368">
        <ele>43</ele>
        <time>2019-08-19T00:53:38Z</time>
      </trkpt>
      <trkpt lat="42.281641" lon="3.168297">
        <ele>43</ele>
        <time>2019-08-19T00:53:39Z</time>
      </trkpt>
      <trkpt lat="42.281602" lon="3.168227">
        <ele>41</ele>
        <time>2019-08-19T00:53:40Z</time>
      </trkpt>
      <trkpt lat="42.281519" lon="3.168078">
        <ele>41</ele>
        <time>2019-08-19T00:53:41Z</time>
      </trkpt>
      <trkpt lat="42.281479" lon="3.168007">
        <ele>41</ele>
        <time>2019-08-19T00:53:42Z</time>
      </trkpt>
      <trkpt lat="42.28144" lon="3.167935">
        <ele>41</ele>
        <time>2019-08-19T00:53:43Z</time>
      </trkpt>
      <trkpt lat="42.2814" lon="3.167864">
        <ele>41</ele>
        <time>2019-08-19T00:53:44Z</time>
      </trkpt>
      <trkpt lat="42.281361" lon="3.167793">
        <ele>41</ele>
        <time>2019-08-19T00:53:45Z</time>
      </trkpt>
      <trkpt lat="42.281322" lon="3.167722">
        <ele>41</ele>
        <time>2019-08-19T00:53:46Z</time>
      </trkpt>
      <trkpt lat="42.281282" lon="3.167651">
        <ele>41</ele>
        <time>2019-08-19T00:53:47Z</time>
      </trkpt>
      <trkpt lat="42.281243" lon="3.167579">
        <ele>41</ele>
        <time>2019-08-19T00:53:48Z</time>
      </trkpt>
      <trkpt lat="42.281203" lon="3.167508">
        <ele>41</ele>
        <time>2019-08-19T00:53:49Z</time>
      </trkpt>
      <trkpt lat="42.281164" lon="3.167437">
        <ele>40</ele>
        <time>2019-08-19T00:53:50Z</time>
      </trkpt>
      <trkpt lat="42.28108" lon="3.167286">
        <ele>40</ele>
        <time>2019-08-19T00:53:51Z</time>
      </trkpt>
      <trkpt lat="42.28104" lon="3.167215">
        <ele>40</ele>
        <time>2019-08-19T00:53:52Z</time>
      </trkpt>
      <trkpt lat="42.281001" lon="3.167143">
        <ele>40</ele>
        <time>2019-08-19T00:53:53Z</time>
      </trkpt>
      <trkpt lat="42.280962" lon="3.167072">
        <ele>40</ele>
        <time>2019-08-19T00:53:54Z</time>
      </trkpt>
      <trkpt lat="42.280923" lon="3.167">
        <ele>40</ele>
        <time>2019-08-19T00:53:55Z</time>
      </trkpt>
      <trkpt lat="42.280883" lon="3.166928">
        <ele>40</ele>
        <time>2019-08-19T00:53:56Z</time>
      </trkpt>
      <trkpt lat="42.280844" lon="3.166857">
        <ele>40</ele>
        <time>2019-08-19T00:53:57Z</time>
      </trkpt>
      <trkpt lat="42.280805" lon="3.166785">
        <ele>40</ele>
        <time>2019-08-19T00:53:58Z</time>
      </trkpt>
      <trkpt lat="42.280765" lon="3.166714">
        <ele>40</ele>
        <time>2019-08-19T00:53:59Z</time>
      </trkpt>
      <trkpt lat="42.280726" lon="3.166642">
        <ele>36</ele>
        <time>2019-08-19T00:54:00Z</time>
      </trkpt>
      <trkpt lat="42.280636" lon="3.166484">
        <ele>36</ele>
        <time>2019-08-19T00:54:01Z</time>
      </trkpt>
      <trkpt lat="42.280595" lon="3.166411">
        <ele>36</ele>
        <time>2019-08-19T00:54:02Z</time>
      </trkpt>
      <trkpt lat="42.280553" lon="3.166337">
        <ele>36</ele>
        <time>2019-08-19T00:54:03Z</time>
      </trkpt>
      <trkpt lat="42.280511" lon="3.166264">
        <ele>36</ele>
        <time>2019-08-19T00:54:04Z</time>
      </trkpt>
      <trkpt lat="42.28047" lon="3.166191">
        <ele>36</ele>
        <time>2019-08-19T00:54:05Z</time>
      </trkpt>
      <trkpt lat="42.280428" lon="3.166118">
        <ele>36</ele>
        <time>2019-08-19T00:54:06Z</time>
      </trkpt>
      <trkpt lat="42.280386" lon="3.166045">
        <ele>36</ele>
        <time>2019-08-19T00:54:07Z</time>
      </trkpt>
      <trkpt lat="42.280344" lon="3.165971">
        <ele>36</ele>
        <time>2019-08-19T00:54:08Z</time>
      </trkpt>
      <trkpt lat="42.280303" lon="3.165898">
        <ele>36</ele>
        <time>2019-08-19T00:54:09Z</time>
      </trkpt>
      <trkpt lat="42.280261" lon="3.165825">
        <ele>36</ele>
        <time>2019-08-19T00:54:10Z</time>
      </trkpt>
      <trkpt lat="42.28017" lon="3.165665">
        <ele>36</ele>
        <time>2019-08-19T00:54:11Z</time>
      </trkpt>
      <trkpt lat="42.280129" lon="3.165589">
        <ele>36</ele>
        <time>2019-08-19T00:54:12Z</time>
      </trkpt>
      <trkpt lat="42.280087" lon="3.165514">
        <ele>36</ele>
        <time>2019-08-19T00:54:13Z</time>
      </trkpt>
      <trkpt lat="42.280046" lon="3.165438">
        <ele>36</ele>
        <time>2019-08-19T00:54:14Z</time>
      </trkpt>
      <trkpt lat="42.280004" lon="3.165363">
        <ele>36</ele>
        <time>2019-08-19T00:54:15Z</time>
      </trkpt>
      <trkpt lat="42.279962" lon="3.165288">
        <ele>36</ele>
        <time>2019-08-19T00:54:16Z</time>
      </trkpt>
      <trkpt lat="42.279921" lon="3.165212">
        <ele>36</ele>
        <time>2019-08-19T00:54:17Z</time>
      </trkpt>
      <trkpt lat="42.279879" lon="3.165137">
        <ele>36</ele>
        <time>2019-08-19T00:54:18Z</time>
      </trkpt>
      <trkpt lat="42.279838" lon="3.165061">
        <ele>36</ele>
        <time>2019-08-19T00:54:19Z</time>
      </trkpt>
      <trkpt lat="42.279796" lon="3.164986">
        <ele>35</ele>
        <time>2019-08-19T00:54:20Z</time>
      </trkpt>
      <trkpt lat="42.279708" lon="3.164826">
        <ele>35</ele>
        <time>2019-08-19T00:54:21Z</time>
      </trkpt>
      <trkpt lat="42.279666" lon="3.16475">
        <ele>35</ele>
        <time>2019-08-19T00:54:22Z</time>
      </trkpt>
      <trkpt lat="42.279623" lon="3.164673">
        <ele>35</ele>
        <time>2019-08-19T00:54:23Z</time>
      </trkpt>
      <trkpt lat="42.279581" lon="3.164596">
        <ele>35</ele>
        <time>2019-08-19T00:54:24Z</time>
      </trkpt>
      <trkpt lat="42.279539" lon="3.164519">
        <ele>35</ele>
        <time>2019-08-19T00:54:25Z</time>
      </trkpt>
      <trkpt lat="42.279497" lon="3.164443">
        <ele>35</ele>
        <time>2019-08-19T00:54:26Z</time>
      </trkpt>
      <trkpt lat="42.279455" lon="3.164366">
        <ele>35</ele>
        <time>2019-08-19T00:54:27Z</time>
      </trkpt>
      <trkpt lat="42.279412" lon="3.164289">
        <ele>35</ele>
        <time>2019-08-19T00:54:28Z</time>
      </trkpt>
      <trkpt lat="42.27937" lon="3.164213">
        <ele>35</ele>
        <time>2019-08-19T00:54:29Z</time>
      </trkpt>
      <trkpt lat="42.279328" lon="3.164136">
        <ele>34</ele>
        <time>2019-08-19T00:54:30Z</time>
      </trkpt>
      <trkpt lat="42.279238" lon="3.163975">
        <ele>34</ele>
        <time>2019-08-19T00:54:31Z</time>
      </trkpt>
      <trkpt lat="42.279197" lon="3.163899">
        <ele>34</ele>
        <time>2019-08-19T00:54:32Z</time>
      </trkpt>
      <trkpt lat="42.279155" lon="3.163823">
        <ele>34</ele>
        <time>2019-08-19T00:54:33Z</time>
      </trkpt>
      <trkpt lat="42.279114" lon="3.163747">
        <ele>34</ele>
        <time>2019-08-19T00:54:34Z</time>
      </trkpt>
      <trkpt lat="42.279072" lon="3.163671">
        <ele>34</ele>
        <time>2019-08-19T00:54:35Z</time>
      </trkpt>
      <trkpt lat="42.27903" lon="3.163595">
        <ele>34</ele>
        <time>2019-08-19T00:54:36Z</time>
      </trkpt>
      <trkpt lat="42.278989" lon="3.163519">
        <ele>34</ele>
        <time>2019-08-19T00:54:37Z</time>
      </trkpt>
      <trkpt lat="42.278947" lon="3.163443">
        <ele>34</ele>
        <time>2019-08-19T00:54:38Z</time>
      </trkpt>
      <trkpt lat="42.278906" lon="3.163367">
        <ele>34</ele>
        <time>2019-08-19T00:54:39Z</time>
      </trkpt>
      <trkpt lat="42.278864" lon="3.163291">
        <ele>31</ele>
        <time>2019-08-19T00:54:40Z</time>
      </trkpt>
      <trkpt lat="42.278774" lon="3.163129">
        <ele>31</ele>
        <time>2019-08-19T00:54:41Z</time>
      </trkpt>
      <trkpt lat="42.278731" lon="3.16305">
        <ele>31</ele>
        <time>2019-08-19T00:54:42Z</time>
      </trkpt>
      <trkpt lat="42.278689" lon="3.162972">
        <ele>31</ele>
        <time>2019-08-19T00:54:43Z</time>
      </trkpt>
      <trkpt lat="42.278646" lon="3.162893">
        <ele>31</ele>
        <time>2019-08-19T00:54:44Z</time>
      </trkpt>
      <trkpt lat="42.278604" lon="3.162815">
        <ele>31</ele>
        <time>2019-08-19T00:54:45Z</time>
      </trkpt>
      <trkpt lat="42.278561" lon="3.162737">
        <ele>31</ele>
        <time>2019-08-19T00:54:46Z</time>
      </trkpt>
      <trkpt lat="42.278519" lon="3.162658">
        <ele>31</ele>
        <time>2019-08-19T00:54:47Z</time>
      </trkpt>
      <trkpt lat="42.278476" lon="3.16258">
        <ele>31</ele>
        <time>2019-08-19T00:54:48Z</time>
      </trkpt>
      <trkpt lat="42.278434" lon="3.162501">
        <ele>31</ele>
        <time>2019-08-19T00:54:49Z</time>
      </trkpt>
      <trkpt lat="42.278391" lon="3.162423">
        <ele>31</ele>
        <time>2019-08-19T00:54:50Z</time>
      </trkpt>
      <trkpt lat="42.278298" lon="3.162253">
        <ele>31</ele>
        <time>2019-08-19T00:54:51Z</time>
      </trkpt>
      <trkpt lat="42.278253" lon="3.162172">
        <ele>31</ele>
        <time>2019-08-19T00:54:52Z</time>
      </trkpt>
      <trkpt lat="42.278209" lon="3.162091">
        <ele>31</ele>
        <time>2019-08-19T00:54:53Z</time>
      </trkpt>
      <trkpt lat="42.278164" lon="3.16201">
        <ele>31</ele>
        <time>2019-08-19T00:54:54Z</time>
      </trkpt>
      <trkpt lat="42.27812" lon="3.161929">
        <ele>31</ele>
        <time>2019-08-19T00:54:55Z</time>
      </trkpt>
      <trkpt lat="42.278076" lon="3.161849">
        <ele>31</ele>
        <time>2019-08-19T00:54:56Z</time>
      </trkpt>
      <trkpt lat="42.278031" lon="3.161768">
        <ele>31</ele>
        <time>2019-08-19T00:54:57Z</time>
      </trkpt>
      <trkpt lat="42.277987" lon="3.161687">
        <ele>31</ele>
        <time>2019-08-19T00:54:58Z</time>
      </trkpt>
      <trkpt lat="42.277942" lon="3.161606">
        <ele>31</ele>
        <time>2019-08-19T00:54:59Z</time>
      </trkpt>
      <trkpt lat="42.277898" lon="3.161525">
        <ele>31</ele>
        <time>2019-08-19T00:55:00Z</time>
      </trkpt>
      <trkpt lat="42.277806" lon="3.161361">
        <ele>31</ele>
        <time>2019-08-19T00:55:01Z</time>
      </trkpt>
      <trkpt lat="42.277765" lon="3.161285">
        <ele>31</ele>
        <time>2019-08-19T00:55:02Z</time>
      </trkpt>
      <trkpt lat="42.277723" lon="3.161208">
        <ele>31</ele>
        <time>2019-08-19T00:55:03Z</time>
      </trkpt>
      <trkpt lat="42.277681" lon="3.161132">
        <ele>31</ele>
        <time>2019-08-19T00:55:04Z</time>
      </trkpt>
      <trkpt lat="42.27764" lon="3.161056">
        <ele>31</ele>
        <time>2019-08-19T00:55:05Z</time>
      </trkpt>
      <trkpt lat="42.277598" lon="3.16098">
        <ele>31</ele>
        <time>2019-08-19T00:55:06Z</time>
      </trkpt>
      <trkpt lat="42.277556" lon="3.160904">
        <ele>31</ele>
        <time>2019-08-19T00:55:07Z</time>
      </trkpt>
      <trkpt lat="42.277514" lon="3.160827">
        <ele>31</ele>
        <time>2019-08-19T00:55:08Z</time>
      </trkpt>
      <trkpt lat="42.277473" lon="3.160751">
        <ele>31</ele>
        <time>2019-08-19T00:55:09Z</time>
      </trkpt>
      <trkpt lat="42.277431" lon="3.160675">
        <ele>31</ele>
        <time>2019-08-19T00:55:10Z</time>
      </trkpt>
      <trkpt lat="42.277345" lon="3.160513">
        <ele>31</ele>
        <time>2019-08-19T00:55:11Z</time>
      </trkpt>
      <trkpt lat="42.277303" lon="3.160436">
        <ele>31</ele>
        <time>2019-08-19T00:55:12Z</time>
      </trkpt>
      <trkpt lat="42.277262" lon="3.160359">
        <ele>31</ele>
        <time>2019-08-19T00:55:13Z</time>
      </trkpt>
      <trkpt lat="42.27722" lon="3.160282">
        <ele>31</ele>
        <time>2019-08-19T00:55:14Z</time>
      </trkpt>
      <trkpt lat="42.277179" lon="3.160205">
        <ele>31</ele>
        <time>2019-08-19T00:55:15Z</time>
      </trkpt>
      <trkpt lat="42.277138" lon="3.160129">
        <ele>31</ele>
        <time>2019-08-19T00:55:16Z</time>
      </trkpt>
      <trkpt lat="42.277096" lon="3.160052">
        <ele>31</ele>
        <time>2019-08-19T00:55:17Z</time>
      </trkpt>
      <trkpt lat="42.277055" lon="3.159975">
        <ele>31</ele>
        <time>2019-08-19T00:55:18Z</time>
      </trkpt>
      <trkpt lat="42.277013" lon="3.159898">
        <ele>31</ele>
        <time>2019-08-19T00:55:19Z</time>
      </trkpt>
      <trkpt lat="42.276972" lon="3.159821">
        <ele>30</ele>
        <time>2019-08-19T00:55:20Z</time>
      </trkpt>
      <trkpt lat="42.276914" lon="3.159672">
        <ele>30</ele>
        <time>2019-08-19T00:55:21Z</time>
      </trkpt>
      <trkpt lat="42.2769" lon="3.159612">
        <ele>30</ele>
        <time>2019-08-19T00:55:22Z</time>
      </trkpt>
      <trkpt lat="42.276886" lon="3.159551">
        <ele>30</ele>
        <time>2019-08-19T00:55:23Z</time>
      </trkpt>
      <trkpt lat="42.276872" lon="3.15949">
        <ele>30</ele>
        <time>2019-08-19T00:55:24Z</time>
      </trkpt>
      <trkpt lat="42.276859" lon="3.159429">
        <ele>30</ele>
        <time>2019-08-19T00:55:25Z</time>
      </trkpt>
      <trkpt lat="42.276845" lon="3.159369">
        <ele>30</ele>
        <time>2019-08-19T00:55:26Z</time>
      </trkpt>
      <trkpt lat="42.276831" lon="3.159308">
        <ele>30</ele>
        <time>2019-08-19T00:55:27Z</time>
      </trkpt>
      <trkpt lat="42.276817" lon="3.159247">
        <ele>30</ele>
        <time>2019-08-19T00:55:28Z</time>
      </trkpt>
      <trkpt lat="42.276803" lon="3.159187">
        <ele>30</ele>
        <time>2019-08-19T00:55:29Z</time>
      </trkpt>
      <trkpt lat="42.276789" lon="3.159126">
        <ele>27</ele>
        <time>2019-08-19T00:55:30Z</time>
      </trkpt>
      <trkpt lat="42.27675" lon="3.158996">
        <ele>27</ele>
        <time>2019-08-19T00:55:31Z</time>
      </trkpt>
      <trkpt lat="42.276705" lon="3.158948">
        <ele>27</ele>
        <time>2019-08-19T00:55:32Z</time>
      </trkpt>
      <trkpt lat="42.276661" lon="3.158901">
        <ele>27</ele>
        <time>2019-08-19T00:55:33Z</time>
      </trkpt>
      <trkpt lat="42.276616" lon="3.158853">
        <ele>27</ele>
        <time>2019-08-19T00:55:34Z</time>
      </trkpt>
      <trkpt lat="42.276572" lon="3.158805">
        <ele>27</ele>
        <time>2019-08-19T00:55:35Z</time>
      </trkpt>
      <trkpt lat="42.276528" lon="3.158757">
        <ele>27</ele>
        <time>2019-08-19T00:55:36Z</time>
      </trkpt>
      <trkpt lat="42.276483" lon="3.158709">
        <ele>27</ele>
        <time>2019-08-19T00:55:37Z</time>
      </trkpt>
      <trkpt lat="42.276439" lon="3.158662">
        <ele>27</ele>
        <time>2019-08-19T00:55:38Z</time>
      </trkpt>
      <trkpt lat="42.276394" lon="3.158614">
        <ele>27</ele>
        <time>2019-08-19T00:55:39Z</time>
      </trkpt>
      <trkpt lat="42.27635" lon="3.158566">
        <ele>26</ele>
        <time>2019-08-19T00:55:40Z</time>
      </trkpt>
      <trkpt lat="42.276245" lon="3.158441">
        <ele>26</ele>
        <time>2019-08-19T00:55:41Z</time>
      </trkpt>
      <trkpt lat="42.276201" lon="3.158369">
        <ele>26</ele>
        <time>2019-08-19T00:55:42Z</time>
      </trkpt>
      <trkpt lat="42.276157" lon="3.158296">
        <ele>26</ele>
        <time>2019-08-19T00:55:43Z</time>
      </trkpt>
      <trkpt lat="42.276113" lon="3.158224">
        <ele>26</ele>
        <time>2019-08-19T00:55:44Z</time>
      </trkpt>
      <trkpt lat="42.27607" lon="3.158152">
        <ele>26</ele>
        <time>2019-08-19T00:55:45Z</time>
      </trkpt>
      <trkpt lat="42.276026" lon="3.15808">
        <ele>26</ele>
        <time>2019-08-19T00:55:46Z</time>
      </trkpt>
      <trkpt lat="42.275982" lon="3.158008">
        <ele>26</ele>
        <time>2019-08-19T00:55:47Z</time>
      </trkpt>
      <trkpt lat="42.275938" lon="3.157935">
        <ele>26</ele>
        <time>2019-08-19T00:55:48Z</time>
      </trkpt>
      <trkpt lat="42.275894" lon="3.157863">
        <ele>26</ele>
        <time>2019-08-19T00:55:49Z</time>
      </trkpt>
      <trkpt lat="42.27585" lon="3.157791">
        <ele>25</ele>
        <time>2019-08-19T00:55:50Z</time>
      </trkpt>
      <trkpt lat="42.275758" lon="3.157624">
        <ele>25</ele>
        <time>2019-08-19T00:55:51Z</time>
      </trkpt>
      <trkpt lat="42.275714" lon="3.157546">
        <ele>25</ele>
        <time>2019-08-19T00:55:52Z</time>
      </trkpt>
      <trkpt lat="42.275671" lon="3.157467">
        <ele>25</ele>
        <time>2019-08-19T00:55:53Z</time>
      </trkpt>
      <trkpt lat="42.275628" lon="3.157389">
        <ele>25</ele>
        <time>2019-08-19T00:55:54Z</time>
      </trkpt>
      <trkpt lat="42.275585" lon="3.15731">
        <ele>25</ele>
        <time>2019-08-19T00:55:55Z</time>
      </trkpt>
      <trkpt lat="42.275541" lon="3.157232">
        <ele>25</ele>
        <time>2019-08-19T00:55:56Z</time>
      </trkpt>
      <trkpt lat="42.275498" lon="3.157153">
        <ele>25</ele>
        <time>2019-08-19T00:55:57Z</time>
      </trkpt>
      <trkpt lat="42.275455" lon="3.157075">
        <ele>25</ele>
        <time>2019-08-19T00:55:58Z</time>
      </trkpt>
      <trkpt lat="42.275411" lon="3.156996">
        <ele>25</ele>
        <time>2019-08-19T00:55:59Z</time>
      </trkpt>
      <trkpt lat="42.275368" lon="3.156918">
        <ele>23</ele>
        <time>2019-08-19T00:56:00Z</time>
      </trkpt>
      <trkpt lat="42.275272" lon="3.156743">
        <ele>23</ele>
        <time>2019-08-19T00:56:01Z</time>
      </trkpt>
      <trkpt lat="42.275224" lon="3.156654">
        <ele>23</ele>
        <time>2019-08-19T00:56:02Z</time>
      </trkpt>
      <trkpt lat="42.275176" lon="3.156565">
        <ele>23</ele>
        <time>2019-08-19T00:56:03Z</time>
      </trkpt>
      <trkpt lat="42.275128" lon="3.156476">
        <ele>23</ele>
        <time>2019-08-19T00:56:04Z</time>
      </trkpt>
      <trkpt lat="42.27508" lon="3.156387">
        <ele>23</ele>
        <time>2019-08-19T00:56:05Z</time>
      </trkpt>
      <trkpt lat="42.275032" lon="3.156299">
        <ele>23</ele>
        <time>2019-08-19T00:56:06Z</time>
      </trkpt>
      <trkpt lat="42.274984" lon="3.15621">
        <ele>23</ele>
        <time>2019-08-19T00:56:07Z</time>
      </trkpt>
      <trkpt lat="42.274936" lon="3.156121">
        <ele>23</ele>
        <time>2019-08-19T00:56:08Z</time>
      </trkpt>
      <trkpt lat="42.274888" lon="3.156032">
        <ele>23</ele>
        <time>2019-08-19T00:56:09Z</time>
      </trkpt>
      <trkpt lat="42.27484" lon="3.155943">
        <ele>22</ele>
        <time>2019-08-19T00:56:11Z</time>
      </trkpt>
      <trkpt lat="42.274752" lon="3.155782">
        <ele>22</ele>
        <time>2019-08-19T00:56:12Z</time>
      </trkpt>
      <trkpt lat="42.274711" lon="3.155708">
        <ele>22</ele>
        <time>2019-08-19T00:56:13Z</time>
      </trkpt>
      <trkpt lat="42.274671" lon="3.155635">
        <ele>22</ele>
        <time>2019-08-19T00:56:14Z</time>
      </trkpt>
      <trkpt lat="42.27463" lon="3.155561">
        <ele>22</ele>
        <time>2019-08-19T00:56:15Z</time>
      </trkpt>
      <trkpt lat="42.274589" lon="3.155487">
        <ele>22</ele>
        <time>2019-08-19T00:56:16Z</time>
      </trkpt>
      <trkpt lat="42.274548" lon="3.155413">
        <ele>22</ele>
        <time>2019-08-19T00:56:17Z</time>
      </trkpt>
      <trkpt lat="42.274508" lon="3.15534">
        <ele>22</ele>
        <time>2019-08-19T00:56:18Z</time>
      </trkpt>
      <trkpt lat="42.274467" lon="3.155266">
        <ele>22</ele>
        <time>2019-08-19T00:56:19Z</time>
      </trkpt>
      <trkpt lat="42.274426" lon="3.155192">
        <ele>21</ele>
        <time>2019-08-19T00:56:20Z</time>
      </trkpt>
      <trkpt lat="42.274338" lon="3.155032">
        <ele>21</ele>
        <time>2019-08-19T00:56:21Z</time>
      </trkpt>
      <trkpt lat="42.274296" lon="3.154955">
        <ele>21</ele>
        <time>2019-08-19T00:56:22Z</time>
      </trkpt>
      <trkpt lat="42.274254" lon="3.154878">
        <ele>21</ele>
        <time>2019-08-19T00:56:23Z</time>
      </trkpt>
      <trkpt lat="42.274212" lon="3.154801">
        <ele>21</ele>
        <time>2019-08-19T00:56:24Z</time>
      </trkpt>
      <trkpt lat="42.27417" lon="3.154724">
        <ele>21</ele>
        <time>2019-08-19T00:56:25Z</time>
      </trkpt>
      <trkpt lat="42.274128" lon="3.154646">
        <ele>21</ele>
        <time>2019-08-19T00:56:26Z</time>
      </trkpt>
      <trkpt lat="42.274086" lon="3.154569">
        <ele>21</ele>
        <time>2019-08-19T00:56:27Z</time>
      </trkpt>
      <trkpt lat="42.274044" lon="3.154492">
        <ele>21</ele>
        <time>2019-08-19T00:56:28Z</time>
      </trkpt>
      <trkpt lat="42.274002" lon="3.154415">
        <ele>21</ele>
        <time>2019-08-19T00:56:29Z</time>
      </trkpt>
      <trkpt lat="42.27396" lon="3.154338">
        <ele>21</ele>
        <time>2019-08-19T00:56:30Z</time>
      </trkpt>
      <trkpt lat="42.273918" lon="3.154261">
        <ele>20</ele>
        <time>2019-08-19T00:56:31Z</time>
      </trkpt>
      <trkpt lat="42.273826" lon="3.154102">
        <ele>20</ele>
        <time>2019-08-19T00:56:32Z</time>
      </trkpt>
      <trkpt lat="42.273782" lon="3.154025">
        <ele>20</ele>
        <time>2019-08-19T00:56:33Z</time>
      </trkpt>
      <trkpt lat="42.273739" lon="3.153949">
        <ele>20</ele>
        <time>2019-08-19T00:56:34Z</time>
      </trkpt>
      <trkpt lat="42.273695" lon="3.153872">
        <ele>20</ele>
        <time>2019-08-19T00:56:35Z</time>
      </trkpt>
      <trkpt lat="42.273651" lon="3.153796">
        <ele>20</ele>
        <time>2019-08-19T00:56:36Z</time>
      </trkpt>
      <trkpt lat="42.273607" lon="3.153719">
        <ele>20</ele>
        <time>2019-08-19T00:56:37Z</time>
      </trkpt>
      <trkpt lat="42.273564" lon="3.153643">
        <ele>20</ele>
        <time>2019-08-19T00:56:38Z</time>
      </trkpt>
      <trkpt lat="42.27352" lon="3.153566">
        <ele>20</ele>
        <time>2019-08-19T00:56:39Z</time>
      </trkpt>
      <trkpt lat="42.273476" lon="3.15349">
        <ele>19</ele>
        <time>2019-08-19T00:56:40Z</time>
      </trkpt>
      <trkpt lat="42.273378" lon="3.153313">
        <ele>19</ele>
        <time>2019-08-19T00:56:41Z</time>
      </trkpt>
      <trkpt lat="42.27333" lon="3.153224">
        <ele>19</ele>
        <time>2019-08-19T00:56:42Z</time>
      </trkpt>
      <trkpt lat="42.273281" lon="3.153136">
        <ele>19</ele>
        <time>2019-08-19T00:56:43Z</time>
      </trkpt>
      <trkpt lat="42.273233" lon="3.153048">
        <ele>19</ele>
        <time>2019-08-19T00:56:44Z</time>
      </trkpt>
      <trkpt lat="42.273185" lon="3.152959">
        <ele>19</ele>
        <time>2019-08-19T00:56:45Z</time>
      </trkpt>
      <trkpt lat="42.273137" lon="3.152871">
        <ele>19</ele>
        <time>2019-08-19T00:56:46Z</time>
      </trkpt>
      <trkpt lat="42.273088" lon="3.152783">
        <ele>19</ele>
        <time>2019-08-19T00:56:47Z</time>
      </trkpt>
      <trkpt lat="42.27304" lon="3.152694">
        <ele>19</ele>
        <time>2019-08-19T00:56:49Z</time>
      </trkpt>
      <trkpt lat="42.272992" lon="3.152606">
        <ele>18</ele>
        <time>2019-08-19T00:56:50Z</time>
      </trkpt>
      <trkpt lat="42.272903" lon="3.15245">
        <ele>18</ele>
        <time>2019-08-19T00:56:51Z</time>
      </trkpt>
      <trkpt lat="42.272863" lon="3.152378">
        <ele>18</ele>
        <time>2019-08-19T00:56:52Z</time>
      </trkpt>
      <trkpt lat="42.272822" lon="3.152307">
        <ele>18</ele>
        <time>2019-08-19T00:56:53Z</time>
      </trkpt>
      <trkpt lat="42.272781" lon="3.152236">
        <ele>18</ele>
        <time>2019-08-19T00:56:54Z</time>
      </trkpt>
      <trkpt lat="42.272741" lon="3.152164">
        <ele>18</ele>
        <time>2019-08-19T00:56:55Z</time>
      </trkpt>
      <trkpt lat="42.2727" lon="3.152093">
        <ele>18</ele>
        <time>2019-08-19T00:56:56Z</time>
      </trkpt>
      <trkpt lat="42.272659" lon="3.152022">
        <ele>18</ele>
        <time>2019-08-19T00:56:57Z</time>
      </trkpt>
      <trkpt lat="42.272618" lon="3.151951">
        <ele>18</ele>
        <time>2019-08-19T00:56:58Z</time>
      </trkpt>
      <trkpt lat="42.272578" lon="3.151879">
        <ele>18</ele>
        <time>2019-08-19T00:56:59Z</time>
      </trkpt>
      <trkpt lat="42.272537" lon="3.151808">
        <ele>17</ele>
        <time>2019-08-19T00:57:00Z</time>
      </trkpt>
      <trkpt lat="42.272458" lon="3.151665">
        <ele>17</ele>
        <time>2019-08-19T00:57:01Z</time>
      </trkpt>
      <trkpt lat="42.272421" lon="3.151599">
        <ele>17</ele>
        <time>2019-08-19T00:57:02Z</time>
      </trkpt>
      <trkpt lat="42.272384" lon="3.151532">
        <ele>17</ele>
        <time>2019-08-19T00:57:03Z</time>
      </trkpt>
      <trkpt lat="42.272347" lon="3.151465">
        <ele>17</ele>
        <time>2019-08-19T00:57:04Z</time>
      </trkpt>
      <trkpt lat="42.272311" lon="3.151398">
        <ele>17</ele>
        <time>2019-08-19T00:57:05Z</time>
      </trkpt>
      <trkpt lat="42.272274" lon="3.151332">
        <ele>17</ele>
        <time>2019-08-19T00:57:06Z</time>
      </trkpt>
      <trkpt lat="42.272237" lon="3.151265">
        <ele>17</ele>
        <time>2019-08-19T00:57:07Z</time>
      </trkpt>
      <trkpt lat="42.2722" lon="3.151198">
        <ele>17</ele>
        <time>2019-08-19T00:57:08Z</time>
      </trkpt>
      <trkpt lat="42.272163" lon="3.151132">
        <ele>17</ele>
        <time>2019-08-19T00:57:09Z</time>
      </trkpt>
      <trkpt lat="42.272126" lon="3.151065">
        <ele>15</ele>
        <time>2019-08-19T00:57:10Z</time>
      </trkpt>
      <trkpt lat="42.272059" lon="3.150975">
        <ele>15</ele>
        <time>2019-08-19T00:57:11Z</time>
      </trkpt>
      <trkpt lat="42.27203" lon="3.150948">
        <ele>15</ele>
        <time>2019-08-19T00:57:12Z</time>
      </trkpt>
      <trkpt lat="42.272002" lon="3.150921">
        <ele>15</ele>
        <time>2019-08-19T00:57:13Z</time>
      </trkpt>
      <trkpt lat="42.271974" lon="3.150894">
        <ele>15</ele>
        <time>2019-08-19T00:57:14Z</time>
      </trkpt>
      <trkpt lat="42.271946" lon="3.150866">
        <ele>15</ele>
        <time>2019-08-19T00:57:15Z</time>
      </trkpt>
      <trkpt lat="42.271917" lon="3.150839">
        <ele>15</ele>
        <time>2019-08-19T00:57:16Z</time>
      </trkpt>
      <trkpt lat="42.271889" lon="3.150812">
        <ele>15</ele>
        <time>2019-08-19T00:57:17Z</time>
      </trkpt>
      <trkpt lat="42.271861" lon="3.150785">
        <ele>15</ele>
        <time>2019-08-19T00:57:18Z</time>
      </trkpt>
      <trkpt lat="42.271832" lon="3.150758">
        <ele>15</ele>
        <time>2019-08-19T00:57:19Z</time>
      </trkpt>
      <trkpt lat="42.271804" lon="3.150731">
        <ele>14</ele>
        <time>2019-08-19T00:57:20Z</time>
      </trkpt>
      <trkpt lat="42.271767" lon="3.150677">
        <ele>14</ele>
        <time>2019-08-19T00:57:21Z</time>
      </trkpt>
      <trkpt lat="42.271747" lon="3.150644">
        <ele>14</ele>
        <time>2019-08-19T00:57:22Z</time>
      </trkpt>
      <trkpt lat="42.271728" lon="3.150612">
        <ele>14</ele>
        <time>2019-08-19T00:57:23Z</time>
      </trkpt>
      <trkpt lat="42.271708" lon="3.15058">
        <ele>14</ele>
        <time>2019-08-19T00:57:24Z</time>
      </trkpt>
      <trkpt lat="42.271689" lon="3.150547">
        <ele>14</ele>
        <time>2019-08-19T00:57:25Z</time>
      </trkpt>
      <trkpt lat="42.271669" lon="3.150515">
        <ele>14</ele>
        <time>2019-08-19T00:57:26Z</time>
      </trkpt>
      <trkpt lat="42.27165" lon="3.150483">
        <ele>14</ele>
        <time>2019-08-19T00:57:27Z</time>
      </trkpt>
      <trkpt lat="42.27163" lon="3.150451">
        <ele>14</ele>
        <time>2019-08-19T00:57:28Z</time>
      </trkpt>
      <trkpt lat="42.271611" lon="3.150418">
        <ele>14</ele>
        <time>2019-08-19T00:57:29Z</time>
      </trkpt>
      <trkpt lat="42.271591" lon="3.150386">
        <ele>13</ele>
        <time>2019-08-19T00:57:30Z</time>
      </trkpt>
      <trkpt lat="42.271545" lon="3.15034">
        <ele>13</ele>
        <time>2019-08-19T00:57:31Z</time>
      </trkpt>
      <trkpt lat="42.271523" lon="3.150331">
        <ele>13</ele>
        <time>2019-08-19T00:57:32Z</time>
      </trkpt>
      <trkpt lat="42.2715" lon="3.150323">
        <ele>13</ele>
        <time>2019-08-19T00:57:33Z</time>
      </trkpt>
      <trkpt lat="42.271478" lon="3.150314">
        <ele>13</ele>
        <time>2019-08-19T00:57:34Z</time>
      </trkpt>
      <trkpt lat="42.271456" lon="3.150306">
        <ele>13</ele>
        <time>2019-08-19T00:57:35Z</time>
      </trkpt>
      <trkpt lat="42.271434" lon="3.150298">
        <ele>13</ele>
        <time>2019-08-19T00:57:36Z</time>
      </trkpt>
      <trkpt lat="42.271411" lon="3.150289">
        <ele>13</ele>
        <time>2019-08-19T00:57:38Z</time>
      </trkpt>
      <trkpt lat="42.271389" lon="3.150281">
        <ele>13</ele>
        <time>2019-08-19T00:57:40Z</time>
      </trkpt>
      <trkpt lat="42.271383" lon="3.150262">
        <ele>13</ele>
        <time>2019-08-19T00:57:42Z</time>
      </trkpt>
      <trkpt lat="42.271393" lon="3.15027">
        <ele>13</ele>
        <time>2019-08-19T00:57:44Z</time>
      </trkpt>
      <trkpt lat="42.271403" lon="3.150277">
        <ele>13</ele>
        <time>2019-08-19T00:57:46Z</time>
      </trkpt>
      <trkpt lat="42.271413" lon="3.150284">
        <ele>13</ele>
        <time>2019-08-19T00:57:47Z</time>
      </trkpt>
      <trkpt lat="42.271423" lon="3.150291">
        <ele>13</ele>
        <time>2019-08-19T00:57:48Z</time>
      </trkpt>
      <trkpt lat="42.271433" lon="3.150299">
        <ele>13</ele>
        <time>2019-08-19T00:57:49Z</time>
      </trkpt>
      <trkpt lat="42.271443" lon="3.150306">
        <ele>13</ele>
        <time>2019-08-19T00:57:50Z</time>
      </trkpt>
      <trkpt lat="42.271429" lon="3.150344">
        <ele>13</ele>
        <time>2019-08-19T00:57:52Z</time>
      </trkpt>
      <trkpt lat="42.271426" lon="3.150372">
        <ele>13</ele>
        <time>2019-08-19T00:57:54Z</time>
      </trkpt>
      <trkpt lat="42.271426" lon="3.150372">
        <ele>13</ele>
        <time>2019-08-19T00:57:59Z</time>
      </trkpt>
      <trkpt lat="42.271436" lon="3.150427">
        <ele>13</ele>
        <time>2019-08-19T00:58:34Z</time>
      </trkpt>
      <trkpt lat="42.271453" lon="3.150414">
        <ele>13</ele>
        <time>2019-08-19T00:58:37Z</time>
      </trkpt>
      <trkpt lat="42.271469" lon="3.1504">
        <ele>13</ele>
        <time>2019-08-19T00:58:42Z</time>
      </trkpt>
      <trkpt lat="42.271492" lon="3.150371">
        <ele>13</ele>
        <time>2019-08-19T00:58:44Z</time>
      </trkpt>
      <trkpt lat="42.271527" lon="3.15038">
        <ele>13</ele>
        <time>2019-08-19T00:58:45Z</time>
      </trkpt>
      <trkpt lat="42.271542" lon="3.150399">
        <ele>13</ele>
        <time>2019-08-19T00:58:46Z</time>
      </trkpt>
      <trkpt lat="42.271558" lon="3.150418">
        <ele>13</ele>
        <time>2019-08-19T00:58:47Z</time>
      </trkpt>
      <trkpt lat="42.271574" lon="3.150437">
        <ele>13</ele>
        <time>2019-08-19T00:58:48Z</time>
      </trkpt>
      <trkpt lat="42.27159" lon="3.150456">
        <ele>13</ele>
        <time>2019-08-19T00:58:49Z</time>
      </trkpt>
      <trkpt lat="42.271605" lon="3.150476">
        <ele>13</ele>
        <time>2019-08-19T00:58:50Z</time>
      </trkpt>
      <trkpt lat="42.271621" lon="3.150495">
        <ele>13</ele>
        <time>2019-08-19T00:58:51Z</time>
      </trkpt>
      <trkpt lat="42.271637" lon="3.150514">
        <ele>13</ele>
        <time>2019-08-19T00:58:52Z</time>
      </trkpt>
      <trkpt lat="42.271652" lon="3.150533">
        <ele>13</ele>
        <time>2019-08-19T00:58:53Z</time>
      </trkpt>
      <trkpt lat="42.271668" lon="3.150552">
        <ele>12</ele>
        <time>2019-08-19T00:58:54Z</time>
      </trkpt>
      <trkpt lat="42.2717" lon="3.150601">
        <ele>12</ele>
        <time>2019-08-19T00:58:55Z</time>
      </trkpt>
      <trkpt lat="42.271711" lon="3.150629">
        <ele>12</ele>
        <time>2019-08-19T00:58:56Z</time>
      </trkpt>
      <trkpt lat="42.271721" lon="3.150656">
        <ele>12</ele>
        <time>2019-08-19T00:58:57Z</time>
      </trkpt>
      <trkpt lat="42.271732" lon="3.150684">
        <ele>12</ele>
        <time>2019-08-19T00:58:58Z</time>
      </trkpt>
      <trkpt lat="42.271742" lon="3.150711">
        <ele>12</ele>
        <time>2019-08-19T00:58:59Z</time>
      </trkpt>
      <trkpt lat="42.271752" lon="3.150739">
        <ele>12</ele>
        <time>2019-08-19T00:59:00Z</time>
      </trkpt>
      <trkpt lat="42.271763" lon="3.150766">
        <ele>12</ele>
        <time>2019-08-19T00:59:01Z</time>
      </trkpt>
      <trkpt lat="42.271773" lon="3.150794">
        <ele>12</ele>
        <time>2019-08-19T00:59:02Z</time>
      </trkpt>
      <trkpt lat="42.271784" lon="3.150821">
        <ele>12</ele>
        <time>2019-08-19T00:59:03Z</time>
      </trkpt>
      <trkpt lat="42.271794" lon="3.150849">
        <ele>12</ele>
        <time>2019-08-19T00:59:04Z</time>
      </trkpt>
      <trkpt lat="42.27182" lon="3.150876">
        <ele>12</ele>
        <time>2019-08-19T00:59:05Z</time>
      </trkpt>
      <trkpt lat="42.271834" lon="3.150867">
        <ele>12</ele>
        <time>2019-08-19T00:59:06Z</time>
      </trkpt>
      <trkpt lat="42.271849" lon="3.150858">
        <ele>12</ele>
        <time>2019-08-19T00:59:07Z</time>
      </trkpt>
      <trkpt lat="42.271863" lon="3.150849">
        <ele>12</ele>
        <time>2019-08-19T00:59:08Z</time>
      </trkpt>
      <trkpt lat="42.271878" lon="3.150839">
        <ele>12</ele>
        <time>2019-08-19T00:59:10Z</time>
      </trkpt>
      <trkpt lat="42.271892" lon="3.15083">
        <ele>12</ele>
        <time>2019-08-19T00:59:12Z</time>
      </trkpt>
      <trkpt lat="42.271907" lon="3.150821">
        <ele>12</ele>
        <time>2019-08-19T00:59:13Z</time>
      </trkpt>
      <trkpt lat="42.271921" lon="3.150812">
        <ele>12</ele>
        <time>2019-08-19T00:59:14Z</time>
      </trkpt>
      <trkpt lat="42.271936" lon="3.150803">
        <ele>12</ele>
        <time>2019-08-19T00:59:15Z</time>
      </trkpt>
      <trkpt lat="42.271917" lon="3.150722">
        <ele>12</ele>
        <time>2019-08-19T00:59:16Z</time>
      </trkpt>
      <trkpt lat="42.271897" lon="3.150681">
        <ele>12</ele>
        <time>2019-08-19T00:59:17Z</time>
      </trkpt>
      <trkpt lat="42.271878" lon="3.150641">
        <ele>12</ele>
        <time>2019-08-19T00:59:18Z</time>
      </trkpt>
      <trkpt lat="42.271858" lon="3.1506">
        <ele>12</ele>
        <time>2019-08-19T00:59:19Z</time>
      </trkpt>
      <trkpt lat="42.271839" lon="3.15056">
        <ele>12</ele>
        <time>2019-08-19T00:59:20Z</time>
      </trkpt>
      <trkpt lat="42.271819" lon="3.150519">
        <ele>12</ele>
        <time>2019-08-19T00:59:21Z</time>
      </trkpt>
      <trkpt lat="42.2718" lon="3.150479">
        <ele>12</ele>
        <time>2019-08-19T00:59:22Z</time>
      </trkpt>
      <trkpt lat="42.27178" lon="3.150438">
        <ele>12</ele>
        <time>2019-08-19T00:59:23Z</time>
      </trkpt>
      <trkpt lat="42.271761" lon="3.150398">
        <ele>13</ele>
        <time>2019-08-19T00:59:24Z</time>
      </trkpt>
      <trkpt lat="42.271717" lon="3.150294">
        <ele>13</ele>
        <time>2019-08-19T00:59:25Z</time>
      </trkpt>
      <trkpt lat="42.271701" lon="3.150241">
        <ele>13</ele>
        <time>2019-08-19T00:59:26Z</time>
      </trkpt>
      <trkpt lat="42.271684" lon="3.150187">
        <ele>13</ele>
        <time>2019-08-19T00:59:27Z</time>
      </trkpt>
      <trkpt lat="42.271667" lon="3.150133">
        <ele>13</ele>
        <time>2019-08-19T00:59:28Z</time>
      </trkpt>
      <trkpt lat="42.271651" lon="3.150079">
        <ele>13</ele>
        <time>2019-08-19T00:59:29Z</time>
      </trkpt>
      <trkpt lat="42.271634" lon="3.150026">
        <ele>13</ele>
        <time>2019-08-19T00:59:30Z</time>
      </trkpt>
      <trkpt lat="42.271617" lon="3.149972">
        <ele>13</ele>
        <time>2019-08-19T00:59:31Z</time>
      </trkpt>
      <trkpt lat="42.2716" lon="3.149918">
        <ele>13</ele>
        <time>2019-08-19T00:59:32Z</time>
      </trkpt>
      <trkpt lat="42.271584" lon="3.149865">
        <ele>13</ele>
        <time>2019-08-19T00:59:33Z</time>
      </trkpt>
      <trkpt lat="42.271567" lon="3.149811">
        <ele>12</ele>
        <time>2019-08-19T00:59:34Z</time>
      </trkpt>
      <trkpt lat="42.271574" lon="3.149687">
        <ele>12</ele>
        <time>2019-08-19T00:59:35Z</time>
      </trkpt>
      <trkpt lat="42.271586" lon="3.149631">
        <ele>12</ele>
        <time>2019-08-19T00:59:36Z</time>
      </trkpt>
      <trkpt lat="42.271598" lon="3.149575">
        <ele>12</ele>
        <time>2019-08-19T00:59:37Z</time>
      </trkpt>
      <trkpt lat="42.27161" lon="3.149519">
        <ele>12</ele>
        <time>2019-08-19T00:59:38Z</time>
      </trkpt>
      <trkpt lat="42.271623" lon="3.149463">
        <ele>12</ele>
        <time>2019-08-19T00:59:39Z</time>
      </trkpt>
      <trkpt lat="42.271635" lon="3.149406">
        <ele>12</ele>
        <time>2019-08-19T00:59:40Z</time>
      </trkpt>
      <trkpt lat="42.271647" lon="3.14935">
        <ele>12</ele>
        <time>2019-08-19T00:59:41Z</time>
      </trkpt>
      <trkpt lat="42.271659" lon="3.149294">
        <ele>12</ele>
        <time>2019-08-19T00:59:42Z</time>
      </trkpt>
      <trkpt lat="42.271671" lon="3.149238">
        <ele>12</ele>
        <time>2019-08-19T00:59:43Z</time>
      </trkpt>
      <trkpt lat="42.271683" lon="3.149182">
        <ele>12</ele>
        <time>2019-08-19T00:59:44Z</time>
      </trkpt>
      <trkpt lat="42.271713" lon="3.149078">
        <ele>12</ele>
        <time>2019-08-19T00:59:45Z</time>
      </trkpt>
      <trkpt lat="42.27172" lon="3.149031">
        <ele>12</ele>
        <time>2019-08-19T00:59:46Z</time>
      </trkpt>
      <trkpt lat="42.271727" lon="3.148984">
        <ele>12</ele>
        <time>2019-08-19T00:59:47Z</time>
      </trkpt>
      <trkpt lat="42.271734" lon="3.148937">
        <ele>12</ele>
        <time>2019-08-19T00:59:48Z</time>
      </trkpt>
      <trkpt lat="42.271741" lon="3.14889">
        <ele>12</ele>
        <time>2019-08-19T00:59:49Z</time>
      </trkpt>
      <trkpt lat="42.271748" lon="3.148842">
        <ele>12</ele>
        <time>2019-08-19T00:59:50Z</time>
      </trkpt>
      <trkpt lat="42.271755" lon="3.148795">
        <ele>12</ele>
        <time>2019-08-19T00:59:51Z</time>
      </trkpt>
      <trkpt lat="42.271762" lon="3.148748">
        <ele>12</ele>
        <time>2019-08-19T00:59:52Z</time>
      </trkpt>
      <trkpt lat="42.271769" lon="3.148701">
        <ele>12</ele>
        <time>2019-08-19T00:59:53Z</time>
      </trkpt>
      <trkpt lat="42.271776" lon="3.148654">
        <ele>13</ele>
        <time>2019-08-19T00:59:54Z</time>
      </trkpt>
      <trkpt lat="42.271757" lon="3.148593">
        <ele>13</ele>
        <time>2019-08-19T00:59:55Z</time>
      </trkpt>
      <trkpt lat="42.271747" lon="3.148571">
        <ele>13</ele>
        <time>2019-08-19T00:59:56Z</time>
      </trkpt>
      <trkpt lat="42.271737" lon="3.148548">
        <ele>13</ele>
        <time>2019-08-19T00:59:57Z</time>
      </trkpt>
      <trkpt lat="42.271727" lon="3.148525">
        <ele>13</ele>
        <time>2019-08-19T00:59:58Z</time>
      </trkpt>
      <trkpt lat="42.271717" lon="3.148503">
        <ele>13</ele>
        <time>2019-08-19T00:59:59Z</time>
      </trkpt>
      <trkpt lat="42.271707" lon="3.14848">
        <ele>13</ele>
        <time>2019-08-19T01:00:00Z</time>
      </trkpt>
      <trkpt lat="42.271697" lon="3.148457">
        <ele>13</ele>
        <time>2019-08-19T01:00:01Z</time>
      </trkpt>
      <trkpt lat="42.271687" lon="3.148435">
        <ele>13</ele>
        <time>2019-08-19T01:00:03Z</time>
      </trkpt>
      <trkpt lat="42.271677" lon="3.148412">
        <ele>12</ele>
        <time>2019-08-19T01:00:04Z</time>
      </trkpt>
      <trkpt lat="42.271667" lon="3.148357">
        <ele>12</ele>
        <time>2019-08-19T01:00:05Z</time>
      </trkpt>
      <trkpt lat="42.271665" lon="3.148319">
        <ele>12</ele>
        <time>2019-08-19T01:00:07Z</time>
      </trkpt>
      <trkpt lat="42.271662" lon="3.148281">
        <ele>12</ele>
        <time>2019-08-19T01:00:09Z</time>
      </trkpt>
      <trkpt lat="42.27166" lon="3.148244">
        <ele>12</ele>
        <time>2019-08-19T01:00:11Z</time>
      </trkpt>
      <trkpt lat="42.271657" lon="3.148206">
        <ele>12</ele>
        <time>2019-08-19T01:00:12Z</time>
      </trkpt>
      <trkpt lat="42.271655" lon="3.148168">
        <ele>12</ele>
        <time>2019-08-19T01:00:13Z</time>
      </trkpt>
      <trkpt lat="42.271652" lon="3.14813">
        <ele>12</ele>
        <time>2019-08-19T01:00:14Z</time>
      </trkpt>
      <trkpt lat="42.271634" lon="3.14803">
        <ele>12</ele>
        <time>2019-08-19T01:00:15Z</time>
      </trkpt>
      <trkpt lat="42.271626" lon="3.147981">
        <ele>12</ele>
        <time>2019-08-19T01:00:16Z</time>
      </trkpt>
      <trkpt lat="42.271619" lon="3.147931">
        <ele>12</ele>
        <time>2019-08-19T01:00:17Z</time>
      </trkpt>
      <trkpt lat="42.271611" lon="3.147882">
        <ele>12</ele>
        <time>2019-08-19T01:00:18Z</time>
      </trkpt>
      <trkpt lat="42.271603" lon="3.147832">
        <ele>12</ele>
        <time>2019-08-19T01:00:19Z</time>
      </trkpt>
      <trkpt lat="42.271595" lon="3.147782">
        <ele>12</ele>
        <time>2019-08-19T01:00:20Z</time>
      </trkpt>
      <trkpt lat="42.271587" lon="3.147733">
        <ele>12</ele>
        <time>2019-08-19T01:00:21Z</time>
      </trkpt>
      <trkpt lat="42.27158" lon="3.147683">
        <ele>12</ele>
        <time>2019-08-19T01:00:22Z</time>
      </trkpt>
      <trkpt lat="42.271572" lon="3.147634">
        <ele>12</ele>
        <time>2019-08-19T01:00:23Z</time>
      </trkpt>
      <trkpt lat="42.271564" lon="3.147584">
        <ele>12</ele>
        <time>2019-08-19T01:00:24Z</time>
      </trkpt>
      <trkpt lat="42.271571" lon="3.147475">
        <ele>12</ele>
        <time>2019-08-19T01:00:25Z</time>
      </trkpt>
      <trkpt lat="42.271576" lon="3.147422">
        <ele>12</ele>
        <time>2019-08-19T01:00:26Z</time>
      </trkpt>
      <trkpt lat="42.27158" lon="3.147368">
        <ele>12</ele>
        <time>2019-08-19T01:00:27Z</time>
      </trkpt>
      <trkpt lat="42.271585" lon="3.147315">
        <ele>12</ele>
        <time>2019-08-19T01:00:28Z</time>
      </trkpt>
      <trkpt lat="42.271589" lon="3.147262">
        <ele>12</ele>
        <time>2019-08-19T01:00:29Z</time>
      </trkpt>
      <trkpt lat="42.271593" lon="3.147209">
        <ele>12</ele>
        <time>2019-08-19T01:00:30Z</time>
      </trkpt>
      <trkpt lat="42.271598" lon="3.147156">
        <ele>12</ele>
        <time>2019-08-19T01:00:31Z</time>
      </trkpt>
      <trkpt lat="42.271602" lon="3.147102">
        <ele>12</ele>
        <time>2019-08-19T01:00:32Z</time>
      </trkpt>
      <trkpt lat="42.271607" lon="3.147049">
        <ele>12</ele>
        <time>2019-08-19T01:00:33Z</time>
      </trkpt>
      <trkpt lat="42.271611" lon="3.146996">
        <ele>12</ele>
        <time>2019-08-19T01:00:34Z</time>
      </trkpt>
      <trkpt lat="42.27162" lon="3.146857">
        <ele>12</ele>
        <time>2019-08-19T01:00:35Z</time>
      </trkpt>
      <trkpt lat="42.271623" lon="3.146789">
        <ele>12</ele>
        <time>2019-08-19T01:00:36Z</time>
      </trkpt>
      <trkpt lat="42.271627" lon="3.146722">
        <ele>12</ele>
        <time>2019-08-19T01:00:37Z</time>
      </trkpt>
      <trkpt lat="42.271631" lon="3.146654">
        <ele>12</ele>
        <time>2019-08-19T01:00:38Z</time>
      </trkpt>
      <trkpt lat="42.271635" lon="3.146586">
        <ele>12</ele>
        <time>2019-08-19T01:00:39Z</time>
      </trkpt>
      <trkpt lat="42.271638" lon="3.146518">
        <ele>12</ele>
        <time>2019-08-19T01:00:40Z</time>
      </trkpt>
      <trkpt lat="42.271642" lon="3.14645">
        <ele>12</ele>
        <time>2019-08-19T01:00:41Z</time>
      </trkpt>
      <trkpt lat="42.271646" lon="3.146383">
        <ele>12</ele>
        <time>2019-08-19T01:00:42Z</time>
      </trkpt>
      <trkpt lat="42.271649" lon="3.146315">
        <ele>12</ele>
        <time>2019-08-19T01:00:43Z</time>
      </trkpt>
      <trkpt lat="42.271653" lon="3.146247">
        <ele>12</ele>
        <time>2019-08-19T01:00:44Z</time>
      </trkpt>
      <trkpt lat="42.27166" lon="3.146103">
        <ele>12</ele>
        <time>2019-08-19T01:00:45Z</time>
      </trkpt>
      <trkpt lat="42.271663" lon="3.146034">
        <ele>12</ele>
        <time>2019-08-19T01:00:46Z</time>
      </trkpt>
      <trkpt lat="42.271667" lon="3.145966">
        <ele>12</ele>
        <time>2019-08-19T01:00:47Z</time>
      </trkpt>
      <trkpt lat="42.27167" lon="3.145897">
        <ele>12</ele>
        <time>2019-08-19T01:00:48Z</time>
      </trkpt>
      <trkpt lat="42.271673" lon="3.145829">
        <ele>12</ele>
        <time>2019-08-19T01:00:49Z</time>
      </trkpt>
      <trkpt lat="42.271676" lon="3.14576">
        <ele>12</ele>
        <time>2019-08-19T01:00:50Z</time>
      </trkpt>
      <trkpt lat="42.271679" lon="3.145692">
        <ele>12</ele>
        <time>2019-08-19T01:00:51Z</time>
      </trkpt>
      <trkpt lat="42.271683" lon="3.145623">
        <ele>12</ele>
        <time>2019-08-19T01:00:52Z</time>
      </trkpt>
      <trkpt lat="42.271686" lon="3.145555">
        <ele>12</ele>
        <time>2019-08-19T01:00:53Z</time>
      </trkpt>
      <trkpt lat="42.271689" lon="3.145486">
        <ele>11</ele>
        <time>2019-08-19T01:00:54Z</time>
      </trkpt>
      <trkpt lat="42.271696" lon="3.14534">
        <ele>11</ele>
        <time>2019-08-19T01:00:55Z</time>
      </trkpt>
      <trkpt lat="42.271699" lon="3.145271">
        <ele>11</ele>
        <time>2019-08-19T01:00:56Z</time>
      </trkpt>
      <trkpt lat="42.271703" lon="3.145203">
        <ele>11</ele>
        <time>2019-08-19T01:00:57Z</time>
      </trkpt>
      <trkpt lat="42.271706" lon="3.145134">
        <ele>11</ele>
        <time>2019-08-19T01:00:58Z</time>
      </trkpt>
      <trkpt lat="42.27171" lon="3.145065">
        <ele>11</ele>
        <time>2019-08-19T01:00:59Z</time>
      </trkpt>
      <trkpt lat="42.271714" lon="3.144996">
        <ele>11</ele>
        <time>2019-08-19T01:01:00Z</time>
      </trkpt>
      <trkpt lat="42.271717" lon="3.144927">
        <ele>11</ele>
        <time>2019-08-19T01:01:01Z</time>
      </trkpt>
      <trkpt lat="42.271721" lon="3.144859">
        <ele>11</ele>
        <time>2019-08-19T01:01:02Z</time>
      </trkpt>
      <trkpt lat="42.271724" lon="3.14479">
        <ele>11</ele>
        <time>2019-08-19T01:01:03Z</time>
      </trkpt>
      <trkpt lat="42.271728" lon="3.144721">
        <ele>12</ele>
        <time>2019-08-19T01:01:04Z</time>
      </trkpt>
      <trkpt lat="42.271735" lon="3.144569">
        <ele>12</ele>
        <time>2019-08-19T01:01:05Z</time>
      </trkpt>
      <trkpt lat="42.271737" lon="3.144492">
        <ele>12</ele>
        <time>2019-08-19T01:01:06Z</time>
      </trkpt>
      <trkpt lat="42.27174" lon="3.144416">
        <ele>12</ele>
        <time>2019-08-19T01:01:08Z</time>
      </trkpt>
      <trkpt lat="42.271742" lon="3.14434">
        <ele>12</ele>
        <time>2019-08-19T01:01:09Z</time>
      </trkpt>
      <trkpt lat="42.271745" lon="3.144263">
        <ele>12</ele>
        <time>2019-08-19T01:01:10Z</time>
      </trkpt>
      <trkpt lat="42.271747" lon="3.144187">
        <ele>12</ele>
        <time>2019-08-19T01:01:11Z</time>
      </trkpt>
      <trkpt lat="42.27175" lon="3.144111">
        <ele>12</ele>
        <time>2019-08-19T01:01:12Z</time>
      </trkpt>
      <trkpt lat="42.271752" lon="3.144034">
        <ele>12</ele>
        <time>2019-08-19T01:01:13Z</time>
      </trkpt>
      <trkpt lat="42.271755" lon="3.143958">
        <ele>12</ele>
        <time>2019-08-19T01:01:14Z</time>
      </trkpt>
      <trkpt lat="42.271761" lon="3.143809">
        <ele>12</ele>
        <time>2019-08-19T01:01:15Z</time>
      </trkpt>
      <trkpt lat="42.271765" lon="3.143736">
        <ele>12</ele>
        <time>2019-08-19T01:01:16Z</time>
      </trkpt>
      <trkpt lat="42.271768" lon="3.143664">
        <ele>12</ele>
        <time>2019-08-19T01:01:17Z</time>
      </trkpt>
      <trkpt lat="42.271771" lon="3.143592">
        <ele>12</ele>
        <time>2019-08-19T01:01:18Z</time>
      </trkpt>
      <trkpt lat="42.271775" lon="3.14352">
        <ele>12</ele>
        <time>2019-08-19T01:01:19Z</time>
      </trkpt>
      <trkpt lat="42.271778" lon="3.143447">
        <ele>12</ele>
        <time>2019-08-19T01:01:20Z</time>
      </trkpt>
      <trkpt lat="42.271781" lon="3.143375">
        <ele>12</ele>
        <time>2019-08-19T01:01:21Z</time>
      </trkpt>
      <trkpt lat="42.271784" lon="3.143303">
        <ele>12</ele>
        <time>2019-08-19T01:01:22Z</time>
      </trkpt>
      <trkpt lat="42.271788" lon="3.14323">
        <ele>12</ele>
        <time>2019-08-19T01:01:23Z</time>
      </trkpt>
      <trkpt lat="42.271791" lon="3.143158">
        <ele>11</ele>
        <time>2019-08-19T01:01:24Z</time>
      </trkpt>
      <trkpt lat="42.271798" lon="3.143005">
        <ele>11</ele>
        <time>2019-08-19T01:01:25Z</time>
      </trkpt>
      <trkpt lat="42.271802" lon="3.142931">
        <ele>11</ele>
        <time>2019-08-19T01:01:26Z</time>
      </trkpt>
      <trkpt lat="42.271805" lon="3.142858">
        <ele>11</ele>
        <time>2019-08-19T01:01:27Z</time>
      </trkpt>
      <trkpt lat="42.271808" lon="3.142785">
        <ele>11</ele>
        <time>2019-08-19T01:01:28Z</time>
      </trkpt>
      <trkpt lat="42.271812" lon="3.142712">
        <ele>11</ele>
        <time>2019-08-19T01:01:29Z</time>
      </trkpt>
      <trkpt lat="42.271815" lon="3.142638">
        <ele>11</ele>
        <time>2019-08-19T01:01:30Z</time>
      </trkpt>
      <trkpt lat="42.271818" lon="3.142565">
        <ele>11</ele>
        <time>2019-08-19T01:01:31Z</time>
      </trkpt>
      <trkpt lat="42.271821" lon="3.142492">
        <ele>11</ele>
        <time>2019-08-19T01:01:32Z</time>
      </trkpt>
      <trkpt lat="42.271825" lon="3.142418">
        <ele>11</ele>
        <time>2019-08-19T01:01:33Z</time>
      </trkpt>
      <trkpt lat="42.271828" lon="3.142345">
        <ele>10</ele>
        <time>2019-08-19T01:01:34Z</time>
      </trkpt>
      <trkpt lat="42.271834" lon="3.14218">
        <ele>10</ele>
        <time>2019-08-19T01:01:35Z</time>
      </trkpt>
      <trkpt lat="42.271837" lon="3.142098">
        <ele>10</ele>
        <time>2019-08-19T01:01:36Z</time>
      </trkpt>
      <trkpt lat="42.27184" lon="3.142015">
        <ele>10</ele>
        <time>2019-08-19T01:01:37Z</time>
      </trkpt>
      <trkpt lat="42.271843" lon="3.141933">
        <ele>10</ele>
        <time>2019-08-19T01:01:38Z</time>
      </trkpt>
      <trkpt lat="42.271845" lon="3.141851">
        <ele>10</ele>
        <time>2019-08-19T01:01:39Z</time>
      </trkpt>
      <trkpt lat="42.271848" lon="3.141769">
        <ele>10</ele>
        <time>2019-08-19T01:01:40Z</time>
      </trkpt>
      <trkpt lat="42.271851" lon="3.141686">
        <ele>10</ele>
        <time>2019-08-19T01:01:42Z</time>
      </trkpt>
      <trkpt lat="42.271854" lon="3.141604">
        <ele>10</ele>
        <time>2019-08-19T01:01:43Z</time>
      </trkpt>
      <trkpt lat="42.271857" lon="3.141522">
        <ele>11</ele>
        <time>2019-08-19T01:01:44Z</time>
      </trkpt>
      <trkpt lat="42.271863" lon="3.141368">
        <ele>11</ele>
        <time>2019-08-19T01:01:45Z</time>
      </trkpt>
      <trkpt lat="42.271867" lon="3.141294">
        <ele>11</ele>
        <time>2019-08-19T01:01:46Z</time>
      </trkpt>
      <trkpt lat="42.271872" lon="3.141221">
        <ele>11</ele>
        <time>2019-08-19T01:01:47Z</time>
      </trkpt>
      <trkpt lat="42.271876" lon="3.141147">
        <ele>11</ele>
        <time>2019-08-19T01:01:48Z</time>
      </trkpt>
      <trkpt lat="42.271881" lon="3.141073">
        <ele>11</ele>
        <time>2019-08-19T01:01:49Z</time>
      </trkpt>
      <trkpt lat="42.271886" lon="3.140999">
        <ele>11</ele>
        <time>2019-08-19T01:01:50Z</time>
      </trkpt>
      <trkpt lat="42.27189" lon="3.140925">
        <ele>11</ele>
        <time>2019-08-19T01:01:51Z</time>
      </trkpt>
      <trkpt lat="42.271895" lon="3.140852">
        <ele>11</ele>
        <time>2019-08-19T01:01:52Z</time>
      </trkpt>
      <trkpt lat="42.271899" lon="3.140778">
        <ele>11</ele>
        <time>2019-08-19T01:01:53Z</time>
      </trkpt>
      <trkpt lat="42.271904" lon="3.140704">
        <ele>11</ele>
        <time>2019-08-19T01:01:54Z</time>
      </trkpt>
      <trkpt lat="42.271912" lon="3.14055">
        <ele>11</ele>
        <time>2019-08-19T01:01:55Z</time>
      </trkpt>
      <trkpt lat="42.271916" lon="3.140477">
        <ele>11</ele>
        <time>2019-08-19T01:01:56Z</time>
      </trkpt>
      <trkpt lat="42.271919" lon="3.140403">
        <ele>11</ele>
        <time>2019-08-19T01:01:57Z</time>
      </trkpt>
      <trkpt lat="42.271923" lon="3.14033">
        <ele>11</ele>
        <time>2019-08-19T01:01:58Z</time>
      </trkpt>
      <trkpt lat="42.271926" lon="3.140257">
        <ele>11</ele>
        <time>2019-08-19T01:01:59Z</time>
      </trkpt>
      <trkpt lat="42.271929" lon="3.140184">
        <ele>11</ele>
        <time>2019-08-19T01:02:00Z</time>
      </trkpt>
      <trkpt lat="42.271933" lon="3.140111">
        <ele>11</ele>
        <time>2019-08-19T01:02:01Z</time>
      </trkpt>
      <trkpt lat="42.271936" lon="3.140037">
        <ele>11</ele>
        <time>2019-08-19T01:02:02Z</time>
      </trkpt>
      <trkpt lat="42.27194" lon="3.139964">
        <ele>11</ele>
        <time>2019-08-19T01:02:03Z</time>
      </trkpt>
      <trkpt lat="42.271943" lon="3.139891">
        <ele>11</ele>
        <time>2019-08-19T01:02:04Z</time>
      </trkpt>
      <trkpt lat="42.271949" lon="3.139738">
        <ele>11</ele>
        <time>2019-08-19T01:02:05Z</time>
      </trkpt>
      <trkpt lat="42.271953" lon="3.139664">
        <ele>11</ele>
        <time>2019-08-19T01:02:06Z</time>
      </trkpt>
      <trkpt lat="42.271957" lon="3.139591">
        <ele>11</ele>
        <time>2019-08-19T01:02:07Z</time>
      </trkpt>
      <trkpt lat="42.271961" lon="3.139517">
        <ele>11</ele>
        <time>2019-08-19T01:02:08Z</time>
      </trkpt>
      <trkpt lat="42.271966" lon="3.139444">
        <ele>11</ele>
        <time>2019-08-19T01:02:09Z</time>
      </trkpt>
      <trkpt lat="42.27197" lon="3.139371">
        <ele>11</ele>
        <time>2019-08-19T01:02:10Z</time>
      </trkpt>
      <trkpt lat="42.271974" lon="3.139297">
        <ele>11</ele>
        <time>2019-08-19T01:02:11Z</time>
      </trkpt>
      <trkpt lat="42.271978" lon="3.139224">
        <ele>11</ele>
        <time>2019-08-19T01:02:12Z</time>
      </trkpt>
      <trkpt lat="42.271982" lon="3.13915">
        <ele>11</ele>
        <time>2019-08-19T01:02:13Z</time>
      </trkpt>
      <trkpt lat="42.271986" lon="3.139077">
        <ele>10</ele>
        <time>2019-08-19T01:02:14Z</time>
      </trkpt>
      <trkpt lat="42.271993" lon="3.138916">
        <ele>10</ele>
        <time>2019-08-19T01:02:15Z</time>
      </trkpt>
      <trkpt lat="42.271997" lon="3.138838">
        <ele>10</ele>
        <time>2019-08-19T01:02:16Z</time>
      </trkpt>
      <trkpt lat="42.272" lon="3.13876">
        <ele>10</ele>
        <time>2019-08-19T01:02:17Z</time>
      </trkpt>
      <trkpt lat="42.272004" lon="3.138682">
        <ele>10</ele>
        <time>2019-08-19T01:02:18Z</time>
      </trkpt>
      <trkpt lat="42.272008" lon="3.138604">
        <ele>10</ele>
        <time>2019-08-19T01:02:19Z</time>
      </trkpt>
      <trkpt lat="42.272012" lon="3.138526">
        <ele>10</ele>
        <time>2019-08-19T01:02:20Z</time>
      </trkpt>
      <trkpt lat="42.272015" lon="3.138448">
        <ele>10</ele>
        <time>2019-08-19T01:02:21Z</time>
      </trkpt>
      <trkpt lat="42.272019" lon="3.13837">
        <ele>10</ele>
        <time>2019-08-19T01:02:23Z</time>
      </trkpt>
      <trkpt lat="42.272023" lon="3.138292">
        <ele>9</ele>
        <time>2019-08-19T01:02:24Z</time>
      </trkpt>
      <trkpt lat="42.272036" lon="3.138083">
        <ele>9</ele>
        <time>2019-08-19T01:02:25Z</time>
      </trkpt>
      <trkpt lat="42.272044" lon="3.137998">
        <ele>9</ele>
        <time>2019-08-19T01:02:26Z</time>
      </trkpt>
      <trkpt lat="42.272051" lon="3.137914">
        <ele>9</ele>
        <time>2019-08-19T01:02:27Z</time>
      </trkpt>
      <trkpt lat="42.272058" lon="3.13783">
        <ele>9</ele>
        <time>2019-08-19T01:02:28Z</time>
      </trkpt>
      <trkpt lat="42.272066" lon="3.137745">
        <ele>9</ele>
        <time>2019-08-19T01:02:30Z</time>
      </trkpt>
      <trkpt lat="42.272073" lon="3.137661">
        <ele>9</ele>
        <time>2019-08-19T01:02:31Z</time>
      </trkpt>
      <trkpt lat="42.27208" lon="3.137577">
        <ele>9</ele>
        <time>2019-08-19T01:02:32Z</time>
      </trkpt>
      <trkpt lat="42.272088" lon="3.137492">
        <ele>9</ele>
        <time>2019-08-19T01:02:33Z</time>
      </trkpt>
      <trkpt lat="42.272095" lon="3.137408">
        <ele>8</ele>
        <time>2019-08-19T01:02:34Z</time>
      </trkpt>
      <trkpt lat="42.272121" lon="3.137237">
        <ele>8</ele>
        <time>2019-08-19T01:02:35Z</time>
      </trkpt>
      <trkpt lat="42.272136" lon="3.137147">
        <ele>8</ele>
        <time>2019-08-19T01:02:36Z</time>
      </trkpt>
      <trkpt lat="42.27215" lon="3.137058">
        <ele>8</ele>
        <time>2019-08-19T01:02:37Z</time>
      </trkpt>
      <trkpt lat="42.272165" lon="3.136969">
        <ele>8</ele>
        <time>2019-08-19T01:02:39Z</time>
      </trkpt>
      <trkpt lat="42.27218" lon="3.136879">
        <ele>8</ele>
        <time>2019-08-19T01:02:40Z</time>
      </trkpt>
      <trkpt lat="42.272195" lon="3.13679">
        <ele>8</ele>
        <time>2019-08-19T01:02:41Z</time>
      </trkpt>
      <trkpt lat="42.272209" lon="3.1367">
        <ele>8</ele>
        <time>2019-08-19T01:02:43Z</time>
      </trkpt>
      <trkpt lat="42.272224" lon="3.136611">
        <ele>8</ele>
        <time>2019-08-19T01:02:44Z</time>
      </trkpt>
      <trkpt lat="42.272252" lon="3.136457">
        <ele>8</ele>
        <time>2019-08-19T01:02:45Z</time>
      </trkpt>
      <trkpt lat="42.272266" lon="3.136382">
        <ele>8</ele>
        <time>2019-08-19T01:02:47Z</time>
      </trkpt>
      <trkpt lat="42.272279" lon="3.136306">
        <ele>8</ele>
        <time>2019-08-19T01:02:48Z</time>
      </trkpt>
      <trkpt lat="42.272293" lon="3.136231">
        <ele>8</ele>
        <time>2019-08-19T01:02:49Z</time>
      </trkpt>
      <trkpt lat="42.272307" lon="3.136155">
        <ele>8</ele>
        <time>2019-08-19T01:02:50Z</time>
      </trkpt>
      <trkpt lat="42.272321" lon="3.13608">
        <ele>8</ele>
        <time>2019-08-19T01:02:51Z</time>
      </trkpt>
      <trkpt lat="42.272334" lon="3.136004">
        <ele>8</ele>
        <time>2019-08-19T01:02:52Z</time>
      </trkpt>
      <trkpt lat="42.272348" lon="3.135929">
        <ele>8</ele>
        <time>2019-08-19T01:02:53Z</time>
      </trkpt>
      <trkpt lat="42.272362" lon="3.135853">
        <ele>9</ele>
        <time>2019-08-19T01:02:54Z</time>
      </trkpt>
      <trkpt lat="42.272391" lon="3.135645">
        <ele>9</ele>
        <time>2019-08-19T01:02:56Z</time>
      </trkpt>
      <trkpt lat="42.272402" lon="3.135582">
        <ele>9</ele>
        <time>2019-08-19T01:02:57Z</time>
      </trkpt>
      <trkpt lat="42.272412" lon="3.135518">
        <ele>9</ele>
        <time>2019-08-19T01:02:58Z</time>
      </trkpt>
      <trkpt lat="42.272422" lon="3.135455">
        <ele>9</ele>
        <time>2019-08-19T01:02:59Z</time>
      </trkpt>
      <trkpt lat="42.272432" lon="3.135392">
        <ele>9</ele>
        <time>2019-08-19T01:03:00Z</time>
      </trkpt>
      <trkpt lat="42.272443" lon="3.135329">
        <ele>9</ele>
        <time>2019-08-19T01:03:02Z</time>
      </trkpt>
      <trkpt lat="42.272453" lon="3.135265">
        <ele>9</ele>
        <time>2019-08-19T01:03:03Z</time>
      </trkpt>
      <trkpt lat="42.272463" lon="3.135202">
        <ele>9</ele>
        <time>2019-08-19T01:03:04Z</time>
      </trkpt>
      <trkpt lat="42.272505" lon="3.135055">
        <ele>9</ele>
        <time>2019-08-19T01:03:06Z</time>
      </trkpt>
      <trkpt lat="42.2725" lon="3.135003">
        <ele>9</ele>
        <time>2019-08-19T01:03:07Z</time>
      </trkpt>
      <trkpt lat="42.272494" lon="3.134951">
        <ele>9</ele>
        <time>2019-08-19T01:03:08Z</time>
      </trkpt>
      <trkpt lat="42.272489" lon="3.134899">
        <ele>9</ele>
        <time>2019-08-19T01:03:09Z</time>
      </trkpt>
      <trkpt lat="42.272483" lon="3.134846">
        <ele>9</ele>
        <time>2019-08-19T01:03:10Z</time>
      </trkpt>
      <trkpt lat="42.272478" lon="3.134794">
        <ele>9</ele>
        <time>2019-08-19T01:03:11Z</time>
      </trkpt>
      <trkpt lat="42.272472" lon="3.134742">
        <ele>9</ele>
        <time>2019-08-19T01:03:12Z</time>
      </trkpt>
      <trkpt lat="42.272467" lon="3.13469">
        <ele>9</ele>
        <time>2019-08-19T01:03:13Z</time>
      </trkpt>
      <trkpt lat="42.272461" lon="3.134638">
        <ele>10</ele>
        <time>2019-08-19T01:03:14Z</time>
      </trkpt>
      <trkpt lat="42.272399" lon="3.134515">
        <ele>10</ele>
        <time>2019-08-19T01:03:15Z</time>
      </trkpt>
      <trkpt lat="42.272372" lon="3.134446">
        <ele>10</ele>
        <time>2019-08-19T01:03:17Z</time>
      </trkpt>
      <trkpt lat="42.272344" lon="3.134378">
        <ele>10</ele>
        <time>2019-08-19T01:03:18Z</time>
      </trkpt>
      <trkpt lat="42.272316" lon="3.134309">
        <ele>10</ele>
        <time>2019-08-19T01:03:19Z</time>
      </trkpt>
      <trkpt lat="42.272288" lon="3.13424">
        <ele>10</ele>
        <time>2019-08-19T01:03:21Z</time>
      </trkpt>
      <trkpt lat="42.272261" lon="3.134171">
        <ele>10</ele>
        <time>2019-08-19T01:03:22Z</time>
      </trkpt>
      <trkpt lat="42.272233" lon="3.134103">
        <ele>10</ele>
        <time>2019-08-19T01:03:23Z</time>
      </trkpt>
      <trkpt lat="42.272205" lon="3.134034">
        <ele>10</ele>
        <time>2019-08-19T01:03:24Z</time>
      </trkpt>
      <trkpt lat="42.272151" lon="3.133903">
        <ele>10</ele>
        <time>2019-08-19T01:03:26Z</time>
      </trkpt>
      <trkpt lat="42.272136" lon="3.13387">
        <ele>10</ele>
        <time>2019-08-19T01:03:27Z</time>
      </trkpt>
      <trkpt lat="42.272122" lon="3.133838">
        <ele>10</ele>
        <time>2019-08-19T01:03:28Z</time>
      </trkpt>
      <trkpt lat="42.272107" lon="3.133805">
        <ele>10</ele>
        <time>2019-08-19T01:03:29Z</time>
      </trkpt>
      <trkpt lat="42.272092" lon="3.133772">
        <ele>10</ele>
        <time>2019-08-19T01:03:30Z</time>
      </trkpt>
      <trkpt lat="42.272077" lon="3.133739">
        <ele>10</ele>
        <time>2019-08-19T01:03:31Z</time>
      </trkpt>
      <trkpt lat="42.272063" lon="3.133707">
        <ele>10</ele>
        <time>2019-08-19T01:03:32Z</time>
      </trkpt>
      <trkpt lat="42.272048" lon="3.133674">
        <ele>10</ele>
        <time>2019-08-19T01:03:33Z</time>
      </trkpt>
      <trkpt lat="42.272033" lon="3.133641">
        <ele>12</ele>
        <time>2019-08-19T01:03:34Z</time>
      </trkpt>
      <trkpt lat="42.271993" lon="3.133575">
        <ele>12</ele>
        <time>2019-08-19T01:03:35Z</time>
      </trkpt>
      <trkpt lat="42.271969" lon="3.133536">
        <ele>12</ele>
        <time>2019-08-19T01:03:36Z</time>
      </trkpt>
      <trkpt lat="42.271946" lon="3.133498">
        <ele>12</ele>
        <time>2019-08-19T01:03:37Z</time>
      </trkpt>
      <trkpt lat="42.271922" lon="3.13346">
        <ele>12</ele>
        <time>2019-08-19T01:03:38Z</time>
      </trkpt>
      <trkpt lat="42.271898" lon="3.133421">
        <ele>12</ele>
        <time>2019-08-19T01:03:40Z</time>
      </trkpt>
      <trkpt lat="42.271874" lon="3.133383">
        <ele>12</ele>
        <time>2019-08-19T01:03:41Z</time>
      </trkpt>
      <trkpt lat="42.271851" lon="3.133345">
        <ele>12</ele>
        <time>2019-08-19T01:03:42Z</time>
      </trkpt>
      <trkpt lat="42.271827" lon="3.133306">
        <ele>12</ele>
        <time>2019-08-19T01:03:43Z</time>
      </trkpt>
      <trkpt lat="42.271803" lon="3.133268">
        <ele>13</ele>
        <time>2019-08-19T01:03:44Z</time>
      </trkpt>
      <trkpt lat="42.27174" lon="3.133174">
        <ele>13</ele>
        <time>2019-08-19T01:03:45Z</time>
      </trkpt>
      <trkpt lat="42.271706" lon="3.133124">
        <ele>13</ele>
        <time>2019-08-19T01:03:46Z</time>
      </trkpt>
      <trkpt lat="42.271673" lon="3.133073">
        <ele>13</ele>
        <time>2019-08-19T01:03:47Z</time>
      </trkpt>
      <trkpt lat="42.271639" lon="3.133022">
        <ele>13</ele>
        <time>2019-08-19T01:03:48Z</time>
      </trkpt>
      <trkpt lat="42.271605" lon="3.132972">
        <ele>13</ele>
        <time>2019-08-19T01:03:49Z</time>
      </trkpt>
      <trkpt lat="42.271571" lon="3.132921">
        <ele>13</ele>
        <time>2019-08-19T01:03:50Z</time>
      </trkpt>
      <trkpt lat="42.271538" lon="3.13287">
        <ele>13</ele>
        <time>2019-08-19T01:03:52Z</time>
      </trkpt>
      <trkpt lat="42.271504" lon="3.13282">
        <ele>13</ele>
        <time>2019-08-19T01:03:53Z</time>
      </trkpt>
      <trkpt lat="42.27147" lon="3.132769">
        <ele>13</ele>
        <time>2019-08-19T01:03:54Z</time>
      </trkpt>
      <trkpt lat="42.271387" lon="3.132642">
        <ele>13</ele>
        <time>2019-08-19T01:03:55Z</time>
      </trkpt>
      <trkpt lat="42.271341" lon="3.132573">
        <ele>13</ele>
        <time>2019-08-19T01:03:56Z</time>
      </trkpt>
      <trkpt lat="42.271295" lon="3.132503">
        <ele>13</ele>
        <time>2019-08-19T01:03:57Z</time>
      </trkpt>
      <trkpt lat="42.27125" lon="3.132434">
        <ele>13</ele>
        <time>2019-08-19T01:03:59Z</time>
      </trkpt>
      <trkpt lat="42.271204" lon="3.132364">
        <ele>13</ele>
        <time>2019-08-19T01:04:01Z</time>
      </trkpt>
      <trkpt lat="42.271158" lon="3.132295">
        <ele>13</ele>
        <time>2019-08-19T01:04:02Z</time>
      </trkpt>
      <trkpt lat="42.271112" lon="3.132225">
        <ele>13</ele>
        <time>2019-08-19T01:04:03Z</time>
      </trkpt>
      <trkpt lat="42.271066" lon="3.132156">
        <ele>12</ele>
        <time>2019-08-19T01:04:04Z</time>
      </trkpt>
      <trkpt lat="42.270976" lon="3.13202">
        <ele>12</ele>
        <time>2019-08-19T01:04:05Z</time>
      </trkpt>
      <trkpt lat="42.27093" lon="3.131949">
        <ele>12</ele>
        <time>2019-08-19T01:04:06Z</time>
      </trkpt>
      <trkpt lat="42.270884" lon="3.131879">
        <ele>12</ele>
        <time>2019-08-19T01:04:07Z</time>
      </trkpt>
      <trkpt lat="42.270838" lon="3.131808">
        <ele>12</ele>
        <time>2019-08-19T01:04:09Z</time>
      </trkpt>
      <trkpt lat="42.270793" lon="3.131738">
        <ele>12</ele>
        <time>2019-08-19T01:04:10Z</time>
      </trkpt>
      <trkpt lat="42.270747" lon="3.131667">
        <ele>12</ele>
        <time>2019-08-19T01:04:11Z</time>
      </trkpt>
      <trkpt lat="42.270701" lon="3.131597">
        <ele>12</ele>
        <time>2019-08-19T01:04:12Z</time>
      </trkpt>
      <trkpt lat="42.270655" lon="3.131526">
        <ele>12</ele>
        <time>2019-08-19T01:04:13Z</time>
      </trkpt>
      <trkpt lat="42.270609" lon="3.131456">
        <ele>11</ele>
        <time>2019-08-19T01:04:14Z</time>
      </trkpt>
      <trkpt lat="42.27046" lon="3.131228">
        <ele>11</ele>
        <time>2019-08-19T01:04:16Z</time>
      </trkpt>
      <trkpt lat="42.270405" lon="3.131144">
        <ele>11</ele>
        <time>2019-08-19T01:04:18Z</time>
      </trkpt>
      <trkpt lat="42.27035" lon="3.13106">
        <ele>11</ele>
        <time>2019-08-19T01:04:19Z</time>
      </trkpt>
      <trkpt lat="42.270296" lon="3.130975">
        <ele>11</ele>
        <time>2019-08-19T01:04:20Z</time>
      </trkpt>
      <trkpt lat="42.270241" lon="3.130891">
        <ele>11</ele>
        <time>2019-08-19T01:04:21Z</time>
      </trkpt>
      <trkpt lat="42.270186" lon="3.130807">
        <ele>11</ele>
        <time>2019-08-19T01:04:23Z</time>
      </trkpt>
      <trkpt lat="42.270131" lon="3.130723">
        <ele>10</ele>
        <time>2019-08-19T01:04:24Z</time>
      </trkpt>
      <trkpt lat="42.270036" lon="3.130577">
        <ele>10</ele>
        <time>2019-08-19T01:04:25Z</time>
      </trkpt>
      <trkpt lat="42.269988" lon="3.130506">
        <ele>10</ele>
        <time>2019-08-19T01:04:26Z</time>
      </trkpt>
      <trkpt lat="42.269941" lon="3.130434">
        <ele>10</ele>
        <time>2019-08-19T01:04:27Z</time>
      </trkpt>
      <trkpt lat="42.269893" lon="3.130362">
        <ele>10</ele>
        <time>2019-08-19T01:04:28Z</time>
      </trkpt>
      <trkpt lat="42.269846" lon="3.130291">
        <ele>10</ele>
        <time>2019-08-19T01:04:30Z</time>
      </trkpt>
      <trkpt lat="42.269798" lon="3.130219">
        <ele>10</ele>
        <time>2019-08-19T01:04:31Z</time>
      </trkpt>
      <trkpt lat="42.269751" lon="3.130147">
        <ele>10</ele>
        <time>2019-08-19T01:04:32Z</time>
      </trkpt>
      <trkpt lat="42.269703" lon="3.130076">
        <ele>10</ele>
        <time>2019-08-19T01:04:33Z</time>
      </trkpt>
      <trkpt lat="42.269656" lon="3.130004">
        <ele>8</ele>
        <time>2019-08-19T01:04:34Z</time>
      </trkpt>
      <trkpt lat="42.269556" lon="3.129856">
        <ele>8</ele>
        <time>2019-08-19T01:04:35Z</time>
      </trkpt>
      <trkpt lat="42.269504" lon="3.129777">
        <ele>8</ele>
        <time>2019-08-19T01:04:37Z</time>
      </trkpt>
      <trkpt lat="42.269451" lon="3.129698">
        <ele>8</ele>
        <time>2019-08-19T01:04:38Z</time>
      </trkpt>
      <trkpt lat="42.269399" lon="3.129619">
        <ele>8</ele>
        <time>2019-08-19T01:04:39Z</time>
      </trkpt>
      <trkpt lat="42.269346" lon="3.12954">
        <ele>8</ele>
        <time>2019-08-19T01:04:40Z</time>
      </trkpt>
      <trkpt lat="42.269293" lon="3.129461">
        <ele>8</ele>
        <time>2019-08-19T01:04:41Z</time>
      </trkpt>
      <trkpt lat="42.269241" lon="3.129382">
        <ele>8</ele>
        <time>2019-08-19T01:04:42Z</time>
      </trkpt>
      <trkpt lat="42.269188" lon="3.129303">
        <ele>8</ele>
        <time>2019-08-19T01:04:44Z</time>
      </trkpt>
      <trkpt lat="42.269096" lon="3.129163">
        <ele>8</ele>
        <time>2019-08-19T01:04:45Z</time>
      </trkpt>
      <trkpt lat="42.26905" lon="3.129093">
        <ele>8</ele>
        <time>2019-08-19T01:04:46Z</time>
      </trkpt>
      <trkpt lat="42.269005" lon="3.129024">
        <ele>8</ele>
        <time>2019-08-19T01:04:47Z</time>
      </trkpt>
      <trkpt lat="42.268959" lon="3.128954">
        <ele>8</ele>
        <time>2019-08-19T01:04:48Z</time>
      </trkpt>
      <trkpt lat="42.268914" lon="3.128885">
        <ele>8</ele>
        <time>2019-08-19T01:04:49Z</time>
      </trkpt>
      <trkpt lat="42.268868" lon="3.128815">
        <ele>8</ele>
        <time>2019-08-19T01:04:51Z</time>
      </trkpt>
      <trkpt lat="42.268823" lon="3.128746">
        <ele>8</ele>
        <time>2019-08-19T01:04:52Z</time>
      </trkpt>
      <trkpt lat="42.268777" lon="3.128676">
        <ele>8</ele>
        <time>2019-08-19T01:04:53Z</time>
      </trkpt>
      <trkpt lat="42.268732" lon="3.128607">
        <ele>9</ele>
        <time>2019-08-19T01:04:54Z</time>
      </trkpt>
      <trkpt lat="42.268595" lon="3.128399">
        <ele>9</ele>
        <time>2019-08-19T01:04:56Z</time>
      </trkpt>
      <trkpt lat="42.26855" lon="3.12833">
        <ele>9</ele>
        <time>2019-08-19T01:04:57Z</time>
      </trkpt>
      <trkpt lat="42.268504" lon="3.128261">
        <ele>9</ele>
        <time>2019-08-19T01:04:59Z</time>
      </trkpt>
      <trkpt lat="42.268458" lon="3.128191">
        <ele>9</ele>
        <time>2019-08-19T01:05:00Z</time>
      </trkpt>
      <trkpt lat="42.268412" lon="3.128122">
        <ele>9</ele>
        <time>2019-08-19T01:05:01Z</time>
      </trkpt>
      <trkpt lat="42.268367" lon="3.128053">
        <ele>9</ele>
        <time>2019-08-19T01:05:02Z</time>
      </trkpt>
      <trkpt lat="42.268321" lon="3.127984">
        <ele>9</ele>
        <time>2019-08-19T01:05:03Z</time>
      </trkpt>
      <trkpt lat="42.268275" lon="3.127915">
        <ele>8</ele>
        <time>2019-08-19T01:05:04Z</time>
      </trkpt>
      <trkpt lat="42.268134" lon="3.127699">
        <ele>8</ele>
        <time>2019-08-19T01:05:06Z</time>
      </trkpt>
      <trkpt lat="42.268084" lon="3.127621">
        <ele>8</ele>
        <time>2019-08-19T01:05:07Z</time>
      </trkpt>
      <trkpt lat="42.268034" lon="3.127544">
        <ele>8</ele>
        <time>2019-08-19T01:05:08Z</time>
      </trkpt>
      <trkpt lat="42.267984" lon="3.127466">
        <ele>8</ele>
        <time>2019-08-19T01:05:09Z</time>
      </trkpt>
      <trkpt lat="42.267933" lon="3.127389">
        <ele>8</ele>
        <time>2019-08-19T01:05:10Z</time>
      </trkpt>
      <trkpt lat="42.267883" lon="3.127312">
        <ele>8</ele>
        <time>2019-08-19T01:05:11Z</time>
      </trkpt>
      <trkpt lat="42.267833" lon="3.127234">
        <ele>8</ele>
        <time>2019-08-19T01:05:13Z</time>
      </trkpt>
      <trkpt lat="42.267783" lon="3.127157">
        <ele>8</ele>
        <time>2019-08-19T01:05:15Z</time>
      </trkpt>
      <trkpt lat="42.267702" lon="3.127024">
        <ele>8</ele>
        <time>2019-08-19T01:05:16Z</time>
      </trkpt>
      <trkpt lat="42.267664" lon="3.12696">
        <ele>8</ele>
        <time>2019-08-19T01:05:17Z</time>
      </trkpt>
      <trkpt lat="42.267627" lon="3.126896">
        <ele>8</ele>
        <time>2019-08-19T01:05:18Z</time>
      </trkpt>
      <trkpt lat="42.26759" lon="3.126832">
        <ele>8</ele>
        <time>2019-08-19T01:05:19Z</time>
      </trkpt>
      <trkpt lat="42.267552" lon="3.126767">
        <ele>8</ele>
        <time>2019-08-19T01:05:20Z</time>
      </trkpt>
      <trkpt lat="42.267515" lon="3.126703">
        <ele>8</ele>
        <time>2019-08-19T01:05:21Z</time>
      </trkpt>
      <trkpt lat="42.267478" lon="3.126639">
        <ele>8</ele>
        <time>2019-08-19T01:05:22Z</time>
      </trkpt>
      <trkpt lat="42.26744" lon="3.126575">
        <ele>8</ele>
        <time>2019-08-19T01:05:23Z</time>
      </trkpt>
      <trkpt lat="42.267403" lon="3.126511">
        <ele>7</ele>
        <time>2019-08-19T01:05:24Z</time>
      </trkpt>
      <trkpt lat="42.26733" lon="3.126342">
        <ele>7</ele>
        <time>2019-08-19T01:05:25Z</time>
      </trkpt>
      <trkpt lat="42.267296" lon="3.126251">
        <ele>7</ele>
        <time>2019-08-19T01:05:26Z</time>
      </trkpt>
      <trkpt lat="42.267261" lon="3.12616">
        <ele>7</ele>
        <time>2019-08-19T01:05:28Z</time>
      </trkpt>
      <trkpt lat="42.267227" lon="3.126069">
        <ele>7</ele>
        <time>2019-08-19T01:05:29Z</time>
      </trkpt>
      <trkpt lat="42.267192" lon="3.125978">
        <ele>7</ele>
        <time>2019-08-19T01:05:30Z</time>
      </trkpt>
      <trkpt lat="42.267157" lon="3.125887">
        <ele>7</ele>
        <time>2019-08-19T01:05:31Z</time>
      </trkpt>
      <trkpt lat="42.267123" lon="3.125796">
        <ele>7</ele>
        <time>2019-08-19T01:05:32Z</time>
      </trkpt>
      <trkpt lat="42.267088" lon="3.125705">
        <ele>7</ele>
        <time>2019-08-19T01:05:34Z</time>
      </trkpt>
      <trkpt lat="42.267002" lon="3.12546">
        <ele>7</ele>
        <time>2019-08-19T01:05:36Z</time>
      </trkpt>
      <trkpt lat="42.266973" lon="3.125377">
        <ele>7</ele>
        <time>2019-08-19T01:05:37Z</time>
      </trkpt>
      <trkpt lat="42.266944" lon="3.125294">
        <ele>7</ele>
        <time>2019-08-19T01:05:38Z</time>
      </trkpt>
      <trkpt lat="42.266915" lon="3.125211">
        <ele>7</ele>
        <time>2019-08-19T01:05:39Z</time>
      </trkpt>
      <trkpt lat="42.266886" lon="3.125128">
        <ele>7</ele>
        <time>2019-08-19T01:05:40Z</time>
      </trkpt>
      <trkpt lat="42.266857" lon="3.125045">
        <ele>7</ele>
        <time>2019-08-19T01:05:41Z</time>
      </trkpt>
      <trkpt lat="42.266828" lon="3.124962">
        <ele>7</ele>
        <time>2019-08-19T01:05:43Z</time>
      </trkpt>
      <trkpt lat="42.266799" lon="3.124879">
        <ele>6</ele>
        <time>2019-08-19T01:05:44Z</time>
      </trkpt>
      <trkpt lat="42.266735" lon="3.124698">
        <ele>6</ele>
        <time>2019-08-19T01:05:45Z</time>
      </trkpt>
      <trkpt lat="42.266701" lon="3.124601">
        <ele>6</ele>
        <time>2019-08-19T01:05:46Z</time>
      </trkpt>
      <trkpt lat="42.266667" lon="3.124504">
        <ele>6</ele>
        <time>2019-08-19T01:05:47Z</time>
      </trkpt>
      <trkpt lat="42.266633" lon="3.124406">
        <ele>6</ele>
        <time>2019-08-19T01:05:48Z</time>
      </trkpt>
      <trkpt lat="42.266598" lon="3.124309">
        <ele>6</ele>
        <time>2019-08-19T01:05:50Z</time>
      </trkpt>
      <trkpt lat="42.266564" lon="3.124212">
        <ele>6</ele>
        <time>2019-08-19T01:05:51Z</time>
      </trkpt>
      <trkpt lat="42.26653" lon="3.124115">
        <ele>6</ele>
        <time>2019-08-19T01:05:53Z</time>
      </trkpt>
      <trkpt lat="42.266496" lon="3.124018">
        <ele>7</ele>
        <time>2019-08-19T01:05:54Z</time>
      </trkpt>
      <trkpt lat="42.266435" lon="3.123844">
        <ele>7</ele>
        <time>2019-08-19T01:05:55Z</time>
      </trkpt>
      <trkpt lat="42.266405" lon="3.123758">
        <ele>7</ele>
        <time>2019-08-19T01:05:57Z</time>
      </trkpt>
      <trkpt lat="42.266375" lon="3.123673">
        <ele>7</ele>
        <time>2019-08-19T01:05:58Z</time>
      </trkpt>
      <trkpt lat="42.266345" lon="3.123587">
        <ele>7</ele>
        <time>2019-08-19T01:05:59Z</time>
      </trkpt>
      <trkpt lat="42.266314" lon="3.123501">
        <ele>7</ele>
        <time>2019-08-19T01:06:00Z</time>
      </trkpt>
      <trkpt lat="42.266284" lon="3.123415">
        <ele>7</ele>
        <time>2019-08-19T01:06:01Z</time>
      </trkpt>
      <trkpt lat="42.266254" lon="3.12333">
        <ele>7</ele>
        <time>2019-08-19T01:06:02Z</time>
      </trkpt>
      <trkpt lat="42.266224" lon="3.123244">
        <ele>7</ele>
        <time>2019-08-19T01:06:03Z</time>
      </trkpt>
      <trkpt lat="42.266194" lon="3.123158">
        <ele>7</ele>
        <time>2019-08-19T01:06:04Z</time>
      </trkpt>
      <trkpt lat="42.266135" lon="3.122991">
        <ele>7</ele>
        <time>2019-08-19T01:06:05Z</time>
      </trkpt>
      <trkpt lat="42.266105" lon="3.122907">
        <ele>7</ele>
        <time>2019-08-19T01:06:06Z</time>
      </trkpt>
      <trkpt lat="42.266076" lon="3.122824">
        <ele>7</ele>
        <time>2019-08-19T01:06:07Z</time>
      </trkpt>
      <trkpt lat="42.266046" lon="3.122741">
        <ele>7</ele>
        <time>2019-08-19T01:06:08Z</time>
      </trkpt>
      <trkpt lat="42.266017" lon="3.122657">
        <ele>7</ele>
        <time>2019-08-19T01:06:09Z</time>
      </trkpt>
      <trkpt lat="42.265987" lon="3.122574">
        <ele>7</ele>
        <time>2019-08-19T01:06:11Z</time>
      </trkpt>
      <trkpt lat="42.265958" lon="3.122491">
        <ele>7</ele>
        <time>2019-08-19T01:06:12Z</time>
      </trkpt>
      <trkpt lat="42.265928" lon="3.122407">
        <ele>7</ele>
        <time>2019-08-19T01:06:13Z</time>
      </trkpt>
      <trkpt lat="42.265899" lon="3.122324">
        <ele>7</ele>
        <time>2019-08-19T01:06:14Z</time>
      </trkpt>
      <trkpt lat="42.265841" lon="3.12216">
        <ele>7</ele>
        <time>2019-08-19T01:06:15Z</time>
      </trkpt>
      <trkpt lat="42.265812" lon="3.122078">
        <ele>7</ele>
        <time>2019-08-19T01:06:16Z</time>
      </trkpt>
      <trkpt lat="42.265783" lon="3.121996">
        <ele>7</ele>
        <time>2019-08-19T01:06:17Z</time>
      </trkpt>
      <trkpt lat="42.265754" lon="3.121914">
        <ele>7</ele>
        <time>2019-08-19T01:06:19Z</time>
      </trkpt>
      <trkpt lat="42.265725" lon="3.121832">
        <ele>7</ele>
        <time>2019-08-19T01:06:20Z</time>
      </trkpt>
      <trkpt lat="42.265696" lon="3.12175">
        <ele>7</ele>
        <time>2019-08-19T01:06:21Z</time>
      </trkpt>
      <trkpt lat="42.265667" lon="3.121668">
        <ele>7</ele>
        <time>2019-08-19T01:06:22Z</time>
      </trkpt>
      <trkpt lat="42.265638" lon="3.121586">
        <ele>7</ele>
        <time>2019-08-19T01:06:23Z</time>
      </trkpt>
      <trkpt lat="42.265609" lon="3.121504">
        <ele>7</ele>
        <time>2019-08-19T01:06:24Z</time>
      </trkpt>
      <trkpt lat="42.265527" lon="3.121256">
        <ele>7</ele>
        <time>2019-08-19T01:06:26Z</time>
      </trkpt>
      <trkpt lat="42.265502" lon="3.12117">
        <ele>7</ele>
        <time>2019-08-19T01:06:27Z</time>
      </trkpt>
      <trkpt lat="42.265477" lon="3.121085">
        <ele>7</ele>
        <time>2019-08-19T01:06:28Z</time>
      </trkpt>
      <trkpt lat="42.265452" lon="3.120999">
        <ele>7</ele>
        <time>2019-08-19T01:06:29Z</time>
      </trkpt>
      <trkpt lat="42.265427" lon="3.120913">
        <ele>7</ele>
        <time>2019-08-19T01:06:31Z</time>
      </trkpt>
      <trkpt lat="42.265402" lon="3.120827">
        <ele>7</ele>
        <time>2019-08-19T01:06:32Z</time>
      </trkpt>
      <trkpt lat="42.265377" lon="3.120742">
        <ele>7</ele>
        <time>2019-08-19T01:06:33Z</time>
      </trkpt>
      <trkpt lat="42.265352" lon="3.120656">
        <ele>8</ele>
        <time>2019-08-19T01:06:34Z</time>
      </trkpt>
      <trkpt lat="42.265325" lon="3.120477">
        <ele>8</ele>
        <time>2019-08-19T01:06:35Z</time>
      </trkpt>
      <trkpt lat="42.265317" lon="3.120388">
        <ele>8</ele>
        <time>2019-08-19T01:06:36Z</time>
      </trkpt>
      <trkpt lat="42.265309" lon="3.120298">
        <ele>8</ele>
        <time>2019-08-19T01:06:37Z</time>
      </trkpt>
      <trkpt lat="42.265301" lon="3.120209">
        <ele>8</ele>
        <time>2019-08-19T01:06:38Z</time>
      </trkpt>
      <trkpt lat="42.265292" lon="3.12012">
        <ele>8</ele>
        <time>2019-08-19T01:06:39Z</time>
      </trkpt>
      <trkpt lat="42.265284" lon="3.120031">
        <ele>8</ele>
        <time>2019-08-19T01:06:41Z</time>
      </trkpt>
      <trkpt lat="42.265276" lon="3.119941">
        <ele>8</ele>
        <time>2019-08-19T01:06:42Z</time>
      </trkpt>
      <trkpt lat="42.265268" lon="3.119852">
        <ele>8</ele>
        <time>2019-08-19T01:06:43Z</time>
      </trkpt>
      <trkpt lat="42.26526" lon="3.119763">
        <ele>7</ele>
        <time>2019-08-19T01:06:44Z</time>
      </trkpt>
      <trkpt lat="42.265257" lon="3.119587">
        <ele>7</ele>
        <time>2019-08-19T01:06:45Z</time>
      </trkpt>
      <trkpt lat="42.265256" lon="3.119499">
        <ele>7</ele>
        <time>2019-08-19T01:06:46Z</time>
      </trkpt>
      <trkpt lat="42.265255" lon="3.119411">
        <ele>7</ele>
        <time>2019-08-19T01:06:47Z</time>
      </trkpt>
      <trkpt lat="42.265254" lon="3.119323">
        <ele>7</ele>
        <time>2019-08-19T01:06:49Z</time>
      </trkpt>
      <trkpt lat="42.265252" lon="3.119235">
        <ele>7</ele>
        <time>2019-08-19T01:06:50Z</time>
      </trkpt>
      <trkpt lat="42.265251" lon="3.119147">
        <ele>7</ele>
        <time>2019-08-19T01:06:51Z</time>
      </trkpt>
      <trkpt lat="42.26525" lon="3.119059">
        <ele>7</ele>
        <time>2019-08-19T01:06:52Z</time>
      </trkpt>
      <trkpt lat="42.265249" lon="3.118971">
        <ele>7</ele>
        <time>2019-08-19T01:06:53Z</time>
      </trkpt>
      <trkpt lat="42.265248" lon="3.118883">
        <ele>7</ele>
        <time>2019-08-19T01:06:54Z</time>
      </trkpt>
      <trkpt lat="42.265243" lon="3.118623">
        <ele>7</ele>
        <time>2019-08-19T01:06:56Z</time>
      </trkpt>
      <trkpt lat="42.265241" lon="3.118535">
        <ele>7</ele>
        <time>2019-08-19T01:06:57Z</time>
      </trkpt>
      <trkpt lat="42.26524" lon="3.118447">
        <ele>7</ele>
        <time>2019-08-19T01:06:58Z</time>
      </trkpt>
      <trkpt lat="42.265238" lon="3.118359">
        <ele>7</ele>
        <time>2019-08-19T01:06:59Z</time>
      </trkpt>
      <trkpt lat="42.265237" lon="3.118271">
        <ele>7</ele>
        <time>2019-08-19T01:07:00Z</time>
      </trkpt>
      <trkpt lat="42.265235" lon="3.118183">
        <ele>7</ele>
        <time>2019-08-19T01:07:01Z</time>
      </trkpt>
      <trkpt lat="42.265234" lon="3.118095">
        <ele>7</ele>
        <time>2019-08-19T01:07:02Z</time>
      </trkpt>
      <trkpt lat="42.265232" lon="3.118007">
        <ele>7</ele>
        <time>2019-08-19T01:07:04Z</time>
      </trkpt>
      <trkpt lat="42.265229" lon="3.117829">
        <ele>7</ele>
        <time>2019-08-19T01:07:05Z</time>
      </trkpt>
      <trkpt lat="42.265227" lon="3.117739">
        <ele>7</ele>
        <time>2019-08-19T01:07:06Z</time>
      </trkpt>
      <trkpt lat="42.265226" lon="3.117649">
        <ele>7</ele>
        <time>2019-08-19T01:07:07Z</time>
      </trkpt>
      <trkpt lat="42.265224" lon="3.117559">
        <ele>7</ele>
        <time>2019-08-19T01:07:09Z</time>
      </trkpt>
      <trkpt lat="42.265223" lon="3.117468">
        <ele>7</ele>
        <time>2019-08-19T01:07:10Z</time>
      </trkpt>
      <trkpt lat="42.265221" lon="3.117378">
        <ele>7</ele>
        <time>2019-08-19T01:07:11Z</time>
      </trkpt>
      <trkpt lat="42.26522" lon="3.117288">
        <ele>7</ele>
        <time>2019-08-19T01:07:12Z</time>
      </trkpt>
      <trkpt lat="42.265218" lon="3.117198">
        <ele>7</ele>
        <time>2019-08-19T01:07:13Z</time>
      </trkpt>
      <trkpt lat="42.265217" lon="3.117108">
        <ele>7</ele>
        <time>2019-08-19T01:07:14Z</time>
      </trkpt>
      <trkpt lat="42.265213" lon="3.116926">
        <ele>7</ele>
        <time>2019-08-19T01:07:15Z</time>
      </trkpt>
      <trkpt lat="42.265211" lon="3.116833">
        <ele>7</ele>
        <time>2019-08-19T01:07:16Z</time>
      </trkpt>
      <trkpt lat="42.26521" lon="3.116741">
        <ele>7</ele>
        <time>2019-08-19T01:07:17Z</time>
      </trkpt>
      <trkpt lat="42.265208" lon="3.116648">
        <ele>7</ele>
        <time>2019-08-19T01:07:19Z</time>
      </trkpt>
      <trkpt lat="42.265206" lon="3.116556">
        <ele>7</ele>
        <time>2019-08-19T01:07:20Z</time>
      </trkpt>
      <trkpt lat="42.265204" lon="3.116463">
        <ele>7</ele>
        <time>2019-08-19T01:07:21Z</time>
      </trkpt>
      <trkpt lat="42.265203" lon="3.116371">
        <ele>7</ele>
        <time>2019-08-19T01:07:22Z</time>
      </trkpt>
      <trkpt lat="42.265201" lon="3.116278">
        <ele>7</ele>
        <time>2019-08-19T01:07:23Z</time>
      </trkpt>
      <trkpt lat="42.265199" lon="3.116186">
        <ele>7</ele>
        <time>2019-08-19T01:07:24Z</time>
      </trkpt>
      <trkpt lat="42.265192" lon="3.115893">
        <ele>7</ele>
        <time>2019-08-19T01:07:26Z</time>
      </trkpt>
      <trkpt lat="42.26519" lon="3.115787">
        <ele>7</ele>
        <time>2019-08-19T01:07:28Z</time>
      </trkpt>
      <trkpt lat="42.265188" lon="3.115681">
        <ele>7</ele>
        <time>2019-08-19T01:07:29Z</time>
      </trkpt>
      <trkpt lat="42.265185" lon="3.115574">
        <ele>7</ele>
        <time>2019-08-19T01:07:30Z</time>
      </trkpt>
      <trkpt lat="42.265183" lon="3.115468">
        <ele>7</ele>
        <time>2019-08-19T01:07:31Z</time>
      </trkpt>
      <trkpt lat="42.265181" lon="3.115362">
        <ele>7</ele>
        <time>2019-08-19T01:07:33Z</time>
      </trkpt>
      <trkpt lat="42.265179" lon="3.115256">
        <ele>7</ele>
        <time>2019-08-19T01:07:34Z</time>
      </trkpt>
      <trkpt lat="42.265174" lon="3.115075">
        <ele>7</ele>
        <time>2019-08-19T01:07:35Z</time>
      </trkpt>
      <trkpt lat="42.265173" lon="3.114985">
        <ele>7</ele>
        <time>2019-08-19T01:07:36Z</time>
      </trkpt>
      <trkpt lat="42.265171" lon="3.114895">
        <ele>7</ele>
        <time>2019-08-19T01:07:37Z</time>
      </trkpt>
      <trkpt lat="42.26517" lon="3.114805">
        <ele>7</ele>
        <time>2019-08-19T01:07:38Z</time>
      </trkpt>
      <trkpt lat="42.265168" lon="3.114714">
        <ele>7</ele>
        <time>2019-08-19T01:07:39Z</time>
      </trkpt>
      <trkpt lat="42.265167" lon="3.114624">
        <ele>7</ele>
        <time>2019-08-19T01:07:41Z</time>
      </trkpt>
      <trkpt lat="42.265165" lon="3.114534">
        <ele>7</ele>
        <time>2019-08-19T01:07:42Z</time>
      </trkpt>
      <trkpt lat="42.265164" lon="3.114444">
        <ele>7</ele>
        <time>2019-08-19T01:07:43Z</time>
      </trkpt>
      <trkpt lat="42.265162" lon="3.114354">
        <ele>7</ele>
        <time>2019-08-19T01:07:44Z</time>
      </trkpt>
      <trkpt lat="42.265159" lon="3.114172">
        <ele>7</ele>
        <time>2019-08-19T01:07:45Z</time>
      </trkpt>
      <trkpt lat="42.265157" lon="3.114076">
        <ele>7</ele>
        <time>2019-08-19T01:07:47Z</time>
      </trkpt>
      <trkpt lat="42.265155" lon="3.113981">
        <ele>7</ele>
        <time>2019-08-19T01:07:49Z</time>
      </trkpt>
      <trkpt lat="42.265153" lon="3.113885">
        <ele>7</ele>
        <time>2019-08-19T01:07:50Z</time>
      </trkpt>
      <trkpt lat="42.265151" lon="3.11379">
        <ele>7</ele>
        <time>2019-08-19T01:07:51Z</time>
      </trkpt>
      <trkpt lat="42.265149" lon="3.113695">
        <ele>7</ele>
        <time>2019-08-19T01:07:52Z</time>
      </trkpt>
      <trkpt lat="42.265147" lon="3.113599">
        <ele>7</ele>
        <time>2019-08-19T01:07:53Z</time>
      </trkpt>
      <trkpt lat="42.265145" lon="3.113504">
        <ele>7</ele>
        <time>2019-08-19T01:07:54Z</time>
      </trkpt>
      <trkpt lat="42.26514" lon="3.113262">
        <ele>7</ele>
        <time>2019-08-19T01:07:56Z</time>
      </trkpt>
      <trkpt lat="42.265138" lon="3.113185">
        <ele>7</ele>
        <time>2019-08-19T01:07:57Z</time>
      </trkpt>
      <trkpt lat="42.265136" lon="3.113108">
        <ele>7</ele>
        <time>2019-08-19T01:07:58Z</time>
      </trkpt>
      <trkpt lat="42.265134" lon="3.113031">
        <ele>7</ele>
        <time>2019-08-19T01:07:59Z</time>
      </trkpt>
      <trkpt lat="42.265132" lon="3.112955">
        <ele>7</ele>
        <time>2019-08-19T01:08:00Z</time>
      </trkpt>
      <trkpt lat="42.26513" lon="3.112878">
        <ele>7</ele>
        <time>2019-08-19T01:08:01Z</time>
      </trkpt>
      <trkpt lat="42.265128" lon="3.112801">
        <ele>7</ele>
        <time>2019-08-19T01:08:02Z</time>
      </trkpt>
      <trkpt lat="42.265126" lon="3.112724">
        <ele>7</ele>
        <time>2019-08-19T01:08:03Z</time>
      </trkpt>
      <trkpt lat="42.265124" lon="3.112647">
        <ele>7</ele>
        <time>2019-08-19T01:08:05Z</time>
      </trkpt>
      <trkpt lat="42.265119" lon="3.112492">
        <ele>7</ele>
        <time>2019-08-19T01:08:06Z</time>
      </trkpt>
      <trkpt lat="42.265117" lon="3.112413">
        <ele>7</ele>
        <time>2019-08-19T01:08:07Z</time>
      </trkpt>
      <trkpt lat="42.265114" lon="3.112335">
        <ele>7</ele>
        <time>2019-08-19T01:08:08Z</time>
      </trkpt>
      <trkpt lat="42.265112" lon="3.112256">
        <ele>7</ele>
        <time>2019-08-19T01:08:09Z</time>
      </trkpt>
      <trkpt lat="42.265109" lon="3.112177">
        <ele>7</ele>
        <time>2019-08-19T01:08:10Z</time>
      </trkpt>
      <trkpt lat="42.265106" lon="3.112098">
        <ele>7</ele>
        <time>2019-08-19T01:08:11Z</time>
      </trkpt>
      <trkpt lat="42.265104" lon="3.11202">
        <ele>7</ele>
        <time>2019-08-19T01:08:12Z</time>
      </trkpt>
      <trkpt lat="42.265101" lon="3.111941">
        <ele>7</ele>
        <time>2019-08-19T01:08:14Z</time>
      </trkpt>
      <trkpt lat="42.265095" lon="3.111802">
        <ele>7</ele>
        <time>2019-08-19T01:08:15Z</time>
      </trkpt>
      <trkpt lat="42.265091" lon="3.11174">
        <ele>7</ele>
        <time>2019-08-19T01:08:16Z</time>
      </trkpt>
      <trkpt lat="42.265088" lon="3.111679">
        <ele>7</ele>
        <time>2019-08-19T01:08:17Z</time>
      </trkpt>
      <trkpt lat="42.265085" lon="3.111617">
        <ele>7</ele>
        <time>2019-08-19T01:08:18Z</time>
      </trkpt>
      <trkpt lat="42.265081" lon="3.111556">
        <ele>7</ele>
        <time>2019-08-19T01:08:19Z</time>
      </trkpt>
      <trkpt lat="42.265078" lon="3.111494">
        <ele>7</ele>
        <time>2019-08-19T01:08:20Z</time>
      </trkpt>
      <trkpt lat="42.265075" lon="3.111433">
        <ele>7</ele>
        <time>2019-08-19T01:08:21Z</time>
      </trkpt>
      <trkpt lat="42.265071" lon="3.111371">
        <ele>7</ele>
        <time>2019-08-19T01:08:23Z</time>
      </trkpt>
      <trkpt lat="42.265068" lon="3.11131">
        <ele>7</ele>
        <time>2019-08-19T01:08:24Z</time>
      </trkpt>
      <trkpt lat="42.265078" lon="3.111224">
        <ele>7</ele>
        <time>2019-08-19T01:08:25Z</time>
      </trkpt>
      <trkpt lat="42.26508" lon="3.111181">
        <ele>7</ele>
        <time>2019-08-19T01:08:26Z</time>
      </trkpt>
      <trkpt lat="42.265082" lon="3.111137">
        <ele>7</ele>
        <time>2019-08-19T01:08:27Z</time>
      </trkpt>
      <trkpt lat="42.265084" lon="3.111094">
        <ele>7</ele>
        <time>2019-08-19T01:08:28Z</time>
      </trkpt>
      <trkpt lat="42.265086" lon="3.111051">
        <ele>7</ele>
        <time>2019-08-19T01:08:29Z</time>
      </trkpt>
      <trkpt lat="42.265088" lon="3.111008">
        <ele>7</ele>
        <time>2019-08-19T01:08:30Z</time>
      </trkpt>
      <trkpt lat="42.26509" lon="3.110965">
        <ele>7</ele>
        <time>2019-08-19T01:08:31Z</time>
      </trkpt>
      <trkpt lat="42.265092" lon="3.110921">
        <ele>7</ele>
        <time>2019-08-19T01:08:32Z</time>
      </trkpt>
      <trkpt lat="42.265094" lon="3.110878">
        <ele>7</ele>
        <time>2019-08-19T01:08:33Z</time>
      </trkpt>
      <trkpt lat="42.265096" lon="3.110835">
        <ele>7</ele>
        <time>2019-08-19T01:08:34Z</time>
      </trkpt>
      <trkpt lat="42.265003" lon="3.110666">
        <ele>7</ele>
        <time>2019-08-19T01:08:36Z</time>
      </trkpt>
      <trkpt lat="42.264968" lon="3.110604">
        <ele>7</ele>
        <time>2019-08-19T01:08:37Z</time>
      </trkpt>
      <trkpt lat="42.264933" lon="3.110542">
        <ele>7</ele>
        <time>2019-08-19T01:08:38Z</time>
      </trkpt>
      <trkpt lat="42.264898" lon="3.110479">
        <ele>7</ele>
        <time>2019-08-19T01:08:39Z</time>
      </trkpt>
      <trkpt lat="42.264862" lon="3.110417">
        <ele>7</ele>
        <time>2019-08-19T01:08:40Z</time>
      </trkpt>
      <trkpt lat="42.264827" lon="3.110355">
        <ele>7</ele>
        <time>2019-08-19T01:08:41Z</time>
      </trkpt>
      <trkpt lat="42.264792" lon="3.110293">
        <ele>7</ele>
        <time>2019-08-19T01:08:42Z</time>
      </trkpt>
      <trkpt lat="42.264757" lon="3.110231">
        <ele>7</ele>
        <time>2019-08-19T01:08:44Z</time>
      </trkpt>
      <trkpt lat="42.26471" lon="3.110079">
        <ele>7</ele>
        <time>2019-08-19T01:08:45Z</time>
      </trkpt>
      <trkpt lat="42.264688" lon="3.110001">
        <ele>7</ele>
        <time>2019-08-19T01:08:46Z</time>
      </trkpt>
      <trkpt lat="42.264666" lon="3.109923">
        <ele>7</ele>
        <time>2019-08-19T01:08:47Z</time>
      </trkpt>
      <trkpt lat="42.264644" lon="3.109845">
        <ele>7</ele>
        <time>2019-08-19T01:08:48Z</time>
      </trkpt>
      <trkpt lat="42.264622" lon="3.109766">
        <ele>7</ele>
        <time>2019-08-19T01:08:49Z</time>
      </trkpt>
      <trkpt lat="42.2646" lon="3.109688">
        <ele>7</ele>
        <time>2019-08-19T01:08:50Z</time>
      </trkpt>
      <trkpt lat="42.264578" lon="3.10961">
        <ele>7</ele>
        <time>2019-08-19T01:08:51Z</time>
      </trkpt>
      <trkpt lat="42.264556" lon="3.109532">
        <ele>7</ele>
        <time>2019-08-19T01:08:53Z</time>
      </trkpt>
      <trkpt lat="42.264534" lon="3.109454">
        <ele>6</ele>
        <time>2019-08-19T01:08:54Z</time>
      </trkpt>
      <trkpt lat="42.264485" lon="3.109283">
        <ele>6</ele>
        <time>2019-08-19T01:08:55Z</time>
      </trkpt>
      <trkpt lat="42.26446" lon="3.109192">
        <ele>6</ele>
        <time>2019-08-19T01:08:56Z</time>
      </trkpt>
      <trkpt lat="42.264434" lon="3.109101">
        <ele>6</ele>
        <time>2019-08-19T01:08:57Z</time>
      </trkpt>
      <trkpt lat="42.264409" lon="3.10901">
        <ele>6</ele>
        <time>2019-08-19T01:08:58Z</time>
      </trkpt>
      <trkpt lat="42.264384" lon="3.10892">
        <ele>6</ele>
        <time>2019-08-19T01:08:59Z</time>
      </trkpt>
      <trkpt lat="42.264359" lon="3.108829">
        <ele>6</ele>
        <time>2019-08-19T01:09:01Z</time>
      </trkpt>
      <trkpt lat="42.264333" lon="3.108738">
        <ele>6</ele>
        <time>2019-08-19T01:09:03Z</time>
      </trkpt>
      <trkpt lat="42.264308" lon="3.108647">
        <ele>6</ele>
        <time>2019-08-19T01:09:04Z</time>
      </trkpt>
      <trkpt lat="42.264263" lon="3.108487">
        <ele>6</ele>
        <time>2019-08-19T01:09:05Z</time>
      </trkpt>
      <trkpt lat="42.264241" lon="3.108406">
        <ele>6</ele>
        <time>2019-08-19T01:09:06Z</time>
      </trkpt>
      <trkpt lat="42.26422" lon="3.108326">
        <ele>6</ele>
        <time>2019-08-19T01:09:07Z</time>
      </trkpt>
      <trkpt lat="42.264198" lon="3.108246">
        <ele>6</ele>
        <time>2019-08-19T01:09:09Z</time>
      </trkpt>
      <trkpt lat="42.264176" lon="3.108165">
        <ele>6</ele>
        <time>2019-08-19T01:09:10Z</time>
      </trkpt>
      <trkpt lat="42.264154" lon="3.108085">
        <ele>6</ele>
        <time>2019-08-19T01:09:11Z</time>
      </trkpt>
      <trkpt lat="42.264133" lon="3.108005">
        <ele>6</ele>
        <time>2019-08-19T01:09:12Z</time>
      </trkpt>
      <trkpt lat="42.264111" lon="3.107924">
        <ele>6</ele>
        <time>2019-08-19T01:09:13Z</time>
      </trkpt>
      <trkpt lat="42.264089" lon="3.107844">
        <ele>6</ele>
        <time>2019-08-19T01:09:14Z</time>
      </trkpt>
      <trkpt lat="42.264046" lon="3.10767">
        <ele>6</ele>
        <time>2019-08-19T01:09:15Z</time>
      </trkpt>
      <trkpt lat="42.264025" lon="3.107577">
        <ele>6</ele>
        <time>2019-08-19T01:09:17Z</time>
      </trkpt>
      <trkpt lat="42.264004" lon="3.107483">
        <ele>6</ele>
        <time>2019-08-19T01:09:18Z</time>
      </trkpt>
      <trkpt lat="42.263983" lon="3.10739">
        <ele>6</ele>
        <time>2019-08-19T01:09:19Z</time>
      </trkpt>
      <trkpt lat="42.263961" lon="3.107296">
        <ele>6</ele>
        <time>2019-08-19T01:09:20Z</time>
      </trkpt>
      <trkpt lat="42.26394" lon="3.107203">
        <ele>6</ele>
        <time>2019-08-19T01:09:22Z</time>
      </trkpt>
      <trkpt lat="42.263919" lon="3.107109">
        <ele>6</ele>
        <time>2019-08-19T01:09:23Z</time>
      </trkpt>
      <trkpt lat="42.263898" lon="3.107016">
        <ele>5</ele>
        <time>2019-08-19T01:09:24Z</time>
      </trkpt>
      <trkpt lat="42.263858" lon="3.106859">
        <ele>5</ele>
        <time>2019-08-19T01:09:25Z</time>
      </trkpt>
      <trkpt lat="42.263839" lon="3.106781">
        <ele>5</ele>
        <time>2019-08-19T01:09:26Z</time>
      </trkpt>
      <trkpt lat="42.263819" lon="3.106703">
        <ele>5</ele>
        <time>2019-08-19T01:09:27Z</time>
      </trkpt>
      <trkpt lat="42.263799" lon="3.106625">
        <ele>5</ele>
        <time>2019-08-19T01:09:28Z</time>
      </trkpt>
      <trkpt lat="42.26378" lon="3.106548">
        <ele>5</ele>
        <time>2019-08-19T01:09:29Z</time>
      </trkpt>
      <trkpt lat="42.26376" lon="3.10647">
        <ele>5</ele>
        <time>2019-08-19T01:09:30Z</time>
      </trkpt>
      <trkpt lat="42.26374" lon="3.106392">
        <ele>5</ele>
        <time>2019-08-19T01:09:31Z</time>
      </trkpt>
      <trkpt lat="42.263721" lon="3.106314">
        <ele>5</ele>
        <time>2019-08-19T01:09:33Z</time>
      </trkpt>
      <trkpt lat="42.263701" lon="3.106236">
        <ele>6</ele>
        <time>2019-08-19T01:09:34Z</time>
      </trkpt>
      <trkpt lat="42.263669" lon="3.106082">
        <ele>6</ele>
        <time>2019-08-19T01:09:35Z</time>
      </trkpt>
      <trkpt lat="42.263653" lon="3.106007">
        <ele>6</ele>
        <time>2019-08-19T01:09:36Z</time>
      </trkpt>
      <trkpt lat="42.263637" lon="3.105933">
        <ele>6</ele>
        <time>2019-08-19T01:09:37Z</time>
      </trkpt>
      <trkpt lat="42.263621" lon="3.105858">
        <ele>6</ele>
        <time>2019-08-19T01:09:38Z</time>
      </trkpt>
      <trkpt lat="42.263605" lon="3.105784">
        <ele>6</ele>
        <time>2019-08-19T01:09:39Z</time>
      </trkpt>
      <trkpt lat="42.263589" lon="3.105709">
        <ele>6</ele>
        <time>2019-08-19T01:09:41Z</time>
      </trkpt>
      <trkpt lat="42.263573" lon="3.105635">
        <ele>6</ele>
        <time>2019-08-19T01:09:42Z</time>
      </trkpt>
      <trkpt lat="42.263557" lon="3.10556">
        <ele>6</ele>
        <time>2019-08-19T01:09:43Z</time>
      </trkpt>
      <trkpt lat="42.263541" lon="3.105486">
        <ele>6</ele>
        <time>2019-08-19T01:09:44Z</time>
      </trkpt>
      <trkpt lat="42.263511" lon="3.10536">
        <ele>6</ele>
        <time>2019-08-19T01:09:45Z</time>
      </trkpt>
      <trkpt lat="42.2635" lon="3.105302">
        <ele>6</ele>
        <time>2019-08-19T01:09:46Z</time>
      </trkpt>
      <trkpt lat="42.263488" lon="3.105243">
        <ele>6</ele>
        <time>2019-08-19T01:09:47Z</time>
      </trkpt>
      <trkpt lat="42.263477" lon="3.105184">
        <ele>6</ele>
        <time>2019-08-19T01:09:48Z</time>
      </trkpt>
      <trkpt lat="42.263465" lon="3.105126">
        <ele>6</ele>
        <time>2019-08-19T01:09:50Z</time>
      </trkpt>
      <trkpt lat="42.263454" lon="3.105067">
        <ele>6</ele>
        <time>2019-08-19T01:09:51Z</time>
      </trkpt>
      <trkpt lat="42.263442" lon="3.105008">
        <ele>6</ele>
        <time>2019-08-19T01:09:52Z</time>
      </trkpt>
      <trkpt lat="42.263431" lon="3.10495">
        <ele>6</ele>
        <time>2019-08-19T01:09:53Z</time>
      </trkpt>
      <trkpt lat="42.263419" lon="3.104891">
        <ele>6</ele>
        <time>2019-08-19T01:09:54Z</time>
      </trkpt>
      <trkpt lat="42.263416" lon="3.104793">
        <ele>6</ele>
        <time>2019-08-19T01:09:55Z</time>
      </trkpt>
      <trkpt lat="42.263407" lon="3.104743">
        <ele>6</ele>
        <time>2019-08-19T01:09:56Z</time>
      </trkpt>
      <trkpt lat="42.263399" lon="3.104693">
        <ele>6</ele>
        <time>2019-08-19T01:09:57Z</time>
      </trkpt>
      <trkpt lat="42.26339" lon="3.104643">
        <ele>6</ele>
        <time>2019-08-19T01:09:58Z</time>
      </trkpt>
      <trkpt lat="42.263382" lon="3.104593">
        <ele>6</ele>
        <time>2019-08-19T01:10:00Z</time>
      </trkpt>
      <trkpt lat="42.263373" lon="3.104543">
        <ele>6</ele>
        <time>2019-08-19T01:10:01Z</time>
      </trkpt>
      <trkpt lat="42.263365" lon="3.104493">
        <ele>6</ele>
        <time>2019-08-19T01:10:03Z</time>
      </trkpt>
      <trkpt lat="42.263356" lon="3.104443">
        <ele>5</ele>
        <time>2019-08-19T01:10:04Z</time>
      </trkpt>
      <trkpt lat="42.263325" lon="3.104359">
        <ele>5</ele>
        <time>2019-08-19T01:10:05Z</time>
      </trkpt>
      <trkpt lat="42.263314" lon="3.104322">
        <ele>5</ele>
        <time>2019-08-19T01:10:06Z</time>
      </trkpt>
      <trkpt lat="42.263304" lon="3.104284">
        <ele>5</ele>
        <time>2019-08-19T01:10:07Z</time>
      </trkpt>
      <trkpt lat="42.263294" lon="3.104246">
        <ele>5</ele>
        <time>2019-08-19T01:10:08Z</time>
      </trkpt>
      <trkpt lat="42.263284" lon="3.104208">
        <ele>5</ele>
        <time>2019-08-19T01:10:09Z</time>
      </trkpt>
      <trkpt lat="42.263273" lon="3.104171">
        <ele>5</ele>
        <time>2019-08-19T01:10:10Z</time>
      </trkpt>
      <trkpt lat="42.263263" lon="3.104133">
        <ele>5</ele>
        <time>2019-08-19T01:10:11Z</time>
      </trkpt>
      <trkpt lat="42.263253" lon="3.104095">
        <ele>5</ele>
        <time>2019-08-19T01:10:12Z</time>
      </trkpt>
      <trkpt lat="42.263242" lon="3.104058">
        <ele>5</ele>
        <time>2019-08-19T01:10:13Z</time>
      </trkpt>
      <trkpt lat="42.263232" lon="3.10402">
        <ele>5</ele>
        <time>2019-08-19T01:10:14Z</time>
      </trkpt>
      <trkpt lat="42.263236" lon="3.104015">
        <ele>5</ele>
        <time>2019-08-19T01:10:15Z</time>
      </trkpt>
      <trkpt lat="42.263242" lon="3.104039">
        <ele>5</ele>
        <time>2019-08-19T01:10:17Z</time>
      </trkpt>
      <trkpt lat="42.263247" lon="3.104063">
        <ele>5</ele>
        <time>2019-08-19T01:10:19Z</time>
      </trkpt>
      <trkpt lat="42.263252" lon="3.104087">
        <ele>5</ele>
        <time>2019-08-19T01:10:21Z</time>
      </trkpt>
      <trkpt lat="42.263258" lon="3.104111">
        <ele>5</ele>
        <time>2019-08-19T01:10:23Z</time>
      </trkpt>
      <trkpt lat="42.263263" lon="3.104135">
        <ele>5</ele>
        <time>2019-08-19T01:10:24Z</time>
      </trkpt>
      <trkpt lat="42.263282" lon="3.104199">
        <ele>5</ele>
        <time>2019-08-19T01:10:25Z</time>
      </trkpt>
      <trkpt lat="42.263289" lon="3.104227">
        <ele>5</ele>
        <time>2019-08-19T01:10:26Z</time>
      </trkpt>
      <trkpt lat="42.263297" lon="3.104254">
        <ele>5</ele>
        <time>2019-08-19T01:10:27Z</time>
      </trkpt>
      <trkpt lat="42.263304" lon="3.104282">
        <ele>5</ele>
        <time>2019-08-19T01:10:28Z</time>
      </trkpt>
      <trkpt lat="42.263311" lon="3.104309">
        <ele>5</ele>
        <time>2019-08-19T01:10:29Z</time>
      </trkpt>
      <trkpt lat="42.263318" lon="3.104336">
        <ele>5</ele>
        <time>2019-08-19T01:10:30Z</time>
      </trkpt>
      <trkpt lat="42.263325" lon="3.104364">
        <ele>5</ele>
        <time>2019-08-19T01:10:31Z</time>
      </trkpt>
      <trkpt lat="42.263333" lon="3.104391">
        <ele>5</ele>
        <time>2019-08-19T01:10:32Z</time>
      </trkpt>
      <trkpt lat="42.26334" lon="3.104419">
        <ele>5</ele>
        <time>2019-08-19T01:10:33Z</time>
      </trkpt>
      <trkpt lat="42.263347" lon="3.104446">
        <ele>5</ele>
        <time>2019-08-19T01:10:34Z</time>
      </trkpt>
      <trkpt lat="42.263355" lon="3.104471">
        <ele>5</ele>
        <time>2019-08-19T01:10:35Z</time>
      </trkpt>
      <trkpt lat="42.26335" lon="3.104474">
        <ele>5</ele>
        <time>2019-08-19T01:10:36Z</time>
      </trkpt>
      <trkpt lat="42.263346" lon="3.104477">
        <ele>5</ele>
        <time>2019-08-19T01:10:38Z</time>
      </trkpt>
      <trkpt lat="42.263341" lon="3.104481">
        <ele>5</ele>
        <time>2019-08-19T01:10:39Z</time>
      </trkpt>
      <trkpt lat="42.263337" lon="3.104484">
        <ele>5</ele>
        <time>2019-08-19T01:10:41Z</time>
      </trkpt>
      <trkpt lat="42.263332" lon="3.104487">
        <ele>5</ele>
        <time>2019-08-19T01:10:42Z</time>
      </trkpt>
      <trkpt lat="42.263328" lon="3.10449">
        <ele>5</ele>
        <time>2019-08-19T01:10:44Z</time>
      </trkpt>
      <trkpt lat="42.26331" lon="3.104405">
        <ele>5</ele>
        <time>2019-08-19T01:10:45Z</time>
      </trkpt>
      <trkpt lat="42.263302" lon="3.104366">
        <ele>5</ele>
        <time>2019-08-19T01:10:46Z</time>
      </trkpt>
      <trkpt lat="42.263293" lon="3.104327">
        <ele>5</ele>
        <time>2019-08-19T01:10:47Z</time>
      </trkpt>
      <trkpt lat="42.263285" lon="3.104288">
        <ele>5</ele>
        <time>2019-08-19T01:10:48Z</time>
      </trkpt>
      <trkpt lat="42.263277" lon="3.104249">
        <ele>5</ele>
        <time>2019-08-19T01:10:49Z</time>
      </trkpt>
      <trkpt lat="42.263269" lon="3.104211">
        <ele>5</ele>
        <time>2019-08-19T01:10:50Z</time>
      </trkpt>
      <trkpt lat="42.263261" lon="3.104172">
        <ele>5</ele>
        <time>2019-08-19T01:10:51Z</time>
      </trkpt>
      <trkpt lat="42.263252" lon="3.104133">
        <ele>5</ele>
        <time>2019-08-19T01:10:52Z</time>
      </trkpt>
      <trkpt lat="42.263244" lon="3.104094">
        <ele>5</ele>
        <time>2019-08-19T01:10:53Z</time>
      </trkpt>
      <trkpt lat="42.263236" lon="3.104055">
        <ele>5</ele>
        <time>2019-08-19T01:10:54Z</time>
      </trkpt>
      <trkpt lat="42.263225" lon="3.103973">
        <ele>5</ele>
        <time>2019-08-19T01:10:55Z</time>
      </trkpt>
      <trkpt lat="42.263224" lon="3.103933">
        <ele>5</ele>
        <time>2019-08-19T01:10:57Z</time>
      </trkpt>
      <trkpt lat="42.263223" lon="3.103894">
        <ele>5</ele>
        <time>2019-08-19T01:10:59Z</time>
      </trkpt>
      <trkpt lat="42.263222" lon="3.103854">
        <ele>5</ele>
        <time>2019-08-19T01:11:00Z</time>
      </trkpt>
      <trkpt lat="42.26322" lon="3.103814">
        <ele>5</ele>
        <time>2019-08-19T01:11:01Z</time>
      </trkpt>
      <trkpt lat="42.263219" lon="3.103774">
        <ele>5</ele>
        <time>2019-08-19T01:11:02Z</time>
      </trkpt>
      <trkpt lat="42.263218" lon="3.103735">
        <ele>5</ele>
        <time>2019-08-19T01:11:03Z</time>
      </trkpt>
      <trkpt lat="42.263217" lon="3.103695">
        <ele>5</ele>
        <time>2019-08-19T01:11:04Z</time>
      </trkpt>
      <trkpt lat="42.263229" lon="3.103666">
        <ele>5</ele>
        <time>2019-08-19T01:11:05Z</time>
      </trkpt>
      <trkpt lat="42.263235" lon="3.103632">
        <ele>5</ele>
        <time>2019-08-19T01:11:06Z</time>
      </trkpt>
      <trkpt lat="42.263236" lon="3.103595">
        <ele>5</ele>
        <time>2019-08-19T01:11:07Z</time>
      </trkpt>
      <trkpt lat="42.263232" lon="3.103561">
        <ele>5</ele>
        <time>2019-08-19T01:11:08Z</time>
      </trkpt>
      <trkpt lat="42.263227" lon="3.103533">
        <ele>5</ele>
        <time>2019-08-19T01:11:09Z</time>
      </trkpt>
      <trkpt lat="42.263224" lon="3.10349">
        <ele>5</ele>
        <time>2019-08-19T01:11:11Z</time>
      </trkpt>
      <trkpt lat="42.263224" lon="3.10349">
        <ele>6</ele>
        <time>2019-08-19T01:11:14Z</time>
      </trkpt>
      <trkpt lat="42.263214" lon="3.103461">
        <ele>6</ele>
        <time>2019-08-19T01:11:15Z</time>
      </trkpt>
      <trkpt lat="42.263192" lon="3.103435">
        <ele>6</ele>
        <time>2019-08-19T01:11:17Z</time>
      </trkpt>
      <trkpt lat="42.26317" lon="3.103436">
        <ele>6</ele>
        <time>2019-08-19T01:11:19Z</time>
      </trkpt>
      <trkpt lat="42.263152" lon="3.103443">
        <ele>6</ele>
        <time>2019-08-19T01:11:24Z</time>
      </trkpt>
      <trkpt lat="42.26315" lon="3.103449">
        <ele>6</ele>
        <time>2019-08-19T01:11:28Z</time>
      </trkpt>
      <trkpt lat="42.263122" lon="3.103532">
        <ele>6</ele>
        <time>2019-08-19T01:12:32Z</time>
      </trkpt>
      <trkpt lat="42.263122" lon="3.103532">
        <ele>6</ele>
        <time>2019-08-19T01:12:37Z</time>
      </trkpt>
      <trkpt lat="42.263072" lon="3.103549">
        <ele>6</ele>
        <time>2019-08-19T01:20:14Z</time>
      </trkpt>
      <trkpt lat="42.263066" lon="3.103563">
        <ele>5</ele>
        <time>2019-08-19T01:20:18Z</time>
      </trkpt>
      <trkpt lat="42.263088" lon="3.103627">
        <ele>5</ele>
        <time>2019-08-19T01:21:00Z</time>
      </trkpt>
      <trkpt lat="42.263088" lon="3.103627">
        <ele>5</ele>
        <time>2019-08-19T01:21:07Z</time>
      </trkpt>
      <trkpt lat="42.263061" lon="3.103545">
        <ele>5</ele>
        <time>2019-08-19T01:21:36Z</time>
      </trkpt>
      <trkpt lat="42.263061" lon="3.103545">
        <ele>5</ele>
        <time>2019-08-19T01:21:45Z</time>
      </trkpt>
      <trkpt lat="42.263027" lon="3.103506">
        <ele>5</ele>
        <time>2019-08-19T01:21:50Z</time>
      </trkpt>
      <trkpt lat="42.263027" lon="3.103506">
        <ele>5</ele>
        <time>2019-08-19T01:21:55Z</time>
      </trkpt>
      <trkpt lat="42.263019" lon="3.103482">
        <ele>5</ele>
        <time>2019-08-19T01:21:58Z</time>
      </trkpt>
      <trkpt lat="42.263027" lon="3.103497">
        <ele>5</ele>
        <time>2019-08-19T01:21:59Z</time>
      </trkpt>
      <trkpt lat="42.263036" lon="3.103512">
        <ele>5</ele>
        <time>2019-08-19T01:22:50Z</time>
      </trkpt>
      <trkpt lat="42.263044" lon="3.103527">
        <ele>5</ele>
        <time>2019-08-19T01:22:59Z</time>
      </trkpt>
      <trkpt lat="42.263053" lon="3.103541">
        <ele>5</ele>
        <time>2019-08-19T01:23:00Z</time>
      </trkpt>
      <trkpt lat="42.263062" lon="3.103556">
        <ele>5</ele>
        <time>2019-08-19T01:23:20Z</time>
      </trkpt>
      <trkpt lat="42.26307" lon="3.103571">
        <ele>5</ele>
        <time>2019-08-19T01:23:24Z</time>
      </trkpt>
      <trkpt lat="42.263079" lon="3.103586">
        <ele>5</ele>
        <time>2019-08-19T01:24:28Z</time>
      </trkpt>
      <trkpt lat="42.263087" lon="3.103601">
        <ele>5</ele>
        <time>2019-08-19T01:24:31Z</time>
      </trkpt>
      <trkpt lat="42.263096" lon="3.103616">
        <ele>5</ele>
        <time>2019-08-19T01:26:48Z</time>
      </trkpt>
      <trkpt lat="42.263105" lon="3.103631">
        <ele>5</ele>
        <time>2019-08-19T01:26:51Z</time>
      </trkpt>
      <trkpt lat="42.263113" lon="3.103646">
        <ele>5</ele>
        <time>2019-08-19T01:27:50Z</time>
      </trkpt>
      <trkpt lat="42.263122" lon="3.103661">
        <ele>5</ele>
        <time>2019-08-19T01:27:53Z</time>
      </trkpt>
      <trkpt lat="42.26313" lon="3.103676">
        <ele>6</ele>
        <time>2019-08-19T01:37:52Z</time>
      </trkpt>
      <trkpt lat="42.263139" lon="3.10369">
        <ele>6</ele>
        <time>2019-08-19T01:37:53Z</time>
      </trkpt>
      <trkpt lat="42.263148" lon="3.103705">
        <ele>6</ele>
        <time>2019-08-19T01:37:54Z</time>
      </trkpt>
      <trkpt lat="42.263156" lon="3.10372">
        <ele>6</ele>
        <time>2019-08-19T01:37:56Z</time>
      </trkpt>
      <trkpt lat="42.263165" lon="3.103735">
        <ele>6</ele>
        <time>2019-08-19T01:37:58Z</time>
      </trkpt>
      <trkpt lat="42.263173" lon="3.10375">
        <ele>6</ele>
        <time>2019-08-19T01:38:00Z</time>
      </trkpt>
      <trkpt lat="42.263182" lon="3.103765">
        <ele>6</ele>
        <time>2019-08-19T01:38:01Z</time>
      </trkpt>
      <trkpt lat="42.263182" lon="3.103825">
        <ele>6</ele>
        <time>2019-08-19T01:38:02Z</time>
      </trkpt>
      <trkpt lat="42.263186" lon="3.103855">
        <ele>6</ele>
        <time>2019-08-19T01:38:03Z</time>
      </trkpt>
      <trkpt lat="42.263191" lon="3.103885">
        <ele>6</ele>
        <time>2019-08-19T01:38:04Z</time>
      </trkpt>
      <trkpt lat="42.263195" lon="3.103915">
        <ele>6</ele>
        <time>2019-08-19T01:38:05Z</time>
      </trkpt>
      <trkpt lat="42.2632" lon="3.103945">
        <ele>6</ele>
        <time>2019-08-19T01:38:06Z</time>
      </trkpt>
      <trkpt lat="42.263205" lon="3.103975">
        <ele>6</ele>
        <time>2019-08-19T01:38:07Z</time>
      </trkpt>
      <trkpt lat="42.263209" lon="3.104005">
        <ele>6</ele>
        <time>2019-08-19T01:38:08Z</time>
      </trkpt>
      <trkpt lat="42.263214" lon="3.104035">
        <ele>6</ele>
        <time>2019-08-19T01:38:09Z</time>
      </trkpt>
      <trkpt lat="42.263218" lon="3.104065">
        <ele>6</ele>
        <time>2019-08-19T01:38:10Z</time>
      </trkpt>
      <trkpt lat="42.263223" lon="3.104095">
        <ele>6</ele>
        <time>2019-08-19T01:38:11Z</time>
      </trkpt>
      <trkpt lat="42.26324" lon="3.104164">
        <ele>6</ele>
        <time>2019-08-19T01:38:12Z</time>
      </trkpt>
      <trkpt lat="42.263252" lon="3.104199">
        <ele>6</ele>
        <time>2019-08-19T01:38:13Z</time>
      </trkpt>
      <trkpt lat="42.263264" lon="3.104233">
        <ele>6</ele>
        <time>2019-08-19T01:38:14Z</time>
      </trkpt>
      <trkpt lat="42.263276" lon="3.104268">
        <ele>6</ele>
        <time>2019-08-19T01:38:15Z</time>
      </trkpt>
      <trkpt lat="42.263289" lon="3.104302">
        <ele>6</ele>
        <time>2019-08-19T01:38:16Z</time>
      </trkpt>
      <trkpt lat="42.263301" lon="3.104336">
        <ele>6</ele>
        <time>2019-08-19T01:38:17Z</time>
      </trkpt>
      <trkpt lat="42.263313" lon="3.104371">
        <ele>6</ele>
        <time>2019-08-19T01:38:18Z</time>
      </trkpt>
      <trkpt lat="42.263325" lon="3.104405">
        <ele>6</ele>
        <time>2019-08-19T01:38:19Z</time>
      </trkpt>
      <trkpt lat="42.263337" lon="3.10444">
        <ele>6</ele>
        <time>2019-08-19T01:38:20Z</time>
      </trkpt>
      <trkpt lat="42.263349" lon="3.104474">
        <ele>6</ele>
        <time>2019-08-19T01:38:21Z</time>
      </trkpt>
      <trkpt lat="42.263363" lon="3.104541">
        <ele>6</ele>
        <time>2019-08-19T01:38:22Z</time>
      </trkpt>
      <trkpt lat="42.263365" lon="3.104567">
        <ele>6</ele>
        <time>2019-08-19T01:38:23Z</time>
      </trkpt>
      <trkpt lat="42.263368" lon="3.104592">
        <ele>6</ele>
        <time>2019-08-19T01:38:24Z</time>
      </trkpt>
      <trkpt lat="42.26337" lon="3.104618">
        <ele>6</ele>
        <time>2019-08-19T01:38:25Z</time>
      </trkpt>
      <trkpt lat="42.263373" lon="3.104643">
        <ele>6</ele>
        <time>2019-08-19T01:38:26Z</time>
      </trkpt>
      <trkpt lat="42.263375" lon="3.104669">
        <ele>6</ele>
        <time>2019-08-19T01:38:27Z</time>
      </trkpt>
      <trkpt lat="42.263378" lon="3.104694">
        <ele>6</ele>
        <time>2019-08-19T01:38:28Z</time>
      </trkpt>
      <trkpt lat="42.26338" lon="3.10472">
        <ele>6</ele>
        <time>2019-08-19T01:38:30Z</time>
      </trkpt>
      <trkpt lat="42.263383" lon="3.104745">
        <ele>6</ele>
        <time>2019-08-19T01:38:31Z</time>
      </trkpt>
      <trkpt lat="42.263338" lon="3.104697">
        <ele>6</ele>
        <time>2019-08-19T01:38:32Z</time>
      </trkpt>
      <trkpt lat="42.263324" lon="3.104662">
        <ele>6</ele>
        <time>2019-08-19T01:38:33Z</time>
      </trkpt>
      <trkpt lat="42.26331" lon="3.104627">
        <ele>6</ele>
        <time>2019-08-19T01:38:34Z</time>
      </trkpt>
      <trkpt lat="42.263296" lon="3.104592">
        <ele>6</ele>
        <time>2019-08-19T01:38:35Z</time>
      </trkpt>
      <trkpt lat="42.263283" lon="3.104557">
        <ele>6</ele>
        <time>2019-08-19T01:38:36Z</time>
      </trkpt>
      <trkpt lat="42.263269" lon="3.104523">
        <ele>6</ele>
        <time>2019-08-19T01:38:37Z</time>
      </trkpt>
      <trkpt lat="42.263255" lon="3.104488">
        <ele>6</ele>
        <time>2019-08-19T01:38:38Z</time>
      </trkpt>
      <trkpt lat="42.263241" lon="3.104453">
        <ele>6</ele>
        <time>2019-08-19T01:38:39Z</time>
      </trkpt>
      <trkpt lat="42.263227" lon="3.104418">
        <ele>6</ele>
        <time>2019-08-19T01:38:40Z</time>
      </trkpt>
      <trkpt lat="42.263213" lon="3.104383">
        <ele>6</ele>
        <time>2019-08-19T01:38:41Z</time>
      </trkpt>
      <trkpt lat="42.263182" lon="3.104294">
        <ele>6</ele>
        <time>2019-08-19T01:38:42Z</time>
      </trkpt>
      <trkpt lat="42.263169" lon="3.104244">
        <ele>6</ele>
        <time>2019-08-19T01:38:43Z</time>
      </trkpt>
      <trkpt lat="42.263155" lon="3.104195">
        <ele>6</ele>
        <time>2019-08-19T01:38:44Z</time>
      </trkpt>
      <trkpt lat="42.263141" lon="3.104145">
        <ele>6</ele>
        <time>2019-08-19T01:38:46Z</time>
      </trkpt>
      <trkpt lat="42.263127" lon="3.104096">
        <ele>6</ele>
        <time>2019-08-19T01:38:47Z</time>
      </trkpt>
      <trkpt lat="42.263114" lon="3.104047">
        <ele>6</ele>
        <time>2019-08-19T01:38:48Z</time>
      </trkpt>
      <trkpt lat="42.2631" lon="3.103997">
        <ele>6</ele>
        <time>2019-08-19T01:38:50Z</time>
      </trkpt>
      <trkpt lat="42.263086" lon="3.103948">
        <ele>6</ele>
        <time>2019-08-19T01:38:51Z</time>
      </trkpt>
      <trkpt lat="42.263069" lon="3.103855">
        <ele>6</ele>
        <time>2019-08-19T01:38:52Z</time>
      </trkpt>
      <trkpt lat="42.263056" lon="3.103808">
        <ele>6</ele>
        <time>2019-08-19T01:38:53Z</time>
      </trkpt>
      <trkpt lat="42.263042" lon="3.10376">
        <ele>6</ele>
        <time>2019-08-19T01:38:54Z</time>
      </trkpt>
      <trkpt lat="42.263029" lon="3.103712">
        <ele>6</ele>
        <time>2019-08-19T01:38:55Z</time>
      </trkpt>
      <trkpt lat="42.263015" lon="3.103665">
        <ele>6</ele>
        <time>2019-08-19T01:38:56Z</time>
      </trkpt>
      <trkpt lat="42.263002" lon="3.103617">
        <ele>6</ele>
        <time>2019-08-19T01:38:57Z</time>
      </trkpt>
      <trkpt lat="42.262988" lon="3.103569">
        <ele>6</ele>
        <time>2019-08-19T01:38:58Z</time>
      </trkpt>
      <trkpt lat="42.262975" lon="3.103522">
        <ele>6</ele>
        <time>2019-08-19T01:39:00Z</time>
      </trkpt>
      <trkpt lat="42.262961" lon="3.103474">
        <ele>6</ele>
        <time>2019-08-19T01:39:01Z</time>
      </trkpt>
      <trkpt lat="42.262933" lon="3.103361">
        <ele>6</ele>
        <time>2019-08-19T01:39:02Z</time>
      </trkpt>
      <trkpt lat="42.262924" lon="3.103298">
        <ele>6</ele>
        <time>2019-08-19T01:39:03Z</time>
      </trkpt>
      <trkpt lat="42.262916" lon="3.103236">
        <ele>6</ele>
        <time>2019-08-19T01:39:04Z</time>
      </trkpt>
      <trkpt lat="42.262907" lon="3.103173">
        <ele>6</ele>
        <time>2019-08-19T01:39:05Z</time>
      </trkpt>
      <trkpt lat="42.262898" lon="3.10311">
        <ele>6</ele>
        <time>2019-08-19T01:39:06Z</time>
      </trkpt>
      <trkpt lat="42.262889" lon="3.103047">
        <ele>6</ele>
        <time>2019-08-19T01:39:07Z</time>
      </trkpt>
      <trkpt lat="42.262881" lon="3.102985">
        <ele>6</ele>
        <time>2019-08-19T01:39:09Z</time>
      </trkpt>
      <trkpt lat="42.262872" lon="3.102922">
        <ele>6</ele>
        <time>2019-08-19T01:39:10Z</time>
      </trkpt>
      <trkpt lat="42.262863" lon="3.102859">
        <ele>5</ele>
        <time>2019-08-19T01:39:12Z</time>
      </trkpt>
      <trkpt lat="42.262846" lon="3.102752">
        <ele>5</ele>
        <time>2019-08-19T01:39:13Z</time>
      </trkpt>
      <trkpt lat="42.262836" lon="3.102703">
        <ele>5</ele>
        <time>2019-08-19T01:39:14Z</time>
      </trkpt>
      <trkpt lat="42.262826" lon="3.102653">
        <ele>5</ele>
        <time>2019-08-19T01:39:15Z</time>
      </trkpt>
      <trkpt lat="42.262816" lon="3.102603">
        <ele>5</ele>
        <time>2019-08-19T01:39:16Z</time>
      </trkpt>
      <trkpt lat="42.262807" lon="3.102554">
        <ele>5</ele>
        <time>2019-08-19T01:39:17Z</time>
      </trkpt>
      <trkpt lat="42.262797" lon="3.102504">
        <ele>5</ele>
        <time>2019-08-19T01:39:18Z</time>
      </trkpt>
      <trkpt lat="42.262787" lon="3.102454">
        <ele>5</ele>
        <time>2019-08-19T01:39:19Z</time>
      </trkpt>
      <trkpt lat="42.262777" lon="3.102405">
        <ele>5</ele>
        <time>2019-08-19T01:39:20Z</time>
      </trkpt>
      <trkpt lat="42.262767" lon="3.102355">
        <ele>6</ele>
        <time>2019-08-19T01:39:21Z</time>
      </trkpt>
      <trkpt lat="42.262734" lon="3.102204">
        <ele>6</ele>
        <time>2019-08-19T01:39:23Z</time>
      </trkpt>
      <trkpt lat="42.262723" lon="3.102157">
        <ele>6</ele>
        <time>2019-08-19T01:39:24Z</time>
      </trkpt>
      <trkpt lat="42.262713" lon="3.10211">
        <ele>6</ele>
        <time>2019-08-19T01:39:25Z</time>
      </trkpt>
      <trkpt lat="42.262702" lon="3.102062">
        <ele>6</ele>
        <time>2019-08-19T01:39:26Z</time>
      </trkpt>
      <trkpt lat="42.262692" lon="3.102015">
        <ele>6</ele>
        <time>2019-08-19T01:39:28Z</time>
      </trkpt>
      <trkpt lat="42.262681" lon="3.101968">
        <ele>6</ele>
        <time>2019-08-19T01:39:29Z</time>
      </trkpt>
      <trkpt lat="42.262671" lon="3.101921">
        <ele>6</ele>
        <time>2019-08-19T01:39:30Z</time>
      </trkpt>
      <trkpt lat="42.26266" lon="3.101874">
        <ele>6</ele>
        <time>2019-08-19T01:39:31Z</time>
      </trkpt>
      <trkpt lat="42.262634" lon="3.101785">
        <ele>6</ele>
        <time>2019-08-19T01:39:32Z</time>
      </trkpt>
      <trkpt lat="42.262622" lon="3.10174">
        <ele>6</ele>
        <time>2019-08-19T01:39:33Z</time>
      </trkpt>
      <trkpt lat="42.26261" lon="3.101694">
        <ele>6</ele>
        <time>2019-08-19T01:39:34Z</time>
      </trkpt>
      <trkpt lat="42.262598" lon="3.101649">
        <ele>6</ele>
        <time>2019-08-19T01:39:35Z</time>
      </trkpt>
      <trkpt lat="42.262586" lon="3.101603">
        <ele>6</ele>
        <time>2019-08-19T01:39:37Z</time>
      </trkpt>
      <trkpt lat="42.262574" lon="3.101558">
        <ele>6</ele>
        <time>2019-08-19T01:39:38Z</time>
      </trkpt>
      <trkpt lat="42.262562" lon="3.101512">
        <ele>6</ele>
        <time>2019-08-19T01:39:39Z</time>
      </trkpt>
      <trkpt lat="42.26255" lon="3.101467">
        <ele>6</ele>
        <time>2019-08-19T01:39:40Z</time>
      </trkpt>
      <trkpt lat="42.262538" lon="3.101421">
        <ele>5</ele>
        <time>2019-08-19T01:39:41Z</time>
      </trkpt>
      <trkpt lat="42.262507" lon="3.101306">
        <ele>5</ele>
        <time>2019-08-19T01:39:42Z</time>
      </trkpt>
      <trkpt lat="42.262488" lon="3.101243">
        <ele>5</ele>
        <time>2019-08-19T01:39:43Z</time>
      </trkpt>
      <trkpt lat="42.262468" lon="3.101179">
        <ele>5</ele>
        <time>2019-08-19T01:39:44Z</time>
      </trkpt>
      <trkpt lat="42.262449" lon="3.101115">
        <ele>5</ele>
        <time>2019-08-19T01:39:45Z</time>
      </trkpt>
      <trkpt lat="42.26243" lon="3.101052">
        <ele>5</ele>
        <time>2019-08-19T01:39:47Z</time>
      </trkpt>
      <trkpt lat="42.262411" lon="3.100988">
        <ele>5</ele>
        <time>2019-08-19T01:39:48Z</time>
      </trkpt>
      <trkpt lat="42.262391" lon="3.100925">
        <ele>5</ele>
        <time>2019-08-19T01:39:50Z</time>
      </trkpt>
      <trkpt lat="42.262372" lon="3.100861">
        <ele>5</ele>
        <time>2019-08-19T01:39:51Z</time>
      </trkpt>
      <trkpt lat="42.262337" lon="3.100743">
        <ele>5</ele>
        <time>2019-08-19T01:39:52Z</time>
      </trkpt>
      <trkpt lat="42.262321" lon="3.100682">
        <ele>5</ele>
        <time>2019-08-19T01:39:53Z</time>
      </trkpt>
      <trkpt lat="42.262304" lon="3.100622">
        <ele>5</ele>
        <time>2019-08-19T01:39:54Z</time>
      </trkpt>
      <trkpt lat="42.262287" lon="3.100562">
        <ele>5</ele>
        <time>2019-08-19T01:39:55Z</time>
      </trkpt>
      <trkpt lat="42.262271" lon="3.100501">
        <ele>5</ele>
        <time>2019-08-19T01:39:56Z</time>
      </trkpt>
      <trkpt lat="42.262254" lon="3.100441">
        <ele>5</ele>
        <time>2019-08-19T01:39:57Z</time>
      </trkpt>
      <trkpt lat="42.262237" lon="3.100381">
        <ele>5</ele>
        <time>2019-08-19T01:39:58Z</time>
      </trkpt>
      <trkpt lat="42.262221" lon="3.10032">
        <ele>5</ele>
        <time>2019-08-19T01:40:00Z</time>
      </trkpt>
      <trkpt lat="42.262204" lon="3.10026">
        <ele>5</ele>
        <time>2019-08-19T01:40:01Z</time>
      </trkpt>
      <trkpt lat="42.26217" lon="3.100127">
        <ele>5</ele>
        <time>2019-08-19T01:40:02Z</time>
      </trkpt>
      <trkpt lat="42.262151" lon="3.100056">
        <ele>5</ele>
        <time>2019-08-19T01:40:03Z</time>
      </trkpt>
      <trkpt lat="42.262133" lon="3.099985">
        <ele>5</ele>
        <time>2019-08-19T01:40:04Z</time>
      </trkpt>
      <trkpt lat="42.262115" lon="3.099914">
        <ele>5</ele>
        <time>2019-08-19T01:40:06Z</time>
      </trkpt>
      <trkpt lat="42.262096" lon="3.099844">
        <ele>5</ele>
        <time>2019-08-19T01:40:07Z</time>
      </trkpt>
      <trkpt lat="42.262078" lon="3.099773">
        <ele>5</ele>
        <time>2019-08-19T01:40:08Z</time>
      </trkpt>
      <trkpt lat="42.262059" lon="3.099702">
        <ele>5</ele>
        <time>2019-08-19T01:40:09Z</time>
      </trkpt>
      <trkpt lat="42.262041" lon="3.099631">
        <ele>5</ele>
        <time>2019-08-19T01:40:11Z</time>
      </trkpt>
      <trkpt lat="42.262006" lon="3.099499">
        <ele>5</ele>
        <time>2019-08-19T01:40:12Z</time>
      </trkpt>
      <trkpt lat="42.261989" lon="3.099433">
        <ele>5</ele>
        <time>2019-08-19T01:40:13Z</time>
      </trkpt>
      <trkpt lat="42.261971" lon="3.099366">
        <ele>5</ele>
        <time>2019-08-19T01:40:14Z</time>
      </trkpt>
      <trkpt lat="42.261953" lon="3.099299">
        <ele>5</ele>
        <time>2019-08-19T01:40:15Z</time>
      </trkpt>
      <trkpt lat="42.261936" lon="3.099233">
        <ele>5</ele>
        <time>2019-08-19T01:40:16Z</time>
      </trkpt>
      <trkpt lat="42.261918" lon="3.099166">
        <ele>5</ele>
        <time>2019-08-19T01:40:17Z</time>
      </trkpt>
      <trkpt lat="42.2619" lon="3.099099">
        <ele>5</ele>
        <time>2019-08-19T01:40:18Z</time>
      </trkpt>
      <trkpt lat="42.261883" lon="3.099033">
        <ele>5</ele>
        <time>2019-08-19T01:40:20Z</time>
      </trkpt>
      <trkpt lat="42.261865" lon="3.098966">
        <ele>5</ele>
        <time>2019-08-19T01:40:21Z</time>
      </trkpt>
      <trkpt lat="42.261824" lon="3.098823">
        <ele>5</ele>
        <time>2019-08-19T01:40:22Z</time>
      </trkpt>
      <trkpt lat="42.261803" lon="3.098746">
        <ele>5</ele>
        <time>2019-08-19T01:40:23Z</time>
      </trkpt>
      <trkpt lat="42.261781" lon="3.09867">
        <ele>5</ele>
        <time>2019-08-19T01:40:25Z</time>
      </trkpt>
      <trkpt lat="42.26176" lon="3.098594">
        <ele>5</ele>
        <time>2019-08-19T01:40:26Z</time>
      </trkpt>
      <trkpt lat="42.261738" lon="3.098518">
        <ele>5</ele>
        <time>2019-08-19T01:40:27Z</time>
      </trkpt>
      <trkpt lat="42.261716" lon="3.098441">
        <ele>5</ele>
        <time>2019-08-19T01:40:28Z</time>
      </trkpt>
      <trkpt lat="42.261695" lon="3.098365">
        <ele>5</ele>
        <time>2019-08-19T01:40:30Z</time>
      </trkpt>
      <trkpt lat="42.261673" lon="3.098289">
        <ele>6</ele>
        <time>2019-08-19T01:40:31Z</time>
      </trkpt>
      <trkpt lat="42.261636" lon="3.098149">
        <ele>6</ele>
        <time>2019-08-19T01:40:32Z</time>
      </trkpt>
      <trkpt lat="42.261617" lon="3.098079">
        <ele>6</ele>
        <time>2019-08-19T01:40:33Z</time>
      </trkpt>
      <trkpt lat="42.261599" lon="3.098008">
        <ele>6</ele>
        <time>2019-08-19T01:40:34Z</time>
      </trkpt>
      <trkpt lat="42.26158" lon="3.097938">
        <ele>6</ele>
        <time>2019-08-19T01:40:35Z</time>
      </trkpt>
      <trkpt lat="42.261562" lon="3.097867">
        <ele>6</ele>
        <time>2019-08-19T01:40:36Z</time>
      </trkpt>
      <trkpt lat="42.261543" lon="3.097797">
        <ele>6</ele>
        <time>2019-08-19T01:40:37Z</time>
      </trkpt>
      <trkpt lat="42.261525" lon="3.097726">
        <ele>6</ele>
        <time>2019-08-19T01:40:39Z</time>
      </trkpt>
      <trkpt lat="42.261506" lon="3.097656">
        <ele>6</ele>
        <time>2019-08-19T01:40:40Z</time>
      </trkpt>
      <trkpt lat="42.261488" lon="3.097585">
        <ele>6</ele>
        <time>2019-08-19T01:40:41Z</time>
      </trkpt>
      <trkpt lat="42.261453" lon="3.097441">
        <ele>6</ele>
        <time>2019-08-19T01:40:42Z</time>
      </trkpt>
      <trkpt lat="42.261434" lon="3.097368">
        <ele>6</ele>
        <time>2019-08-19T01:40:44Z</time>
      </trkpt>
      <trkpt lat="42.261416" lon="3.097296">
        <ele>6</ele>
        <time>2019-08-19T01:40:45Z</time>
      </trkpt>
      <trkpt lat="42.261398" lon="3.097223">
        <ele>6</ele>
        <time>2019-08-19T01:40:46Z</time>
      </trkpt>
      <trkpt lat="42.261379" lon="3.09715">
        <ele>6</ele>
        <time>2019-08-19T01:40:48Z</time>
      </trkpt>
      <trkpt lat="42.261361" lon="3.097077">
        <ele>6</ele>
        <time>2019-08-19T01:40:49Z</time>
      </trkpt>
      <trkpt lat="42.261342" lon="3.097005">
        <ele>6</ele>
        <time>2019-08-19T01:40:50Z</time>
      </trkpt>
      <trkpt lat="42.261324" lon="3.096932">
        <ele>6</ele>
        <time>2019-08-19T01:40:51Z</time>
      </trkpt>
      <trkpt lat="42.261293" lon="3.096805">
        <ele>6</ele>
        <time>2019-08-19T01:40:52Z</time>
      </trkpt>
      <trkpt lat="42.261277" lon="3.096739">
        <ele>6</ele>
        <time>2019-08-19T01:40:53Z</time>
      </trkpt>
      <trkpt lat="42.26126" lon="3.096673">
        <ele>6</ele>
        <time>2019-08-19T01:40:54Z</time>
      </trkpt>
      <trkpt lat="42.261243" lon="3.096607">
        <ele>6</ele>
        <time>2019-08-19T01:40:55Z</time>
      </trkpt>
      <trkpt lat="42.261227" lon="3.096542">
        <ele>6</ele>
        <time>2019-08-19T01:40:56Z</time>
      </trkpt>
      <trkpt lat="42.26121" lon="3.096476">
        <ele>6</ele>
        <time>2019-08-19T01:40:58Z</time>
      </trkpt>
      <trkpt lat="42.261193" lon="3.09641">
        <ele>6</ele>
        <time>2019-08-19T01:40:59Z</time>
      </trkpt>
      <trkpt lat="42.261177" lon="3.096344">
        <ele>6</ele>
        <time>2019-08-19T01:41:00Z</time>
      </trkpt>
      <trkpt lat="42.26116" lon="3.096278">
        <ele>6</ele>
        <time>2019-08-19T01:41:01Z</time>
      </trkpt>
      <trkpt lat="42.261109" lon="3.09608">
        <ele>6</ele>
        <time>2019-08-19T01:41:03Z</time>
      </trkpt>
      <trkpt lat="42.261093" lon="3.096014">
        <ele>6</ele>
        <time>2019-08-19T01:41:04Z</time>
      </trkpt>
      <trkpt lat="42.261077" lon="3.095949">
        <ele>6</ele>
        <time>2019-08-19T01:41:05Z</time>
      </trkpt>
      <trkpt lat="42.261062" lon="3.095884">
        <ele>6</ele>
        <time>2019-08-19T01:41:06Z</time>
      </trkpt>
      <trkpt lat="42.261046" lon="3.095819">
        <ele>6</ele>
        <time>2019-08-19T01:41:08Z</time>
      </trkpt>
      <trkpt lat="42.26103" lon="3.095753">
        <ele>6</ele>
        <time>2019-08-19T01:41:09Z</time>
      </trkpt>
      <trkpt lat="42.261014" lon="3.095688">
        <ele>6</ele>
        <time>2019-08-19T01:41:10Z</time>
      </trkpt>
      <trkpt lat="42.260998" lon="3.095623">
        <ele>5</ele>
        <time>2019-08-19T01:41:11Z</time>
      </trkpt>
      <trkpt lat="42.260968" lon="3.095505">
        <ele>5</ele>
        <time>2019-08-19T01:41:12Z</time>
      </trkpt>
      <trkpt lat="42.260953" lon="3.095449">
        <ele>5</ele>
        <time>2019-08-19T01:41:13Z</time>
      </trkpt>
      <trkpt lat="42.260939" lon="3.095393">
        <ele>5</ele>
        <time>2019-08-19T01:41:14Z</time>
      </trkpt>
      <trkpt lat="42.260925" lon="3.095337">
        <ele>5</ele>
        <time>2019-08-19T01:41:15Z</time>
      </trkpt>
      <trkpt lat="42.26091" lon="3.095281">
        <ele>5</ele>
        <time>2019-08-19T01:41:16Z</time>
      </trkpt>
      <trkpt lat="42.260896" lon="3.095225">
        <ele>5</ele>
        <time>2019-08-19T01:41:18Z</time>
      </trkpt>
      <trkpt lat="42.260882" lon="3.095169">
        <ele>5</ele>
        <time>2019-08-19T01:41:19Z</time>
      </trkpt>
      <trkpt lat="42.260867" lon="3.095113">
        <ele>5</ele>
        <time>2019-08-19T01:41:20Z</time>
      </trkpt>
      <trkpt lat="42.260853" lon="3.095057">
        <ele>5</ele>
        <time>2019-08-19T01:41:21Z</time>
      </trkpt>
      <trkpt lat="42.26083" lon="3.09496">
        <ele>5</ele>
        <time>2019-08-19T01:41:22Z</time>
      </trkpt>
      <trkpt lat="42.260818" lon="3.094915">
        <ele>5</ele>
        <time>2019-08-19T01:41:23Z</time>
      </trkpt>
      <trkpt lat="42.260807" lon="3.094871">
        <ele>5</ele>
        <time>2019-08-19T01:41:24Z</time>
      </trkpt>
      <trkpt lat="42.260795" lon="3.094826">
        <ele>5</ele>
        <time>2019-08-19T01:41:25Z</time>
      </trkpt>
      <trkpt lat="42.260784" lon="3.094781">
        <ele>5</ele>
        <time>2019-08-19T01:41:26Z</time>
      </trkpt>
      <trkpt lat="42.260772" lon="3.094736">
        <ele>5</ele>
        <time>2019-08-19T01:41:27Z</time>
      </trkpt>
      <trkpt lat="42.260761" lon="3.094691">
        <ele>5</ele>
        <time>2019-08-19T01:41:28Z</time>
      </trkpt>
      <trkpt lat="42.260749" lon="3.094647">
        <ele>5</ele>
        <time>2019-08-19T01:41:29Z</time>
      </trkpt>
      <trkpt lat="42.260738" lon="3.094602">
        <ele>5</ele>
        <time>2019-08-19T01:41:30Z</time>
      </trkpt>
      <trkpt lat="42.260726" lon="3.094557">
        <ele>5</ele>
        <time>2019-08-19T01:41:31Z</time>
      </trkpt>
      <trkpt lat="42.260712" lon="3.094441">
        <ele>5</ele>
        <time>2019-08-19T01:41:32Z</time>
      </trkpt>
      <trkpt lat="42.260711" lon="3.094379">
        <ele>5</ele>
        <time>2019-08-19T01:41:33Z</time>
      </trkpt>
      <trkpt lat="42.260711" lon="3.094318">
        <ele>5</ele>
        <time>2019-08-19T01:41:34Z</time>
      </trkpt>
      <trkpt lat="42.26071" lon="3.094257">
        <ele>5</ele>
        <time>2019-08-19T01:41:35Z</time>
      </trkpt>
      <trkpt lat="42.26071" lon="3.094195">
        <ele>5</ele>
        <time>2019-08-19T01:41:36Z</time>
      </trkpt>
      <trkpt lat="42.260709" lon="3.094134">
        <ele>5</ele>
        <time>2019-08-19T01:41:37Z</time>
      </trkpt>
      <trkpt lat="42.260709" lon="3.094073">
        <ele>5</ele>
        <time>2019-08-19T01:41:38Z</time>
      </trkpt>
      <trkpt lat="42.260708" lon="3.094011">
        <ele>5</ele>
        <time>2019-08-19T01:41:39Z</time>
      </trkpt>
      <trkpt lat="42.260708" lon="3.09395">
        <ele>5</ele>
        <time>2019-08-19T01:41:41Z</time>
      </trkpt>
      <trkpt lat="42.260693" lon="3.093837">
        <ele>5</ele>
        <time>2019-08-19T01:41:42Z</time>
      </trkpt>
      <trkpt lat="42.260667" lon="3.093789">
        <ele>5</ele>
        <time>2019-08-19T01:41:43Z</time>
      </trkpt>
      <trkpt lat="42.26064" lon="3.09374">
        <ele>5</ele>
        <time>2019-08-19T01:41:44Z</time>
      </trkpt>
      <trkpt lat="42.260613" lon="3.093692">
        <ele>5</ele>
        <time>2019-08-19T01:41:45Z</time>
      </trkpt>
      <trkpt lat="42.260587" lon="3.093643">
        <ele>5</ele>
        <time>2019-08-19T01:41:46Z</time>
      </trkpt>
      <trkpt lat="42.26056" lon="3.093594">
        <ele>5</ele>
        <time>2019-08-19T01:41:47Z</time>
      </trkpt>
      <trkpt lat="42.260533" lon="3.093546">
        <ele>5</ele>
        <time>2019-08-19T01:41:48Z</time>
      </trkpt>
      <trkpt lat="42.260506" lon="3.093497">
        <ele>5</ele>
        <time>2019-08-19T01:41:49Z</time>
      </trkpt>
      <trkpt lat="42.26048" lon="3.093449">
        <ele>5</ele>
        <time>2019-08-19T01:41:50Z</time>
      </trkpt>
      <trkpt lat="42.260453" lon="3.0934">
        <ele>6</ele>
        <time>2019-08-19T01:41:51Z</time>
      </trkpt>
      <trkpt lat="42.260397" lon="3.093273">
        <ele>6</ele>
        <time>2019-08-19T01:41:52Z</time>
      </trkpt>
      <trkpt lat="42.260376" lon="3.093202">
        <ele>6</ele>
        <time>2019-08-19T01:41:53Z</time>
      </trkpt>
      <trkpt lat="42.260356" lon="3.093131">
        <ele>6</ele>
        <time>2019-08-19T01:41:54Z</time>
      </trkpt>
      <trkpt lat="42.260335" lon="3.09306">
        <ele>6</ele>
        <time>2019-08-19T01:41:55Z</time>
      </trkpt>
      <trkpt lat="42.260315" lon="3.09299">
        <ele>6</ele>
        <time>2019-08-19T01:41:56Z</time>
      </trkpt>
      <trkpt lat="42.260294" lon="3.092919">
        <ele>6</ele>
        <time>2019-08-19T01:41:57Z</time>
      </trkpt>
      <trkpt lat="42.260274" lon="3.092848">
        <ele>6</ele>
        <time>2019-08-19T01:41:58Z</time>
      </trkpt>
      <trkpt lat="42.260253" lon="3.092777">
        <ele>6</ele>
        <time>2019-08-19T01:42:00Z</time>
      </trkpt>
      <trkpt lat="42.260233" lon="3.092706">
        <ele>6</ele>
        <time>2019-08-19T01:42:01Z</time>
      </trkpt>
      <trkpt lat="42.260196" lon="3.092568">
        <ele>6</ele>
        <time>2019-08-19T01:42:02Z</time>
      </trkpt>
      <trkpt lat="42.260177" lon="3.092499">
        <ele>6</ele>
        <time>2019-08-19T01:42:03Z</time>
      </trkpt>
      <trkpt lat="42.260159" lon="3.092431">
        <ele>6</ele>
        <time>2019-08-19T01:42:04Z</time>
      </trkpt>
      <trkpt lat="42.260141" lon="3.092363">
        <ele>6</ele>
        <time>2019-08-19T01:42:05Z</time>
      </trkpt>
      <trkpt lat="42.260122" lon="3.092294">
        <ele>6</ele>
        <time>2019-08-19T01:42:06Z</time>
      </trkpt>
      <trkpt lat="42.260104" lon="3.092226">
        <ele>6</ele>
        <time>2019-08-19T01:42:07Z</time>
      </trkpt>
      <trkpt lat="42.260086" lon="3.092158">
        <ele>6</ele>
        <time>2019-08-19T01:42:09Z</time>
      </trkpt>
      <trkpt lat="42.260067" lon="3.092089">
        <ele>6</ele>
        <time>2019-08-19T01:42:10Z</time>
      </trkpt>
      <trkpt lat="42.260049" lon="3.092021">
        <ele>6</ele>
        <time>2019-08-19T01:42:11Z</time>
      </trkpt>
      <trkpt lat="42.260009" lon="3.091889">
        <ele>6</ele>
        <time>2019-08-19T01:42:12Z</time>
      </trkpt>
      <trkpt lat="42.259987" lon="3.091823">
        <ele>6</ele>
        <time>2019-08-19T01:42:13Z</time>
      </trkpt>
      <trkpt lat="42.259965" lon="3.091758">
        <ele>6</ele>
        <time>2019-08-19T01:42:14Z</time>
      </trkpt>
      <trkpt lat="42.259943" lon="3.091692">
        <ele>6</ele>
        <time>2019-08-19T01:42:15Z</time>
      </trkpt>
      <trkpt lat="42.259922" lon="3.091627">
        <ele>6</ele>
        <time>2019-08-19T01:42:16Z</time>
      </trkpt>
      <trkpt lat="42.2599" lon="3.091561">
        <ele>6</ele>
        <time>2019-08-19T01:42:17Z</time>
      </trkpt>
      <trkpt lat="42.259878" lon="3.091496">
        <ele>6</ele>
        <time>2019-08-19T01:42:19Z</time>
      </trkpt>
      <trkpt lat="42.259856" lon="3.09143">
        <ele>6</ele>
        <time>2019-08-19T01:42:20Z</time>
      </trkpt>
      <trkpt lat="42.259834" lon="3.091365">
        <ele>6</ele>
        <time>2019-08-19T01:42:21Z</time>
      </trkpt>
      <trkpt lat="42.259781" lon="3.091234">
        <ele>6</ele>
        <time>2019-08-19T01:42:22Z</time>
      </trkpt>
      <trkpt lat="42.259754" lon="3.09117">
        <ele>6</ele>
        <time>2019-08-19T01:42:23Z</time>
      </trkpt>
      <trkpt lat="42.259726" lon="3.091106">
        <ele>6</ele>
        <time>2019-08-19T01:42:24Z</time>
      </trkpt>
      <trkpt lat="42.259699" lon="3.091042">
        <ele>6</ele>
        <time>2019-08-19T01:42:25Z</time>
      </trkpt>
      <trkpt lat="42.259671" lon="3.090979">
        <ele>6</ele>
        <time>2019-08-19T01:42:26Z</time>
      </trkpt>
      <trkpt lat="42.259644" lon="3.090915">
        <ele>6</ele>
        <time>2019-08-19T01:42:28Z</time>
      </trkpt>
      <trkpt lat="42.259616" lon="3.090851">
        <ele>6</ele>
        <time>2019-08-19T01:42:29Z</time>
      </trkpt>
      <trkpt lat="42.259589" lon="3.090787">
        <ele>6</ele>
        <time>2019-08-19T01:42:30Z</time>
      </trkpt>
      <trkpt lat="42.259561" lon="3.090723">
        <ele>6</ele>
        <time>2019-08-19T01:42:31Z</time>
      </trkpt>
      <trkpt lat="42.2595" lon="3.090605">
        <ele>6</ele>
        <time>2019-08-19T01:42:32Z</time>
      </trkpt>
      <trkpt lat="42.259468" lon="3.090548">
        <ele>6</ele>
        <time>2019-08-19T01:42:33Z</time>
      </trkpt>
      <trkpt lat="42.259437" lon="3.090491">
        <ele>6</ele>
        <time>2019-08-19T01:42:34Z</time>
      </trkpt>
      <trkpt lat="42.259406" lon="3.090434">
        <ele>6</ele>
        <time>2019-08-19T01:42:35Z</time>
      </trkpt>
      <trkpt lat="42.259374" lon="3.090377">
        <ele>6</ele>
        <time>2019-08-19T01:42:37Z</time>
      </trkpt>
      <trkpt lat="42.259343" lon="3.09032">
        <ele>6</ele>
        <time>2019-08-19T01:42:38Z</time>
      </trkpt>
      <trkpt lat="42.259312" lon="3.090263">
        <ele>6</ele>
        <time>2019-08-19T01:42:39Z</time>
      </trkpt>
      <trkpt lat="42.25928" lon="3.090206">
        <ele>6</ele>
        <time>2019-08-19T01:42:40Z</time>
      </trkpt>
      <trkpt lat="42.259249" lon="3.090149">
        <ele>6</ele>
        <time>2019-08-19T01:42:41Z</time>
      </trkpt>
      <trkpt lat="42.259184" lon="3.090046">
        <ele>6</ele>
        <time>2019-08-19T01:42:42Z</time>
      </trkpt>
      <trkpt lat="42.25915" lon="3.089996">
        <ele>6</ele>
        <time>2019-08-19T01:42:43Z</time>
      </trkpt>
      <trkpt lat="42.259117" lon="3.089947">
        <ele>6</ele>
        <time>2019-08-19T01:42:44Z</time>
      </trkpt>
      <trkpt lat="42.259083" lon="3.089897">
        <ele>6</ele>
        <time>2019-08-19T01:42:45Z</time>
      </trkpt>
      <trkpt lat="42.25905" lon="3.089847">
        <ele>6</ele>
        <time>2019-08-19T01:42:47Z</time>
      </trkpt>
      <trkpt lat="42.259016" lon="3.089797">
        <ele>6</ele>
        <time>2019-08-19T01:42:48Z</time>
      </trkpt>
      <trkpt lat="42.258983" lon="3.089748">
        <ele>6</ele>
        <time>2019-08-19T01:42:49Z</time>
      </trkpt>
      <trkpt lat="42.258949" lon="3.089698">
        <ele>6</ele>
        <time>2019-08-19T01:42:50Z</time>
      </trkpt>
      <trkpt lat="42.258916" lon="3.089648">
        <ele>8</ele>
        <time>2019-08-19T01:42:51Z</time>
      </trkpt>
      <trkpt lat="42.258846" lon="3.089557">
        <ele>8</ele>
        <time>2019-08-19T01:42:52Z</time>
      </trkpt>
      <trkpt lat="42.25881" lon="3.089513">
        <ele>8</ele>
        <time>2019-08-19T01:42:53Z</time>
      </trkpt>
      <trkpt lat="42.258774" lon="3.089469">
        <ele>8</ele>
        <time>2019-08-19T01:42:54Z</time>
      </trkpt>
      <trkpt lat="42.258738" lon="3.089425">
        <ele>8</ele>
        <time>2019-08-19T01:42:55Z</time>
      </trkpt>
      <trkpt lat="42.258703" lon="3.08938">
        <ele>8</ele>
        <time>2019-08-19T01:42:57Z</time>
      </trkpt>
      <trkpt lat="42.258667" lon="3.089336">
        <ele>8</ele>
        <time>2019-08-19T01:42:58Z</time>
      </trkpt>
      <trkpt lat="42.258631" lon="3.089292">
        <ele>8</ele>
        <time>2019-08-19T01:42:59Z</time>
      </trkpt>
      <trkpt lat="42.258595" lon="3.089248">
        <ele>8</ele>
        <time>2019-08-19T01:43:00Z</time>
      </trkpt>
      <trkpt lat="42.258559" lon="3.089204">
        <ele>9</ele>
        <time>2019-08-19T01:43:01Z</time>
      </trkpt>
      <trkpt lat="42.258484" lon="3.089123">
        <ele>9</ele>
        <time>2019-08-19T01:43:02Z</time>
      </trkpt>
      <trkpt lat="42.258446" lon="3.089084">
        <ele>9</ele>
        <time>2019-08-19T01:43:03Z</time>
      </trkpt>
      <trkpt lat="42.258408" lon="3.089046">
        <ele>9</ele>
        <time>2019-08-19T01:43:04Z</time>
      </trkpt>
      <trkpt lat="42.25837" lon="3.089007">
        <ele>9</ele>
        <time>2019-08-19T01:43:05Z</time>
      </trkpt>
      <trkpt lat="42.258332" lon="3.088968">
        <ele>9</ele>
        <time>2019-08-19T01:43:07Z</time>
      </trkpt>
      <trkpt lat="42.258294" lon="3.088929">
        <ele>9</ele>
        <time>2019-08-19T01:43:08Z</time>
      </trkpt>
      <trkpt lat="42.258256" lon="3.088891">
        <ele>9</ele>
        <time>2019-08-19T01:43:09Z</time>
      </trkpt>
      <trkpt lat="42.258218" lon="3.088852">
        <ele>9</ele>
        <time>2019-08-19T01:43:10Z</time>
      </trkpt>
      <trkpt lat="42.25818" lon="3.088813">
        <ele>9</ele>
        <time>2019-08-19T01:43:11Z</time>
      </trkpt>
      <trkpt lat="42.258093" lon="3.088738">
        <ele>9</ele>
        <time>2019-08-19T01:43:12Z</time>
      </trkpt>
      <trkpt lat="42.258046" lon="3.088699">
        <ele>9</ele>
        <time>2019-08-19T01:43:13Z</time>
      </trkpt>
      <trkpt lat="42.257999" lon="3.08866">
        <ele>9</ele>
        <time>2019-08-19T01:43:14Z</time>
      </trkpt>
      <trkpt lat="42.257953" lon="3.088621">
        <ele>9</ele>
        <time>2019-08-19T01:43:16Z</time>
      </trkpt>
      <trkpt lat="42.257906" lon="3.088582">
        <ele>9</ele>
        <time>2019-08-19T01:43:18Z</time>
      </trkpt>
      <trkpt lat="42.257859" lon="3.088543">
        <ele>9</ele>
        <time>2019-08-19T01:43:19Z</time>
      </trkpt>
      <trkpt lat="42.257812" lon="3.088504">
        <ele>9</ele>
        <time>2019-08-19T01:43:20Z</time>
      </trkpt>
      <trkpt lat="42.257765" lon="3.088465">
        <ele>10</ele>
        <time>2019-08-19T01:43:21Z</time>
      </trkpt>
      <trkpt lat="42.257676" lon="3.088399">
        <ele>10</ele>
        <time>2019-08-19T01:43:22Z</time>
      </trkpt>
      <trkpt lat="42.257631" lon="3.088368">
        <ele>10</ele>
        <time>2019-08-19T01:43:23Z</time>
      </trkpt>
      <trkpt lat="42.257585" lon="3.088336">
        <ele>10</ele>
        <time>2019-08-19T01:43:24Z</time>
      </trkpt>
      <trkpt lat="42.25754" lon="3.088304">
        <ele>10</ele>
        <time>2019-08-19T01:43:25Z</time>
      </trkpt>
      <trkpt lat="42.257494" lon="3.088273">
        <ele>10</ele>
        <time>2019-08-19T01:43:26Z</time>
      </trkpt>
      <trkpt lat="42.257449" lon="3.088241">
        <ele>10</ele>
        <time>2019-08-19T01:43:28Z</time>
      </trkpt>
      <trkpt lat="42.257403" lon="3.088209">
        <ele>10</ele>
        <time>2019-08-19T01:43:29Z</time>
      </trkpt>
      <trkpt lat="42.257358" lon="3.088178">
        <ele>10</ele>
        <time>2019-08-19T01:43:30Z</time>
      </trkpt>
      <trkpt lat="42.257312" lon="3.088146">
        <ele>10</ele>
        <time>2019-08-19T01:43:31Z</time>
      </trkpt>
      <trkpt lat="42.257214" lon="3.088079">
        <ele>10</ele>
        <time>2019-08-19T01:43:32Z</time>
      </trkpt>
      <trkpt lat="42.257163" lon="3.088044">
        <ele>10</ele>
        <time>2019-08-19T01:43:33Z</time>
      </trkpt>
      <trkpt lat="42.257111" lon="3.088009">
        <ele>10</ele>
        <time>2019-08-19T01:43:35Z</time>
      </trkpt>
      <trkpt lat="42.257059" lon="3.087974">
        <ele>10</ele>
        <time>2019-08-19T01:43:37Z</time>
      </trkpt>
      <trkpt lat="42.257007" lon="3.08794">
        <ele>10</ele>
        <time>2019-08-19T01:43:38Z</time>
      </trkpt>
      <trkpt lat="42.256956" lon="3.087905">
        <ele>10</ele>
        <time>2019-08-19T01:43:39Z</time>
      </trkpt>
      <trkpt lat="42.256904" lon="3.08787">
        <ele>10</ele>
        <time>2019-08-19T01:43:40Z</time>
      </trkpt>
      <trkpt lat="42.256852" lon="3.087835">
        <ele>11</ele>
        <time>2019-08-19T01:43:41Z</time>
      </trkpt>
      <trkpt lat="42.256767" lon="3.087776">
        <ele>11</ele>
        <time>2019-08-19T01:43:42Z</time>
      </trkpt>
      <trkpt lat="42.256727" lon="3.087748">
        <ele>11</ele>
        <time>2019-08-19T01:43:43Z</time>
      </trkpt>
      <trkpt lat="42.256687" lon="3.08772">
        <ele>11</ele>
        <time>2019-08-19T01:43:44Z</time>
      </trkpt>
      <trkpt lat="42.256647" lon="3.087692">
        <ele>11</ele>
        <time>2019-08-19T01:43:45Z</time>
      </trkpt>
      <trkpt lat="42.256608" lon="3.087664">
        <ele>11</ele>
        <time>2019-08-19T01:43:46Z</time>
      </trkpt>
      <trkpt lat="42.256568" lon="3.087637">
        <ele>11</ele>
        <time>2019-08-19T01:43:47Z</time>
      </trkpt>
      <trkpt lat="42.256528" lon="3.087609">
        <ele>11</ele>
        <time>2019-08-19T01:43:48Z</time>
      </trkpt>
      <trkpt lat="42.256488" lon="3.087581">
        <ele>11</ele>
        <time>2019-08-19T01:43:49Z</time>
      </trkpt>
      <trkpt lat="42.256448" lon="3.087553">
        <ele>11</ele>
        <time>2019-08-19T01:43:50Z</time>
      </trkpt>
      <trkpt lat="42.256408" lon="3.087525">
        <ele>12</ele>
        <time>2019-08-19T01:43:51Z</time>
      </trkpt>
      <trkpt lat="42.256312" lon="3.087457">
        <ele>12</ele>
        <time>2019-08-19T01:43:52Z</time>
      </trkpt>
      <trkpt lat="42.256261" lon="3.087422">
        <ele>12</ele>
        <time>2019-08-19T01:43:54Z</time>
      </trkpt>
      <trkpt lat="42.25621" lon="3.087387">
        <ele>12</ele>
        <time>2019-08-19T01:43:55Z</time>
      </trkpt>
      <trkpt lat="42.256159" lon="3.087351">
        <ele>12</ele>
        <time>2019-08-19T01:43:57Z</time>
      </trkpt>
      <trkpt lat="42.256107" lon="3.087316">
        <ele>12</ele>
        <time>2019-08-19T01:43:58Z</time>
      </trkpt>
      <trkpt lat="42.256056" lon="3.087281">
        <ele>12</ele>
        <time>2019-08-19T01:43:59Z</time>
      </trkpt>
      <trkpt lat="42.256005" lon="3.087246">
        <ele>12</ele>
        <time>2019-08-19T01:44:00Z</time>
      </trkpt>
      <trkpt lat="42.255954" lon="3.087211">
        <ele>12</ele>
        <time>2019-08-19T01:44:01Z</time>
      </trkpt>
      <trkpt lat="42.255865" lon="3.08715">
        <ele>12</ele>
        <time>2019-08-19T01:44:02Z</time>
      </trkpt>
      <trkpt lat="42.255822" lon="3.087121">
        <ele>12</ele>
        <time>2019-08-19T01:44:03Z</time>
      </trkpt>
      <trkpt lat="42.255779" lon="3.087091">
        <ele>12</ele>
        <time>2019-08-19T01:44:04Z</time>
      </trkpt>
      <trkpt lat="42.255736" lon="3.087061">
        <ele>12</ele>
        <time>2019-08-19T01:44:05Z</time>
      </trkpt>
      <trkpt lat="42.255693" lon="3.087032">
        <ele>12</ele>
        <time>2019-08-19T01:44:07Z</time>
      </trkpt>
      <trkpt lat="42.25565" lon="3.087002">
        <ele>12</ele>
        <time>2019-08-19T01:44:08Z</time>
      </trkpt>
      <trkpt lat="42.255607" lon="3.086972">
        <ele>12</ele>
        <time>2019-08-19T01:44:09Z</time>
      </trkpt>
      <trkpt lat="42.255564" lon="3.086943">
        <ele>12</ele>
        <time>2019-08-19T01:44:10Z</time>
      </trkpt>
      <trkpt lat="42.255521" lon="3.086913">
        <ele>14</ele>
        <time>2019-08-19T01:44:11Z</time>
      </trkpt>
      <trkpt lat="42.25539" lon="3.086824">
        <ele>14</ele>
        <time>2019-08-19T01:44:13Z</time>
      </trkpt>
      <trkpt lat="42.255344" lon="3.086794">
        <ele>14</ele>
        <time>2019-08-19T01:44:14Z</time>
      </trkpt>
      <trkpt lat="42.255298" lon="3.086764">
        <ele>14</ele>
        <time>2019-08-19T01:44:15Z</time>
      </trkpt>
      <trkpt lat="42.255252" lon="3.086734">
        <ele>14</ele>
        <time>2019-08-19T01:44:16Z</time>
      </trkpt>
      <trkpt lat="42.255206" lon="3.086704">
        <ele>14</ele>
        <time>2019-08-19T01:44:18Z</time>
      </trkpt>
      <trkpt lat="42.25516" lon="3.086674">
        <ele>14</ele>
        <time>2019-08-19T01:44:19Z</time>
      </trkpt>
      <trkpt lat="42.255114" lon="3.086644">
        <ele>14</ele>
        <time>2019-08-19T01:44:20Z</time>
      </trkpt>
      <trkpt lat="42.255068" lon="3.086614">
        <ele>14</ele>
        <time>2019-08-19T01:44:21Z</time>
      </trkpt>
      <trkpt lat="42.254965" lon="3.086546">
        <ele>14</ele>
        <time>2019-08-19T01:44:22Z</time>
      </trkpt>
      <trkpt lat="42.254911" lon="3.08651">
        <ele>14</ele>
        <time>2019-08-19T01:44:23Z</time>
      </trkpt>
      <trkpt lat="42.254856" lon="3.086473">
        <ele>14</ele>
        <time>2019-08-19T01:44:24Z</time>
      </trkpt>
      <trkpt lat="42.254802" lon="3.086436">
        <ele>14</ele>
        <time>2019-08-19T01:44:25Z</time>
      </trkpt>
      <trkpt lat="42.254747" lon="3.0864">
        <ele>14</ele>
        <time>2019-08-19T01:44:27Z</time>
      </trkpt>
      <trkpt lat="42.254693" lon="3.086363">
        <ele>14</ele>
        <time>2019-08-19T01:44:28Z</time>
      </trkpt>
      <trkpt lat="42.254638" lon="3.086326">
        <ele>14</ele>
        <time>2019-08-19T01:44:29Z</time>
      </trkpt>
      <trkpt lat="42.254584" lon="3.08629">
        <ele>14</ele>
        <time>2019-08-19T01:44:30Z</time>
      </trkpt>
      <trkpt lat="42.254529" lon="3.086253">
        <ele>13</ele>
        <time>2019-08-19T01:44:32Z</time>
      </trkpt>
      <trkpt lat="42.254425" lon="3.086184">
        <ele>13</ele>
        <time>2019-08-19T01:44:33Z</time>
      </trkpt>
      <trkpt lat="42.254373" lon="3.086148">
        <ele>13</ele>
        <time>2019-08-19T01:44:34Z</time>
      </trkpt>
      <trkpt lat="42.25432" lon="3.086113">
        <ele>13</ele>
        <time>2019-08-19T01:44:36Z</time>
      </trkpt>
      <trkpt lat="42.254267" lon="3.086077">
        <ele>13</ele>
        <time>2019-08-19T01:44:37Z</time>
      </trkpt>
      <trkpt lat="42.254214" lon="3.086042">
        <ele>13</ele>
        <time>2019-08-19T01:44:38Z</time>
      </trkpt>
      <trkpt lat="42.254162" lon="3.086007">
        <ele>13</ele>
        <time>2019-08-19T01:44:39Z</time>
      </trkpt>
      <trkpt lat="42.254109" lon="3.085971">
        <ele>13</ele>
        <time>2019-08-19T01:44:40Z</time>
      </trkpt>
      <trkpt lat="42.254056" lon="3.085936">
        <ele>13</ele>
        <time>2019-08-19T01:44:41Z</time>
      </trkpt>
      <trkpt lat="42.253944" lon="3.085856">
        <ele>13</ele>
        <time>2019-08-19T01:44:42Z</time>
      </trkpt>
      <trkpt lat="42.253886" lon="3.085809">
        <ele>13</ele>
        <time>2019-08-19T01:44:44Z</time>
      </trkpt>
      <trkpt lat="42.253827" lon="3.085763">
        <ele>13</ele>
        <time>2019-08-19T01:44:45Z</time>
      </trkpt>
      <trkpt lat="42.253769" lon="3.085717">
        <ele>13</ele>
        <time>2019-08-19T01:44:46Z</time>
      </trkpt>
      <trkpt lat="42.253711" lon="3.08567">
        <ele>13</ele>
        <time>2019-08-19T01:44:47Z</time>
      </trkpt>
      <trkpt lat="42.253653" lon="3.085624">
        <ele>13</ele>
        <time>2019-08-19T01:44:48Z</time>
      </trkpt>
      <trkpt lat="42.253594" lon="3.085578">
        <ele>13</ele>
        <time>2019-08-19T01:44:49Z</time>
      </trkpt>
      <trkpt lat="42.253536" lon="3.085531">
        <ele>13</ele>
        <time>2019-08-19T01:44:51Z</time>
      </trkpt>
      <trkpt lat="42.253478" lon="3.085485">
        <ele>13</ele>
        <time>2019-08-19T01:44:52Z</time>
      </trkpt>
      <trkpt lat="42.253348" lon="3.08533">
        <ele>13</ele>
        <time>2019-08-19T01:44:53Z</time>
      </trkpt>
      <trkpt lat="42.2533" lon="3.085258">
        <ele>13</ele>
        <time>2019-08-19T01:44:54Z</time>
      </trkpt>
      <trkpt lat="42.253252" lon="3.085187">
        <ele>13</ele>
        <time>2019-08-19T01:44:55Z</time>
      </trkpt>
      <trkpt lat="42.253204" lon="3.085116">
        <ele>13</ele>
        <time>2019-08-19T01:44:56Z</time>
      </trkpt>
      <trkpt lat="42.253155" lon="3.085045">
        <ele>13</ele>
        <time>2019-08-19T01:44:57Z</time>
      </trkpt>
      <trkpt lat="42.253107" lon="3.084973">
        <ele>13</ele>
        <time>2019-08-19T01:44:58Z</time>
      </trkpt>
      <trkpt lat="42.253059" lon="3.084902">
        <ele>13</ele>
        <time>2019-08-19T01:45:00Z</time>
      </trkpt>
      <trkpt lat="42.253011" lon="3.084831">
        <ele>11</ele>
        <time>2019-08-19T01:45:01Z</time>
      </trkpt>
      <trkpt lat="42.252935" lon="3.084662">
        <ele>11</ele>
        <time>2019-08-19T01:45:02Z</time>
      </trkpt>
      <trkpt lat="42.252903" lon="3.084575">
        <ele>11</ele>
        <time>2019-08-19T01:45:03Z</time>
      </trkpt>
      <trkpt lat="42.25287" lon="3.084487">
        <ele>11</ele>
        <time>2019-08-19T01:45:04Z</time>
      </trkpt>
      <trkpt lat="42.252838" lon="3.084399">
        <ele>11</ele>
        <time>2019-08-19T01:45:05Z</time>
      </trkpt>
      <trkpt lat="42.252805" lon="3.084312">
        <ele>11</ele>
        <time>2019-08-19T01:45:06Z</time>
      </trkpt>
      <trkpt lat="42.252773" lon="3.084224">
        <ele>11</ele>
        <time>2019-08-19T01:45:07Z</time>
      </trkpt>
      <trkpt lat="42.25274" lon="3.084136">
        <ele>11</ele>
        <time>2019-08-19T01:45:08Z</time>
      </trkpt>
      <trkpt lat="42.252708" lon="3.084049">
        <ele>11</ele>
        <time>2019-08-19T01:45:10Z</time>
      </trkpt>
      <trkpt lat="42.252675" lon="3.083961">
        <ele>10</ele>
        <time>2019-08-19T01:45:11Z</time>
      </trkpt>
      <trkpt lat="42.252593" lon="3.083696">
        <ele>10</ele>
        <time>2019-08-19T01:45:13Z</time>
      </trkpt>
      <trkpt lat="42.252566" lon="3.083608">
        <ele>10</ele>
        <time>2019-08-19T01:45:14Z</time>
      </trkpt>
      <trkpt lat="42.252539" lon="3.083521">
        <ele>10</ele>
        <time>2019-08-19T01:45:15Z</time>
      </trkpt>
      <trkpt lat="42.252512" lon="3.083433">
        <ele>10</ele>
        <time>2019-08-19T01:45:16Z</time>
      </trkpt>
      <trkpt lat="42.252485" lon="3.083345">
        <ele>10</ele>
        <time>2019-08-19T01:45:17Z</time>
      </trkpt>
      <trkpt lat="42.252458" lon="3.083257">
        <ele>10</ele>
        <time>2019-08-19T01:45:18Z</time>
      </trkpt>
      <trkpt lat="42.252431" lon="3.08317">
        <ele>10</ele>
        <time>2019-08-19T01:45:20Z</time>
      </trkpt>
      <trkpt lat="42.252404" lon="3.083082">
        <ele>9</ele>
        <time>2019-08-19T01:45:21Z</time>
      </trkpt>
      <trkpt lat="42.252351" lon="3.082914">
        <ele>9</ele>
        <time>2019-08-19T01:45:22Z</time>
      </trkpt>
      <trkpt lat="42.252326" lon="3.082831">
        <ele>9</ele>
        <time>2019-08-19T01:45:23Z</time>
      </trkpt>
      <trkpt lat="42.2523" lon="3.082747">
        <ele>9</ele>
        <time>2019-08-19T01:45:24Z</time>
      </trkpt>
      <trkpt lat="42.252275" lon="3.082663">
        <ele>9</ele>
        <time>2019-08-19T01:45:25Z</time>
      </trkpt>
      <trkpt lat="42.25225" lon="3.08258">
        <ele>9</ele>
        <time>2019-08-19T01:45:26Z</time>
      </trkpt>
      <trkpt lat="42.252225" lon="3.082496">
        <ele>9</ele>
        <time>2019-08-19T01:45:28Z</time>
      </trkpt>
      <trkpt lat="42.252199" lon="3.082412">
        <ele>9</ele>
        <time>2019-08-19T01:45:29Z</time>
      </trkpt>
      <trkpt lat="42.252174" lon="3.082329">
        <ele>9</ele>
        <time>2019-08-19T01:45:30Z</time>
      </trkpt>
      <trkpt lat="42.252149" lon="3.082245">
        <ele>10</ele>
        <time>2019-08-19T01:45:31Z</time>
      </trkpt>
      <trkpt lat="42.252097" lon="3.082075">
        <ele>10</ele>
        <time>2019-08-19T01:45:32Z</time>
      </trkpt>
      <trkpt lat="42.252072" lon="3.081988">
        <ele>10</ele>
        <time>2019-08-19T01:45:33Z</time>
      </trkpt>
      <trkpt lat="42.252046" lon="3.081902">
        <ele>10</ele>
        <time>2019-08-19T01:45:35Z</time>
      </trkpt>
      <trkpt lat="42.252021" lon="3.081815">
        <ele>10</ele>
        <time>2019-08-19T01:45:36Z</time>
      </trkpt>
      <trkpt lat="42.251995" lon="3.081728">
        <ele>10</ele>
        <time>2019-08-19T01:45:37Z</time>
      </trkpt>
      <trkpt lat="42.25197" lon="3.081641">
        <ele>10</ele>
        <time>2019-08-19T01:45:38Z</time>
      </trkpt>
      <trkpt lat="42.251944" lon="3.081555">
        <ele>10</ele>
        <time>2019-08-19T01:45:39Z</time>
      </trkpt>
      <trkpt lat="42.251919" lon="3.081468">
        <ele>10</ele>
        <time>2019-08-19T01:45:40Z</time>
      </trkpt>
      <trkpt lat="42.251893" lon="3.081381">
        <ele>10</ele>
        <time>2019-08-19T01:45:41Z</time>
      </trkpt>
      <trkpt lat="42.25185" lon="3.0812">
        <ele>10</ele>
        <time>2019-08-19T01:45:42Z</time>
      </trkpt>
      <trkpt lat="42.25183" lon="3.081109">
        <ele>10</ele>
        <time>2019-08-19T01:45:43Z</time>
      </trkpt>
      <trkpt lat="42.251811" lon="3.081018">
        <ele>10</ele>
        <time>2019-08-19T01:45:44Z</time>
      </trkpt>
      <trkpt lat="42.251791" lon="3.080927">
        <ele>10</ele>
        <time>2019-08-19T01:45:45Z</time>
      </trkpt>
      <trkpt lat="42.251772" lon="3.080835">
        <ele>10</ele>
        <time>2019-08-19T01:45:46Z</time>
      </trkpt>
      <trkpt lat="42.251752" lon="3.080744">
        <ele>10</ele>
        <time>2019-08-19T01:45:48Z</time>
      </trkpt>
      <trkpt lat="42.251733" lon="3.080653">
        <ele>10</ele>
        <time>2019-08-19T01:45:49Z</time>
      </trkpt>
      <trkpt lat="42.251713" lon="3.080562">
        <ele>10</ele>
        <time>2019-08-19T01:45:50Z</time>
      </trkpt>
      <trkpt lat="42.251694" lon="3.080471">
        <ele>9</ele>
        <time>2019-08-19T01:45:51Z</time>
      </trkpt>
      <trkpt lat="42.251667" lon="3.080289">
        <ele>9</ele>
        <time>2019-08-19T01:45:52Z</time>
      </trkpt>
      <trkpt lat="42.251657" lon="3.080198">
        <ele>9</ele>
        <time>2019-08-19T01:45:53Z</time>
      </trkpt>
      <trkpt lat="42.251646" lon="3.080107">
        <ele>9</ele>
        <time>2019-08-19T01:45:54Z</time>
      </trkpt>
      <trkpt lat="42.251635" lon="3.080016">
        <ele>9</ele>
        <time>2019-08-19T01:45:55Z</time>
      </trkpt>
      <trkpt lat="42.251625" lon="3.079924">
        <ele>9</ele>
        <time>2019-08-19T01:45:57Z</time>
      </trkpt>
      <trkpt lat="42.251614" lon="3.079833">
        <ele>9</ele>
        <time>2019-08-19T01:45:58Z</time>
      </trkpt>
      <trkpt lat="42.251603" lon="3.079742">
        <ele>9</ele>
        <time>2019-08-19T01:45:59Z</time>
      </trkpt>
      <trkpt lat="42.251593" lon="3.079651">
        <ele>9</ele>
        <time>2019-08-19T01:46:00Z</time>
      </trkpt>
      <trkpt lat="42.251582" lon="3.07956">
        <ele>10</ele>
        <time>2019-08-19T01:46:01Z</time>
      </trkpt>
      <trkpt lat="42.25157" lon="3.079353">
        <ele>10</ele>
        <time>2019-08-19T01:46:02Z</time>
      </trkpt>
      <trkpt lat="42.251566" lon="3.079238">
        <ele>10</ele>
        <time>2019-08-19T01:46:04Z</time>
      </trkpt>
      <trkpt lat="42.251562" lon="3.079122">
        <ele>10</ele>
        <time>2019-08-19T01:46:05Z</time>
      </trkpt>
      <trkpt lat="42.251557" lon="3.079006">
        <ele>10</ele>
        <time>2019-08-19T01:46:07Z</time>
      </trkpt>
      <trkpt lat="42.251553" lon="3.07889">
        <ele>10</ele>
        <time>2019-08-19T01:46:08Z</time>
      </trkpt>
      <trkpt lat="42.251549" lon="3.078775">
        <ele>10</ele>
        <time>2019-08-19T01:46:09Z</time>
      </trkpt>
      <trkpt lat="42.251545" lon="3.078659">
        <ele>9</ele>
        <time>2019-08-19T01:46:11Z</time>
      </trkpt>
      <trkpt lat="42.251541" lon="3.078481">
        <ele>9</ele>
        <time>2019-08-19T01:46:12Z</time>
      </trkpt>
      <trkpt lat="42.251539" lon="3.078392">
        <ele>9</ele>
        <time>2019-08-19T01:46:13Z</time>
      </trkpt>
      <trkpt lat="42.251537" lon="3.078303">
        <ele>9</ele>
        <time>2019-08-19T01:46:14Z</time>
      </trkpt>
      <trkpt lat="42.251535" lon="3.078214">
        <ele>9</ele>
        <time>2019-08-19T01:46:15Z</time>
      </trkpt>
      <trkpt lat="42.251533" lon="3.078125">
        <ele>9</ele>
        <time>2019-08-19T01:46:16Z</time>
      </trkpt>
      <trkpt lat="42.251531" lon="3.078036">
        <ele>9</ele>
        <time>2019-08-19T01:46:17Z</time>
      </trkpt>
      <trkpt lat="42.251529" lon="3.077947">
        <ele>9</ele>
        <time>2019-08-19T01:46:19Z</time>
      </trkpt>
      <trkpt lat="42.251527" lon="3.077858">
        <ele>9</ele>
        <time>2019-08-19T01:46:20Z</time>
      </trkpt>
      <trkpt lat="42.251525" lon="3.077769">
        <ele>9</ele>
        <time>2019-08-19T01:46:21Z</time>
      </trkpt>
      <trkpt lat="42.251521" lon="3.077594">
        <ele>9</ele>
        <time>2019-08-19T01:46:22Z</time>
      </trkpt>
      <trkpt lat="42.25152" lon="3.077509">
        <ele>9</ele>
        <time>2019-08-19T01:46:23Z</time>
      </trkpt>
      <trkpt lat="42.251518" lon="3.077425">
        <ele>9</ele>
        <time>2019-08-19T01:46:24Z</time>
      </trkpt>
      <trkpt lat="42.251516" lon="3.07734">
        <ele>9</ele>
        <time>2019-08-19T01:46:26Z</time>
      </trkpt>
      <trkpt lat="42.251515" lon="3.077255">
        <ele>9</ele>
        <time>2019-08-19T01:46:27Z</time>
      </trkpt>
      <trkpt lat="42.251513" lon="3.07717">
        <ele>9</ele>
        <time>2019-08-19T01:46:28Z</time>
      </trkpt>
      <trkpt lat="42.251511" lon="3.077086">
        <ele>9</ele>
        <time>2019-08-19T01:46:29Z</time>
      </trkpt>
      <trkpt lat="42.25151" lon="3.077001">
        <ele>9</ele>
        <time>2019-08-19T01:46:30Z</time>
      </trkpt>
      <trkpt lat="42.251508" lon="3.076916">
        <ele>9</ele>
        <time>2019-08-19T01:46:31Z</time>
      </trkpt>
      <trkpt lat="42.251536" lon="3.076777">
        <ele>9</ele>
        <time>2019-08-19T01:46:32Z</time>
      </trkpt>
      <trkpt lat="42.251561" lon="3.076718">
        <ele>9</ele>
        <time>2019-08-19T01:46:33Z</time>
      </trkpt>
      <trkpt lat="42.251586" lon="3.076659">
        <ele>9</ele>
        <time>2019-08-19T01:46:35Z</time>
      </trkpt>
      <trkpt lat="42.251611" lon="3.0766">
        <ele>9</ele>
        <time>2019-08-19T01:46:36Z</time>
      </trkpt>
      <trkpt lat="42.251636" lon="3.076542">
        <ele>9</ele>
        <time>2019-08-19T01:46:37Z</time>
      </trkpt>
      <trkpt lat="42.251661" lon="3.076483">
        <ele>9</ele>
        <time>2019-08-19T01:46:38Z</time>
      </trkpt>
      <trkpt lat="42.251686" lon="3.076424">
        <ele>9</ele>
        <time>2019-08-19T01:46:39Z</time>
      </trkpt>
      <trkpt lat="42.251711" lon="3.076365">
        <ele>9</ele>
        <time>2019-08-19T01:46:40Z</time>
      </trkpt>
      <trkpt lat="42.251736" lon="3.076306">
        <ele>10</ele>
        <time>2019-08-19T01:46:41Z</time>
      </trkpt>
      <trkpt lat="42.251764" lon="3.076165">
        <ele>10</ele>
        <time>2019-08-19T01:46:42Z</time>
      </trkpt>
      <trkpt lat="42.251775" lon="3.076089">
        <ele>10</ele>
        <time>2019-08-19T01:46:44Z</time>
      </trkpt>
      <trkpt lat="42.251786" lon="3.076014">
        <ele>10</ele>
        <time>2019-08-19T01:46:45Z</time>
      </trkpt>
      <trkpt lat="42.251797" lon="3.075938">
        <ele>10</ele>
        <time>2019-08-19T01:46:46Z</time>
      </trkpt>
      <trkpt lat="42.251807" lon="3.075863">
        <ele>10</ele>
        <time>2019-08-19T01:46:47Z</time>
      </trkpt>
      <trkpt lat="42.251818" lon="3.075787">
        <ele>10</ele>
        <time>2019-08-19T01:46:48Z</time>
      </trkpt>
      <trkpt lat="42.251829" lon="3.075712">
        <ele>10</ele>
        <time>2019-08-19T01:46:49Z</time>
      </trkpt>
      <trkpt lat="42.25184" lon="3.075636">
        <ele>10</ele>
        <time>2019-08-19T01:46:50Z</time>
      </trkpt>
      <trkpt lat="42.251851" lon="3.075561">
        <ele>11</ele>
        <time>2019-08-19T01:46:51Z</time>
      </trkpt>
      <trkpt lat="42.251934" lon="3.075436">
        <ele>11</ele>
        <time>2019-08-19T01:46:52Z</time>
      </trkpt>
      <trkpt lat="42.251977" lon="3.075376">
        <ele>11</ele>
        <time>2019-08-19T01:46:53Z</time>
      </trkpt>
      <trkpt lat="42.25202" lon="3.075317">
        <ele>11</ele>
        <time>2019-08-19T01:46:54Z</time>
      </trkpt>
      <trkpt lat="42.252063" lon="3.075257">
        <ele>11</ele>
        <time>2019-08-19T01:46:55Z</time>
      </trkpt>
      <trkpt lat="42.252105" lon="3.075197">
        <ele>11</ele>
        <time>2019-08-19T01:46:56Z</time>
      </trkpt>
      <trkpt lat="42.252148" lon="3.075137">
        <ele>11</ele>
        <time>2019-08-19T01:46:57Z</time>
      </trkpt>
      <trkpt lat="42.252191" lon="3.075078">
        <ele>11</ele>
        <time>2019-08-19T01:46:58Z</time>
      </trkpt>
      <trkpt lat="42.252234" lon="3.075018">
        <ele>11</ele>
        <time>2019-08-19T01:46:59Z</time>
      </trkpt>
      <trkpt lat="42.252277" lon="3.074958">
        <ele>11</ele>
        <time>2019-08-19T01:47:01Z</time>
      </trkpt>
      <trkpt lat="42.252358" lon="3.074814">
        <ele>11</ele>
        <time>2019-08-19T01:47:02Z</time>
      </trkpt>
      <trkpt lat="42.252401" lon="3.074735">
        <ele>11</ele>
        <time>2019-08-19T01:47:04Z</time>
      </trkpt>
      <trkpt lat="42.252444" lon="3.074656">
        <ele>11</ele>
        <time>2019-08-19T01:47:05Z</time>
      </trkpt>
      <trkpt lat="42.252487" lon="3.074578">
        <ele>11</ele>
        <time>2019-08-19T01:47:06Z</time>
      </trkpt>
      <trkpt lat="42.252529" lon="3.074499">
        <ele>11</ele>
        <time>2019-08-19T01:47:07Z</time>
      </trkpt>
      <trkpt lat="42.252572" lon="3.07442">
        <ele>11</ele>
        <time>2019-08-19T01:47:09Z</time>
      </trkpt>
      <trkpt lat="42.252615" lon="3.074341">
        <ele>11</ele>
        <time>2019-08-19T01:47:10Z</time>
      </trkpt>
      <trkpt lat="42.252658" lon="3.074262">
        <ele>10</ele>
        <time>2019-08-19T01:47:11Z</time>
      </trkpt>
      <trkpt lat="42.252732" lon="3.074124">
        <ele>10</ele>
        <time>2019-08-19T01:47:12Z</time>
      </trkpt>
      <trkpt lat="42.25277" lon="3.074056">
        <ele>10</ele>
        <time>2019-08-19T01:47:13Z</time>
      </trkpt>
      <trkpt lat="42.252807" lon="3.073987">
        <ele>10</ele>
        <time>2019-08-19T01:47:14Z</time>
      </trkpt>
      <trkpt lat="42.252844" lon="3.073919">
        <ele>10</ele>
        <time>2019-08-19T01:47:15Z</time>
      </trkpt>
      <trkpt lat="42.252882" lon="3.073851">
        <ele>10</ele>
        <time>2019-08-19T01:47:17Z</time>
      </trkpt>
      <trkpt lat="42.252919" lon="3.073783">
        <ele>10</ele>
        <time>2019-08-19T01:47:18Z</time>
      </trkpt>
      <trkpt lat="42.252956" lon="3.073714">
        <ele>10</ele>
        <time>2019-08-19T01:47:19Z</time>
      </trkpt>
      <trkpt lat="42.252994" lon="3.073646">
        <ele>10</ele>
        <time>2019-08-19T01:47:20Z</time>
      </trkpt>
      <trkpt lat="42.253031" lon="3.073578">
        <ele>10</ele>
        <time>2019-08-19T01:47:21Z</time>
      </trkpt>
      <trkpt lat="42.253146" lon="3.073366">
        <ele>10</ele>
        <time>2019-08-19T01:47:23Z</time>
      </trkpt>
      <trkpt lat="42.253187" lon="3.073288">
        <ele>10</ele>
        <time>2019-08-19T01:47:25Z</time>
      </trkpt>
      <trkpt lat="42.253229" lon="3.073211">
        <ele>10</ele>
        <time>2019-08-19T01:47:26Z</time>
      </trkpt>
      <trkpt lat="42.253271" lon="3.073133">
        <ele>10</ele>
        <time>2019-08-19T01:47:27Z</time>
      </trkpt>
      <trkpt lat="42.253313" lon="3.073056">
        <ele>10</ele>
        <time>2019-08-19T01:47:28Z</time>
      </trkpt>
      <trkpt lat="42.253354" lon="3.072978">
        <ele>10</ele>
        <time>2019-08-19T01:47:30Z</time>
      </trkpt>
      <trkpt lat="42.253396" lon="3.072901">
        <ele>10</ele>
        <time>2019-08-19T01:47:31Z</time>
      </trkpt>
      <trkpt lat="42.253469" lon="3.072768">
        <ele>10</ele>
        <time>2019-08-19T01:47:32Z</time>
      </trkpt>
      <trkpt lat="42.253505" lon="3.072703">
        <ele>10</ele>
        <time>2019-08-19T01:47:33Z</time>
      </trkpt>
      <trkpt lat="42.25354" lon="3.072638">
        <ele>10</ele>
        <time>2019-08-19T01:47:34Z</time>
      </trkpt>
      <trkpt lat="42.253576" lon="3.072573">
        <ele>10</ele>
        <time>2019-08-19T01:47:35Z</time>
      </trkpt>
      <trkpt lat="42.253612" lon="3.072509">
        <ele>10</ele>
        <time>2019-08-19T01:47:36Z</time>
      </trkpt>
      <trkpt lat="42.253648" lon="3.072444">
        <ele>10</ele>
        <time>2019-08-19T01:47:37Z</time>
      </trkpt>
      <trkpt lat="42.253683" lon="3.072379">
        <ele>10</ele>
        <time>2019-08-19T01:47:38Z</time>
      </trkpt>
      <trkpt lat="42.253719" lon="3.072314">
        <ele>10</ele>
        <time>2019-08-19T01:47:39Z</time>
      </trkpt>
      <trkpt lat="42.253755" lon="3.072249">
        <ele>10</ele>
        <time>2019-08-19T01:47:41Z</time>
      </trkpt>
      <trkpt lat="42.253818" lon="3.072136">
        <ele>10</ele>
        <time>2019-08-19T01:47:42Z</time>
      </trkpt>
      <trkpt lat="42.253847" lon="3.072084">
        <ele>10</ele>
        <time>2019-08-19T01:47:43Z</time>
      </trkpt>
      <trkpt lat="42.253875" lon="3.072032">
        <ele>10</ele>
        <time>2019-08-19T01:47:44Z</time>
      </trkpt>
      <trkpt lat="42.253904" lon="3.07198">
        <ele>10</ele>
        <time>2019-08-19T01:47:45Z</time>
      </trkpt>
      <trkpt lat="42.253932" lon="3.071928">
        <ele>10</ele>
        <time>2019-08-19T01:47:46Z</time>
      </trkpt>
      <trkpt lat="42.25396" lon="3.071875">
        <ele>10</ele>
        <time>2019-08-19T01:47:47Z</time>
      </trkpt>
      <trkpt lat="42.253989" lon="3.071823">
        <ele>10</ele>
        <time>2019-08-19T01:47:48Z</time>
      </trkpt>
      <trkpt lat="42.254017" lon="3.071771">
        <ele>10</ele>
        <time>2019-08-19T01:47:49Z</time>
      </trkpt>
      <trkpt lat="42.254046" lon="3.071719">
        <ele>10</ele>
        <time>2019-08-19T01:47:50Z</time>
      </trkpt>
      <trkpt lat="42.254074" lon="3.071667">
        <ele>11</ele>
        <time>2019-08-19T01:47:51Z</time>
      </trkpt>
      <trkpt lat="42.254132" lon="3.07153">
        <ele>11</ele>
        <time>2019-08-19T01:47:52Z</time>
      </trkpt>
      <trkpt lat="42.254158" lon="3.071454">
        <ele>11</ele>
        <time>2019-08-19T01:47:53Z</time>
      </trkpt>
      <trkpt lat="42.254185" lon="3.071377">
        <ele>11</ele>
        <time>2019-08-19T01:47:54Z</time>
      </trkpt>
      <trkpt lat="42.254212" lon="3.0713">
        <ele>11</ele>
        <time>2019-08-19T01:47:55Z</time>
      </trkpt>
      <trkpt lat="42.254238" lon="3.071223">
        <ele>11</ele>
        <time>2019-08-19T01:47:56Z</time>
      </trkpt>
      <trkpt lat="42.254265" lon="3.071147">
        <ele>11</ele>
        <time>2019-08-19T01:47:57Z</time>
      </trkpt>
      <trkpt lat="42.254291" lon="3.07107">
        <ele>11</ele>
        <time>2019-08-19T01:47:59Z</time>
      </trkpt>
      <trkpt lat="42.254318" lon="3.070993">
        <ele>12</ele>
        <time>2019-08-19T01:48:01Z</time>
      </trkpt>
      <trkpt lat="42.254353" lon="3.070832">
        <ele>12</ele>
        <time>2019-08-19T01:48:02Z</time>
      </trkpt>
      <trkpt lat="42.254371" lon="3.070746">
        <ele>12</ele>
        <time>2019-08-19T01:48:03Z</time>
      </trkpt>
      <trkpt lat="42.25439" lon="3.07066">
        <ele>12</ele>
        <time>2019-08-19T01:48:04Z</time>
      </trkpt>
      <trkpt lat="42.254408" lon="3.070574">
        <ele>12</ele>
        <time>2019-08-19T01:48:05Z</time>
      </trkpt>
      <trkpt lat="42.254426" lon="3.070487">
        <ele>12</ele>
        <time>2019-08-19T01:48:06Z</time>
      </trkpt>
      <trkpt lat="42.254444" lon="3.070401">
        <ele>12</ele>
        <time>2019-08-19T01:48:08Z</time>
      </trkpt>
      <trkpt lat="42.254463" lon="3.070315">
        <ele>12</ele>
        <time>2019-08-19T01:48:09Z</time>
      </trkpt>
      <trkpt lat="42.254481" lon="3.070229">
        <ele>12</ele>
        <time>2019-08-19T01:48:10Z</time>
      </trkpt>
      <trkpt lat="42.254499" lon="3.070143">
        <ele>12</ele>
        <time>2019-08-19T01:48:11Z</time>
      </trkpt>
      <trkpt lat="42.254549" lon="3.069936">
        <ele>12</ele>
        <time>2019-08-19T01:48:12Z</time>
      </trkpt>
      <trkpt lat="42.254578" lon="3.069821">
        <ele>12</ele>
        <time>2019-08-19T01:48:13Z</time>
      </trkpt>
      <trkpt lat="42.254607" lon="3.069705">
        <ele>12</ele>
        <time>2019-08-19T01:48:15Z</time>
      </trkpt>
      <trkpt lat="42.254636" lon="3.06959">
        <ele>12</ele>
        <time>2019-08-19T01:48:16Z</time>
      </trkpt>
      <trkpt lat="42.254664" lon="3.069475">
        <ele>12</ele>
        <time>2019-08-19T01:48:17Z</time>
      </trkpt>
      <trkpt lat="42.254693" lon="3.06936">
        <ele>12</ele>
        <time>2019-08-19T01:48:18Z</time>
      </trkpt>
      <trkpt lat="42.254722" lon="3.069244">
        <ele>12</ele>
        <time>2019-08-19T01:48:20Z</time>
      </trkpt>
      <trkpt lat="42.254751" lon="3.069129">
        <ele>11</ele>
        <time>2019-08-19T01:48:22Z</time>
      </trkpt>
      <trkpt lat="42.254795" lon="3.068934">
        <ele>11</ele>
        <time>2019-08-19T01:48:23Z</time>
      </trkpt>
      <trkpt lat="42.254816" lon="3.068835">
        <ele>11</ele>
        <time>2019-08-19T01:48:24Z</time>
      </trkpt>
      <trkpt lat="42.254837" lon="3.068737">
        <ele>11</ele>
        <time>2019-08-19T01:48:25Z</time>
      </trkpt>
      <trkpt lat="42.254858" lon="3.068638">
        <ele>11</ele>
        <time>2019-08-19T01:48:26Z</time>
      </trkpt>
      <trkpt lat="42.254879" lon="3.06854">
        <ele>11</ele>
        <time>2019-08-19T01:48:27Z</time>
      </trkpt>
      <trkpt lat="42.2549" lon="3.068441">
        <ele>11</ele>
        <time>2019-08-19T01:48:29Z</time>
      </trkpt>
      <trkpt lat="42.254921" lon="3.068343">
        <ele>11</ele>
        <time>2019-08-19T01:48:30Z</time>
      </trkpt>
      <trkpt lat="42.254942" lon="3.068244">
        <ele>11</ele>
        <time>2019-08-19T01:48:31Z</time>
      </trkpt>
      <trkpt lat="42.254989" lon="3.068035">
        <ele>11</ele>
        <time>2019-08-19T01:48:32Z</time>
      </trkpt>
      <trkpt lat="42.255013" lon="3.067925">
        <ele>11</ele>
        <time>2019-08-19T01:48:33Z</time>
      </trkpt>
      <trkpt lat="42.255038" lon="3.067815">
        <ele>11</ele>
        <time>2019-08-19T01:48:35Z</time>
      </trkpt>
      <trkpt lat="42.255063" lon="3.067705">
        <ele>11</ele>
        <time>2019-08-19T01:48:36Z</time>
      </trkpt>
      <trkpt lat="42.255087" lon="3.067595">
        <ele>11</ele>
        <time>2019-08-19T01:48:37Z</time>
      </trkpt>
      <trkpt lat="42.255112" lon="3.067485">
        <ele>11</ele>
        <time>2019-08-19T01:48:39Z</time>
      </trkpt>
      <trkpt lat="42.255136" lon="3.067375">
        <ele>11</ele>
        <time>2019-08-19T01:48:40Z</time>
      </trkpt>
      <trkpt lat="42.255161" lon="3.067265">
        <ele>9</ele>
        <time>2019-08-19T01:48:41Z</time>
      </trkpt>
      <trkpt lat="42.255209" lon="3.06707">
        <ele>9</ele>
        <time>2019-08-19T01:48:42Z</time>
      </trkpt>
      <trkpt lat="42.255233" lon="3.066972">
        <ele>9</ele>
        <time>2019-08-19T01:48:43Z</time>
      </trkpt>
      <trkpt lat="42.255257" lon="3.066874">
        <ele>9</ele>
        <time>2019-08-19T01:48:44Z</time>
      </trkpt>
      <trkpt lat="42.255281" lon="3.066776">
        <ele>9</ele>
        <time>2019-08-19T01:48:45Z</time>
      </trkpt>
      <trkpt lat="42.255304" lon="3.066677">
        <ele>9</ele>
        <time>2019-08-19T01:48:46Z</time>
      </trkpt>
      <trkpt lat="42.255328" lon="3.066579">
        <ele>9</ele>
        <time>2019-08-19T01:48:48Z</time>
      </trkpt>
      <trkpt lat="42.255352" lon="3.066481">
        <ele>9</ele>
        <time>2019-08-19T01:48:49Z</time>
      </trkpt>
      <trkpt lat="42.255376" lon="3.066383">
        <ele>9</ele>
        <time>2019-08-19T01:48:50Z</time>
      </trkpt>
      <trkpt lat="42.2554" lon="3.066285">
        <ele>9</ele>
        <time>2019-08-19T01:48:51Z</time>
      </trkpt>
      <trkpt lat="42.255452" lon="3.066079">
        <ele>9</ele>
        <time>2019-08-19T01:48:52Z</time>
      </trkpt>
      <trkpt lat="42.255479" lon="3.065969">
        <ele>9</ele>
        <time>2019-08-19T01:48:53Z</time>
      </trkpt>
      <trkpt lat="42.255506" lon="3.06586">
        <ele>9</ele>
        <time>2019-08-19T01:48:55Z</time>
      </trkpt>
      <trkpt lat="42.255533" lon="3.06575">
        <ele>9</ele>
        <time>2019-08-19T01:48:56Z</time>
      </trkpt>
      <trkpt lat="42.25556" lon="3.065641">
        <ele>9</ele>
        <time>2019-08-19T01:48:58Z</time>
      </trkpt>
      <trkpt lat="42.255587" lon="3.065531">
        <ele>9</ele>
        <time>2019-08-19T01:48:59Z</time>
      </trkpt>
      <trkpt lat="42.255614" lon="3.065422">
        <ele>9</ele>
        <time>2019-08-19T01:49:00Z</time>
      </trkpt>
      <trkpt lat="42.255641" lon="3.065312">
        <ele>9</ele>
        <time>2019-08-19T01:49:01Z</time>
      </trkpt>
      <trkpt lat="42.255687" lon="3.065116">
        <ele>9</ele>
        <time>2019-08-19T01:49:02Z</time>
      </trkpt>
      <trkpt lat="42.25571" lon="3.065019">
        <ele>9</ele>
        <time>2019-08-19T01:49:03Z</time>
      </trkpt>
      <trkpt lat="42.255732" lon="3.064921">
        <ele>9</ele>
        <time>2019-08-19T01:49:04Z</time>
      </trkpt>
      <trkpt lat="42.255755" lon="3.064824">
        <ele>9</ele>
        <time>2019-08-19T01:49:05Z</time>
      </trkpt>
      <trkpt lat="42.255778" lon="3.064726">
        <ele>9</ele>
        <time>2019-08-19T01:49:06Z</time>
      </trkpt>
      <trkpt lat="42.255801" lon="3.064629">
        <ele>9</ele>
        <time>2019-08-19T01:49:08Z</time>
      </trkpt>
      <trkpt lat="42.255823" lon="3.064531">
        <ele>9</ele>
        <time>2019-08-19T01:49:09Z</time>
      </trkpt>
      <trkpt lat="42.255846" lon="3.064434">
        <ele>9</ele>
        <time>2019-08-19T01:49:10Z</time>
      </trkpt>
      <trkpt lat="42.255869" lon="3.064336">
        <ele>8</ele>
        <time>2019-08-19T01:49:11Z</time>
      </trkpt>
      <trkpt lat="42.255919" lon="3.064114">
        <ele>8</ele>
        <time>2019-08-19T01:49:12Z</time>
      </trkpt>
      <trkpt lat="42.255948" lon="3.06399">
        <ele>8</ele>
        <time>2019-08-19T01:49:13Z</time>
      </trkpt>
      <trkpt lat="42.255976" lon="3.063865">
        <ele>8</ele>
        <time>2019-08-19T01:49:15Z</time>
      </trkpt>
      <trkpt lat="42.256005" lon="3.063741">
        <ele>8</ele>
        <time>2019-08-19T01:49:17Z</time>
      </trkpt>
      <trkpt lat="42.256033" lon="3.063616">
        <ele>8</ele>
        <time>2019-08-19T01:49:18Z</time>
      </trkpt>
      <trkpt lat="42.256062" lon="3.063492">
        <ele>8</ele>
        <time>2019-08-19T01:49:19Z</time>
      </trkpt>
      <trkpt lat="42.25609" lon="3.063367">
        <ele>8</ele>
        <time>2019-08-19T01:49:21Z</time>
      </trkpt>
      <trkpt lat="42.256134" lon="3.063176">
        <ele>8</ele>
        <time>2019-08-19T01:49:22Z</time>
      </trkpt>
      <trkpt lat="42.256156" lon="3.063081">
        <ele>8</ele>
        <time>2019-08-19T01:49:23Z</time>
      </trkpt>
      <trkpt lat="42.256177" lon="3.062986">
        <ele>8</ele>
        <time>2019-08-19T01:49:24Z</time>
      </trkpt>
      <trkpt lat="42.256199" lon="3.062891">
        <ele>8</ele>
        <time>2019-08-19T01:49:25Z</time>
      </trkpt>
      <trkpt lat="42.256221" lon="3.062797">
        <ele>8</ele>
        <time>2019-08-19T01:49:26Z</time>
      </trkpt>
      <trkpt lat="42.256243" lon="3.062702">
        <ele>8</ele>
        <time>2019-08-19T01:49:28Z</time>
      </trkpt>
      <trkpt lat="42.256264" lon="3.062607">
        <ele>8</ele>
        <time>2019-08-19T01:49:29Z</time>
      </trkpt>
      <trkpt lat="42.256286" lon="3.062512">
        <ele>8</ele>
        <time>2019-08-19T01:49:30Z</time>
      </trkpt>
      <trkpt lat="42.256308" lon="3.062417">
        <ele>8</ele>
        <time>2019-08-19T01:49:31Z</time>
      </trkpt>
      <trkpt lat="42.25635" lon="3.062231">
        <ele>8</ele>
        <time>2019-08-19T01:49:32Z</time>
      </trkpt>
      <trkpt lat="42.25637" lon="3.062139">
        <ele>8</ele>
        <time>2019-08-19T01:49:33Z</time>
      </trkpt>
      <trkpt lat="42.256391" lon="3.062047">
        <ele>8</ele>
        <time>2019-08-19T01:49:35Z</time>
      </trkpt>
      <trkpt lat="42.256412" lon="3.061955">
        <ele>8</ele>
        <time>2019-08-19T01:49:36Z</time>
      </trkpt>
      <trkpt lat="42.256432" lon="3.061864">
        <ele>8</ele>
        <time>2019-08-19T01:49:37Z</time>
      </trkpt>
      <trkpt lat="42.256453" lon="3.061772">
        <ele>8</ele>
        <time>2019-08-19T01:49:38Z</time>
      </trkpt>
      <trkpt lat="42.256474" lon="3.06168">
        <ele>8</ele>
        <time>2019-08-19T01:49:39Z</time>
      </trkpt>
      <trkpt lat="42.256494" lon="3.061588">
        <ele>8</ele>
        <time>2019-08-19T01:49:40Z</time>
      </trkpt>
      <trkpt lat="42.256515" lon="3.061496">
        <ele>8</ele>
        <time>2019-08-19T01:49:41Z</time>
      </trkpt>
      <trkpt lat="42.256554" lon="3.061317">
        <ele>8</ele>
        <time>2019-08-19T01:49:42Z</time>
      </trkpt>
      <trkpt lat="42.256574" lon="3.061229">
        <ele>8</ele>
        <time>2019-08-19T01:49:43Z</time>
      </trkpt>
      <trkpt lat="42.256593" lon="3.061141">
        <ele>8</ele>
        <time>2019-08-19T01:49:44Z</time>
      </trkpt>
      <trkpt lat="42.256613" lon="3.061053">
        <ele>8</ele>
        <time>2019-08-19T01:49:45Z</time>
      </trkpt>
      <trkpt lat="42.256633" lon="3.060965">
        <ele>8</ele>
        <time>2019-08-19T01:49:46Z</time>
      </trkpt>
      <trkpt lat="42.256653" lon="3.060877">
        <ele>8</ele>
        <time>2019-08-19T01:49:47Z</time>
      </trkpt>
      <trkpt lat="42.256672" lon="3.060789">
        <ele>8</ele>
        <time>2019-08-19T01:49:49Z</time>
      </trkpt>
      <trkpt lat="42.256692" lon="3.060701">
        <ele>8</ele>
        <time>2019-08-19T01:49:50Z</time>
      </trkpt>
      <trkpt lat="42.256712" lon="3.060613">
        <ele>8</ele>
        <time>2019-08-19T01:49:51Z</time>
      </trkpt>
      <trkpt lat="42.256752" lon="3.060435">
        <ele>8</ele>
        <time>2019-08-19T01:49:52Z</time>
      </trkpt>
      <trkpt lat="42.256772" lon="3.060346">
        <ele>8</ele>
        <time>2019-08-19T01:49:53Z</time>
      </trkpt>
      <trkpt lat="42.256793" lon="3.060257">
        <ele>8</ele>
        <time>2019-08-19T01:49:55Z</time>
      </trkpt>
      <trkpt lat="42.256813" lon="3.060168">
        <ele>8</ele>
        <time>2019-08-19T01:49:56Z</time>
      </trkpt>
      <trkpt lat="42.256833" lon="3.06008">
        <ele>8</ele>
        <time>2019-08-19T01:49:57Z</time>
      </trkpt>
      <trkpt lat="42.256853" lon="3.059991">
        <ele>8</ele>
        <time>2019-08-19T01:49:58Z</time>
      </trkpt>
      <trkpt lat="42.256874" lon="3.059902">
        <ele>8</ele>
        <time>2019-08-19T01:49:59Z</time>
      </trkpt>
      <trkpt lat="42.256894" lon="3.059813">
        <ele>8</ele>
        <time>2019-08-19T01:50:00Z</time>
      </trkpt>
      <trkpt lat="42.256914" lon="3.059724">
        <ele>8</ele>
        <time>2019-08-19T01:50:01Z</time>
      </trkpt>
      <trkpt lat="42.256956" lon="3.059535">
        <ele>8</ele>
        <time>2019-08-19T01:50:02Z</time>
      </trkpt>
      <trkpt lat="42.256978" lon="3.059437">
        <ele>8</ele>
        <time>2019-08-19T01:50:04Z</time>
      </trkpt>
      <trkpt lat="42.257" lon="3.059338">
        <ele>8</ele>
        <time>2019-08-19T01:50:05Z</time>
      </trkpt>
      <trkpt lat="42.257022" lon="3.059239">
        <ele>8</ele>
        <time>2019-08-19T01:50:06Z</time>
      </trkpt>
      <trkpt lat="42.257044" lon="3.05914">
        <ele>8</ele>
        <time>2019-08-19T01:50:07Z</time>
      </trkpt>
      <trkpt lat="42.257066" lon="3.059042">
        <ele>8</ele>
        <time>2019-08-19T01:50:08Z</time>
      </trkpt>
      <trkpt lat="42.257088" lon="3.058943">
        <ele>8</ele>
        <time>2019-08-19T01:50:09Z</time>
      </trkpt>
      <trkpt lat="42.25711" lon="3.058844">
        <ele>8</ele>
        <time>2019-08-19T01:50:11Z</time>
      </trkpt>
      <trkpt lat="42.257152" lon="3.058662">
        <ele>8</ele>
        <time>2019-08-19T01:50:12Z</time>
      </trkpt>
      <trkpt lat="42.257173" lon="3.058566">
        <ele>8</ele>
        <time>2019-08-19T01:50:14Z</time>
      </trkpt>
      <trkpt lat="42.257195" lon="3.058469">
        <ele>8</ele>
        <time>2019-08-19T01:50:15Z</time>
      </trkpt>
      <trkpt lat="42.257217" lon="3.058373">
        <ele>8</ele>
        <time>2019-08-19T01:50:16Z</time>
      </trkpt>
      <trkpt lat="42.257238" lon="3.058277">
        <ele>8</ele>
        <time>2019-08-19T01:50:18Z</time>
      </trkpt>
      <trkpt lat="42.25726" lon="3.058181">
        <ele>8</ele>
        <time>2019-08-19T01:50:19Z</time>
      </trkpt>
      <trkpt lat="42.257281" lon="3.058084">
        <ele>8</ele>
        <time>2019-08-19T01:50:20Z</time>
      </trkpt>
      <trkpt lat="42.257303" lon="3.057988">
        <ele>8</ele>
        <time>2019-08-19T01:50:21Z</time>
      </trkpt>
      <trkpt lat="42.257356" lon="3.057846">
        <ele>8</ele>
        <time>2019-08-19T01:50:22Z</time>
      </trkpt>
      <trkpt lat="42.257389" lon="3.057788">
        <ele>8</ele>
        <time>2019-08-19T01:50:23Z</time>
      </trkpt>
      <trkpt lat="42.257423" lon="3.05773">
        <ele>8</ele>
        <time>2019-08-19T01:50:24Z</time>
      </trkpt>
      <trkpt lat="42.257457" lon="3.057672">
        <ele>8</ele>
        <time>2019-08-19T01:50:26Z</time>
      </trkpt>
      <trkpt lat="42.25749" lon="3.057613">
        <ele>8</ele>
        <time>2019-08-19T01:50:27Z</time>
      </trkpt>
      <trkpt lat="42.257524" lon="3.057555">
        <ele>8</ele>
        <time>2019-08-19T01:50:28Z</time>
      </trkpt>
      <trkpt lat="42.257558" lon="3.057497">
        <ele>8</ele>
        <time>2019-08-19T01:50:29Z</time>
      </trkpt>
      <trkpt lat="42.257591" lon="3.057439">
        <ele>8</ele>
        <time>2019-08-19T01:50:30Z</time>
      </trkpt>
      <trkpt lat="42.257625" lon="3.057381">
        <ele>8</ele>
        <time>2019-08-19T01:50:31Z</time>
      </trkpt>
      <trkpt lat="42.257678" lon="3.057233">
        <ele>8</ele>
        <time>2019-08-19T01:50:33Z</time>
      </trkpt>
      <trkpt lat="42.257666" lon="3.057151">
        <ele>8</ele>
        <time>2019-08-19T01:50:34Z</time>
      </trkpt>
      <trkpt lat="42.257653" lon="3.057068">
        <ele>8</ele>
        <time>2019-08-19T01:50:35Z</time>
      </trkpt>
      <trkpt lat="42.257641" lon="3.056985">
        <ele>8</ele>
        <time>2019-08-19T01:50:36Z</time>
      </trkpt>
      <trkpt lat="42.257629" lon="3.056903">
        <ele>8</ele>
        <time>2019-08-19T01:50:37Z</time>
      </trkpt>
      <trkpt lat="42.257617" lon="3.05682">
        <ele>8</ele>
        <time>2019-08-19T01:50:38Z</time>
      </trkpt>
      <trkpt lat="42.257604" lon="3.056737">
        <ele>8</ele>
        <time>2019-08-19T01:50:39Z</time>
      </trkpt>
      <trkpt lat="42.257592" lon="3.056655">
        <ele>8</ele>
        <time>2019-08-19T01:50:40Z</time>
      </trkpt>
      <trkpt lat="42.25758" lon="3.056572">
        <ele>7</ele>
        <time>2019-08-19T01:50:42Z</time>
      </trkpt>
      <trkpt lat="42.257453" lon="3.056546">
        <ele>7</ele>
        <time>2019-08-19T01:50:43Z</time>
      </trkpt>
      <trkpt lat="42.257383" lon="3.056568">
        <ele>7</ele>
        <time>2019-08-19T01:50:44Z</time>
      </trkpt>
      <trkpt lat="42.257313" lon="3.05659">
        <ele>7</ele>
        <time>2019-08-19T01:50:45Z</time>
      </trkpt>
      <trkpt lat="42.257244" lon="3.056613">
        <ele>7</ele>
        <time>2019-08-19T01:50:46Z</time>
      </trkpt>
      <trkpt lat="42.257174" lon="3.056635">
        <ele>7</ele>
        <time>2019-08-19T01:50:47Z</time>
      </trkpt>
      <trkpt lat="42.257104" lon="3.056657">
        <ele>7</ele>
        <time>2019-08-19T01:50:49Z</time>
      </trkpt>
      <trkpt lat="42.257034" lon="3.056679">
        <ele>7</ele>
        <time>2019-08-19T01:50:50Z</time>
      </trkpt>
      <trkpt lat="42.256964" lon="3.056701">
        <ele>8</ele>
        <time>2019-08-19T01:50:52Z</time>
      </trkpt>
      <trkpt lat="42.256849" lon="3.056682">
        <ele>8</ele>
        <time>2019-08-19T01:50:53Z</time>
      </trkpt>
      <trkpt lat="42.256797" lon="3.056662">
        <ele>8</ele>
        <time>2019-08-19T01:50:54Z</time>
      </trkpt>
      <trkpt lat="42.256746" lon="3.056642">
        <ele>8</ele>
        <time>2019-08-19T01:50:55Z</time>
      </trkpt>
      <trkpt lat="42.256694" lon="3.056622">
        <ele>8</ele>
        <time>2019-08-19T01:50:56Z</time>
      </trkpt>
      <trkpt lat="42.256643" lon="3.056602">
        <ele>8</ele>
        <time>2019-08-19T01:50:57Z</time>
      </trkpt>
      <trkpt lat="42.256591" lon="3.056582">
        <ele>8</ele>
        <time>2019-08-19T01:50:58Z</time>
      </trkpt>
      <trkpt lat="42.25654" lon="3.056562">
        <ele>8</ele>
        <time>2019-08-19T01:50:59Z</time>
      </trkpt>
      <trkpt lat="42.256488" lon="3.056542">
        <ele>8</ele>
        <time>2019-08-19T01:51:00Z</time>
      </trkpt>
      <trkpt lat="42.256437" lon="3.056522">
        <ele>7</ele>
        <time>2019-08-19T01:51:01Z</time>
      </trkpt>
      <trkpt lat="42.25633" lon="3.056477">
        <ele>7</ele>
        <time>2019-08-19T01:51:02Z</time>
      </trkpt>
      <trkpt lat="42.256276" lon="3.05645">
        <ele>7</ele>
        <time>2019-08-19T01:51:03Z</time>
      </trkpt>
      <trkpt lat="42.256223" lon="3.056424">
        <ele>7</ele>
        <time>2019-08-19T01:51:04Z</time>
      </trkpt>
      <trkpt lat="42.25617" lon="3.056398">
        <ele>7</ele>
        <time>2019-08-19T01:51:06Z</time>
      </trkpt>
      <trkpt lat="42.256116" lon="3.056372">
        <ele>7</ele>
        <time>2019-08-19T01:51:07Z</time>
      </trkpt>
      <trkpt lat="42.256063" lon="3.056345">
        <ele>7</ele>
        <time>2019-08-19T01:51:08Z</time>
      </trkpt>
      <trkpt lat="42.256009" lon="3.056319">
        <ele>7</ele>
        <time>2019-08-19T01:51:09Z</time>
      </trkpt>
      <trkpt lat="42.255956" lon="3.056293">
        <ele>7</ele>
        <time>2019-08-19T01:51:11Z</time>
      </trkpt>
      <trkpt lat="42.255866" lon="3.056218">
        <ele>7</ele>
        <time>2019-08-19T01:51:12Z</time>
      </trkpt>
      <trkpt lat="42.255824" lon="3.056172">
        <ele>7</ele>
        <time>2019-08-19T01:51:13Z</time>
      </trkpt>
      <trkpt lat="42.255782" lon="3.056126">
        <ele>7</ele>
        <time>2019-08-19T01:51:14Z</time>
      </trkpt>
      <trkpt lat="42.25574" lon="3.05608">
        <ele>7</ele>
        <time>2019-08-19T01:51:16Z</time>
      </trkpt>
      <trkpt lat="42.255699" lon="3.056033">
        <ele>7</ele>
        <time>2019-08-19T01:51:17Z</time>
      </trkpt>
      <trkpt lat="42.255657" lon="3.055987">
        <ele>7</ele>
        <time>2019-08-19T01:51:18Z</time>
      </trkpt>
      <trkpt lat="42.255615" lon="3.055941">
        <ele>7</ele>
        <time>2019-08-19T01:51:19Z</time>
      </trkpt>
      <trkpt lat="42.255573" lon="3.055895">
        <ele>7</ele>
        <time>2019-08-19T01:51:20Z</time>
      </trkpt>
      <trkpt lat="42.255531" lon="3.055849">
        <ele>7</ele>
        <time>2019-08-19T01:51:21Z</time>
      </trkpt>
      <trkpt lat="42.255446" lon="3.055728">
        <ele>7</ele>
        <time>2019-08-19T01:51:22Z</time>
      </trkpt>
      <trkpt lat="42.255401" lon="3.055662">
        <ele>7</ele>
        <time>2019-08-19T01:51:23Z</time>
      </trkpt>
      <trkpt lat="42.255356" lon="3.055595">
        <ele>7</ele>
        <time>2019-08-19T01:51:25Z</time>
      </trkpt>
      <trkpt lat="42.255312" lon="3.055528">
        <ele>7</ele>
        <time>2019-08-19T01:51:26Z</time>
      </trkpt>
      <trkpt lat="42.255267" lon="3.055462">
        <ele>7</ele>
        <time>2019-08-19T01:51:27Z</time>
      </trkpt>
      <trkpt lat="42.255222" lon="3.055395">
        <ele>7</ele>
        <time>2019-08-19T01:51:28Z</time>
      </trkpt>
      <trkpt lat="42.255177" lon="3.055329">
        <ele>7</ele>
        <time>2019-08-19T01:51:30Z</time>
      </trkpt>
      <trkpt lat="42.255132" lon="3.055262">
        <ele>7</ele>
        <time>2019-08-19T01:51:31Z</time>
      </trkpt>
      <trkpt lat="42.255018" lon="3.055093">
        <ele>7</ele>
        <time>2019-08-19T01:51:33Z</time>
      </trkpt>
      <trkpt lat="42.254983" lon="3.05504">
        <ele>7</ele>
        <time>2019-08-19T01:51:34Z</time>
      </trkpt>
      <trkpt lat="42.254948" lon="3.054988">
        <ele>7</ele>
        <time>2019-08-19T01:51:35Z</time>
      </trkpt>
      <trkpt lat="42.254913" lon="3.054935">
        <ele>7</ele>
        <time>2019-08-19T01:51:36Z</time>
      </trkpt>
      <trkpt lat="42.254879" lon="3.054883">
        <ele>7</ele>
        <time>2019-08-19T01:51:37Z</time>
      </trkpt>
      <trkpt lat="42.254844" lon="3.05483">
        <ele>7</ele>
        <time>2019-08-19T01:51:38Z</time>
      </trkpt>
      <trkpt lat="42.254809" lon="3.054778">
        <ele>7</ele>
        <time>2019-08-19T01:51:39Z</time>
      </trkpt>
      <trkpt lat="42.254774" lon="3.054725">
        <ele>7</ele>
        <time>2019-08-19T01:51:40Z</time>
      </trkpt>
      <trkpt lat="42.254739" lon="3.054673">
        <ele>6</ele>
        <time>2019-08-19T01:51:41Z</time>
      </trkpt>
      <trkpt lat="42.254658" lon="3.054553">
        <ele>6</ele>
        <time>2019-08-19T01:51:42Z</time>
      </trkpt>
      <trkpt lat="42.254619" lon="3.054492">
        <ele>6</ele>
        <time>2019-08-19T01:51:43Z</time>
      </trkpt>
      <trkpt lat="42.254579" lon="3.054432">
        <ele>6</ele>
        <time>2019-08-19T01:51:44Z</time>
      </trkpt>
      <trkpt lat="42.25454" lon="3.054371">
        <ele>6</ele>
        <time>2019-08-19T01:51:45Z</time>
      </trkpt>
      <trkpt lat="42.2545" lon="3.05431">
        <ele>6</ele>
        <time>2019-08-19T01:51:46Z</time>
      </trkpt>
      <trkpt lat="42.254461" lon="3.054249">
        <ele>6</ele>
        <time>2019-08-19T01:51:47Z</time>
      </trkpt>
      <trkpt lat="42.254421" lon="3.054189">
        <ele>6</ele>
        <time>2019-08-19T01:51:49Z</time>
      </trkpt>
      <trkpt lat="42.254382" lon="3.054128">
        <ele>6</ele>
        <time>2019-08-19T01:51:50Z</time>
      </trkpt>
      <trkpt lat="42.254342" lon="3.054067">
        <ele>6</ele>
        <time>2019-08-19T01:51:51Z</time>
      </trkpt>
      <trkpt lat="42.254261" lon="3.053947">
        <ele>6</ele>
        <time>2019-08-19T01:51:52Z</time>
      </trkpt>
      <trkpt lat="42.254219" lon="3.053887">
        <ele>6</ele>
        <time>2019-08-19T01:51:53Z</time>
      </trkpt>
      <trkpt lat="42.254178" lon="3.053826">
        <ele>6</ele>
        <time>2019-08-19T01:51:54Z</time>
      </trkpt>
      <trkpt lat="42.254137" lon="3.053766">
        <ele>6</ele>
        <time>2019-08-19T01:51:55Z</time>
      </trkpt>
      <trkpt lat="42.254095" lon="3.053706">
        <ele>6</ele>
        <time>2019-08-19T01:51:56Z</time>
      </trkpt>
      <trkpt lat="42.254054" lon="3.053646">
        <ele>6</ele>
        <time>2019-08-19T01:51:58Z</time>
      </trkpt>
      <trkpt lat="42.254013" lon="3.053585">
        <ele>6</ele>
        <time>2019-08-19T01:51:59Z</time>
      </trkpt>
      <trkpt lat="42.253971" lon="3.053525">
        <ele>6</ele>
        <time>2019-08-19T01:52:00Z</time>
      </trkpt>
      <trkpt lat="42.25393" lon="3.053465">
        <ele>6</ele>
        <time>2019-08-19T01:52:01Z</time>
      </trkpt>
      <trkpt lat="42.25385" lon="3.053349">
        <ele>6</ele>
        <time>2019-08-19T01:52:02Z</time>
      </trkpt>
      <trkpt lat="42.253811" lon="3.053291">
        <ele>6</ele>
        <time>2019-08-19T01:52:03Z</time>
      </trkpt>
      <trkpt lat="42.253772" lon="3.053234">
        <ele>6</ele>
        <time>2019-08-19T01:52:04Z</time>
      </trkpt>
      <trkpt lat="42.253733" lon="3.053177">
        <ele>6</ele>
        <time>2019-08-19T01:52:05Z</time>
      </trkpt>
      <trkpt lat="42.253693" lon="3.053119">
        <ele>6</ele>
        <time>2019-08-19T01:52:07Z</time>
      </trkpt>
      <trkpt lat="42.253654" lon="3.053062">
        <ele>6</ele>
        <time>2019-08-19T01:52:08Z</time>
      </trkpt>
      <trkpt lat="42.253615" lon="3.053005">
        <ele>6</ele>
        <time>2019-08-19T01:52:09Z</time>
      </trkpt>
      <trkpt lat="42.253576" lon="3.052947">
        <ele>6</ele>
        <time>2019-08-19T01:52:10Z</time>
      </trkpt>
      <trkpt lat="42.253537" lon="3.05289">
        <ele>5</ele>
        <time>2019-08-19T01:52:11Z</time>
      </trkpt>
      <trkpt lat="42.253468" lon="3.052786">
        <ele>5</ele>
        <time>2019-08-19T01:52:12Z</time>
      </trkpt>
      <trkpt lat="42.253433" lon="3.052735">
        <ele>5</ele>
        <time>2019-08-19T01:52:13Z</time>
      </trkpt>
      <trkpt lat="42.253398" lon="3.052683">
        <ele>5</ele>
        <time>2019-08-19T01:52:14Z</time>
      </trkpt>
      <trkpt lat="42.253363" lon="3.052632">
        <ele>5</ele>
        <time>2019-08-19T01:52:16Z</time>
      </trkpt>
      <trkpt lat="42.253328" lon="3.05258">
        <ele>5</ele>
        <time>2019-08-19T01:52:17Z</time>
      </trkpt>
      <trkpt lat="42.253293" lon="3.052529">
        <ele>5</ele>
        <time>2019-08-19T01:52:18Z</time>
      </trkpt>
      <trkpt lat="42.253258" lon="3.052477">
        <ele>5</ele>
        <time>2019-08-19T01:52:19Z</time>
      </trkpt>
      <trkpt lat="42.253223" lon="3.052426">
        <ele>5</ele>
        <time>2019-08-19T01:52:20Z</time>
      </trkpt>
      <trkpt lat="42.253188" lon="3.052374">
        <ele>5</ele>
        <time>2019-08-19T01:52:21Z</time>
      </trkpt>
      <trkpt lat="42.253121" lon="3.052269">
        <ele>5</ele>
        <time>2019-08-19T01:52:22Z</time>
      </trkpt>
      <trkpt lat="42.253086" lon="3.052214">
        <ele>5</ele>
        <time>2019-08-19T01:52:23Z</time>
      </trkpt>
      <trkpt lat="42.253051" lon="3.05216">
        <ele>5</ele>
        <time>2019-08-19T01:52:25Z</time>
      </trkpt>
      <trkpt lat="42.253016" lon="3.052106">
        <ele>5</ele>
        <time>2019-08-19T01:52:26Z</time>
      </trkpt>
      <trkpt lat="42.252981" lon="3.052051">
        <ele>5</ele>
        <time>2019-08-19T01:52:27Z</time>
      </trkpt>
      <trkpt lat="42.252946" lon="3.051997">
        <ele>5</ele>
        <time>2019-08-19T01:52:28Z</time>
      </trkpt>
      <trkpt lat="42.252911" lon="3.051943">
        <ele>5</ele>
        <time>2019-08-19T01:52:29Z</time>
      </trkpt>
      <trkpt lat="42.252876" lon="3.051888">
        <ele>5</ele>
        <time>2019-08-19T01:52:30Z</time>
      </trkpt>
      <trkpt lat="42.252841" lon="3.051834">
        <ele>6</ele>
        <time>2019-08-19T01:52:31Z</time>
      </trkpt>
      <trkpt lat="42.252781" lon="3.051712">
        <ele>6</ele>
        <time>2019-08-19T01:52:32Z</time>
      </trkpt>
      <trkpt lat="42.252755" lon="3.051649">
        <ele>6</ele>
        <time>2019-08-19T01:52:33Z</time>
      </trkpt>
      <trkpt lat="42.252728" lon="3.051585">
        <ele>6</ele>
        <time>2019-08-19T01:52:35Z</time>
      </trkpt>
      <trkpt lat="42.252702" lon="3.051522">
        <ele>6</ele>
        <time>2019-08-19T01:52:36Z</time>
      </trkpt>
      <trkpt lat="42.252676" lon="3.051458">
        <ele>6</ele>
        <time>2019-08-19T01:52:37Z</time>
      </trkpt>
      <trkpt lat="42.25265" lon="3.051395">
        <ele>6</ele>
        <time>2019-08-19T01:52:38Z</time>
      </trkpt>
      <trkpt lat="42.252623" lon="3.051331">
        <ele>6</ele>
        <time>2019-08-19T01:52:39Z</time>
      </trkpt>
      <trkpt lat="42.252597" lon="3.051268">
        <ele>6</ele>
        <time>2019-08-19T01:52:40Z</time>
      </trkpt>
      <trkpt lat="42.252571" lon="3.051204">
        <ele>5</ele>
        <time>2019-08-19T01:52:41Z</time>
      </trkpt>
      <trkpt lat="42.252533" lon="3.051061">
        <ele>5</ele>
        <time>2019-08-19T01:52:42Z</time>
      </trkpt>
      <trkpt lat="42.252516" lon="3.050987">
        <ele>5</ele>
        <time>2019-08-19T01:52:43Z</time>
      </trkpt>
      <trkpt lat="42.252498" lon="3.050914">
        <ele>5</ele>
        <time>2019-08-19T01:52:44Z</time>
      </trkpt>
      <trkpt lat="42.252481" lon="3.050841">
        <ele>5</ele>
        <time>2019-08-19T01:52:46Z</time>
      </trkpt>
      <trkpt lat="42.252463" lon="3.050767">
        <ele>5</ele>
        <time>2019-08-19T01:52:47Z</time>
      </trkpt>
      <trkpt lat="42.252446" lon="3.050694">
        <ele>5</ele>
        <time>2019-08-19T01:52:48Z</time>
      </trkpt>
      <trkpt lat="42.252428" lon="3.050621">
        <ele>5</ele>
        <time>2019-08-19T01:52:49Z</time>
      </trkpt>
      <trkpt lat="42.252411" lon="3.050547">
        <ele>5</ele>
        <time>2019-08-19T01:52:50Z</time>
      </trkpt>
      <trkpt lat="42.252393" lon="3.050474">
        <ele>5</ele>
        <time>2019-08-19T01:52:51Z</time>
      </trkpt>
      <trkpt lat="42.25236" lon="3.05036">
        <ele>5</ele>
        <time>2019-08-19T01:52:52Z</time>
      </trkpt>
      <trkpt lat="42.252343" lon="3.050314">
        <ele>5</ele>
        <time>2019-08-19T01:52:53Z</time>
      </trkpt>
      <trkpt lat="42.252327" lon="3.050269">
        <ele>5</ele>
        <time>2019-08-19T01:52:54Z</time>
      </trkpt>
      <trkpt lat="42.252311" lon="3.050223">
        <ele>5</ele>
        <time>2019-08-19T01:52:55Z</time>
      </trkpt>
      <trkpt lat="42.252295" lon="3.050177">
        <ele>5</ele>
        <time>2019-08-19T01:52:56Z</time>
      </trkpt>
      <trkpt lat="42.252278" lon="3.050131">
        <ele>5</ele>
        <time>2019-08-19T01:52:57Z</time>
      </trkpt>
      <trkpt lat="42.252262" lon="3.050085">
        <ele>5</ele>
        <time>2019-08-19T01:52:58Z</time>
      </trkpt>
      <trkpt lat="42.252246" lon="3.05004">
        <ele>5</ele>
        <time>2019-08-19T01:52:59Z</time>
      </trkpt>
      <trkpt lat="42.252229" lon="3.049994">
        <ele>5</ele>
        <time>2019-08-19T01:53:00Z</time>
      </trkpt>
      <trkpt lat="42.252213" lon="3.049948">
        <ele>6</ele>
        <time>2019-08-19T01:53:01Z</time>
      </trkpt>
      <trkpt lat="42.252172" lon="3.04985">
        <ele>6</ele>
        <time>2019-08-19T01:53:02Z</time>
      </trkpt>
      <trkpt lat="42.25215" lon="3.049802">
        <ele>6</ele>
        <time>2019-08-19T01:53:03Z</time>
      </trkpt>
      <trkpt lat="42.252128" lon="3.049755">
        <ele>6</ele>
        <time>2019-08-19T01:53:04Z</time>
      </trkpt>
      <trkpt lat="42.252106" lon="3.049707">
        <ele>6</ele>
        <time>2019-08-19T01:53:05Z</time>
      </trkpt>
      <trkpt lat="42.252084" lon="3.04966">
        <ele>6</ele>
        <time>2019-08-19T01:53:06Z</time>
      </trkpt>
      <trkpt lat="42.252061" lon="3.049613">
        <ele>6</ele>
        <time>2019-08-19T01:53:07Z</time>
      </trkpt>
      <trkpt lat="42.252039" lon="3.049565">
        <ele>6</ele>
        <time>2019-08-19T01:53:08Z</time>
      </trkpt>
      <trkpt lat="42.252017" lon="3.049518">
        <ele>6</ele>
        <time>2019-08-19T01:53:09Z</time>
      </trkpt>
      <trkpt lat="42.251995" lon="3.04947">
        <ele>6</ele>
        <time>2019-08-19T01:53:10Z</time>
      </trkpt>
      <trkpt lat="42.251973" lon="3.049423">
        <ele>6</ele>
        <time>2019-08-19T01:53:11Z</time>
      </trkpt>
      <trkpt lat="42.251915" lon="3.049319">
        <ele>6</ele>
        <time>2019-08-19T01:53:12Z</time>
      </trkpt>
      <trkpt lat="42.251887" lon="3.049267">
        <ele>6</ele>
        <time>2019-08-19T01:53:13Z</time>
      </trkpt>
      <trkpt lat="42.251858" lon="3.049215">
        <ele>6</ele>
        <time>2019-08-19T01:53:15Z</time>
      </trkpt>
      <trkpt lat="42.25183" lon="3.049163">
        <ele>6</ele>
        <time>2019-08-19T01:53:16Z</time>
      </trkpt>
      <trkpt lat="42.251801" lon="3.049112">
        <ele>6</ele>
        <time>2019-08-19T01:53:17Z</time>
      </trkpt>
      <trkpt lat="42.251773" lon="3.04906">
        <ele>6</ele>
        <time>2019-08-19T01:53:18Z</time>
      </trkpt>
      <trkpt lat="42.251744" lon="3.049008">
        <ele>6</ele>
        <time>2019-08-19T01:53:19Z</time>
      </trkpt>
      <trkpt lat="42.251716" lon="3.048956">
        <ele>6</ele>
        <time>2019-08-19T01:53:20Z</time>
      </trkpt>
      <trkpt lat="42.251687" lon="3.048904">
        <ele>5</ele>
        <time>2019-08-19T01:53:21Z</time>
      </trkpt>
      <trkpt lat="42.251625" lon="3.048805">
        <ele>5</ele>
        <time>2019-08-19T01:53:22Z</time>
      </trkpt>
      <trkpt lat="42.251594" lon="3.048758">
        <ele>5</ele>
        <time>2019-08-19T01:53:23Z</time>
      </trkpt>
      <trkpt lat="42.251563" lon="3.048712">
        <ele>5</ele>
        <time>2019-08-19T01:53:24Z</time>
      </trkpt>
      <trkpt lat="42.251532" lon="3.048666">
        <ele>5</ele>
        <time>2019-08-19T01:53:25Z</time>
      </trkpt>
      <trkpt lat="42.251501" lon="3.048619">
        <ele>5</ele>
        <time>2019-08-19T01:53:26Z</time>
      </trkpt>
      <trkpt lat="42.251469" lon="3.048573">
        <ele>5</ele>
        <time>2019-08-19T01:53:27Z</time>
      </trkpt>
      <trkpt lat="42.251438" lon="3.048527">
        <ele>5</ele>
        <time>2019-08-19T01:53:28Z</time>
      </trkpt>
      <trkpt lat="42.251407" lon="3.048481">
        <ele>5</ele>
        <time>2019-08-19T01:53:29Z</time>
      </trkpt>
      <trkpt lat="42.251376" lon="3.048434">
        <ele>5</ele>
        <time>2019-08-19T01:53:30Z</time>
      </trkpt>
      <trkpt lat="42.251345" lon="3.048388">
        <ele>6</ele>
        <time>2019-08-19T01:53:31Z</time>
      </trkpt>
      <trkpt lat="42.251272" lon="3.048294">
        <ele>6</ele>
        <time>2019-08-19T01:53:32Z</time>
      </trkpt>
      <trkpt lat="42.251235" lon="3.048247">
        <ele>6</ele>
        <time>2019-08-19T01:53:33Z</time>
      </trkpt>
      <trkpt lat="42.251197" lon="3.0482">
        <ele>6</ele>
        <time>2019-08-19T01:53:35Z</time>
      </trkpt>
      <trkpt lat="42.25116" lon="3.048153">
        <ele>6</ele>
        <time>2019-08-19T01:53:36Z</time>
      </trkpt>
      <trkpt lat="42.251123" lon="3.048107">
        <ele>6</ele>
        <time>2019-08-19T01:53:37Z</time>
      </trkpt>
      <trkpt lat="42.251086" lon="3.04806">
        <ele>6</ele>
        <time>2019-08-19T01:53:38Z</time>
      </trkpt>
      <trkpt lat="42.251048" lon="3.048013">
        <ele>6</ele>
        <time>2019-08-19T01:53:39Z</time>
      </trkpt>
      <trkpt lat="42.251011" lon="3.047966">
        <ele>6</ele>
        <time>2019-08-19T01:53:40Z</time>
      </trkpt>
      <trkpt lat="42.250974" lon="3.047919">
        <ele>6</ele>
        <time>2019-08-19T01:53:41Z</time>
      </trkpt>
      <trkpt lat="42.25086" lon="3.047773">
        <ele>6</ele>
        <time>2019-08-19T01:53:43Z</time>
      </trkpt>
      <trkpt lat="42.250821" lon="3.047721">
        <ele>6</ele>
        <time>2019-08-19T01:53:45Z</time>
      </trkpt>
      <trkpt lat="42.250782" lon="3.04767">
        <ele>6</ele>
        <time>2019-08-19T01:53:46Z</time>
      </trkpt>
      <trkpt lat="42.250743" lon="3.047619">
        <ele>6</ele>
        <time>2019-08-19T01:53:47Z</time>
      </trkpt>
      <trkpt lat="42.250703" lon="3.047568">
        <ele>6</ele>
        <time>2019-08-19T01:53:48Z</time>
      </trkpt>
      <trkpt lat="42.250664" lon="3.047516">
        <ele>6</ele>
        <time>2019-08-19T01:53:49Z</time>
      </trkpt>
      <trkpt lat="42.250625" lon="3.047465">
        <ele>6</ele>
        <time>2019-08-19T01:53:50Z</time>
      </trkpt>
      <trkpt lat="42.250586" lon="3.047414">
        <ele>6</ele>
        <time>2019-08-19T01:53:51Z</time>
      </trkpt>
      <trkpt lat="42.250508" lon="3.04731">
        <ele>6</ele>
        <time>2019-08-19T01:53:52Z</time>
      </trkpt>
      <trkpt lat="42.250469" lon="3.047258">
        <ele>6</ele>
        <time>2019-08-19T01:53:54Z</time>
      </trkpt>
      <trkpt lat="42.25043" lon="3.047207">
        <ele>6</ele>
        <time>2019-08-19T01:53:55Z</time>
      </trkpt>
      <trkpt lat="42.250391" lon="3.047156">
        <ele>6</ele>
        <time>2019-08-19T01:53:56Z</time>
      </trkpt>
      <trkpt lat="42.250353" lon="3.047104">
        <ele>6</ele>
        <time>2019-08-19T01:53:57Z</time>
      </trkpt>
      <trkpt lat="42.250314" lon="3.047053">
        <ele>6</ele>
        <time>2019-08-19T01:53:58Z</time>
      </trkpt>
      <trkpt lat="42.250275" lon="3.047002">
        <ele>6</ele>
        <time>2019-08-19T01:53:59Z</time>
      </trkpt>
      <trkpt lat="42.250236" lon="3.04695">
        <ele>6</ele>
        <time>2019-08-19T01:54:00Z</time>
      </trkpt>
      <trkpt lat="42.250197" lon="3.046899">
        <ele>6</ele>
        <time>2019-08-19T01:54:01Z</time>
      </trkpt>
      <trkpt lat="42.250117" lon="3.046821">
        <ele>6</ele>
        <time>2019-08-19T01:54:02Z</time>
      </trkpt>
      <trkpt lat="42.250077" lon="3.04679">
        <ele>6</ele>
        <time>2019-08-19T01:54:03Z</time>
      </trkpt>
      <trkpt lat="42.250038" lon="3.046759">
        <ele>6</ele>
        <time>2019-08-19T01:54:04Z</time>
      </trkpt>
      <trkpt lat="42.249998" lon="3.046728">
        <ele>6</ele>
        <time>2019-08-19T01:54:05Z</time>
      </trkpt>
      <trkpt lat="42.249959" lon="3.046697">
        <ele>6</ele>
        <time>2019-08-19T01:54:06Z</time>
      </trkpt>
      <trkpt lat="42.249919" lon="3.046666">
        <ele>6</ele>
        <time>2019-08-19T01:54:07Z</time>
      </trkpt>
      <trkpt lat="42.24988" lon="3.046635">
        <ele>6</ele>
        <time>2019-08-19T01:54:08Z</time>
      </trkpt>
      <trkpt lat="42.24984" lon="3.046604">
        <ele>6</ele>
        <time>2019-08-19T01:54:09Z</time>
      </trkpt>
      <trkpt lat="42.249801" lon="3.046573">
        <ele>6</ele>
        <time>2019-08-19T01:54:10Z</time>
      </trkpt>
      <trkpt lat="42.249761" lon="3.046542">
        <ele>6</ele>
        <time>2019-08-19T01:54:11Z</time>
      </trkpt>
      <trkpt lat="42.24963" lon="3.046451">
        <ele>6</ele>
        <time>2019-08-19T01:54:13Z</time>
      </trkpt>
      <trkpt lat="42.24959" lon="3.046423">
        <ele>6</ele>
        <time>2019-08-19T01:54:14Z</time>
      </trkpt>
      <trkpt lat="42.24955" lon="3.046395">
        <ele>6</ele>
        <time>2019-08-19T01:54:15Z</time>
      </trkpt>
      <trkpt lat="42.24951" lon="3.046367">
        <ele>6</ele>
        <time>2019-08-19T01:54:16Z</time>
      </trkpt>
      <trkpt lat="42.24947" lon="3.04634">
        <ele>6</ele>
        <time>2019-08-19T01:54:17Z</time>
      </trkpt>
      <trkpt lat="42.24943" lon="3.046312">
        <ele>6</ele>
        <time>2019-08-19T01:54:18Z</time>
      </trkpt>
      <trkpt lat="42.24939" lon="3.046284">
        <ele>6</ele>
        <time>2019-08-19T01:54:19Z</time>
      </trkpt>
      <trkpt lat="42.24935" lon="3.046256">
        <ele>6</ele>
        <time>2019-08-19T01:54:20Z</time>
      </trkpt>
      <trkpt lat="42.24931" lon="3.046228">
        <ele>7</ele>
        <time>2019-08-19T01:54:21Z</time>
      </trkpt>
      <trkpt lat="42.249224" lon="3.046168">
        <ele>7</ele>
        <time>2019-08-19T01:54:22Z</time>
      </trkpt>
      <trkpt lat="42.249185" lon="3.046143">
        <ele>7</ele>
        <time>2019-08-19T01:54:23Z</time>
      </trkpt>
      <trkpt lat="42.249145" lon="3.046117">
        <ele>7</ele>
        <time>2019-08-19T01:54:24Z</time>
      </trkpt>
      <trkpt lat="42.249106" lon="3.046092">
        <ele>7</ele>
        <time>2019-08-19T01:54:25Z</time>
      </trkpt>
      <trkpt lat="42.249066" lon="3.046066">
        <ele>7</ele>
        <time>2019-08-19T01:54:26Z</time>
      </trkpt>
      <trkpt lat="42.249026" lon="3.046041">
        <ele>7</ele>
        <time>2019-08-19T01:54:27Z</time>
      </trkpt>
      <trkpt lat="42.248987" lon="3.046015">
        <ele>7</ele>
        <time>2019-08-19T01:54:28Z</time>
      </trkpt>
      <trkpt lat="42.248947" lon="3.04599">
        <ele>7</ele>
        <time>2019-08-19T01:54:29Z</time>
      </trkpt>
      <trkpt lat="42.248908" lon="3.045964">
        <ele>7</ele>
        <time>2019-08-19T01:54:30Z</time>
      </trkpt>
      <trkpt lat="42.248868" lon="3.045939">
        <ele>7</ele>
        <time>2019-08-19T01:54:31Z</time>
      </trkpt>
      <trkpt lat="42.248781" lon="3.045871">
        <ele>7</ele>
        <time>2019-08-19T01:54:32Z</time>
      </trkpt>
      <trkpt lat="42.248733" lon="3.045834">
        <ele>7</ele>
        <time>2019-08-19T01:54:33Z</time>
      </trkpt>
      <trkpt lat="42.248686" lon="3.045797">
        <ele>7</ele>
        <time>2019-08-19T01:54:34Z</time>
      </trkpt>
      <trkpt lat="42.248639" lon="3.04576">
        <ele>7</ele>
        <time>2019-08-19T01:54:35Z</time>
      </trkpt>
      <trkpt lat="42.248591" lon="3.045723">
        <ele>7</ele>
        <time>2019-08-19T01:54:36Z</time>
      </trkpt>
      <trkpt lat="42.248544" lon="3.045686">
        <ele>7</ele>
        <time>2019-08-19T01:54:37Z</time>
      </trkpt>
      <trkpt lat="42.248497" lon="3.045649">
        <ele>7</ele>
        <time>2019-08-19T01:54:38Z</time>
      </trkpt>
      <trkpt lat="42.248449" lon="3.045612">
        <ele>7</ele>
        <time>2019-08-19T01:54:40Z</time>
      </trkpt>
      <trkpt lat="42.248402" lon="3.045575">
        <ele>5</ele>
        <time>2019-08-19T01:54:41Z</time>
      </trkpt>
      <trkpt lat="42.248299" lon="3.04548">
        <ele>5</ele>
        <time>2019-08-19T01:54:42Z</time>
      </trkpt>
      <trkpt lat="42.248248" lon="3.045429">
        <ele>5</ele>
        <time>2019-08-19T01:54:43Z</time>
      </trkpt>
      <trkpt lat="42.248197" lon="3.045378">
        <ele>5</ele>
        <time>2019-08-19T01:54:44Z</time>
      </trkpt>
      <trkpt lat="42.248146" lon="3.045327">
        <ele>5</ele>
        <time>2019-08-19T01:54:45Z</time>
      </trkpt>
      <trkpt lat="42.248096" lon="3.045277">
        <ele>5</ele>
        <time>2019-08-19T01:54:46Z</time>
      </trkpt>
      <trkpt lat="42.248045" lon="3.045226">
        <ele>5</ele>
        <time>2019-08-19T01:54:47Z</time>
      </trkpt>
      <trkpt lat="42.247994" lon="3.045175">
        <ele>5</ele>
        <time>2019-08-19T01:54:48Z</time>
      </trkpt>
      <trkpt lat="42.247943" lon="3.045124">
        <ele>5</ele>
        <time>2019-08-19T01:54:50Z</time>
      </trkpt>
      <trkpt lat="42.247892" lon="3.045073">
        <ele>5</ele>
        <time>2019-08-19T01:54:51Z</time>
      </trkpt>
      <trkpt lat="42.247798" lon="3.044955">
        <ele>5</ele>
        <time>2019-08-19T01:54:52Z</time>
      </trkpt>
      <trkpt lat="42.247753" lon="3.044895">
        <ele>5</ele>
        <time>2019-08-19T01:54:53Z</time>
      </trkpt>
      <trkpt lat="42.247707" lon="3.044835">
        <ele>5</ele>
        <time>2019-08-19T01:54:54Z</time>
      </trkpt>
      <trkpt lat="42.247661" lon="3.044775">
        <ele>5</ele>
        <time>2019-08-19T01:54:55Z</time>
      </trkpt>
      <trkpt lat="42.247616" lon="3.044715">
        <ele>5</ele>
        <time>2019-08-19T01:54:56Z</time>
      </trkpt>
      <trkpt lat="42.24757" lon="3.044655">
        <ele>5</ele>
        <time>2019-08-19T01:54:57Z</time>
      </trkpt>
      <trkpt lat="42.247524" lon="3.044595">
        <ele>5</ele>
        <time>2019-08-19T01:54:58Z</time>
      </trkpt>
      <trkpt lat="42.247479" lon="3.044535">
        <ele>5</ele>
        <time>2019-08-19T01:55:00Z</time>
      </trkpt>
      <trkpt lat="42.247433" lon="3.044475">
        <ele>4</ele>
        <time>2019-08-19T01:55:01Z</time>
      </trkpt>
      <trkpt lat="42.247346" lon="3.044359">
        <ele>4</ele>
        <time>2019-08-19T01:55:02Z</time>
      </trkpt>
      <trkpt lat="42.247303" lon="3.044302">
        <ele>4</ele>
        <time>2019-08-19T01:55:03Z</time>
      </trkpt>
      <trkpt lat="42.24726" lon="3.044245">
        <ele>4</ele>
        <time>2019-08-19T01:55:04Z</time>
      </trkpt>
      <trkpt lat="42.247217" lon="3.044188">
        <ele>4</ele>
        <time>2019-08-19T01:55:06Z</time>
      </trkpt>
      <trkpt lat="42.247174" lon="3.044131">
        <ele>4</ele>
        <time>2019-08-19T01:55:07Z</time>
      </trkpt>
      <trkpt lat="42.247131" lon="3.044074">
        <ele>4</ele>
        <time>2019-08-19T01:55:08Z</time>
      </trkpt>
      <trkpt lat="42.247088" lon="3.044017">
        <ele>4</ele>
        <time>2019-08-19T01:55:09Z</time>
      </trkpt>
      <trkpt lat="42.247045" lon="3.04396">
        <ele>4</ele>
        <time>2019-08-19T01:55:10Z</time>
      </trkpt>
      <trkpt lat="42.247002" lon="3.043903">
        <ele>4</ele>
        <time>2019-08-19T01:55:11Z</time>
      </trkpt>
      <trkpt lat="42.246921" lon="3.043797">
        <ele>4</ele>
        <time>2019-08-19T01:55:12Z</time>
      </trkpt>
      <trkpt lat="42.246882" lon="3.043744">
        <ele>4</ele>
        <time>2019-08-19T01:55:14Z</time>
      </trkpt>
      <trkpt lat="42.246842" lon="3.043692">
        <ele>4</ele>
        <time>2019-08-19T01:55:15Z</time>
      </trkpt>
      <trkpt lat="42.246802" lon="3.043639">
        <ele>4</ele>
        <time>2019-08-19T01:55:16Z</time>
      </trkpt>
      <trkpt lat="42.246762" lon="3.043586">
        <ele>4</ele>
        <time>2019-08-19T01:55:18Z</time>
      </trkpt>
      <trkpt lat="42.246723" lon="3.043533">
        <ele>4</ele>
        <time>2019-08-19T01:55:19Z</time>
      </trkpt>
      <trkpt lat="42.246683" lon="3.043481">
        <ele>4</ele>
        <time>2019-08-19T01:55:20Z</time>
      </trkpt>
      <trkpt lat="42.246643" lon="3.043428">
        <ele>5</ele>
        <time>2019-08-19T01:55:21Z</time>
      </trkpt>
      <trkpt lat="42.246592" lon="3.043351">
        <ele>5</ele>
        <time>2019-08-19T01:55:22Z</time>
      </trkpt>
      <trkpt lat="42.24657" lon="3.043315">
        <ele>5</ele>
        <time>2019-08-19T01:55:23Z</time>
      </trkpt>
      <trkpt lat="42.246547" lon="3.043278">
        <ele>5</ele>
        <time>2019-08-19T01:55:25Z</time>
      </trkpt>
      <trkpt lat="42.246525" lon="3.043242">
        <ele>5</ele>
        <time>2019-08-19T01:55:26Z</time>
      </trkpt>
      <trkpt lat="42.246503" lon="3.043205">
        <ele>5</ele>
        <time>2019-08-19T01:55:27Z</time>
      </trkpt>
      <trkpt lat="42.246481" lon="3.043169">
        <ele>5</ele>
        <time>2019-08-19T01:55:28Z</time>
      </trkpt>
      <trkpt lat="42.246458" lon="3.043132">
        <ele>5</ele>
        <time>2019-08-19T01:55:29Z</time>
      </trkpt>
      <trkpt lat="42.246436" lon="3.043096">
        <ele>5</ele>
        <time>2019-08-19T01:55:31Z</time>
      </trkpt>
      <trkpt lat="42.246416" lon="3.043053">
        <ele>5</ele>
        <time>2019-08-19T01:55:40Z</time>
      </trkpt>
      <trkpt lat="42.246396" lon="3.04301">
        <ele>4</ele>
        <time>2019-08-19T01:56:27Z</time>
      </trkpt>
      <trkpt lat="42.246377" lon="3.042967">
        <ele>4</ele>
        <time>2019-08-19T01:56:28Z</time>
      </trkpt>
      <trkpt lat="42.246357" lon="3.042924">
        <ele>4</ele>
        <time>2019-08-19T01:56:29Z</time>
      </trkpt>
      <trkpt lat="42.246337" lon="3.042881">
        <ele>4</ele>
        <time>2019-08-19T01:56:30Z</time>
      </trkpt>
      <trkpt lat="42.246317" lon="3.042838">
        <ele>4</ele>
        <time>2019-08-19T01:56:31Z</time>
      </trkpt>
      <trkpt lat="42.246297" lon="3.042795">
        <ele>4</ele>
        <time>2019-08-19T01:56:32Z</time>
      </trkpt>
      <trkpt lat="42.246277" lon="3.042752">
        <ele>4</ele>
        <time>2019-08-19T01:56:33Z</time>
      </trkpt>
      <trkpt lat="42.246258" lon="3.042709">
        <ele>4</ele>
        <time>2019-08-19T01:56:34Z</time>
      </trkpt>
      <trkpt lat="42.246238" lon="3.042666">
        <ele>4</ele>
        <time>2019-08-19T01:56:35Z</time>
      </trkpt>
      <trkpt lat="42.246218" lon="3.042623">
        <ele>4</ele>
        <time>2019-08-19T01:56:36Z</time>
      </trkpt>
      <trkpt lat="42.246198" lon="3.04258">
        <ele>4</ele>
        <time>2019-08-19T01:56:37Z</time>
      </trkpt>
      <trkpt lat="42.246161" lon="3.042479">
        <ele>4</ele>
        <time>2019-08-19T01:56:38Z</time>
      </trkpt>
      <trkpt lat="42.246144" lon="3.042432">
        <ele>4</ele>
        <time>2019-08-19T01:56:39Z</time>
      </trkpt>
      <trkpt lat="42.246128" lon="3.042384">
        <ele>4</ele>
        <time>2019-08-19T01:56:40Z</time>
      </trkpt>
      <trkpt lat="42.246111" lon="3.042336">
        <ele>4</ele>
        <time>2019-08-19T01:56:41Z</time>
      </trkpt>
      <trkpt lat="42.246095" lon="3.042288">
        <ele>4</ele>
        <time>2019-08-19T01:56:42Z</time>
      </trkpt>
      <trkpt lat="42.246078" lon="3.042241">
        <ele>4</ele>
        <time>2019-08-19T01:56:43Z</time>
      </trkpt>
      <trkpt lat="42.246062" lon="3.042193">
        <ele>4</ele>
        <time>2019-08-19T01:56:44Z</time>
      </trkpt>
      <trkpt lat="42.246045" lon="3.042145">
        <ele>4</ele>
        <time>2019-08-19T01:56:45Z</time>
      </trkpt>
      <trkpt lat="42.246029" lon="3.042098">
        <ele>4</ele>
        <time>2019-08-19T01:56:46Z</time>
      </trkpt>
      <trkpt lat="42.246012" lon="3.04205">
        <ele>4</ele>
        <time>2019-08-19T01:56:47Z</time>
      </trkpt>
      <trkpt lat="42.245974" lon="3.041957">
        <ele>4</ele>
        <time>2019-08-19T01:56:48Z</time>
      </trkpt>
      <trkpt lat="42.245953" lon="3.041914">
        <ele>4</ele>
        <time>2019-08-19T01:56:49Z</time>
      </trkpt>
      <trkpt lat="42.245931" lon="3.041872">
        <ele>4</ele>
        <time>2019-08-19T01:56:50Z</time>
      </trkpt>
      <trkpt lat="42.24591" lon="3.041829">
        <ele>4</ele>
        <time>2019-08-19T01:56:51Z</time>
      </trkpt>
      <trkpt lat="42.245889" lon="3.041786">
        <ele>4</ele>
        <time>2019-08-19T01:56:52Z</time>
      </trkpt>
      <trkpt lat="42.245868" lon="3.041743">
        <ele>4</ele>
        <time>2019-08-19T01:56:53Z</time>
      </trkpt>
      <trkpt lat="42.245847" lon="3.0417">
        <ele>4</ele>
        <time>2019-08-19T01:56:54Z</time>
      </trkpt>
      <trkpt lat="42.245825" lon="3.041658">
        <ele>4</ele>
        <time>2019-08-19T01:56:55Z</time>
      </trkpt>
      <trkpt lat="42.245804" lon="3.041615">
        <ele>4</ele>
        <time>2019-08-19T01:56:56Z</time>
      </trkpt>
      <trkpt lat="42.245783" lon="3.041572">
        <ele>4</ele>
        <time>2019-08-19T01:56:57Z</time>
      </trkpt>
      <trkpt lat="42.245721" lon="3.041471">
        <ele>4</ele>
        <time>2019-08-19T01:56:59Z</time>
      </trkpt>
      <trkpt lat="42.245702" lon="3.041442">
        <ele>4</ele>
        <time>2019-08-19T01:57:00Z</time>
      </trkpt>
      <trkpt lat="42.245683" lon="3.041414">
        <ele>4</ele>
        <time>2019-08-19T01:57:01Z</time>
      </trkpt>
      <trkpt lat="42.245664" lon="3.041385">
        <ele>4</ele>
        <time>2019-08-19T01:57:02Z</time>
      </trkpt>
      <trkpt lat="42.245645" lon="3.041357">
        <ele>4</ele>
        <time>2019-08-19T01:57:03Z</time>
      </trkpt>
      <trkpt lat="42.245626" lon="3.041328">
        <ele>4</ele>
        <time>2019-08-19T01:57:04Z</time>
      </trkpt>
      <trkpt lat="42.245607" lon="3.0413">
        <ele>4</ele>
        <time>2019-08-19T01:57:05Z</time>
      </trkpt>
      <trkpt lat="42.245588" lon="3.041271">
        <ele>4</ele>
        <time>2019-08-19T01:57:06Z</time>
      </trkpt>
      <trkpt lat="42.245569" lon="3.041243">
        <ele>5</ele>
        <time>2019-08-19T01:57:07Z</time>
      </trkpt>
      <trkpt lat="42.245531" lon="3.041169">
        <ele>5</ele>
        <time>2019-08-19T01:57:08Z</time>
      </trkpt>
      <trkpt lat="42.245511" lon="3.04113">
        <ele>5</ele>
        <time>2019-08-19T01:57:09Z</time>
      </trkpt>
      <trkpt lat="42.245492" lon="3.041092">
        <ele>5</ele>
        <time>2019-08-19T01:57:10Z</time>
      </trkpt>
      <trkpt lat="42.245472" lon="3.041054">
        <ele>5</ele>
        <time>2019-08-19T01:57:11Z</time>
      </trkpt>
      <trkpt lat="42.245453" lon="3.041015">
        <ele>5</ele>
        <time>2019-08-19T01:57:12Z</time>
      </trkpt>
      <trkpt lat="42.245433" lon="3.040977">
        <ele>5</ele>
        <time>2019-08-19T01:57:13Z</time>
      </trkpt>
      <trkpt lat="42.245414" lon="3.040939">
        <ele>5</ele>
        <time>2019-08-19T01:57:14Z</time>
      </trkpt>
      <trkpt lat="42.245394" lon="3.040901">
        <ele>5</ele>
        <time>2019-08-19T01:57:15Z</time>
      </trkpt>
      <trkpt lat="42.245375" lon="3.040862">
        <ele>5</ele>
        <time>2019-08-19T01:57:16Z</time>
      </trkpt>
      <trkpt lat="42.245355" lon="3.040824">
        <ele>5</ele>
        <time>2019-08-19T01:57:17Z</time>
      </trkpt>
      <trkpt lat="42.245311" lon="3.040721">
        <ele>5</ele>
        <time>2019-08-19T01:57:18Z</time>
      </trkpt>
      <trkpt lat="42.245286" lon="3.04067">
        <ele>5</ele>
        <time>2019-08-19T01:57:19Z</time>
      </trkpt>
      <trkpt lat="42.245262" lon="3.04062">
        <ele>5</ele>
        <time>2019-08-19T01:57:20Z</time>
      </trkpt>
      <trkpt lat="42.245238" lon="3.040569">
        <ele>5</ele>
        <time>2019-08-19T01:57:21Z</time>
      </trkpt>
      <trkpt lat="42.245213" lon="3.040518">
        <ele>5</ele>
        <time>2019-08-19T01:57:22Z</time>
      </trkpt>
      <trkpt lat="42.245189" lon="3.040467">
        <ele>5</ele>
        <time>2019-08-19T01:57:23Z</time>
      </trkpt>
      <trkpt lat="42.245165" lon="3.040417">
        <ele>5</ele>
        <time>2019-08-19T01:57:24Z</time>
      </trkpt>
      <trkpt lat="42.24514" lon="3.040366">
        <ele>5</ele>
        <time>2019-08-19T01:57:26Z</time>
      </trkpt>
      <trkpt lat="42.245116" lon="3.040315">
        <ele>4</ele>
        <time>2019-08-19T01:57:27Z</time>
      </trkpt>
      <trkpt lat="42.245071" lon="3.040219">
        <ele>4</ele>
        <time>2019-08-19T01:57:28Z</time>
      </trkpt>
      <trkpt lat="42.245049" lon="3.04017">
        <ele>4</ele>
        <time>2019-08-19T01:57:29Z</time>
      </trkpt>
      <trkpt lat="42.245028" lon="3.040122">
        <ele>4</ele>
        <time>2019-08-19T01:57:30Z</time>
      </trkpt>
      <trkpt lat="42.245006" lon="3.040073">
        <ele>4</ele>
        <time>2019-08-19T01:57:31Z</time>
      </trkpt>
      <trkpt lat="42.244985" lon="3.040024">
        <ele>4</ele>
        <time>2019-08-19T01:57:32Z</time>
      </trkpt>
      <trkpt lat="42.244964" lon="3.039975">
        <ele>4</ele>
        <time>2019-08-19T01:57:33Z</time>
      </trkpt>
      <trkpt lat="42.244942" lon="3.039926">
        <ele>4</ele>
        <time>2019-08-19T01:57:34Z</time>
      </trkpt>
      <trkpt lat="42.244921" lon="3.039878">
        <ele>4</ele>
        <time>2019-08-19T01:57:35Z</time>
      </trkpt>
      <trkpt lat="42.244899" lon="3.039829">
        <ele>4</ele>
        <time>2019-08-19T01:57:36Z</time>
      </trkpt>
      <trkpt lat="42.244878" lon="3.03978">
        <ele>5</ele>
        <time>2019-08-19T01:57:38Z</time>
      </trkpt>
      <trkpt lat="42.244841" lon="3.039685">
        <ele>5</ele>
        <time>2019-08-19T01:57:39Z</time>
      </trkpt>
      <trkpt lat="42.244824" lon="3.039638">
        <ele>5</ele>
        <time>2019-08-19T01:57:40Z</time>
      </trkpt>
      <trkpt lat="42.244808" lon="3.039592">
        <ele>5</ele>
        <time>2019-08-19T01:57:41Z</time>
      </trkpt>
      <trkpt lat="42.244792" lon="3.039545">
        <ele>5</ele>
        <time>2019-08-19T01:57:42Z</time>
      </trkpt>
      <trkpt lat="42.244775" lon="3.039499">
        <ele>5</ele>
        <time>2019-08-19T01:57:43Z</time>
      </trkpt>
      <trkpt lat="42.244759" lon="3.039452">
        <ele>5</ele>
        <time>2019-08-19T01:57:44Z</time>
      </trkpt>
      <trkpt lat="42.244743" lon="3.039406">
        <ele>5</ele>
        <time>2019-08-19T01:57:45Z</time>
      </trkpt>
      <trkpt lat="42.244726" lon="3.039359">
        <ele>5</ele>
        <time>2019-08-19T01:57:46Z</time>
      </trkpt>
      <trkpt lat="42.24471" lon="3.039313">
        <ele>5</ele>
        <time>2019-08-19T01:57:47Z</time>
      </trkpt>
      <trkpt lat="42.244662" lon="3.039221">
        <ele>5</ele>
        <time>2019-08-19T01:57:48Z</time>
      </trkpt>
      <trkpt lat="42.244635" lon="3.03918">
        <ele>5</ele>
        <time>2019-08-19T01:57:49Z</time>
      </trkpt>
      <trkpt lat="42.244608" lon="3.039138">
        <ele>5</ele>
        <time>2019-08-19T01:57:50Z</time>
      </trkpt>
      <trkpt lat="42.244581" lon="3.039097">
        <ele>5</ele>
        <time>2019-08-19T01:57:51Z</time>
      </trkpt>
      <trkpt lat="42.244554" lon="3.039056">
        <ele>5</ele>
        <time>2019-08-19T01:57:52Z</time>
      </trkpt>
      <trkpt lat="42.244527" lon="3.039015">
        <ele>5</ele>
        <time>2019-08-19T01:57:53Z</time>
      </trkpt>
      <trkpt lat="42.2445" lon="3.038974">
        <ele>5</ele>
        <time>2019-08-19T01:57:54Z</time>
      </trkpt>
      <trkpt lat="42.244473" lon="3.038932">
        <ele>5</ele>
        <time>2019-08-19T01:57:55Z</time>
      </trkpt>
      <trkpt lat="42.244446" lon="3.038891">
        <ele>5</ele>
        <time>2019-08-19T01:57:56Z</time>
      </trkpt>
      <trkpt lat="42.244419" lon="3.03885">
        <ele>5</ele>
        <time>2019-08-19T01:57:57Z</time>
      </trkpt>
      <trkpt lat="42.244362" lon="3.038766">
        <ele>5</ele>
        <time>2019-08-19T01:57:58Z</time>
      </trkpt>
      <trkpt lat="42.244336" lon="3.038726">
        <ele>5</ele>
        <time>2019-08-19T01:57:59Z</time>
      </trkpt>
      <trkpt lat="42.244311" lon="3.038687">
        <ele>5</ele>
        <time>2019-08-19T01:58:00Z</time>
      </trkpt>
      <trkpt lat="42.244285" lon="3.038647">
        <ele>5</ele>
        <time>2019-08-19T01:58:01Z</time>
      </trkpt>
      <trkpt lat="42.24426" lon="3.038607">
        <ele>5</ele>
        <time>2019-08-19T01:58:02Z</time>
      </trkpt>
      <trkpt lat="42.244234" lon="3.038567">
        <ele>5</ele>
        <time>2019-08-19T01:58:03Z</time>
      </trkpt>
      <trkpt lat="42.244209" lon="3.038527">
        <ele>5</ele>
        <time>2019-08-19T01:58:04Z</time>
      </trkpt>
      <trkpt lat="42.244183" lon="3.038488">
        <ele>5</ele>
        <time>2019-08-19T01:58:05Z</time>
      </trkpt>
      <trkpt lat="42.244158" lon="3.038448">
        <ele>5</ele>
        <time>2019-08-19T01:58:06Z</time>
      </trkpt>
      <trkpt lat="42.244132" lon="3.038408">
        <ele>5</ele>
        <time>2019-08-19T01:58:07Z</time>
      </trkpt>
      <trkpt lat="42.244072" lon="3.038317">
        <ele>5</ele>
        <time>2019-08-19T01:58:08Z</time>
      </trkpt>
      <trkpt lat="42.244041" lon="3.038273">
        <ele>5</ele>
        <time>2019-08-19T01:58:09Z</time>
      </trkpt>
      <trkpt lat="42.24401" lon="3.038228">
        <ele>5</ele>
        <time>2019-08-19T01:58:10Z</time>
      </trkpt>
      <trkpt lat="42.243979" lon="3.038184">
        <ele>5</ele>
        <time>2019-08-19T01:58:12Z</time>
      </trkpt>
      <trkpt lat="42.243949" lon="3.038139">
        <ele>5</ele>
        <time>2019-08-19T01:58:13Z</time>
      </trkpt>
      <trkpt lat="42.243918" lon="3.038095">
        <ele>5</ele>
        <time>2019-08-19T01:58:14Z</time>
      </trkpt>
      <trkpt lat="42.243887" lon="3.03805">
        <ele>5</ele>
        <time>2019-08-19T01:58:15Z</time>
      </trkpt>
      <trkpt lat="42.243856" lon="3.038006">
        <ele>5</ele>
        <time>2019-08-19T01:58:16Z</time>
      </trkpt>
      <trkpt lat="42.243825" lon="3.037961">
        <ele>6</ele>
        <time>2019-08-19T01:58:17Z</time>
      </trkpt>
      <trkpt lat="42.243766" lon="3.037865">
        <ele>6</ele>
        <time>2019-08-19T01:58:18Z</time>
      </trkpt>
      <trkpt lat="42.243736" lon="3.037813">
        <ele>6</ele>
        <time>2019-08-19T01:58:19Z</time>
      </trkpt>
      <trkpt lat="42.243705" lon="3.037762">
        <ele>6</ele>
        <time>2019-08-19T01:58:20Z</time>
      </trkpt>
      <trkpt lat="42.243675" lon="3.037711">
        <ele>6</ele>
        <time>2019-08-19T01:58:21Z</time>
      </trkpt>
      <trkpt lat="42.243644" lon="3.037659">
        <ele>6</ele>
        <time>2019-08-19T01:58:23Z</time>
      </trkpt>
      <trkpt lat="42.243614" lon="3.037608">
        <ele>6</ele>
        <time>2019-08-19T01:58:24Z</time>
      </trkpt>
      <trkpt lat="42.243583" lon="3.037557">
        <ele>6</ele>
        <time>2019-08-19T01:58:25Z</time>
      </trkpt>
      <trkpt lat="42.243553" lon="3.037505">
        <ele>6</ele>
        <time>2019-08-19T01:58:26Z</time>
      </trkpt>
      <trkpt lat="42.243522" lon="3.037454">
        <ele>6</ele>
        <time>2019-08-19T01:58:27Z</time>
      </trkpt>
      <trkpt lat="42.243458" lon="3.037344">
        <ele>6</ele>
        <time>2019-08-19T01:58:28Z</time>
      </trkpt>
      <trkpt lat="42.243425" lon="3.037288">
        <ele>6</ele>
        <time>2019-08-19T01:58:29Z</time>
      </trkpt>
      <trkpt lat="42.243393" lon="3.037232">
        <ele>6</ele>
        <time>2019-08-19T01:58:30Z</time>
      </trkpt>
      <trkpt lat="42.243361" lon="3.037176">
        <ele>6</ele>
        <time>2019-08-19T01:58:31Z</time>
      </trkpt>
      <trkpt lat="42.243328" lon="3.037119">
        <ele>6</ele>
        <time>2019-08-19T01:58:33Z</time>
      </trkpt>
      <trkpt lat="42.243296" lon="3.037063">
        <ele>6</ele>
        <time>2019-08-19T01:58:34Z</time>
      </trkpt>
      <trkpt lat="42.243264" lon="3.037007">
        <ele>6</ele>
        <time>2019-08-19T01:58:35Z</time>
      </trkpt>
      <trkpt lat="42.243231" lon="3.036951">
        <ele>6</ele>
        <time>2019-08-19T01:58:36Z</time>
      </trkpt>
      <trkpt lat="42.243199" lon="3.036895">
        <ele>5</ele>
        <time>2019-08-19T01:58:37Z</time>
      </trkpt>
      <trkpt lat="42.243134" lon="3.03678">
        <ele>5</ele>
        <time>2019-08-19T01:58:38Z</time>
      </trkpt>
      <trkpt lat="42.243104" lon="3.036721">
        <ele>5</ele>
        <time>2019-08-19T01:58:39Z</time>
      </trkpt>
      <trkpt lat="42.243073" lon="3.036661">
        <ele>5</ele>
        <time>2019-08-19T01:58:40Z</time>
      </trkpt>
      <trkpt lat="42.243043" lon="3.036601">
        <ele>5</ele>
        <time>2019-08-19T01:58:42Z</time>
      </trkpt>
      <trkpt lat="42.243012" lon="3.036542">
        <ele>5</ele>
        <time>2019-08-19T01:58:43Z</time>
      </trkpt>
      <trkpt lat="42.242982" lon="3.036482">
        <ele>5</ele>
        <time>2019-08-19T01:58:44Z</time>
      </trkpt>
      <trkpt lat="42.242951" lon="3.036422">
        <ele>5</ele>
        <time>2019-08-19T01:58:45Z</time>
      </trkpt>
      <trkpt lat="42.242921" lon="3.036363">
        <ele>5</ele>
        <time>2019-08-19T01:58:46Z</time>
      </trkpt>
      <trkpt lat="42.24289" lon="3.036303">
        <ele>5</ele>
        <time>2019-08-19T01:58:47Z</time>
      </trkpt>
      <trkpt lat="42.242844" lon="3.036177">
        <ele>5</ele>
        <time>2019-08-19T01:58:48Z</time>
      </trkpt>
      <trkpt lat="42.242824" lon="3.036114">
        <ele>5</ele>
        <time>2019-08-19T01:58:49Z</time>
      </trkpt>
      <trkpt lat="42.242804" lon="3.036052">
        <ele>5</ele>
        <time>2019-08-19T01:58:50Z</time>
      </trkpt>
      <trkpt lat="42.242784" lon="3.035989">
        <ele>5</ele>
        <time>2019-08-19T01:58:51Z</time>
      </trkpt>
      <trkpt lat="42.242764" lon="3.035927">
        <ele>5</ele>
        <time>2019-08-19T01:58:52Z</time>
      </trkpt>
      <trkpt lat="42.242744" lon="3.035865">
        <ele>5</ele>
        <time>2019-08-19T01:58:53Z</time>
      </trkpt>
      <trkpt lat="42.242724" lon="3.035802">
        <ele>5</ele>
        <time>2019-08-19T01:58:54Z</time>
      </trkpt>
      <trkpt lat="42.242704" lon="3.03574">
        <ele>5</ele>
        <time>2019-08-19T01:58:55Z</time>
      </trkpt>
      <trkpt lat="42.242684" lon="3.035677">
        <ele>5</ele>
        <time>2019-08-19T01:58:56Z</time>
      </trkpt>
      <trkpt lat="42.242664" lon="3.035615">
        <ele>6</ele>
        <time>2019-08-19T01:58:57Z</time>
      </trkpt>
      <trkpt lat="42.242619" lon="3.035479">
        <ele>6</ele>
        <time>2019-08-19T01:58:58Z</time>
      </trkpt>
      <trkpt lat="42.242599" lon="3.035414">
        <ele>6</ele>
        <time>2019-08-19T01:58:59Z</time>
      </trkpt>
      <trkpt lat="42.242578" lon="3.03535">
        <ele>6</ele>
        <time>2019-08-19T01:59:00Z</time>
      </trkpt>
      <trkpt lat="42.242557" lon="3.035285">
        <ele>6</ele>
        <time>2019-08-19T01:59:01Z</time>
      </trkpt>
      <trkpt lat="42.242537" lon="3.03522">
        <ele>6</ele>
        <time>2019-08-19T01:59:02Z</time>
      </trkpt>
      <trkpt lat="42.242516" lon="3.035155">
        <ele>6</ele>
        <time>2019-08-19T01:59:03Z</time>
      </trkpt>
      <trkpt lat="42.242495" lon="3.03509">
        <ele>6</ele>
        <time>2019-08-19T01:59:04Z</time>
      </trkpt>
      <trkpt lat="42.242474" lon="3.035026">
        <ele>6</ele>
        <time>2019-08-19T01:59:05Z</time>
      </trkpt>
      <trkpt lat="42.242454" lon="3.034961">
        <ele>6</ele>
        <time>2019-08-19T01:59:06Z</time>
      </trkpt>
      <trkpt lat="42.242433" lon="3.034896">
        <ele>6</ele>
        <time>2019-08-19T01:59:07Z</time>
      </trkpt>
      <trkpt lat="42.242387" lon="3.034755">
        <ele>6</ele>
        <time>2019-08-19T01:59:08Z</time>
      </trkpt>
      <trkpt lat="42.242364" lon="3.034685">
        <ele>6</ele>
        <time>2019-08-19T01:59:09Z</time>
      </trkpt>
      <trkpt lat="42.242342" lon="3.034614">
        <ele>6</ele>
        <time>2019-08-19T01:59:10Z</time>
      </trkpt>
      <trkpt lat="42.242319" lon="3.034544">
        <ele>6</ele>
        <time>2019-08-19T01:59:11Z</time>
      </trkpt>
      <trkpt lat="42.242297" lon="3.034473">
        <ele>6</ele>
        <time>2019-08-19T01:59:12Z</time>
      </trkpt>
      <trkpt lat="42.242275" lon="3.034403">
        <ele>6</ele>
        <time>2019-08-19T01:59:13Z</time>
      </trkpt>
      <trkpt lat="42.242252" lon="3.034332">
        <ele>6</ele>
        <time>2019-08-19T01:59:14Z</time>
      </trkpt>
      <trkpt lat="42.24223" lon="3.034262">
        <ele>6</ele>
        <time>2019-08-19T01:59:15Z</time>
      </trkpt>
      <trkpt lat="42.242207" lon="3.034191">
        <ele>6</ele>
        <time>2019-08-19T01:59:16Z</time>
      </trkpt>
      <trkpt lat="42.242185" lon="3.034121">
        <ele>6</ele>
        <time>2019-08-19T01:59:18Z</time>
      </trkpt>
      <trkpt lat="42.242143" lon="3.033987">
        <ele>6</ele>
        <time>2019-08-19T01:59:19Z</time>
      </trkpt>
      <trkpt lat="42.242122" lon="3.033925">
        <ele>6</ele>
        <time>2019-08-19T01:59:20Z</time>
      </trkpt>
      <trkpt lat="42.242102" lon="3.033863">
        <ele>6</ele>
        <time>2019-08-19T01:59:21Z</time>
      </trkpt>
      <trkpt lat="42.242081" lon="3.033801">
        <ele>6</ele>
        <time>2019-08-19T01:59:22Z</time>
      </trkpt>
      <trkpt lat="42.242061" lon="3.033738">
        <ele>6</ele>
        <time>2019-08-19T01:59:23Z</time>
      </trkpt>
      <trkpt lat="42.24204" lon="3.033676">
        <ele>6</ele>
        <time>2019-08-19T01:59:24Z</time>
      </trkpt>
      <trkpt lat="42.24202" lon="3.033614">
        <ele>6</ele>
        <time>2019-08-19T01:59:25Z</time>
      </trkpt>
      <trkpt lat="42.241999" lon="3.033552">
        <ele>6</ele>
        <time>2019-08-19T01:59:26Z</time>
      </trkpt>
      <trkpt lat="42.241979" lon="3.03349">
        <ele>6</ele>
        <time>2019-08-19T01:59:27Z</time>
      </trkpt>
      <trkpt lat="42.241951" lon="3.03336">
        <ele>6</ele>
        <time>2019-08-19T01:59:28Z</time>
      </trkpt>
      <trkpt lat="42.241943" lon="3.033298">
        <ele>6</ele>
        <time>2019-08-19T01:59:29Z</time>
      </trkpt>
      <trkpt lat="42.241936" lon="3.033236">
        <ele>6</ele>
        <time>2019-08-19T01:59:30Z</time>
      </trkpt>
      <trkpt lat="42.241928" lon="3.033174">
        <ele>6</ele>
        <time>2019-08-19T01:59:31Z</time>
      </trkpt>
      <trkpt lat="42.241921" lon="3.033111">
        <ele>6</ele>
        <time>2019-08-19T01:59:32Z</time>
      </trkpt>
      <trkpt lat="42.241913" lon="3.033049">
        <ele>6</ele>
        <time>2019-08-19T01:59:33Z</time>
      </trkpt>
      <trkpt lat="42.241906" lon="3.032987">
        <ele>6</ele>
        <time>2019-08-19T01:59:34Z</time>
      </trkpt>
      <trkpt lat="42.241898" lon="3.032925">
        <ele>6</ele>
        <time>2019-08-19T01:59:36Z</time>
      </trkpt>
      <trkpt lat="42.241891" lon="3.032863">
        <ele>7</ele>
        <time>2019-08-19T01:59:37Z</time>
      </trkpt>
      <trkpt lat="42.241815" lon="3.032748">
        <ele>7</ele>
        <time>2019-08-19T01:59:38Z</time>
      </trkpt>
      <trkpt lat="42.241786" lon="3.032675">
        <ele>7</ele>
        <time>2019-08-19T01:59:39Z</time>
      </trkpt>
      <trkpt lat="42.241756" lon="3.032603">
        <ele>7</ele>
        <time>2019-08-19T01:59:40Z</time>
      </trkpt>
      <trkpt lat="42.241727" lon="3.03253">
        <ele>7</ele>
        <time>2019-08-19T01:59:41Z</time>
      </trkpt>
      <trkpt lat="42.241697" lon="3.032458">
        <ele>7</ele>
        <time>2019-08-19T01:59:42Z</time>
      </trkpt>
      <trkpt lat="42.241668" lon="3.032385">
        <ele>7</ele>
        <time>2019-08-19T01:59:43Z</time>
      </trkpt>
      <trkpt lat="42.241638" lon="3.032313">
        <ele>7</ele>
        <time>2019-08-19T01:59:45Z</time>
      </trkpt>
      <trkpt lat="42.241609" lon="3.03224">
        <ele>7</ele>
        <time>2019-08-19T01:59:46Z</time>
      </trkpt>
      <trkpt lat="42.241579" lon="3.032168">
        <ele>7</ele>
        <time>2019-08-19T01:59:47Z</time>
      </trkpt>
      <trkpt lat="42.241521" lon="3.032024">
        <ele>7</ele>
        <time>2019-08-19T01:59:48Z</time>
      </trkpt>
      <trkpt lat="42.241491" lon="3.031954">
        <ele>7</ele>
        <time>2019-08-19T01:59:49Z</time>
      </trkpt>
      <trkpt lat="42.241461" lon="3.031883">
        <ele>7</ele>
        <time>2019-08-19T01:59:50Z</time>
      </trkpt>
      <trkpt lat="42.241431" lon="3.031813">
        <ele>7</ele>
        <time>2019-08-19T01:59:51Z</time>
      </trkpt>
      <trkpt lat="42.241401" lon="3.031743">
        <ele>7</ele>
        <time>2019-08-19T01:59:52Z</time>
      </trkpt>
      <trkpt lat="42.24137" lon="3.031673">
        <ele>7</ele>
        <time>2019-08-19T01:59:53Z</time>
      </trkpt>
      <trkpt lat="42.24134" lon="3.031603">
        <ele>7</ele>
        <time>2019-08-19T01:59:54Z</time>
      </trkpt>
      <trkpt lat="42.24131" lon="3.031532">
        <ele>7</ele>
        <time>2019-08-19T01:59:55Z</time>
      </trkpt>
      <trkpt lat="42.24128" lon="3.031462">
        <ele>7</ele>
        <time>2019-08-19T01:59:56Z</time>
      </trkpt>
      <trkpt lat="42.24125" lon="3.031392">
        <ele>7</ele>
        <time>2019-08-19T01:59:58Z</time>
      </trkpt>
      <trkpt lat="42.241188" lon="3.031262">
        <ele>7</ele>
        <time>2019-08-19T01:59:59Z</time>
      </trkpt>
      <trkpt lat="42.241158" lon="3.0312">
        <ele>7</ele>
        <time>2019-08-19T02:00:00Z</time>
      </trkpt>
      <trkpt lat="42.241129" lon="3.031138">
        <ele>7</ele>
        <time>2019-08-19T02:00:01Z</time>
      </trkpt>
      <trkpt lat="42.241099" lon="3.031076">
        <ele>7</ele>
        <time>2019-08-19T02:00:02Z</time>
      </trkpt>
      <trkpt lat="42.24107" lon="3.031015">
        <ele>7</ele>
        <time>2019-08-19T02:00:03Z</time>
      </trkpt>
      <trkpt lat="42.24104" lon="3.030953">
        <ele>7</ele>
        <time>2019-08-19T02:00:04Z</time>
      </trkpt>
      <trkpt lat="42.241011" lon="3.030891">
        <ele>7</ele>
        <time>2019-08-19T02:00:05Z</time>
      </trkpt>
      <trkpt lat="42.240981" lon="3.030829">
        <ele>7</ele>
        <time>2019-08-19T02:00:06Z</time>
      </trkpt>
      <trkpt lat="42.240952" lon="3.030767">
        <ele>7</ele>
        <time>2019-08-19T02:00:07Z</time>
      </trkpt>
      <trkpt lat="42.240876" lon="3.030558">
        <ele>7</ele>
        <time>2019-08-19T02:00:09Z</time>
      </trkpt>
      <trkpt lat="42.24086" lon="3.030486">
        <ele>7</ele>
        <time>2019-08-19T02:00:10Z</time>
      </trkpt>
      <trkpt lat="42.240844" lon="3.030415">
        <ele>7</ele>
        <time>2019-08-19T02:00:11Z</time>
      </trkpt>
      <trkpt lat="42.240828" lon="3.030343">
        <ele>7</ele>
        <time>2019-08-19T02:00:12Z</time>
      </trkpt>
      <trkpt lat="42.240811" lon="3.030272">
        <ele>7</ele>
        <time>2019-08-19T02:00:13Z</time>
      </trkpt>
      <trkpt lat="42.240795" lon="3.030201">
        <ele>7</ele>
        <time>2019-08-19T02:00:14Z</time>
      </trkpt>
      <trkpt lat="42.240779" lon="3.030129">
        <ele>7</ele>
        <time>2019-08-19T02:00:15Z</time>
      </trkpt>
      <trkpt lat="42.240763" lon="3.030058">
        <ele>7</ele>
        <time>2019-08-19T02:00:17Z</time>
      </trkpt>
      <trkpt lat="42.240736" lon="3.029933">
        <ele>7</ele>
        <time>2019-08-19T02:00:18Z</time>
      </trkpt>
      <trkpt lat="42.240725" lon="3.029875">
        <ele>7</ele>
        <time>2019-08-19T02:00:19Z</time>
      </trkpt>
      <trkpt lat="42.240713" lon="3.029816">
        <ele>7</ele>
        <time>2019-08-19T02:00:20Z</time>
      </trkpt>
      <trkpt lat="42.240701" lon="3.029758">
        <ele>7</ele>
        <time>2019-08-19T02:00:21Z</time>
      </trkpt>
      <trkpt lat="42.24069" lon="3.029699">
        <ele>7</ele>
        <time>2019-08-19T02:00:22Z</time>
      </trkpt>
      <trkpt lat="42.240678" lon="3.02964">
        <ele>7</ele>
        <time>2019-08-19T02:00:23Z</time>
      </trkpt>
      <trkpt lat="42.240666" lon="3.029582">
        <ele>7</ele>
        <time>2019-08-19T02:00:24Z</time>
      </trkpt>
      <trkpt lat="42.240654" lon="3.029523">
        <ele>7</ele>
        <time>2019-08-19T02:00:25Z</time>
      </trkpt>
      <trkpt lat="42.240643" lon="3.029465">
        <ele>7</ele>
        <time>2019-08-19T02:00:26Z</time>
      </trkpt>
      <trkpt lat="42.240631" lon="3.029406">
        <ele>7</ele>
        <time>2019-08-19T02:00:27Z</time>
      </trkpt>
      <trkpt lat="42.240606" lon="3.029283">
        <ele>7</ele>
        <time>2019-08-19T02:00:28Z</time>
      </trkpt>
      <trkpt lat="42.240594" lon="3.029223">
        <ele>7</ele>
        <time>2019-08-19T02:00:29Z</time>
      </trkpt>
      <trkpt lat="42.240582" lon="3.029164">
        <ele>7</ele>
        <time>2019-08-19T02:00:30Z</time>
      </trkpt>
      <trkpt lat="42.24057" lon="3.029104">
        <ele>7</ele>
        <time>2019-08-19T02:00:31Z</time>
      </trkpt>
      <trkpt lat="42.240559" lon="3.029045">
        <ele>7</ele>
        <time>2019-08-19T02:00:32Z</time>
      </trkpt>
      <trkpt lat="42.240547" lon="3.028986">
        <ele>7</ele>
        <time>2019-08-19T02:00:33Z</time>
      </trkpt>
      <trkpt lat="42.240535" lon="3.028926">
        <ele>7</ele>
        <time>2019-08-19T02:00:34Z</time>
      </trkpt>
      <trkpt lat="42.240523" lon="3.028867">
        <ele>7</ele>
        <time>2019-08-19T02:00:35Z</time>
      </trkpt>
      <trkpt lat="42.240511" lon="3.028807">
        <ele>7</ele>
        <time>2019-08-19T02:00:36Z</time>
      </trkpt>
      <trkpt lat="42.240499" lon="3.028748">
        <ele>7</ele>
        <time>2019-08-19T02:00:37Z</time>
      </trkpt>
      <trkpt lat="42.240476" lon="3.028624">
        <ele>7</ele>
        <time>2019-08-19T02:00:38Z</time>
      </trkpt>
      <trkpt lat="42.240464" lon="3.028565">
        <ele>7</ele>
        <time>2019-08-19T02:00:39Z</time>
      </trkpt>
      <trkpt lat="42.240453" lon="3.028506">
        <ele>7</ele>
        <time>2019-08-19T02:00:40Z</time>
      </trkpt>
      <trkpt lat="42.240441" lon="3.028447">
        <ele>7</ele>
        <time>2019-08-19T02:00:41Z</time>
      </trkpt>
      <trkpt lat="42.24043" lon="3.028388">
        <ele>7</ele>
        <time>2019-08-19T02:00:42Z</time>
      </trkpt>
      <trkpt lat="42.240419" lon="3.028329">
        <ele>7</ele>
        <time>2019-08-19T02:00:43Z</time>
      </trkpt>
      <trkpt lat="42.240407" lon="3.02827">
        <ele>7</ele>
        <time>2019-08-19T02:00:44Z</time>
      </trkpt>
      <trkpt lat="42.240396" lon="3.028211">
        <ele>7</ele>
        <time>2019-08-19T02:00:45Z</time>
      </trkpt>
      <trkpt lat="42.240384" lon="3.028152">
        <ele>7</ele>
        <time>2019-08-19T02:00:46Z</time>
      </trkpt>
      <trkpt lat="42.240373" lon="3.028093">
        <ele>7</ele>
        <time>2019-08-19T02:00:47Z</time>
      </trkpt>
      <trkpt lat="42.240347" lon="3.027962">
        <ele>7</ele>
        <time>2019-08-19T02:00:48Z</time>
      </trkpt>
      <trkpt lat="42.240335" lon="3.027898">
        <ele>7</ele>
        <time>2019-08-19T02:00:49Z</time>
      </trkpt>
      <trkpt lat="42.240323" lon="3.027834">
        <ele>7</ele>
        <time>2019-08-19T02:00:50Z</time>
      </trkpt>
      <trkpt lat="42.240311" lon="3.02777">
        <ele>7</ele>
        <time>2019-08-19T02:00:51Z</time>
      </trkpt>
      <trkpt lat="42.240298" lon="3.027707">
        <ele>7</ele>
        <time>2019-08-19T02:00:52Z</time>
      </trkpt>
      <trkpt lat="42.240286" lon="3.027643">
        <ele>7</ele>
        <time>2019-08-19T02:00:53Z</time>
      </trkpt>
      <trkpt lat="42.240274" lon="3.027579">
        <ele>7</ele>
        <time>2019-08-19T02:00:55Z</time>
      </trkpt>
      <trkpt lat="42.240262" lon="3.027515">
        <ele>7</ele>
        <time>2019-08-19T02:00:56Z</time>
      </trkpt>
      <trkpt lat="42.24025" lon="3.027451">
        <ele>8</ele>
        <time>2019-08-19T02:00:57Z</time>
      </trkpt>
      <trkpt lat="42.240225" lon="3.027326">
        <ele>8</ele>
        <time>2019-08-19T02:00:58Z</time>
      </trkpt>
      <trkpt lat="42.240212" lon="3.027262">
        <ele>8</ele>
        <time>2019-08-19T02:00:59Z</time>
      </trkpt>
      <trkpt lat="42.2402" lon="3.027199">
        <ele>8</ele>
        <time>2019-08-19T02:01:00Z</time>
      </trkpt>
      <trkpt lat="42.240188" lon="3.027136">
        <ele>8</ele>
        <time>2019-08-19T02:01:01Z</time>
      </trkpt>
      <trkpt lat="42.240176" lon="3.027072">
        <ele>8</ele>
        <time>2019-08-19T02:01:02Z</time>
      </trkpt>
      <trkpt lat="42.240163" lon="3.027009">
        <ele>8</ele>
        <time>2019-08-19T02:01:03Z</time>
      </trkpt>
      <trkpt lat="42.240151" lon="3.026946">
        <ele>8</ele>
        <time>2019-08-19T02:01:04Z</time>
      </trkpt>
      <trkpt lat="42.240139" lon="3.026883">
        <ele>8</ele>
        <time>2019-08-19T02:01:05Z</time>
      </trkpt>
      <trkpt lat="42.240126" lon="3.026819">
        <ele>8</ele>
        <time>2019-08-19T02:01:06Z</time>
      </trkpt>
      <trkpt lat="42.240114" lon="3.026756">
        <ele>8</ele>
        <time>2019-08-19T02:01:08Z</time>
      </trkpt>
      <trkpt lat="42.240082" lon="3.026618">
        <ele>8</ele>
        <time>2019-08-19T02:01:09Z</time>
      </trkpt>
      <trkpt lat="42.240064" lon="3.026544">
        <ele>8</ele>
        <time>2019-08-19T02:01:10Z</time>
      </trkpt>
      <trkpt lat="42.240046" lon="3.02647">
        <ele>8</ele>
        <time>2019-08-19T02:01:11Z</time>
      </trkpt>
      <trkpt lat="42.240028" lon="3.026395">
        <ele>8</ele>
        <time>2019-08-19T02:01:12Z</time>
      </trkpt>
      <trkpt lat="42.240009" lon="3.026321">
        <ele>8</ele>
        <time>2019-08-19T02:01:14Z</time>
      </trkpt>
      <trkpt lat="42.239991" lon="3.026247">
        <ele>8</ele>
        <time>2019-08-19T02:01:15Z</time>
      </trkpt>
      <trkpt lat="42.239973" lon="3.026173">
        <ele>8</ele>
        <time>2019-08-19T02:01:16Z</time>
      </trkpt>
      <trkpt lat="42.239955" lon="3.026099">
        <ele>10</ele>
        <time>2019-08-19T02:01:18Z</time>
      </trkpt>
      <trkpt lat="42.239923" lon="3.025971">
        <ele>10</ele>
        <time>2019-08-19T02:01:19Z</time>
      </trkpt>
      <trkpt lat="42.239908" lon="3.025912">
        <ele>10</ele>
        <time>2019-08-19T02:01:20Z</time>
      </trkpt>
      <trkpt lat="42.239894" lon="3.025853">
        <ele>10</ele>
        <time>2019-08-19T02:01:21Z</time>
      </trkpt>
      <trkpt lat="42.239879" lon="3.025794">
        <ele>10</ele>
        <time>2019-08-19T02:01:22Z</time>
      </trkpt>
      <trkpt lat="42.239864" lon="3.025735">
        <ele>10</ele>
        <time>2019-08-19T02:01:23Z</time>
      </trkpt>
      <trkpt lat="42.239849" lon="3.025676">
        <ele>10</ele>
        <time>2019-08-19T02:01:24Z</time>
      </trkpt>
      <trkpt lat="42.239835" lon="3.025617">
        <ele>10</ele>
        <time>2019-08-19T02:01:25Z</time>
      </trkpt>
      <trkpt lat="42.23982" lon="3.025558">
        <ele>10</ele>
        <time>2019-08-19T02:01:26Z</time>
      </trkpt>
      <trkpt lat="42.239805" lon="3.025499">
        <ele>11</ele>
        <time>2019-08-19T02:01:27Z</time>
      </trkpt>
      <trkpt lat="42.239771" lon="3.025362">
        <ele>11</ele>
        <time>2019-08-19T02:01:28Z</time>
      </trkpt>
      <trkpt lat="42.239753" lon="3.02529">
        <ele>11</ele>
        <time>2019-08-19T02:01:29Z</time>
      </trkpt>
      <trkpt lat="42.239734" lon="3.025217">
        <ele>11</ele>
        <time>2019-08-19T02:01:30Z</time>
      </trkpt>
      <trkpt lat="42.239716" lon="3.025145">
        <ele>11</ele>
        <time>2019-08-19T02:01:31Z</time>
      </trkpt>
      <trkpt lat="42.239698" lon="3.025072">
        <ele>11</ele>
        <time>2019-08-19T02:01:33Z</time>
      </trkpt>
      <trkpt lat="42.23968" lon="3.025">
        <ele>11</ele>
        <time>2019-08-19T02:01:34Z</time>
      </trkpt>
      <trkpt lat="42.239661" lon="3.024927">
        <ele>11</ele>
        <time>2019-08-19T02:01:35Z</time>
      </trkpt>
      <trkpt lat="42.239643" lon="3.024855">
        <ele>11</ele>
        <time>2019-08-19T02:01:36Z</time>
      </trkpt>
      <trkpt lat="42.239625" lon="3.024782">
        <ele>11</ele>
        <time>2019-08-19T02:01:38Z</time>
      </trkpt>
      <trkpt lat="42.239593" lon="3.024656">
        <ele>11</ele>
        <time>2019-08-19T02:01:39Z</time>
      </trkpt>
      <trkpt lat="42.239578" lon="3.024597">
        <ele>11</ele>
        <time>2019-08-19T02:01:40Z</time>
      </trkpt>
      <trkpt lat="42.239563" lon="3.024537">
        <ele>11</ele>
        <time>2019-08-19T02:01:41Z</time>
      </trkpt>
      <trkpt lat="42.239548" lon="3.024477">
        <ele>11</ele>
        <time>2019-08-19T02:01:42Z</time>
      </trkpt>
      <trkpt lat="42.239534" lon="3.024418">
        <ele>11</ele>
        <time>2019-08-19T02:01:43Z</time>
      </trkpt>
      <trkpt lat="42.239519" lon="3.024358">
        <ele>11</ele>
        <time>2019-08-19T02:01:44Z</time>
      </trkpt>
      <trkpt lat="42.239504" lon="3.024298">
        <ele>11</ele>
        <time>2019-08-19T02:01:45Z</time>
      </trkpt>
      <trkpt lat="42.239489" lon="3.024239">
        <ele>11</ele>
        <time>2019-08-19T02:01:46Z</time>
      </trkpt>
      <trkpt lat="42.239474" lon="3.024179">
        <ele>11</ele>
        <time>2019-08-19T02:01:47Z</time>
      </trkpt>
      <trkpt lat="42.23944" lon="3.024038">
        <ele>11</ele>
        <time>2019-08-19T02:01:48Z</time>
      </trkpt>
      <trkpt lat="42.239423" lon="3.023967">
        <ele>11</ele>
        <time>2019-08-19T02:01:49Z</time>
      </trkpt>
      <trkpt lat="42.239405" lon="3.023895">
        <ele>11</ele>
        <time>2019-08-19T02:01:50Z</time>
      </trkpt>
      <trkpt lat="42.239388" lon="3.023823">
        <ele>11</ele>
        <time>2019-08-19T02:01:51Z</time>
      </trkpt>
      <trkpt lat="42.23937" lon="3.023752">
        <ele>11</ele>
        <time>2019-08-19T02:01:52Z</time>
      </trkpt>
      <trkpt lat="42.239353" lon="3.02368">
        <ele>11</ele>
        <time>2019-08-19T02:01:53Z</time>
      </trkpt>
      <trkpt lat="42.239335" lon="3.023608">
        <ele>11</ele>
        <time>2019-08-19T02:01:54Z</time>
      </trkpt>
      <trkpt lat="42.239318" lon="3.023537">
        <ele>11</ele>
        <time>2019-08-19T02:01:56Z</time>
      </trkpt>
      <trkpt lat="42.2393" lon="3.023465">
        <ele>11</ele>
        <time>2019-08-19T02:01:57Z</time>
      </trkpt>
      <trkpt lat="42.239263" lon="3.023319">
        <ele>11</ele>
        <time>2019-08-19T02:01:58Z</time>
      </trkpt>
      <trkpt lat="42.239243" lon="3.023244">
        <ele>11</ele>
        <time>2019-08-19T02:01:59Z</time>
      </trkpt>
      <trkpt lat="42.239224" lon="3.023168">
        <ele>11</ele>
        <time>2019-08-19T02:02:00Z</time>
      </trkpt>
      <trkpt lat="42.239204" lon="3.023093">
        <ele>11</ele>
        <time>2019-08-19T02:02:01Z</time>
      </trkpt>
      <trkpt lat="42.239184" lon="3.023018">
        <ele>11</ele>
        <time>2019-08-19T02:02:02Z</time>
      </trkpt>
      <trkpt lat="42.239164" lon="3.022943">
        <ele>11</ele>
        <time>2019-08-19T02:02:03Z</time>
      </trkpt>
      <trkpt lat="42.239145" lon="3.022867">
        <ele>11</ele>
        <time>2019-08-19T02:02:05Z</time>
      </trkpt>
      <trkpt lat="42.239125" lon="3.022792">
        <ele>11</ele>
        <time>2019-08-19T02:02:06Z</time>
      </trkpt>
      <trkpt lat="42.239105" lon="3.022717">
        <ele>11</ele>
        <time>2019-08-19T02:02:07Z</time>
      </trkpt>
      <trkpt lat="42.239044" lon="3.022563">
        <ele>11</ele>
        <time>2019-08-19T02:02:08Z</time>
      </trkpt>
      <trkpt lat="42.239009" lon="3.022485">
        <ele>11</ele>
        <time>2019-08-19T02:02:09Z</time>
      </trkpt>
      <trkpt lat="42.238973" lon="3.022408">
        <ele>11</ele>
        <time>2019-08-19T02:02:11Z</time>
      </trkpt>
      <trkpt lat="42.238938" lon="3.02233">
        <ele>11</ele>
        <time>2019-08-19T02:02:13Z</time>
      </trkpt>
      <trkpt lat="42.238903" lon="3.022252">
        <ele>11</ele>
        <time>2019-08-19T02:02:14Z</time>
      </trkpt>
      <trkpt lat="42.238868" lon="3.022174">
        <ele>11</ele>
        <time>2019-08-19T02:02:15Z</time>
      </trkpt>
      <trkpt lat="42.238832" lon="3.022097">
        <ele>11</ele>
        <time>2019-08-19T02:02:16Z</time>
      </trkpt>
      <trkpt lat="42.238797" lon="3.022019">
        <ele>11</ele>
        <time>2019-08-19T02:02:17Z</time>
      </trkpt>
      <trkpt lat="42.238724" lon="3.021892">
        <ele>11</ele>
        <time>2019-08-19T02:02:18Z</time>
      </trkpt>
      <trkpt lat="42.238685" lon="3.021831">
        <ele>11</ele>
        <time>2019-08-19T02:02:19Z</time>
      </trkpt>
      <trkpt lat="42.238647" lon="3.021769">
        <ele>11</ele>
        <time>2019-08-19T02:02:20Z</time>
      </trkpt>
      <trkpt lat="42.238608" lon="3.021708">
        <ele>11</ele>
        <time>2019-08-19T02:02:22Z</time>
      </trkpt>
      <trkpt lat="42.238569" lon="3.021647">
        <ele>11</ele>
        <time>2019-08-19T02:02:23Z</time>
      </trkpt>
      <trkpt lat="42.23853" lon="3.021586">
        <ele>11</ele>
        <time>2019-08-19T02:02:24Z</time>
      </trkpt>
      <trkpt lat="42.238492" lon="3.021524">
        <ele>11</ele>
        <time>2019-08-19T02:02:25Z</time>
      </trkpt>
      <trkpt lat="42.238453" lon="3.021463">
        <ele>11</ele>
        <time>2019-08-19T02:02:26Z</time>
      </trkpt>
      <trkpt lat="42.238414" lon="3.021402">
        <ele>11</ele>
        <time>2019-08-19T02:02:27Z</time>
      </trkpt>
      <trkpt lat="42.238327" lon="3.021292">
        <ele>11</ele>
        <time>2019-08-19T02:02:28Z</time>
      </trkpt>
      <trkpt lat="42.238284" lon="3.021239">
        <ele>11</ele>
        <time>2019-08-19T02:02:30Z</time>
      </trkpt>
      <trkpt lat="42.23824" lon="3.021186">
        <ele>11</ele>
        <time>2019-08-19T02:02:31Z</time>
      </trkpt>
      <trkpt lat="42.238197" lon="3.021133">
        <ele>11</ele>
        <time>2019-08-19T02:02:32Z</time>
      </trkpt>
      <trkpt lat="42.238153" lon="3.021081">
        <ele>11</ele>
        <time>2019-08-19T02:02:33Z</time>
      </trkpt>
      <trkpt lat="42.23811" lon="3.021028">
        <ele>11</ele>
        <time>2019-08-19T02:02:34Z</time>
      </trkpt>
      <trkpt lat="42.238066" lon="3.020975">
        <ele>11</ele>
        <time>2019-08-19T02:02:35Z</time>
      </trkpt>
      <trkpt lat="42.238023" lon="3.020922">
        <ele>11</ele>
        <time>2019-08-19T02:02:36Z</time>
      </trkpt>
      <trkpt lat="42.237979" lon="3.020869">
        <ele>11</ele>
        <time>2019-08-19T02:02:37Z</time>
      </trkpt>
      <trkpt lat="42.237891" lon="3.020761">
        <ele>11</ele>
        <time>2019-08-19T02:02:38Z</time>
      </trkpt>
      <trkpt lat="42.237848" lon="3.020703">
        <ele>11</ele>
        <time>2019-08-19T02:02:39Z</time>
      </trkpt>
      <trkpt lat="42.237804" lon="3.020645">
        <ele>11</ele>
        <time>2019-08-19T02:02:40Z</time>
      </trkpt>
      <trkpt lat="42.237761" lon="3.020587">
        <ele>11</ele>
        <time>2019-08-19T02:02:41Z</time>
      </trkpt>
      <trkpt lat="42.237718" lon="3.02053">
        <ele>11</ele>
        <time>2019-08-19T02:02:42Z</time>
      </trkpt>
      <trkpt lat="42.237675" lon="3.020472">
        <ele>11</ele>
        <time>2019-08-19T02:02:43Z</time>
      </trkpt>
      <trkpt lat="42.237631" lon="3.020414">
        <ele>11</ele>
        <time>2019-08-19T02:02:44Z</time>
      </trkpt>
      <trkpt lat="42.237588" lon="3.020356">
        <ele>11</ele>
        <time>2019-08-19T02:02:45Z</time>
      </trkpt>
      <trkpt lat="42.237545" lon="3.020298">
        <ele>11</ele>
        <time>2019-08-19T02:02:47Z</time>
      </trkpt>
      <trkpt lat="42.237418" lon="3.020116">
        <ele>11</ele>
        <time>2019-08-19T02:02:49Z</time>
      </trkpt>
      <trkpt lat="42.237379" lon="3.020058">
        <ele>11</ele>
        <time>2019-08-19T02:02:50Z</time>
      </trkpt>
      <trkpt lat="42.237339" lon="3.019999">
        <ele>11</ele>
        <time>2019-08-19T02:02:51Z</time>
      </trkpt>
      <trkpt lat="42.2373" lon="3.01994">
        <ele>11</ele>
        <time>2019-08-19T02:02:52Z</time>
      </trkpt>
      <trkpt lat="42.23726" lon="3.019882">
        <ele>11</ele>
        <time>2019-08-19T02:02:53Z</time>
      </trkpt>
      <trkpt lat="42.237221" lon="3.019823">
        <ele>11</ele>
        <time>2019-08-19T02:02:54Z</time>
      </trkpt>
      <trkpt lat="42.237181" lon="3.019764">
        <ele>11</ele>
        <time>2019-08-19T02:02:55Z</time>
      </trkpt>
      <trkpt lat="42.237142" lon="3.019706">
        <ele>11</ele>
        <time>2019-08-19T02:02:56Z</time>
      </trkpt>
      <trkpt lat="42.237102" lon="3.019647">
        <ele>11</ele>
        <time>2019-08-19T02:02:57Z</time>
      </trkpt>
      <trkpt lat="42.236996" lon="3.019513">
        <ele>11</ele>
        <time>2019-08-19T02:02:58Z</time>
      </trkpt>
      <trkpt lat="42.236937" lon="3.019445">
        <ele>11</ele>
        <time>2019-08-19T02:02:59Z</time>
      </trkpt>
      <trkpt lat="42.236878" lon="3.019377">
        <ele>11</ele>
        <time>2019-08-19T02:03:00Z</time>
      </trkpt>
      <trkpt lat="42.236819" lon="3.019309">
        <ele>11</ele>
        <time>2019-08-19T02:03:02Z</time>
      </trkpt>
      <trkpt lat="42.236759" lon="3.019242">
        <ele>11</ele>
        <time>2019-08-19T02:03:03Z</time>
      </trkpt>
      <trkpt lat="42.2367" lon="3.019174">
        <ele>11</ele>
        <time>2019-08-19T02:03:04Z</time>
      </trkpt>
      <trkpt lat="42.236641" lon="3.019106">
        <ele>11</ele>
        <time>2019-08-19T02:03:05Z</time>
      </trkpt>
      <trkpt lat="42.236582" lon="3.019038">
        <ele>11</ele>
        <time>2019-08-19T02:03:06Z</time>
      </trkpt>
      <trkpt lat="42.236523" lon="3.01897">
        <ele>11</ele>
        <time>2019-08-19T02:03:08Z</time>
      </trkpt>
      <trkpt lat="42.236418" lon="3.018861">
        <ele>11</ele>
        <time>2019-08-19T02:03:09Z</time>
      </trkpt>
      <trkpt lat="42.23637" lon="3.018808">
        <ele>11</ele>
        <time>2019-08-19T02:03:10Z</time>
      </trkpt>
      <trkpt lat="42.236321" lon="3.018755">
        <ele>11</ele>
        <time>2019-08-19T02:03:11Z</time>
      </trkpt>
      <trkpt lat="42.236272" lon="3.018702">
        <ele>11</ele>
        <time>2019-08-19T02:03:12Z</time>
      </trkpt>
      <trkpt lat="42.236224" lon="3.018649">
        <ele>11</ele>
        <time>2019-08-19T02:03:13Z</time>
      </trkpt>
      <trkpt lat="42.236175" lon="3.018596">
        <ele>11</ele>
        <time>2019-08-19T02:03:14Z</time>
      </trkpt>
      <trkpt lat="42.236126" lon="3.018543">
        <ele>11</ele>
        <time>2019-08-19T02:03:15Z</time>
      </trkpt>
      <trkpt lat="42.236078" lon="3.01849">
        <ele>11</ele>
        <time>2019-08-19T02:03:16Z</time>
      </trkpt>
      <trkpt lat="42.236029" lon="3.018437">
        <ele>11</ele>
        <time>2019-08-19T02:03:17Z</time>
      </trkpt>
      <trkpt lat="42.235932" lon="3.018294">
        <ele>11</ele>
        <time>2019-08-19T02:03:18Z</time>
      </trkpt>
      <trkpt lat="42.235884" lon="3.018221">
        <ele>11</ele>
        <time>2019-08-19T02:03:19Z</time>
      </trkpt>
      <trkpt lat="42.235837" lon="3.018147">
        <ele>11</ele>
        <time>2019-08-19T02:03:20Z</time>
      </trkpt>
      <trkpt lat="42.23579" lon="3.018074">
        <ele>11</ele>
        <time>2019-08-19T02:03:21Z</time>
      </trkpt>
      <trkpt lat="42.235742" lon="3.018">
        <ele>11</ele>
        <time>2019-08-19T02:03:23Z</time>
      </trkpt>
      <trkpt lat="42.235695" lon="3.017927">
        <ele>11</ele>
        <time>2019-08-19T02:03:24Z</time>
      </trkpt>
      <trkpt lat="42.235648" lon="3.017853">
        <ele>11</ele>
        <time>2019-08-19T02:03:25Z</time>
      </trkpt>
      <trkpt lat="42.2356" lon="3.01778">
        <ele>11</ele>
        <time>2019-08-19T02:03:26Z</time>
      </trkpt>
      <trkpt lat="42.235553" lon="3.017706">
        <ele>10</ele>
        <time>2019-08-19T02:03:27Z</time>
      </trkpt>
      <trkpt lat="42.235458" lon="3.017559">
        <ele>10</ele>
        <time>2019-08-19T02:03:28Z</time>
      </trkpt>
      <trkpt lat="42.235411" lon="3.017486">
        <ele>10</ele>
        <time>2019-08-19T02:03:30Z</time>
      </trkpt>
      <trkpt lat="42.235363" lon="3.017412">
        <ele>10</ele>
        <time>2019-08-19T02:03:31Z</time>
      </trkpt>
      <trkpt lat="42.235316" lon="3.017339">
        <ele>10</ele>
        <time>2019-08-19T02:03:32Z</time>
      </trkpt>
      <trkpt lat="42.235268" lon="3.017265">
        <ele>10</ele>
        <time>2019-08-19T02:03:33Z</time>
      </trkpt>
      <trkpt lat="42.235221" lon="3.017192">
        <ele>10</ele>
        <time>2019-08-19T02:03:34Z</time>
      </trkpt>
      <trkpt lat="42.235173" lon="3.017118">
        <ele>10</ele>
        <time>2019-08-19T02:03:35Z</time>
      </trkpt>
      <trkpt lat="42.235126" lon="3.017045">
        <ele>10</ele>
        <time>2019-08-19T02:03:36Z</time>
      </trkpt>
      <trkpt lat="42.235078" lon="3.016971">
        <ele>9</ele>
        <time>2019-08-19T02:03:37Z</time>
      </trkpt>
      <trkpt lat="42.234981" lon="3.016822">
        <ele>9</ele>
        <time>2019-08-19T02:03:38Z</time>
      </trkpt>
      <trkpt lat="42.234933" lon="3.016748">
        <ele>9</ele>
        <time>2019-08-19T02:03:39Z</time>
      </trkpt>
      <trkpt lat="42.234885" lon="3.016673">
        <ele>9</ele>
        <time>2019-08-19T02:03:40Z</time>
      </trkpt>
      <trkpt lat="42.234837" lon="3.016599">
        <ele>9</ele>
        <time>2019-08-19T02:03:41Z</time>
      </trkpt>
      <trkpt lat="42.234788" lon="3.016525">
        <ele>9</ele>
        <time>2019-08-19T02:03:42Z</time>
      </trkpt>
      <trkpt lat="42.23474" lon="3.016451">
        <ele>9</ele>
        <time>2019-08-19T02:03:43Z</time>
      </trkpt>
      <trkpt lat="42.234692" lon="3.016376">
        <ele>9</ele>
        <time>2019-08-19T02:03:44Z</time>
      </trkpt>
      <trkpt lat="42.234644" lon="3.016302">
        <ele>9</ele>
        <time>2019-08-19T02:03:46Z</time>
      </trkpt>
      <trkpt lat="42.234596" lon="3.016228">
        <ele>10</ele>
        <time>2019-08-19T02:03:47Z</time>
      </trkpt>
      <trkpt lat="42.234498" lon="3.01609">
        <ele>10</ele>
        <time>2019-08-19T02:03:48Z</time>
      </trkpt>
      <trkpt lat="42.234449" lon="3.016022">
        <ele>10</ele>
        <time>2019-08-19T02:03:49Z</time>
      </trkpt>
      <trkpt lat="42.234401" lon="3.015955">
        <ele>10</ele>
        <time>2019-08-19T02:03:51Z</time>
      </trkpt>
      <trkpt lat="42.234352" lon="3.015888">
        <ele>10</ele>
        <time>2019-08-19T02:03:52Z</time>
      </trkpt>
      <trkpt lat="42.234303" lon="3.01582">
        <ele>10</ele>
        <time>2019-08-19T02:03:53Z</time>
      </trkpt>
      <trkpt lat="42.234254" lon="3.015753">
        <ele>10</ele>
        <time>2019-08-19T02:03:54Z</time>
      </trkpt>
      <trkpt lat="42.234206" lon="3.015686">
        <ele>10</ele>
        <time>2019-08-19T02:03:55Z</time>
      </trkpt>
      <trkpt lat="42.234157" lon="3.015618">
        <ele>10</ele>
        <time>2019-08-19T02:03:56Z</time>
      </trkpt>
      <trkpt lat="42.234108" lon="3.015551">
        <ele>10</ele>
        <time>2019-08-19T02:03:57Z</time>
      </trkpt>
      <trkpt lat="42.23401" lon="3.015423">
        <ele>10</ele>
        <time>2019-08-19T02:03:58Z</time>
      </trkpt>
      <trkpt lat="42.23396" lon="3.015358">
        <ele>10</ele>
        <time>2019-08-19T02:03:59Z</time>
      </trkpt>
      <trkpt lat="42.233911" lon="3.015294">
        <ele>10</ele>
        <time>2019-08-19T02:04:00Z</time>
      </trkpt>
      <trkpt lat="42.233861" lon="3.015229">
        <ele>10</ele>
        <time>2019-08-19T02:04:01Z</time>
      </trkpt>
      <trkpt lat="42.233812" lon="3.015165">
        <ele>10</ele>
        <time>2019-08-19T02:04:02Z</time>
      </trkpt>
      <trkpt lat="42.233762" lon="3.0151">
        <ele>10</ele>
        <time>2019-08-19T02:04:03Z</time>
      </trkpt>
      <trkpt lat="42.233713" lon="3.015036">
        <ele>10</ele>
        <time>2019-08-19T02:04:05Z</time>
      </trkpt>
      <trkpt lat="42.233663" lon="3.014971">
        <ele>10</ele>
        <time>2019-08-19T02:04:06Z</time>
      </trkpt>
      <trkpt lat="42.233614" lon="3.014907">
        <ele>11</ele>
        <time>2019-08-19T02:04:07Z</time>
      </trkpt>
      <trkpt lat="42.233522" lon="3.014779">
        <ele>11</ele>
        <time>2019-08-19T02:04:08Z</time>
      </trkpt>
      <trkpt lat="42.23348" lon="3.014719">
        <ele>11</ele>
        <time>2019-08-19T02:04:09Z</time>
      </trkpt>
      <trkpt lat="42.233437" lon="3.014659">
        <ele>11</ele>
        <time>2019-08-19T02:04:10Z</time>
      </trkpt>
      <trkpt lat="42.233395" lon="3.014599">
        <ele>11</ele>
        <time>2019-08-19T02:04:11Z</time>
      </trkpt>
      <trkpt lat="42.233352" lon="3.014539">
        <ele>11</ele>
        <time>2019-08-19T02:04:12Z</time>
      </trkpt>
      <trkpt lat="42.233309" lon="3.01448">
        <ele>11</ele>
        <time>2019-08-19T02:04:13Z</time>
      </trkpt>
      <trkpt lat="42.233267" lon="3.01442">
        <ele>11</ele>
        <time>2019-08-19T02:04:14Z</time>
      </trkpt>
      <trkpt lat="42.233224" lon="3.01436">
        <ele>11</ele>
        <time>2019-08-19T02:04:15Z</time>
      </trkpt>
      <trkpt lat="42.233182" lon="3.0143">
        <ele>11</ele>
        <time>2019-08-19T02:04:16Z</time>
      </trkpt>
      <trkpt lat="42.233139" lon="3.01424">
        <ele>11</ele>
        <time>2019-08-19T02:04:17Z</time>
      </trkpt>
      <trkpt lat="42.233045" lon="3.014096">
        <ele>11</ele>
        <time>2019-08-19T02:04:18Z</time>
      </trkpt>
      <trkpt lat="42.232997" lon="3.014019">
        <ele>11</ele>
        <time>2019-08-19T02:04:19Z</time>
      </trkpt>
      <trkpt lat="42.232949" lon="3.013942">
        <ele>11</ele>
        <time>2019-08-19T02:04:20Z</time>
      </trkpt>
      <trkpt lat="42.232901" lon="3.013864">
        <ele>11</ele>
        <time>2019-08-19T02:04:21Z</time>
      </trkpt>
      <trkpt lat="42.232852" lon="3.013787">
        <ele>11</ele>
        <time>2019-08-19T02:04:22Z</time>
      </trkpt>
      <trkpt lat="42.232804" lon="3.01371">
        <ele>11</ele>
        <time>2019-08-19T02:04:24Z</time>
      </trkpt>
      <trkpt lat="42.232756" lon="3.013633">
        <ele>11</ele>
        <time>2019-08-19T02:04:25Z</time>
      </trkpt>
      <trkpt lat="42.232708" lon="3.013556">
        <ele>11</ele>
        <time>2019-08-19T02:04:27Z</time>
      </trkpt>
      <trkpt lat="42.232639" lon="3.013415">
        <ele>11</ele>
        <time>2019-08-19T02:04:28Z</time>
      </trkpt>
      <trkpt lat="42.232609" lon="3.013345">
        <ele>11</ele>
        <time>2019-08-19T02:04:29Z</time>
      </trkpt>
      <trkpt lat="42.232578" lon="3.013276">
        <ele>11</ele>
        <time>2019-08-19T02:04:30Z</time>
      </trkpt>
      <trkpt lat="42.232548" lon="3.013206">
        <ele>11</ele>
        <time>2019-08-19T02:04:31Z</time>
      </trkpt>
      <trkpt lat="42.232518" lon="3.013136">
        <ele>11</ele>
        <time>2019-08-19T02:04:32Z</time>
      </trkpt>
      <trkpt lat="42.232488" lon="3.013066">
        <ele>11</ele>
        <time>2019-08-19T02:04:33Z</time>
      </trkpt>
      <trkpt lat="42.232457" lon="3.012997">
        <ele>11</ele>
        <time>2019-08-19T02:04:35Z</time>
      </trkpt>
      <trkpt lat="42.232427" lon="3.012927">
        <ele>11</ele>
        <time>2019-08-19T02:04:36Z</time>
      </trkpt>
      <trkpt lat="42.232397" lon="3.012857">
        <ele>11</ele>
        <time>2019-08-19T02:04:37Z</time>
      </trkpt>
      <trkpt lat="42.232343" lon="3.01272">
        <ele>11</ele>
        <time>2019-08-19T02:04:38Z</time>
      </trkpt>
      <trkpt lat="42.232316" lon="3.012651">
        <ele>11</ele>
        <time>2019-08-19T02:04:39Z</time>
      </trkpt>
      <trkpt lat="42.232288" lon="3.012582">
        <ele>11</ele>
        <time>2019-08-19T02:04:40Z</time>
      </trkpt>
      <trkpt lat="42.232261" lon="3.012513">
        <ele>11</ele>
        <time>2019-08-19T02:04:41Z</time>
      </trkpt>
      <trkpt lat="42.232233" lon="3.012445">
        <ele>11</ele>
        <time>2019-08-19T02:04:42Z</time>
      </trkpt>
      <trkpt lat="42.232206" lon="3.012376">
        <ele>11</ele>
        <time>2019-08-19T02:04:44Z</time>
      </trkpt>
      <trkpt lat="42.232178" lon="3.012307">
        <ele>11</ele>
        <time>2019-08-19T02:04:45Z</time>
      </trkpt>
      <trkpt lat="42.232151" lon="3.012238">
        <ele>11</ele>
        <time>2019-08-19T02:04:46Z</time>
      </trkpt>
      <trkpt lat="42.232123" lon="3.012169">
        <ele>12</ele>
        <time>2019-08-19T02:04:47Z</time>
      </trkpt>
      <trkpt lat="42.23207" lon="3.012046">
        <ele>12</ele>
        <time>2019-08-19T02:04:48Z</time>
      </trkpt>
      <trkpt lat="42.232045" lon="3.01199">
        <ele>12</ele>
        <time>2019-08-19T02:04:49Z</time>
      </trkpt>
      <trkpt lat="42.232021" lon="3.011933">
        <ele>12</ele>
        <time>2019-08-19T02:04:50Z</time>
      </trkpt>
      <trkpt lat="42.231996" lon="3.011876">
        <ele>12</ele>
        <time>2019-08-19T02:04:51Z</time>
      </trkpt>
      <trkpt lat="42.231971" lon="3.011819">
        <ele>12</ele>
        <time>2019-08-19T02:04:52Z</time>
      </trkpt>
      <trkpt lat="42.231946" lon="3.011763">
        <ele>12</ele>
        <time>2019-08-19T02:04:53Z</time>
      </trkpt>
      <trkpt lat="42.231921" lon="3.011706">
        <ele>12</ele>
        <time>2019-08-19T02:04:54Z</time>
      </trkpt>
      <trkpt lat="42.231897" lon="3.011649">
        <ele>12</ele>
        <time>2019-08-19T02:04:55Z</time>
      </trkpt>
      <trkpt lat="42.231872" lon="3.011593">
        <ele>12</ele>
        <time>2019-08-19T02:04:56Z</time>
      </trkpt>
      <trkpt lat="42.231847" lon="3.011536">
        <ele>13</ele>
        <time>2019-08-19T02:04:57Z</time>
      </trkpt>
      <trkpt lat="42.231793" lon="3.011419">
        <ele>13</ele>
        <time>2019-08-19T02:04:58Z</time>
      </trkpt>
      <trkpt lat="42.231766" lon="3.011362">
        <ele>13</ele>
        <time>2019-08-19T02:04:59Z</time>
      </trkpt>
      <trkpt lat="42.231739" lon="3.011305">
        <ele>13</ele>
        <time>2019-08-19T02:05:00Z</time>
      </trkpt>
      <trkpt lat="42.231712" lon="3.011248">
        <ele>13</ele>
        <time>2019-08-19T02:05:02Z</time>
      </trkpt>
      <trkpt lat="42.231686" lon="3.011191">
        <ele>13</ele>
        <time>2019-08-19T02:05:03Z</time>
      </trkpt>
      <trkpt lat="42.231659" lon="3.011134">
        <ele>13</ele>
        <time>2019-08-19T02:05:04Z</time>
      </trkpt>
      <trkpt lat="42.231632" lon="3.011077">
        <ele>13</ele>
        <time>2019-08-19T02:05:05Z</time>
      </trkpt>
      <trkpt lat="42.231605" lon="3.01102">
        <ele>13</ele>
        <time>2019-08-19T02:05:06Z</time>
      </trkpt>
      <trkpt lat="42.231578" lon="3.010963">
        <ele>14</ele>
        <time>2019-08-19T02:05:07Z</time>
      </trkpt>
      <trkpt lat="42.231529" lon="3.010863">
        <ele>14</ele>
        <time>2019-08-19T02:05:08Z</time>
      </trkpt>
      <trkpt lat="42.231506" lon="3.010815">
        <ele>14</ele>
        <time>2019-08-19T02:05:09Z</time>
      </trkpt>
      <trkpt lat="42.231483" lon="3.010767">
        <ele>14</ele>
        <time>2019-08-19T02:05:10Z</time>
      </trkpt>
      <trkpt lat="42.23146" lon="3.010719">
        <ele>14</ele>
        <time>2019-08-19T02:05:12Z</time>
      </trkpt>
      <trkpt lat="42.231436" lon="3.010672">
        <ele>14</ele>
        <time>2019-08-19T02:05:13Z</time>
      </trkpt>
      <trkpt lat="42.231413" lon="3.010624">
        <ele>14</ele>
        <time>2019-08-19T02:05:14Z</time>
      </trkpt>
      <trkpt lat="42.23139" lon="3.010576">
        <ele>14</ele>
        <time>2019-08-19T02:05:15Z</time>
      </trkpt>
      <trkpt lat="42.231367" lon="3.010528">
        <ele>14</ele>
        <time>2019-08-19T02:05:16Z</time>
      </trkpt>
      <trkpt lat="42.231344" lon="3.01048">
        <ele>15</ele>
        <time>2019-08-19T02:05:17Z</time>
      </trkpt>
      <trkpt lat="42.231298" lon="3.01039">
        <ele>15</ele>
        <time>2019-08-19T02:05:18Z</time>
      </trkpt>
      <trkpt lat="42.231274" lon="3.010347">
        <ele>15</ele>
        <time>2019-08-19T02:05:19Z</time>
      </trkpt>
      <trkpt lat="42.231251" lon="3.010303">
        <ele>15</ele>
        <time>2019-08-19T02:05:20Z</time>
      </trkpt>
      <trkpt lat="42.231227" lon="3.010259">
        <ele>15</ele>
        <time>2019-08-19T02:05:21Z</time>
      </trkpt>
      <trkpt lat="42.231204" lon="3.010215">
        <ele>15</ele>
        <time>2019-08-19T02:05:22Z</time>
      </trkpt>
      <trkpt lat="42.23118" lon="3.010172">
        <ele>15</ele>
        <time>2019-08-19T02:05:23Z</time>
      </trkpt>
      <trkpt lat="42.231157" lon="3.010128">
        <ele>15</ele>
        <time>2019-08-19T02:05:24Z</time>
      </trkpt>
      <trkpt lat="42.231133" lon="3.010084">
        <ele>15</ele>
        <time>2019-08-19T02:05:25Z</time>
      </trkpt>
      <trkpt lat="42.23111" lon="3.010041">
        <ele>15</ele>
        <time>2019-08-19T02:05:26Z</time>
      </trkpt>
      <trkpt lat="42.231086" lon="3.009997">
        <ele>17</ele>
        <time>2019-08-19T02:05:27Z</time>
      </trkpt>
      <trkpt lat="42.231023" lon="3.009887">
        <ele>17</ele>
        <time>2019-08-19T02:05:28Z</time>
      </trkpt>
      <trkpt lat="42.23099" lon="3.009827">
        <ele>17</ele>
        <time>2019-08-19T02:05:29Z</time>
      </trkpt>
      <trkpt lat="42.230957" lon="3.009767">
        <ele>17</ele>
        <time>2019-08-19T02:05:30Z</time>
      </trkpt>
      <trkpt lat="42.230924" lon="3.009707">
        <ele>17</ele>
        <time>2019-08-19T02:05:31Z</time>
      </trkpt>
      <trkpt lat="42.230891" lon="3.009648">
        <ele>17</ele>
        <time>2019-08-19T02:05:32Z</time>
      </trkpt>
      <trkpt lat="42.230858" lon="3.009588">
        <ele>17</ele>
        <time>2019-08-19T02:05:33Z</time>
      </trkpt>
      <trkpt lat="42.230825" lon="3.009528">
        <ele>17</ele>
        <time>2019-08-19T02:05:35Z</time>
      </trkpt>
      <trkpt lat="42.230792" lon="3.009468">
        <ele>17</ele>
        <time>2019-08-19T02:05:36Z</time>
      </trkpt>
      <trkpt lat="42.230759" lon="3.009408">
        <ele>17</ele>
        <time>2019-08-19T02:05:37Z</time>
      </trkpt>
      <trkpt lat="42.230691" lon="3.009268">
        <ele>17</ele>
        <time>2019-08-19T02:05:38Z</time>
      </trkpt>
      <trkpt lat="42.230659" lon="3.009196">
        <ele>17</ele>
        <time>2019-08-19T02:05:40Z</time>
      </trkpt>
      <trkpt lat="42.230627" lon="3.009123">
        <ele>17</ele>
        <time>2019-08-19T02:05:41Z</time>
      </trkpt>
      <trkpt lat="42.230595" lon="3.009051">
        <ele>17</ele>
        <time>2019-08-19T02:05:42Z</time>
      </trkpt>
      <trkpt lat="42.230562" lon="3.008978">
        <ele>17</ele>
        <time>2019-08-19T02:05:43Z</time>
      </trkpt>
      <trkpt lat="42.23053" lon="3.008906">
        <ele>17</ele>
        <time>2019-08-19T02:05:44Z</time>
      </trkpt>
      <trkpt lat="42.230498" lon="3.008833">
        <ele>17</ele>
        <time>2019-08-19T02:05:45Z</time>
      </trkpt>
      <trkpt lat="42.230466" lon="3.008761">
        <ele>17</ele>
        <time>2019-08-19T02:05:46Z</time>
      </trkpt>
      <trkpt lat="42.230434" lon="3.008688">
        <ele>17</ele>
        <time>2019-08-19T02:05:47Z</time>
      </trkpt>
      <trkpt lat="42.230391" lon="3.008542">
        <ele>17</ele>
        <time>2019-08-19T02:05:48Z</time>
      </trkpt>
      <trkpt lat="42.230375" lon="3.008472">
        <ele>17</ele>
        <time>2019-08-19T02:05:49Z</time>
      </trkpt>
      <trkpt lat="42.230358" lon="3.008401">
        <ele>17</ele>
        <time>2019-08-19T02:05:50Z</time>
      </trkpt>
      <trkpt lat="42.230342" lon="3.008331">
        <ele>17</ele>
        <time>2019-08-19T02:05:51Z</time>
      </trkpt>
      <trkpt lat="42.230325" lon="3.00826">
        <ele>17</ele>
        <time>2019-08-19T02:05:52Z</time>
      </trkpt>
      <trkpt lat="42.230308" lon="3.008189">
        <ele>17</ele>
        <time>2019-08-19T02:05:53Z</time>
      </trkpt>
      <trkpt lat="42.230292" lon="3.008119">
        <ele>17</ele>
        <time>2019-08-19T02:05:54Z</time>
      </trkpt>
      <trkpt lat="42.230275" lon="3.008048">
        <ele>17</ele>
        <time>2019-08-19T02:05:55Z</time>
      </trkpt>
      <trkpt lat="42.230259" lon="3.007978">
        <ele>17</ele>
        <time>2019-08-19T02:05:56Z</time>
      </trkpt>
      <trkpt lat="42.230242" lon="3.007907">
        <ele>16</ele>
        <time>2019-08-19T02:05:57Z</time>
      </trkpt>
      <trkpt lat="42.230212" lon="3.007664">
        <ele>16</ele>
        <time>2019-08-19T02:05:59Z</time>
      </trkpt>
      <trkpt lat="42.230207" lon="3.007584">
        <ele>16</ele>
        <time>2019-08-19T02:06:00Z</time>
      </trkpt>
      <trkpt lat="42.230201" lon="3.007503">
        <ele>16</ele>
        <time>2019-08-19T02:06:01Z</time>
      </trkpt>
      <trkpt lat="42.230195" lon="3.007423">
        <ele>16</ele>
        <time>2019-08-19T02:06:02Z</time>
      </trkpt>
      <trkpt lat="42.230189" lon="3.007342">
        <ele>16</ele>
        <time>2019-08-19T02:06:03Z</time>
      </trkpt>
      <trkpt lat="42.230184" lon="3.007262">
        <ele>16</ele>
        <time>2019-08-19T02:06:04Z</time>
      </trkpt>
      <trkpt lat="42.230178" lon="3.007181">
        <ele>16</ele>
        <time>2019-08-19T02:06:05Z</time>
      </trkpt>
      <trkpt lat="42.230172" lon="3.007101">
        <ele>17</ele>
        <time>2019-08-19T02:06:07Z</time>
      </trkpt>
      <trkpt lat="42.230171" lon="3.006934">
        <ele>17</ele>
        <time>2019-08-19T02:06:08Z</time>
      </trkpt>
      <trkpt lat="42.230173" lon="3.006848">
        <ele>17</ele>
        <time>2019-08-19T02:06:09Z</time>
      </trkpt>
      <trkpt lat="42.230176" lon="3.006762">
        <ele>17</ele>
        <time>2019-08-19T02:06:10Z</time>
      </trkpt>
      <trkpt lat="42.230178" lon="3.006676">
        <ele>17</ele>
        <time>2019-08-19T02:06:11Z</time>
      </trkpt>
      <trkpt lat="42.23018" lon="3.00659">
        <ele>17</ele>
        <time>2019-08-19T02:06:12Z</time>
      </trkpt>
      <trkpt lat="42.230182" lon="3.006503">
        <ele>17</ele>
        <time>2019-08-19T02:06:13Z</time>
      </trkpt>
      <trkpt lat="42.230184" lon="3.006417">
        <ele>17</ele>
        <time>2019-08-19T02:06:14Z</time>
      </trkpt>
      <trkpt lat="42.230187" lon="3.006331">
        <ele>17</ele>
        <time>2019-08-19T02:06:15Z</time>
      </trkpt>
      <trkpt lat="42.230189" lon="3.006245">
        <ele>17</ele>
        <time>2019-08-19T02:06:16Z</time>
      </trkpt>
      <trkpt lat="42.230191" lon="3.006159">
        <ele>17</ele>
        <time>2019-08-19T02:06:18Z</time>
      </trkpt>
      <trkpt lat="42.230201" lon="3.005994">
        <ele>17</ele>
        <time>2019-08-19T02:06:19Z</time>
      </trkpt>
      <trkpt lat="42.230207" lon="3.005917">
        <ele>17</ele>
        <time>2019-08-19T02:06:20Z</time>
      </trkpt>
      <trkpt lat="42.230213" lon="3.00584">
        <ele>17</ele>
        <time>2019-08-19T02:06:21Z</time>
      </trkpt>
      <trkpt lat="42.230219" lon="3.005763">
        <ele>17</ele>
        <time>2019-08-19T02:06:22Z</time>
      </trkpt>
      <trkpt lat="42.230226" lon="3.005686">
        <ele>17</ele>
        <time>2019-08-19T02:06:23Z</time>
      </trkpt>
      <trkpt lat="42.230232" lon="3.005609">
        <ele>17</ele>
        <time>2019-08-19T02:06:24Z</time>
      </trkpt>
      <trkpt lat="42.230238" lon="3.005532">
        <ele>17</ele>
        <time>2019-08-19T02:06:25Z</time>
      </trkpt>
      <trkpt lat="42.230244" lon="3.005455">
        <ele>17</ele>
        <time>2019-08-19T02:06:26Z</time>
      </trkpt>
      <trkpt lat="42.23025" lon="3.005378">
        <ele>16</ele>
        <time>2019-08-19T02:06:27Z</time>
      </trkpt>
      <trkpt lat="42.230266" lon="3.005197">
        <ele>16</ele>
        <time>2019-08-19T02:06:28Z</time>
      </trkpt>
      <trkpt lat="42.230274" lon="3.005103">
        <ele>16</ele>
        <time>2019-08-19T02:06:29Z</time>
      </trkpt>
      <trkpt lat="42.230283" lon="3.005008">
        <ele>16</ele>
        <time>2019-08-19T02:06:31Z</time>
      </trkpt>
      <trkpt lat="42.230291" lon="3.004914">
        <ele>16</ele>
        <time>2019-08-19T02:06:32Z</time>
      </trkpt>
      <trkpt lat="42.2303" lon="3.004819">
        <ele>16</ele>
        <time>2019-08-19T02:06:33Z</time>
      </trkpt>
      <trkpt lat="42.230308" lon="3.004724">
        <ele>16</ele>
        <time>2019-08-19T02:06:34Z</time>
      </trkpt>
      <trkpt lat="42.230317" lon="3.00463">
        <ele>16</ele>
        <time>2019-08-19T02:06:35Z</time>
      </trkpt>
      <trkpt lat="42.230325" lon="3.004535">
        <ele>16</ele>
        <time>2019-08-19T02:06:37Z</time>
      </trkpt>
      <trkpt lat="42.23034" lon="3.004375">
        <ele>16</ele>
        <time>2019-08-19T02:06:38Z</time>
      </trkpt>
      <trkpt lat="42.230345" lon="3.004298">
        <ele>16</ele>
        <time>2019-08-19T02:06:39Z</time>
      </trkpt>
      <trkpt lat="42.230351" lon="3.004221">
        <ele>16</ele>
        <time>2019-08-19T02:06:40Z</time>
      </trkpt>
      <trkpt lat="42.230356" lon="3.004144">
        <ele>16</ele>
        <time>2019-08-19T02:06:41Z</time>
      </trkpt>
      <trkpt lat="42.230362" lon="3.004067">
        <ele>16</ele>
        <time>2019-08-19T02:06:42Z</time>
      </trkpt>
      <trkpt lat="42.230367" lon="3.003989">
        <ele>16</ele>
        <time>2019-08-19T02:06:43Z</time>
      </trkpt>
      <trkpt lat="42.230373" lon="3.003912">
        <ele>16</ele>
        <time>2019-08-19T02:06:44Z</time>
      </trkpt>
      <trkpt lat="42.230378" lon="3.003835">
        <ele>16</ele>
        <time>2019-08-19T02:06:45Z</time>
      </trkpt>
      <trkpt lat="42.230384" lon="3.003758">
        <ele>16</ele>
        <time>2019-08-19T02:06:46Z</time>
      </trkpt>
      <trkpt lat="42.230389" lon="3.003681">
        <ele>16</ele>
        <time>2019-08-19T02:06:47Z</time>
      </trkpt>
      <trkpt lat="42.230387" lon="3.003508">
        <ele>16</ele>
        <time>2019-08-19T02:06:48Z</time>
      </trkpt>
      <trkpt lat="42.230382" lon="3.003422">
        <ele>16</ele>
        <time>2019-08-19T02:06:49Z</time>
      </trkpt>
      <trkpt lat="42.230378" lon="3.003337">
        <ele>16</ele>
        <time>2019-08-19T02:06:50Z</time>
      </trkpt>
      <trkpt lat="42.230373" lon="3.003251">
        <ele>16</ele>
        <time>2019-08-19T02:06:51Z</time>
      </trkpt>
      <trkpt lat="42.230368" lon="3.003166">
        <ele>16</ele>
        <time>2019-08-19T02:06:52Z</time>
      </trkpt>
      <trkpt lat="42.230363" lon="3.00308">
        <ele>16</ele>
        <time>2019-08-19T02:06:53Z</time>
      </trkpt>
      <trkpt lat="42.230359" lon="3.002995">
        <ele>16</ele>
        <time>2019-08-19T02:06:55Z</time>
      </trkpt>
      <trkpt lat="42.230354" lon="3.002909">
        <ele>16</ele>
        <time>2019-08-19T02:06:56Z</time>
      </trkpt>
      <trkpt lat="42.230349" lon="3.002824">
        <ele>16</ele>
        <time>2019-08-19T02:06:57Z</time>
      </trkpt>
      <trkpt lat="42.230324" lon="3.00266">
        <ele>16</ele>
        <time>2019-08-19T02:06:58Z</time>
      </trkpt>
      <trkpt lat="42.230309" lon="3.00258">
        <ele>16</ele>
        <time>2019-08-19T02:06:59Z</time>
      </trkpt>
      <trkpt lat="42.230295" lon="3.0025">
        <ele>16</ele>
        <time>2019-08-19T02:07:00Z</time>
      </trkpt>
      <trkpt lat="42.23028" lon="3.00242">
        <ele>16</ele>
        <time>2019-08-19T02:07:01Z</time>
      </trkpt>
      <trkpt lat="42.230266" lon="3.002339">
        <ele>16</ele>
        <time>2019-08-19T02:07:03Z</time>
      </trkpt>
      <trkpt lat="42.230251" lon="3.002259">
        <ele>16</ele>
        <time>2019-08-19T02:07:04Z</time>
      </trkpt>
      <trkpt lat="42.230237" lon="3.002179">
        <ele>16</ele>
        <time>2019-08-19T02:07:05Z</time>
      </trkpt>
      <trkpt lat="42.230222" lon="3.002099">
        <ele>16</ele>
        <time>2019-08-19T02:07:06Z</time>
      </trkpt>
      <trkpt lat="42.230208" lon="3.002019">
        <ele>18</ele>
        <time>2019-08-19T02:07:07Z</time>
      </trkpt>
      <trkpt lat="42.230172" lon="3.001858">
        <ele>18</ele>
        <time>2019-08-19T02:07:08Z</time>
      </trkpt>
      <trkpt lat="42.230152" lon="3.001773">
        <ele>18</ele>
        <time>2019-08-19T02:07:09Z</time>
      </trkpt>
      <trkpt lat="42.230133" lon="3.001689">
        <ele>18</ele>
        <time>2019-08-19T02:07:11Z</time>
      </trkpt>
      <trkpt lat="42.230114" lon="3.001605">
        <ele>18</ele>
        <time>2019-08-19T02:07:12Z</time>
      </trkpt>
      <trkpt lat="42.230094" lon="3.001521">
        <ele>18</ele>
        <time>2019-08-19T02:07:13Z</time>
      </trkpt>
      <trkpt lat="42.230075" lon="3.001436">
        <ele>18</ele>
        <time>2019-08-19T02:07:15Z</time>
      </trkpt>
      <trkpt lat="42.230055" lon="3.001352">
        <ele>18</ele>
        <time>2019-08-19T02:07:16Z</time>
      </trkpt>
      <trkpt lat="42.230036" lon="3.001268">
        <ele>18</ele>
        <time>2019-08-19T02:07:17Z</time>
      </trkpt>
      <trkpt lat="42.229974" lon="3.001051">
        <ele>18</ele>
        <time>2019-08-19T02:07:19Z</time>
      </trkpt>
      <trkpt lat="42.229954" lon="3.000983">
        <ele>18</ele>
        <time>2019-08-19T02:07:20Z</time>
      </trkpt>
      <trkpt lat="42.229934" lon="3.000915">
        <ele>18</ele>
        <time>2019-08-19T02:07:21Z</time>
      </trkpt>
      <trkpt lat="42.229914" lon="3.000847">
        <ele>18</ele>
        <time>2019-08-19T02:07:22Z</time>
      </trkpt>
      <trkpt lat="42.229893" lon="3.000779">
        <ele>18</ele>
        <time>2019-08-19T02:07:23Z</time>
      </trkpt>
      <trkpt lat="42.229873" lon="3.000711">
        <ele>18</ele>
        <time>2019-08-19T02:07:24Z</time>
      </trkpt>
      <trkpt lat="42.229853" lon="3.000643">
        <ele>18</ele>
        <time>2019-08-19T02:07:25Z</time>
      </trkpt>
      <trkpt lat="42.229833" lon="3.000575">
        <ele>18</ele>
        <time>2019-08-19T02:07:26Z</time>
      </trkpt>
      <trkpt lat="42.229813" lon="3.000507">
        <ele>18</ele>
        <time>2019-08-19T02:07:27Z</time>
      </trkpt>
      <trkpt lat="42.229764" lon="3.000357">
        <ele>18</ele>
        <time>2019-08-19T02:07:28Z</time>
      </trkpt>
      <trkpt lat="42.229738" lon="3.000282">
        <ele>18</ele>
        <time>2019-08-19T02:07:29Z</time>
      </trkpt>
      <trkpt lat="42.229713" lon="3.000207">
        <ele>18</ele>
        <time>2019-08-19T02:07:30Z</time>
      </trkpt>
      <trkpt lat="42.229687" lon="3.000132">
        <ele>18</ele>
        <time>2019-08-19T02:07:31Z</time>
      </trkpt>
      <trkpt lat="42.229661" lon="3.000058">
        <ele>18</ele>
        <time>2019-08-19T02:07:32Z</time>
      </trkpt>
      <trkpt lat="42.229635" lon="2.999983">
        <ele>18</ele>
        <time>2019-08-19T02:07:33Z</time>
      </trkpt>
      <trkpt lat="42.22961" lon="2.999908">
        <ele>18</ele>
        <time>2019-08-19T02:07:34Z</time>
      </trkpt>
      <trkpt lat="42.229584" lon="2.999833">
        <ele>18</ele>
        <time>2019-08-19T02:07:36Z</time>
      </trkpt>
      <trkpt lat="42.229558" lon="2.999758">
        <ele>19</ele>
        <time>2019-08-19T02:07:37Z</time>
      </trkpt>
      <trkpt lat="42.229516" lon="2.999608">
        <ele>19</ele>
        <time>2019-08-19T02:07:38Z</time>
      </trkpt>
      <trkpt lat="42.229501" lon="2.999532">
        <ele>19</ele>
        <time>2019-08-19T02:07:39Z</time>
      </trkpt>
      <trkpt lat="42.229485" lon="2.999457">
        <ele>19</ele>
        <time>2019-08-19T02:07:40Z</time>
      </trkpt>
      <trkpt lat="42.229469" lon="2.999381">
        <ele>19</ele>
        <time>2019-08-19T02:07:41Z</time>
      </trkpt>
      <trkpt lat="42.229454" lon="2.999305">
        <ele>19</ele>
        <time>2019-08-19T02:07:42Z</time>
      </trkpt>
      <trkpt lat="42.229438" lon="2.999229">
        <ele>19</ele>
        <time>2019-08-19T02:07:44Z</time>
      </trkpt>
      <trkpt lat="42.229422" lon="2.999154">
        <ele>19</ele>
        <time>2019-08-19T02:07:45Z</time>
      </trkpt>
      <trkpt lat="42.229407" lon="2.999078">
        <ele>19</ele>
        <time>2019-08-19T02:07:46Z</time>
      </trkpt>
      <trkpt lat="42.229391" lon="2.999002">
        <ele>19</ele>
        <time>2019-08-19T02:07:47Z</time>
      </trkpt>
      <trkpt lat="42.229364" lon="2.998873">
        <ele>19</ele>
        <time>2019-08-19T02:07:48Z</time>
      </trkpt>
      <trkpt lat="42.229338" lon="2.998819">
        <ele>19</ele>
        <time>2019-08-19T02:07:49Z</time>
      </trkpt>
      <trkpt lat="42.229312" lon="2.998766">
        <ele>19</ele>
        <time>2019-08-19T02:07:50Z</time>
      </trkpt>
      <trkpt lat="42.229286" lon="2.998712">
        <ele>19</ele>
        <time>2019-08-19T02:07:51Z</time>
      </trkpt>
      <trkpt lat="42.229259" lon="2.998658">
        <ele>19</ele>
        <time>2019-08-19T02:07:53Z</time>
      </trkpt>
      <trkpt lat="42.229233" lon="2.998604">
        <ele>19</ele>
        <time>2019-08-19T02:07:54Z</time>
      </trkpt>
      <trkpt lat="42.229207" lon="2.998551">
        <ele>19</ele>
        <time>2019-08-19T02:07:55Z</time>
      </trkpt>
      <trkpt lat="42.229181" lon="2.998497">
        <ele>19</ele>
        <time>2019-08-19T02:07:56Z</time>
      </trkpt>
      <trkpt lat="42.229155" lon="2.998443">
        <ele>20</ele>
        <time>2019-08-19T02:07:57Z</time>
      </trkpt>
      <trkpt lat="42.229122" lon="2.998342">
        <ele>20</ele>
        <time>2019-08-19T02:07:58Z</time>
      </trkpt>
      <trkpt lat="42.229104" lon="2.998299">
        <ele>20</ele>
        <time>2019-08-19T02:07:59Z</time>
      </trkpt>
      <trkpt lat="42.229087" lon="2.998255">
        <ele>20</ele>
        <time>2019-08-19T02:08:00Z</time>
      </trkpt>
      <trkpt lat="42.229069" lon="2.998212">
        <ele>20</ele>
        <time>2019-08-19T02:08:01Z</time>
      </trkpt>
      <trkpt lat="42.229052" lon="2.998168">
        <ele>20</ele>
        <time>2019-08-19T02:08:02Z</time>
      </trkpt>
      <trkpt lat="42.229035" lon="2.998125">
        <ele>20</ele>
        <time>2019-08-19T02:08:03Z</time>
      </trkpt>
      <trkpt lat="42.229017" lon="2.998081">
        <ele>20</ele>
        <time>2019-08-19T02:08:04Z</time>
      </trkpt>
      <trkpt lat="42.229" lon="2.998038">
        <ele>20</ele>
        <time>2019-08-19T02:08:05Z</time>
      </trkpt>
      <trkpt lat="42.228982" lon="2.997994">
        <ele>20</ele>
        <time>2019-08-19T02:08:06Z</time>
      </trkpt>
      <trkpt lat="42.228965" lon="2.997951">
        <ele>22</ele>
        <time>2019-08-19T02:08:07Z</time>
      </trkpt>
      <trkpt lat="42.228917" lon="2.997865">
        <ele>22</ele>
        <time>2019-08-19T02:08:08Z</time>
      </trkpt>
      <trkpt lat="42.228894" lon="2.997824">
        <ele>22</ele>
        <time>2019-08-19T02:08:09Z</time>
      </trkpt>
      <trkpt lat="42.22887" lon="2.997782">
        <ele>22</ele>
        <time>2019-08-19T02:08:10Z</time>
      </trkpt>
      <trkpt lat="42.228846" lon="2.997741">
        <ele>22</ele>
        <time>2019-08-19T02:08:11Z</time>
      </trkpt>
      <trkpt lat="42.228823" lon="2.997699">
        <ele>22</ele>
        <time>2019-08-19T02:08:12Z</time>
      </trkpt>
      <trkpt lat="42.228799" lon="2.997658">
        <ele>22</ele>
        <time>2019-08-19T02:08:13Z</time>
      </trkpt>
      <trkpt lat="42.228775" lon="2.997616">
        <ele>22</ele>
        <time>2019-08-19T02:08:14Z</time>
      </trkpt>
      <trkpt lat="42.228752" lon="2.997575">
        <ele>22</ele>
        <time>2019-08-19T02:08:15Z</time>
      </trkpt>
      <trkpt lat="42.228728" lon="2.997533">
        <ele>23</ele>
        <time>2019-08-19T02:08:17Z</time>
      </trkpt>
      <trkpt lat="42.228683" lon="2.997455">
        <ele>23</ele>
        <time>2019-08-19T02:08:18Z</time>
      </trkpt>
      <trkpt lat="42.228648" lon="2.997429">
        <ele>23</ele>
        <time>2019-08-19T02:08:19Z</time>
      </trkpt>
      <trkpt lat="42.228612" lon="2.997402">
        <ele>23</ele>
        <time>2019-08-19T02:08:20Z</time>
      </trkpt>
      <trkpt lat="42.228577" lon="2.997375">
        <ele>23</ele>
        <time>2019-08-19T02:08:21Z</time>
      </trkpt>
      <trkpt lat="42.228542" lon="2.997348">
        <ele>23</ele>
        <time>2019-08-19T02:08:22Z</time>
      </trkpt>
      <trkpt lat="42.228507" lon="2.997322">
        <ele>23</ele>
        <time>2019-08-19T02:08:23Z</time>
      </trkpt>
      <trkpt lat="42.228472" lon="2.997295">
        <ele>23</ele>
        <time>2019-08-19T02:08:24Z</time>
      </trkpt>
      <trkpt lat="42.228436" lon="2.997268">
        <ele>23</ele>
        <time>2019-08-19T02:08:25Z</time>
      </trkpt>
      <trkpt lat="42.228401" lon="2.997242">
        <ele>23</ele>
        <time>2019-08-19T02:08:26Z</time>
      </trkpt>
      <trkpt lat="42.228366" lon="2.997215">
        <ele>25</ele>
        <time>2019-08-19T02:08:28Z</time>
      </trkpt>
      <trkpt lat="42.228282" lon="2.997168">
        <ele>25</ele>
        <time>2019-08-19T02:08:29Z</time>
      </trkpt>
      <trkpt lat="42.228246" lon="2.997129">
        <ele>25</ele>
        <time>2019-08-19T02:08:30Z</time>
      </trkpt>
      <trkpt lat="42.228209" lon="2.997091">
        <ele>25</ele>
        <time>2019-08-19T02:08:31Z</time>
      </trkpt>
      <trkpt lat="42.228172" lon="2.997052">
        <ele>25</ele>
        <time>2019-08-19T02:08:32Z</time>
      </trkpt>
      <trkpt lat="42.228136" lon="2.997014">
        <ele>25</ele>
        <time>2019-08-19T02:08:33Z</time>
      </trkpt>
      <trkpt lat="42.228099" lon="2.996975">
        <ele>25</ele>
        <time>2019-08-19T02:08:34Z</time>
      </trkpt>
      <trkpt lat="42.228062" lon="2.996937">
        <ele>25</ele>
        <time>2019-08-19T02:08:35Z</time>
      </trkpt>
      <trkpt lat="42.228026" lon="2.996898">
        <ele>25</ele>
        <time>2019-08-19T02:08:36Z</time>
      </trkpt>
      <trkpt lat="42.227989" lon="2.99686">
        <ele>25</ele>
        <time>2019-08-19T02:08:37Z</time>
      </trkpt>
      <trkpt lat="42.227931" lon="2.99674">
        <ele>25</ele>
        <time>2019-08-19T02:08:38Z</time>
      </trkpt>
      <trkpt lat="42.227904" lon="2.996681">
        <ele>25</ele>
        <time>2019-08-19T02:08:39Z</time>
      </trkpt>
      <trkpt lat="42.227877" lon="2.996622">
        <ele>25</ele>
        <time>2019-08-19T02:08:40Z</time>
      </trkpt>
      <trkpt lat="42.22785" lon="2.996563">
        <ele>25</ele>
        <time>2019-08-19T02:08:41Z</time>
      </trkpt>
      <trkpt lat="42.227824" lon="2.996504">
        <ele>25</ele>
        <time>2019-08-19T02:08:42Z</time>
      </trkpt>
      <trkpt lat="42.227797" lon="2.996446">
        <ele>25</ele>
        <time>2019-08-19T02:08:43Z</time>
      </trkpt>
      <trkpt lat="42.22777" lon="2.996387">
        <ele>25</ele>
        <time>2019-08-19T02:08:44Z</time>
      </trkpt>
      <trkpt lat="42.227743" lon="2.996328">
        <ele>25</ele>
        <time>2019-08-19T02:08:45Z</time>
      </trkpt>
      <trkpt lat="42.227716" lon="2.996269">
        <ele>25</ele>
        <time>2019-08-19T02:08:46Z</time>
      </trkpt>
      <trkpt lat="42.227689" lon="2.99621">
        <ele>24</ele>
        <time>2019-08-19T02:08:47Z</time>
      </trkpt>
      <trkpt lat="42.227679" lon="2.995987">
        <ele>24</ele>
        <time>2019-08-19T02:08:48Z</time>
      </trkpt>
      <trkpt lat="42.227668" lon="2.995867">
        <ele>24</ele>
        <time>2019-08-19T02:08:50Z</time>
      </trkpt>
      <trkpt lat="42.227656" lon="2.995746">
        <ele>24</ele>
        <time>2019-08-19T02:08:51Z</time>
      </trkpt>
      <trkpt lat="42.227645" lon="2.995625">
        <ele>24</ele>
        <time>2019-08-19T02:08:53Z</time>
      </trkpt>
      <trkpt lat="42.227633" lon="2.995505">
        <ele>24</ele>
        <time>2019-08-19T02:08:54Z</time>
      </trkpt>
      <trkpt lat="42.227621" lon="2.995384">
        <ele>24</ele>
        <time>2019-08-19T02:08:55Z</time>
      </trkpt>
      <trkpt lat="42.22761" lon="2.995264">
        <ele>24</ele>
        <time>2019-08-19T02:08:56Z</time>
      </trkpt>
      <trkpt lat="42.227598" lon="2.995143">
        <ele>22</ele>
        <time>2019-08-19T02:08:57Z</time>
      </trkpt>
      <trkpt lat="42.22754" lon="2.994964">
        <ele>22</ele>
        <time>2019-08-19T02:08:58Z</time>
      </trkpt>
      <trkpt lat="42.227515" lon="2.994878">
        <ele>22</ele>
        <time>2019-08-19T02:08:59Z</time>
      </trkpt>
      <trkpt lat="42.22749" lon="2.994793">
        <ele>22</ele>
        <time>2019-08-19T02:09:00Z</time>
      </trkpt>
      <trkpt lat="42.227465" lon="2.994707">
        <ele>22</ele>
        <time>2019-08-19T02:09:01Z</time>
      </trkpt>
      <trkpt lat="42.22744" lon="2.994622">
        <ele>22</ele>
        <time>2019-08-19T02:09:02Z</time>
      </trkpt>
      <trkpt lat="42.227415" lon="2.994536">
        <ele>22</ele>
        <time>2019-08-19T02:09:03Z</time>
      </trkpt>
      <trkpt lat="42.22739" lon="2.994451">
        <ele>22</ele>
        <time>2019-08-19T02:09:04Z</time>
      </trkpt>
      <trkpt lat="42.227365" lon="2.994365">
        <ele>22</ele>
        <time>2019-08-19T02:09:05Z</time>
      </trkpt>
      <trkpt lat="42.22734" lon="2.99428">
        <ele>21</ele>
        <time>2019-08-19T02:09:07Z</time>
      </trkpt>
      <trkpt lat="42.227253" lon="2.994059">
        <ele>21</ele>
        <time>2019-08-19T02:09:09Z</time>
      </trkpt>
      <trkpt lat="42.227224" lon="2.993986">
        <ele>21</ele>
        <time>2019-08-19T02:09:10Z</time>
      </trkpt>
      <trkpt lat="42.227194" lon="2.993912">
        <ele>21</ele>
        <time>2019-08-19T02:09:11Z</time>
      </trkpt>
      <trkpt lat="42.227165" lon="2.993839">
        <ele>21</ele>
        <time>2019-08-19T02:09:12Z</time>
      </trkpt>
      <trkpt lat="42.227136" lon="2.993765">
        <ele>21</ele>
        <time>2019-08-19T02:09:13Z</time>
      </trkpt>
      <trkpt lat="42.227107" lon="2.993692">
        <ele>21</ele>
        <time>2019-08-19T02:09:15Z</time>
      </trkpt>
      <trkpt lat="42.227077" lon="2.993618">
        <ele>21</ele>
        <time>2019-08-19T02:09:16Z</time>
      </trkpt>
      <trkpt lat="42.227048" lon="2.993545">
        <ele>21</ele>
        <time>2019-08-19T02:09:17Z</time>
      </trkpt>
      <trkpt lat="42.226991" lon="2.993402">
        <ele>21</ele>
        <time>2019-08-19T02:09:18Z</time>
      </trkpt>
      <trkpt lat="42.226963" lon="2.993332">
        <ele>21</ele>
        <time>2019-08-19T02:09:19Z</time>
      </trkpt>
      <trkpt lat="42.226935" lon="2.993263">
        <ele>21</ele>
        <time>2019-08-19T02:09:20Z</time>
      </trkpt>
      <trkpt lat="42.226907" lon="2.993193">
        <ele>21</ele>
        <time>2019-08-19T02:09:21Z</time>
      </trkpt>
      <trkpt lat="42.22688" lon="2.993124">
        <ele>21</ele>
        <time>2019-08-19T02:09:23Z</time>
      </trkpt>
      <trkpt lat="42.226852" lon="2.993054">
        <ele>21</ele>
        <time>2019-08-19T02:09:24Z</time>
      </trkpt>
      <trkpt lat="42.226824" lon="2.992985">
        <ele>21</ele>
        <time>2019-08-19T02:09:25Z</time>
      </trkpt>
      <trkpt lat="42.226796" lon="2.992915">
        <ele>21</ele>
        <time>2019-08-19T02:09:26Z</time>
      </trkpt>
      <trkpt lat="42.226768" lon="2.992846">
        <ele>22</ele>
        <time>2019-08-19T02:09:27Z</time>
      </trkpt>
      <trkpt lat="42.226723" lon="2.992732">
        <ele>22</ele>
        <time>2019-08-19T02:09:28Z</time>
      </trkpt>
      <trkpt lat="42.226703" lon="2.992683">
        <ele>22</ele>
        <time>2019-08-19T02:09:29Z</time>
      </trkpt>
      <trkpt lat="42.226684" lon="2.992633">
        <ele>22</ele>
        <time>2019-08-19T02:09:30Z</time>
      </trkpt>
      <trkpt lat="42.226664" lon="2.992583">
        <ele>22</ele>
        <time>2019-08-19T02:09:31Z</time>
      </trkpt>
      <trkpt lat="42.226645" lon="2.992533">
        <ele>22</ele>
        <time>2019-08-19T02:09:32Z</time>
      </trkpt>
      <trkpt lat="42.226626" lon="2.992484">
        <ele>22</ele>
        <time>2019-08-19T02:09:33Z</time>
      </trkpt>
      <trkpt lat="42.226606" lon="2.992434">
        <ele>22</ele>
        <time>2019-08-19T02:09:34Z</time>
      </trkpt>
      <trkpt lat="42.226587" lon="2.992384">
        <ele>22</ele>
        <time>2019-08-19T02:09:35Z</time>
      </trkpt>
      <trkpt lat="42.226567" lon="2.992335">
        <ele>22</ele>
        <time>2019-08-19T02:09:36Z</time>
      </trkpt>
      <trkpt lat="42.226548" lon="2.992285">
        <ele>23</ele>
        <time>2019-08-19T02:09:37Z</time>
      </trkpt>
      <trkpt lat="42.226501" lon="2.992178">
        <ele>23</ele>
        <time>2019-08-19T02:09:38Z</time>
      </trkpt>
      <trkpt lat="42.226476" lon="2.992124">
        <ele>23</ele>
        <time>2019-08-19T02:09:39Z</time>
      </trkpt>
      <trkpt lat="42.226452" lon="2.992071">
        <ele>23</ele>
        <time>2019-08-19T02:09:40Z</time>
      </trkpt>
      <trkpt lat="42.226427" lon="2.992017">
        <ele>23</ele>
        <time>2019-08-19T02:09:41Z</time>
      </trkpt>
      <trkpt lat="42.226402" lon="2.991963">
        <ele>23</ele>
        <time>2019-08-19T02:09:43Z</time>
      </trkpt>
      <trkpt lat="42.226377" lon="2.991909">
        <ele>23</ele>
        <time>2019-08-19T02:09:44Z</time>
      </trkpt>
      <trkpt lat="42.226353" lon="2.991856">
        <ele>23</ele>
        <time>2019-08-19T02:09:45Z</time>
      </trkpt>
      <trkpt lat="42.226328" lon="2.991802">
        <ele>23</ele>
        <time>2019-08-19T02:09:46Z</time>
      </trkpt>
      <trkpt lat="42.226303" lon="2.991748">
        <ele>24</ele>
        <time>2019-08-19T02:09:47Z</time>
      </trkpt>
      <trkpt lat="42.226246" lon="2.99164">
        <ele>24</ele>
        <time>2019-08-19T02:09:48Z</time>
      </trkpt>
      <trkpt lat="42.226217" lon="2.991586">
        <ele>24</ele>
        <time>2019-08-19T02:09:49Z</time>
      </trkpt>
      <trkpt lat="42.226188" lon="2.991533">
        <ele>24</ele>
        <time>2019-08-19T02:09:50Z</time>
      </trkpt>
      <trkpt lat="42.226159" lon="2.991479">
        <ele>24</ele>
        <time>2019-08-19T02:09:51Z</time>
      </trkpt>
      <trkpt lat="42.226131" lon="2.991426">
        <ele>24</ele>
        <time>2019-08-19T02:09:53Z</time>
      </trkpt>
      <trkpt lat="42.226102" lon="2.991372">
        <ele>24</ele>
        <time>2019-08-19T02:09:54Z</time>
      </trkpt>
      <trkpt lat="42.226073" lon="2.991319">
        <ele>24</ele>
        <time>2019-08-19T02:09:55Z</time>
      </trkpt>
      <trkpt lat="42.226044" lon="2.991265">
        <ele>24</ele>
        <time>2019-08-19T02:09:56Z</time>
      </trkpt>
      <trkpt lat="42.226015" lon="2.991212">
        <ele>24</ele>
        <time>2019-08-19T02:09:57Z</time>
      </trkpt>
      <trkpt lat="42.225947" lon="2.991091">
        <ele>24</ele>
        <time>2019-08-19T02:09:58Z</time>
      </trkpt>
      <trkpt lat="42.225909" lon="2.991023">
        <ele>24</ele>
        <time>2019-08-19T02:10:00Z</time>
      </trkpt>
      <trkpt lat="42.225871" lon="2.990955">
        <ele>24</ele>
        <time>2019-08-19T02:10:01Z</time>
      </trkpt>
      <trkpt lat="42.225834" lon="2.990886">
        <ele>24</ele>
        <time>2019-08-19T02:10:03Z</time>
      </trkpt>
      <trkpt lat="42.225796" lon="2.990818">
        <ele>24</ele>
        <time>2019-08-19T02:10:04Z</time>
      </trkpt>
      <trkpt lat="42.225758" lon="2.99075">
        <ele>24</ele>
        <time>2019-08-19T02:10:06Z</time>
      </trkpt>
      <trkpt lat="42.22572" lon="2.990682">
        <ele>24</ele>
        <time>2019-08-19T02:10:07Z</time>
      </trkpt>
      <trkpt lat="42.225662" lon="2.990576">
        <ele>24</ele>
        <time>2019-08-19T02:10:08Z</time>
      </trkpt>
      <trkpt lat="42.225633" lon="2.990523">
        <ele>24</ele>
        <time>2019-08-19T02:10:09Z</time>
      </trkpt>
      <trkpt lat="42.225604" lon="2.990469">
        <ele>24</ele>
        <time>2019-08-19T02:10:10Z</time>
      </trkpt>
      <trkpt lat="42.225575" lon="2.990416">
        <ele>24</ele>
        <time>2019-08-19T02:10:11Z</time>
      </trkpt>
      <trkpt lat="42.225547" lon="2.990362">
        <ele>24</ele>
        <time>2019-08-19T02:10:13Z</time>
      </trkpt>
      <trkpt lat="42.225518" lon="2.990309">
        <ele>24</ele>
        <time>2019-08-19T02:10:14Z</time>
      </trkpt>
      <trkpt lat="42.225489" lon="2.990255">
        <ele>24</ele>
        <time>2019-08-19T02:10:15Z</time>
      </trkpt>
      <trkpt lat="42.22546" lon="2.990202">
        <ele>24</ele>
        <time>2019-08-19T02:10:16Z</time>
      </trkpt>
      <trkpt lat="42.225431" lon="2.990148">
        <ele>24</ele>
        <time>2019-08-19T02:10:17Z</time>
      </trkpt>
      <trkpt lat="42.225372" lon="2.990041">
        <ele>24</ele>
        <time>2019-08-19T02:10:18Z</time>
      </trkpt>
      <trkpt lat="42.225343" lon="2.989987">
        <ele>24</ele>
        <time>2019-08-19T02:10:19Z</time>
      </trkpt>
      <trkpt lat="42.225314" lon="2.989934">
        <ele>24</ele>
        <time>2019-08-19T02:10:20Z</time>
      </trkpt>
      <trkpt lat="42.225285" lon="2.98988">
        <ele>24</ele>
        <time>2019-08-19T02:10:21Z</time>
      </trkpt>
      <trkpt lat="42.225255" lon="2.989826">
        <ele>24</ele>
        <time>2019-08-19T02:10:22Z</time>
      </trkpt>
      <trkpt lat="42.225226" lon="2.989772">
        <ele>24</ele>
        <time>2019-08-19T02:10:24Z</time>
      </trkpt>
      <trkpt lat="42.225197" lon="2.989719">
        <ele>24</ele>
        <time>2019-08-19T02:10:25Z</time>
      </trkpt>
      <trkpt lat="42.225168" lon="2.989665">
        <ele>24</ele>
        <time>2019-08-19T02:10:26Z</time>
      </trkpt>
      <trkpt lat="42.225139" lon="2.989611">
        <ele>25</ele>
        <time>2019-08-19T02:10:27Z</time>
      </trkpt>
      <trkpt lat="42.225091" lon="2.98952">
        <ele>25</ele>
        <time>2019-08-19T02:10:28Z</time>
      </trkpt>
      <trkpt lat="42.225069" lon="2.98948">
        <ele>25</ele>
        <time>2019-08-19T02:10:29Z</time>
      </trkpt>
      <trkpt lat="42.225048" lon="2.989441">
        <ele>25</ele>
        <time>2019-08-19T02:10:30Z</time>
      </trkpt>
      <trkpt lat="42.225026" lon="2.989402">
        <ele>25</ele>
        <time>2019-08-19T02:10:31Z</time>
      </trkpt>
      <trkpt lat="42.225005" lon="2.989362">
        <ele>25</ele>
        <time>2019-08-19T02:10:32Z</time>
      </trkpt>
      <trkpt lat="42.224984" lon="2.989323">
        <ele>25</ele>
        <time>2019-08-19T02:10:33Z</time>
      </trkpt>
      <trkpt lat="42.224962" lon="2.989284">
        <ele>25</ele>
        <time>2019-08-19T02:10:34Z</time>
      </trkpt>
      <trkpt lat="42.224941" lon="2.989245">
        <ele>25</ele>
        <time>2019-08-19T02:10:35Z</time>
      </trkpt>
      <trkpt lat="42.224919" lon="2.989205">
        <ele>25</ele>
        <time>2019-08-19T02:10:36Z</time>
      </trkpt>
      <trkpt lat="42.224898" lon="2.989166">
        <ele>26</ele>
        <time>2019-08-19T02:10:37Z</time>
      </trkpt>
      <trkpt lat="42.224851" lon="2.989086">
        <ele>26</ele>
        <time>2019-08-19T02:10:38Z</time>
      </trkpt>
      <trkpt lat="42.224827" lon="2.989044">
        <ele>26</ele>
        <time>2019-08-19T02:10:39Z</time>
      </trkpt>
      <trkpt lat="42.224803" lon="2.989001">
        <ele>26</ele>
        <time>2019-08-19T02:10:40Z</time>
      </trkpt>
      <trkpt lat="42.224779" lon="2.988959">
        <ele>26</ele>
        <time>2019-08-19T02:10:41Z</time>
      </trkpt>
      <trkpt lat="42.224754" lon="2.988917">
        <ele>26</ele>
        <time>2019-08-19T02:10:42Z</time>
      </trkpt>
      <trkpt lat="42.22473" lon="2.988875">
        <ele>26</ele>
        <time>2019-08-19T02:10:44Z</time>
      </trkpt>
      <trkpt lat="42.224706" lon="2.988832">
        <ele>26</ele>
        <time>2019-08-19T02:10:45Z</time>
      </trkpt>
      <trkpt lat="42.224682" lon="2.98879">
        <ele>26</ele>
        <time>2019-08-19T02:10:46Z</time>
      </trkpt>
      <trkpt lat="42.224658" lon="2.988748">
        <ele>27</ele>
        <time>2019-08-19T02:10:48Z</time>
      </trkpt>
      <trkpt lat="42.224615" lon="2.988677">
        <ele>27</ele>
        <time>2019-08-19T02:10:49Z</time>
      </trkpt>
      <trkpt lat="42.224594" lon="2.988644">
        <ele>27</ele>
        <time>2019-08-19T02:10:50Z</time>
      </trkpt>
      <trkpt lat="42.224572" lon="2.988612">
        <ele>27</ele>
        <time>2019-08-19T02:10:51Z</time>
      </trkpt>
      <trkpt lat="42.22455" lon="2.98858">
        <ele>27</ele>
        <time>2019-08-19T02:10:52Z</time>
      </trkpt>
      <trkpt lat="42.224529" lon="2.988547">
        <ele>27</ele>
        <time>2019-08-19T02:10:53Z</time>
      </trkpt>
      <trkpt lat="42.224507" lon="2.988515">
        <ele>27</ele>
        <time>2019-08-19T02:10:54Z</time>
      </trkpt>
      <trkpt lat="42.224485" lon="2.988483">
        <ele>27</ele>
        <time>2019-08-19T02:10:55Z</time>
      </trkpt>
      <trkpt lat="42.224464" lon="2.98845">
        <ele>27</ele>
        <time>2019-08-19T02:10:56Z</time>
      </trkpt>
      <trkpt lat="42.224442" lon="2.988418">
        <ele>30</ele>
        <time>2019-08-19T02:10:57Z</time>
      </trkpt>
      <trkpt lat="42.224388" lon="2.988349">
        <ele>30</ele>
        <time>2019-08-19T02:10:58Z</time>
      </trkpt>
      <trkpt lat="42.224361" lon="2.988315">
        <ele>30</ele>
        <time>2019-08-19T02:10:59Z</time>
      </trkpt>
      <trkpt lat="42.224335" lon="2.98828">
        <ele>30</ele>
        <time>2019-08-19T02:11:00Z</time>
      </trkpt>
      <trkpt lat="42.224309" lon="2.988246">
        <ele>30</ele>
        <time>2019-08-19T02:11:01Z</time>
      </trkpt>
      <trkpt lat="42.224283" lon="2.988211">
        <ele>30</ele>
        <time>2019-08-19T02:11:02Z</time>
      </trkpt>
      <trkpt lat="42.224256" lon="2.988177">
        <ele>30</ele>
        <time>2019-08-19T02:11:03Z</time>
      </trkpt>
      <trkpt lat="42.22423" lon="2.988142">
        <ele>30</ele>
        <time>2019-08-19T02:11:04Z</time>
      </trkpt>
      <trkpt lat="42.224204" lon="2.988108">
        <ele>30</ele>
        <time>2019-08-19T02:11:05Z</time>
      </trkpt>
      <trkpt lat="42.224177" lon="2.988073">
        <ele>30</ele>
        <time>2019-08-19T02:11:06Z</time>
      </trkpt>
      <trkpt lat="42.224151" lon="2.988039">
        <ele>31</ele>
        <time>2019-08-19T02:11:07Z</time>
      </trkpt>
      <trkpt lat="42.224085" lon="2.987954">
        <ele>31</ele>
        <time>2019-08-19T02:11:08Z</time>
      </trkpt>
      <trkpt lat="42.22405" lon="2.98791">
        <ele>31</ele>
        <time>2019-08-19T02:11:09Z</time>
      </trkpt>
      <trkpt lat="42.224016" lon="2.987866">
        <ele>31</ele>
        <time>2019-08-19T02:11:10Z</time>
      </trkpt>
      <trkpt lat="42.223982" lon="2.987822">
        <ele>31</ele>
        <time>2019-08-19T02:11:11Z</time>
      </trkpt>
      <trkpt lat="42.223947" lon="2.987778">
        <ele>31</ele>
        <time>2019-08-19T02:11:13Z</time>
      </trkpt>
      <trkpt lat="42.223913" lon="2.987734">
        <ele>31</ele>
        <time>2019-08-19T02:11:14Z</time>
      </trkpt>
      <trkpt lat="42.223879" lon="2.98769">
        <ele>31</ele>
        <time>2019-08-19T02:11:15Z</time>
      </trkpt>
      <trkpt lat="42.223844" lon="2.987646">
        <ele>31</ele>
        <time>2019-08-19T02:11:16Z</time>
      </trkpt>
      <trkpt lat="42.22381" lon="2.987602">
        <ele>31</ele>
        <time>2019-08-19T02:11:17Z</time>
      </trkpt>
      <trkpt lat="42.223739" lon="2.987508">
        <ele>31</ele>
        <time>2019-08-19T02:11:18Z</time>
      </trkpt>
      <trkpt lat="42.223704" lon="2.98746">
        <ele>31</ele>
        <time>2019-08-19T02:11:19Z</time>
      </trkpt>
      <trkpt lat="42.223668" lon="2.987413">
        <ele>31</ele>
        <time>2019-08-19T02:11:20Z</time>
      </trkpt>
      <trkpt lat="42.223632" lon="2.987365">
        <ele>31</ele>
        <time>2019-08-19T02:11:22Z</time>
      </trkpt>
      <trkpt lat="42.223597" lon="2.987317">
        <ele>31</ele>
        <time>2019-08-19T02:11:23Z</time>
      </trkpt>
      <trkpt lat="42.223561" lon="2.987269">
        <ele>31</ele>
        <time>2019-08-19T02:11:24Z</time>
      </trkpt>
      <trkpt lat="42.223525" lon="2.987222">
        <ele>31</ele>
        <time>2019-08-19T02:11:25Z</time>
      </trkpt>
      <trkpt lat="42.22349" lon="2.987174">
        <ele>31</ele>
        <time>2019-08-19T02:11:26Z</time>
      </trkpt>
      <trkpt lat="42.223454" lon="2.987126">
        <ele>30</ele>
        <time>2019-08-19T02:11:27Z</time>
      </trkpt>
      <trkpt lat="42.223377" lon="2.987026">
        <ele>30</ele>
        <time>2019-08-19T02:11:28Z</time>
      </trkpt>
      <trkpt lat="42.22334" lon="2.986975">
        <ele>30</ele>
        <time>2019-08-19T02:11:29Z</time>
      </trkpt>
      <trkpt lat="42.223302" lon="2.986925">
        <ele>30</ele>
        <time>2019-08-19T02:11:30Z</time>
      </trkpt>
      <trkpt lat="42.223264" lon="2.986874">
        <ele>30</ele>
        <time>2019-08-19T02:11:31Z</time>
      </trkpt>
      <trkpt lat="42.223227" lon="2.986823">
        <ele>30</ele>
        <time>2019-08-19T02:11:33Z</time>
      </trkpt>
      <trkpt lat="42.223189" lon="2.986772">
        <ele>30</ele>
        <time>2019-08-19T02:11:34Z</time>
      </trkpt>
      <trkpt lat="42.223151" lon="2.986722">
        <ele>30</ele>
        <time>2019-08-19T02:11:35Z</time>
      </trkpt>
      <trkpt lat="42.223114" lon="2.986671">
        <ele>30</ele>
        <time>2019-08-19T02:11:36Z</time>
      </trkpt>
      <trkpt lat="42.223076" lon="2.98662">
        <ele>29</ele>
        <time>2019-08-19T02:11:37Z</time>
      </trkpt>
      <trkpt lat="42.223009" lon="2.986523">
        <ele>29</ele>
        <time>2019-08-19T02:11:38Z</time>
      </trkpt>
      <trkpt lat="42.222978" lon="2.986476">
        <ele>29</ele>
        <time>2019-08-19T02:11:39Z</time>
      </trkpt>
      <trkpt lat="42.222946" lon="2.98643">
        <ele>29</ele>
        <time>2019-08-19T02:11:40Z</time>
      </trkpt>
      <trkpt lat="42.222915" lon="2.986383">
        <ele>29</ele>
        <time>2019-08-19T02:11:41Z</time>
      </trkpt>
      <trkpt lat="42.222883" lon="2.986337">
        <ele>29</ele>
        <time>2019-08-19T02:11:43Z</time>
      </trkpt>
      <trkpt lat="42.222852" lon="2.98629">
        <ele>29</ele>
        <time>2019-08-19T02:11:44Z</time>
      </trkpt>
      <trkpt lat="42.22282" lon="2.986244">
        <ele>29</ele>
        <time>2019-08-19T02:11:45Z</time>
      </trkpt>
      <trkpt lat="42.222789" lon="2.986197">
        <ele>29</ele>
        <time>2019-08-19T02:11:46Z</time>
      </trkpt>
      <trkpt lat="42.222757" lon="2.986151">
        <ele>29</ele>
        <time>2019-08-19T02:11:47Z</time>
      </trkpt>
      <trkpt lat="42.222708" lon="2.986075">
        <ele>29</ele>
        <time>2019-08-19T02:11:48Z</time>
      </trkpt>
      <trkpt lat="42.222689" lon="2.986043">
        <ele>29</ele>
        <time>2019-08-19T02:11:49Z</time>
      </trkpt>
      <trkpt lat="42.222669" lon="2.986011">
        <ele>29</ele>
        <time>2019-08-19T02:11:50Z</time>
      </trkpt>
      <trkpt lat="42.22265" lon="2.985979">
        <ele>29</ele>
        <time>2019-08-19T02:11:51Z</time>
      </trkpt>
      <trkpt lat="42.22263" lon="2.985947">
        <ele>29</ele>
        <time>2019-08-19T02:11:52Z</time>
      </trkpt>
      <trkpt lat="42.222611" lon="2.985915">
        <ele>29</ele>
        <time>2019-08-19T02:11:53Z</time>
      </trkpt>
      <trkpt lat="42.222591" lon="2.985883">
        <ele>29</ele>
        <time>2019-08-19T02:11:54Z</time>
      </trkpt>
      <trkpt lat="42.222572" lon="2.985851">
        <ele>29</ele>
        <time>2019-08-19T02:11:55Z</time>
      </trkpt>
      <trkpt lat="42.222552" lon="2.985819">
        <ele>29</ele>
        <time>2019-08-19T02:11:57Z</time>
      </trkpt>
      <trkpt lat="42.222511" lon="2.985796">
        <ele>29</ele>
        <time>2019-08-19T02:12:01Z</time>
      </trkpt>
      <trkpt lat="42.222496" lon="2.985774">
        <ele>29</ele>
        <time>2019-08-19T02:12:03Z</time>
      </trkpt>
      <trkpt lat="42.22248" lon="2.985752">
        <ele>29</ele>
        <time>2019-08-19T02:12:05Z</time>
      </trkpt>
      <trkpt lat="42.222465" lon="2.98573">
        <ele>29</ele>
        <time>2019-08-19T02:12:06Z</time>
      </trkpt>
      <trkpt lat="42.22245" lon="2.985708">
        <ele>29</ele>
        <time>2019-08-19T02:12:07Z</time>
      </trkpt>
      <trkpt lat="42.222417" lon="2.985646">
        <ele>29</ele>
        <time>2019-08-19T02:12:08Z</time>
      </trkpt>
      <trkpt lat="42.222403" lon="2.985616">
        <ele>29</ele>
        <time>2019-08-19T02:12:09Z</time>
      </trkpt>
      <trkpt lat="42.222389" lon="2.985587">
        <ele>29</ele>
        <time>2019-08-19T02:12:10Z</time>
      </trkpt>
      <trkpt lat="42.222375" lon="2.985557">
        <ele>29</ele>
        <time>2019-08-19T02:12:11Z</time>
      </trkpt>
      <trkpt lat="42.222362" lon="2.985527">
        <ele>29</ele>
        <time>2019-08-19T02:12:12Z</time>
      </trkpt>
      <trkpt lat="42.222348" lon="2.985497">
        <ele>29</ele>
        <time>2019-08-19T02:12:13Z</time>
      </trkpt>
      <trkpt lat="42.222334" lon="2.985467">
        <ele>29</ele>
        <time>2019-08-19T02:12:14Z</time>
      </trkpt>
      <trkpt lat="42.22232" lon="2.985438">
        <ele>29</ele>
        <time>2019-08-19T02:12:15Z</time>
      </trkpt>
      <trkpt lat="42.222306" lon="2.985408">
        <ele>29</ele>
        <time>2019-08-19T02:12:16Z</time>
      </trkpt>
      <trkpt lat="42.222292" lon="2.985378">
        <ele>28</ele>
        <time>2019-08-19T02:12:17Z</time>
      </trkpt>
      <trkpt lat="42.222259" lon="2.985312">
        <ele>28</ele>
        <time>2019-08-19T02:12:18Z</time>
      </trkpt>
      <trkpt lat="42.222243" lon="2.985279">
        <ele>28</ele>
        <time>2019-08-19T02:12:19Z</time>
      </trkpt>
      <trkpt lat="42.222226" lon="2.985245">
        <ele>28</ele>
        <time>2019-08-19T02:12:20Z</time>
      </trkpt>
      <trkpt lat="42.222209" lon="2.985211">
        <ele>28</ele>
        <time>2019-08-19T02:12:21Z</time>
      </trkpt>
      <trkpt lat="42.222193" lon="2.985177">
        <ele>28</ele>
        <time>2019-08-19T02:12:22Z</time>
      </trkpt>
      <trkpt lat="42.222176" lon="2.985144">
        <ele>28</ele>
        <time>2019-08-19T02:12:23Z</time>
      </trkpt>
      <trkpt lat="42.222159" lon="2.98511">
        <ele>28</ele>
        <time>2019-08-19T02:12:24Z</time>
      </trkpt>
      <trkpt lat="42.222142" lon="2.985076">
        <ele>28</ele>
        <time>2019-08-19T02:12:25Z</time>
      </trkpt>
      <trkpt lat="42.222126" lon="2.985043">
        <ele>28</ele>
        <time>2019-08-19T02:12:26Z</time>
      </trkpt>
      <trkpt lat="42.222109" lon="2.985009">
        <ele>28</ele>
        <time>2019-08-19T02:12:27Z</time>
      </trkpt>
      <trkpt lat="42.222057" lon="2.984925">
        <ele>28</ele>
        <time>2019-08-19T02:12:28Z</time>
      </trkpt>
      <trkpt lat="42.22203" lon="2.984883">
        <ele>28</ele>
        <time>2019-08-19T02:12:29Z</time>
      </trkpt>
      <trkpt lat="42.222004" lon="2.984841">
        <ele>28</ele>
        <time>2019-08-19T02:12:30Z</time>
      </trkpt>
      <trkpt lat="42.221978" lon="2.984799">
        <ele>28</ele>
        <time>2019-08-19T02:12:32Z</time>
      </trkpt>
      <trkpt lat="42.221951" lon="2.984756">
        <ele>28</ele>
        <time>2019-08-19T02:12:33Z</time>
      </trkpt>
      <trkpt lat="42.221925" lon="2.984714">
        <ele>28</ele>
        <time>2019-08-19T02:12:34Z</time>
      </trkpt>
      <trkpt lat="42.221899" lon="2.984672">
        <ele>28</ele>
        <time>2019-08-19T02:12:35Z</time>
      </trkpt>
      <trkpt lat="42.221872" lon="2.98463">
        <ele>28</ele>
        <time>2019-08-19T02:12:36Z</time>
      </trkpt>
      <trkpt lat="42.221846" lon="2.984588">
        <ele>29</ele>
        <time>2019-08-19T02:12:37Z</time>
      </trkpt>
      <trkpt lat="42.221787" lon="2.984504">
        <ele>29</ele>
        <time>2019-08-19T02:12:38Z</time>
      </trkpt>
      <trkpt lat="42.221756" lon="2.98446">
        <ele>29</ele>
        <time>2019-08-19T02:12:39Z</time>
      </trkpt>
      <trkpt lat="42.221726" lon="2.984416">
        <ele>29</ele>
        <time>2019-08-19T02:12:40Z</time>
      </trkpt>
      <trkpt lat="42.221695" lon="2.984372">
        <ele>29</ele>
        <time>2019-08-19T02:12:41Z</time>
      </trkpt>
      <trkpt lat="42.221665" lon="2.984328">
        <ele>29</ele>
        <time>2019-08-19T02:12:42Z</time>
      </trkpt>
      <trkpt lat="42.221635" lon="2.984284">
        <ele>29</ele>
        <time>2019-08-19T02:12:43Z</time>
      </trkpt>
      <trkpt lat="42.221604" lon="2.98424">
        <ele>29</ele>
        <time>2019-08-19T02:12:44Z</time>
      </trkpt>
      <trkpt lat="42.221574" lon="2.984196">
        <ele>29</ele>
        <time>2019-08-19T02:12:45Z</time>
      </trkpt>
      <trkpt lat="42.221543" lon="2.984152">
        <ele>29</ele>
        <time>2019-08-19T02:12:46Z</time>
      </trkpt>
      <trkpt lat="42.221513" lon="2.984108">
        <ele>29</ele>
        <time>2019-08-19T02:12:47Z</time>
      </trkpt>
      <trkpt lat="42.221433" lon="2.983999">
        <ele>29</ele>
        <time>2019-08-19T02:12:48Z</time>
      </trkpt>
      <trkpt lat="42.221393" lon="2.983943">
        <ele>29</ele>
        <time>2019-08-19T02:12:49Z</time>
      </trkpt>
      <trkpt lat="42.221353" lon="2.983887">
        <ele>29</ele>
        <time>2019-08-19T02:12:50Z</time>
      </trkpt>
      <trkpt lat="42.221313" lon="2.983831">
        <ele>29</ele>
        <time>2019-08-19T02:12:51Z</time>
      </trkpt>
      <trkpt lat="42.221273" lon="2.983776">
        <ele>29</ele>
        <time>2019-08-19T02:12:53Z</time>
      </trkpt>
      <trkpt lat="42.221233" lon="2.98372">
        <ele>29</ele>
        <time>2019-08-19T02:12:54Z</time>
      </trkpt>
      <trkpt lat="42.221193" lon="2.983664">
        <ele>29</ele>
        <time>2019-08-19T02:12:55Z</time>
      </trkpt>
      <trkpt lat="42.221153" lon="2.983608">
        <ele>28</ele>
        <time>2019-08-19T02:12:57Z</time>
      </trkpt>
      <trkpt lat="42.221094" lon="2.983514">
        <ele>28</ele>
        <time>2019-08-19T02:12:58Z</time>
      </trkpt>
      <trkpt lat="42.221068" lon="2.983468">
        <ele>28</ele>
        <time>2019-08-19T02:12:59Z</time>
      </trkpt>
      <trkpt lat="42.221042" lon="2.983422">
        <ele>28</ele>
        <time>2019-08-19T02:13:00Z</time>
      </trkpt>
      <trkpt lat="42.221016" lon="2.983376">
        <ele>28</ele>
        <time>2019-08-19T02:13:01Z</time>
      </trkpt>
      <trkpt lat="42.22099" lon="2.98333">
        <ele>28</ele>
        <time>2019-08-19T02:13:02Z</time>
      </trkpt>
      <trkpt lat="42.220963" lon="2.983285">
        <ele>28</ele>
        <time>2019-08-19T02:13:03Z</time>
      </trkpt>
      <trkpt lat="42.220937" lon="2.983239">
        <ele>28</ele>
        <time>2019-08-19T02:13:04Z</time>
      </trkpt>
      <trkpt lat="42.220911" lon="2.983193">
        <ele>28</ele>
        <time>2019-08-19T02:13:05Z</time>
      </trkpt>
      <trkpt lat="42.220885" lon="2.983147">
        <ele>28</ele>
        <time>2019-08-19T02:13:06Z</time>
      </trkpt>
      <trkpt lat="42.220859" lon="2.983101">
        <ele>28</ele>
        <time>2019-08-19T02:13:07Z</time>
      </trkpt>
      <trkpt lat="42.220814" lon="2.983002">
        <ele>28</ele>
        <time>2019-08-19T02:13:08Z</time>
      </trkpt>
      <trkpt lat="42.220796" lon="2.982953">
        <ele>28</ele>
        <time>2019-08-19T02:13:09Z</time>
      </trkpt>
      <trkpt lat="42.220777" lon="2.982904">
        <ele>28</ele>
        <time>2019-08-19T02:13:10Z</time>
      </trkpt>
      <trkpt lat="42.220759" lon="2.982855">
        <ele>28</ele>
        <time>2019-08-19T02:13:11Z</time>
      </trkpt>
      <trkpt lat="42.220741" lon="2.982805">
        <ele>28</ele>
        <time>2019-08-19T02:13:12Z</time>
      </trkpt>
      <trkpt lat="42.220723" lon="2.982756">
        <ele>28</ele>
        <time>2019-08-19T02:13:13Z</time>
      </trkpt>
      <trkpt lat="42.220705" lon="2.982707">
        <ele>28</ele>
        <time>2019-08-19T02:13:14Z</time>
      </trkpt>
      <trkpt lat="42.220686" lon="2.982658">
        <ele>28</ele>
        <time>2019-08-19T02:13:15Z</time>
      </trkpt>
      <trkpt lat="42.220668" lon="2.982609">
        <ele>28</ele>
        <time>2019-08-19T02:13:16Z</time>
      </trkpt>
      <trkpt lat="42.22065" lon="2.98256">
        <ele>29</ele>
        <time>2019-08-19T02:13:17Z</time>
      </trkpt>
      <trkpt lat="42.220614" lon="2.982453">
        <ele>29</ele>
        <time>2019-08-19T02:13:18Z</time>
      </trkpt>
      <trkpt lat="42.220599" lon="2.982401">
        <ele>29</ele>
        <time>2019-08-19T02:13:19Z</time>
      </trkpt>
      <trkpt lat="42.220583" lon="2.982348">
        <ele>29</ele>
        <time>2019-08-19T02:13:20Z</time>
      </trkpt>
      <trkpt lat="42.220568" lon="2.982296">
        <ele>29</ele>
        <time>2019-08-19T02:13:21Z</time>
      </trkpt>
      <trkpt lat="42.220552" lon="2.982244">
        <ele>29</ele>
        <time>2019-08-19T02:13:22Z</time>
      </trkpt>
      <trkpt lat="42.220536" lon="2.982192">
        <ele>29</ele>
        <time>2019-08-19T02:13:23Z</time>
      </trkpt>
      <trkpt lat="42.220521" lon="2.98214">
        <ele>29</ele>
        <time>2019-08-19T02:13:24Z</time>
      </trkpt>
      <trkpt lat="42.220505" lon="2.982087">
        <ele>29</ele>
        <time>2019-08-19T02:13:25Z</time>
      </trkpt>
      <trkpt lat="42.22049" lon="2.982035">
        <ele>29</ele>
        <time>2019-08-19T02:13:26Z</time>
      </trkpt>
      <trkpt lat="42.220474" lon="2.981983">
        <ele>31</ele>
        <time>2019-08-19T02:13:27Z</time>
      </trkpt>
      <trkpt lat="42.220435" lon="2.98187">
        <ele>31</ele>
        <time>2019-08-19T02:13:28Z</time>
      </trkpt>
      <trkpt lat="42.220413" lon="2.981815">
        <ele>31</ele>
        <time>2019-08-19T02:13:29Z</time>
      </trkpt>
      <trkpt lat="42.220392" lon="2.98176">
        <ele>31</ele>
        <time>2019-08-19T02:13:30Z</time>
      </trkpt>
      <trkpt lat="42.22037" lon="2.981705">
        <ele>31</ele>
        <time>2019-08-19T02:13:31Z</time>
      </trkpt>
      <trkpt lat="42.220349" lon="2.981651">
        <ele>31</ele>
        <time>2019-08-19T02:13:32Z</time>
      </trkpt>
      <trkpt lat="42.220327" lon="2.981596">
        <ele>31</ele>
        <time>2019-08-19T02:13:33Z</time>
      </trkpt>
      <trkpt lat="42.220306" lon="2.981541">
        <ele>31</ele>
        <time>2019-08-19T02:13:34Z</time>
      </trkpt>
      <trkpt lat="42.220284" lon="2.981486">
        <ele>31</ele>
        <time>2019-08-19T02:13:36Z</time>
      </trkpt>
      <trkpt lat="42.220263" lon="2.981431">
        <ele>31</ele>
        <time>2019-08-19T02:13:37Z</time>
      </trkpt>
      <trkpt lat="42.220215" lon="2.98134">
        <ele>31</ele>
        <time>2019-08-19T02:13:38Z</time>
      </trkpt>
      <trkpt lat="42.220192" lon="2.981299">
        <ele>31</ele>
        <time>2019-08-19T02:13:39Z</time>
      </trkpt>
      <trkpt lat="42.220169" lon="2.981257">
        <ele>31</ele>
        <time>2019-08-19T02:13:40Z</time>
      </trkpt>
      <trkpt lat="42.220146" lon="2.981216">
        <ele>31</ele>
        <time>2019-08-19T02:13:41Z</time>
      </trkpt>
      <trkpt lat="42.220123" lon="2.981174">
        <ele>31</ele>
        <time>2019-08-19T02:13:42Z</time>
      </trkpt>
      <trkpt lat="42.220099" lon="2.981133">
        <ele>31</ele>
        <time>2019-08-19T02:13:43Z</time>
      </trkpt>
      <trkpt lat="42.220076" lon="2.981091">
        <ele>31</ele>
        <time>2019-08-19T02:13:44Z</time>
      </trkpt>
      <trkpt lat="42.220053" lon="2.98105">
        <ele>31</ele>
        <time>2019-08-19T02:13:45Z</time>
      </trkpt>
      <trkpt lat="42.22003" lon="2.981008">
        <ele>31</ele>
        <time>2019-08-19T02:13:46Z</time>
      </trkpt>
      <trkpt lat="42.220007" lon="2.980967">
        <ele>32</ele>
        <time>2019-08-19T02:13:47Z</time>
      </trkpt>
      <trkpt lat="42.219952" lon="2.980891">
        <ele>32</ele>
        <time>2019-08-19T02:13:48Z</time>
      </trkpt>
      <trkpt lat="42.219925" lon="2.980855">
        <ele>32</ele>
        <time>2019-08-19T02:13:49Z</time>
      </trkpt>
      <trkpt lat="42.219899" lon="2.98082">
        <ele>32</ele>
        <time>2019-08-19T02:13:50Z</time>
      </trkpt>
      <trkpt lat="42.219872" lon="2.980784">
        <ele>32</ele>
        <time>2019-08-19T02:13:51Z</time>
      </trkpt>
      <trkpt lat="42.219845" lon="2.980749">
        <ele>32</ele>
        <time>2019-08-19T02:13:52Z</time>
      </trkpt>
      <trkpt lat="42.219818" lon="2.980714">
        <ele>32</ele>
        <time>2019-08-19T02:13:53Z</time>
      </trkpt>
      <trkpt lat="42.219791" lon="2.980678">
        <ele>32</ele>
        <time>2019-08-19T02:13:54Z</time>
      </trkpt>
      <trkpt lat="42.219765" lon="2.980643">
        <ele>32</ele>
        <time>2019-08-19T02:13:55Z</time>
      </trkpt>
      <trkpt lat="42.219738" lon="2.980607">
        <ele>32</ele>
        <time>2019-08-19T02:13:56Z</time>
      </trkpt>
      <trkpt lat="42.219711" lon="2.980572">
        <ele>32</ele>
        <time>2019-08-19T02:13:57Z</time>
      </trkpt>
      <trkpt lat="42.219643" lon="2.980508">
        <ele>32</ele>
        <time>2019-08-19T02:13:58Z</time>
      </trkpt>
      <trkpt lat="42.219607" lon="2.980479">
        <ele>32</ele>
        <time>2019-08-19T02:14:00Z</time>
      </trkpt>
      <trkpt lat="42.219571" lon="2.980451">
        <ele>32</ele>
        <time>2019-08-19T02:14:01Z</time>
      </trkpt>
      <trkpt lat="42.219535" lon="2.980422">
        <ele>32</ele>
        <time>2019-08-19T02:14:02Z</time>
      </trkpt>
      <trkpt lat="42.2195" lon="2.980393">
        <ele>32</ele>
        <time>2019-08-19T02:14:03Z</time>
      </trkpt>
      <trkpt lat="42.219464" lon="2.980364">
        <ele>32</ele>
        <time>2019-08-19T02:14:04Z</time>
      </trkpt>
      <trkpt lat="42.219428" lon="2.980336">
        <ele>32</ele>
        <time>2019-08-19T02:14:05Z</time>
      </trkpt>
      <trkpt lat="42.219392" lon="2.980307">
        <ele>32</ele>
        <time>2019-08-19T02:14:06Z</time>
      </trkpt>
      <trkpt lat="42.219356" lon="2.980278">
        <ele>33</ele>
        <time>2019-08-19T02:14:07Z</time>
      </trkpt>
      <trkpt lat="42.219276" lon="2.980237">
        <ele>33</ele>
        <time>2019-08-19T02:14:08Z</time>
      </trkpt>
      <trkpt lat="42.219237" lon="2.980216">
        <ele>33</ele>
        <time>2019-08-19T02:14:09Z</time>
      </trkpt>
      <trkpt lat="42.219199" lon="2.980194">
        <ele>33</ele>
        <time>2019-08-19T02:14:10Z</time>
      </trkpt>
      <trkpt lat="42.21916" lon="2.980173">
        <ele>33</ele>
        <time>2019-08-19T02:14:11Z</time>
      </trkpt>
      <trkpt lat="42.219121" lon="2.980152">
        <ele>33</ele>
        <time>2019-08-19T02:14:12Z</time>
      </trkpt>
      <trkpt lat="42.219082" lon="2.980131">
        <ele>33</ele>
        <time>2019-08-19T02:14:13Z</time>
      </trkpt>
      <trkpt lat="42.219043" lon="2.98011">
        <ele>33</ele>
        <time>2019-08-19T02:14:14Z</time>
      </trkpt>
      <trkpt lat="42.219005" lon="2.980088">
        <ele>33</ele>
        <time>2019-08-19T02:14:15Z</time>
      </trkpt>
      <trkpt lat="42.218966" lon="2.980067">
        <ele>33</ele>
        <time>2019-08-19T02:14:16Z</time>
      </trkpt>
      <trkpt lat="42.218927" lon="2.980046">
        <ele>35</ele>
        <time>2019-08-19T02:14:17Z</time>
      </trkpt>
      <trkpt lat="42.21885" lon="2.979984">
        <ele>35</ele>
        <time>2019-08-19T02:14:18Z</time>
      </trkpt>
      <trkpt lat="42.218817" lon="2.979948">
        <ele>35</ele>
        <time>2019-08-19T02:14:19Z</time>
      </trkpt>
      <trkpt lat="42.218784" lon="2.979913">
        <ele>35</ele>
        <time>2019-08-19T02:14:20Z</time>
      </trkpt>
      <trkpt lat="42.218751" lon="2.979877">
        <ele>35</ele>
        <time>2019-08-19T02:14:22Z</time>
      </trkpt>
      <trkpt lat="42.218718" lon="2.979841">
        <ele>35</ele>
        <time>2019-08-19T02:14:23Z</time>
      </trkpt>
      <trkpt lat="42.218685" lon="2.979805">
        <ele>35</ele>
        <time>2019-08-19T02:14:24Z</time>
      </trkpt>
      <trkpt lat="42.218652" lon="2.97977">
        <ele>35</ele>
        <time>2019-08-19T02:14:25Z</time>
      </trkpt>
      <trkpt lat="42.218619" lon="2.979734">
        <ele>35</ele>
        <time>2019-08-19T02:14:26Z</time>
      </trkpt>
      <trkpt lat="42.218586" lon="2.979698">
        <ele>35</ele>
        <time>2019-08-19T02:14:27Z</time>
      </trkpt>
      <trkpt lat="42.218542" lon="2.979586">
        <ele>35</ele>
        <time>2019-08-19T02:14:28Z</time>
      </trkpt>
      <trkpt lat="42.218523" lon="2.979521">
        <ele>35</ele>
        <time>2019-08-19T02:14:29Z</time>
      </trkpt>
      <trkpt lat="42.218503" lon="2.979457">
        <ele>35</ele>
        <time>2019-08-19T02:14:30Z</time>
      </trkpt>
      <trkpt lat="42.218484" lon="2.979392">
        <ele>35</ele>
        <time>2019-08-19T02:14:32Z</time>
      </trkpt>
      <trkpt lat="42.218465" lon="2.979328">
        <ele>35</ele>
        <time>2019-08-19T02:14:34Z</time>
      </trkpt>
      <trkpt lat="42.218446" lon="2.979264">
        <ele>35</ele>
        <time>2019-08-19T02:14:35Z</time>
      </trkpt>
      <trkpt lat="42.218426" lon="2.979199">
        <ele>35</ele>
        <time>2019-08-19T02:14:36Z</time>
      </trkpt>
      <trkpt lat="42.218407" lon="2.979135">
        <ele>35</ele>
        <time>2019-08-19T02:14:37Z</time>
      </trkpt>
      <trkpt lat="42.218376" lon="2.979021">
        <ele>35</ele>
        <time>2019-08-19T02:14:38Z</time>
      </trkpt>
      <trkpt lat="42.218361" lon="2.978967">
        <ele>35</ele>
        <time>2019-08-19T02:14:39Z</time>
      </trkpt>
      <trkpt lat="42.218347" lon="2.978912">
        <ele>35</ele>
        <time>2019-08-19T02:14:40Z</time>
      </trkpt>
      <trkpt lat="42.218332" lon="2.978857">
        <ele>35</ele>
        <time>2019-08-19T02:14:41Z</time>
      </trkpt>
      <trkpt lat="42.218318" lon="2.978802">
        <ele>35</ele>
        <time>2019-08-19T02:14:42Z</time>
      </trkpt>
      <trkpt lat="42.218304" lon="2.978748">
        <ele>35</ele>
        <time>2019-08-19T02:14:43Z</time>
      </trkpt>
      <trkpt lat="42.218289" lon="2.978693">
        <ele>35</ele>
        <time>2019-08-19T02:14:44Z</time>
      </trkpt>
      <trkpt lat="42.218275" lon="2.978638">
        <ele>35</ele>
        <time>2019-08-19T02:14:45Z</time>
      </trkpt>
      <trkpt lat="42.21826" lon="2.978584">
        <ele>35</ele>
        <time>2019-08-19T02:14:46Z</time>
      </trkpt>
      <trkpt lat="42.218246" lon="2.978529">
        <ele>35</ele>
        <time>2019-08-19T02:14:47Z</time>
      </trkpt>
      <trkpt lat="42.218214" lon="2.978401">
        <ele>35</ele>
        <time>2019-08-19T02:14:48Z</time>
      </trkpt>
      <trkpt lat="42.218197" lon="2.978332">
        <ele>35</ele>
        <time>2019-08-19T02:14:49Z</time>
      </trkpt>
      <trkpt lat="42.218181" lon="2.978263">
        <ele>35</ele>
        <time>2019-08-19T02:14:51Z</time>
      </trkpt>
      <trkpt lat="42.218164" lon="2.978194">
        <ele>35</ele>
        <time>2019-08-19T02:14:52Z</time>
      </trkpt>
      <trkpt lat="42.218148" lon="2.978125">
        <ele>35</ele>
        <time>2019-08-19T02:14:53Z</time>
      </trkpt>
      <trkpt lat="42.218131" lon="2.978056">
        <ele>35</ele>
        <time>2019-08-19T02:14:55Z</time>
      </trkpt>
      <trkpt lat="42.218115" lon="2.977987">
        <ele>35</ele>
        <time>2019-08-19T02:14:56Z</time>
      </trkpt>
      <trkpt lat="42.218098" lon="2.977918">
        <ele>35</ele>
        <time>2019-08-19T02:14:57Z</time>
      </trkpt>
      <trkpt lat="42.218062" lon="2.977759">
        <ele>35</ele>
        <time>2019-08-19T02:14:58Z</time>
      </trkpt>
      <trkpt lat="42.218039" lon="2.977665">
        <ele>35</ele>
        <time>2019-08-19T02:14:59Z</time>
      </trkpt>
      <trkpt lat="42.218017" lon="2.977571">
        <ele>35</ele>
        <time>2019-08-19T02:15:00Z</time>
      </trkpt>
      <trkpt lat="42.217995" lon="2.977478">
        <ele>35</ele>
        <time>2019-08-19T02:15:04Z</time>
      </trkpt>
      <trkpt lat="42.217972" lon="2.977384">
        <ele>35</ele>
        <time>2019-08-19T02:15:06Z</time>
      </trkpt>
      <trkpt lat="42.21795" lon="2.97729">
        <ele>35</ele>
        <time>2019-08-19T02:15:07Z</time>
      </trkpt>
      <trkpt lat="42.217913" lon="2.977168">
        <ele>35</ele>
        <time>2019-08-19T02:15:08Z</time>
      </trkpt>
      <trkpt lat="42.21789" lon="2.977108">
        <ele>35</ele>
        <time>2019-08-19T02:15:10Z</time>
      </trkpt>
      <trkpt lat="42.217868" lon="2.977047">
        <ele>35</ele>
        <time>2019-08-19T02:15:12Z</time>
      </trkpt>
      <trkpt lat="42.217846" lon="2.976987">
        <ele>35</ele>
        <time>2019-08-19T02:15:13Z</time>
      </trkpt>
      <trkpt lat="42.217823" lon="2.976926">
        <ele>35</ele>
        <time>2019-08-19T02:15:14Z</time>
      </trkpt>
      <trkpt lat="42.217801" lon="2.976866">
        <ele>35</ele>
        <time>2019-08-19T02:15:15Z</time>
      </trkpt>
      <trkpt lat="42.217778" lon="2.976805">
        <ele>35</ele>
        <time>2019-08-19T02:15:16Z</time>
      </trkpt>
      <trkpt lat="42.217756" lon="2.976745">
        <ele>36</ele>
        <time>2019-08-19T02:15:17Z</time>
      </trkpt>
      <trkpt lat="42.217712" lon="2.976656">
        <ele>36</ele>
        <time>2019-08-19T02:15:18Z</time>
      </trkpt>
      <trkpt lat="42.21769" lon="2.976616">
        <ele>36</ele>
        <time>2019-08-19T02:15:19Z</time>
      </trkpt>
      <trkpt lat="42.217669" lon="2.976575">
        <ele>36</ele>
        <time>2019-08-19T02:15:20Z</time>
      </trkpt>
      <trkpt lat="42.217647" lon="2.976535">
        <ele>36</ele>
        <time>2019-08-19T02:15:21Z</time>
      </trkpt>
      <trkpt lat="42.217626" lon="2.976494">
        <ele>36</ele>
        <time>2019-08-19T02:15:22Z</time>
      </trkpt>
      <trkpt lat="42.217605" lon="2.976454">
        <ele>36</ele>
        <time>2019-08-19T02:15:23Z</time>
      </trkpt>
      <trkpt lat="42.217583" lon="2.976413">
        <ele>36</ele>
        <time>2019-08-19T02:15:24Z</time>
      </trkpt>
      <trkpt lat="42.217562" lon="2.976373">
        <ele>36</ele>
        <time>2019-08-19T02:15:25Z</time>
      </trkpt>
      <trkpt lat="42.21754" lon="2.976332">
        <ele>36</ele>
        <time>2019-08-19T02:15:26Z</time>
      </trkpt>
      <trkpt lat="42.217519" lon="2.976292">
        <ele>36</ele>
        <time>2019-08-19T02:15:27Z</time>
      </trkpt>
      <trkpt lat="42.217484" lon="2.976196">
        <ele>36</ele>
        <time>2019-08-19T02:15:28Z</time>
      </trkpt>
      <trkpt lat="42.217469" lon="2.976149">
        <ele>36</ele>
        <time>2019-08-19T02:15:29Z</time>
      </trkpt>
      <trkpt lat="42.217455" lon="2.976101">
        <ele>36</ele>
        <time>2019-08-19T02:15:30Z</time>
      </trkpt>
      <trkpt lat="42.21744" lon="2.976054">
        <ele>36</ele>
        <time>2019-08-19T02:15:31Z</time>
      </trkpt>
      <trkpt lat="42.217426" lon="2.976006">
        <ele>36</ele>
        <time>2019-08-19T02:15:32Z</time>
      </trkpt>
      <trkpt lat="42.217411" lon="2.975959">
        <ele>36</ele>
        <time>2019-08-19T02:15:33Z</time>
      </trkpt>
      <trkpt lat="42.217397" lon="2.975911">
        <ele>36</ele>
        <time>2019-08-19T02:15:34Z</time>
      </trkpt>
      <trkpt lat="42.217382" lon="2.975864">
        <ele>36</ele>
        <time>2019-08-19T02:15:35Z</time>
      </trkpt>
      <trkpt lat="42.217368" lon="2.975816">
        <ele>36</ele>
        <time>2019-08-19T02:15:36Z</time>
      </trkpt>
      <trkpt lat="42.217353" lon="2.975769">
        <ele>36</ele>
        <time>2019-08-19T02:15:37Z</time>
      </trkpt>
      <trkpt lat="42.217321" lon="2.97566">
        <ele>36</ele>
        <time>2019-08-19T02:15:38Z</time>
      </trkpt>
      <trkpt lat="42.217305" lon="2.975605">
        <ele>36</ele>
        <time>2019-08-19T02:15:40Z</time>
      </trkpt>
      <trkpt lat="42.217288" lon="2.975551">
        <ele>36</ele>
        <time>2019-08-19T02:15:41Z</time>
      </trkpt>
      <trkpt lat="42.217272" lon="2.975496">
        <ele>36</ele>
        <time>2019-08-19T02:15:42Z</time>
      </trkpt>
      <trkpt lat="42.217255" lon="2.975442">
        <ele>36</ele>
        <time>2019-08-19T02:15:43Z</time>
      </trkpt>
      <trkpt lat="42.217239" lon="2.975387">
        <ele>36</ele>
        <time>2019-08-19T02:15:44Z</time>
      </trkpt>
      <trkpt lat="42.217222" lon="2.975333">
        <ele>36</ele>
        <time>2019-08-19T02:15:45Z</time>
      </trkpt>
      <trkpt lat="42.217206" lon="2.975278">
        <ele>36</ele>
        <time>2019-08-19T02:15:46Z</time>
      </trkpt>
      <trkpt lat="42.217189" lon="2.975224">
        <ele>37</ele>
        <time>2019-08-19T02:15:47Z</time>
      </trkpt>
      <trkpt lat="42.217158" lon="2.975123">
        <ele>37</ele>
        <time>2019-08-19T02:15:48Z</time>
      </trkpt>
      <trkpt lat="42.217143" lon="2.975075">
        <ele>37</ele>
        <time>2019-08-19T02:15:49Z</time>
      </trkpt>
      <trkpt lat="42.217129" lon="2.975026">
        <ele>37</ele>
        <time>2019-08-19T02:15:50Z</time>
      </trkpt>
      <trkpt lat="42.217115" lon="2.974977">
        <ele>37</ele>
        <time>2019-08-19T02:15:51Z</time>
      </trkpt>
      <trkpt lat="42.217101" lon="2.974928">
        <ele>37</ele>
        <time>2019-08-19T02:15:52Z</time>
      </trkpt>
      <trkpt lat="42.217086" lon="2.97488">
        <ele>37</ele>
        <time>2019-08-19T02:15:53Z</time>
      </trkpt>
      <trkpt lat="42.217072" lon="2.974831">
        <ele>37</ele>
        <time>2019-08-19T02:15:54Z</time>
      </trkpt>
      <trkpt lat="42.217058" lon="2.974782">
        <ele>37</ele>
        <time>2019-08-19T02:15:55Z</time>
      </trkpt>
      <trkpt lat="42.217043" lon="2.974734">
        <ele>37</ele>
        <time>2019-08-19T02:15:56Z</time>
      </trkpt>
      <trkpt lat="42.217029" lon="2.974685">
        <ele>37</ele>
        <time>2019-08-19T02:15:57Z</time>
      </trkpt>
      <trkpt lat="42.216994" lon="2.974569">
        <ele>37</ele>
        <time>2019-08-19T02:15:58Z</time>
      </trkpt>
      <trkpt lat="42.216976" lon="2.974507">
        <ele>37</ele>
        <time>2019-08-19T02:15:59Z</time>
      </trkpt>
      <trkpt lat="42.216957" lon="2.974446">
        <ele>37</ele>
        <time>2019-08-19T02:16:00Z</time>
      </trkpt>
      <trkpt lat="42.216938" lon="2.974384">
        <ele>37</ele>
        <time>2019-08-19T02:16:01Z</time>
      </trkpt>
      <trkpt lat="42.216919" lon="2.974323">
        <ele>37</ele>
        <time>2019-08-19T02:16:03Z</time>
      </trkpt>
      <trkpt lat="42.216901" lon="2.974262">
        <ele>37</ele>
        <time>2019-08-19T02:16:04Z</time>
      </trkpt>
      <trkpt lat="42.216882" lon="2.9742">
        <ele>37</ele>
        <time>2019-08-19T02:16:05Z</time>
      </trkpt>
      <trkpt lat="42.216863" lon="2.974139">
        <ele>38</ele>
        <time>2019-08-19T02:16:07Z</time>
      </trkpt>
      <trkpt lat="42.21683" lon="2.974036">
        <ele>38</ele>
        <time>2019-08-19T02:16:08Z</time>
      </trkpt>
      <trkpt lat="42.216813" lon="2.973985">
        <ele>38</ele>
        <time>2019-08-19T02:16:09Z</time>
      </trkpt>
      <trkpt lat="42.216797" lon="2.973935">
        <ele>38</ele>
        <time>2019-08-19T02:16:10Z</time>
      </trkpt>
      <trkpt lat="42.21678" lon="2.973885">
        <ele>38</ele>
        <time>2019-08-19T02:16:11Z</time>
      </trkpt>
      <trkpt lat="42.216764" lon="2.973834">
        <ele>38</ele>
        <time>2019-08-19T02:16:12Z</time>
      </trkpt>
      <trkpt lat="42.216747" lon="2.973784">
        <ele>38</ele>
        <time>2019-08-19T02:16:13Z</time>
      </trkpt>
      <trkpt lat="42.216731" lon="2.973734">
        <ele>38</ele>
        <time>2019-08-19T02:16:14Z</time>
      </trkpt>
      <trkpt lat="42.216714" lon="2.973684">
        <ele>38</ele>
        <time>2019-08-19T02:16:15Z</time>
      </trkpt>
      <trkpt lat="42.216698" lon="2.973633">
        <ele>38</ele>
        <time>2019-08-19T02:16:16Z</time>
      </trkpt>
      <trkpt lat="42.216681" lon="2.973583">
        <ele>38</ele>
        <time>2019-08-19T02:16:17Z</time>
      </trkpt>
      <trkpt lat="42.216641" lon="2.973471">
        <ele>38</ele>
        <time>2019-08-19T02:16:18Z</time>
      </trkpt>
      <trkpt lat="42.216622" lon="2.973416">
        <ele>38</ele>
        <time>2019-08-19T02:16:19Z</time>
      </trkpt>
      <trkpt lat="42.216603" lon="2.97336">
        <ele>38</ele>
        <time>2019-08-19T02:16:20Z</time>
      </trkpt>
      <trkpt lat="42.216584" lon="2.973304">
        <ele>38</ele>
        <time>2019-08-19T02:16:21Z</time>
      </trkpt>
      <trkpt lat="42.216566" lon="2.973249">
        <ele>38</ele>
        <time>2019-08-19T02:16:22Z</time>
      </trkpt>
      <trkpt lat="42.216547" lon="2.973193">
        <ele>38</ele>
        <time>2019-08-19T02:16:23Z</time>
      </trkpt>
      <trkpt lat="42.216528" lon="2.973137">
        <ele>38</ele>
        <time>2019-08-19T02:16:24Z</time>
      </trkpt>
      <trkpt lat="42.216509" lon="2.973082">
        <ele>38</ele>
        <time>2019-08-19T02:16:26Z</time>
      </trkpt>
      <trkpt lat="42.21649" lon="2.973026">
        <ele>38</ele>
        <time>2019-08-19T02:16:27Z</time>
      </trkpt>
      <trkpt lat="42.21647" lon="2.972915">
        <ele>38</ele>
        <time>2019-08-19T02:16:28Z</time>
      </trkpt>
      <trkpt lat="42.216464" lon="2.97286">
        <ele>38</ele>
        <time>2019-08-19T02:16:29Z</time>
      </trkpt>
      <trkpt lat="42.216457" lon="2.972805">
        <ele>38</ele>
        <time>2019-08-19T02:16:30Z</time>
      </trkpt>
      <trkpt lat="42.216451" lon="2.97275">
        <ele>38</ele>
        <time>2019-08-19T02:16:31Z</time>
      </trkpt>
      <trkpt lat="42.216445" lon="2.972695">
        <ele>38</ele>
        <time>2019-08-19T02:16:32Z</time>
      </trkpt>
      <trkpt lat="42.216439" lon="2.972641">
        <ele>38</ele>
        <time>2019-08-19T02:16:33Z</time>
      </trkpt>
      <trkpt lat="42.216433" lon="2.972586">
        <ele>38</ele>
        <time>2019-08-19T02:16:34Z</time>
      </trkpt>
      <trkpt lat="42.216426" lon="2.972531">
        <ele>38</ele>
        <time>2019-08-19T02:16:35Z</time>
      </trkpt>
      <trkpt lat="42.21642" lon="2.972476">
        <ele>38</ele>
        <time>2019-08-19T02:16:36Z</time>
      </trkpt>
      <trkpt lat="42.216414" lon="2.972421">
        <ele>39</ele>
        <time>2019-08-19T02:16:37Z</time>
      </trkpt>
      <trkpt lat="42.216418" lon="2.972313">
        <ele>39</ele>
        <time>2019-08-19T02:16:38Z</time>
      </trkpt>
      <trkpt lat="42.216427" lon="2.972258">
        <ele>39</ele>
        <time>2019-08-19T02:16:39Z</time>
      </trkpt>
      <trkpt lat="42.216435" lon="2.972204">
        <ele>39</ele>
        <time>2019-08-19T02:16:40Z</time>
      </trkpt>
      <trkpt lat="42.216444" lon="2.972149">
        <ele>39</ele>
        <time>2019-08-19T02:16:41Z</time>
      </trkpt>
      <trkpt lat="42.216452" lon="2.972095">
        <ele>39</ele>
        <time>2019-08-19T02:16:42Z</time>
      </trkpt>
      <trkpt lat="42.216461" lon="2.97204">
        <ele>39</ele>
        <time>2019-08-19T02:16:43Z</time>
      </trkpt>
      <trkpt lat="42.216469" lon="2.971986">
        <ele>39</ele>
        <time>2019-08-19T02:16:45Z</time>
      </trkpt>
      <trkpt lat="42.216478" lon="2.971931">
        <ele>39</ele>
        <time>2019-08-19T02:16:46Z</time>
      </trkpt>
      <trkpt lat="42.216486" lon="2.971877">
        <ele>39</ele>
        <time>2019-08-19T02:16:47Z</time>
      </trkpt>
      <trkpt lat="42.216552" lon="2.971783">
        <ele>39</ele>
        <time>2019-08-19T02:16:48Z</time>
      </trkpt>
      <trkpt lat="42.216586" lon="2.97174">
        <ele>39</ele>
        <time>2019-08-19T02:16:49Z</time>
      </trkpt>
      <trkpt lat="42.216621" lon="2.971696">
        <ele>39</ele>
        <time>2019-08-19T02:16:50Z</time>
      </trkpt>
      <trkpt lat="42.216655" lon="2.971653">
        <ele>39</ele>
        <time>2019-08-19T02:16:51Z</time>
      </trkpt>
      <trkpt lat="42.21669" lon="2.971609">
        <ele>39</ele>
        <time>2019-08-19T02:16:52Z</time>
      </trkpt>
      <trkpt lat="42.216724" lon="2.971565">
        <ele>39</ele>
        <time>2019-08-19T02:16:53Z</time>
      </trkpt>
      <trkpt lat="42.216759" lon="2.971522">
        <ele>39</ele>
        <time>2019-08-19T02:16:54Z</time>
      </trkpt>
      <trkpt lat="42.216793" lon="2.971478">
        <ele>39</ele>
        <time>2019-08-19T02:16:55Z</time>
      </trkpt>
      <trkpt lat="42.216828" lon="2.971435">
        <ele>39</ele>
        <time>2019-08-19T02:16:56Z</time>
      </trkpt>
      <trkpt lat="42.216862" lon="2.971391">
        <ele>39</ele>
        <time>2019-08-19T02:16:58Z</time>
      </trkpt>
      <trkpt lat="42.216935" lon="2.971299">
        <ele>39</ele>
        <time>2019-08-19T02:16:59Z</time>
      </trkpt>
      <trkpt lat="42.216965" lon="2.971245">
        <ele>39</ele>
        <time>2019-08-19T02:17:00Z</time>
      </trkpt>
      <trkpt lat="42.216995" lon="2.97119">
        <ele>39</ele>
        <time>2019-08-19T02:17:01Z</time>
      </trkpt>
      <trkpt lat="42.217025" lon="2.971136">
        <ele>39</ele>
        <time>2019-08-19T02:17:02Z</time>
      </trkpt>
      <trkpt lat="42.217055" lon="2.971081">
        <ele>39</ele>
        <time>2019-08-19T02:17:04Z</time>
      </trkpt>
      <trkpt lat="42.217085" lon="2.971026">
        <ele>39</ele>
        <time>2019-08-19T02:17:05Z</time>
      </trkpt>
      <trkpt lat="42.217115" lon="2.970972">
        <ele>39</ele>
        <time>2019-08-19T02:17:06Z</time>
      </trkpt>
      <trkpt lat="42.217145" lon="2.970917">
        <ele>39</ele>
        <time>2019-08-19T02:17:08Z</time>
      </trkpt>
      <trkpt lat="42.217152" lon="2.970822">
        <ele>39</ele>
        <time>2019-08-19T02:17:09Z</time>
      </trkpt>
      <trkpt lat="42.217143" lon="2.970782">
        <ele>39</ele>
        <time>2019-08-19T02:17:10Z</time>
      </trkpt>
      <trkpt lat="42.217134" lon="2.970741">
        <ele>39</ele>
        <time>2019-08-19T02:17:11Z</time>
      </trkpt>
      <trkpt lat="42.217125" lon="2.9707">
        <ele>39</ele>
        <time>2019-08-19T02:17:12Z</time>
      </trkpt>
      <trkpt lat="42.217116" lon="2.97066">
        <ele>39</ele>
        <time>2019-08-19T02:17:13Z</time>
      </trkpt>
      <trkpt lat="42.217107" lon="2.970619">
        <ele>39</ele>
        <time>2019-08-19T02:17:14Z</time>
      </trkpt>
      <trkpt lat="42.217098" lon="2.970578">
        <ele>39</ele>
        <time>2019-08-19T02:17:15Z</time>
      </trkpt>
      <trkpt lat="42.217089" lon="2.970538">
        <ele>39</ele>
        <time>2019-08-19T02:17:16Z</time>
      </trkpt>
      <trkpt lat="42.21708" lon="2.970497">
        <ele>40</ele>
        <time>2019-08-19T02:17:17Z</time>
      </trkpt>
      <trkpt lat="42.217064" lon="2.97042">
        <ele>40</ele>
        <time>2019-08-19T02:17:18Z</time>
      </trkpt>
      <trkpt lat="42.217061" lon="2.970381">
        <ele>40</ele>
        <time>2019-08-19T02:17:19Z</time>
      </trkpt>
      <trkpt lat="42.217058" lon="2.970342">
        <ele>40</ele>
        <time>2019-08-19T02:17:20Z</time>
      </trkpt>
      <trkpt lat="42.217055" lon="2.970303">
        <ele>40</ele>
        <time>2019-08-19T02:17:22Z</time>
      </trkpt>
      <trkpt lat="42.217051" lon="2.970263">
        <ele>40</ele>
        <time>2019-08-19T02:17:23Z</time>
      </trkpt>
      <trkpt lat="42.217048" lon="2.970224">
        <ele>40</ele>
        <time>2019-08-19T02:17:24Z</time>
      </trkpt>
      <trkpt lat="42.217045" lon="2.970185">
        <ele>40</ele>
        <time>2019-08-19T02:17:25Z</time>
      </trkpt>
      <trkpt lat="42.217042" lon="2.970146">
        <ele>40</ele>
        <time>2019-08-19T02:17:26Z</time>
      </trkpt>
      <trkpt lat="42.217039" lon="2.970107">
        <ele>40</ele>
        <time>2019-08-19T02:17:27Z</time>
      </trkpt>
      <trkpt lat="42.217048" lon="2.97002">
        <ele>40</ele>
        <time>2019-08-19T02:17:28Z</time>
      </trkpt>
      <trkpt lat="42.217054" lon="2.969976">
        <ele>40</ele>
        <time>2019-08-19T02:17:29Z</time>
      </trkpt>
      <trkpt lat="42.21706" lon="2.969931">
        <ele>40</ele>
        <time>2019-08-19T02:17:30Z</time>
      </trkpt>
      <trkpt lat="42.217066" lon="2.969887">
        <ele>40</ele>
        <time>2019-08-19T02:17:31Z</time>
      </trkpt>
      <trkpt lat="42.217072" lon="2.969843">
        <ele>40</ele>
        <time>2019-08-19T02:17:32Z</time>
      </trkpt>
      <trkpt lat="42.217078" lon="2.969799">
        <ele>40</ele>
        <time>2019-08-19T02:17:33Z</time>
      </trkpt>
      <trkpt lat="42.217084" lon="2.969755">
        <ele>40</ele>
        <time>2019-08-19T02:17:34Z</time>
      </trkpt>
      <trkpt lat="42.21709" lon="2.96971">
        <ele>40</ele>
        <time>2019-08-19T02:17:35Z</time>
      </trkpt>
      <trkpt lat="42.217096" lon="2.969666">
        <ele>40</ele>
        <time>2019-08-19T02:17:36Z</time>
      </trkpt>
      <trkpt lat="42.217102" lon="2.969622">
        <ele>39</ele>
        <time>2019-08-19T02:17:38Z</time>
      </trkpt>
      <trkpt lat="42.217107" lon="2.969515">
        <ele>39</ele>
        <time>2019-08-19T02:17:39Z</time>
      </trkpt>
      <trkpt lat="42.217107" lon="2.969461">
        <ele>39</ele>
        <time>2019-08-19T02:17:40Z</time>
      </trkpt>
      <trkpt lat="42.217108" lon="2.969407">
        <ele>39</ele>
        <time>2019-08-19T02:17:42Z</time>
      </trkpt>
      <trkpt lat="42.217109" lon="2.969353">
        <ele>39</ele>
        <time>2019-08-19T02:17:43Z</time>
      </trkpt>
      <trkpt lat="42.217109" lon="2.969299">
        <ele>39</ele>
        <time>2019-08-19T02:17:44Z</time>
      </trkpt>
      <trkpt lat="42.21711" lon="2.969245">
        <ele>39</ele>
        <time>2019-08-19T02:17:45Z</time>
      </trkpt>
      <trkpt lat="42.21711" lon="2.969191">
        <ele>39</ele>
        <time>2019-08-19T02:17:46Z</time>
      </trkpt>
      <trkpt lat="42.217111" lon="2.969137">
        <ele>40</ele>
        <time>2019-08-19T02:17:47Z</time>
      </trkpt>
      <trkpt lat="42.217118" lon="2.969024">
        <ele>40</ele>
        <time>2019-08-19T02:17:48Z</time>
      </trkpt>
      <trkpt lat="42.217121" lon="2.968966">
        <ele>40</ele>
        <time>2019-08-19T02:17:49Z</time>
      </trkpt>
      <trkpt lat="42.217124" lon="2.968908">
        <ele>40</ele>
        <time>2019-08-19T02:17:51Z</time>
      </trkpt>
      <trkpt lat="42.217127" lon="2.96885">
        <ele>40</ele>
        <time>2019-08-19T02:17:52Z</time>
      </trkpt>
      <trkpt lat="42.21713" lon="2.968792">
        <ele>40</ele>
        <time>2019-08-19T02:17:53Z</time>
      </trkpt>
      <trkpt lat="42.217133" lon="2.968734">
        <ele>40</ele>
        <time>2019-08-19T02:17:54Z</time>
      </trkpt>
      <trkpt lat="42.217136" lon="2.968676">
        <ele>40</ele>
        <time>2019-08-19T02:17:55Z</time>
      </trkpt>
      <trkpt lat="42.217139" lon="2.968618">
        <ele>40</ele>
        <time>2019-08-19T02:17:56Z</time>
      </trkpt>
      <trkpt lat="42.217142" lon="2.96856">
        <ele>41</ele>
        <time>2019-08-19T02:17:57Z</time>
      </trkpt>
      <trkpt lat="42.217146" lon="2.968438">
        <ele>41</ele>
        <time>2019-08-19T02:17:58Z</time>
      </trkpt>
      <trkpt lat="42.217152" lon="2.968381">
        <ele>41</ele>
        <time>2019-08-19T02:17:59Z</time>
      </trkpt>
      <trkpt lat="42.217157" lon="2.968323">
        <ele>41</ele>
        <time>2019-08-19T02:18:01Z</time>
      </trkpt>
      <trkpt lat="42.217162" lon="2.968265">
        <ele>41</ele>
        <time>2019-08-19T02:18:02Z</time>
      </trkpt>
      <trkpt lat="42.217168" lon="2.968208">
        <ele>41</ele>
        <time>2019-08-19T02:18:03Z</time>
      </trkpt>
      <trkpt lat="42.217173" lon="2.96815">
        <ele>41</ele>
        <time>2019-08-19T02:18:04Z</time>
      </trkpt>
      <trkpt lat="42.217178" lon="2.968092">
        <ele>41</ele>
        <time>2019-08-19T02:18:05Z</time>
      </trkpt>
      <trkpt lat="42.217184" lon="2.968035">
        <ele>41</ele>
        <time>2019-08-19T02:18:06Z</time>
      </trkpt>
      <trkpt lat="42.217189" lon="2.967977">
        <ele>41</ele>
        <time>2019-08-19T02:18:07Z</time>
      </trkpt>
      <trkpt lat="42.217205" lon="2.967861">
        <ele>41</ele>
        <time>2019-08-19T02:18:08Z</time>
      </trkpt>
      <trkpt lat="42.217214" lon="2.967803">
        <ele>41</ele>
        <time>2019-08-19T02:18:09Z</time>
      </trkpt>
      <trkpt lat="42.217222" lon="2.967744">
        <ele>41</ele>
        <time>2019-08-19T02:18:10Z</time>
      </trkpt>
      <trkpt lat="42.217231" lon="2.967686">
        <ele>41</ele>
        <time>2019-08-19T02:18:11Z</time>
      </trkpt>
      <trkpt lat="42.21724" lon="2.967628">
        <ele>41</ele>
        <time>2019-08-19T02:18:12Z</time>
      </trkpt>
      <trkpt lat="42.217249" lon="2.96757">
        <ele>41</ele>
        <time>2019-08-19T02:18:14Z</time>
      </trkpt>
      <trkpt lat="42.217257" lon="2.967511">
        <ele>41</ele>
        <time>2019-08-19T02:18:15Z</time>
      </trkpt>
      <trkpt lat="42.217266" lon="2.967453">
        <ele>41</ele>
        <time>2019-08-19T02:18:16Z</time>
      </trkpt>
      <trkpt lat="42.217275" lon="2.967395">
        <ele>41</ele>
        <time>2019-08-19T02:18:17Z</time>
      </trkpt>
      <trkpt lat="42.217296" lon="2.967267">
        <ele>41</ele>
        <time>2019-08-19T02:18:18Z</time>
      </trkpt>
      <trkpt lat="42.217308" lon="2.967199">
        <ele>41</ele>
        <time>2019-08-19T02:18:20Z</time>
      </trkpt>
      <trkpt lat="42.21732" lon="2.96713">
        <ele>41</ele>
        <time>2019-08-19T02:18:21Z</time>
      </trkpt>
      <trkpt lat="42.217333" lon="2.967062">
        <ele>41</ele>
        <time>2019-08-19T02:18:22Z</time>
      </trkpt>
      <trkpt lat="42.217345" lon="2.966993">
        <ele>41</ele>
        <time>2019-08-19T02:18:23Z</time>
      </trkpt>
      <trkpt lat="42.217357" lon="2.966924">
        <ele>41</ele>
        <time>2019-08-19T02:18:25Z</time>
      </trkpt>
      <trkpt lat="42.217369" lon="2.966856">
        <ele>41</ele>
        <time>2019-08-19T02:18:26Z</time>
      </trkpt>
      <trkpt lat="42.217381" lon="2.966787">
        <ele>43</ele>
        <time>2019-08-19T02:18:27Z</time>
      </trkpt>
      <trkpt lat="42.217409" lon="2.966659">
        <ele>43</ele>
        <time>2019-08-19T02:18:28Z</time>
      </trkpt>
      <trkpt lat="42.217425" lon="2.966594">
        <ele>43</ele>
        <time>2019-08-19T02:18:29Z</time>
      </trkpt>
      <trkpt lat="42.21744" lon="2.966529">
        <ele>43</ele>
        <time>2019-08-19T02:18:30Z</time>
      </trkpt>
      <trkpt lat="42.217456" lon="2.966464">
        <ele>43</ele>
        <time>2019-08-19T02:18:31Z</time>
      </trkpt>
      <trkpt lat="42.217471" lon="2.9664">
        <ele>43</ele>
        <time>2019-08-19T02:18:32Z</time>
      </trkpt>
      <trkpt lat="42.217487" lon="2.966335">
        <ele>43</ele>
        <time>2019-08-19T02:18:33Z</time>
      </trkpt>
      <trkpt lat="42.217502" lon="2.96627">
        <ele>43</ele>
        <time>2019-08-19T02:18:35Z</time>
      </trkpt>
      <trkpt lat="42.217518" lon="2.966205">
        <ele>43</ele>
        <time>2019-08-19T02:18:36Z</time>
      </trkpt>
      <trkpt lat="42.217533" lon="2.96614">
        <ele>43</ele>
        <time>2019-08-19T02:18:37Z</time>
      </trkpt>
      <trkpt lat="42.217586" lon="2.965947">
        <ele>43</ele>
        <time>2019-08-19T02:18:39Z</time>
      </trkpt>
      <trkpt lat="42.217605" lon="2.965882">
        <ele>43</ele>
        <time>2019-08-19T02:18:40Z</time>
      </trkpt>
      <trkpt lat="42.217625" lon="2.965817">
        <ele>43</ele>
        <time>2019-08-19T02:18:41Z</time>
      </trkpt>
      <trkpt lat="42.217644" lon="2.965753">
        <ele>43</ele>
        <time>2019-08-19T02:18:42Z</time>
      </trkpt>
      <trkpt lat="42.217664" lon="2.965688">
        <ele>43</ele>
        <time>2019-08-19T02:18:43Z</time>
      </trkpt>
      <trkpt lat="42.217683" lon="2.965623">
        <ele>43</ele>
        <time>2019-08-19T02:18:45Z</time>
      </trkpt>
      <trkpt lat="42.217703" lon="2.965558">
        <ele>43</ele>
        <time>2019-08-19T02:18:46Z</time>
      </trkpt>
      <trkpt lat="42.217722" lon="2.965493">
        <ele>42</ele>
        <time>2019-08-19T02:18:47Z</time>
      </trkpt>
      <trkpt lat="42.217759" lon="2.965365">
        <ele>42</ele>
        <time>2019-08-19T02:18:48Z</time>
      </trkpt>
      <trkpt lat="42.217778" lon="2.965302">
        <ele>42</ele>
        <time>2019-08-19T02:18:49Z</time>
      </trkpt>
      <trkpt lat="42.217796" lon="2.96524">
        <ele>42</ele>
        <time>2019-08-19T02:18:50Z</time>
      </trkpt>
      <trkpt lat="42.217815" lon="2.965177">
        <ele>42</ele>
        <time>2019-08-19T02:18:51Z</time>
      </trkpt>
      <trkpt lat="42.217834" lon="2.965115">
        <ele>42</ele>
        <time>2019-08-19T02:18:52Z</time>
      </trkpt>
      <trkpt lat="42.217853" lon="2.965052">
        <ele>42</ele>
        <time>2019-08-19T02:18:53Z</time>
      </trkpt>
      <trkpt lat="42.217871" lon="2.96499">
        <ele>42</ele>
        <time>2019-08-19T02:18:55Z</time>
      </trkpt>
      <trkpt lat="42.21789" lon="2.964927">
        <ele>42</ele>
        <time>2019-08-19T02:18:56Z</time>
      </trkpt>
      <trkpt lat="42.217909" lon="2.964865">
        <ele>44</ele>
        <time>2019-08-19T02:18:57Z</time>
      </trkpt>
      <trkpt lat="42.217943" lon="2.96475">
        <ele>44</ele>
        <time>2019-08-19T02:18:58Z</time>
      </trkpt>
      <trkpt lat="42.217958" lon="2.964695">
        <ele>44</ele>
        <time>2019-08-19T02:18:59Z</time>
      </trkpt>
      <trkpt lat="42.217974" lon="2.964641">
        <ele>44</ele>
        <time>2019-08-19T02:19:00Z</time>
      </trkpt>
      <trkpt lat="42.217989" lon="2.964586">
        <ele>44</ele>
        <time>2019-08-19T02:19:01Z</time>
      </trkpt>
      <trkpt lat="42.218005" lon="2.964532">
        <ele>44</ele>
        <time>2019-08-19T02:19:02Z</time>
      </trkpt>
      <trkpt lat="42.21802" lon="2.964477">
        <ele>44</ele>
        <time>2019-08-19T02:19:03Z</time>
      </trkpt>
      <trkpt lat="42.218036" lon="2.964423">
        <ele>44</ele>
        <time>2019-08-19T02:19:04Z</time>
      </trkpt>
      <trkpt lat="42.218051" lon="2.964368">
        <ele>44</ele>
        <time>2019-08-19T02:19:05Z</time>
      </trkpt>
      <trkpt lat="42.218067" lon="2.964314">
        <ele>44</ele>
        <time>2019-08-19T02:19:06Z</time>
      </trkpt>
      <trkpt lat="42.218082" lon="2.964259">
        <ele>44</ele>
        <time>2019-08-19T02:19:07Z</time>
      </trkpt>
      <trkpt lat="42.21811" lon="2.964134">
        <ele>44</ele>
        <time>2019-08-19T02:19:08Z</time>
      </trkpt>
      <trkpt lat="42.218126" lon="2.964071">
        <ele>44</ele>
        <time>2019-08-19T02:19:09Z</time>
      </trkpt>
      <trkpt lat="42.218141" lon="2.964007">
        <ele>44</ele>
        <time>2019-08-19T02:19:10Z</time>
      </trkpt>
      <trkpt lat="42.218156" lon="2.963944">
        <ele>44</ele>
        <time>2019-08-19T02:19:11Z</time>
      </trkpt>
      <trkpt lat="42.218172" lon="2.963881">
        <ele>44</ele>
        <time>2019-08-19T02:19:12Z</time>
      </trkpt>
      <trkpt lat="42.218187" lon="2.963818">
        <ele>44</ele>
        <time>2019-08-19T02:19:13Z</time>
      </trkpt>
      <trkpt lat="42.218202" lon="2.963754">
        <ele>44</ele>
        <time>2019-08-19T02:19:14Z</time>
      </trkpt>
      <trkpt lat="42.218218" lon="2.963691">
        <ele>44</ele>
        <time>2019-08-19T02:19:15Z</time>
      </trkpt>
      <trkpt lat="42.218233" lon="2.963628">
        <ele>44</ele>
        <time>2019-08-19T02:19:17Z</time>
      </trkpt>
      <trkpt lat="42.218261" lon="2.963498">
        <ele>44</ele>
        <time>2019-08-19T02:19:18Z</time>
      </trkpt>
      <trkpt lat="42.218275" lon="2.963433">
        <ele>44</ele>
        <time>2019-08-19T02:19:19Z</time>
      </trkpt>
      <trkpt lat="42.218288" lon="2.963367">
        <ele>44</ele>
        <time>2019-08-19T02:19:20Z</time>
      </trkpt>
      <trkpt lat="42.218301" lon="2.963302">
        <ele>44</ele>
        <time>2019-08-19T02:19:21Z</time>
      </trkpt>
      <trkpt lat="42.218315" lon="2.963237">
        <ele>44</ele>
        <time>2019-08-19T02:19:22Z</time>
      </trkpt>
      <trkpt lat="42.218328" lon="2.963172">
        <ele>44</ele>
        <time>2019-08-19T02:19:23Z</time>
      </trkpt>
      <trkpt lat="42.218341" lon="2.963106">
        <ele>44</ele>
        <time>2019-08-19T02:19:25Z</time>
      </trkpt>
      <trkpt lat="42.218355" lon="2.963041">
        <ele>44</ele>
        <time>2019-08-19T02:19:26Z</time>
      </trkpt>
      <trkpt lat="42.218368" lon="2.962976">
        <ele>44</ele>
        <time>2019-08-19T02:19:27Z</time>
      </trkpt>
      <trkpt lat="42.218394" lon="2.962848">
        <ele>44</ele>
        <time>2019-08-19T02:19:28Z</time>
      </trkpt>
      <trkpt lat="42.218408" lon="2.962784">
        <ele>44</ele>
        <time>2019-08-19T02:19:29Z</time>
      </trkpt>
      <trkpt lat="42.218421" lon="2.962721">
        <ele>44</ele>
        <time>2019-08-19T02:19:30Z</time>
      </trkpt>
      <trkpt lat="42.218434" lon="2.962657">
        <ele>44</ele>
        <time>2019-08-19T02:19:31Z</time>
      </trkpt>
      <trkpt lat="42.218448" lon="2.962594">
        <ele>44</ele>
        <time>2019-08-19T02:19:32Z</time>
      </trkpt>
      <trkpt lat="42.218461" lon="2.96253">
        <ele>44</ele>
        <time>2019-08-19T02:19:33Z</time>
      </trkpt>
      <trkpt lat="42.218474" lon="2.962467">
        <ele>44</ele>
        <time>2019-08-19T02:19:35Z</time>
      </trkpt>
      <trkpt lat="42.218488" lon="2.962403">
        <ele>44</ele>
        <time>2019-08-19T02:19:36Z</time>
      </trkpt>
      <trkpt lat="42.218501" lon="2.96234">
        <ele>44</ele>
        <time>2019-08-19T02:19:37Z</time>
      </trkpt>
      <trkpt lat="42.218523" lon="2.962216">
        <ele>44</ele>
        <time>2019-08-19T02:19:38Z</time>
      </trkpt>
      <trkpt lat="42.218534" lon="2.962153">
        <ele>44</ele>
        <time>2019-08-19T02:19:39Z</time>
      </trkpt>
      <trkpt lat="42.218544" lon="2.962091">
        <ele>44</ele>
        <time>2019-08-19T02:19:40Z</time>
      </trkpt>
      <trkpt lat="42.218555" lon="2.962028">
        <ele>44</ele>
        <time>2019-08-19T02:19:41Z</time>
      </trkpt>
      <trkpt lat="42.218565" lon="2.961966">
        <ele>44</ele>
        <time>2019-08-19T02:19:42Z</time>
      </trkpt>
      <trkpt lat="42.218576" lon="2.961903">
        <ele>44</ele>
        <time>2019-08-19T02:19:43Z</time>
      </trkpt>
      <trkpt lat="42.218586" lon="2.961841">
        <ele>44</ele>
        <time>2019-08-19T02:19:44Z</time>
      </trkpt>
      <trkpt lat="42.218597" lon="2.961778">
        <ele>44</ele>
        <time>2019-08-19T02:19:46Z</time>
      </trkpt>
      <trkpt lat="42.218607" lon="2.961716">
        <ele>45</ele>
        <time>2019-08-19T02:19:47Z</time>
      </trkpt>
      <trkpt lat="42.218625" lon="2.9616">
        <ele>45</ele>
        <time>2019-08-19T02:19:48Z</time>
      </trkpt>
      <trkpt lat="42.218635" lon="2.961541">
        <ele>45</ele>
        <time>2019-08-19T02:19:49Z</time>
      </trkpt>
      <trkpt lat="42.218644" lon="2.961482">
        <ele>45</ele>
        <time>2019-08-19T02:19:50Z</time>
      </trkpt>
      <trkpt lat="42.218654" lon="2.961423">
        <ele>45</ele>
        <time>2019-08-19T02:19:51Z</time>
      </trkpt>
      <trkpt lat="42.218663" lon="2.961363">
        <ele>45</ele>
        <time>2019-08-19T02:19:52Z</time>
      </trkpt>
      <trkpt lat="42.218673" lon="2.961304">
        <ele>45</ele>
        <time>2019-08-19T02:19:53Z</time>
      </trkpt>
      <trkpt lat="42.218682" lon="2.961245">
        <ele>45</ele>
        <time>2019-08-19T02:19:55Z</time>
      </trkpt>
      <trkpt lat="42.218692" lon="2.961186">
        <ele>45</ele>
        <time>2019-08-19T02:19:56Z</time>
      </trkpt>
      <trkpt lat="42.218701" lon="2.961127">
        <ele>45</ele>
        <time>2019-08-19T02:19:58Z</time>
      </trkpt>
      <trkpt lat="42.21872" lon="2.961015">
        <ele>45</ele>
        <time>2019-08-19T02:19:59Z</time>
      </trkpt>
      <trkpt lat="42.21873" lon="2.960961">
        <ele>45</ele>
        <time>2019-08-19T02:20:00Z</time>
      </trkpt>
      <trkpt lat="42.218739" lon="2.960908">
        <ele>45</ele>
        <time>2019-08-19T02:20:01Z</time>
      </trkpt>
      <trkpt lat="42.218748" lon="2.960854">
        <ele>45</ele>
        <time>2019-08-19T02:20:02Z</time>
      </trkpt>
      <trkpt lat="42.218758" lon="2.9608">
        <ele>45</ele>
        <time>2019-08-19T02:20:03Z</time>
      </trkpt>
      <trkpt lat="42.218767" lon="2.960746">
        <ele>45</ele>
        <time>2019-08-19T02:20:04Z</time>
      </trkpt>
      <trkpt lat="42.218776" lon="2.960693">
        <ele>45</ele>
        <time>2019-08-19T02:20:05Z</time>
      </trkpt>
      <trkpt lat="42.218786" lon="2.960639">
        <ele>45</ele>
        <time>2019-08-19T02:20:06Z</time>
      </trkpt>
      <trkpt lat="42.218795" lon="2.960585">
        <ele>45</ele>
        <time>2019-08-19T02:20:07Z</time>
      </trkpt>
      <trkpt lat="42.218818" lon="2.96047">
        <ele>45</ele>
        <time>2019-08-19T02:20:08Z</time>
      </trkpt>
      <trkpt lat="42.218832" lon="2.960415">
        <ele>45</ele>
        <time>2019-08-19T02:20:09Z</time>
      </trkpt>
      <trkpt lat="42.218845" lon="2.960361">
        <ele>45</ele>
        <time>2019-08-19T02:20:10Z</time>
      </trkpt>
      <trkpt lat="42.218858" lon="2.960306">
        <ele>45</ele>
        <time>2019-08-19T02:20:11Z</time>
      </trkpt>
      <trkpt lat="42.218872" lon="2.960252">
        <ele>45</ele>
        <time>2019-08-19T02:20:12Z</time>
      </trkpt>
      <trkpt lat="42.218885" lon="2.960197">
        <ele>45</ele>
        <time>2019-08-19T02:20:13Z</time>
      </trkpt>
      <trkpt lat="42.218898" lon="2.960143">
        <ele>45</ele>
        <time>2019-08-19T02:20:14Z</time>
      </trkpt>
      <trkpt lat="42.218911" lon="2.960088">
        <ele>45</ele>
        <time>2019-08-19T02:20:15Z</time>
      </trkpt>
      <trkpt lat="42.218925" lon="2.960034">
        <ele>45</ele>
        <time>2019-08-19T02:20:16Z</time>
      </trkpt>
      <trkpt lat="42.218938" lon="2.959979">
        <ele>46</ele>
        <time>2019-08-19T02:20:17Z</time>
      </trkpt>
      <trkpt lat="42.218975" lon="2.959867">
        <ele>46</ele>
        <time>2019-08-19T02:20:18Z</time>
      </trkpt>
      <trkpt lat="42.218992" lon="2.959814">
        <ele>46</ele>
        <time>2019-08-19T02:20:19Z</time>
      </trkpt>
      <trkpt lat="42.219009" lon="2.95976">
        <ele>46</ele>
        <time>2019-08-19T02:20:20Z</time>
      </trkpt>
      <trkpt lat="42.219026" lon="2.959707">
        <ele>46</ele>
        <time>2019-08-19T02:20:21Z</time>
      </trkpt>
      <trkpt lat="42.219043" lon="2.959654">
        <ele>46</ele>
        <time>2019-08-19T02:20:22Z</time>
      </trkpt>
      <trkpt lat="42.21906" lon="2.959601">
        <ele>46</ele>
        <time>2019-08-19T02:20:23Z</time>
      </trkpt>
      <trkpt lat="42.219077" lon="2.959548">
        <ele>46</ele>
        <time>2019-08-19T02:20:24Z</time>
      </trkpt>
      <trkpt lat="42.219094" lon="2.959494">
        <ele>46</ele>
        <time>2019-08-19T02:20:25Z</time>
      </trkpt>
      <trkpt lat="42.219111" lon="2.959441">
        <ele>46</ele>
        <time>2019-08-19T02:20:26Z</time>
      </trkpt>
      <trkpt lat="42.219128" lon="2.959388">
        <ele>47</ele>
        <time>2019-08-19T02:20:27Z</time>
      </trkpt>
      <trkpt lat="42.21917" lon="2.959267">
        <ele>47</ele>
        <time>2019-08-19T02:20:28Z</time>
      </trkpt>
      <trkpt lat="42.219192" lon="2.959202">
        <ele>47</ele>
        <time>2019-08-19T02:20:30Z</time>
      </trkpt>
      <trkpt lat="42.219214" lon="2.959138">
        <ele>47</ele>
        <time>2019-08-19T02:20:31Z</time>
      </trkpt>
      <trkpt lat="42.219237" lon="2.959073">
        <ele>47</ele>
        <time>2019-08-19T02:20:33Z</time>
      </trkpt>
      <trkpt lat="42.219259" lon="2.959009">
        <ele>47</ele>
        <time>2019-08-19T02:20:34Z</time>
      </trkpt>
      <trkpt lat="42.219281" lon="2.958944">
        <ele>47</ele>
        <time>2019-08-19T02:20:35Z</time>
      </trkpt>
      <trkpt lat="42.219303" lon="2.95888">
        <ele>47</ele>
        <time>2019-08-19T02:20:36Z</time>
      </trkpt>
      <trkpt lat="42.219325" lon="2.958815">
        <ele>48</ele>
        <time>2019-08-19T02:20:37Z</time>
      </trkpt>
      <trkpt lat="42.219358" lon="2.958703">
        <ele>48</ele>
        <time>2019-08-19T02:20:38Z</time>
      </trkpt>
      <trkpt lat="42.219372" lon="2.958648">
        <ele>48</ele>
        <time>2019-08-19T02:20:39Z</time>
      </trkpt>
      <trkpt lat="42.219387" lon="2.958594">
        <ele>48</ele>
        <time>2019-08-19T02:20:40Z</time>
      </trkpt>
      <trkpt lat="42.219402" lon="2.958539">
        <ele>48</ele>
        <time>2019-08-19T02:20:41Z</time>
      </trkpt>
      <trkpt lat="42.219417" lon="2.958485">
        <ele>48</ele>
        <time>2019-08-19T02:20:42Z</time>
      </trkpt>
      <trkpt lat="42.219431" lon="2.95843">
        <ele>48</ele>
        <time>2019-08-19T02:20:43Z</time>
      </trkpt>
      <trkpt lat="42.219446" lon="2.958376">
        <ele>48</ele>
        <time>2019-08-19T02:20:44Z</time>
      </trkpt>
      <trkpt lat="42.219461" lon="2.958321">
        <ele>48</ele>
        <time>2019-08-19T02:20:45Z</time>
      </trkpt>
      <trkpt lat="42.219475" lon="2.958267">
        <ele>48</ele>
        <time>2019-08-19T02:20:46Z</time>
      </trkpt>
      <trkpt lat="42.21949" lon="2.958212">
        <ele>48</ele>
        <time>2019-08-19T02:20:47Z</time>
      </trkpt>
      <trkpt lat="42.219515" lon="2.958081">
        <ele>48</ele>
        <time>2019-08-19T02:20:48Z</time>
      </trkpt>
      <trkpt lat="42.219528" lon="2.958014">
        <ele>48</ele>
        <time>2019-08-19T02:20:49Z</time>
      </trkpt>
      <trkpt lat="42.21954" lon="2.957948">
        <ele>48</ele>
        <time>2019-08-19T02:20:51Z</time>
      </trkpt>
      <trkpt lat="42.219552" lon="2.957881">
        <ele>48</ele>
        <time>2019-08-19T02:20:52Z</time>
      </trkpt>
      <trkpt lat="42.219565" lon="2.957814">
        <ele>48</ele>
        <time>2019-08-19T02:20:53Z</time>
      </trkpt>
      <trkpt lat="42.219577" lon="2.957747">
        <ele>48</ele>
        <time>2019-08-19T02:20:54Z</time>
      </trkpt>
      <trkpt lat="42.219589" lon="2.957681">
        <ele>48</ele>
        <time>2019-08-19T02:20:55Z</time>
      </trkpt>
      <trkpt lat="42.219602" lon="2.957614">
        <ele>48</ele>
        <time>2019-08-19T02:20:56Z</time>
      </trkpt>
      <trkpt lat="42.219614" lon="2.957547">
        <ele>48</ele>
        <time>2019-08-19T02:20:57Z</time>
      </trkpt>
      <trkpt lat="42.21964" lon="2.957411">
        <ele>48</ele>
        <time>2019-08-19T02:20:58Z</time>
      </trkpt>
      <trkpt lat="42.219652" lon="2.957343">
        <ele>48</ele>
        <time>2019-08-19T02:20:59Z</time>
      </trkpt>
      <trkpt lat="42.219665" lon="2.957275">
        <ele>48</ele>
        <time>2019-08-19T02:21:01Z</time>
      </trkpt>
      <trkpt lat="42.219677" lon="2.957207">
        <ele>48</ele>
        <time>2019-08-19T02:21:02Z</time>
      </trkpt>
      <trkpt lat="42.21969" lon="2.957139">
        <ele>48</ele>
        <time>2019-08-19T02:21:03Z</time>
      </trkpt>
      <trkpt lat="42.219702" lon="2.957071">
        <ele>48</ele>
        <time>2019-08-19T02:21:04Z</time>
      </trkpt>
      <trkpt lat="42.219715" lon="2.957003">
        <ele>48</ele>
        <time>2019-08-19T02:21:05Z</time>
      </trkpt>
      <trkpt lat="42.219727" lon="2.956935">
        <ele>48</ele>
        <time>2019-08-19T02:21:06Z</time>
      </trkpt>
      <trkpt lat="42.21974" lon="2.956867">
        <ele>49</ele>
        <time>2019-08-19T02:21:07Z</time>
      </trkpt>
      <trkpt lat="42.219768" lon="2.956732">
        <ele>49</ele>
        <time>2019-08-19T02:21:08Z</time>
      </trkpt>
      <trkpt lat="42.219784" lon="2.956664">
        <ele>49</ele>
        <time>2019-08-19T02:21:10Z</time>
      </trkpt>
      <trkpt lat="42.219801" lon="2.956595">
        <ele>49</ele>
        <time>2019-08-19T02:21:11Z</time>
      </trkpt>
      <trkpt lat="42.219817" lon="2.956527">
        <ele>49</ele>
        <time>2019-08-19T02:21:12Z</time>
      </trkpt>
      <trkpt lat="42.219833" lon="2.956459">
        <ele>49</ele>
        <time>2019-08-19T02:21:13Z</time>
      </trkpt>
      <trkpt lat="42.219849" lon="2.956391">
        <ele>49</ele>
        <time>2019-08-19T02:21:14Z</time>
      </trkpt>
      <trkpt lat="42.219866" lon="2.956322">
        <ele>49</ele>
        <time>2019-08-19T02:21:15Z</time>
      </trkpt>
      <trkpt lat="42.219882" lon="2.956254">
        <ele>49</ele>
        <time>2019-08-19T02:21:16Z</time>
      </trkpt>
      <trkpt lat="42.219898" lon="2.956186">
        <ele>49</ele>
        <time>2019-08-19T02:21:17Z</time>
      </trkpt>
      <trkpt lat="42.219954" lon="2.956062">
        <ele>49</ele>
        <time>2019-08-19T02:21:18Z</time>
      </trkpt>
      <trkpt lat="42.219987" lon="2.956006">
        <ele>49</ele>
        <time>2019-08-19T02:21:19Z</time>
      </trkpt>
      <trkpt lat="42.220019" lon="2.95595">
        <ele>49</ele>
        <time>2019-08-19T02:21:20Z</time>
      </trkpt>
      <trkpt lat="42.220052" lon="2.955894">
        <ele>49</ele>
        <time>2019-08-19T02:21:21Z</time>
      </trkpt>
      <trkpt lat="42.220085" lon="2.955838">
        <ele>49</ele>
        <time>2019-08-19T02:21:22Z</time>
      </trkpt>
      <trkpt lat="42.220118" lon="2.955781">
        <ele>49</ele>
        <time>2019-08-19T02:21:23Z</time>
      </trkpt>
      <trkpt lat="42.220151" lon="2.955725">
        <ele>49</ele>
        <time>2019-08-19T02:21:24Z</time>
      </trkpt>
      <trkpt lat="42.220183" lon="2.955669">
        <ele>49</ele>
        <time>2019-08-19T02:21:25Z</time>
      </trkpt>
      <trkpt lat="42.220216" lon="2.955613">
        <ele>49</ele>
        <time>2019-08-19T02:21:26Z</time>
      </trkpt>
      <trkpt lat="42.220249" lon="2.955557">
        <ele>49</ele>
        <time>2019-08-19T02:21:27Z</time>
      </trkpt>
      <trkpt lat="42.220313" lon="2.955395">
        <ele>49</ele>
        <time>2019-08-19T02:21:28Z</time>
      </trkpt>
      <trkpt lat="42.220336" lon="2.9553">
        <ele>49</ele>
        <time>2019-08-19T02:21:29Z</time>
      </trkpt>
      <trkpt lat="42.220358" lon="2.955205">
        <ele>49</ele>
        <time>2019-08-19T02:21:30Z</time>
      </trkpt>
      <trkpt lat="42.220381" lon="2.95511">
        <ele>49</ele>
        <time>2019-08-19T02:21:31Z</time>
      </trkpt>
      <trkpt lat="42.220403" lon="2.955014">
        <ele>49</ele>
        <time>2019-08-19T02:21:32Z</time>
      </trkpt>
      <trkpt lat="42.220426" lon="2.954919">
        <ele>49</ele>
        <time>2019-08-19T02:21:33Z</time>
      </trkpt>
      <trkpt lat="42.220448" lon="2.954824">
        <ele>49</ele>
        <time>2019-08-19T02:21:35Z</time>
      </trkpt>
      <trkpt lat="42.220471" lon="2.954729">
        <ele>49</ele>
        <time>2019-08-19T02:21:36Z</time>
      </trkpt>
      <trkpt lat="42.220493" lon="2.954634">
        <ele>48</ele>
        <time>2019-08-19T02:21:37Z</time>
      </trkpt>
      <trkpt lat="42.220533" lon="2.954323">
        <ele>48</ele>
        <time>2019-08-19T02:21:39Z</time>
      </trkpt>
      <trkpt lat="42.220546" lon="2.954218">
        <ele>48</ele>
        <time>2019-08-19T02:21:40Z</time>
      </trkpt>
      <trkpt lat="42.220558" lon="2.954113">
        <ele>48</ele>
        <time>2019-08-19T02:21:42Z</time>
      </trkpt>
      <trkpt lat="42.22057" lon="2.954007">
        <ele>48</ele>
        <time>2019-08-19T02:21:43Z</time>
      </trkpt>
      <trkpt lat="42.220582" lon="2.953902">
        <ele>48</ele>
        <time>2019-08-19T02:21:45Z</time>
      </trkpt>
      <trkpt lat="42.220595" lon="2.953797">
        <ele>48</ele>
        <time>2019-08-19T02:21:46Z</time>
      </trkpt>
      <trkpt lat="42.220607" lon="2.953692">
        <ele>48</ele>
        <time>2019-08-19T02:21:47Z</time>
      </trkpt>
      <trkpt lat="42.220623" lon="2.953536">
        <ele>48</ele>
        <time>2019-08-19T02:21:48Z</time>
      </trkpt>
      <trkpt lat="42.220634" lon="2.953424">
        <ele>48</ele>
        <time>2019-08-19T02:21:49Z</time>
      </trkpt>
      <trkpt lat="42.220645" lon="2.953313">
        <ele>48</ele>
        <time>2019-08-19T02:21:50Z</time>
      </trkpt>
      <trkpt lat="42.220657" lon="2.953202">
        <ele>48</ele>
        <time>2019-08-19T02:21:52Z</time>
      </trkpt>
      <trkpt lat="42.220668" lon="2.953091">
        <ele>48</ele>
        <time>2019-08-19T02:21:53Z</time>
      </trkpt>
      <trkpt lat="42.220679" lon="2.952979">
        <ele>48</ele>
        <time>2019-08-19T02:21:55Z</time>
      </trkpt>
      <trkpt lat="42.22069" lon="2.952868">
        <ele>48</ele>
        <time>2019-08-19T02:21:57Z</time>
      </trkpt>
      <trkpt lat="42.220701" lon="2.952721">
        <ele>48</ele>
        <time>2019-08-19T02:21:58Z</time>
      </trkpt>
      <trkpt lat="42.220708" lon="2.952642">
        <ele>48</ele>
        <time>2019-08-19T02:22:00Z</time>
      </trkpt>
      <trkpt lat="42.220714" lon="2.952563">
        <ele>48</ele>
        <time>2019-08-19T02:22:01Z</time>
      </trkpt>
      <trkpt lat="42.220721" lon="2.952483">
        <ele>48</ele>
        <time>2019-08-19T02:22:03Z</time>
      </trkpt>
      <trkpt lat="42.220727" lon="2.952404">
        <ele>48</ele>
        <time>2019-08-19T02:22:04Z</time>
      </trkpt>
      <trkpt lat="42.220734" lon="2.952325">
        <ele>48</ele>
        <time>2019-08-19T02:22:06Z</time>
      </trkpt>
      <trkpt lat="42.22074" lon="2.952246">
        <ele>50</ele>
        <time>2019-08-19T02:22:07Z</time>
      </trkpt>
      <trkpt lat="42.220754" lon="2.952093">
        <ele>50</ele>
        <time>2019-08-19T02:22:08Z</time>
      </trkpt>
      <trkpt lat="42.220758" lon="2.952037">
        <ele>50</ele>
        <time>2019-08-19T02:22:09Z</time>
      </trkpt>
      <trkpt lat="42.220763" lon="2.95198">
        <ele>50</ele>
        <time>2019-08-19T02:22:10Z</time>
      </trkpt>
      <trkpt lat="42.220767" lon="2.951924">
        <ele>50</ele>
        <time>2019-08-19T02:22:11Z</time>
      </trkpt>
      <trkpt lat="42.220772" lon="2.951868">
        <ele>50</ele>
        <time>2019-08-19T02:22:12Z</time>
      </trkpt>
      <trkpt lat="42.220777" lon="2.951812">
        <ele>50</ele>
        <time>2019-08-19T02:22:13Z</time>
      </trkpt>
      <trkpt lat="42.220781" lon="2.951756">
        <ele>50</ele>
        <time>2019-08-19T02:22:14Z</time>
      </trkpt>
      <trkpt lat="42.220786" lon="2.951699">
        <ele>50</ele>
        <time>2019-08-19T02:22:15Z</time>
      </trkpt>
      <trkpt lat="42.22079" lon="2.951643">
        <ele>50</ele>
        <time>2019-08-19T02:22:16Z</time>
      </trkpt>
      <trkpt lat="42.220795" lon="2.951587">
        <ele>52</ele>
        <time>2019-08-19T02:22:17Z</time>
      </trkpt>
      <trkpt lat="42.220821" lon="2.951491">
        <ele>52</ele>
        <time>2019-08-19T02:22:18Z</time>
      </trkpt>
      <trkpt lat="42.22084" lon="2.951457">
        <ele>52</ele>
        <time>2019-08-19T02:22:19Z</time>
      </trkpt>
      <trkpt lat="42.22086" lon="2.951424">
        <ele>52</ele>
        <time>2019-08-19T02:22:20Z</time>
      </trkpt>
      <trkpt lat="42.220879" lon="2.951391">
        <ele>52</ele>
        <time>2019-08-19T02:22:21Z</time>
      </trkpt>
      <trkpt lat="42.220899" lon="2.951358">
        <ele>52</ele>
        <time>2019-08-19T02:22:22Z</time>
      </trkpt>
      <trkpt lat="42.220918" lon="2.951324">
        <ele>52</ele>
        <time>2019-08-19T02:22:23Z</time>
      </trkpt>
      <trkpt lat="42.220938" lon="2.951291">
        <ele>52</ele>
        <time>2019-08-19T02:22:24Z</time>
      </trkpt>
      <trkpt lat="42.220957" lon="2.951258">
        <ele>52</ele>
        <time>2019-08-19T02:22:25Z</time>
      </trkpt>
      <trkpt lat="42.220977" lon="2.951224">
        <ele>52</ele>
        <time>2019-08-19T02:22:26Z</time>
      </trkpt>
      <trkpt lat="42.220996" lon="2.951191">
        <ele>52</ele>
        <time>2019-08-19T02:22:27Z</time>
      </trkpt>
      <trkpt lat="42.221076" lon="2.951212">
        <ele>52</ele>
        <time>2019-08-19T02:22:28Z</time>
      </trkpt>
      <trkpt lat="42.221121" lon="2.951232">
        <ele>52</ele>
        <time>2019-08-19T02:22:29Z</time>
      </trkpt>
      <trkpt lat="42.221165" lon="2.951251">
        <ele>52</ele>
        <time>2019-08-19T02:22:30Z</time>
      </trkpt>
      <trkpt lat="42.221209" lon="2.951271">
        <ele>52</ele>
        <time>2019-08-19T02:22:31Z</time>
      </trkpt>
      <trkpt lat="42.221254" lon="2.95129">
        <ele>52</ele>
        <time>2019-08-19T02:22:32Z</time>
      </trkpt>
      <trkpt lat="42.221298" lon="2.95131">
        <ele>52</ele>
        <time>2019-08-19T02:22:33Z</time>
      </trkpt>
      <trkpt lat="42.221342" lon="2.951329">
        <ele>52</ele>
        <time>2019-08-19T02:22:34Z</time>
      </trkpt>
      <trkpt lat="42.221386" lon="2.951349">
        <ele>52</ele>
        <time>2019-08-19T02:22:35Z</time>
      </trkpt>
      <trkpt lat="42.221431" lon="2.951368">
        <ele>52</ele>
        <time>2019-08-19T02:22:36Z</time>
      </trkpt>
      <trkpt lat="42.221475" lon="2.951388">
        <ele>53</ele>
        <time>2019-08-19T02:22:37Z</time>
      </trkpt>
      <trkpt lat="42.22159" lon="2.951447">
        <ele>53</ele>
        <time>2019-08-19T02:22:38Z</time>
      </trkpt>
      <trkpt lat="42.22165" lon="2.951479">
        <ele>53</ele>
        <time>2019-08-19T02:22:40Z</time>
      </trkpt>
      <trkpt lat="42.221711" lon="2.951512">
        <ele>53</ele>
        <time>2019-08-19T02:22:41Z</time>
      </trkpt>
      <trkpt lat="42.221772" lon="2.951544">
        <ele>53</ele>
        <time>2019-08-19T02:22:42Z</time>
      </trkpt>
      <trkpt lat="42.221832" lon="2.951576">
        <ele>53</ele>
        <time>2019-08-19T02:22:43Z</time>
      </trkpt>
      <trkpt lat="42.221893" lon="2.951608">
        <ele>53</ele>
        <time>2019-08-19T02:22:44Z</time>
      </trkpt>
      <trkpt lat="42.221953" lon="2.951641">
        <ele>53</ele>
        <time>2019-08-19T02:22:46Z</time>
      </trkpt>
      <trkpt lat="42.222014" lon="2.951673">
        <ele>53</ele>
        <time>2019-08-19T02:22:47Z</time>
      </trkpt>
      <trkpt lat="42.222089" lon="2.951725">
        <ele>53</ele>
        <time>2019-08-19T02:22:48Z</time>
      </trkpt>
      <trkpt lat="42.222119" lon="2.951748">
        <ele>53</ele>
        <time>2019-08-19T02:22:49Z</time>
      </trkpt>
      <trkpt lat="42.222148" lon="2.95177">
        <ele>53</ele>
        <time>2019-08-19T02:22:50Z</time>
      </trkpt>
      <trkpt lat="42.222178" lon="2.951792">
        <ele>53</ele>
        <time>2019-08-19T02:22:51Z</time>
      </trkpt>
      <trkpt lat="42.222207" lon="2.951815">
        <ele>53</ele>
        <time>2019-08-19T02:22:52Z</time>
      </trkpt>
      <trkpt lat="42.222237" lon="2.951837">
        <ele>53</ele>
        <time>2019-08-19T02:22:53Z</time>
      </trkpt>
      <trkpt lat="42.222266" lon="2.951859">
        <ele>53</ele>
        <time>2019-08-19T02:22:54Z</time>
      </trkpt>
      <trkpt lat="42.222296" lon="2.951882">
        <ele>53</ele>
        <time>2019-08-19T02:22:55Z</time>
      </trkpt>
      <trkpt lat="42.222325" lon="2.951904">
        <ele>52</ele>
        <time>2019-08-19T02:22:57Z</time>
      </trkpt>
      <trkpt lat="42.222286" lon="2.951871">
        <ele>52</ele>
        <time>2019-08-19T02:23:03Z</time>
      </trkpt>
      <trkpt lat="42.222246" lon="2.951842">
        <ele>52</ele>
        <time>2019-08-19T02:23:15Z</time>
      </trkpt>
      <trkpt lat="42.222207" lon="2.951814">
        <ele>52</ele>
        <time>2019-08-19T02:23:16Z</time>
      </trkpt>
      <trkpt lat="42.222167" lon="2.951785">
        <ele>52</ele>
        <time>2019-08-19T02:23:17Z</time>
      </trkpt>
      <trkpt lat="42.222128" lon="2.951757">
        <ele>52</ele>
        <time>2019-08-19T02:23:19Z</time>
      </trkpt>
      <trkpt lat="42.222088" lon="2.951728">
        <ele>52</ele>
        <time>2019-08-19T02:23:20Z</time>
      </trkpt>
      <trkpt lat="42.222049" lon="2.9517">
        <ele>52</ele>
        <time>2019-08-19T02:23:21Z</time>
      </trkpt>
      <trkpt lat="42.222009" lon="2.951671">
        <ele>52</ele>
        <time>2019-08-19T02:23:23Z</time>
      </trkpt>
      <trkpt lat="42.22197" lon="2.951643">
        <ele>52</ele>
        <time>2019-08-19T02:23:24Z</time>
      </trkpt>
      <trkpt lat="42.221869" lon="2.951604">
        <ele>52</ele>
        <time>2019-08-19T02:23:26Z</time>
      </trkpt>
      <trkpt lat="42.221852" lon="2.951613">
        <ele>52</ele>
        <time>2019-08-19T02:23:27Z</time>
      </trkpt>
      <trkpt lat="42.221835" lon="2.951621">
        <ele>52</ele>
        <time>2019-08-19T02:23:29Z</time>
      </trkpt>
      <trkpt lat="42.221817" lon="2.951629">
        <ele>52</ele>
        <time>2019-08-19T02:23:30Z</time>
      </trkpt>
      <trkpt lat="42.2218" lon="2.951637">
        <ele>52</ele>
        <time>2019-08-19T02:23:32Z</time>
      </trkpt>
      <trkpt lat="42.221783" lon="2.951646">
        <ele>52</ele>
        <time>2019-08-19T02:23:33Z</time>
      </trkpt>
      <trkpt lat="42.221766" lon="2.951654">
        <ele>52</ele>
        <time>2019-08-19T02:23:34Z</time>
      </trkpt>
      <trkpt lat="42.221804" lon="2.951697">
        <ele>52</ele>
        <time>2019-08-19T02:23:41Z</time>
      </trkpt>
      <trkpt lat="42.221833" lon="2.951733">
        <ele>52</ele>
        <time>2019-08-19T02:24:07Z</time>
      </trkpt>
      <trkpt lat="42.221862" lon="2.951768">
        <ele>52</ele>
        <time>2019-08-19T02:24:08Z</time>
      </trkpt>
      <trkpt lat="42.221891" lon="2.951804">
        <ele>52</ele>
        <time>2019-08-19T02:24:09Z</time>
      </trkpt>
      <trkpt lat="42.22192" lon="2.951839">
        <ele>52</ele>
        <time>2019-08-19T02:24:10Z</time>
      </trkpt>
      <trkpt lat="42.22195" lon="2.951875">
        <ele>52</ele>
        <time>2019-08-19T02:24:11Z</time>
      </trkpt>
      <trkpt lat="42.221979" lon="2.95191">
        <ele>52</ele>
        <time>2019-08-19T02:24:12Z</time>
      </trkpt>
      <trkpt lat="42.222008" lon="2.951946">
        <ele>52</ele>
        <time>2019-08-19T02:24:13Z</time>
      </trkpt>
      <trkpt lat="42.222037" lon="2.951981">
        <ele>52</ele>
        <time>2019-08-19T02:24:14Z</time>
      </trkpt>
      <trkpt lat="42.222066" lon="2.952017">
        <ele>52</ele>
        <time>2019-08-19T02:24:15Z</time>
      </trkpt>
      <trkpt lat="42.222095" lon="2.952052">
        <ele>51</ele>
        <time>2019-08-19T02:24:16Z</time>
      </trkpt>
      <trkpt lat="42.22212" lon="2.952092">
        <ele>51</ele>
        <time>2019-08-19T02:24:17Z</time>
      </trkpt>
      <trkpt lat="42.222157" lon="2.952146">
        <ele>51</ele>
        <time>2019-08-19T02:24:19Z</time>
      </trkpt>
      <trkpt lat="42.222171" lon="2.952168">
        <ele>51</ele>
        <time>2019-08-19T02:24:20Z</time>
      </trkpt>
      <trkpt lat="42.222182" lon="2.952189">
        <ele>51</ele>
        <time>2019-08-19T02:24:21Z</time>
      </trkpt>
      <trkpt lat="42.222198" lon="2.952218">
        <ele>51</ele>
        <time>2019-08-19T02:24:23Z</time>
      </trkpt>
      <trkpt lat="42.222198" lon="2.952218">
        <ele>52</ele>
        <time>2019-08-19T02:24:27Z</time>
      </trkpt>
      <trkpt lat="42.22224" lon="2.952279">
        <ele>52</ele>
        <time>2019-08-19T02:24:30Z</time>
      </trkpt>
      <trkpt lat="42.222281" lon="2.95234">
        <ele>51</ele>
        <time>2019-08-19T02:25:09Z</time>
      </trkpt>
      <trkpt lat="42.222323" lon="2.952401">
        <ele>51</ele>
        <time>2019-08-19T02:25:10Z</time>
      </trkpt>
      <trkpt lat="42.222364" lon="2.952462">
        <ele>51</ele>
        <time>2019-08-19T02:25:11Z</time>
      </trkpt>
      <trkpt lat="42.222406" lon="2.952522">
        <ele>51</ele>
        <time>2019-08-19T02:25:12Z</time>
      </trkpt>
      <trkpt lat="42.222448" lon="2.952583">
        <ele>51</ele>
        <time>2019-08-19T02:25:13Z</time>
      </trkpt>
      <trkpt lat="42.222489" lon="2.952644">
        <ele>51</ele>
        <time>2019-08-19T02:25:14Z</time>
      </trkpt>
      <trkpt lat="42.222531" lon="2.952705">
        <ele>51</ele>
        <time>2019-08-19T02:25:15Z</time>
      </trkpt>
      <trkpt lat="42.222572" lon="2.952766">
        <ele>51</ele>
        <time>2019-08-19T02:25:16Z</time>
      </trkpt>
      <trkpt lat="42.222614" lon="2.952827">
        <ele>50</ele>
        <time>2019-08-19T02:25:18Z</time>
      </trkpt>
      <trkpt lat="42.222759" lon="2.952916">
        <ele>50</ele>
        <time>2019-08-19T02:25:19Z</time>
      </trkpt>
      <trkpt lat="42.222848" lon="2.952939">
        <ele>50</ele>
        <time>2019-08-19T02:25:21Z</time>
      </trkpt>
      <trkpt lat="42.222938" lon="2.952961">
        <ele>50</ele>
        <time>2019-08-19T02:25:22Z</time>
      </trkpt>
      <trkpt lat="42.223028" lon="2.952984">
        <ele>50</ele>
        <time>2019-08-19T02:25:24Z</time>
      </trkpt>
      <trkpt lat="42.223117" lon="2.953006">
        <ele>50</ele>
        <time>2019-08-19T02:25:25Z</time>
      </trkpt>
      <trkpt lat="42.223207" lon="2.953029">
        <ele>50</ele>
        <time>2019-08-19T02:25:26Z</time>
      </trkpt>
      <trkpt lat="42.223296" lon="2.953051">
        <ele>50</ele>
        <time>2019-08-19T02:25:27Z</time>
      </trkpt>
      <trkpt lat="42.223386" lon="2.953074">
        <ele>48</ele>
        <time>2019-08-19T02:25:29Z</time>
      </trkpt>
      <trkpt lat="42.223516" lon="2.953031">
        <ele>48</ele>
        <time>2019-08-19T02:25:30Z</time>
      </trkpt>
      <trkpt lat="42.223576" lon="2.953003">
        <ele>48</ele>
        <time>2019-08-19T02:25:31Z</time>
      </trkpt>
      <trkpt lat="42.223636" lon="2.952974">
        <ele>48</ele>
        <time>2019-08-19T02:25:32Z</time>
      </trkpt>
      <trkpt lat="42.223696" lon="2.952946">
        <ele>48</ele>
        <time>2019-08-19T02:25:33Z</time>
      </trkpt>
      <trkpt lat="42.223756" lon="2.952917">
        <ele>48</ele>
        <time>2019-08-19T02:25:34Z</time>
      </trkpt>
      <trkpt lat="42.223816" lon="2.952889">
        <ele>48</ele>
        <time>2019-08-19T02:25:35Z</time>
      </trkpt>
      <trkpt lat="42.223876" lon="2.95286">
        <ele>48</ele>
        <time>2019-08-19T02:25:36Z</time>
      </trkpt>
      <trkpt lat="42.223936" lon="2.952832">
        <ele>48</ele>
        <time>2019-08-19T02:25:37Z</time>
      </trkpt>
      <trkpt lat="42.223996" lon="2.952803">
        <ele>46</ele>
        <time>2019-08-19T02:25:39Z</time>
      </trkpt>
      <trkpt lat="42.22411" lon="2.952742">
        <ele>46</ele>
        <time>2019-08-19T02:25:40Z</time>
      </trkpt>
      <trkpt lat="42.224166" lon="2.95271">
        <ele>46</ele>
        <time>2019-08-19T02:25:41Z</time>
      </trkpt>
      <trkpt lat="42.224223" lon="2.952679">
        <ele>46</ele>
        <time>2019-08-19T02:25:42Z</time>
      </trkpt>
      <trkpt lat="42.224279" lon="2.952648">
        <ele>46</ele>
        <time>2019-08-19T02:25:43Z</time>
      </trkpt>
      <trkpt lat="42.224336" lon="2.952616">
        <ele>46</ele>
        <time>2019-08-19T02:25:44Z</time>
      </trkpt>
      <trkpt lat="42.224392" lon="2.952585">
        <ele>46</ele>
        <time>2019-08-19T02:25:45Z</time>
      </trkpt>
      <trkpt lat="42.224449" lon="2.952553">
        <ele>46</ele>
        <time>2019-08-19T02:25:47Z</time>
      </trkpt>
      <trkpt lat="42.224505" lon="2.952522">
        <ele>46</ele>
        <time>2019-08-19T02:25:48Z</time>
      </trkpt>
      <trkpt lat="42.224596" lon="2.952478">
        <ele>46</ele>
        <time>2019-08-19T02:25:49Z</time>
      </trkpt>
      <trkpt lat="42.224634" lon="2.952467">
        <ele>46</ele>
        <time>2019-08-19T02:25:50Z</time>
      </trkpt>
      <trkpt lat="42.224673" lon="2.952455">
        <ele>46</ele>
        <time>2019-08-19T02:25:51Z</time>
      </trkpt>
      <trkpt lat="42.224711" lon="2.952443">
        <ele>46</ele>
        <time>2019-08-19T02:25:52Z</time>
      </trkpt>
      <trkpt lat="42.22475" lon="2.952432">
        <ele>46</ele>
        <time>2019-08-19T02:25:53Z</time>
      </trkpt>
      <trkpt lat="42.224788" lon="2.95242">
        <ele>46</ele>
        <time>2019-08-19T02:25:54Z</time>
      </trkpt>
      <trkpt lat="42.224827" lon="2.952408">
        <ele>46</ele>
        <time>2019-08-19T02:25:56Z</time>
      </trkpt>
      <trkpt lat="42.224865" lon="2.952397">
        <ele>46</ele>
        <time>2019-08-19T02:25:57Z</time>
      </trkpt>
      <trkpt lat="42.224904" lon="2.952385">
        <ele>46</ele>
        <time>2019-08-19T02:25:58Z</time>
      </trkpt>
      <trkpt lat="42.224932" lon="2.952407">
        <ele>46</ele>
        <time>2019-08-19T02:25:59Z</time>
      </trkpt>
      <trkpt lat="42.224947" lon="2.952423">
        <ele>46</ele>
        <time>2019-08-19T02:26:01Z</time>
      </trkpt>
      <trkpt lat="42.224962" lon="2.952438">
        <ele>46</ele>
        <time>2019-08-19T02:26:03Z</time>
      </trkpt>
      <trkpt lat="42.224977" lon="2.952454">
        <ele>46</ele>
        <time>2019-08-19T02:26:05Z</time>
      </trkpt>
      <trkpt lat="42.224992" lon="2.952469">
        <ele>46</ele>
        <time>2019-08-19T02:26:07Z</time>
      </trkpt>
      <trkpt lat="42.225007" lon="2.952485">
        <ele>47</ele>
        <time>2019-08-19T02:26:08Z</time>
      </trkpt>
      <trkpt lat="42.225047" lon="2.952505">
        <ele>47</ele>
        <time>2019-08-19T02:26:09Z</time>
      </trkpt>
      <trkpt lat="42.225081" lon="2.952516">
        <ele>47</ele>
        <time>2019-08-19T02:26:11Z</time>
      </trkpt>
      <trkpt lat="42.225114" lon="2.952526">
        <ele>47</ele>
        <time>2019-08-19T02:26:12Z</time>
      </trkpt>
      <trkpt lat="42.225147" lon="2.952537">
        <ele>47</ele>
        <time>2019-08-19T02:26:13Z</time>
      </trkpt>
      <trkpt lat="42.225181" lon="2.952547">
        <ele>47</ele>
        <time>2019-08-19T02:26:14Z</time>
      </trkpt>
      <trkpt lat="42.225214" lon="2.952558">
        <ele>47</ele>
        <time>2019-08-19T02:26:15Z</time>
      </trkpt>
      <trkpt lat="42.225247" lon="2.952568">
        <ele>47</ele>
        <time>2019-08-19T02:26:16Z</time>
      </trkpt>
      <trkpt lat="42.225281" lon="2.952579">
        <ele>47</ele>
        <time>2019-08-19T02:26:17Z</time>
      </trkpt>
      <trkpt lat="42.225314" lon="2.952589">
        <ele>47</ele>
        <time>2019-08-19T02:26:18Z</time>
      </trkpt>
      <trkpt lat="42.225393" lon="2.952541">
        <ele>47</ele>
        <time>2019-08-19T02:26:19Z</time>
      </trkpt>
      <trkpt lat="42.225424" lon="2.952496">
        <ele>47</ele>
        <time>2019-08-19T02:26:20Z</time>
      </trkpt>
      <trkpt lat="42.225456" lon="2.952452">
        <ele>47</ele>
        <time>2019-08-19T02:26:21Z</time>
      </trkpt>
      <trkpt lat="42.225487" lon="2.952408">
        <ele>47</ele>
        <time>2019-08-19T02:26:22Z</time>
      </trkpt>
      <trkpt lat="42.225519" lon="2.952364">
        <ele>47</ele>
        <time>2019-08-19T02:26:23Z</time>
      </trkpt>
      <trkpt lat="42.225551" lon="2.952319">
        <ele>47</ele>
        <time>2019-08-19T02:26:24Z</time>
      </trkpt>
      <trkpt lat="42.225582" lon="2.952275">
        <ele>47</ele>
        <time>2019-08-19T02:26:25Z</time>
      </trkpt>
      <trkpt lat="42.225614" lon="2.952231">
        <ele>47</ele>
        <time>2019-08-19T02:26:26Z</time>
      </trkpt>
      <trkpt lat="42.225645" lon="2.952186">
        <ele>47</ele>
        <time>2019-08-19T02:26:27Z</time>
      </trkpt>
      <trkpt lat="42.225677" lon="2.952142">
        <ele>47</ele>
        <time>2019-08-19T02:26:28Z</time>
      </trkpt>
      <trkpt lat="42.22566" lon="2.952007">
        <ele>47</ele>
        <time>2019-08-19T02:26:29Z</time>
      </trkpt>
      <trkpt lat="42.225634" lon="2.951949">
        <ele>47</ele>
        <time>2019-08-19T02:26:30Z</time>
      </trkpt>
      <trkpt lat="42.225608" lon="2.951892">
        <ele>47</ele>
        <time>2019-08-19T02:26:31Z</time>
      </trkpt>
      <trkpt lat="42.225582" lon="2.951834">
        <ele>47</ele>
        <time>2019-08-19T02:26:32Z</time>
      </trkpt>
      <trkpt lat="42.225556" lon="2.951777">
        <ele>47</ele>
        <time>2019-08-19T02:26:33Z</time>
      </trkpt>
      <trkpt lat="42.22553" lon="2.95172">
        <ele>47</ele>
        <time>2019-08-19T02:26:34Z</time>
      </trkpt>
      <trkpt lat="42.225504" lon="2.951662">
        <ele>47</ele>
        <time>2019-08-19T02:26:35Z</time>
      </trkpt>
      <trkpt lat="42.225478" lon="2.951605">
        <ele>47</ele>
        <time>2019-08-19T02:26:36Z</time>
      </trkpt>
      <trkpt lat="42.225452" lon="2.951547">
        <ele>47</ele>
        <time>2019-08-19T02:26:37Z</time>
      </trkpt>
      <trkpt lat="42.225426" lon="2.95149">
        <ele>47</ele>
        <time>2019-08-19T02:26:38Z</time>
      </trkpt>
      <trkpt lat="42.22532" lon="2.951437">
        <ele>47</ele>
        <time>2019-08-19T02:26:39Z</time>
      </trkpt>
      <trkpt lat="42.225269" lon="2.951419">
        <ele>47</ele>
        <time>2019-08-19T02:26:40Z</time>
      </trkpt>
      <trkpt lat="42.225217" lon="2.951402">
        <ele>47</ele>
        <time>2019-08-19T02:26:41Z</time>
      </trkpt>
      <trkpt lat="42.225166" lon="2.951384">
        <ele>47</ele>
        <time>2019-08-19T02:26:42Z</time>
      </trkpt>
      <trkpt lat="42.225114" lon="2.951366">
        <ele>47</ele>
        <time>2019-08-19T02:26:43Z</time>
      </trkpt>
      <trkpt lat="42.225063" lon="2.951348">
        <ele>47</ele>
        <time>2019-08-19T02:26:45Z</time>
      </trkpt>
      <trkpt lat="42.225011" lon="2.951331">
        <ele>47</ele>
        <time>2019-08-19T02:26:46Z</time>
      </trkpt>
      <trkpt lat="42.22496" lon="2.951313">
        <ele>47</ele>
        <time>2019-08-19T02:26:47Z</time>
      </trkpt>
      <trkpt lat="42.224908" lon="2.951295">
        <ele>47</ele>
        <time>2019-08-19T02:26:48Z</time>
      </trkpt>
      <trkpt lat="42.224841" lon="2.951193">
        <ele>47</ele>
        <time>2019-08-19T02:26:49Z</time>
      </trkpt>
      <trkpt lat="42.22481" lon="2.951142">
        <ele>47</ele>
        <time>2019-08-19T02:26:50Z</time>
      </trkpt>
      <trkpt lat="42.22478" lon="2.95109">
        <ele>47</ele>
        <time>2019-08-19T02:26:51Z</time>
      </trkpt>
      <trkpt lat="42.22475" lon="2.951039">
        <ele>47</ele>
        <time>2019-08-19T02:26:52Z</time>
      </trkpt>
      <trkpt lat="42.224719" lon="2.950988">
        <ele>47</ele>
        <time>2019-08-19T02:26:53Z</time>
      </trkpt>
      <trkpt lat="42.224689" lon="2.950937">
        <ele>47</ele>
        <time>2019-08-19T02:26:55Z</time>
      </trkpt>
      <trkpt lat="42.224659" lon="2.950885">
        <ele>47</ele>
        <time>2019-08-19T02:26:56Z</time>
      </trkpt>
      <trkpt lat="42.224628" lon="2.950834">
        <ele>47</ele>
        <time>2019-08-19T02:26:57Z</time>
      </trkpt>
      <trkpt lat="42.224598" lon="2.950783">
        <ele>47</ele>
        <time>2019-08-19T02:26:58Z</time>
      </trkpt>
      <trkpt lat="42.22455" lon="2.950708">
        <ele>47</ele>
        <time>2019-08-19T02:26:59Z</time>
      </trkpt>
      <trkpt lat="42.22453" lon="2.950674">
        <ele>47</ele>
        <time>2019-08-19T02:27:00Z</time>
      </trkpt>
      <trkpt lat="42.224509" lon="2.950641">
        <ele>47</ele>
        <time>2019-08-19T02:27:01Z</time>
      </trkpt>
      <trkpt lat="42.224489" lon="2.950607">
        <ele>47</ele>
        <time>2019-08-19T02:27:02Z</time>
      </trkpt>
      <trkpt lat="42.224469" lon="2.950574">
        <ele>47</ele>
        <time>2019-08-19T02:27:03Z</time>
      </trkpt>
      <trkpt lat="42.224449" lon="2.95054">
        <ele>47</ele>
        <time>2019-08-19T02:27:04Z</time>
      </trkpt>
      <trkpt lat="42.224428" lon="2.950507">
        <ele>47</ele>
        <time>2019-08-19T02:27:05Z</time>
      </trkpt>
      <trkpt lat="42.224408" lon="2.950473">
        <ele>47</ele>
        <time>2019-08-19T02:27:07Z</time>
      </trkpt>
      <trkpt lat="42.224388" lon="2.95044">
        <ele>48</ele>
        <time>2019-08-19T02:27:08Z</time>
      </trkpt>
      <trkpt lat="42.224358" lon="2.950393">
        <ele>48</ele>
        <time>2019-08-19T02:27:09Z</time>
      </trkpt>
      <trkpt lat="42.224342" lon="2.95037">
        <ele>48</ele>
        <time>2019-08-19T02:27:10Z</time>
      </trkpt>
      <trkpt lat="42.224326" lon="2.950347">
        <ele>48</ele>
        <time>2019-08-19T02:27:12Z</time>
      </trkpt>
      <trkpt lat="42.224309" lon="2.950323">
        <ele>48</ele>
        <time>2019-08-19T02:27:14Z</time>
      </trkpt>
      <trkpt lat="42.224293" lon="2.9503">
        <ele>48</ele>
        <time>2019-08-19T02:27:16Z</time>
      </trkpt>
      <trkpt lat="42.224277" lon="2.950277">
        <ele>48</ele>
        <time>2019-08-19T02:27:17Z</time>
      </trkpt>
      <trkpt lat="42.224261" lon="2.950254">
        <ele>48</ele>
        <time>2019-08-19T02:27:18Z</time>
      </trkpt>
      <trkpt lat="42.224196" lon="2.950174">
        <ele>48</ele>
        <time>2019-08-19T02:27:20Z</time>
      </trkpt>
      <trkpt lat="42.224168" lon="2.950137">
        <ele>48</ele>
        <time>2019-08-19T02:27:21Z</time>
      </trkpt>
      <trkpt lat="42.224141" lon="2.950099">
        <ele>48</ele>
        <time>2019-08-19T02:27:23Z</time>
      </trkpt>
      <trkpt lat="42.224113" lon="2.950062">
        <ele>48</ele>
        <time>2019-08-19T02:27:25Z</time>
      </trkpt>
      <trkpt lat="42.224086" lon="2.950024">
        <ele>48</ele>
        <time>2019-08-19T02:27:27Z</time>
      </trkpt>
      <trkpt lat="42.224058" lon="2.949987">
        <ele>48</ele>
        <time>2019-08-19T02:27:28Z</time>
      </trkpt>
      <trkpt lat="42.224" lon="2.949904">
        <ele>48</ele>
        <time>2019-08-19T02:27:29Z</time>
      </trkpt>
      <trkpt lat="42.223972" lon="2.949865">
        <ele>48</ele>
        <time>2019-08-19T02:27:30Z</time>
      </trkpt>
      <trkpt lat="42.223943" lon="2.949827">
        <ele>48</ele>
        <time>2019-08-19T02:27:31Z</time>
      </trkpt>
      <trkpt lat="42.223915" lon="2.949788">
        <ele>48</ele>
        <time>2019-08-19T02:27:32Z</time>
      </trkpt>
      <trkpt lat="42.223887" lon="2.949749">
        <ele>48</ele>
        <time>2019-08-19T02:27:33Z</time>
      </trkpt>
      <trkpt lat="42.223859" lon="2.94971">
        <ele>48</ele>
        <time>2019-08-19T02:27:35Z</time>
      </trkpt>
      <trkpt lat="42.22383" lon="2.949672">
        <ele>48</ele>
        <time>2019-08-19T02:27:36Z</time>
      </trkpt>
      <trkpt lat="42.223802" lon="2.949633">
        <ele>49</ele>
        <time>2019-08-19T02:27:38Z</time>
      </trkpt>
      <trkpt lat="42.223739" lon="2.94954">
        <ele>49</ele>
        <time>2019-08-19T02:27:39Z</time>
      </trkpt>
      <trkpt lat="42.223703" lon="2.949487">
        <ele>49</ele>
        <time>2019-08-19T02:27:41Z</time>
      </trkpt>
      <trkpt lat="42.223667" lon="2.949434">
        <ele>49</ele>
        <time>2019-08-19T02:27:42Z</time>
      </trkpt>
      <trkpt lat="42.223631" lon="2.949382">
        <ele>49</ele>
        <time>2019-08-19T02:27:43Z</time>
      </trkpt>
      <trkpt lat="42.223595" lon="2.949329">
        <ele>49</ele>
        <time>2019-08-19T02:27:45Z</time>
      </trkpt>
      <trkpt lat="42.223559" lon="2.949276">
        <ele>49</ele>
        <time>2019-08-19T02:27:46Z</time>
      </trkpt>
      <trkpt lat="42.223523" lon="2.949223">
        <ele>50</ele>
        <time>2019-08-19T02:27:48Z</time>
      </trkpt>
      <trkpt lat="42.223468" lon="2.949134">
        <ele>50</ele>
        <time>2019-08-19T02:27:49Z</time>
      </trkpt>
      <trkpt lat="42.22344" lon="2.949089">
        <ele>50</ele>
        <time>2019-08-19T02:27:50Z</time>
      </trkpt>
      <trkpt lat="42.223413" lon="2.949043">
        <ele>50</ele>
        <time>2019-08-19T02:27:51Z</time>
      </trkpt>
      <trkpt lat="42.223385" lon="2.948997">
        <ele>50</ele>
        <time>2019-08-19T02:27:52Z</time>
      </trkpt>
      <trkpt lat="42.223358" lon="2.948952">
        <ele>50</ele>
        <time>2019-08-19T02:27:54Z</time>
      </trkpt>
      <trkpt lat="42.22333" lon="2.948906">
        <ele>50</ele>
        <time>2019-08-19T02:27:55Z</time>
      </trkpt>
      <trkpt lat="42.223303" lon="2.94886">
        <ele>50</ele>
        <time>2019-08-19T02:27:56Z</time>
      </trkpt>
      <trkpt lat="42.223275" lon="2.948815">
        <ele>50</ele>
        <time>2019-08-19T02:27:57Z</time>
      </trkpt>
      <trkpt lat="42.223248" lon="2.948769">
        <ele>50</ele>
        <time>2019-08-19T02:27:58Z</time>
      </trkpt>
      <trkpt lat="42.223194" lon="2.948669">
        <ele>50</ele>
        <time>2019-08-19T02:27:59Z</time>
      </trkpt>
      <trkpt lat="42.223167" lon="2.948614">
        <ele>50</ele>
        <time>2019-08-19T02:28:01Z</time>
      </trkpt>
      <trkpt lat="42.223139" lon="2.94856">
        <ele>50</ele>
        <time>2019-08-19T02:28:02Z</time>
      </trkpt>
      <trkpt lat="42.223111" lon="2.948505">
        <ele>50</ele>
        <time>2019-08-19T02:28:03Z</time>
      </trkpt>
      <trkpt lat="42.223083" lon="2.948451">
        <ele>50</ele>
        <time>2019-08-19T02:28:04Z</time>
      </trkpt>
      <trkpt lat="42.223056" lon="2.948397">
        <ele>50</ele>
        <time>2019-08-19T02:28:06Z</time>
      </trkpt>
      <trkpt lat="42.223028" lon="2.948342">
        <ele>50</ele>
        <time>2019-08-19T02:28:07Z</time>
      </trkpt>
      <trkpt lat="42.223" lon="2.948288">
        <ele>51</ele>
        <time>2019-08-19T02:28:08Z</time>
      </trkpt>
      <trkpt lat="42.222953" lon="2.94819">
        <ele>51</ele>
        <time>2019-08-19T02:28:09Z</time>
      </trkpt>
      <trkpt lat="42.222931" lon="2.948139">
        <ele>51</ele>
        <time>2019-08-19T02:28:10Z</time>
      </trkpt>
      <trkpt lat="42.222909" lon="2.948089">
        <ele>51</ele>
        <time>2019-08-19T02:28:11Z</time>
      </trkpt>
      <trkpt lat="42.222887" lon="2.948039">
        <ele>51</ele>
        <time>2019-08-19T02:28:12Z</time>
      </trkpt>
      <trkpt lat="42.222866" lon="2.947988">
        <ele>51</ele>
        <time>2019-08-19T02:28:13Z</time>
      </trkpt>
      <trkpt lat="42.222844" lon="2.947938">
        <ele>51</ele>
        <time>2019-08-19T02:28:14Z</time>
      </trkpt>
      <trkpt lat="42.222822" lon="2.947888">
        <ele>51</ele>
        <time>2019-08-19T02:28:15Z</time>
      </trkpt>
      <trkpt lat="42.2228" lon="2.947837">
        <ele>51</ele>
        <time>2019-08-19T02:28:17Z</time>
      </trkpt>
      <trkpt lat="42.222778" lon="2.947787">
        <ele>51</ele>
        <time>2019-08-19T02:28:18Z</time>
      </trkpt>
      <trkpt lat="42.222722" lon="2.947626">
        <ele>51</ele>
        <time>2019-08-19T02:28:20Z</time>
      </trkpt>
      <trkpt lat="42.222707" lon="2.947575">
        <ele>51</ele>
        <time>2019-08-19T02:28:21Z</time>
      </trkpt>
      <trkpt lat="42.222691" lon="2.947525">
        <ele>51</ele>
        <time>2019-08-19T02:28:22Z</time>
      </trkpt>
      <trkpt lat="42.222676" lon="2.947475">
        <ele>51</ele>
        <time>2019-08-19T02:28:23Z</time>
      </trkpt>
      <trkpt lat="42.22266" lon="2.947424">
        <ele>51</ele>
        <time>2019-08-19T02:28:24Z</time>
      </trkpt>
      <trkpt lat="42.222645" lon="2.947374">
        <ele>51</ele>
        <time>2019-08-19T02:28:25Z</time>
      </trkpt>
      <trkpt lat="42.222629" lon="2.947324">
        <ele>51</ele>
        <time>2019-08-19T02:28:26Z</time>
      </trkpt>
      <trkpt lat="42.222614" lon="2.947273">
        <ele>51</ele>
        <time>2019-08-19T02:28:27Z</time>
      </trkpt>
      <trkpt lat="42.222598" lon="2.947223">
        <ele>52</ele>
        <time>2019-08-19T02:28:28Z</time>
      </trkpt>
      <trkpt lat="42.222571" lon="2.947103">
        <ele>52</ele>
        <time>2019-08-19T02:28:29Z</time>
      </trkpt>
      <trkpt lat="42.222561" lon="2.947043">
        <ele>52</ele>
        <time>2019-08-19T02:28:30Z</time>
      </trkpt>
      <trkpt lat="42.22255" lon="2.946982">
        <ele>52</ele>
        <time>2019-08-19T02:28:31Z</time>
      </trkpt>
      <trkpt lat="42.22254" lon="2.946922">
        <ele>52</ele>
        <time>2019-08-19T02:28:32Z</time>
      </trkpt>
      <trkpt lat="42.222529" lon="2.946861">
        <ele>52</ele>
        <time>2019-08-19T02:28:33Z</time>
      </trkpt>
      <trkpt lat="42.222518" lon="2.9468">
        <ele>52</ele>
        <time>2019-08-19T02:28:34Z</time>
      </trkpt>
      <trkpt lat="42.222508" lon="2.94674">
        <ele>52</ele>
        <time>2019-08-19T02:28:35Z</time>
      </trkpt>
      <trkpt lat="42.222497" lon="2.946679">
        <ele>52</ele>
        <time>2019-08-19T02:28:36Z</time>
      </trkpt>
      <trkpt lat="42.222487" lon="2.946619">
        <ele>52</ele>
        <time>2019-08-19T02:28:37Z</time>
      </trkpt>
      <trkpt lat="42.222476" lon="2.946558">
        <ele>54</ele>
        <time>2019-08-19T02:28:39Z</time>
      </trkpt>
      <trkpt lat="42.222469" lon="2.946439">
        <ele>54</ele>
        <time>2019-08-19T02:28:40Z</time>
      </trkpt>
      <trkpt lat="42.222468" lon="2.946383">
        <ele>54</ele>
        <time>2019-08-19T02:28:41Z</time>
      </trkpt>
      <trkpt lat="42.222468" lon="2.946326">
        <ele>54</ele>
        <time>2019-08-19T02:28:42Z</time>
      </trkpt>
      <trkpt lat="42.222467" lon="2.94627">
        <ele>54</ele>
        <time>2019-08-19T02:28:43Z</time>
      </trkpt>
      <trkpt lat="42.222467" lon="2.946214">
        <ele>54</ele>
        <time>2019-08-19T02:28:44Z</time>
      </trkpt>
      <trkpt lat="42.222466" lon="2.946158">
        <ele>54</ele>
        <time>2019-08-19T02:28:45Z</time>
      </trkpt>
      <trkpt lat="42.222466" lon="2.946101">
        <ele>54</ele>
        <time>2019-08-19T02:28:46Z</time>
      </trkpt>
      <trkpt lat="42.222465" lon="2.946045">
        <ele>54</ele>
        <time>2019-08-19T02:28:47Z</time>
      </trkpt>
      <trkpt lat="42.222465" lon="2.945989">
        <ele>54</ele>
        <time>2019-08-19T02:28:48Z</time>
      </trkpt>
      <trkpt lat="42.222487" lon="2.945795">
        <ele>54</ele>
        <time>2019-08-19T02:28:50Z</time>
      </trkpt>
      <trkpt lat="42.222499" lon="2.945728">
        <ele>54</ele>
        <time>2019-08-19T02:28:51Z</time>
      </trkpt>
      <trkpt lat="42.22251" lon="2.945661">
        <ele>54</ele>
        <time>2019-08-19T02:28:52Z</time>
      </trkpt>
      <trkpt lat="42.222522" lon="2.945595">
        <ele>54</ele>
        <time>2019-08-19T02:28:53Z</time>
      </trkpt>
      <trkpt lat="42.222533" lon="2.945528">
        <ele>54</ele>
        <time>2019-08-19T02:28:54Z</time>
      </trkpt>
      <trkpt lat="42.222544" lon="2.945461">
        <ele>54</ele>
        <time>2019-08-19T02:28:55Z</time>
      </trkpt>
      <trkpt lat="42.222556" lon="2.945394">
        <ele>54</ele>
        <time>2019-08-19T02:28:56Z</time>
      </trkpt>
      <trkpt lat="42.222567" lon="2.945327">
        <ele>54</ele>
        <time>2019-08-19T02:28:58Z</time>
      </trkpt>
      <trkpt lat="42.2226" lon="2.945195">
        <ele>54</ele>
        <time>2019-08-19T02:28:59Z</time>
      </trkpt>
      <trkpt lat="42.222619" lon="2.945131">
        <ele>54</ele>
        <time>2019-08-19T02:29:00Z</time>
      </trkpt>
      <trkpt lat="42.222637" lon="2.945068">
        <ele>54</ele>
        <time>2019-08-19T02:29:01Z</time>
      </trkpt>
      <trkpt lat="42.222655" lon="2.945004">
        <ele>54</ele>
        <time>2019-08-19T02:29:02Z</time>
      </trkpt>
      <trkpt lat="42.222674" lon="2.944941">
        <ele>54</ele>
        <time>2019-08-19T02:29:03Z</time>
      </trkpt>
      <trkpt lat="42.222692" lon="2.944877">
        <ele>54</ele>
        <time>2019-08-19T02:29:04Z</time>
      </trkpt>
      <trkpt lat="42.22271" lon="2.944814">
        <ele>54</ele>
        <time>2019-08-19T02:29:05Z</time>
      </trkpt>
      <trkpt lat="42.222728" lon="2.94475">
        <ele>54</ele>
        <time>2019-08-19T02:29:06Z</time>
      </trkpt>
      <trkpt lat="42.222747" lon="2.944687">
        <ele>54</ele>
        <time>2019-08-19T02:29:07Z</time>
      </trkpt>
      <trkpt lat="42.222765" lon="2.944623">
        <ele>54</ele>
        <time>2019-08-19T02:29:08Z</time>
      </trkpt>
      <trkpt lat="42.222828" lon="2.944479">
        <ele>54</ele>
        <time>2019-08-19T02:29:09Z</time>
      </trkpt>
      <trkpt lat="42.222866" lon="2.944406">
        <ele>54</ele>
        <time>2019-08-19T02:29:10Z</time>
      </trkpt>
      <trkpt lat="42.222903" lon="2.944332">
        <ele>54</ele>
        <time>2019-08-19T02:29:11Z</time>
      </trkpt>
      <trkpt lat="42.22294" lon="2.944259">
        <ele>54</ele>
        <time>2019-08-19T02:29:12Z</time>
      </trkpt>
      <trkpt lat="42.222978" lon="2.944186">
        <ele>54</ele>
        <time>2019-08-19T02:29:13Z</time>
      </trkpt>
      <trkpt lat="42.223015" lon="2.944113">
        <ele>54</ele>
        <time>2019-08-19T02:29:14Z</time>
      </trkpt>
      <trkpt lat="42.223052" lon="2.944039">
        <ele>54</ele>
        <time>2019-08-19T02:29:15Z</time>
      </trkpt>
      <trkpt lat="42.22309" lon="2.943966">
        <ele>54</ele>
        <time>2019-08-19T02:29:17Z</time>
      </trkpt>
      <trkpt lat="42.223127" lon="2.943893">
        <ele>53</ele>
        <time>2019-08-19T02:29:18Z</time>
      </trkpt>
      <trkpt lat="42.223221" lon="2.943739">
        <ele>53</ele>
        <time>2019-08-19T02:29:19Z</time>
      </trkpt>
      <trkpt lat="42.22327" lon="2.943663">
        <ele>53</ele>
        <time>2019-08-19T02:29:20Z</time>
      </trkpt>
      <trkpt lat="42.223319" lon="2.943588">
        <ele>53</ele>
        <time>2019-08-19T02:29:21Z</time>
      </trkpt>
      <trkpt lat="42.223368" lon="2.943512">
        <ele>53</ele>
        <time>2019-08-19T02:29:22Z</time>
      </trkpt>
      <trkpt lat="42.223417" lon="2.943436">
        <ele>53</ele>
        <time>2019-08-19T02:29:24Z</time>
      </trkpt>
      <trkpt lat="42.223466" lon="2.94336">
        <ele>53</ele>
        <time>2019-08-19T02:29:25Z</time>
      </trkpt>
      <trkpt lat="42.223515" lon="2.943285">
        <ele>53</ele>
        <time>2019-08-19T02:29:26Z</time>
      </trkpt>
      <trkpt lat="42.223564" lon="2.943209">
        <ele>53</ele>
        <time>2019-08-19T02:29:27Z</time>
      </trkpt>
      <trkpt lat="42.223613" lon="2.943133">
        <ele>51</ele>
        <time>2019-08-19T02:29:28Z</time>
      </trkpt>
      <trkpt lat="42.22371" lon="2.942965">
        <ele>51</ele>
        <time>2019-08-19T02:29:29Z</time>
      </trkpt>
      <trkpt lat="42.223763" lon="2.942874">
        <ele>51</ele>
        <time>2019-08-19T02:29:31Z</time>
      </trkpt>
      <trkpt lat="42.223815" lon="2.942783">
        <ele>51</ele>
        <time>2019-08-19T02:29:32Z</time>
      </trkpt>
      <trkpt lat="42.223867" lon="2.942691">
        <ele>51</ele>
        <time>2019-08-19T02:29:33Z</time>
      </trkpt>
      <trkpt lat="42.223919" lon="2.9426">
        <ele>51</ele>
        <time>2019-08-19T02:29:34Z</time>
      </trkpt>
      <trkpt lat="42.223972" lon="2.942509">
        <ele>51</ele>
        <time>2019-08-19T02:29:36Z</time>
      </trkpt>
      <trkpt lat="42.224024" lon="2.942418">
        <ele>50</ele>
        <time>2019-08-19T02:29:38Z</time>
      </trkpt>
      <trkpt lat="42.224081" lon="2.942297">
        <ele>50</ele>
        <time>2019-08-19T02:29:39Z</time>
      </trkpt>
      <trkpt lat="42.224102" lon="2.942242">
        <ele>50</ele>
        <time>2019-08-19T02:29:40Z</time>
      </trkpt>
      <trkpt lat="42.224122" lon="2.942187">
        <ele>50</ele>
        <time>2019-08-19T02:29:41Z</time>
      </trkpt>
      <trkpt lat="42.224143" lon="2.942132">
        <ele>50</ele>
        <time>2019-08-19T02:29:42Z</time>
      </trkpt>
      <trkpt lat="42.224163" lon="2.942076">
        <ele>50</ele>
        <time>2019-08-19T02:29:43Z</time>
      </trkpt>
      <trkpt lat="42.224184" lon="2.942021">
        <ele>50</ele>
        <time>2019-08-19T02:29:44Z</time>
      </trkpt>
      <trkpt lat="42.224204" lon="2.941966">
        <ele>50</ele>
        <time>2019-08-19T02:29:45Z</time>
      </trkpt>
      <trkpt lat="42.224225" lon="2.941911">
        <ele>50</ele>
        <time>2019-08-19T02:29:47Z</time>
      </trkpt>
      <trkpt lat="42.224245" lon="2.941856">
        <ele>50</ele>
        <time>2019-08-19T02:29:48Z</time>
      </trkpt>
      <trkpt lat="42.224259" lon="2.941751">
        <ele>50</ele>
        <time>2019-08-19T02:29:49Z</time>
      </trkpt>
      <trkpt lat="42.224262" lon="2.941699">
        <ele>50</ele>
        <time>2019-08-19T02:29:50Z</time>
      </trkpt>
      <trkpt lat="42.224264" lon="2.941647">
        <ele>50</ele>
        <time>2019-08-19T02:29:51Z</time>
      </trkpt>
      <trkpt lat="42.224266" lon="2.941595">
        <ele>50</ele>
        <time>2019-08-19T02:29:52Z</time>
      </trkpt>
      <trkpt lat="42.224269" lon="2.941544">
        <ele>50</ele>
        <time>2019-08-19T02:29:53Z</time>
      </trkpt>
      <trkpt lat="42.224271" lon="2.941492">
        <ele>50</ele>
        <time>2019-08-19T02:29:55Z</time>
      </trkpt>
      <trkpt lat="42.224273" lon="2.94144">
        <ele>50</ele>
        <time>2019-08-19T02:29:56Z</time>
      </trkpt>
      <trkpt lat="42.224276" lon="2.941388">
        <ele>50</ele>
        <time>2019-08-19T02:29:57Z</time>
      </trkpt>
      <trkpt lat="42.224278" lon="2.941336">
        <ele>51</ele>
        <time>2019-08-19T02:29:58Z</time>
      </trkpt>
      <trkpt lat="42.224262" lon="2.941245">
        <ele>51</ele>
        <time>2019-08-19T02:29:59Z</time>
      </trkpt>
      <trkpt lat="42.224252" lon="2.9412">
        <ele>51</ele>
        <time>2019-08-19T02:30:00Z</time>
      </trkpt>
      <trkpt lat="42.224241" lon="2.941156">
        <ele>51</ele>
        <time>2019-08-19T02:30:01Z</time>
      </trkpt>
      <trkpt lat="42.224231" lon="2.941111">
        <ele>51</ele>
        <time>2019-08-19T02:30:02Z</time>
      </trkpt>
      <trkpt lat="42.224221" lon="2.941067">
        <ele>51</ele>
        <time>2019-08-19T02:30:03Z</time>
      </trkpt>
      <trkpt lat="42.224211" lon="2.941023">
        <ele>51</ele>
        <time>2019-08-19T02:30:04Z</time>
      </trkpt>
      <trkpt lat="42.224201" lon="2.940978">
        <ele>51</ele>
        <time>2019-08-19T02:30:05Z</time>
      </trkpt>
      <trkpt lat="42.22419" lon="2.940934">
        <ele>51</ele>
        <time>2019-08-19T02:30:06Z</time>
      </trkpt>
      <trkpt lat="42.22418" lon="2.940889">
        <ele>51</ele>
        <time>2019-08-19T02:30:07Z</time>
      </trkpt>
      <trkpt lat="42.22417" lon="2.940845">
        <ele>53</ele>
        <time>2019-08-19T02:30:08Z</time>
      </trkpt>
      <trkpt lat="42.22413" lon="2.940754">
        <ele>53</ele>
        <time>2019-08-19T02:30:09Z</time>
      </trkpt>
      <trkpt lat="42.224106" lon="2.940711">
        <ele>53</ele>
        <time>2019-08-19T02:30:10Z</time>
      </trkpt>
      <trkpt lat="42.224083" lon="2.940668">
        <ele>53</ele>
        <time>2019-08-19T02:30:11Z</time>
      </trkpt>
      <trkpt lat="42.22406" lon="2.940625">
        <ele>53</ele>
        <time>2019-08-19T02:30:12Z</time>
      </trkpt>
      <trkpt lat="42.224036" lon="2.940581">
        <ele>53</ele>
        <time>2019-08-19T02:30:13Z</time>
      </trkpt>
      <trkpt lat="42.224013" lon="2.940538">
        <ele>53</ele>
        <time>2019-08-19T02:30:14Z</time>
      </trkpt>
      <trkpt lat="42.22399" lon="2.940495">
        <ele>53</ele>
        <time>2019-08-19T02:30:15Z</time>
      </trkpt>
      <trkpt lat="42.223966" lon="2.940452">
        <ele>53</ele>
        <time>2019-08-19T02:30:16Z</time>
      </trkpt>
      <trkpt lat="42.223943" lon="2.940409">
        <ele>57</ele>
        <time>2019-08-19T02:30:18Z</time>
      </trkpt>
      <trkpt lat="42.22389" lon="2.940336">
        <ele>57</ele>
        <time>2019-08-19T02:30:19Z</time>
      </trkpt>
      <trkpt lat="42.223864" lon="2.940301">
        <ele>57</ele>
        <time>2019-08-19T02:30:20Z</time>
      </trkpt>
      <trkpt lat="42.223839" lon="2.940267">
        <ele>57</ele>
        <time>2019-08-19T02:30:21Z</time>
      </trkpt>
      <trkpt lat="42.223813" lon="2.940232">
        <ele>57</ele>
        <time>2019-08-19T02:30:22Z</time>
      </trkpt>
      <trkpt lat="42.223787" lon="2.940197">
        <ele>57</ele>
        <time>2019-08-19T02:30:23Z</time>
      </trkpt>
      <trkpt lat="42.223761" lon="2.940162">
        <ele>57</ele>
        <time>2019-08-19T02:30:24Z</time>
      </trkpt>
      <trkpt lat="42.223736" lon="2.940128">
        <ele>57</ele>
        <time>2019-08-19T02:30:26Z</time>
      </trkpt>
      <trkpt lat="42.22371" lon="2.940093">
        <ele>57</ele>
        <time>2019-08-19T02:30:27Z</time>
      </trkpt>
      <trkpt lat="42.223684" lon="2.940058">
        <ele>58</ele>
        <time>2019-08-19T02:30:28Z</time>
      </trkpt>
      <trkpt lat="42.223635" lon="2.939993">
        <ele>58</ele>
        <time>2019-08-19T02:30:29Z</time>
      </trkpt>
      <trkpt lat="42.223611" lon="2.939963">
        <ele>58</ele>
        <time>2019-08-19T02:30:30Z</time>
      </trkpt>
      <trkpt lat="42.223588" lon="2.939932">
        <ele>58</ele>
        <time>2019-08-19T02:30:32Z</time>
      </trkpt>
      <trkpt lat="42.223564" lon="2.939901">
        <ele>58</ele>
        <time>2019-08-19T02:30:33Z</time>
      </trkpt>
      <trkpt lat="42.22354" lon="2.939871">
        <ele>58</ele>
        <time>2019-08-19T02:30:34Z</time>
      </trkpt>
      <trkpt lat="42.223516" lon="2.93984">
        <ele>58</ele>
        <time>2019-08-19T02:30:35Z</time>
      </trkpt>
      <trkpt lat="42.223493" lon="2.939809">
        <ele>58</ele>
        <time>2019-08-19T02:30:36Z</time>
      </trkpt>
      <trkpt lat="42.223469" lon="2.939779">
        <ele>58</ele>
        <time>2019-08-19T02:30:37Z</time>
      </trkpt>
      <trkpt lat="42.223445" lon="2.939748">
        <ele>59</ele>
        <time>2019-08-19T02:30:38Z</time>
      </trkpt>
      <trkpt lat="42.223378" lon="2.939662">
        <ele>59</ele>
        <time>2019-08-19T02:30:40Z</time>
      </trkpt>
      <trkpt lat="42.223356" lon="2.939632">
        <ele>59</ele>
        <time>2019-08-19T02:30:41Z</time>
      </trkpt>
      <trkpt lat="42.223334" lon="2.939603">
        <ele>59</ele>
        <time>2019-08-19T02:30:42Z</time>
      </trkpt>
      <trkpt lat="42.223312" lon="2.939574">
        <ele>59</ele>
        <time>2019-08-19T02:30:43Z</time>
      </trkpt>
      <trkpt lat="42.223289" lon="2.939544">
        <ele>59</ele>
        <time>2019-08-19T02:30:44Z</time>
      </trkpt>
      <trkpt lat="42.223267" lon="2.939515">
        <ele>59</ele>
        <time>2019-08-19T02:30:45Z</time>
      </trkpt>
      <trkpt lat="42.223245" lon="2.939486">
        <ele>59</ele>
        <time>2019-08-19T02:30:46Z</time>
      </trkpt>
      <trkpt lat="42.223223" lon="2.939456">
        <ele>59</ele>
        <time>2019-08-19T02:30:47Z</time>
      </trkpt>
      <trkpt lat="42.223201" lon="2.939427">
        <ele>60</ele>
        <time>2019-08-19T02:30:48Z</time>
      </trkpt>
      <trkpt lat="42.223144" lon="2.939351">
        <ele>60</ele>
        <time>2019-08-19T02:30:49Z</time>
      </trkpt>
      <trkpt lat="42.223114" lon="2.939311">
        <ele>60</ele>
        <time>2019-08-19T02:30:50Z</time>
      </trkpt>
      <trkpt lat="42.223084" lon="2.939271">
        <ele>60</ele>
        <time>2019-08-19T02:30:52Z</time>
      </trkpt>
      <trkpt lat="42.223054" lon="2.939231">
        <ele>60</ele>
        <time>2019-08-19T02:30:53Z</time>
      </trkpt>
      <trkpt lat="42.223024" lon="2.939191">
        <ele>60</ele>
        <time>2019-08-19T02:30:54Z</time>
      </trkpt>
      <trkpt lat="42.222994" lon="2.939151">
        <ele>60</ele>
        <time>2019-08-19T02:30:55Z</time>
      </trkpt>
      <trkpt lat="42.222964" lon="2.939111">
        <ele>60</ele>
        <time>2019-08-19T02:30:56Z</time>
      </trkpt>
      <trkpt lat="42.222934" lon="2.939071">
        <ele>60</ele>
        <time>2019-08-19T02:30:57Z</time>
      </trkpt>
      <trkpt lat="42.222904" lon="2.939031">
        <ele>60</ele>
        <time>2019-08-19T02:30:58Z</time>
      </trkpt>
      <trkpt lat="42.222834" lon="2.938938">
        <ele>60</ele>
        <time>2019-08-19T02:30:59Z</time>
      </trkpt>
      <trkpt lat="42.222798" lon="2.93889">
        <ele>60</ele>
        <time>2019-08-19T02:31:00Z</time>
      </trkpt>
      <trkpt lat="42.222762" lon="2.938843">
        <ele>60</ele>
        <time>2019-08-19T02:31:01Z</time>
      </trkpt>
      <trkpt lat="42.222726" lon="2.938796">
        <ele>60</ele>
        <time>2019-08-19T02:31:02Z</time>
      </trkpt>
      <trkpt lat="42.222691" lon="2.938748">
        <ele>60</ele>
        <time>2019-08-19T02:31:03Z</time>
      </trkpt>
      <trkpt lat="42.222655" lon="2.938701">
        <ele>60</ele>
        <time>2019-08-19T02:31:04Z</time>
      </trkpt>
      <trkpt lat="42.222619" lon="2.938654">
        <ele>60</ele>
        <time>2019-08-19T02:31:06Z</time>
      </trkpt>
      <trkpt lat="42.222583" lon="2.938606">
        <ele>60</ele>
        <time>2019-08-19T02:31:07Z</time>
      </trkpt>
      <trkpt lat="42.222547" lon="2.938559">
        <ele>60</ele>
        <time>2019-08-19T02:31:08Z</time>
      </trkpt>
      <trkpt lat="42.222468" lon="2.938458">
        <ele>60</ele>
        <time>2019-08-19T02:31:09Z</time>
      </trkpt>
      <trkpt lat="42.222428" lon="2.938404">
        <ele>60</ele>
        <time>2019-08-19T02:31:11Z</time>
      </trkpt>
      <trkpt lat="42.222388" lon="2.93835">
        <ele>60</ele>
        <time>2019-08-19T02:31:12Z</time>
      </trkpt>
      <trkpt lat="42.222348" lon="2.938296">
        <ele>60</ele>
        <time>2019-08-19T02:31:13Z</time>
      </trkpt>
      <trkpt lat="42.222309" lon="2.938243">
        <ele>60</ele>
        <time>2019-08-19T02:31:14Z</time>
      </trkpt>
      <trkpt lat="42.222269" lon="2.938189">
        <ele>60</ele>
        <time>2019-08-19T02:31:15Z</time>
      </trkpt>
      <trkpt lat="42.222229" lon="2.938135">
        <ele>60</ele>
        <time>2019-08-19T02:31:16Z</time>
      </trkpt>
      <trkpt lat="42.222189" lon="2.938081">
        <ele>60</ele>
        <time>2019-08-19T02:31:17Z</time>
      </trkpt>
      <trkpt lat="42.222149" lon="2.938027">
        <ele>60</ele>
        <time>2019-08-19T02:31:18Z</time>
      </trkpt>
      <trkpt lat="42.222067" lon="2.93792">
        <ele>60</ele>
        <time>2019-08-19T02:31:19Z</time>
      </trkpt>
      <trkpt lat="42.222028" lon="2.937866">
        <ele>60</ele>
        <time>2019-08-19T02:31:20Z</time>
      </trkpt>
      <trkpt lat="42.221988" lon="2.937813">
        <ele>60</ele>
        <time>2019-08-19T02:31:21Z</time>
      </trkpt>
      <trkpt lat="42.221948" lon="2.93776">
        <ele>60</ele>
        <time>2019-08-19T02:31:22Z</time>
      </trkpt>
      <trkpt lat="42.221909" lon="2.937706">
        <ele>60</ele>
        <time>2019-08-19T02:31:24Z</time>
      </trkpt>
      <trkpt lat="42.221869" lon="2.937653">
        <ele>60</ele>
        <time>2019-08-19T02:31:25Z</time>
      </trkpt>
      <trkpt lat="42.221829" lon="2.9376">
        <ele>60</ele>
        <time>2019-08-19T02:31:26Z</time>
      </trkpt>
      <trkpt lat="42.22179" lon="2.937546">
        <ele>60</ele>
        <time>2019-08-19T02:31:27Z</time>
      </trkpt>
      <trkpt lat="42.22175" lon="2.937493">
        <ele>60</ele>
        <time>2019-08-19T02:31:28Z</time>
      </trkpt>
      <trkpt lat="42.221631" lon="2.937334">
        <ele>60</ele>
        <time>2019-08-19T02:31:30Z</time>
      </trkpt>
      <trkpt lat="42.22159" lon="2.937279">
        <ele>60</ele>
        <time>2019-08-19T02:31:31Z</time>
      </trkpt>
      <trkpt lat="42.22155" lon="2.937225">
        <ele>60</ele>
        <time>2019-08-19T02:31:33Z</time>
      </trkpt>
      <trkpt lat="42.22151" lon="2.937171">
        <ele>60</ele>
        <time>2019-08-19T02:31:34Z</time>
      </trkpt>
      <trkpt lat="42.221469" lon="2.937117">
        <ele>60</ele>
        <time>2019-08-19T02:31:35Z</time>
      </trkpt>
      <trkpt lat="42.221429" lon="2.937062">
        <ele>60</ele>
        <time>2019-08-19T02:31:36Z</time>
      </trkpt>
      <trkpt lat="42.221388" lon="2.937008">
        <ele>60</ele>
        <time>2019-08-19T02:31:37Z</time>
      </trkpt>
      <trkpt lat="42.221348" lon="2.936954">
        <ele>60</ele>
        <time>2019-08-19T02:31:38Z</time>
      </trkpt>
      <trkpt lat="42.22126" lon="2.936835">
        <ele>60</ele>
        <time>2019-08-19T02:31:39Z</time>
      </trkpt>
      <trkpt lat="42.221212" lon="2.936772">
        <ele>60</ele>
        <time>2019-08-19T02:31:41Z</time>
      </trkpt>
      <trkpt lat="42.221165" lon="2.936708">
        <ele>60</ele>
        <time>2019-08-19T02:31:42Z</time>
      </trkpt>
      <trkpt lat="42.221117" lon="2.936645">
        <ele>60</ele>
        <time>2019-08-19T02:31:43Z</time>
      </trkpt>
      <trkpt lat="42.22107" lon="2.936582">
        <ele>60</ele>
        <time>2019-08-19T02:31:44Z</time>
      </trkpt>
      <trkpt lat="42.221022" lon="2.936519">
        <ele>60</ele>
        <time>2019-08-19T02:31:45Z</time>
      </trkpt>
      <trkpt lat="42.220975" lon="2.936455">
        <ele>60</ele>
        <time>2019-08-19T02:31:46Z</time>
      </trkpt>
      <trkpt lat="42.220927" lon="2.936392">
        <ele>60</ele>
        <time>2019-08-19T02:31:47Z</time>
      </trkpt>
      <trkpt lat="42.22088" lon="2.936329">
        <ele>61</ele>
        <time>2019-08-19T02:31:49Z</time>
      </trkpt>
      <trkpt lat="42.220799" lon="2.936222">
        <ele>61</ele>
        <time>2019-08-19T02:31:50Z</time>
      </trkpt>
      <trkpt lat="42.220762" lon="2.936173">
        <ele>61</ele>
        <time>2019-08-19T02:31:51Z</time>
      </trkpt>
      <trkpt lat="42.220725" lon="2.936124">
        <ele>61</ele>
        <time>2019-08-19T02:31:52Z</time>
      </trkpt>
      <trkpt lat="42.220688" lon="2.936075">
        <ele>61</ele>
        <time>2019-08-19T02:31:53Z</time>
      </trkpt>
      <trkpt lat="42.220652" lon="2.936025">
        <ele>61</ele>
        <time>2019-08-19T02:31:54Z</time>
      </trkpt>
      <trkpt lat="42.220615" lon="2.935976">
        <ele>61</ele>
        <time>2019-08-19T02:31:55Z</time>
      </trkpt>
      <trkpt lat="42.220578" lon="2.935927">
        <ele>61</ele>
        <time>2019-08-19T02:31:56Z</time>
      </trkpt>
      <trkpt lat="42.220541" lon="2.935878">
        <ele>61</ele>
        <time>2019-08-19T02:31:57Z</time>
      </trkpt>
      <trkpt lat="42.220504" lon="2.935829">
        <ele>61</ele>
        <time>2019-08-19T02:31:58Z</time>
      </trkpt>
      <trkpt lat="42.2204" lon="2.935692">
        <ele>61</ele>
        <time>2019-08-19T02:32:00Z</time>
      </trkpt>
      <trkpt lat="42.220353" lon="2.935629">
        <ele>61</ele>
        <time>2019-08-19T02:32:01Z</time>
      </trkpt>
      <trkpt lat="42.220306" lon="2.935567">
        <ele>61</ele>
        <time>2019-08-19T02:32:02Z</time>
      </trkpt>
      <trkpt lat="42.220259" lon="2.935505">
        <ele>61</ele>
        <time>2019-08-19T02:32:03Z</time>
      </trkpt>
      <trkpt lat="42.220211" lon="2.935443">
        <ele>61</ele>
        <time>2019-08-19T02:32:04Z</time>
      </trkpt>
      <trkpt lat="42.220164" lon="2.93538">
        <ele>61</ele>
        <time>2019-08-19T02:32:05Z</time>
      </trkpt>
      <trkpt lat="42.220117" lon="2.935318">
        <ele>61</ele>
        <time>2019-08-19T02:32:06Z</time>
      </trkpt>
      <trkpt lat="42.22007" lon="2.935256">
        <ele>62</ele>
        <time>2019-08-19T02:32:08Z</time>
      </trkpt>
      <trkpt lat="42.219985" lon="2.935145">
        <ele>62</ele>
        <time>2019-08-19T02:32:09Z</time>
      </trkpt>
      <trkpt lat="42.219943" lon="2.935089">
        <ele>62</ele>
        <time>2019-08-19T02:32:10Z</time>
      </trkpt>
      <trkpt lat="42.2199" lon="2.935034">
        <ele>62</ele>
        <time>2019-08-19T02:32:11Z</time>
      </trkpt>
      <trkpt lat="42.219858" lon="2.934978">
        <ele>62</ele>
        <time>2019-08-19T02:32:12Z</time>
      </trkpt>
      <trkpt lat="42.219815" lon="2.934922">
        <ele>62</ele>
        <time>2019-08-19T02:32:13Z</time>
      </trkpt>
      <trkpt lat="42.219773" lon="2.934866">
        <ele>62</ele>
        <time>2019-08-19T02:32:15Z</time>
      </trkpt>
      <trkpt lat="42.21973" lon="2.934811">
        <ele>62</ele>
        <time>2019-08-19T02:32:16Z</time>
      </trkpt>
      <trkpt lat="42.219688" lon="2.934755">
        <ele>62</ele>
        <time>2019-08-19T02:32:17Z</time>
      </trkpt>
      <trkpt lat="42.219645" lon="2.934699">
        <ele>63</ele>
        <time>2019-08-19T02:32:18Z</time>
      </trkpt>
      <trkpt lat="42.219554" lon="2.934579">
        <ele>63</ele>
        <time>2019-08-19T02:32:19Z</time>
      </trkpt>
      <trkpt lat="42.219506" lon="2.934516">
        <ele>63</ele>
        <time>2019-08-19T02:32:20Z</time>
      </trkpt>
      <trkpt lat="42.219457" lon="2.934452">
        <ele>63</ele>
        <time>2019-08-19T02:32:21Z</time>
      </trkpt>
      <trkpt lat="42.219409" lon="2.934388">
        <ele>63</ele>
        <time>2019-08-19T02:32:23Z</time>
      </trkpt>
      <trkpt lat="42.21936" lon="2.934325">
        <ele>63</ele>
        <time>2019-08-19T02:32:24Z</time>
      </trkpt>
      <trkpt lat="42.219311" lon="2.934261">
        <ele>63</ele>
        <time>2019-08-19T02:32:25Z</time>
      </trkpt>
      <trkpt lat="42.219263" lon="2.934198">
        <ele>63</ele>
        <time>2019-08-19T02:32:27Z</time>
      </trkpt>
      <trkpt lat="42.219214" lon="2.934134">
        <ele>63</ele>
        <time>2019-08-19T02:32:28Z</time>
      </trkpt>
      <trkpt lat="42.219079" lon="2.933958">
        <ele>63</ele>
        <time>2019-08-19T02:32:30Z</time>
      </trkpt>
      <trkpt lat="42.219034" lon="2.933899">
        <ele>63</ele>
        <time>2019-08-19T02:32:32Z</time>
      </trkpt>
      <trkpt lat="42.21899" lon="2.93384">
        <ele>63</ele>
        <time>2019-08-19T02:32:33Z</time>
      </trkpt>
      <trkpt lat="42.218945" lon="2.933781">
        <ele>63</ele>
        <time>2019-08-19T02:32:34Z</time>
      </trkpt>
      <trkpt lat="42.218901" lon="2.933722">
        <ele>63</ele>
        <time>2019-08-19T02:32:35Z</time>
      </trkpt>
      <trkpt lat="42.218856" lon="2.933663">
        <ele>63</ele>
        <time>2019-08-19T02:32:37Z</time>
      </trkpt>
      <trkpt lat="42.218812" lon="2.933604">
        <ele>64</ele>
        <time>2019-08-19T02:32:38Z</time>
      </trkpt>
      <trkpt lat="42.218717" lon="2.933476">
        <ele>64</ele>
        <time>2019-08-19T02:32:39Z</time>
      </trkpt>
      <trkpt lat="42.218665" lon="2.933406">
        <ele>64</ele>
        <time>2019-08-19T02:32:40Z</time>
      </trkpt>
      <trkpt lat="42.218614" lon="2.933337">
        <ele>64</ele>
        <time>2019-08-19T02:32:41Z</time>
      </trkpt>
      <trkpt lat="42.218562" lon="2.933267">
        <ele>64</ele>
        <time>2019-08-19T02:32:42Z</time>
      </trkpt>
      <trkpt lat="42.218511" lon="2.933197">
        <ele>64</ele>
        <time>2019-08-19T02:32:43Z</time>
      </trkpt>
      <trkpt lat="42.218459" lon="2.933127">
        <ele>64</ele>
        <time>2019-08-19T02:32:44Z</time>
      </trkpt>
      <trkpt lat="42.218408" lon="2.933058">
        <ele>64</ele>
        <time>2019-08-19T02:32:46Z</time>
      </trkpt>
      <trkpt lat="42.218356" lon="2.932988">
        <ele>64</ele>
        <time>2019-08-19T02:32:48Z</time>
      </trkpt>
      <trkpt lat="42.218279" lon="2.932877">
        <ele>64</ele>
        <time>2019-08-19T02:32:49Z</time>
      </trkpt>
      <trkpt lat="42.218241" lon="2.932821">
        <ele>64</ele>
        <time>2019-08-19T02:32:50Z</time>
      </trkpt>
      <trkpt lat="42.218204" lon="2.932765">
        <ele>64</ele>
        <time>2019-08-19T02:32:51Z</time>
      </trkpt>
      <trkpt lat="42.218167" lon="2.932709">
        <ele>64</ele>
        <time>2019-08-19T02:32:52Z</time>
      </trkpt>
      <trkpt lat="42.218129" lon="2.932654">
        <ele>64</ele>
        <time>2019-08-19T02:32:53Z</time>
      </trkpt>
      <trkpt lat="42.218092" lon="2.932598">
        <ele>64</ele>
        <time>2019-08-19T02:32:54Z</time>
      </trkpt>
      <trkpt lat="42.218055" lon="2.932542">
        <ele>64</ele>
        <time>2019-08-19T02:32:55Z</time>
      </trkpt>
      <trkpt lat="42.218017" lon="2.932486">
        <ele>64</ele>
        <time>2019-08-19T02:32:57Z</time>
      </trkpt>
      <trkpt lat="42.21798" lon="2.93243">
        <ele>65</ele>
        <time>2019-08-19T02:32:58Z</time>
      </trkpt>
      <trkpt lat="42.21791" lon="2.932317">
        <ele>65</ele>
        <time>2019-08-19T02:32:59Z</time>
      </trkpt>
      <trkpt lat="42.217876" lon="2.932259">
        <ele>65</ele>
        <time>2019-08-19T02:33:00Z</time>
      </trkpt>
      <trkpt lat="42.217842" lon="2.932201">
        <ele>65</ele>
        <time>2019-08-19T02:33:01Z</time>
      </trkpt>
      <trkpt lat="42.217808" lon="2.932143">
        <ele>65</ele>
        <time>2019-08-19T02:33:02Z</time>
      </trkpt>
      <trkpt lat="42.217774" lon="2.932085">
        <ele>65</ele>
        <time>2019-08-19T02:33:03Z</time>
      </trkpt>
      <trkpt lat="42.21774" lon="2.932027">
        <ele>65</ele>
        <time>2019-08-19T02:33:05Z</time>
      </trkpt>
      <trkpt lat="42.217706" lon="2.931969">
        <ele>65</ele>
        <time>2019-08-19T02:33:06Z</time>
      </trkpt>
      <trkpt lat="42.217672" lon="2.931911">
        <ele>65</ele>
        <time>2019-08-19T02:33:07Z</time>
      </trkpt>
      <trkpt lat="42.217638" lon="2.931853">
        <ele>67</ele>
        <time>2019-08-19T02:33:08Z</time>
      </trkpt>
      <trkpt lat="42.217576" lon="2.931735">
        <ele>67</ele>
        <time>2019-08-19T02:33:09Z</time>
      </trkpt>
      <trkpt lat="42.217546" lon="2.931676">
        <ele>67</ele>
        <time>2019-08-19T02:33:10Z</time>
      </trkpt>
      <trkpt lat="42.217516" lon="2.931617">
        <ele>67</ele>
        <time>2019-08-19T02:33:11Z</time>
      </trkpt>
      <trkpt lat="42.217486" lon="2.931558">
        <ele>67</ele>
        <time>2019-08-19T02:33:12Z</time>
      </trkpt>
      <trkpt lat="42.217457" lon="2.931499">
        <ele>67</ele>
        <time>2019-08-19T02:33:13Z</time>
      </trkpt>
      <trkpt lat="42.217427" lon="2.93144">
        <ele>67</ele>
        <time>2019-08-19T02:33:15Z</time>
      </trkpt>
      <trkpt lat="42.217397" lon="2.931381">
        <ele>67</ele>
        <time>2019-08-19T02:33:16Z</time>
      </trkpt>
      <trkpt lat="42.217367" lon="2.931322">
        <ele>67</ele>
        <time>2019-08-19T02:33:17Z</time>
      </trkpt>
      <trkpt lat="42.217337" lon="2.931263">
        <ele>68</ele>
        <time>2019-08-19T02:33:18Z</time>
      </trkpt>
      <trkpt lat="42.217255" lon="2.931079">
        <ele>68</ele>
        <time>2019-08-19T02:33:20Z</time>
      </trkpt>
      <trkpt lat="42.217228" lon="2.931017">
        <ele>68</ele>
        <time>2019-08-19T02:33:21Z</time>
      </trkpt>
      <trkpt lat="42.217201" lon="2.930954">
        <ele>68</ele>
        <time>2019-08-19T02:33:22Z</time>
      </trkpt>
      <trkpt lat="42.217175" lon="2.930892">
        <ele>68</ele>
        <time>2019-08-19T02:33:24Z</time>
      </trkpt>
      <trkpt lat="42.217148" lon="2.930829">
        <ele>68</ele>
        <time>2019-08-19T02:33:25Z</time>
      </trkpt>
      <trkpt lat="42.217121" lon="2.930767">
        <ele>68</ele>
        <time>2019-08-19T02:33:26Z</time>
      </trkpt>
      <trkpt lat="42.217094" lon="2.930704">
        <ele>68</ele>
        <time>2019-08-19T02:33:27Z</time>
      </trkpt>
      <trkpt lat="42.217067" lon="2.930642">
        <ele>69</ele>
        <time>2019-08-19T02:33:28Z</time>
      </trkpt>
      <trkpt lat="42.217012" lon="2.9305">
        <ele>69</ele>
        <time>2019-08-19T02:33:29Z</time>
      </trkpt>
      <trkpt lat="42.216984" lon="2.930422">
        <ele>69</ele>
        <time>2019-08-19T02:33:31Z</time>
      </trkpt>
      <trkpt lat="42.216956" lon="2.930345">
        <ele>69</ele>
        <time>2019-08-19T02:33:32Z</time>
      </trkpt>
      <trkpt lat="42.216929" lon="2.930267">
        <ele>69</ele>
        <time>2019-08-19T02:33:34Z</time>
      </trkpt>
      <trkpt lat="42.216901" lon="2.930189">
        <ele>69</ele>
        <time>2019-08-19T02:33:35Z</time>
      </trkpt>
      <trkpt lat="42.216873" lon="2.930111">
        <ele>69</ele>
        <time>2019-08-19T02:33:36Z</time>
      </trkpt>
      <trkpt lat="42.216845" lon="2.930034">
        <ele>69</ele>
        <time>2019-08-19T02:33:37Z</time>
      </trkpt>
      <trkpt lat="42.216817" lon="2.929956">
        <ele>69</ele>
        <time>2019-08-19T02:33:38Z</time>
      </trkpt>
      <trkpt lat="42.216771" lon="2.929813">
        <ele>69</ele>
        <time>2019-08-19T02:33:39Z</time>
      </trkpt>
      <trkpt lat="42.21675" lon="2.929743">
        <ele>69</ele>
        <time>2019-08-19T02:33:40Z</time>
      </trkpt>
      <trkpt lat="42.216729" lon="2.929672">
        <ele>69</ele>
        <time>2019-08-19T02:33:42Z</time>
      </trkpt>
      <trkpt lat="42.216708" lon="2.929602">
        <ele>69</ele>
        <time>2019-08-19T02:33:43Z</time>
      </trkpt>
      <trkpt lat="42.216688" lon="2.929532">
        <ele>69</ele>
        <time>2019-08-19T02:33:44Z</time>
      </trkpt>
      <trkpt lat="42.216667" lon="2.929462">
        <ele>69</ele>
        <time>2019-08-19T02:33:45Z</time>
      </trkpt>
      <trkpt lat="42.216646" lon="2.929391">
        <ele>69</ele>
        <time>2019-08-19T02:33:46Z</time>
      </trkpt>
      <trkpt lat="42.216625" lon="2.929321">
        <ele>69</ele>
        <time>2019-08-19T02:33:47Z</time>
      </trkpt>
      <trkpt lat="42.216604" lon="2.929251">
        <ele>69</ele>
        <time>2019-08-19T02:33:48Z</time>
      </trkpt>
      <trkpt lat="42.216573" lon="2.929118">
        <ele>69</ele>
        <time>2019-08-19T02:33:49Z</time>
      </trkpt>
      <trkpt lat="42.216558" lon="2.92905">
        <ele>69</ele>
        <time>2019-08-19T02:33:50Z</time>
      </trkpt>
      <trkpt lat="42.216542" lon="2.928982">
        <ele>69</ele>
        <time>2019-08-19T02:33:52Z</time>
      </trkpt>
      <trkpt lat="42.216527" lon="2.928914">
        <ele>69</ele>
        <time>2019-08-19T02:33:53Z</time>
      </trkpt>
      <trkpt lat="42.216512" lon="2.928847">
        <ele>69</ele>
        <time>2019-08-19T02:33:54Z</time>
      </trkpt>
      <trkpt lat="42.216497" lon="2.928779">
        <ele>69</ele>
        <time>2019-08-19T02:33:55Z</time>
      </trkpt>
      <trkpt lat="42.216481" lon="2.928711">
        <ele>69</ele>
        <time>2019-08-19T02:33:56Z</time>
      </trkpt>
      <trkpt lat="42.216466" lon="2.928643">
        <ele>69</ele>
        <time>2019-08-19T02:33:57Z</time>
      </trkpt>
      <trkpt lat="42.216451" lon="2.928575">
        <ele>71</ele>
        <time>2019-08-19T02:33:58Z</time>
      </trkpt>
      <trkpt lat="42.216428" lon="2.928443">
        <ele>71</ele>
        <time>2019-08-19T02:33:59Z</time>
      </trkpt>
      <trkpt lat="42.216418" lon="2.928377">
        <ele>71</ele>
        <time>2019-08-19T02:34:01Z</time>
      </trkpt>
      <trkpt lat="42.216407" lon="2.928312">
        <ele>71</ele>
        <time>2019-08-19T02:34:02Z</time>
      </trkpt>
      <trkpt lat="42.216397" lon="2.928247">
        <ele>71</ele>
        <time>2019-08-19T02:34:03Z</time>
      </trkpt>
      <trkpt lat="42.216387" lon="2.928181">
        <ele>71</ele>
        <time>2019-08-19T02:34:04Z</time>
      </trkpt>
      <trkpt lat="42.216377" lon="2.928116">
        <ele>71</ele>
        <time>2019-08-19T02:34:05Z</time>
      </trkpt>
      <trkpt lat="42.216366" lon="2.928051">
        <ele>71</ele>
        <time>2019-08-19T02:34:06Z</time>
      </trkpt>
      <trkpt lat="42.216356" lon="2.927985">
        <ele>71</ele>
        <time>2019-08-19T02:34:07Z</time>
      </trkpt>
      <trkpt lat="42.216346" lon="2.92792">
        <ele>72</ele>
        <time>2019-08-19T02:34:08Z</time>
      </trkpt>
      <trkpt lat="42.216328" lon="2.927786">
        <ele>72</ele>
        <time>2019-08-19T02:34:09Z</time>
      </trkpt>
      <trkpt lat="42.21632" lon="2.927716">
        <ele>72</ele>
        <time>2019-08-19T02:34:11Z</time>
      </trkpt>
      <trkpt lat="42.216312" lon="2.927647">
        <ele>72</ele>
        <time>2019-08-19T02:34:12Z</time>
      </trkpt>
      <trkpt lat="42.216305" lon="2.927577">
        <ele>72</ele>
        <time>2019-08-19T02:34:14Z</time>
      </trkpt>
      <trkpt lat="42.216297" lon="2.927508">
        <ele>72</ele>
        <time>2019-08-19T02:34:15Z</time>
      </trkpt>
      <trkpt lat="42.216289" lon="2.927439">
        <ele>72</ele>
        <time>2019-08-19T02:34:16Z</time>
      </trkpt>
      <trkpt lat="42.216281" lon="2.927369">
        <ele>72</ele>
        <time>2019-08-19T02:34:17Z</time>
      </trkpt>
      <trkpt lat="42.216273" lon="2.9273">
        <ele>72</ele>
        <time>2019-08-19T02:34:18Z</time>
      </trkpt>
      <trkpt lat="42.216284" lon="2.927189">
        <ele>72</ele>
        <time>2019-08-19T02:34:19Z</time>
      </trkpt>
      <trkpt lat="42.216302" lon="2.927139">
        <ele>72</ele>
        <time>2019-08-19T02:34:21Z</time>
      </trkpt>
      <trkpt lat="42.216319" lon="2.927088">
        <ele>72</ele>
        <time>2019-08-19T02:34:22Z</time>
      </trkpt>
      <trkpt lat="42.216337" lon="2.927037">
        <ele>72</ele>
        <time>2019-08-19T02:34:23Z</time>
      </trkpt>
      <trkpt lat="42.216355" lon="2.926987">
        <ele>72</ele>
        <time>2019-08-19T02:34:24Z</time>
      </trkpt>
      <trkpt lat="42.216373" lon="2.926936">
        <ele>72</ele>
        <time>2019-08-19T02:34:25Z</time>
      </trkpt>
      <trkpt lat="42.21639" lon="2.926885">
        <ele>72</ele>
        <time>2019-08-19T02:34:26Z</time>
      </trkpt>
      <trkpt lat="42.216408" lon="2.926835">
        <ele>72</ele>
        <time>2019-08-19T02:34:27Z</time>
      </trkpt>
      <trkpt lat="42.216426" lon="2.926784">
        <ele>73</ele>
        <time>2019-08-19T02:34:28Z</time>
      </trkpt>
      <trkpt lat="42.216436" lon="2.92668">
        <ele>73</ele>
        <time>2019-08-19T02:34:29Z</time>
      </trkpt>
      <trkpt lat="42.216425" lon="2.926629">
        <ele>73</ele>
        <time>2019-08-19T02:34:30Z</time>
      </trkpt>
      <trkpt lat="42.216414" lon="2.926578">
        <ele>73</ele>
        <time>2019-08-19T02:34:31Z</time>
      </trkpt>
      <trkpt lat="42.216403" lon="2.926527">
        <ele>73</ele>
        <time>2019-08-19T02:34:33Z</time>
      </trkpt>
      <trkpt lat="42.216393" lon="2.926477">
        <ele>73</ele>
        <time>2019-08-19T02:34:34Z</time>
      </trkpt>
      <trkpt lat="42.216382" lon="2.926426">
        <ele>73</ele>
        <time>2019-08-19T02:34:35Z</time>
      </trkpt>
      <trkpt lat="42.216371" lon="2.926375">
        <ele>73</ele>
        <time>2019-08-19T02:34:36Z</time>
      </trkpt>
      <trkpt lat="42.21636" lon="2.926324">
        <ele>73</ele>
        <time>2019-08-19T02:34:37Z</time>
      </trkpt>
      <trkpt lat="42.216349" lon="2.926273">
        <ele>74</ele>
        <time>2019-08-19T02:34:38Z</time>
      </trkpt>
      <trkpt lat="42.216291" lon="2.926145">
        <ele>74</ele>
        <time>2019-08-19T02:34:40Z</time>
      </trkpt>
      <trkpt lat="42.216281" lon="2.926101">
        <ele>74</ele>
        <time>2019-08-19T02:34:41Z</time>
      </trkpt>
      <trkpt lat="42.216272" lon="2.926056">
        <ele>74</ele>
        <time>2019-08-19T02:34:42Z</time>
      </trkpt>
      <trkpt lat="42.216262" lon="2.926011">
        <ele>74</ele>
        <time>2019-08-19T02:34:43Z</time>
      </trkpt>
      <trkpt lat="42.216253" lon="2.925967">
        <ele>74</ele>
        <time>2019-08-19T02:34:44Z</time>
      </trkpt>
      <trkpt lat="42.216243" lon="2.925922">
        <ele>74</ele>
        <time>2019-08-19T02:34:46Z</time>
      </trkpt>
      <trkpt lat="42.216234" lon="2.925878">
        <ele>74</ele>
        <time>2019-08-19T02:34:47Z</time>
      </trkpt>
      <trkpt lat="42.216224" lon="2.925833">
        <ele>74</ele>
        <time>2019-08-19T02:34:48Z</time>
      </trkpt>
      <trkpt lat="42.216229" lon="2.925674">
        <ele>74</ele>
        <time>2019-08-19T02:34:50Z</time>
      </trkpt>
      <trkpt lat="42.216232" lon="2.925615">
        <ele>74</ele>
        <time>2019-08-19T02:34:51Z</time>
      </trkpt>
      <trkpt lat="42.216235" lon="2.925556">
        <ele>74</ele>
        <time>2019-08-19T02:34:52Z</time>
      </trkpt>
      <trkpt lat="42.216238" lon="2.925497">
        <ele>74</ele>
        <time>2019-08-19T02:34:53Z</time>
      </trkpt>
      <trkpt lat="42.21624" lon="2.925437">
        <ele>74</ele>
        <time>2019-08-19T02:34:54Z</time>
      </trkpt>
      <trkpt lat="42.216243" lon="2.925378">
        <ele>74</ele>
        <time>2019-08-19T02:34:55Z</time>
      </trkpt>
      <trkpt lat="42.216246" lon="2.925319">
        <ele>74</ele>
        <time>2019-08-19T02:34:57Z</time>
      </trkpt>
      <trkpt lat="42.216249" lon="2.92526">
        <ele>75</ele>
        <time>2019-08-19T02:34:59Z</time>
      </trkpt>
      <trkpt lat="42.216259" lon="2.925157">
        <ele>75</ele>
        <time>2019-08-19T02:35:00Z</time>
      </trkpt>
      <trkpt lat="42.216263" lon="2.925107">
        <ele>75</ele>
        <time>2019-08-19T02:35:01Z</time>
      </trkpt>
      <trkpt lat="42.216268" lon="2.925056">
        <ele>75</ele>
        <time>2019-08-19T02:35:02Z</time>
      </trkpt>
      <trkpt lat="42.216273" lon="2.925006">
        <ele>75</ele>
        <time>2019-08-19T02:35:03Z</time>
      </trkpt>
      <trkpt lat="42.216277" lon="2.924956">
        <ele>75</ele>
        <time>2019-08-19T02:35:04Z</time>
      </trkpt>
      <trkpt lat="42.216282" lon="2.924906">
        <ele>75</ele>
        <time>2019-08-19T02:35:05Z</time>
      </trkpt>
      <trkpt lat="42.216287" lon="2.924855">
        <ele>75</ele>
        <time>2019-08-19T02:35:06Z</time>
      </trkpt>
      <trkpt lat="42.216291" lon="2.924805">
        <ele>75</ele>
        <time>2019-08-19T02:35:07Z</time>
      </trkpt>
      <trkpt lat="42.216296" lon="2.924755">
        <ele>76</ele>
        <time>2019-08-19T02:35:08Z</time>
      </trkpt>
      <trkpt lat="42.216312" lon="2.924622">
        <ele>76</ele>
        <time>2019-08-19T02:35:09Z</time>
      </trkpt>
      <trkpt lat="42.216322" lon="2.924546">
        <ele>76</ele>
        <time>2019-08-19T02:35:10Z</time>
      </trkpt>
      <trkpt lat="42.216332" lon="2.924471">
        <ele>76</ele>
        <time>2019-08-19T02:35:12Z</time>
      </trkpt>
      <trkpt lat="42.216341" lon="2.924396">
        <ele>76</ele>
        <time>2019-08-19T02:35:13Z</time>
      </trkpt>
      <trkpt lat="42.216351" lon="2.924321">
        <ele>76</ele>
        <time>2019-08-19T02:35:15Z</time>
      </trkpt>
      <trkpt lat="42.216361" lon="2.924245">
        <ele>76</ele>
        <time>2019-08-19T02:35:16Z</time>
      </trkpt>
      <trkpt lat="42.216371" lon="2.92417">
        <ele>76</ele>
        <time>2019-08-19T02:35:18Z</time>
      </trkpt>
      <trkpt lat="42.216393" lon="2.924042">
        <ele>76</ele>
        <time>2019-08-19T02:35:19Z</time>
      </trkpt>
      <trkpt lat="42.216406" lon="2.923975">
        <ele>76</ele>
        <time>2019-08-19T02:35:20Z</time>
      </trkpt>
      <trkpt lat="42.216418" lon="2.923907">
        <ele>76</ele>
        <time>2019-08-19T02:35:21Z</time>
      </trkpt>
      <trkpt lat="42.216431" lon="2.923839">
        <ele>76</ele>
        <time>2019-08-19T02:35:23Z</time>
      </trkpt>
      <trkpt lat="42.216444" lon="2.923771">
        <ele>76</ele>
        <time>2019-08-19T02:35:24Z</time>
      </trkpt>
      <trkpt lat="42.216457" lon="2.923704">
        <ele>76</ele>
        <time>2019-08-19T02:35:26Z</time>
      </trkpt>
      <trkpt lat="42.216469" lon="2.923636">
        <ele>76</ele>
        <time>2019-08-19T02:35:27Z</time>
      </trkpt>
      <trkpt lat="42.216482" lon="2.923568">
        <ele>77</ele>
        <time>2019-08-19T02:35:28Z</time>
      </trkpt>
      <trkpt lat="42.216511" lon="2.923438">
        <ele>77</ele>
        <time>2019-08-19T02:35:29Z</time>
      </trkpt>
      <trkpt lat="42.216528" lon="2.92337">
        <ele>77</ele>
        <time>2019-08-19T02:35:30Z</time>
      </trkpt>
      <trkpt lat="42.216544" lon="2.923302">
        <ele>77</ele>
        <time>2019-08-19T02:35:31Z</time>
      </trkpt>
      <trkpt lat="42.216561" lon="2.923235">
        <ele>77</ele>
        <time>2019-08-19T02:35:32Z</time>
      </trkpt>
      <trkpt lat="42.216578" lon="2.923167">
        <ele>77</ele>
        <time>2019-08-19T02:35:34Z</time>
      </trkpt>
      <trkpt lat="42.216595" lon="2.923099">
        <ele>77</ele>
        <time>2019-08-19T02:35:35Z</time>
      </trkpt>
      <trkpt lat="42.216611" lon="2.923031">
        <ele>77</ele>
        <time>2019-08-19T02:35:37Z</time>
      </trkpt>
      <trkpt lat="42.216628" lon="2.922963">
        <ele>79</ele>
        <time>2019-08-19T02:35:38Z</time>
      </trkpt>
      <trkpt lat="42.216663" lon="2.922833">
        <ele>79</ele>
        <time>2019-08-19T02:35:39Z</time>
      </trkpt>
      <trkpt lat="42.216683" lon="2.922764">
        <ele>79</ele>
        <time>2019-08-19T02:35:40Z</time>
      </trkpt>
      <trkpt lat="42.216703" lon="2.922696">
        <ele>79</ele>
        <time>2019-08-19T02:35:41Z</time>
      </trkpt>
      <trkpt lat="42.216723" lon="2.922627">
        <ele>79</ele>
        <time>2019-08-19T02:35:42Z</time>
      </trkpt>
      <trkpt lat="42.216743" lon="2.922559">
        <ele>79</ele>
        <time>2019-08-19T02:35:44Z</time>
      </trkpt>
      <trkpt lat="42.216763" lon="2.92249">
        <ele>79</ele>
        <time>2019-08-19T02:35:45Z</time>
      </trkpt>
      <trkpt lat="42.216783" lon="2.922422">
        <ele>79</ele>
        <time>2019-08-19T02:35:47Z</time>
      </trkpt>
      <trkpt lat="42.216803" lon="2.922353">
        <ele>80</ele>
        <time>2019-08-19T02:35:48Z</time>
      </trkpt>
      <trkpt lat="42.216847" lon="2.922222">
        <ele>80</ele>
        <time>2019-08-19T02:35:49Z</time>
      </trkpt>
      <trkpt lat="42.216871" lon="2.922152">
        <ele>80</ele>
        <time>2019-08-19T02:35:50Z</time>
      </trkpt>
      <trkpt lat="42.216894" lon="2.922082">
        <ele>80</ele>
        <time>2019-08-19T02:35:51Z</time>
      </trkpt>
      <trkpt lat="42.216918" lon="2.922012">
        <ele>80</ele>
        <time>2019-08-19T02:35:52Z</time>
      </trkpt>
      <trkpt lat="42.216942" lon="2.921941">
        <ele>80</ele>
        <time>2019-08-19T02:35:54Z</time>
      </trkpt>
      <trkpt lat="42.216966" lon="2.921871">
        <ele>80</ele>
        <time>2019-08-19T02:35:56Z</time>
      </trkpt>
      <trkpt lat="42.216989" lon="2.921801">
        <ele>80</ele>
        <time>2019-08-19T02:35:57Z</time>
      </trkpt>
      <trkpt lat="42.217013" lon="2.921731">
        <ele>80</ele>
        <time>2019-08-19T02:35:58Z</time>
      </trkpt>
      <trkpt lat="42.217064" lon="2.921606">
        <ele>80</ele>
        <time>2019-08-19T02:35:59Z</time>
      </trkpt>
      <trkpt lat="42.217091" lon="2.921541">
        <ele>80</ele>
        <time>2019-08-19T02:36:01Z</time>
      </trkpt>
      <trkpt lat="42.217119" lon="2.921476">
        <ele>80</ele>
        <time>2019-08-19T02:36:02Z</time>
      </trkpt>
      <trkpt lat="42.217147" lon="2.921411">
        <ele>80</ele>
        <time>2019-08-19T02:36:04Z</time>
      </trkpt>
      <trkpt lat="42.217174" lon="2.921345">
        <ele>80</ele>
        <time>2019-08-19T02:36:05Z</time>
      </trkpt>
      <trkpt lat="42.217202" lon="2.92128">
        <ele>80</ele>
        <time>2019-08-19T02:36:06Z</time>
      </trkpt>
      <trkpt lat="42.217229" lon="2.921215">
        <ele>80</ele>
        <time>2019-08-19T02:36:07Z</time>
      </trkpt>
      <trkpt lat="42.217257" lon="2.92115">
        <ele>80</ele>
        <time>2019-08-19T02:36:08Z</time>
      </trkpt>
      <trkpt lat="42.21731" lon="2.921032">
        <ele>80</ele>
        <time>2019-08-19T02:36:09Z</time>
      </trkpt>
      <trkpt lat="42.217338" lon="2.920973">
        <ele>80</ele>
        <time>2019-08-19T02:36:10Z</time>
      </trkpt>
      <trkpt lat="42.217366" lon="2.920915">
        <ele>80</ele>
        <time>2019-08-19T02:36:11Z</time>
      </trkpt>
      <trkpt lat="42.217394" lon="2.920856">
        <ele>80</ele>
        <time>2019-08-19T02:36:12Z</time>
      </trkpt>
      <trkpt lat="42.217422" lon="2.920798">
        <ele>80</ele>
        <time>2019-08-19T02:36:14Z</time>
      </trkpt>
      <trkpt lat="42.21745" lon="2.920739">
        <ele>80</ele>
        <time>2019-08-19T02:36:15Z</time>
      </trkpt>
      <trkpt lat="42.217478" lon="2.920681">
        <ele>80</ele>
        <time>2019-08-19T02:36:16Z</time>
      </trkpt>
      <trkpt lat="42.217506" lon="2.920622">
        <ele>80</ele>
        <time>2019-08-19T02:36:17Z</time>
      </trkpt>
      <trkpt lat="42.217534" lon="2.920564">
        <ele>81</ele>
        <time>2019-08-19T02:36:18Z</time>
      </trkpt>
      <trkpt lat="42.217598" lon="2.920446">
        <ele>81</ele>
        <time>2019-08-19T02:36:19Z</time>
      </trkpt>
      <trkpt lat="42.217633" lon="2.920385">
        <ele>81</ele>
        <time>2019-08-19T02:36:20Z</time>
      </trkpt>
      <trkpt lat="42.217668" lon="2.920325">
        <ele>81</ele>
        <time>2019-08-19T02:36:21Z</time>
      </trkpt>
      <trkpt lat="42.217704" lon="2.920264">
        <ele>81</ele>
        <time>2019-08-19T02:36:22Z</time>
      </trkpt>
      <trkpt lat="42.217739" lon="2.920204">
        <ele>81</ele>
        <time>2019-08-19T02:36:24Z</time>
      </trkpt>
      <trkpt lat="42.217774" lon="2.920143">
        <ele>81</ele>
        <time>2019-08-19T02:36:25Z</time>
      </trkpt>
      <trkpt lat="42.217809" lon="2.920083">
        <ele>81</ele>
        <time>2019-08-19T02:36:27Z</time>
      </trkpt>
      <trkpt lat="42.217844" lon="2.920022">
        <ele>82</ele>
        <time>2019-08-19T02:36:28Z</time>
      </trkpt>
      <trkpt lat="42.217905" lon="2.919919">
        <ele>82</ele>
        <time>2019-08-19T02:36:29Z</time>
      </trkpt>
      <trkpt lat="42.217936" lon="2.919868">
        <ele>82</ele>
        <time>2019-08-19T02:36:30Z</time>
      </trkpt>
      <trkpt lat="42.217968" lon="2.919818">
        <ele>82</ele>
        <time>2019-08-19T02:36:31Z</time>
      </trkpt>
      <trkpt lat="42.218" lon="2.919768">
        <ele>82</ele>
        <time>2019-08-19T02:36:32Z</time>
      </trkpt>
      <trkpt lat="42.218031" lon="2.919717">
        <ele>82</ele>
        <time>2019-08-19T02:36:34Z</time>
      </trkpt>
      <trkpt lat="42.218063" lon="2.919667">
        <ele>82</ele>
        <time>2019-08-19T02:36:35Z</time>
      </trkpt>
      <trkpt lat="42.218095" lon="2.919617">
        <ele>82</ele>
        <time>2019-08-19T02:36:36Z</time>
      </trkpt>
      <trkpt lat="42.218126" lon="2.919566">
        <ele>82</ele>
        <time>2019-08-19T02:36:37Z</time>
      </trkpt>
      <trkpt lat="42.218158" lon="2.919516">
        <ele>83</ele>
        <time>2019-08-19T02:36:38Z</time>
      </trkpt>
      <trkpt lat="42.21822" lon="2.919419">
        <ele>83</ele>
        <time>2019-08-19T02:36:39Z</time>
      </trkpt>
      <trkpt lat="42.218251" lon="2.919373">
        <ele>83</ele>
        <time>2019-08-19T02:36:40Z</time>
      </trkpt>
      <trkpt lat="42.218281" lon="2.919328">
        <ele>83</ele>
        <time>2019-08-19T02:36:41Z</time>
      </trkpt>
      <trkpt lat="42.218311" lon="2.919282">
        <ele>83</ele>
        <time>2019-08-19T02:36:42Z</time>
      </trkpt>
      <trkpt lat="42.218342" lon="2.919236">
        <ele>83</ele>
        <time>2019-08-19T02:36:43Z</time>
      </trkpt>
      <trkpt lat="42.218372" lon="2.91919">
        <ele>83</ele>
        <time>2019-08-19T02:36:44Z</time>
      </trkpt>
      <trkpt lat="42.218402" lon="2.919144">
        <ele>83</ele>
        <time>2019-08-19T02:36:45Z</time>
      </trkpt>
      <trkpt lat="42.218432" lon="2.919099">
        <ele>83</ele>
        <time>2019-08-19T02:36:46Z</time>
      </trkpt>
      <trkpt lat="42.218463" lon="2.919053">
        <ele>83</ele>
        <time>2019-08-19T02:36:47Z</time>
      </trkpt>
      <trkpt lat="42.218493" lon="2.919007">
        <ele>83</ele>
        <time>2019-08-19T02:36:48Z</time>
      </trkpt>
      <trkpt lat="42.218561" lon="2.918906">
        <ele>83</ele>
        <time>2019-08-19T02:36:49Z</time>
      </trkpt>
      <trkpt lat="42.218596" lon="2.918855">
        <ele>83</ele>
        <time>2019-08-19T02:36:50Z</time>
      </trkpt>
      <trkpt lat="42.21863" lon="2.918804">
        <ele>83</ele>
        <time>2019-08-19T02:36:51Z</time>
      </trkpt>
      <trkpt lat="42.218664" lon="2.918753">
        <ele>83</ele>
        <time>2019-08-19T02:36:53Z</time>
      </trkpt>
      <trkpt lat="42.218699" lon="2.918703">
        <ele>83</ele>
        <time>2019-08-19T02:36:54Z</time>
      </trkpt>
      <trkpt lat="42.218733" lon="2.918652">
        <ele>83</ele>
        <time>2019-08-19T02:36:55Z</time>
      </trkpt>
      <trkpt lat="42.218767" lon="2.918601">
        <ele>83</ele>
        <time>2019-08-19T02:36:56Z</time>
      </trkpt>
      <trkpt lat="42.218802" lon="2.91855">
        <ele>83</ele>
        <time>2019-08-19T02:36:57Z</time>
      </trkpt>
      <trkpt lat="42.218836" lon="2.918499">
        <ele>84</ele>
        <time>2019-08-19T02:36:58Z</time>
      </trkpt>
      <trkpt lat="42.218905" lon="2.918398">
        <ele>84</ele>
        <time>2019-08-19T02:36:59Z</time>
      </trkpt>
      <trkpt lat="42.21894" lon="2.918349">
        <ele>84</ele>
        <time>2019-08-19T02:37:00Z</time>
      </trkpt>
      <trkpt lat="42.218975" lon="2.918301">
        <ele>84</ele>
        <time>2019-08-19T02:37:01Z</time>
      </trkpt>
      <trkpt lat="42.21901" lon="2.918252">
        <ele>84</ele>
        <time>2019-08-19T02:37:02Z</time>
      </trkpt>
      <trkpt lat="42.219046" lon="2.918203">
        <ele>84</ele>
        <time>2019-08-19T02:37:04Z</time>
      </trkpt>
      <trkpt lat="42.219081" lon="2.918154">
        <ele>84</ele>
        <time>2019-08-19T02:37:05Z</time>
      </trkpt>
      <trkpt lat="42.219116" lon="2.918106">
        <ele>84</ele>
        <time>2019-08-19T02:37:06Z</time>
      </trkpt>
      <trkpt lat="42.219151" lon="2.918057">
        <ele>84</ele>
        <time>2019-08-19T02:37:07Z</time>
      </trkpt>
      <trkpt lat="42.219186" lon="2.918008">
        <ele>85</ele>
        <time>2019-08-19T02:37:08Z</time>
      </trkpt>
      <trkpt lat="42.219272" lon="2.917944">
        <ele>85</ele>
        <time>2019-08-19T02:37:09Z</time>
      </trkpt>
      <trkpt lat="42.219316" lon="2.917915">
        <ele>85</ele>
        <time>2019-08-19T02:37:10Z</time>
      </trkpt>
      <trkpt lat="42.219359" lon="2.917885">
        <ele>85</ele>
        <time>2019-08-19T02:37:12Z</time>
      </trkpt>
      <trkpt lat="42.219402" lon="2.917856">
        <ele>85</ele>
        <time>2019-08-19T02:37:13Z</time>
      </trkpt>
      <trkpt lat="42.219446" lon="2.917826">
        <ele>85</ele>
        <time>2019-08-19T02:37:14Z</time>
      </trkpt>
      <trkpt lat="42.219489" lon="2.917797">
        <ele>85</ele>
        <time>2019-08-19T02:37:15Z</time>
      </trkpt>
      <trkpt lat="42.219532" lon="2.917767">
        <ele>85</ele>
        <time>2019-08-19T02:37:16Z</time>
      </trkpt>
      <trkpt lat="42.219576" lon="2.917738">
        <ele>85</ele>
        <time>2019-08-19T02:37:17Z</time>
      </trkpt>
      <trkpt lat="42.219619" lon="2.917708">
        <ele>85</ele>
        <time>2019-08-19T02:37:18Z</time>
      </trkpt>
      <trkpt lat="42.219658" lon="2.91758">
        <ele>85</ele>
        <time>2019-08-19T02:37:19Z</time>
      </trkpt>
      <trkpt lat="42.219675" lon="2.917514">
        <ele>85</ele>
        <time>2019-08-19T02:37:20Z</time>
      </trkpt>
      <trkpt lat="42.219692" lon="2.917449">
        <ele>85</ele>
        <time>2019-08-19T02:37:21Z</time>
      </trkpt>
      <trkpt lat="42.219709" lon="2.917383">
        <ele>85</ele>
        <time>2019-08-19T02:37:23Z</time>
      </trkpt>
      <trkpt lat="42.219727" lon="2.917317">
        <ele>85</ele>
        <time>2019-08-19T02:37:24Z</time>
      </trkpt>
      <trkpt lat="42.219744" lon="2.917251">
        <ele>85</ele>
        <time>2019-08-19T02:37:25Z</time>
      </trkpt>
      <trkpt lat="42.219761" lon="2.917186">
        <ele>85</ele>
        <time>2019-08-19T02:37:26Z</time>
      </trkpt>
      <trkpt lat="42.219778" lon="2.91712">
        <ele>85</ele>
        <time>2019-08-19T02:37:27Z</time>
      </trkpt>
      <trkpt lat="42.219795" lon="2.917054">
        <ele>86</ele>
        <time>2019-08-19T02:37:28Z</time>
      </trkpt>
      <trkpt lat="42.219865" lon="2.916937">
        <ele>86</ele>
        <time>2019-08-19T02:37:29Z</time>
      </trkpt>
      <trkpt lat="42.219904" lon="2.916878">
        <ele>86</ele>
        <time>2019-08-19T02:37:31Z</time>
      </trkpt>
      <trkpt lat="42.219942" lon="2.916818">
        <ele>86</ele>
        <time>2019-08-19T02:37:33Z</time>
      </trkpt>
      <trkpt lat="42.21998" lon="2.916759">
        <ele>86</ele>
        <time>2019-08-19T02:37:34Z</time>
      </trkpt>
      <trkpt lat="42.220018" lon="2.916699">
        <ele>86</ele>
        <time>2019-08-19T02:37:35Z</time>
      </trkpt>
      <trkpt lat="42.220057" lon="2.916639">
        <ele>86</ele>
        <time>2019-08-19T02:37:36Z</time>
      </trkpt>
      <trkpt lat="42.220095" lon="2.91658">
        <ele>86</ele>
        <time>2019-08-19T02:37:37Z</time>
      </trkpt>
      <trkpt lat="42.220133" lon="2.91652">
        <ele>87</ele>
        <time>2019-08-19T02:37:38Z</time>
      </trkpt>
      <trkpt lat="42.2202" lon="2.916418">
        <ele>87</ele>
        <time>2019-08-19T02:37:39Z</time>
      </trkpt>
      <trkpt lat="42.220232" lon="2.916369">
        <ele>87</ele>
        <time>2019-08-19T02:37:40Z</time>
      </trkpt>
      <trkpt lat="42.220265" lon="2.91632">
        <ele>87</ele>
        <time>2019-08-19T02:37:42Z</time>
      </trkpt>
      <trkpt lat="42.220298" lon="2.916271">
        <ele>87</ele>
        <time>2019-08-19T02:37:43Z</time>
      </trkpt>
      <trkpt lat="42.22033" lon="2.916223">
        <ele>87</ele>
        <time>2019-08-19T02:37:44Z</time>
      </trkpt>
      <trkpt lat="42.220363" lon="2.916174">
        <ele>87</ele>
        <time>2019-08-19T02:37:45Z</time>
      </trkpt>
      <trkpt lat="42.220396" lon="2.916125">
        <ele>87</ele>
        <time>2019-08-19T02:37:46Z</time>
      </trkpt>
      <trkpt lat="42.220428" lon="2.916076">
        <ele>87</ele>
        <time>2019-08-19T02:37:47Z</time>
      </trkpt>
      <trkpt lat="42.220461" lon="2.916027">
        <ele>88</ele>
        <time>2019-08-19T02:37:48Z</time>
      </trkpt>
      <trkpt lat="42.220539" lon="2.915913">
        <ele>88</ele>
        <time>2019-08-19T02:37:50Z</time>
      </trkpt>
      <trkpt lat="42.220572" lon="2.915864">
        <ele>88</ele>
        <time>2019-08-19T02:37:51Z</time>
      </trkpt>
      <trkpt lat="42.220606" lon="2.915816">
        <ele>88</ele>
        <time>2019-08-19T02:37:52Z</time>
      </trkpt>
      <trkpt lat="42.220639" lon="2.915768">
        <ele>88</ele>
        <time>2019-08-19T02:37:53Z</time>
      </trkpt>
      <trkpt lat="42.220672" lon="2.915719">
        <ele>88</ele>
        <time>2019-08-19T02:37:54Z</time>
      </trkpt>
      <trkpt lat="42.220705" lon="2.915671">
        <ele>88</ele>
        <time>2019-08-19T02:37:55Z</time>
      </trkpt>
      <trkpt lat="42.220739" lon="2.915623">
        <ele>88</ele>
        <time>2019-08-19T02:37:56Z</time>
      </trkpt>
      <trkpt lat="42.220772" lon="2.915574">
        <ele>88</ele>
        <time>2019-08-19T02:37:57Z</time>
      </trkpt>
      <trkpt lat="42.220805" lon="2.915526">
        <ele>90</ele>
        <time>2019-08-19T02:37:58Z</time>
      </trkpt>
      <trkpt lat="42.220874" lon="2.915424">
        <ele>90</ele>
        <time>2019-08-19T02:37:59Z</time>
      </trkpt>
      <trkpt lat="42.220909" lon="2.915372">
        <ele>90</ele>
        <time>2019-08-19T02:38:00Z</time>
      </trkpt>
      <trkpt lat="42.220945" lon="2.915319">
        <ele>90</ele>
        <time>2019-08-19T02:38:01Z</time>
      </trkpt>
      <trkpt lat="42.220981" lon="2.915267">
        <ele>90</ele>
        <time>2019-08-19T02:38:03Z</time>
      </trkpt>
      <trkpt lat="42.221016" lon="2.915214">
        <ele>90</ele>
        <time>2019-08-19T02:38:04Z</time>
      </trkpt>
      <trkpt lat="42.221052" lon="2.915162">
        <ele>90</ele>
        <time>2019-08-19T02:38:05Z</time>
      </trkpt>
      <trkpt lat="42.221088" lon="2.915109">
        <ele>90</ele>
        <time>2019-08-19T02:38:06Z</time>
      </trkpt>
      <trkpt lat="42.221123" lon="2.915057">
        <ele>90</ele>
        <time>2019-08-19T02:38:07Z</time>
      </trkpt>
      <trkpt lat="42.221159" lon="2.915004">
        <ele>90</ele>
        <time>2019-08-19T02:38:09Z</time>
      </trkpt>
      <trkpt lat="42.221217" lon="2.914917">
        <ele>90</ele>
        <time>2019-08-19T02:38:10Z</time>
      </trkpt>
      <trkpt lat="42.221245" lon="2.914876">
        <ele>90</ele>
        <time>2019-08-19T02:38:11Z</time>
      </trkpt>
      <trkpt lat="42.221272" lon="2.914835">
        <ele>90</ele>
        <time>2019-08-19T02:38:12Z</time>
      </trkpt>
      <trkpt lat="42.221299" lon="2.914794">
        <ele>90</ele>
        <time>2019-08-19T02:38:13Z</time>
      </trkpt>
      <trkpt lat="42.221327" lon="2.914752">
        <ele>90</ele>
        <time>2019-08-19T02:38:14Z</time>
      </trkpt>
      <trkpt lat="42.221354" lon="2.914711">
        <ele>90</ele>
        <time>2019-08-19T02:38:15Z</time>
      </trkpt>
      <trkpt lat="42.221381" lon="2.91467">
        <ele>90</ele>
        <time>2019-08-19T02:38:16Z</time>
      </trkpt>
      <trkpt lat="42.221409" lon="2.914629">
        <ele>90</ele>
        <time>2019-08-19T02:38:17Z</time>
      </trkpt>
      <trkpt lat="42.221436" lon="2.914588">
        <ele>92</ele>
        <time>2019-08-19T02:38:18Z</time>
      </trkpt>
      <trkpt lat="42.221497" lon="2.914494">
        <ele>92</ele>
        <time>2019-08-19T02:38:19Z</time>
      </trkpt>
      <trkpt lat="42.221527" lon="2.914447">
        <ele>92</ele>
        <time>2019-08-19T02:38:20Z</time>
      </trkpt>
      <trkpt lat="42.221557" lon="2.9144">
        <ele>92</ele>
        <time>2019-08-19T02:38:21Z</time>
      </trkpt>
      <trkpt lat="42.221587" lon="2.914353">
        <ele>92</ele>
        <time>2019-08-19T02:38:22Z</time>
      </trkpt>
      <trkpt lat="42.221618" lon="2.914306">
        <ele>92</ele>
        <time>2019-08-19T02:38:23Z</time>
      </trkpt>
      <trkpt lat="42.221648" lon="2.914259">
        <ele>92</ele>
        <time>2019-08-19T02:38:24Z</time>
      </trkpt>
      <trkpt lat="42.221678" lon="2.914212">
        <ele>92</ele>
        <time>2019-08-19T02:38:25Z</time>
      </trkpt>
      <trkpt lat="42.221708" lon="2.914165">
        <ele>92</ele>
        <time>2019-08-19T02:38:26Z</time>
      </trkpt>
      <trkpt lat="42.221738" lon="2.914118">
        <ele>95</ele>
        <time>2019-08-19T02:38:28Z</time>
      </trkpt>
      <trkpt lat="42.221796" lon="2.914024">
        <ele>95</ele>
        <time>2019-08-19T02:38:29Z</time>
      </trkpt>
      <trkpt lat="42.221825" lon="2.913975">
        <ele>95</ele>
        <time>2019-08-19T02:38:30Z</time>
      </trkpt>
      <trkpt lat="42.221855" lon="2.913927">
        <ele>95</ele>
        <time>2019-08-19T02:38:31Z</time>
      </trkpt>
      <trkpt lat="42.221884" lon="2.913878">
        <ele>95</ele>
        <time>2019-08-19T02:38:32Z</time>
      </trkpt>
      <trkpt lat="42.221913" lon="2.91383">
        <ele>95</ele>
        <time>2019-08-19T02:38:33Z</time>
      </trkpt>
      <trkpt lat="42.221942" lon="2.913781">
        <ele>95</ele>
        <time>2019-08-19T02:38:35Z</time>
      </trkpt>
      <trkpt lat="42.221972" lon="2.913733">
        <ele>95</ele>
        <time>2019-08-19T02:38:36Z</time>
      </trkpt>
      <trkpt lat="42.222001" lon="2.913684">
        <ele>95</ele>
        <time>2019-08-19T02:38:37Z</time>
      </trkpt>
      <trkpt lat="42.22203" lon="2.913636">
        <ele>95</ele>
        <time>2019-08-19T02:38:38Z</time>
      </trkpt>
      <trkpt lat="42.222085" lon="2.91354">
        <ele>95</ele>
        <time>2019-08-19T02:38:39Z</time>
      </trkpt>
      <trkpt lat="42.222111" lon="2.913493">
        <ele>95</ele>
        <time>2019-08-19T02:38:40Z</time>
      </trkpt>
      <trkpt lat="42.222138" lon="2.913447">
        <ele>95</ele>
        <time>2019-08-19T02:38:41Z</time>
      </trkpt>
      <trkpt lat="42.222164" lon="2.9134">
        <ele>95</ele>
        <time>2019-08-19T02:38:42Z</time>
      </trkpt>
      <trkpt lat="42.22219" lon="2.913354">
        <ele>95</ele>
        <time>2019-08-19T02:38:43Z</time>
      </trkpt>
      <trkpt lat="42.222216" lon="2.913308">
        <ele>95</ele>
        <time>2019-08-19T02:38:44Z</time>
      </trkpt>
      <trkpt lat="42.222242" lon="2.913261">
        <ele>95</ele>
        <time>2019-08-19T02:38:45Z</time>
      </trkpt>
      <trkpt lat="42.222269" lon="2.913215">
        <ele>95</ele>
        <time>2019-08-19T02:38:46Z</time>
      </trkpt>
      <trkpt lat="42.222295" lon="2.913168">
        <ele>95</ele>
        <time>2019-08-19T02:38:47Z</time>
      </trkpt>
      <trkpt lat="42.222321" lon="2.913122">
        <ele>96</ele>
        <time>2019-08-19T02:38:48Z</time>
      </trkpt>
      <trkpt lat="42.222375" lon="2.913019">
        <ele>96</ele>
        <time>2019-08-19T02:38:49Z</time>
      </trkpt>
      <trkpt lat="42.2224" lon="2.91297">
        <ele>96</ele>
        <time>2019-08-19T02:38:50Z</time>
      </trkpt>
      <trkpt lat="42.222426" lon="2.91292">
        <ele>96</ele>
        <time>2019-08-19T02:38:51Z</time>
      </trkpt>
      <trkpt lat="42.222451" lon="2.91287">
        <ele>96</ele>
        <time>2019-08-19T02:38:52Z</time>
      </trkpt>
      <trkpt lat="42.222476" lon="2.912821">
        <ele>96</ele>
        <time>2019-08-19T02:38:53Z</time>
      </trkpt>
      <trkpt lat="42.222501" lon="2.912771">
        <ele>96</ele>
        <time>2019-08-19T02:38:54Z</time>
      </trkpt>
      <trkpt lat="42.222526" lon="2.912721">
        <ele>96</ele>
        <time>2019-08-19T02:38:55Z</time>
      </trkpt>
      <trkpt lat="42.222552" lon="2.912671">
        <ele>96</ele>
        <time>2019-08-19T02:38:56Z</time>
      </trkpt>
      <trkpt lat="42.222577" lon="2.912622">
        <ele>96</ele>
        <time>2019-08-19T02:38:57Z</time>
      </trkpt>
      <trkpt lat="42.222602" lon="2.912572">
        <ele>96</ele>
        <time>2019-08-19T02:38:58Z</time>
      </trkpt>
      <trkpt lat="42.222656" lon="2.912457">
        <ele>96</ele>
        <time>2019-08-19T02:38:59Z</time>
      </trkpt>
      <trkpt lat="42.222682" lon="2.912398">
        <ele>96</ele>
        <time>2019-08-19T02:39:00Z</time>
      </trkpt>
      <trkpt lat="42.222708" lon="2.91234">
        <ele>96</ele>
        <time>2019-08-19T02:39:01Z</time>
      </trkpt>
      <trkpt lat="42.222734" lon="2.912281">
        <ele>96</ele>
        <time>2019-08-19T02:39:02Z</time>
      </trkpt>
      <trkpt lat="42.22276" lon="2.912223">
        <ele>96</ele>
        <time>2019-08-19T02:39:03Z</time>
      </trkpt>
      <trkpt lat="42.222786" lon="2.912164">
        <ele>96</ele>
        <time>2019-08-19T02:39:04Z</time>
      </trkpt>
      <trkpt lat="42.222812" lon="2.912106">
        <ele>96</ele>
        <time>2019-08-19T02:39:06Z</time>
      </trkpt>
      <trkpt lat="42.222838" lon="2.912047">
        <ele>96</ele>
        <time>2019-08-19T02:39:07Z</time>
      </trkpt>
      <trkpt lat="42.222864" lon="2.911989">
        <ele>96</ele>
        <time>2019-08-19T02:39:08Z</time>
      </trkpt>
      <trkpt lat="42.222915" lon="2.911865">
        <ele>96</ele>
        <time>2019-08-19T02:39:09Z</time>
      </trkpt>
      <trkpt lat="42.22294" lon="2.911802">
        <ele>96</ele>
        <time>2019-08-19T02:39:10Z</time>
      </trkpt>
      <trkpt lat="42.222965" lon="2.911739">
        <ele>96</ele>
        <time>2019-08-19T02:39:11Z</time>
      </trkpt>
      <trkpt lat="42.22299" lon="2.911676">
        <ele>96</ele>
        <time>2019-08-19T02:39:12Z</time>
      </trkpt>
      <trkpt lat="42.223016" lon="2.911613">
        <ele>96</ele>
        <time>2019-08-19T02:39:13Z</time>
      </trkpt>
      <trkpt lat="42.223041" lon="2.91155">
        <ele>96</ele>
        <time>2019-08-19T02:39:15Z</time>
      </trkpt>
      <trkpt lat="42.223066" lon="2.911487">
        <ele>96</ele>
        <time>2019-08-19T02:39:16Z</time>
      </trkpt>
      <trkpt lat="42.223091" lon="2.911424">
        <ele>96</ele>
        <time>2019-08-19T02:39:17Z</time>
      </trkpt>
      <trkpt lat="42.223116" lon="2.911361">
        <ele>96</ele>
        <time>2019-08-19T02:39:18Z</time>
      </trkpt>
      <trkpt lat="42.223162" lon="2.911228">
        <ele>96</ele>
        <time>2019-08-19T02:39:19Z</time>
      </trkpt>
      <trkpt lat="42.223185" lon="2.911161">
        <ele>96</ele>
        <time>2019-08-19T02:39:20Z</time>
      </trkpt>
      <trkpt lat="42.223207" lon="2.911094">
        <ele>96</ele>
        <time>2019-08-19T02:39:21Z</time>
      </trkpt>
      <trkpt lat="42.223229" lon="2.911027">
        <ele>96</ele>
        <time>2019-08-19T02:39:22Z</time>
      </trkpt>
      <trkpt lat="42.223252" lon="2.910961">
        <ele>96</ele>
        <time>2019-08-19T02:39:23Z</time>
      </trkpt>
      <trkpt lat="42.223274" lon="2.910894">
        <ele>96</ele>
        <time>2019-08-19T02:39:25Z</time>
      </trkpt>
      <trkpt lat="42.223296" lon="2.910827">
        <ele>96</ele>
        <time>2019-08-19T02:39:26Z</time>
      </trkpt>
      <trkpt lat="42.223319" lon="2.91076">
        <ele>96</ele>
        <time>2019-08-19T02:39:27Z</time>
      </trkpt>
      <trkpt lat="42.223341" lon="2.910693">
        <ele>97</ele>
        <time>2019-08-19T02:39:28Z</time>
      </trkpt>
      <trkpt lat="42.223379" lon="2.910567">
        <ele>97</ele>
        <time>2019-08-19T02:39:29Z</time>
      </trkpt>
      <trkpt lat="42.223396" lon="2.910507">
        <ele>97</ele>
        <time>2019-08-19T02:39:30Z</time>
      </trkpt>
      <trkpt lat="42.223414" lon="2.910448">
        <ele>97</ele>
        <time>2019-08-19T02:39:31Z</time>
      </trkpt>
      <trkpt lat="42.223431" lon="2.910389">
        <ele>97</ele>
        <time>2019-08-19T02:39:32Z</time>
      </trkpt>
      <trkpt lat="42.223448" lon="2.91033">
        <ele>97</ele>
        <time>2019-08-19T02:39:33Z</time>
      </trkpt>
      <trkpt lat="42.223465" lon="2.91027">
        <ele>97</ele>
        <time>2019-08-19T02:39:34Z</time>
      </trkpt>
      <trkpt lat="42.223482" lon="2.910211">
        <ele>97</ele>
        <time>2019-08-19T02:39:35Z</time>
      </trkpt>
      <trkpt lat="42.2235" lon="2.910152">
        <ele>97</ele>
        <time>2019-08-19T02:39:36Z</time>
      </trkpt>
      <trkpt lat="42.223517" lon="2.910092">
        <ele>97</ele>
        <time>2019-08-19T02:39:37Z</time>
      </trkpt>
      <trkpt lat="42.223534" lon="2.910033">
        <ele>98</ele>
        <time>2019-08-19T02:39:38Z</time>
      </trkpt>
      <trkpt lat="42.223568" lon="2.9099">
        <ele>98</ele>
        <time>2019-08-19T02:39:39Z</time>
      </trkpt>
      <trkpt lat="42.223584" lon="2.909834">
        <ele>98</ele>
        <time>2019-08-19T02:39:40Z</time>
      </trkpt>
      <trkpt lat="42.223599" lon="2.909767">
        <ele>98</ele>
        <time>2019-08-19T02:39:41Z</time>
      </trkpt>
      <trkpt lat="42.223615" lon="2.9097">
        <ele>98</ele>
        <time>2019-08-19T02:39:42Z</time>
      </trkpt>
      <trkpt lat="42.223631" lon="2.909634">
        <ele>98</ele>
        <time>2019-08-19T02:39:44Z</time>
      </trkpt>
      <trkpt lat="42.223647" lon="2.909567">
        <ele>98</ele>
        <time>2019-08-19T02:39:45Z</time>
      </trkpt>
      <trkpt lat="42.223662" lon="2.9095">
        <ele>98</ele>
        <time>2019-08-19T02:39:46Z</time>
      </trkpt>
      <trkpt lat="42.223678" lon="2.909434">
        <ele>98</ele>
        <time>2019-08-19T02:39:47Z</time>
      </trkpt>
      <trkpt lat="42.223694" lon="2.909367">
        <ele>99</ele>
        <time>2019-08-19T02:39:48Z</time>
      </trkpt>
      <trkpt lat="42.223721" lon="2.909228">
        <ele>99</ele>
        <time>2019-08-19T02:39:49Z</time>
      </trkpt>
      <trkpt lat="42.223734" lon="2.909158">
        <ele>99</ele>
        <time>2019-08-19T02:39:50Z</time>
      </trkpt>
      <trkpt lat="42.223747" lon="2.909089">
        <ele>99</ele>
        <time>2019-08-19T02:39:51Z</time>
      </trkpt>
      <trkpt lat="42.22376" lon="2.909019">
        <ele>99</ele>
        <time>2019-08-19T02:39:53Z</time>
      </trkpt>
      <trkpt lat="42.223773" lon="2.90895">
        <ele>99</ele>
        <time>2019-08-19T02:39:54Z</time>
      </trkpt>
      <trkpt lat="42.223786" lon="2.90888">
        <ele>99</ele>
        <time>2019-08-19T02:39:55Z</time>
      </trkpt>
      <trkpt lat="42.223799" lon="2.908811">
        <ele>99</ele>
        <time>2019-08-19T02:39:56Z</time>
      </trkpt>
      <trkpt lat="42.223812" lon="2.908741">
        <ele>99</ele>
        <time>2019-08-19T02:39:57Z</time>
      </trkpt>
      <trkpt lat="42.223825" lon="2.908672">
        <ele>99</ele>
        <time>2019-08-19T02:39:58Z</time>
      </trkpt>
      <trkpt lat="42.223845" lon="2.908538">
        <ele>99</ele>
        <time>2019-08-19T02:39:59Z</time>
      </trkpt>
      <trkpt lat="42.223855" lon="2.908475">
        <ele>99</ele>
        <time>2019-08-19T02:40:00Z</time>
      </trkpt>
      <trkpt lat="42.223864" lon="2.908411">
        <ele>99</ele>
        <time>2019-08-19T02:40:01Z</time>
      </trkpt>
      <trkpt lat="42.223873" lon="2.908348">
        <ele>99</ele>
        <time>2019-08-19T02:40:02Z</time>
      </trkpt>
      <trkpt lat="42.223883" lon="2.908284">
        <ele>99</ele>
        <time>2019-08-19T02:40:03Z</time>
      </trkpt>
      <trkpt lat="42.223892" lon="2.90822">
        <ele>99</ele>
        <time>2019-08-19T02:40:04Z</time>
      </trkpt>
      <trkpt lat="42.223901" lon="2.908157">
        <ele>99</ele>
        <time>2019-08-19T02:40:05Z</time>
      </trkpt>
      <trkpt lat="42.22391" lon="2.908093">
        <ele>99</ele>
        <time>2019-08-19T02:40:06Z</time>
      </trkpt>
      <trkpt lat="42.22392" lon="2.90803">
        <ele>99</ele>
        <time>2019-08-19T02:40:07Z</time>
      </trkpt>
      <trkpt lat="42.223929" lon="2.907966">
        <ele>100</ele>
        <time>2019-08-19T02:40:08Z</time>
      </trkpt>
      <trkpt lat="42.223943" lon="2.907832">
        <ele>100</ele>
        <time>2019-08-19T02:40:09Z</time>
      </trkpt>
      <trkpt lat="42.223949" lon="2.907769">
        <ele>100</ele>
        <time>2019-08-19T02:40:10Z</time>
      </trkpt>
      <trkpt lat="42.223956" lon="2.907707">
        <ele>100</ele>
        <time>2019-08-19T02:40:11Z</time>
      </trkpt>
      <trkpt lat="42.223962" lon="2.907644">
        <ele>100</ele>
        <time>2019-08-19T02:40:12Z</time>
      </trkpt>
      <trkpt lat="42.223968" lon="2.907582">
        <ele>100</ele>
        <time>2019-08-19T02:40:13Z</time>
      </trkpt>
      <trkpt lat="42.223974" lon="2.90752">
        <ele>100</ele>
        <time>2019-08-19T02:40:14Z</time>
      </trkpt>
      <trkpt lat="42.22398" lon="2.907457">
        <ele>100</ele>
        <time>2019-08-19T02:40:15Z</time>
      </trkpt>
      <trkpt lat="42.223987" lon="2.907395">
        <ele>100</ele>
        <time>2019-08-19T02:40:16Z</time>
      </trkpt>
      <trkpt lat="42.223993" lon="2.907332">
        <ele>100</ele>
        <time>2019-08-19T02:40:17Z</time>
      </trkpt>
      <trkpt lat="42.223999" lon="2.90727">
        <ele>100</ele>
        <time>2019-08-19T02:40:18Z</time>
      </trkpt>
      <trkpt lat="42.224003" lon="2.907205">
        <ele>100</ele>
        <time>2019-08-19T02:40:19Z</time>
      </trkpt>
      <trkpt lat="42.224009" lon="2.907149">
        <ele>100</ele>
        <time>2019-08-19T02:40:20Z</time>
      </trkpt>
      <trkpt lat="42.224013" lon="2.907108">
        <ele>100</ele>
        <time>2019-08-19T02:40:22Z</time>
      </trkpt>
      <trkpt lat="42.224013" lon="2.907108">
        <ele>101</ele>
        <time>2019-08-19T02:40:28Z</time>
      </trkpt>
      <trkpt lat="42.224015" lon="2.907036">
        <ele>101</ele>
        <time>2019-08-19T02:40:29Z</time>
      </trkpt>
      <trkpt lat="42.224017" lon="2.906991">
        <ele>101</ele>
        <time>2019-08-19T02:43:25Z</time>
      </trkpt>
      <trkpt lat="42.224019" lon="2.906947">
        <ele>101</ele>
        <time>2019-08-19T02:43:26Z</time>
      </trkpt>
      <trkpt lat="42.224021" lon="2.906902">
        <ele>101</ele>
        <time>2019-08-19T02:43:27Z</time>
      </trkpt>
      <trkpt lat="42.224023" lon="2.906858">
        <ele>101</ele>
        <time>2019-08-19T02:43:28Z</time>
      </trkpt>
      <trkpt lat="42.224026" lon="2.906813">
        <ele>101</ele>
        <time>2019-08-19T02:43:29Z</time>
      </trkpt>
      <trkpt lat="42.224028" lon="2.906769">
        <ele>101</ele>
        <time>2019-08-19T02:43:30Z</time>
      </trkpt>
      <trkpt lat="42.22403" lon="2.906724">
        <ele>101</ele>
        <time>2019-08-19T02:43:31Z</time>
      </trkpt>
      <trkpt lat="42.224032" lon="2.90668">
        <ele>101</ele>
        <time>2019-08-19T02:43:32Z</time>
      </trkpt>
      <trkpt lat="42.224034" lon="2.906635">
        <ele>101</ele>
        <time>2019-08-19T02:43:33Z</time>
      </trkpt>
      <trkpt lat="42.224036" lon="2.906591">
        <ele>101</ele>
        <time>2019-08-19T02:43:34Z</time>
      </trkpt>
      <trkpt lat="42.224043" lon="2.906476">
        <ele>101</ele>
        <time>2019-08-19T02:43:35Z</time>
      </trkpt>
      <trkpt lat="42.224046" lon="2.906414">
        <ele>101</ele>
        <time>2019-08-19T02:43:36Z</time>
      </trkpt>
      <trkpt lat="42.224049" lon="2.906352">
        <ele>101</ele>
        <time>2019-08-19T02:43:37Z</time>
      </trkpt>
      <trkpt lat="42.224052" lon="2.90629">
        <ele>101</ele>
        <time>2019-08-19T02:43:38Z</time>
      </trkpt>
      <trkpt lat="42.224055" lon="2.906229">
        <ele>101</ele>
        <time>2019-08-19T02:43:39Z</time>
      </trkpt>
      <trkpt lat="42.224057" lon="2.906167">
        <ele>101</ele>
        <time>2019-08-19T02:43:40Z</time>
      </trkpt>
      <trkpt lat="42.22406" lon="2.906105">
        <ele>101</ele>
        <time>2019-08-19T02:43:41Z</time>
      </trkpt>
      <trkpt lat="42.224063" lon="2.906043">
        <ele>101</ele>
        <time>2019-08-19T02:43:42Z</time>
      </trkpt>
      <trkpt lat="42.224066" lon="2.905981">
        <ele>101</ele>
        <time>2019-08-19T02:43:43Z</time>
      </trkpt>
      <trkpt lat="42.224069" lon="2.905919">
        <ele>101</ele>
        <time>2019-08-19T02:43:45Z</time>
      </trkpt>
      <trkpt lat="42.224072" lon="2.905792">
        <ele>101</ele>
        <time>2019-08-19T02:43:46Z</time>
      </trkpt>
      <trkpt lat="42.224073" lon="2.905731">
        <ele>101</ele>
        <time>2019-08-19T02:43:47Z</time>
      </trkpt>
      <trkpt lat="42.224074" lon="2.905671">
        <ele>101</ele>
        <time>2019-08-19T02:43:48Z</time>
      </trkpt>
      <trkpt lat="42.224075" lon="2.90561">
        <ele>101</ele>
        <time>2019-08-19T02:43:49Z</time>
      </trkpt>
      <trkpt lat="42.224076" lon="2.90555">
        <ele>101</ele>
        <time>2019-08-19T02:43:50Z</time>
      </trkpt>
      <trkpt lat="42.224077" lon="2.905489">
        <ele>101</ele>
        <time>2019-08-19T02:43:51Z</time>
      </trkpt>
      <trkpt lat="42.224078" lon="2.905429">
        <ele>101</ele>
        <time>2019-08-19T02:43:52Z</time>
      </trkpt>
      <trkpt lat="42.224079" lon="2.905368">
        <ele>101</ele>
        <time>2019-08-19T02:43:53Z</time>
      </trkpt>
      <trkpt lat="42.22408" lon="2.905308">
        <ele>101</ele>
        <time>2019-08-19T02:43:54Z</time>
      </trkpt>
      <trkpt lat="42.224082" lon="2.905168">
        <ele>101</ele>
        <time>2019-08-19T02:43:55Z</time>
      </trkpt>
      <trkpt lat="42.224083" lon="2.905097">
        <ele>101</ele>
        <time>2019-08-19T02:43:56Z</time>
      </trkpt>
      <trkpt lat="42.224084" lon="2.905025">
        <ele>101</ele>
        <time>2019-08-19T02:43:57Z</time>
      </trkpt>
      <trkpt lat="42.224085" lon="2.904954">
        <ele>101</ele>
        <time>2019-08-19T02:43:58Z</time>
      </trkpt>
      <trkpt lat="42.224087" lon="2.904883">
        <ele>101</ele>
        <time>2019-08-19T02:44:00Z</time>
      </trkpt>
      <trkpt lat="42.224088" lon="2.904812">
        <ele>101</ele>
        <time>2019-08-19T02:44:01Z</time>
      </trkpt>
      <trkpt lat="42.224089" lon="2.90474">
        <ele>101</ele>
        <time>2019-08-19T02:44:02Z</time>
      </trkpt>
      <trkpt lat="42.22409" lon="2.904669">
        <ele>101</ele>
        <time>2019-08-19T02:44:03Z</time>
      </trkpt>
      <trkpt lat="42.224091" lon="2.904598">
        <ele>101</ele>
        <time>2019-08-19T02:44:04Z</time>
      </trkpt>
      <trkpt lat="42.224094" lon="2.904449">
        <ele>101</ele>
        <time>2019-08-19T02:44:05Z</time>
      </trkpt>
      <trkpt lat="42.224095" lon="2.904374">
        <ele>101</ele>
        <time>2019-08-19T02:44:06Z</time>
      </trkpt>
      <trkpt lat="42.224096" lon="2.904299">
        <ele>101</ele>
        <time>2019-08-19T02:44:07Z</time>
      </trkpt>
      <trkpt lat="42.224097" lon="2.904224">
        <ele>101</ele>
        <time>2019-08-19T02:44:09Z</time>
      </trkpt>
      <trkpt lat="42.224099" lon="2.90415">
        <ele>101</ele>
        <time>2019-08-19T02:44:10Z</time>
      </trkpt>
      <trkpt lat="42.2241" lon="2.904075">
        <ele>101</ele>
        <time>2019-08-19T02:44:11Z</time>
      </trkpt>
      <trkpt lat="42.224101" lon="2.904">
        <ele>101</ele>
        <time>2019-08-19T02:44:12Z</time>
      </trkpt>
      <trkpt lat="42.224102" lon="2.903925">
        <ele>101</ele>
        <time>2019-08-19T02:44:13Z</time>
      </trkpt>
      <trkpt lat="42.224103" lon="2.90385">
        <ele>101</ele>
        <time>2019-08-19T02:44:14Z</time>
      </trkpt>
      <trkpt lat="42.224105" lon="2.903708">
        <ele>101</ele>
        <time>2019-08-19T02:44:15Z</time>
      </trkpt>
      <trkpt lat="42.224106" lon="2.903641">
        <ele>101</ele>
        <time>2019-08-19T02:44:16Z</time>
      </trkpt>
      <trkpt lat="42.224107" lon="2.903573">
        <ele>101</ele>
        <time>2019-08-19T02:44:17Z</time>
      </trkpt>
      <trkpt lat="42.224108" lon="2.903506">
        <ele>101</ele>
        <time>2019-08-19T02:44:18Z</time>
      </trkpt>
      <trkpt lat="42.224109" lon="2.903439">
        <ele>101</ele>
        <time>2019-08-19T02:44:19Z</time>
      </trkpt>
      <trkpt lat="42.22411" lon="2.903372">
        <ele>101</ele>
        <time>2019-08-19T02:44:20Z</time>
      </trkpt>
      <trkpt lat="42.224111" lon="2.903305">
        <ele>101</ele>
        <time>2019-08-19T02:44:21Z</time>
      </trkpt>
      <trkpt lat="42.224112" lon="2.903237">
        <ele>101</ele>
        <time>2019-08-19T02:44:22Z</time>
      </trkpt>
      <trkpt lat="42.224113" lon="2.90317">
        <ele>101</ele>
        <time>2019-08-19T02:44:23Z</time>
      </trkpt>
      <trkpt lat="42.224114" lon="2.903103">
        <ele>101</ele>
        <time>2019-08-19T02:44:24Z</time>
      </trkpt>
      <trkpt lat="42.224116" lon="2.902951">
        <ele>101</ele>
        <time>2019-08-19T02:44:25Z</time>
      </trkpt>
      <trkpt lat="42.224117" lon="2.902874">
        <ele>101</ele>
        <time>2019-08-19T02:44:27Z</time>
      </trkpt>
      <trkpt lat="42.224119" lon="2.902796">
        <ele>101</ele>
        <time>2019-08-19T02:44:28Z</time>
      </trkpt>
      <trkpt lat="42.22412" lon="2.902719">
        <ele>101</ele>
        <time>2019-08-19T02:44:29Z</time>
      </trkpt>
      <trkpt lat="42.224121" lon="2.902642">
        <ele>101</ele>
        <time>2019-08-19T02:44:30Z</time>
      </trkpt>
      <trkpt lat="42.224122" lon="2.902565">
        <ele>101</ele>
        <time>2019-08-19T02:44:31Z</time>
      </trkpt>
      <trkpt lat="42.224124" lon="2.902487">
        <ele>101</ele>
        <time>2019-08-19T02:44:32Z</time>
      </trkpt>
      <trkpt lat="42.224125" lon="2.90241">
        <ele>101</ele>
        <time>2019-08-19T02:44:33Z</time>
      </trkpt>
      <trkpt lat="42.224126" lon="2.902333">
        <ele>101</ele>
        <time>2019-08-19T02:44:34Z</time>
      </trkpt>
      <trkpt lat="42.22413" lon="2.902095">
        <ele>101</ele>
        <time>2019-08-19T02:44:36Z</time>
      </trkpt>
      <trkpt lat="42.224131" lon="2.902015">
        <ele>101</ele>
        <time>2019-08-19T02:44:37Z</time>
      </trkpt>
      <trkpt lat="42.224132" lon="2.901934">
        <ele>101</ele>
        <time>2019-08-19T02:44:38Z</time>
      </trkpt>
      <trkpt lat="42.224133" lon="2.901854">
        <ele>101</ele>
        <time>2019-08-19T02:44:39Z</time>
      </trkpt>
      <trkpt lat="42.224134" lon="2.901774">
        <ele>101</ele>
        <time>2019-08-19T02:44:40Z</time>
      </trkpt>
      <trkpt lat="42.224135" lon="2.901694">
        <ele>101</ele>
        <time>2019-08-19T02:44:41Z</time>
      </trkpt>
      <trkpt lat="42.224136" lon="2.901613">
        <ele>101</ele>
        <time>2019-08-19T02:44:42Z</time>
      </trkpt>
      <trkpt lat="42.224137" lon="2.901533">
        <ele>101</ele>
        <time>2019-08-19T02:44:44Z</time>
      </trkpt>
      <trkpt lat="42.224139" lon="2.901381">
        <ele>101</ele>
        <time>2019-08-19T02:44:45Z</time>
      </trkpt>
      <trkpt lat="42.224139" lon="2.901309">
        <ele>101</ele>
        <time>2019-08-19T02:44:46Z</time>
      </trkpt>
      <trkpt lat="42.22414" lon="2.901237">
        <ele>101</ele>
        <time>2019-08-19T02:44:47Z</time>
      </trkpt>
      <trkpt lat="42.224141" lon="2.901165">
        <ele>101</ele>
        <time>2019-08-19T02:44:48Z</time>
      </trkpt>
      <trkpt lat="42.224142" lon="2.901093">
        <ele>101</ele>
        <time>2019-08-19T02:44:49Z</time>
      </trkpt>
      <trkpt lat="42.224142" lon="2.901021">
        <ele>101</ele>
        <time>2019-08-19T02:44:50Z</time>
      </trkpt>
      <trkpt lat="42.224143" lon="2.900949">
        <ele>101</ele>
        <time>2019-08-19T02:44:51Z</time>
      </trkpt>
      <trkpt lat="42.224144" lon="2.900877">
        <ele>101</ele>
        <time>2019-08-19T02:44:52Z</time>
      </trkpt>
      <trkpt lat="42.224144" lon="2.900805">
        <ele>101</ele>
        <time>2019-08-19T02:44:53Z</time>
      </trkpt>
      <trkpt lat="42.224145" lon="2.900733">
        <ele>103</ele>
        <time>2019-08-19T02:44:54Z</time>
      </trkpt>
      <trkpt lat="42.224145" lon="2.900575">
        <ele>103</ele>
        <time>2019-08-19T02:44:55Z</time>
      </trkpt>
      <trkpt lat="42.224146" lon="2.900496">
        <ele>103</ele>
        <time>2019-08-19T02:44:56Z</time>
      </trkpt>
      <trkpt lat="42.224146" lon="2.900418">
        <ele>103</ele>
        <time>2019-08-19T02:44:57Z</time>
      </trkpt>
      <trkpt lat="42.224147" lon="2.900339">
        <ele>103</ele>
        <time>2019-08-19T02:44:58Z</time>
      </trkpt>
      <trkpt lat="42.224147" lon="2.900261">
        <ele>103</ele>
        <time>2019-08-19T02:44:59Z</time>
      </trkpt>
      <trkpt lat="42.224148" lon="2.900182">
        <ele>103</ele>
        <time>2019-08-19T02:45:01Z</time>
      </trkpt>
      <trkpt lat="42.224148" lon="2.900104">
        <ele>103</ele>
        <time>2019-08-19T02:45:02Z</time>
      </trkpt>
      <trkpt lat="42.224149" lon="2.900025">
        <ele>103</ele>
        <time>2019-08-19T02:45:03Z</time>
      </trkpt>
      <trkpt lat="42.224149" lon="2.899947">
        <ele>103</ele>
        <time>2019-08-19T02:45:04Z</time>
      </trkpt>
      <trkpt lat="42.22415" lon="2.899799">
        <ele>103</ele>
        <time>2019-08-19T02:45:05Z</time>
      </trkpt>
      <trkpt lat="42.224151" lon="2.89973">
        <ele>103</ele>
        <time>2019-08-19T02:45:06Z</time>
      </trkpt>
      <trkpt lat="42.224152" lon="2.89966">
        <ele>103</ele>
        <time>2019-08-19T02:45:07Z</time>
      </trkpt>
      <trkpt lat="42.224153" lon="2.89959">
        <ele>103</ele>
        <time>2019-08-19T02:45:08Z</time>
      </trkpt>
      <trkpt lat="42.224154" lon="2.899521">
        <ele>103</ele>
        <time>2019-08-19T02:45:09Z</time>
      </trkpt>
      <trkpt lat="42.224154" lon="2.899451">
        <ele>103</ele>
        <time>2019-08-19T02:45:10Z</time>
      </trkpt>
      <trkpt lat="42.224155" lon="2.899381">
        <ele>103</ele>
        <time>2019-08-19T02:45:11Z</time>
      </trkpt>
      <trkpt lat="42.224156" lon="2.899311">
        <ele>103</ele>
        <time>2019-08-19T02:45:12Z</time>
      </trkpt>
      <trkpt lat="42.224157" lon="2.899242">
        <ele>103</ele>
        <time>2019-08-19T02:45:13Z</time>
      </trkpt>
      <trkpt lat="42.224158" lon="2.899172">
        <ele>104</ele>
        <time>2019-08-19T02:45:14Z</time>
      </trkpt>
      <trkpt lat="42.224159" lon="2.89902">
        <ele>104</ele>
        <time>2019-08-19T02:45:15Z</time>
      </trkpt>
      <trkpt lat="42.224159" lon="2.898947">
        <ele>104</ele>
        <time>2019-08-19T02:45:16Z</time>
      </trkpt>
      <trkpt lat="42.224159" lon="2.898875">
        <ele>104</ele>
        <time>2019-08-19T02:45:17Z</time>
      </trkpt>
      <trkpt lat="42.224159" lon="2.898802">
        <ele>104</ele>
        <time>2019-08-19T02:45:18Z</time>
      </trkpt>
      <trkpt lat="42.224159" lon="2.898729">
        <ele>104</ele>
        <time>2019-08-19T02:45:19Z</time>
      </trkpt>
      <trkpt lat="42.224159" lon="2.898656">
        <ele>104</ele>
        <time>2019-08-19T02:45:20Z</time>
      </trkpt>
      <trkpt lat="42.224159" lon="2.898583">
        <ele>104</ele>
        <time>2019-08-19T02:45:21Z</time>
      </trkpt>
      <trkpt lat="42.224159" lon="2.898511">
        <ele>104</ele>
        <time>2019-08-19T02:45:22Z</time>
      </trkpt>
      <trkpt lat="42.224159" lon="2.898438">
        <ele>104</ele>
        <time>2019-08-19T02:45:23Z</time>
      </trkpt>
      <trkpt lat="42.224159" lon="2.898365">
        <ele>104</ele>
        <time>2019-08-19T02:45:24Z</time>
      </trkpt>
      <trkpt lat="42.224159" lon="2.898192">
        <ele>104</ele>
        <time>2019-08-19T02:45:25Z</time>
      </trkpt>
      <trkpt lat="42.22416" lon="2.898101">
        <ele>104</ele>
        <time>2019-08-19T02:45:27Z</time>
      </trkpt>
      <trkpt lat="42.224161" lon="2.89801">
        <ele>104</ele>
        <time>2019-08-19T02:45:28Z</time>
      </trkpt>
      <trkpt lat="42.224163" lon="2.897919">
        <ele>104</ele>
        <time>2019-08-19T02:45:29Z</time>
      </trkpt>
      <trkpt lat="42.224164" lon="2.897827">
        <ele>104</ele>
        <time>2019-08-19T02:45:30Z</time>
      </trkpt>
      <trkpt lat="42.224165" lon="2.897736">
        <ele>104</ele>
        <time>2019-08-19T02:45:32Z</time>
      </trkpt>
      <trkpt lat="42.224166" lon="2.897645">
        <ele>104</ele>
        <time>2019-08-19T02:45:33Z</time>
      </trkpt>
      <trkpt lat="42.224167" lon="2.897554">
        <ele>104</ele>
        <time>2019-08-19T02:45:34Z</time>
      </trkpt>
      <trkpt lat="42.224169" lon="2.897392">
        <ele>104</ele>
        <time>2019-08-19T02:45:35Z</time>
      </trkpt>
      <trkpt lat="42.22417" lon="2.897312">
        <ele>104</ele>
        <time>2019-08-19T02:45:36Z</time>
      </trkpt>
      <trkpt lat="42.224172" lon="2.897231">
        <ele>104</ele>
        <time>2019-08-19T02:45:37Z</time>
      </trkpt>
      <trkpt lat="42.224173" lon="2.897151">
        <ele>104</ele>
        <time>2019-08-19T02:45:38Z</time>
      </trkpt>
      <trkpt lat="42.224174" lon="2.89707">
        <ele>104</ele>
        <time>2019-08-19T02:45:39Z</time>
      </trkpt>
      <trkpt lat="42.224175" lon="2.89699">
        <ele>104</ele>
        <time>2019-08-19T02:45:40Z</time>
      </trkpt>
      <trkpt lat="42.224177" lon="2.896909">
        <ele>104</ele>
        <time>2019-08-19T02:45:41Z</time>
      </trkpt>
      <trkpt lat="42.224178" lon="2.896829">
        <ele>104</ele>
        <time>2019-08-19T02:45:42Z</time>
      </trkpt>
      <trkpt lat="42.224179" lon="2.896748">
        <ele>104</ele>
        <time>2019-08-19T02:45:44Z</time>
      </trkpt>
      <trkpt lat="42.224182" lon="2.896585">
        <ele>104</ele>
        <time>2019-08-19T02:45:45Z</time>
      </trkpt>
      <trkpt lat="42.224183" lon="2.896504">
        <ele>104</ele>
        <time>2019-08-19T02:45:46Z</time>
      </trkpt>
      <trkpt lat="42.224184" lon="2.896422">
        <ele>104</ele>
        <time>2019-08-19T02:45:47Z</time>
      </trkpt>
      <trkpt lat="42.224185" lon="2.89634">
        <ele>104</ele>
        <time>2019-08-19T02:45:48Z</time>
      </trkpt>
      <trkpt lat="42.224186" lon="2.896259">
        <ele>104</ele>
        <time>2019-08-19T02:45:49Z</time>
      </trkpt>
      <trkpt lat="42.224187" lon="2.896177">
        <ele>104</ele>
        <time>2019-08-19T02:45:50Z</time>
      </trkpt>
      <trkpt lat="42.224188" lon="2.896095">
        <ele>104</ele>
        <time>2019-08-19T02:45:52Z</time>
      </trkpt>
      <trkpt lat="42.224189" lon="2.896014">
        <ele>104</ele>
        <time>2019-08-19T02:45:53Z</time>
      </trkpt>
      <trkpt lat="42.22419" lon="2.895932">
        <ele>104</ele>
        <time>2019-08-19T02:45:54Z</time>
      </trkpt>
      <trkpt lat="42.224192" lon="2.895764">
        <ele>104</ele>
        <time>2019-08-19T02:45:55Z</time>
      </trkpt>
      <trkpt lat="42.224193" lon="2.89568">
        <ele>104</ele>
        <time>2019-08-19T02:45:56Z</time>
      </trkpt>
      <trkpt lat="42.224194" lon="2.895595">
        <ele>104</ele>
        <time>2019-08-19T02:45:58Z</time>
      </trkpt>
      <trkpt lat="42.224195" lon="2.895511">
        <ele>104</ele>
        <time>2019-08-19T02:45:59Z</time>
      </trkpt>
      <trkpt lat="42.224197" lon="2.895427">
        <ele>104</ele>
        <time>2019-08-19T02:46:00Z</time>
      </trkpt>
      <trkpt lat="42.224198" lon="2.895343">
        <ele>104</ele>
        <time>2019-08-19T02:46:01Z</time>
      </trkpt>
      <trkpt lat="42.224199" lon="2.895258">
        <ele>104</ele>
        <time>2019-08-19T02:46:02Z</time>
      </trkpt>
      <trkpt lat="42.2242" lon="2.895174">
        <ele>104</ele>
        <time>2019-08-19T02:46:03Z</time>
      </trkpt>
      <trkpt lat="42.224201" lon="2.89509">
        <ele>105</ele>
        <time>2019-08-19T02:46:04Z</time>
      </trkpt>
      <trkpt lat="42.224204" lon="2.894933">
        <ele>105</ele>
        <time>2019-08-19T02:46:05Z</time>
      </trkpt>
      <trkpt lat="42.224205" lon="2.894861">
        <ele>105</ele>
        <time>2019-08-19T02:46:06Z</time>
      </trkpt>
      <trkpt lat="42.224206" lon="2.894788">
        <ele>105</ele>
        <time>2019-08-19T02:46:07Z</time>
      </trkpt>
      <trkpt lat="42.224207" lon="2.894716">
        <ele>105</ele>
        <time>2019-08-19T02:46:08Z</time>
      </trkpt>
      <trkpt lat="42.224209" lon="2.894643">
        <ele>105</ele>
        <time>2019-08-19T02:46:09Z</time>
      </trkpt>
      <trkpt lat="42.22421" lon="2.89457">
        <ele>105</ele>
        <time>2019-08-19T02:46:10Z</time>
      </trkpt>
      <trkpt lat="42.224211" lon="2.894498">
        <ele>105</ele>
        <time>2019-08-19T02:46:11Z</time>
      </trkpt>
      <trkpt lat="42.224212" lon="2.894425">
        <ele>105</ele>
        <time>2019-08-19T02:46:12Z</time>
      </trkpt>
      <trkpt lat="42.224213" lon="2.894353">
        <ele>105</ele>
        <time>2019-08-19T02:46:13Z</time>
      </trkpt>
      <trkpt lat="42.224214" lon="2.89428">
        <ele>105</ele>
        <time>2019-08-19T02:46:14Z</time>
      </trkpt>
      <trkpt lat="42.224216" lon="2.894072">
        <ele>105</ele>
        <time>2019-08-19T02:46:16Z</time>
      </trkpt>
      <trkpt lat="42.224218" lon="2.893978">
        <ele>105</ele>
        <time>2019-08-19T02:46:17Z</time>
      </trkpt>
      <trkpt lat="42.224219" lon="2.893883">
        <ele>105</ele>
        <time>2019-08-19T02:46:18Z</time>
      </trkpt>
      <trkpt lat="42.22422" lon="2.893788">
        <ele>105</ele>
        <time>2019-08-19T02:46:19Z</time>
      </trkpt>
      <trkpt lat="42.224221" lon="2.893693">
        <ele>105</ele>
        <time>2019-08-19T02:46:20Z</time>
      </trkpt>
      <trkpt lat="42.224223" lon="2.893599">
        <ele>105</ele>
        <time>2019-08-19T02:46:21Z</time>
      </trkpt>
      <trkpt lat="42.224224" lon="2.893504">
        <ele>105</ele>
        <time>2019-08-19T02:46:22Z</time>
      </trkpt>
      <trkpt lat="42.224225" lon="2.893409">
        <ele>105</ele>
        <time>2019-08-19T02:46:24Z</time>
      </trkpt>
      <trkpt lat="42.224227" lon="2.893238">
        <ele>105</ele>
        <time>2019-08-19T02:46:25Z</time>
      </trkpt>
      <trkpt lat="42.224228" lon="2.893152">
        <ele>105</ele>
        <time>2019-08-19T02:46:26Z</time>
      </trkpt>
      <trkpt lat="42.224229" lon="2.893067">
        <ele>105</ele>
        <time>2019-08-19T02:46:27Z</time>
      </trkpt>
      <trkpt lat="42.22423" lon="2.892981">
        <ele>105</ele>
        <time>2019-08-19T02:46:28Z</time>
      </trkpt>
      <trkpt lat="42.224231" lon="2.892895">
        <ele>105</ele>
        <time>2019-08-19T02:46:29Z</time>
      </trkpt>
      <trkpt lat="42.224232" lon="2.892809">
        <ele>105</ele>
        <time>2019-08-19T02:46:30Z</time>
      </trkpt>
      <trkpt lat="42.224233" lon="2.892724">
        <ele>105</ele>
        <time>2019-08-19T02:46:32Z</time>
      </trkpt>
      <trkpt lat="42.224234" lon="2.892638">
        <ele>105</ele>
        <time>2019-08-19T02:46:33Z</time>
      </trkpt>
      <trkpt lat="42.224235" lon="2.892552">
        <ele>106</ele>
        <time>2019-08-19T02:46:34Z</time>
      </trkpt>
      <trkpt lat="42.224236" lon="2.892307">
        <ele>106</ele>
        <time>2019-08-19T02:46:36Z</time>
      </trkpt>
      <trkpt lat="42.224237" lon="2.892233">
        <ele>106</ele>
        <time>2019-08-19T02:46:37Z</time>
      </trkpt>
      <trkpt lat="42.224237" lon="2.892159">
        <ele>106</ele>
        <time>2019-08-19T02:46:38Z</time>
      </trkpt>
      <trkpt lat="42.224238" lon="2.892085">
        <ele>106</ele>
        <time>2019-08-19T02:46:39Z</time>
      </trkpt>
      <trkpt lat="42.224239" lon="2.892011">
        <ele>106</ele>
        <time>2019-08-19T02:46:40Z</time>
      </trkpt>
      <trkpt lat="42.22424" lon="2.891937">
        <ele>106</ele>
        <time>2019-08-19T02:46:41Z</time>
      </trkpt>
      <trkpt lat="42.22424" lon="2.891863">
        <ele>106</ele>
        <time>2019-08-19T02:46:42Z</time>
      </trkpt>
      <trkpt lat="42.224241" lon="2.891789">
        <ele>106</ele>
        <time>2019-08-19T02:46:43Z</time>
      </trkpt>
      <trkpt lat="42.224242" lon="2.891715">
        <ele>106</ele>
        <time>2019-08-19T02:46:44Z</time>
      </trkpt>
      <trkpt lat="42.224244" lon="2.891554">
        <ele>106</ele>
        <time>2019-08-19T02:46:45Z</time>
      </trkpt>
      <trkpt lat="42.224244" lon="2.891479">
        <ele>106</ele>
        <time>2019-08-19T02:46:46Z</time>
      </trkpt>
      <trkpt lat="42.224245" lon="2.891403">
        <ele>106</ele>
        <time>2019-08-19T02:46:47Z</time>
      </trkpt>
      <trkpt lat="42.224245" lon="2.891327">
        <ele>106</ele>
        <time>2019-08-19T02:46:48Z</time>
      </trkpt>
      <trkpt lat="42.224246" lon="2.891252">
        <ele>106</ele>
        <time>2019-08-19T02:46:49Z</time>
      </trkpt>
      <trkpt lat="42.224247" lon="2.891176">
        <ele>106</ele>
        <time>2019-08-19T02:46:50Z</time>
      </trkpt>
      <trkpt lat="42.224247" lon="2.8911">
        <ele>106</ele>
        <time>2019-08-19T02:46:51Z</time>
      </trkpt>
      <trkpt lat="42.224248" lon="2.891024">
        <ele>106</ele>
        <time>2019-08-19T02:46:52Z</time>
      </trkpt>
      <trkpt lat="42.224248" lon="2.890949">
        <ele>106</ele>
        <time>2019-08-19T02:46:53Z</time>
      </trkpt>
      <trkpt lat="42.224249" lon="2.890873">
        <ele>107</ele>
        <time>2019-08-19T02:46:54Z</time>
      </trkpt>
      <trkpt lat="42.224275" lon="2.890729">
        <ele>107</ele>
        <time>2019-08-19T02:46:55Z</time>
      </trkpt>
      <trkpt lat="42.224299" lon="2.890669">
        <ele>107</ele>
        <time>2019-08-19T02:46:56Z</time>
      </trkpt>
      <trkpt lat="42.224324" lon="2.890609">
        <ele>107</ele>
        <time>2019-08-19T02:46:57Z</time>
      </trkpt>
      <trkpt lat="42.224348" lon="2.890549">
        <ele>107</ele>
        <time>2019-08-19T02:46:58Z</time>
      </trkpt>
      <trkpt lat="42.224373" lon="2.89049">
        <ele>107</ele>
        <time>2019-08-19T02:46:59Z</time>
      </trkpt>
      <trkpt lat="42.224398" lon="2.89043">
        <ele>107</ele>
        <time>2019-08-19T02:47:00Z</time>
      </trkpt>
      <trkpt lat="42.224422" lon="2.89037">
        <ele>107</ele>
        <time>2019-08-19T02:47:01Z</time>
      </trkpt>
      <trkpt lat="42.224447" lon="2.89031">
        <ele>107</ele>
        <time>2019-08-19T02:47:02Z</time>
      </trkpt>
      <trkpt lat="42.224471" lon="2.89025">
        <ele>107</ele>
        <time>2019-08-19T02:47:03Z</time>
      </trkpt>
      <trkpt lat="42.224496" lon="2.89019">
        <ele>108</ele>
        <time>2019-08-19T02:47:04Z</time>
      </trkpt>
      <trkpt lat="42.224501" lon="2.890051">
        <ele>108</ele>
        <time>2019-08-19T02:47:05Z</time>
      </trkpt>
      <trkpt lat="42.224496" lon="2.889985">
        <ele>108</ele>
        <time>2019-08-19T02:47:06Z</time>
      </trkpt>
      <trkpt lat="42.22449" lon="2.889919">
        <ele>108</ele>
        <time>2019-08-19T02:47:07Z</time>
      </trkpt>
      <trkpt lat="42.224485" lon="2.889853">
        <ele>108</ele>
        <time>2019-08-19T02:47:08Z</time>
      </trkpt>
      <trkpt lat="42.224479" lon="2.889786">
        <ele>108</ele>
        <time>2019-08-19T02:47:09Z</time>
      </trkpt>
      <trkpt lat="42.224473" lon="2.88972">
        <ele>108</ele>
        <time>2019-08-19T02:47:10Z</time>
      </trkpt>
      <trkpt lat="42.224468" lon="2.889654">
        <ele>108</ele>
        <time>2019-08-19T02:47:11Z</time>
      </trkpt>
      <trkpt lat="42.224462" lon="2.889588">
        <ele>108</ele>
        <time>2019-08-19T02:47:12Z</time>
      </trkpt>
      <trkpt lat="42.224457" lon="2.889522">
        <ele>108</ele>
        <time>2019-08-19T02:47:13Z</time>
      </trkpt>
      <trkpt lat="42.224451" lon="2.889456">
        <ele>108</ele>
        <time>2019-08-19T02:47:14Z</time>
      </trkpt>
      <trkpt lat="42.224483" lon="2.889321">
        <ele>108</ele>
        <time>2019-08-19T02:47:15Z</time>
      </trkpt>
      <trkpt lat="42.224502" lon="2.88926">
        <ele>108</ele>
        <time>2019-08-19T02:47:16Z</time>
      </trkpt>
      <trkpt lat="42.22452" lon="2.889198">
        <ele>108</ele>
        <time>2019-08-19T02:47:17Z</time>
      </trkpt>
      <trkpt lat="42.224538" lon="2.889136">
        <ele>108</ele>
        <time>2019-08-19T02:47:18Z</time>
      </trkpt>
      <trkpt lat="42.224557" lon="2.889075">
        <ele>108</ele>
        <time>2019-08-19T02:47:19Z</time>
      </trkpt>
      <trkpt lat="42.224575" lon="2.889013">
        <ele>108</ele>
        <time>2019-08-19T02:47:20Z</time>
      </trkpt>
      <trkpt lat="42.224593" lon="2.888951">
        <ele>108</ele>
        <time>2019-08-19T02:47:21Z</time>
      </trkpt>
      <trkpt lat="42.224611" lon="2.888889">
        <ele>108</ele>
        <time>2019-08-19T02:47:22Z</time>
      </trkpt>
      <trkpt lat="42.22463" lon="2.888828">
        <ele>108</ele>
        <time>2019-08-19T02:47:23Z</time>
      </trkpt>
      <trkpt lat="42.224648" lon="2.888766">
        <ele>108</ele>
        <time>2019-08-19T02:47:24Z</time>
      </trkpt>
      <trkpt lat="42.224692" lon="2.888621">
        <ele>108</ele>
        <time>2019-08-19T02:47:25Z</time>
      </trkpt>
      <trkpt lat="42.224716" lon="2.888544">
        <ele>108</ele>
        <time>2019-08-19T02:47:26Z</time>
      </trkpt>
      <trkpt lat="42.224739" lon="2.888467">
        <ele>108</ele>
        <time>2019-08-19T02:47:27Z</time>
      </trkpt>
      <trkpt lat="42.224762" lon="2.888391">
        <ele>108</ele>
        <time>2019-08-19T02:47:28Z</time>
      </trkpt>
      <trkpt lat="42.224785" lon="2.888314">
        <ele>108</ele>
        <time>2019-08-19T02:47:30Z</time>
      </trkpt>
      <trkpt lat="42.224809" lon="2.888237">
        <ele>108</ele>
        <time>2019-08-19T02:47:32Z</time>
      </trkpt>
      <trkpt lat="42.224832" lon="2.88816">
        <ele>108</ele>
        <time>2019-08-19T02:47:33Z</time>
      </trkpt>
      <trkpt lat="42.224855" lon="2.888083">
        <ele>110</ele>
        <time>2019-08-19T02:47:34Z</time>
      </trkpt>
      <trkpt lat="42.224895" lon="2.887944">
        <ele>110</ele>
        <time>2019-08-19T02:47:35Z</time>
      </trkpt>
      <trkpt lat="42.224915" lon="2.887875">
        <ele>110</ele>
        <time>2019-08-19T02:47:36Z</time>
      </trkpt>
      <trkpt lat="42.224936" lon="2.887806">
        <ele>110</ele>
        <time>2019-08-19T02:47:37Z</time>
      </trkpt>
      <trkpt lat="42.224957" lon="2.887737">
        <ele>110</ele>
        <time>2019-08-19T02:47:38Z</time>
      </trkpt>
      <trkpt lat="42.224977" lon="2.887667">
        <ele>110</ele>
        <time>2019-08-19T02:47:39Z</time>
      </trkpt>
      <trkpt lat="42.224998" lon="2.887598">
        <ele>110</ele>
        <time>2019-08-19T02:47:41Z</time>
      </trkpt>
      <trkpt lat="42.225019" lon="2.887529">
        <ele>110</ele>
        <time>2019-08-19T02:47:42Z</time>
      </trkpt>
      <trkpt lat="42.225039" lon="2.88746">
        <ele>110</ele>
        <time>2019-08-19T02:47:43Z</time>
      </trkpt>
      <trkpt lat="42.22506" lon="2.887391">
        <ele>110</ele>
        <time>2019-08-19T02:47:44Z</time>
      </trkpt>
      <trkpt lat="42.225098" lon="2.887258">
        <ele>110</ele>
        <time>2019-08-19T02:47:45Z</time>
      </trkpt>
      <trkpt lat="42.225116" lon="2.887195">
        <ele>110</ele>
        <time>2019-08-19T02:47:46Z</time>
      </trkpt>
      <trkpt lat="42.225134" lon="2.887131">
        <ele>110</ele>
        <time>2019-08-19T02:47:47Z</time>
      </trkpt>
      <trkpt lat="42.225152" lon="2.887068">
        <ele>110</ele>
        <time>2019-08-19T02:47:48Z</time>
      </trkpt>
      <trkpt lat="42.22517" lon="2.887005">
        <ele>110</ele>
        <time>2019-08-19T02:47:49Z</time>
      </trkpt>
      <trkpt lat="42.225188" lon="2.886942">
        <ele>110</ele>
        <time>2019-08-19T02:47:50Z</time>
      </trkpt>
      <trkpt lat="42.225206" lon="2.886879">
        <ele>110</ele>
        <time>2019-08-19T02:47:51Z</time>
      </trkpt>
      <trkpt lat="42.225224" lon="2.886815">
        <ele>110</ele>
        <time>2019-08-19T02:47:52Z</time>
      </trkpt>
      <trkpt lat="42.225242" lon="2.886752">
        <ele>110</ele>
        <time>2019-08-19T02:47:53Z</time>
      </trkpt>
      <trkpt lat="42.22526" lon="2.886689">
        <ele>112</ele>
        <time>2019-08-19T02:47:54Z</time>
      </trkpt>
      <trkpt lat="42.225301" lon="2.88655">
        <ele>112</ele>
        <time>2019-08-19T02:47:55Z</time>
      </trkpt>
      <trkpt lat="42.225321" lon="2.88648">
        <ele>112</ele>
        <time>2019-08-19T02:47:56Z</time>
      </trkpt>
      <trkpt lat="42.225342" lon="2.886411">
        <ele>112</ele>
        <time>2019-08-19T02:47:57Z</time>
      </trkpt>
      <trkpt lat="42.225363" lon="2.886341">
        <ele>112</ele>
        <time>2019-08-19T02:47:59Z</time>
      </trkpt>
      <trkpt lat="42.225383" lon="2.886272">
        <ele>112</ele>
        <time>2019-08-19T02:48:00Z</time>
      </trkpt>
      <trkpt lat="42.225404" lon="2.886202">
        <ele>112</ele>
        <time>2019-08-19T02:48:01Z</time>
      </trkpt>
      <trkpt lat="42.225425" lon="2.886133">
        <ele>112</ele>
        <time>2019-08-19T02:48:02Z</time>
      </trkpt>
      <trkpt lat="42.225445" lon="2.886063">
        <ele>112</ele>
        <time>2019-08-19T02:48:03Z</time>
      </trkpt>
      <trkpt lat="42.225466" lon="2.885994">
        <ele>113</ele>
        <time>2019-08-19T02:48:04Z</time>
      </trkpt>
      <trkpt lat="42.225507" lon="2.885853">
        <ele>113</ele>
        <time>2019-08-19T02:48:05Z</time>
      </trkpt>
      <trkpt lat="42.225527" lon="2.885782">
        <ele>113</ele>
        <time>2019-08-19T02:48:06Z</time>
      </trkpt>
      <trkpt lat="42.225548" lon="2.885711">
        <ele>113</ele>
        <time>2019-08-19T02:48:08Z</time>
      </trkpt>
      <trkpt lat="42.225569" lon="2.88564">
        <ele>113</ele>
        <time>2019-08-19T02:48:09Z</time>
      </trkpt>
      <trkpt lat="42.225589" lon="2.885568">
        <ele>113</ele>
        <time>2019-08-19T02:48:10Z</time>
      </trkpt>
      <trkpt lat="42.22561" lon="2.885497">
        <ele>113</ele>
        <time>2019-08-19T02:48:11Z</time>
      </trkpt>
      <trkpt lat="42.225631" lon="2.885426">
        <ele>113</ele>
        <time>2019-08-19T02:48:12Z</time>
      </trkpt>
      <trkpt lat="42.225651" lon="2.885355">
        <ele>113</ele>
        <time>2019-08-19T02:48:13Z</time>
      </trkpt>
      <trkpt lat="42.225672" lon="2.885284">
        <ele>114</ele>
        <time>2019-08-19T02:48:14Z</time>
      </trkpt>
      <trkpt lat="42.225712" lon="2.885148">
        <ele>114</ele>
        <time>2019-08-19T02:48:15Z</time>
      </trkpt>
      <trkpt lat="42.225731" lon="2.885083">
        <ele>114</ele>
        <time>2019-08-19T02:48:16Z</time>
      </trkpt>
      <trkpt lat="42.22575" lon="2.885019">
        <ele>114</ele>
        <time>2019-08-19T02:48:17Z</time>
      </trkpt>
      <trkpt lat="42.225769" lon="2.884954">
        <ele>114</ele>
        <time>2019-08-19T02:48:18Z</time>
      </trkpt>
      <trkpt lat="42.225788" lon="2.88489">
        <ele>114</ele>
        <time>2019-08-19T02:48:19Z</time>
      </trkpt>
      <trkpt lat="42.225806" lon="2.884825">
        <ele>114</ele>
        <time>2019-08-19T02:48:20Z</time>
      </trkpt>
      <trkpt lat="42.225825" lon="2.884761">
        <ele>114</ele>
        <time>2019-08-19T02:48:21Z</time>
      </trkpt>
      <trkpt lat="42.225844" lon="2.884696">
        <ele>114</ele>
        <time>2019-08-19T02:48:22Z</time>
      </trkpt>
      <trkpt lat="42.225863" lon="2.884632">
        <ele>114</ele>
        <time>2019-08-19T02:48:23Z</time>
      </trkpt>
      <trkpt lat="42.225882" lon="2.884567">
        <ele>115</ele>
        <time>2019-08-19T02:48:24Z</time>
      </trkpt>
      <trkpt lat="42.225923" lon="2.884423">
        <ele>115</ele>
        <time>2019-08-19T02:48:25Z</time>
      </trkpt>
      <trkpt lat="42.225945" lon="2.884351">
        <ele>115</ele>
        <time>2019-08-19T02:48:26Z</time>
      </trkpt>
      <trkpt lat="42.225966" lon="2.884279">
        <ele>115</ele>
        <time>2019-08-19T02:48:27Z</time>
      </trkpt>
      <trkpt lat="42.225988" lon="2.884207">
        <ele>115</ele>
        <time>2019-08-19T02:48:28Z</time>
      </trkpt>
      <trkpt lat="42.226009" lon="2.884135">
        <ele>115</ele>
        <time>2019-08-19T02:48:29Z</time>
      </trkpt>
      <trkpt lat="42.226031" lon="2.884063">
        <ele>115</ele>
        <time>2019-08-19T02:48:30Z</time>
      </trkpt>
      <trkpt lat="42.226052" lon="2.883991">
        <ele>115</ele>
        <time>2019-08-19T02:48:31Z</time>
      </trkpt>
      <trkpt lat="42.226074" lon="2.883919">
        <ele>115</ele>
        <time>2019-08-19T02:48:32Z</time>
      </trkpt>
      <trkpt lat="42.226095" lon="2.883847">
        <ele>120</ele>
        <time>2019-08-19T02:48:34Z</time>
      </trkpt>
      <trkpt lat="42.226137" lon="2.883706">
        <ele>120</ele>
        <time>2019-08-19T02:48:35Z</time>
      </trkpt>
      <trkpt lat="42.226158" lon="2.883636">
        <ele>120</ele>
        <time>2019-08-19T02:48:36Z</time>
      </trkpt>
      <trkpt lat="42.226179" lon="2.883567">
        <ele>120</ele>
        <time>2019-08-19T02:48:37Z</time>
      </trkpt>
      <trkpt lat="42.2262" lon="2.883497">
        <ele>120</ele>
        <time>2019-08-19T02:48:38Z</time>
      </trkpt>
      <trkpt lat="42.22622" lon="2.883428">
        <ele>120</ele>
        <time>2019-08-19T02:48:39Z</time>
      </trkpt>
      <trkpt lat="42.226241" lon="2.883358">
        <ele>120</ele>
        <time>2019-08-19T02:48:40Z</time>
      </trkpt>
      <trkpt lat="42.226262" lon="2.883289">
        <ele>120</ele>
        <time>2019-08-19T02:48:41Z</time>
      </trkpt>
      <trkpt lat="42.226283" lon="2.883219">
        <ele>120</ele>
        <time>2019-08-19T02:48:43Z</time>
      </trkpt>
      <trkpt lat="42.226304" lon="2.88315">
        <ele>120</ele>
        <time>2019-08-19T02:48:44Z</time>
      </trkpt>
      <trkpt lat="42.226346" lon="2.88302">
        <ele>120</ele>
        <time>2019-08-19T02:48:45Z</time>
      </trkpt>
      <trkpt lat="42.226367" lon="2.882955">
        <ele>120</ele>
        <time>2019-08-19T02:48:46Z</time>
      </trkpt>
      <trkpt lat="42.226389" lon="2.882891">
        <ele>120</ele>
        <time>2019-08-19T02:48:47Z</time>
      </trkpt>
      <trkpt lat="42.22641" lon="2.882826">
        <ele>120</ele>
        <time>2019-08-19T02:48:49Z</time>
      </trkpt>
      <trkpt lat="42.226432" lon="2.882762">
        <ele>120</ele>
        <time>2019-08-19T02:48:50Z</time>
      </trkpt>
      <trkpt lat="42.226453" lon="2.882697">
        <ele>120</ele>
        <time>2019-08-19T02:48:51Z</time>
      </trkpt>
      <trkpt lat="42.226475" lon="2.882633">
        <ele>120</ele>
        <time>2019-08-19T02:48:52Z</time>
      </trkpt>
      <trkpt lat="42.226496" lon="2.882568">
        <ele>120</ele>
        <time>2019-08-19T02:48:53Z</time>
      </trkpt>
      <trkpt lat="42.226518" lon="2.882504">
        <ele>122</ele>
        <time>2019-08-19T02:48:54Z</time>
      </trkpt>
      <trkpt lat="42.226572" lon="2.882373">
        <ele>122</ele>
        <time>2019-08-19T02:48:55Z</time>
      </trkpt>
      <trkpt lat="42.226603" lon="2.882307">
        <ele>122</ele>
        <time>2019-08-19T02:48:56Z</time>
      </trkpt>
      <trkpt lat="42.226633" lon="2.882241">
        <ele>122</ele>
        <time>2019-08-19T02:48:57Z</time>
      </trkpt>
      <trkpt lat="42.226663" lon="2.882175">
        <ele>122</ele>
        <time>2019-08-19T02:48:58Z</time>
      </trkpt>
      <trkpt lat="42.226694" lon="2.88211">
        <ele>122</ele>
        <time>2019-08-19T02:48:59Z</time>
      </trkpt>
      <trkpt lat="42.226724" lon="2.882044">
        <ele>122</ele>
        <time>2019-08-19T02:49:01Z</time>
      </trkpt>
      <trkpt lat="42.226754" lon="2.881978">
        <ele>122</ele>
        <time>2019-08-19T02:49:02Z</time>
      </trkpt>
      <trkpt lat="42.226785" lon="2.881912">
        <ele>122</ele>
        <time>2019-08-19T02:49:03Z</time>
      </trkpt>
      <trkpt lat="42.226815" lon="2.881846">
        <ele>122</ele>
        <time>2019-08-19T02:49:04Z</time>
      </trkpt>
      <trkpt lat="42.226898" lon="2.881715">
        <ele>122</ele>
        <time>2019-08-19T02:49:05Z</time>
      </trkpt>
      <trkpt lat="42.226944" lon="2.881648">
        <ele>122</ele>
        <time>2019-08-19T02:49:06Z</time>
      </trkpt>
      <trkpt lat="42.226989" lon="2.881582">
        <ele>122</ele>
        <time>2019-08-19T02:49:07Z</time>
      </trkpt>
      <trkpt lat="42.227035" lon="2.881516">
        <ele>122</ele>
        <time>2019-08-19T02:49:08Z</time>
      </trkpt>
      <trkpt lat="42.227081" lon="2.881449">
        <ele>122</ele>
        <time>2019-08-19T02:49:10Z</time>
      </trkpt>
      <trkpt lat="42.227127" lon="2.881383">
        <ele>122</ele>
        <time>2019-08-19T02:49:11Z</time>
      </trkpt>
      <trkpt lat="42.227172" lon="2.881317">
        <ele>122</ele>
        <time>2019-08-19T02:49:12Z</time>
      </trkpt>
      <trkpt lat="42.227218" lon="2.88125">
        <ele>122</ele>
        <time>2019-08-19T02:49:13Z</time>
      </trkpt>
      <trkpt lat="42.227264" lon="2.881184">
        <ele>123</ele>
        <time>2019-08-19T02:49:14Z</time>
      </trkpt>
      <trkpt lat="42.227374" lon="2.881068">
        <ele>123</ele>
        <time>2019-08-19T02:49:15Z</time>
      </trkpt>
      <trkpt lat="42.227429" lon="2.881017">
        <ele>123</ele>
        <time>2019-08-19T02:49:16Z</time>
      </trkpt>
      <trkpt lat="42.227485" lon="2.880966">
        <ele>123</ele>
        <time>2019-08-19T02:49:17Z</time>
      </trkpt>
      <trkpt lat="42.22754" lon="2.880915">
        <ele>123</ele>
        <time>2019-08-19T02:49:18Z</time>
      </trkpt>
      <trkpt lat="42.227596" lon="2.880865">
        <ele>123</ele>
        <time>2019-08-19T02:49:19Z</time>
      </trkpt>
      <trkpt lat="42.227651" lon="2.880814">
        <ele>123</ele>
        <time>2019-08-19T02:49:20Z</time>
      </trkpt>
      <trkpt lat="42.227707" lon="2.880763">
        <ele>123</ele>
        <time>2019-08-19T02:49:21Z</time>
      </trkpt>
      <trkpt lat="42.227762" lon="2.880712">
        <ele>123</ele>
        <time>2019-08-19T02:49:22Z</time>
      </trkpt>
      <trkpt lat="42.227818" lon="2.880661">
        <ele>123</ele>
        <time>2019-08-19T02:49:23Z</time>
      </trkpt>
      <trkpt lat="42.227873" lon="2.88061">
        <ele>123</ele>
        <time>2019-08-19T02:49:24Z</time>
      </trkpt>
      <trkpt lat="42.22802" lon="2.880518">
        <ele>123</ele>
        <time>2019-08-19T02:49:25Z</time>
      </trkpt>
      <trkpt lat="42.228099" lon="2.880472">
        <ele>123</ele>
        <time>2019-08-19T02:49:27Z</time>
      </trkpt>
      <trkpt lat="42.228178" lon="2.880427">
        <ele>123</ele>
        <time>2019-08-19T02:49:28Z</time>
      </trkpt>
      <trkpt lat="42.228257" lon="2.880381">
        <ele>123</ele>
        <time>2019-08-19T02:49:30Z</time>
      </trkpt>
      <trkpt lat="42.228335" lon="2.880336">
        <ele>123</ele>
        <time>2019-08-19T02:49:31Z</time>
      </trkpt>
      <trkpt lat="42.228414" lon="2.88029">
        <ele>123</ele>
        <time>2019-08-19T02:49:32Z</time>
      </trkpt>
      <trkpt lat="42.228493" lon="2.880245">
        <ele>123</ele>
        <time>2019-08-19T02:49:33Z</time>
      </trkpt>
      <trkpt lat="42.228572" lon="2.880199">
        <ele>123</ele>
        <time>2019-08-19T02:49:34Z</time>
      </trkpt>
      <trkpt lat="42.228708" lon="2.88013">
        <ele>123</ele>
        <time>2019-08-19T02:49:35Z</time>
      </trkpt>
      <trkpt lat="42.228775" lon="2.880097">
        <ele>123</ele>
        <time>2019-08-19T02:49:36Z</time>
      </trkpt>
      <trkpt lat="42.228842" lon="2.880063">
        <ele>123</ele>
        <time>2019-08-19T02:49:37Z</time>
      </trkpt>
      <trkpt lat="42.228909" lon="2.880029">
        <ele>123</ele>
        <time>2019-08-19T02:49:38Z</time>
      </trkpt>
      <trkpt lat="42.228976" lon="2.879996">
        <ele>123</ele>
        <time>2019-08-19T02:49:39Z</time>
      </trkpt>
      <trkpt lat="42.229043" lon="2.879962">
        <ele>123</ele>
        <time>2019-08-19T02:49:40Z</time>
      </trkpt>
      <trkpt lat="42.22911" lon="2.879928">
        <ele>123</ele>
        <time>2019-08-19T02:49:41Z</time>
      </trkpt>
      <trkpt lat="42.229177" lon="2.879895">
        <ele>123</ele>
        <time>2019-08-19T02:49:42Z</time>
      </trkpt>
      <trkpt lat="42.229244" lon="2.879861">
        <ele>123</ele>
        <time>2019-08-19T02:49:44Z</time>
      </trkpt>
      <trkpt lat="42.229434" lon="2.879765">
        <ele>123</ele>
        <time>2019-08-19T02:49:46Z</time>
      </trkpt>
      <trkpt lat="42.229495" lon="2.879734">
        <ele>123</ele>
        <time>2019-08-19T02:49:47Z</time>
      </trkpt>
      <trkpt lat="42.229557" lon="2.879703">
        <ele>123</ele>
        <time>2019-08-19T02:49:48Z</time>
      </trkpt>
      <trkpt lat="42.229618" lon="2.879672">
        <ele>123</ele>
        <time>2019-08-19T02:49:49Z</time>
      </trkpt>
      <trkpt lat="42.22968" lon="2.879641">
        <ele>123</ele>
        <time>2019-08-19T02:49:51Z</time>
      </trkpt>
      <trkpt lat="42.229741" lon="2.87961">
        <ele>123</ele>
        <time>2019-08-19T02:49:52Z</time>
      </trkpt>
      <trkpt lat="42.229803" lon="2.879579">
        <ele>123</ele>
        <time>2019-08-19T02:49:53Z</time>
      </trkpt>
      <trkpt lat="42.229864" lon="2.879548">
        <ele>124</ele>
        <time>2019-08-19T02:49:54Z</time>
      </trkpt>
      <trkpt lat="42.229985" lon="2.879486">
        <ele>124</ele>
        <time>2019-08-19T02:49:55Z</time>
      </trkpt>
      <trkpt lat="42.230046" lon="2.879454">
        <ele>124</ele>
        <time>2019-08-19T02:49:56Z</time>
      </trkpt>
      <trkpt lat="42.230108" lon="2.879423">
        <ele>124</ele>
        <time>2019-08-19T02:49:57Z</time>
      </trkpt>
      <trkpt lat="42.230169" lon="2.879392">
        <ele>124</ele>
        <time>2019-08-19T02:49:59Z</time>
      </trkpt>
      <trkpt lat="42.23023" lon="2.87936">
        <ele>124</ele>
        <time>2019-08-19T02:50:00Z</time>
      </trkpt>
      <trkpt lat="42.230291" lon="2.879329">
        <ele>124</ele>
        <time>2019-08-19T02:50:01Z</time>
      </trkpt>
      <trkpt lat="42.230353" lon="2.879298">
        <ele>124</ele>
        <time>2019-08-19T02:50:02Z</time>
      </trkpt>
      <trkpt lat="42.230414" lon="2.879266">
        <ele>124</ele>
        <time>2019-08-19T02:50:03Z</time>
      </trkpt>
      <trkpt lat="42.230475" lon="2.879235">
        <ele>125</ele>
        <time>2019-08-19T02:50:04Z</time>
      </trkpt>
      <trkpt lat="42.23059" lon="2.879174">
        <ele>125</ele>
        <time>2019-08-19T02:50:05Z</time>
      </trkpt>
      <trkpt lat="42.230643" lon="2.879146">
        <ele>125</ele>
        <time>2019-08-19T02:50:06Z</time>
      </trkpt>
      <trkpt lat="42.230697" lon="2.879118">
        <ele>125</ele>
        <time>2019-08-19T02:50:07Z</time>
      </trkpt>
      <trkpt lat="42.230751" lon="2.87909">
        <ele>125</ele>
        <time>2019-08-19T02:50:08Z</time>
      </trkpt>
      <trkpt lat="42.230805" lon="2.879063">
        <ele>125</ele>
        <time>2019-08-19T02:50:09Z</time>
      </trkpt>
      <trkpt lat="42.230858" lon="2.879035">
        <ele>125</ele>
        <time>2019-08-19T02:50:10Z</time>
      </trkpt>
      <trkpt lat="42.230912" lon="2.879007">
        <ele>125</ele>
        <time>2019-08-19T02:50:11Z</time>
      </trkpt>
      <trkpt lat="42.230966" lon="2.878979">
        <ele>125</ele>
        <time>2019-08-19T02:50:12Z</time>
      </trkpt>
      <trkpt lat="42.231019" lon="2.878951">
        <ele>125</ele>
        <time>2019-08-19T02:50:13Z</time>
      </trkpt>
      <trkpt lat="42.231073" lon="2.878923">
        <ele>126</ele>
        <time>2019-08-19T02:50:14Z</time>
      </trkpt>
      <trkpt lat="42.231179" lon="2.878855">
        <ele>126</ele>
        <time>2019-08-19T02:50:15Z</time>
      </trkpt>
      <trkpt lat="42.231228" lon="2.87882">
        <ele>126</ele>
        <time>2019-08-19T02:50:16Z</time>
      </trkpt>
      <trkpt lat="42.231278" lon="2.878786">
        <ele>126</ele>
        <time>2019-08-19T02:50:17Z</time>
      </trkpt>
      <trkpt lat="42.231327" lon="2.878751">
        <ele>126</ele>
        <time>2019-08-19T02:50:18Z</time>
      </trkpt>
      <trkpt lat="42.231377" lon="2.878716">
        <ele>126</ele>
        <time>2019-08-19T02:50:19Z</time>
      </trkpt>
      <trkpt lat="42.231426" lon="2.878681">
        <ele>126</ele>
        <time>2019-08-19T02:50:20Z</time>
      </trkpt>
      <trkpt lat="42.231476" lon="2.878646">
        <ele>126</ele>
        <time>2019-08-19T02:50:21Z</time>
      </trkpt>
      <trkpt lat="42.231525" lon="2.878612">
        <ele>126</ele>
        <time>2019-08-19T02:50:22Z</time>
      </trkpt>
      <trkpt lat="42.231575" lon="2.878577">
        <ele>126</ele>
        <time>2019-08-19T02:50:23Z</time>
      </trkpt>
      <trkpt lat="42.231624" lon="2.878542">
        <ele>126</ele>
        <time>2019-08-19T02:50:24Z</time>
      </trkpt>
      <trkpt lat="42.231702" lon="2.87848">
        <ele>126</ele>
        <time>2019-08-19T02:50:25Z</time>
      </trkpt>
      <trkpt lat="42.231729" lon="2.878462">
        <ele>126</ele>
        <time>2019-08-19T02:50:26Z</time>
      </trkpt>
      <trkpt lat="42.231755" lon="2.878443">
        <ele>126</ele>
        <time>2019-08-19T02:50:27Z</time>
      </trkpt>
      <trkpt lat="42.231781" lon="2.878424">
        <ele>126</ele>
        <time>2019-08-19T02:50:28Z</time>
      </trkpt>
      <trkpt lat="42.231807" lon="2.878405">
        <ele>126</ele>
        <time>2019-08-19T02:50:29Z</time>
      </trkpt>
      <trkpt lat="42.231834" lon="2.878387">
        <ele>126</ele>
        <time>2019-08-19T02:50:30Z</time>
      </trkpt>
      <trkpt lat="42.23186" lon="2.878368">
        <ele>126</ele>
        <time>2019-08-19T02:50:31Z</time>
      </trkpt>
      <trkpt lat="42.231886" lon="2.878349">
        <ele>123</ele>
        <time>2019-08-19T02:50:34Z</time>
      </trkpt>
      <trkpt lat="42.231887" lon="2.878312">
        <ele>122</ele>
        <time>2019-08-19T02:50:42Z</time>
      </trkpt>
      <trkpt lat="42.231888" lon="2.878274">
        <ele>122</ele>
        <time>2019-08-19T02:50:50Z</time>
      </trkpt>
      <trkpt lat="42.231889" lon="2.878237">
        <ele>122</ele>
        <time>2019-08-19T02:50:53Z</time>
      </trkpt>
      <trkpt lat="42.23189" lon="2.8782">
        <ele>122</ele>
        <time>2019-08-19T02:50:59Z</time>
      </trkpt>
      <trkpt lat="42.231891" lon="2.878162">
        <ele>122</ele>
        <time>2019-08-19T02:51:01Z</time>
      </trkpt>
      <trkpt lat="42.231892" lon="2.878125">
        <ele>122</ele>
        <time>2019-08-19T02:51:08Z</time>
      </trkpt>
      <trkpt lat="42.231893" lon="2.878088">
        <ele>122</ele>
        <time>2019-08-19T02:51:09Z</time>
      </trkpt>
      <trkpt lat="42.231893" lon="2.87805">
        <ele>122</ele>
        <time>2019-08-19T02:51:10Z</time>
      </trkpt>
      <trkpt lat="42.231894" lon="2.878013">
        <ele>122</ele>
        <time>2019-08-19T02:51:11Z</time>
      </trkpt>
      <trkpt lat="42.231895" lon="2.877976">
        <ele>122</ele>
        <time>2019-08-19T02:51:12Z</time>
      </trkpt>
      <trkpt lat="42.231896" lon="2.877938">
        <ele>122</ele>
        <time>2019-08-19T02:51:13Z</time>
      </trkpt>
      <trkpt lat="42.231897" lon="2.877901">
        <ele>122</ele>
        <time>2019-08-19T02:51:14Z</time>
      </trkpt>
      <trkpt lat="42.231898" lon="2.877864">
        <ele>122</ele>
        <time>2019-08-19T02:51:15Z</time>
      </trkpt>
      <trkpt lat="42.231899" lon="2.877826">
        <ele>122</ele>
        <time>2019-08-19T02:51:16Z</time>
      </trkpt>
      <trkpt lat="42.2319" lon="2.877789">
        <ele>123</ele>
        <time>2019-08-19T02:51:17Z</time>
      </trkpt>
      <trkpt lat="42.231851" lon="2.877676">
        <ele>123</ele>
        <time>2019-08-19T02:51:18Z</time>
      </trkpt>
      <trkpt lat="42.231825" lon="2.877612">
        <ele>123</ele>
        <time>2019-08-19T02:51:19Z</time>
      </trkpt>
      <trkpt lat="42.231798" lon="2.877548">
        <ele>123</ele>
        <time>2019-08-19T02:51:21Z</time>
      </trkpt>
      <trkpt lat="42.231771" lon="2.877484">
        <ele>123</ele>
        <time>2019-08-19T02:51:22Z</time>
      </trkpt>
      <trkpt lat="42.231745" lon="2.87742">
        <ele>123</ele>
        <time>2019-08-19T02:51:23Z</time>
      </trkpt>
      <trkpt lat="42.231718" lon="2.877356">
        <ele>123</ele>
        <time>2019-08-19T02:51:24Z</time>
      </trkpt>
      <trkpt lat="42.231691" lon="2.877292">
        <ele>123</ele>
        <time>2019-08-19T02:51:25Z</time>
      </trkpt>
      <trkpt lat="42.231665" lon="2.877228">
        <ele>123</ele>
        <time>2019-08-19T02:51:26Z</time>
      </trkpt>
      <trkpt lat="42.231638" lon="2.877164">
        <ele>123</ele>
        <time>2019-08-19T02:51:28Z</time>
      </trkpt>
      <trkpt lat="42.23159" lon="2.877051">
        <ele>123</ele>
        <time>2019-08-19T02:51:29Z</time>
      </trkpt>
      <trkpt lat="42.231568" lon="2.876996">
        <ele>123</ele>
        <time>2019-08-19T02:51:30Z</time>
      </trkpt>
      <trkpt lat="42.231545" lon="2.876941">
        <ele>123</ele>
        <time>2019-08-19T02:51:31Z</time>
      </trkpt>
      <trkpt lat="42.231522" lon="2.876886">
        <ele>123</ele>
        <time>2019-08-19T02:51:32Z</time>
      </trkpt>
      <trkpt lat="42.2315" lon="2.876831">
        <ele>123</ele>
        <time>2019-08-19T02:51:33Z</time>
      </trkpt>
      <trkpt lat="42.231477" lon="2.876776">
        <ele>123</ele>
        <time>2019-08-19T02:51:34Z</time>
      </trkpt>
      <trkpt lat="42.231454" lon="2.876721">
        <ele>123</ele>
        <time>2019-08-19T02:51:35Z</time>
      </trkpt>
      <trkpt lat="42.231432" lon="2.876666">
        <ele>123</ele>
        <time>2019-08-19T02:51:36Z</time>
      </trkpt>
      <trkpt lat="42.231409" lon="2.876611">
        <ele>124</ele>
        <time>2019-08-19T02:51:37Z</time>
      </trkpt>
      <trkpt lat="42.231352" lon="2.876474">
        <ele>124</ele>
        <time>2019-08-19T02:51:38Z</time>
      </trkpt>
      <trkpt lat="42.231322" lon="2.876401">
        <ele>124</ele>
        <time>2019-08-19T02:51:40Z</time>
      </trkpt>
      <trkpt lat="42.231291" lon="2.876328">
        <ele>124</ele>
        <time>2019-08-19T02:51:41Z</time>
      </trkpt>
      <trkpt lat="42.231261" lon="2.876255">
        <ele>124</ele>
        <time>2019-08-19T02:51:42Z</time>
      </trkpt>
      <trkpt lat="42.23123" lon="2.876182">
        <ele>124</ele>
        <time>2019-08-19T02:51:43Z</time>
      </trkpt>
      <trkpt lat="42.231199" lon="2.876109">
        <ele>124</ele>
        <time>2019-08-19T02:51:44Z</time>
      </trkpt>
      <trkpt lat="42.231169" lon="2.876036">
        <ele>124</ele>
        <time>2019-08-19T02:51:45Z</time>
      </trkpt>
      <trkpt lat="42.231138" lon="2.875963">
        <ele>124</ele>
        <time>2019-08-19T02:51:47Z</time>
      </trkpt>
      <trkpt lat="42.231057" lon="2.875776">
        <ele>124</ele>
        <time>2019-08-19T02:51:49Z</time>
      </trkpt>
      <trkpt lat="42.231032" lon="2.875717">
        <ele>124</ele>
        <time>2019-08-19T02:51:50Z</time>
      </trkpt>
      <trkpt lat="42.231007" lon="2.875659">
        <ele>124</ele>
        <time>2019-08-19T02:51:51Z</time>
      </trkpt>
      <trkpt lat="42.230982" lon="2.8756">
        <ele>124</ele>
        <time>2019-08-19T02:51:52Z</time>
      </trkpt>
      <trkpt lat="42.230958" lon="2.875542">
        <ele>124</ele>
        <time>2019-08-19T02:51:53Z</time>
      </trkpt>
      <trkpt lat="42.230933" lon="2.875483">
        <ele>124</ele>
        <time>2019-08-19T02:51:54Z</time>
      </trkpt>
      <trkpt lat="42.230908" lon="2.875425">
        <ele>124</ele>
        <time>2019-08-19T02:51:55Z</time>
      </trkpt>
      <trkpt lat="42.230883" lon="2.875366">
        <ele>124</ele>
        <time>2019-08-19T02:51:56Z</time>
      </trkpt>
      <trkpt lat="42.230858" lon="2.875308">
        <ele>123</ele>
        <time>2019-08-19T02:51:57Z</time>
      </trkpt>
      <trkpt lat="42.230806" lon="2.875182">
        <ele>123</ele>
        <time>2019-08-19T02:51:58Z</time>
      </trkpt>
      <trkpt lat="42.230779" lon="2.87512">
        <ele>123</ele>
        <time>2019-08-19T02:51:59Z</time>
      </trkpt>
      <trkpt lat="42.230753" lon="2.875057">
        <ele>123</ele>
        <time>2019-08-19T02:52:00Z</time>
      </trkpt>
      <trkpt lat="42.230727" lon="2.874995">
        <ele>123</ele>
        <time>2019-08-19T02:52:01Z</time>
      </trkpt>
      <trkpt lat="42.2307" lon="2.874933">
        <ele>123</ele>
        <time>2019-08-19T02:52:02Z</time>
      </trkpt>
      <trkpt lat="42.230674" lon="2.874871">
        <ele>123</ele>
        <time>2019-08-19T02:52:03Z</time>
      </trkpt>
      <trkpt lat="42.230648" lon="2.874808">
        <ele>123</ele>
        <time>2019-08-19T02:52:04Z</time>
      </trkpt>
      <trkpt lat="42.230621" lon="2.874746">
        <ele>123</ele>
        <time>2019-08-19T02:52:06Z</time>
      </trkpt>
      <trkpt lat="42.230595" lon="2.874684">
        <ele>125</ele>
        <time>2019-08-19T02:52:07Z</time>
      </trkpt>
      <trkpt lat="42.230526" lon="2.874525">
        <ele>125</ele>
        <time>2019-08-19T02:52:08Z</time>
      </trkpt>
      <trkpt lat="42.230501" lon="2.874464">
        <ele>125</ele>
        <time>2019-08-19T02:52:09Z</time>
      </trkpt>
      <trkpt lat="42.230475" lon="2.874403">
        <ele>125</ele>
        <time>2019-08-19T02:52:10Z</time>
      </trkpt>
      <trkpt lat="42.230449" lon="2.874342">
        <ele>125</ele>
        <time>2019-08-19T02:52:11Z</time>
      </trkpt>
      <trkpt lat="42.230424" lon="2.874282">
        <ele>125</ele>
        <time>2019-08-19T02:52:12Z</time>
      </trkpt>
      <trkpt lat="42.230398" lon="2.874221">
        <ele>125</ele>
        <time>2019-08-19T02:52:13Z</time>
      </trkpt>
      <trkpt lat="42.230372" lon="2.87416">
        <ele>125</ele>
        <time>2019-08-19T02:52:14Z</time>
      </trkpt>
      <trkpt lat="42.230347" lon="2.874099">
        <ele>125</ele>
        <time>2019-08-19T02:52:16Z</time>
      </trkpt>
      <trkpt lat="42.230321" lon="2.874038">
        <ele>125</ele>
        <time>2019-08-19T02:52:17Z</time>
      </trkpt>
      <trkpt lat="42.23027" lon="2.873923">
        <ele>125</ele>
        <time>2019-08-19T02:52:18Z</time>
      </trkpt>
      <trkpt lat="42.230246" lon="2.873865">
        <ele>125</ele>
        <time>2019-08-19T02:52:19Z</time>
      </trkpt>
      <trkpt lat="42.230221" lon="2.873806">
        <ele>125</ele>
        <time>2019-08-19T02:52:20Z</time>
      </trkpt>
      <trkpt lat="42.230196" lon="2.873748">
        <ele>125</ele>
        <time>2019-08-19T02:52:21Z</time>
      </trkpt>
      <trkpt lat="42.230172" lon="2.87369">
        <ele>125</ele>
        <time>2019-08-19T02:52:22Z</time>
      </trkpt>
      <trkpt lat="42.230147" lon="2.873632">
        <ele>125</ele>
        <time>2019-08-19T02:52:23Z</time>
      </trkpt>
      <trkpt lat="42.230122" lon="2.873573">
        <ele>125</ele>
        <time>2019-08-19T02:52:25Z</time>
      </trkpt>
      <trkpt lat="42.230098" lon="2.873515">
        <ele>125</ele>
        <time>2019-08-19T02:52:26Z</time>
      </trkpt>
      <trkpt lat="42.230073" lon="2.873457">
        <ele>126</ele>
        <time>2019-08-19T02:52:27Z</time>
      </trkpt>
      <trkpt lat="42.230028" lon="2.873345">
        <ele>126</ele>
        <time>2019-08-19T02:52:28Z</time>
      </trkpt>
      <trkpt lat="42.230006" lon="2.873292">
        <ele>126</ele>
        <time>2019-08-19T02:52:29Z</time>
      </trkpt>
      <trkpt lat="42.229984" lon="2.87324">
        <ele>126</ele>
        <time>2019-08-19T02:52:30Z</time>
      </trkpt>
      <trkpt lat="42.229962" lon="2.873187">
        <ele>126</ele>
        <time>2019-08-19T02:52:31Z</time>
      </trkpt>
      <trkpt lat="42.229941" lon="2.873135">
        <ele>126</ele>
        <time>2019-08-19T02:52:32Z</time>
      </trkpt>
      <trkpt lat="42.229919" lon="2.873083">
        <ele>126</ele>
        <time>2019-08-19T02:52:33Z</time>
      </trkpt>
      <trkpt lat="42.229897" lon="2.87303">
        <ele>126</ele>
        <time>2019-08-19T02:52:34Z</time>
      </trkpt>
      <trkpt lat="42.229875" lon="2.872978">
        <ele>126</ele>
        <time>2019-08-19T02:52:35Z</time>
      </trkpt>
      <trkpt lat="42.229853" lon="2.872925">
        <ele>126</ele>
        <time>2019-08-19T02:52:36Z</time>
      </trkpt>
      <trkpt lat="42.229831" lon="2.872873">
        <ele>128</ele>
        <time>2019-08-19T02:52:37Z</time>
      </trkpt>
      <trkpt lat="42.229781" lon="2.872755">
        <ele>128</ele>
        <time>2019-08-19T02:52:38Z</time>
      </trkpt>
      <trkpt lat="42.229755" lon="2.872693">
        <ele>128</ele>
        <time>2019-08-19T02:52:39Z</time>
      </trkpt>
      <trkpt lat="42.22973" lon="2.872632">
        <ele>128</ele>
        <time>2019-08-19T02:52:40Z</time>
      </trkpt>
      <trkpt lat="42.229705" lon="2.872571">
        <ele>128</ele>
        <time>2019-08-19T02:52:41Z</time>
      </trkpt>
      <trkpt lat="42.229679" lon="2.87251">
        <ele>128</ele>
        <time>2019-08-19T02:52:42Z</time>
      </trkpt>
      <trkpt lat="42.229654" lon="2.872448">
        <ele>128</ele>
        <time>2019-08-19T02:52:44Z</time>
      </trkpt>
      <trkpt lat="42.229628" lon="2.872387">
        <ele>128</ele>
        <time>2019-08-19T02:52:45Z</time>
      </trkpt>
      <trkpt lat="42.229603" lon="2.872326">
        <ele>130</ele>
        <time>2019-08-19T02:52:47Z</time>
      </trkpt>
      <trkpt lat="42.229562" lon="2.872225">
        <ele>130</ele>
        <time>2019-08-19T02:52:48Z</time>
      </trkpt>
      <trkpt lat="42.229542" lon="2.872179">
        <ele>130</ele>
        <time>2019-08-19T02:52:49Z</time>
      </trkpt>
      <trkpt lat="42.229523" lon="2.872132">
        <ele>130</ele>
        <time>2019-08-19T02:52:50Z</time>
      </trkpt>
      <trkpt lat="42.229504" lon="2.872085">
        <ele>130</ele>
        <time>2019-08-19T02:52:51Z</time>
      </trkpt>
      <trkpt lat="42.229485" lon="2.872038">
        <ele>130</ele>
        <time>2019-08-19T02:52:52Z</time>
      </trkpt>
      <trkpt lat="42.229465" lon="2.871992">
        <ele>130</ele>
        <time>2019-08-19T02:52:53Z</time>
      </trkpt>
      <trkpt lat="42.229446" lon="2.871945">
        <ele>130</ele>
        <time>2019-08-19T02:52:54Z</time>
      </trkpt>
      <trkpt lat="42.229427" lon="2.871898">
        <ele>130</ele>
        <time>2019-08-19T02:52:55Z</time>
      </trkpt>
      <trkpt lat="42.229407" lon="2.871852">
        <ele>130</ele>
        <time>2019-08-19T02:52:56Z</time>
      </trkpt>
      <trkpt lat="42.229388" lon="2.871805">
        <ele>132</ele>
        <time>2019-08-19T02:52:57Z</time>
      </trkpt>
      <trkpt lat="42.229349" lon="2.87171">
        <ele>132</ele>
        <time>2019-08-19T02:52:58Z</time>
      </trkpt>
      <trkpt lat="42.229331" lon="2.871665">
        <ele>132</ele>
        <time>2019-08-19T02:52:59Z</time>
      </trkpt>
      <trkpt lat="42.229313" lon="2.871619">
        <ele>132</ele>
        <time>2019-08-19T02:53:00Z</time>
      </trkpt>
      <trkpt lat="42.229295" lon="2.871574">
        <ele>132</ele>
        <time>2019-08-19T02:53:01Z</time>
      </trkpt>
      <trkpt lat="42.229278" lon="2.871529">
        <ele>132</ele>
        <time>2019-08-19T02:53:02Z</time>
      </trkpt>
      <trkpt lat="42.22926" lon="2.871484">
        <ele>132</ele>
        <time>2019-08-19T02:53:03Z</time>
      </trkpt>
      <trkpt lat="42.229242" lon="2.871439">
        <ele>132</ele>
        <time>2019-08-19T02:53:04Z</time>
      </trkpt>
      <trkpt lat="42.229224" lon="2.871393">
        <ele>132</ele>
        <time>2019-08-19T02:53:05Z</time>
      </trkpt>
      <trkpt lat="42.229206" lon="2.871348">
        <ele>132</ele>
        <time>2019-08-19T02:53:06Z</time>
      </trkpt>
      <trkpt lat="42.229188" lon="2.871303">
        <ele>133</ele>
        <time>2019-08-19T02:53:07Z</time>
      </trkpt>
      <trkpt lat="42.229144" lon="2.871198">
        <ele>133</ele>
        <time>2019-08-19T02:53:08Z</time>
      </trkpt>
      <trkpt lat="42.229122" lon="2.871145">
        <ele>133</ele>
        <time>2019-08-19T02:53:10Z</time>
      </trkpt>
      <trkpt lat="42.229099" lon="2.871092">
        <ele>133</ele>
        <time>2019-08-19T02:53:11Z</time>
      </trkpt>
      <trkpt lat="42.229076" lon="2.871039">
        <ele>133</ele>
        <time>2019-08-19T02:53:12Z</time>
      </trkpt>
      <trkpt lat="42.229054" lon="2.870985">
        <ele>133</ele>
        <time>2019-08-19T02:53:13Z</time>
      </trkpt>
      <trkpt lat="42.229031" lon="2.870932">
        <ele>133</ele>
        <time>2019-08-19T02:53:14Z</time>
      </trkpt>
      <trkpt lat="42.229008" lon="2.870879">
        <ele>133</ele>
        <time>2019-08-19T02:53:15Z</time>
      </trkpt>
      <trkpt lat="42.228986" lon="2.870826">
        <ele>133</ele>
        <time>2019-08-19T02:53:16Z</time>
      </trkpt>
      <trkpt lat="42.228963" lon="2.870773">
        <ele>135</ele>
        <time>2019-08-19T02:53:17Z</time>
      </trkpt>
      <trkpt lat="42.228918" lon="2.870667">
        <ele>135</ele>
        <time>2019-08-19T02:53:18Z</time>
      </trkpt>
      <trkpt lat="42.228896" lon="2.870612">
        <ele>135</ele>
        <time>2019-08-19T02:53:19Z</time>
      </trkpt>
      <trkpt lat="42.228874" lon="2.870558">
        <ele>135</ele>
        <time>2019-08-19T02:53:21Z</time>
      </trkpt>
      <trkpt lat="42.228852" lon="2.870504">
        <ele>135</ele>
        <time>2019-08-19T02:53:22Z</time>
      </trkpt>
      <trkpt lat="42.22883" lon="2.870449">
        <ele>135</ele>
        <time>2019-08-19T02:53:23Z</time>
      </trkpt>
      <trkpt lat="42.228808" lon="2.870395">
        <ele>135</ele>
        <time>2019-08-19T02:53:24Z</time>
      </trkpt>
      <trkpt lat="42.228786" lon="2.870341">
        <ele>135</ele>
        <time>2019-08-19T02:53:25Z</time>
      </trkpt>
      <trkpt lat="42.228764" lon="2.870286">
        <ele>135</ele>
        <time>2019-08-19T02:53:26Z</time>
      </trkpt>
      <trkpt lat="42.228742" lon="2.870232">
        <ele>137</ele>
        <time>2019-08-19T02:53:27Z</time>
      </trkpt>
      <trkpt lat="42.228695" lon="2.870122">
        <ele>137</ele>
        <time>2019-08-19T02:53:28Z</time>
      </trkpt>
      <trkpt lat="42.228671" lon="2.870066">
        <ele>137</ele>
        <time>2019-08-19T02:53:29Z</time>
      </trkpt>
      <trkpt lat="42.228646" lon="2.870009">
        <ele>137</ele>
        <time>2019-08-19T02:53:30Z</time>
      </trkpt>
      <trkpt lat="42.228621" lon="2.869952">
        <ele>137</ele>
        <time>2019-08-19T02:53:32Z</time>
      </trkpt>
      <trkpt lat="42.228597" lon="2.869896">
        <ele>137</ele>
        <time>2019-08-19T02:53:33Z</time>
      </trkpt>
      <trkpt lat="42.228572" lon="2.869839">
        <ele>137</ele>
        <time>2019-08-19T02:53:34Z</time>
      </trkpt>
      <trkpt lat="42.228547" lon="2.869782">
        <ele>137</ele>
        <time>2019-08-19T02:53:35Z</time>
      </trkpt>
      <trkpt lat="42.228523" lon="2.869726">
        <ele>137</ele>
        <time>2019-08-19T02:53:36Z</time>
      </trkpt>
      <trkpt lat="42.228498" lon="2.869669">
        <ele>138</ele>
        <time>2019-08-19T02:53:37Z</time>
      </trkpt>
      <trkpt lat="42.228449" lon="2.869552">
        <ele>138</ele>
        <time>2019-08-19T02:53:38Z</time>
      </trkpt>
      <trkpt lat="42.228425" lon="2.869492">
        <ele>138</ele>
        <time>2019-08-19T02:53:39Z</time>
      </trkpt>
      <trkpt lat="42.2284" lon="2.869433">
        <ele>138</ele>
        <time>2019-08-19T02:53:40Z</time>
      </trkpt>
      <trkpt lat="42.228376" lon="2.869373">
        <ele>138</ele>
        <time>2019-08-19T02:53:42Z</time>
      </trkpt>
      <trkpt lat="42.228352" lon="2.869314">
        <ele>138</ele>
        <time>2019-08-19T02:53:43Z</time>
      </trkpt>
      <trkpt lat="42.228328" lon="2.869254">
        <ele>138</ele>
        <time>2019-08-19T02:53:44Z</time>
      </trkpt>
      <trkpt lat="42.228303" lon="2.869195">
        <ele>138</ele>
        <time>2019-08-19T02:53:45Z</time>
      </trkpt>
      <trkpt lat="42.228279" lon="2.869135">
        <ele>138</ele>
        <time>2019-08-19T02:53:46Z</time>
      </trkpt>
      <trkpt lat="42.228255" lon="2.869076">
        <ele>140</ele>
        <time>2019-08-19T02:53:47Z</time>
      </trkpt>
      <trkpt lat="42.228208" lon="2.868962">
        <ele>140</ele>
        <time>2019-08-19T02:53:48Z</time>
      </trkpt>
      <trkpt lat="42.228185" lon="2.868906">
        <ele>140</ele>
        <time>2019-08-19T02:53:49Z</time>
      </trkpt>
      <trkpt lat="42.228161" lon="2.868849">
        <ele>140</ele>
        <time>2019-08-19T02:53:50Z</time>
      </trkpt>
      <trkpt lat="42.228138" lon="2.868793">
        <ele>140</ele>
        <time>2019-08-19T02:53:52Z</time>
      </trkpt>
      <trkpt lat="42.228115" lon="2.868737">
        <ele>140</ele>
        <time>2019-08-19T02:53:53Z</time>
      </trkpt>
      <trkpt lat="42.228092" lon="2.868681">
        <ele>140</ele>
        <time>2019-08-19T02:53:54Z</time>
      </trkpt>
      <trkpt lat="42.228068" lon="2.868624">
        <ele>140</ele>
        <time>2019-08-19T02:53:55Z</time>
      </trkpt>
      <trkpt lat="42.228045" lon="2.868568">
        <ele>140</ele>
        <time>2019-08-19T02:53:56Z</time>
      </trkpt>
      <trkpt lat="42.228022" lon="2.868512">
        <ele>142</ele>
        <time>2019-08-19T02:53:57Z</time>
      </trkpt>
      <trkpt lat="42.227975" lon="2.868397">
        <ele>142</ele>
        <time>2019-08-19T02:53:58Z</time>
      </trkpt>
      <trkpt lat="42.22795" lon="2.868337">
        <ele>142</ele>
        <time>2019-08-19T02:53:59Z</time>
      </trkpt>
      <trkpt lat="42.227925" lon="2.868278">
        <ele>142</ele>
        <time>2019-08-19T02:54:00Z</time>
      </trkpt>
      <trkpt lat="42.2279" lon="2.868218">
        <ele>142</ele>
        <time>2019-08-19T02:54:01Z</time>
      </trkpt>
      <trkpt lat="42.227876" lon="2.868158">
        <ele>142</ele>
        <time>2019-08-19T02:54:03Z</time>
      </trkpt>
      <trkpt lat="42.227851" lon="2.868098">
        <ele>142</ele>
        <time>2019-08-19T02:54:04Z</time>
      </trkpt>
      <trkpt lat="42.227826" lon="2.868039">
        <ele>142</ele>
        <time>2019-08-19T02:54:05Z</time>
      </trkpt>
      <trkpt lat="42.227801" lon="2.867979">
        <ele>142</ele>
        <time>2019-08-19T02:54:06Z</time>
      </trkpt>
      <trkpt lat="42.227776" lon="2.867919">
        <ele>142</ele>
        <time>2019-08-19T02:54:07Z</time>
      </trkpt>
      <trkpt lat="42.227727" lon="2.867788">
        <ele>142</ele>
        <time>2019-08-19T02:54:08Z</time>
      </trkpt>
      <trkpt lat="42.227704" lon="2.867722">
        <ele>142</ele>
        <time>2019-08-19T02:54:09Z</time>
      </trkpt>
      <trkpt lat="42.227681" lon="2.867655">
        <ele>142</ele>
        <time>2019-08-19T02:54:10Z</time>
      </trkpt>
      <trkpt lat="42.227658" lon="2.867589">
        <ele>142</ele>
        <time>2019-08-19T02:54:12Z</time>
      </trkpt>
      <trkpt lat="42.227636" lon="2.867522">
        <ele>142</ele>
        <time>2019-08-19T02:54:13Z</time>
      </trkpt>
      <trkpt lat="42.227613" lon="2.867456">
        <ele>142</ele>
        <time>2019-08-19T02:54:14Z</time>
      </trkpt>
      <trkpt lat="42.22759" lon="2.867389">
        <ele>142</ele>
        <time>2019-08-19T02:54:15Z</time>
      </trkpt>
      <trkpt lat="42.227567" lon="2.867323">
        <ele>142</ele>
        <time>2019-08-19T02:54:16Z</time>
      </trkpt>
      <trkpt lat="42.227544" lon="2.867256">
        <ele>143</ele>
        <time>2019-08-19T02:54:17Z</time>
      </trkpt>
      <trkpt lat="42.227487" lon="2.86705">
        <ele>143</ele>
        <time>2019-08-19T02:54:19Z</time>
      </trkpt>
      <trkpt lat="42.22747" lon="2.866982">
        <ele>143</ele>
        <time>2019-08-19T02:54:21Z</time>
      </trkpt>
      <trkpt lat="42.227454" lon="2.866913">
        <ele>143</ele>
        <time>2019-08-19T02:54:22Z</time>
      </trkpt>
      <trkpt lat="42.227438" lon="2.866845">
        <ele>143</ele>
        <time>2019-08-19T02:54:23Z</time>
      </trkpt>
      <trkpt lat="42.227421" lon="2.866776">
        <ele>143</ele>
        <time>2019-08-19T02:54:24Z</time>
      </trkpt>
      <trkpt lat="42.227405" lon="2.866708">
        <ele>143</ele>
        <time>2019-08-19T02:54:25Z</time>
      </trkpt>
      <trkpt lat="42.227388" lon="2.866639">
        <ele>143</ele>
        <time>2019-08-19T02:54:26Z</time>
      </trkpt>
      <trkpt lat="42.227372" lon="2.866571">
        <ele>143</ele>
        <time>2019-08-19T02:54:27Z</time>
      </trkpt>
      <trkpt lat="42.227348" lon="2.866439">
        <ele>143</ele>
        <time>2019-08-19T02:54:28Z</time>
      </trkpt>
      <trkpt lat="42.22734" lon="2.866377">
        <ele>143</ele>
        <time>2019-08-19T02:54:29Z</time>
      </trkpt>
      <trkpt lat="42.227331" lon="2.866316">
        <ele>143</ele>
        <time>2019-08-19T02:54:30Z</time>
      </trkpt>
      <trkpt lat="42.227322" lon="2.866254">
        <ele>143</ele>
        <time>2019-08-19T02:54:31Z</time>
      </trkpt>
      <trkpt lat="42.227314" lon="2.866192">
        <ele>143</ele>
        <time>2019-08-19T02:54:32Z</time>
      </trkpt>
      <trkpt lat="42.227305" lon="2.86613">
        <ele>143</ele>
        <time>2019-08-19T02:54:33Z</time>
      </trkpt>
      <trkpt lat="42.227296" lon="2.866068">
        <ele>143</ele>
        <time>2019-08-19T02:54:34Z</time>
      </trkpt>
      <trkpt lat="42.227287" lon="2.866007">
        <ele>143</ele>
        <time>2019-08-19T02:54:35Z</time>
      </trkpt>
      <trkpt lat="42.227279" lon="2.865945">
        <ele>143</ele>
        <time>2019-08-19T02:54:36Z</time>
      </trkpt>
      <trkpt lat="42.22727" lon="2.865883">
        <ele>143</ele>
        <time>2019-08-19T02:54:37Z</time>
      </trkpt>
      <trkpt lat="42.22726" lon="2.865752">
        <ele>143</ele>
        <time>2019-08-19T02:54:38Z</time>
      </trkpt>
      <trkpt lat="42.227257" lon="2.865686">
        <ele>143</ele>
        <time>2019-08-19T02:54:39Z</time>
      </trkpt>
      <trkpt lat="42.227253" lon="2.865621">
        <ele>143</ele>
        <time>2019-08-19T02:54:40Z</time>
      </trkpt>
      <trkpt lat="42.22725" lon="2.865556">
        <ele>143</ele>
        <time>2019-08-19T02:54:41Z</time>
      </trkpt>
      <trkpt lat="42.227247" lon="2.86549">
        <ele>143</ele>
        <time>2019-08-19T02:54:42Z</time>
      </trkpt>
      <trkpt lat="42.227244" lon="2.865425">
        <ele>143</ele>
        <time>2019-08-19T02:54:43Z</time>
      </trkpt>
      <trkpt lat="42.227241" lon="2.86536">
        <ele>143</ele>
        <time>2019-08-19T02:54:44Z</time>
      </trkpt>
      <trkpt lat="42.227237" lon="2.865295">
        <ele>143</ele>
        <time>2019-08-19T02:54:45Z</time>
      </trkpt>
      <trkpt lat="42.227234" lon="2.865229">
        <ele>143</ele>
        <time>2019-08-19T02:54:46Z</time>
      </trkpt>
      <trkpt lat="42.227231" lon="2.865164">
        <ele>143</ele>
        <time>2019-08-19T02:54:47Z</time>
      </trkpt>
      <trkpt lat="42.227234" lon="2.865013">
        <ele>143</ele>
        <time>2019-08-19T02:54:48Z</time>
      </trkpt>
      <trkpt lat="42.227238" lon="2.864937">
        <ele>143</ele>
        <time>2019-08-19T02:54:50Z</time>
      </trkpt>
      <trkpt lat="42.227241" lon="2.864862">
        <ele>143</ele>
        <time>2019-08-19T02:54:51Z</time>
      </trkpt>
      <trkpt lat="42.227244" lon="2.864786">
        <ele>143</ele>
        <time>2019-08-19T02:54:52Z</time>
      </trkpt>
      <trkpt lat="42.227247" lon="2.864711">
        <ele>143</ele>
        <time>2019-08-19T02:54:53Z</time>
      </trkpt>
      <trkpt lat="42.227251" lon="2.864635">
        <ele>143</ele>
        <time>2019-08-19T02:54:54Z</time>
      </trkpt>
      <trkpt lat="42.227254" lon="2.86456">
        <ele>143</ele>
        <time>2019-08-19T02:54:55Z</time>
      </trkpt>
      <trkpt lat="42.227257" lon="2.864484">
        <ele>144</ele>
        <time>2019-08-19T02:54:57Z</time>
      </trkpt>
      <trkpt lat="42.227267" lon="2.864353">
        <ele>144</ele>
        <time>2019-08-19T02:54:58Z</time>
      </trkpt>
      <trkpt lat="42.227273" lon="2.864286">
        <ele>144</ele>
        <time>2019-08-19T02:55:00Z</time>
      </trkpt>
      <trkpt lat="42.227278" lon="2.864218">
        <ele>144</ele>
        <time>2019-08-19T02:55:01Z</time>
      </trkpt>
      <trkpt lat="42.227283" lon="2.864151">
        <ele>144</ele>
        <time>2019-08-19T02:55:02Z</time>
      </trkpt>
      <trkpt lat="42.227289" lon="2.864084">
        <ele>144</ele>
        <time>2019-08-19T02:55:03Z</time>
      </trkpt>
      <trkpt lat="42.227294" lon="2.864017">
        <ele>144</ele>
        <time>2019-08-19T02:55:04Z</time>
      </trkpt>
      <trkpt lat="42.227299" lon="2.863949">
        <ele>144</ele>
        <time>2019-08-19T02:55:05Z</time>
      </trkpt>
      <trkpt lat="42.227305" lon="2.863882">
        <ele>144</ele>
        <time>2019-08-19T02:55:06Z</time>
      </trkpt>
      <trkpt lat="42.22731" lon="2.863815">
        <ele>145</ele>
        <time>2019-08-19T02:55:07Z</time>
      </trkpt>
      <trkpt lat="42.227318" lon="2.863668">
        <ele>145</ele>
        <time>2019-08-19T02:55:08Z</time>
      </trkpt>
      <trkpt lat="42.227323" lon="2.863591">
        <ele>145</ele>
        <time>2019-08-19T02:55:10Z</time>
      </trkpt>
      <trkpt lat="42.227328" lon="2.863515">
        <ele>145</ele>
        <time>2019-08-19T02:55:11Z</time>
      </trkpt>
      <trkpt lat="42.227333" lon="2.863438">
        <ele>145</ele>
        <time>2019-08-19T02:55:12Z</time>
      </trkpt>
      <trkpt lat="42.227338" lon="2.863362">
        <ele>145</ele>
        <time>2019-08-19T02:55:13Z</time>
      </trkpt>
      <trkpt lat="42.227343" lon="2.863285">
        <ele>145</ele>
        <time>2019-08-19T02:55:14Z</time>
      </trkpt>
      <trkpt lat="42.227348" lon="2.863209">
        <ele>145</ele>
        <time>2019-08-19T02:55:15Z</time>
      </trkpt>
      <trkpt lat="42.227353" lon="2.863132">
        <ele>145</ele>
        <time>2019-08-19T02:55:16Z</time>
      </trkpt>
      <trkpt lat="42.227358" lon="2.863056">
        <ele>145</ele>
        <time>2019-08-19T02:55:17Z</time>
      </trkpt>
      <trkpt lat="42.227369" lon="2.862891">
        <ele>145</ele>
        <time>2019-08-19T02:55:18Z</time>
      </trkpt>
      <trkpt lat="42.227376" lon="2.862806">
        <ele>145</ele>
        <time>2019-08-19T02:55:19Z</time>
      </trkpt>
      <trkpt lat="42.227382" lon="2.862722">
        <ele>145</ele>
        <time>2019-08-19T02:55:20Z</time>
      </trkpt>
      <trkpt lat="42.227389" lon="2.862637">
        <ele>145</ele>
        <time>2019-08-19T02:55:21Z</time>
      </trkpt>
      <trkpt lat="42.227395" lon="2.862553">
        <ele>145</ele>
        <time>2019-08-19T02:55:22Z</time>
      </trkpt>
      <trkpt lat="42.227402" lon="2.862468">
        <ele>145</ele>
        <time>2019-08-19T02:55:23Z</time>
      </trkpt>
      <trkpt lat="42.227408" lon="2.862384">
        <ele>145</ele>
        <time>2019-08-19T02:55:24Z</time>
      </trkpt>
      <trkpt lat="42.227415" lon="2.862299">
        <ele>145</ele>
        <time>2019-08-19T02:55:25Z</time>
      </trkpt>
      <trkpt lat="42.227421" lon="2.862215">
        <ele>145</ele>
        <time>2019-08-19T02:55:27Z</time>
      </trkpt>
      <trkpt lat="42.227431" lon="2.862043">
        <ele>145</ele>
        <time>2019-08-19T02:55:28Z</time>
      </trkpt>
      <trkpt lat="42.227434" lon="2.861957">
        <ele>145</ele>
        <time>2019-08-19T02:55:29Z</time>
      </trkpt>
      <trkpt lat="42.227438" lon="2.861872">
        <ele>145</ele>
        <time>2019-08-19T02:55:30Z</time>
      </trkpt>
      <trkpt lat="42.227441" lon="2.861786">
        <ele>145</ele>
        <time>2019-08-19T02:55:31Z</time>
      </trkpt>
      <trkpt lat="42.227445" lon="2.8617">
        <ele>145</ele>
        <time>2019-08-19T02:55:32Z</time>
      </trkpt>
      <trkpt lat="42.227448" lon="2.861614">
        <ele>145</ele>
        <time>2019-08-19T02:55:34Z</time>
      </trkpt>
      <trkpt lat="42.227452" lon="2.861529">
        <ele>145</ele>
        <time>2019-08-19T02:55:35Z</time>
      </trkpt>
      <trkpt lat="42.227455" lon="2.861443">
        <ele>145</ele>
        <time>2019-08-19T02:55:36Z</time>
      </trkpt>
      <trkpt lat="42.227459" lon="2.861357">
        <ele>146</ele>
        <time>2019-08-19T02:55:37Z</time>
      </trkpt>
      <trkpt lat="42.22746" lon="2.861182">
        <ele>146</ele>
        <time>2019-08-19T02:55:38Z</time>
      </trkpt>
      <trkpt lat="42.227458" lon="2.861089">
        <ele>146</ele>
        <time>2019-08-19T02:55:39Z</time>
      </trkpt>
      <trkpt lat="42.227456" lon="2.860996">
        <ele>146</ele>
        <time>2019-08-19T02:55:40Z</time>
      </trkpt>
      <trkpt lat="42.227454" lon="2.860903">
        <ele>146</ele>
        <time>2019-08-19T02:55:42Z</time>
      </trkpt>
      <trkpt lat="42.227453" lon="2.860809">
        <ele>146</ele>
        <time>2019-08-19T02:55:43Z</time>
      </trkpt>
      <trkpt lat="42.227451" lon="2.860716">
        <ele>146</ele>
        <time>2019-08-19T02:55:44Z</time>
      </trkpt>
      <trkpt lat="42.227449" lon="2.860623">
        <ele>146</ele>
        <time>2019-08-19T02:55:45Z</time>
      </trkpt>
      <trkpt lat="42.227447" lon="2.86053">
        <ele>146</ele>
        <time>2019-08-19T02:55:46Z</time>
      </trkpt>
      <trkpt lat="42.227445" lon="2.860437">
        <ele>146</ele>
        <time>2019-08-19T02:55:47Z</time>
      </trkpt>
      <trkpt lat="42.227436" lon="2.860244">
        <ele>146</ele>
        <time>2019-08-19T02:55:48Z</time>
      </trkpt>
      <trkpt lat="42.227432" lon="2.860149">
        <ele>146</ele>
        <time>2019-08-19T02:55:49Z</time>
      </trkpt>
      <trkpt lat="42.227427" lon="2.860053">
        <ele>146</ele>
        <time>2019-08-19T02:55:50Z</time>
      </trkpt>
      <trkpt lat="42.227423" lon="2.859957">
        <ele>146</ele>
        <time>2019-08-19T02:55:51Z</time>
      </trkpt>
      <trkpt lat="42.227419" lon="2.859862">
        <ele>146</ele>
        <time>2019-08-19T02:55:52Z</time>
      </trkpt>
      <trkpt lat="42.227415" lon="2.859766">
        <ele>146</ele>
        <time>2019-08-19T02:55:53Z</time>
      </trkpt>
      <trkpt lat="42.22741" lon="2.85967">
        <ele>146</ele>
        <time>2019-08-19T02:55:54Z</time>
      </trkpt>
      <trkpt lat="42.227406" lon="2.859575">
        <ele>146</ele>
        <time>2019-08-19T02:55:56Z</time>
      </trkpt>
      <trkpt lat="42.227402" lon="2.859479">
        <ele>145</ele>
        <time>2019-08-19T02:55:57Z</time>
      </trkpt>
      <trkpt lat="42.227379" lon="2.859286">
        <ele>145</ele>
        <time>2019-08-19T02:55:58Z</time>
      </trkpt>
      <trkpt lat="42.227365" lon="2.85919">
        <ele>145</ele>
        <time>2019-08-19T02:55:59Z</time>
      </trkpt>
      <trkpt lat="42.227352" lon="2.859095">
        <ele>145</ele>
        <time>2019-08-19T02:56:00Z</time>
      </trkpt>
      <trkpt lat="42.227339" lon="2.858999">
        <ele>145</ele>
        <time>2019-08-19T02:56:01Z</time>
      </trkpt>
      <trkpt lat="42.227325" lon="2.858903">
        <ele>145</ele>
        <time>2019-08-19T02:56:03Z</time>
      </trkpt>
      <trkpt lat="42.227312" lon="2.858807">
        <ele>145</ele>
        <time>2019-08-19T02:56:04Z</time>
      </trkpt>
      <trkpt lat="42.227299" lon="2.858712">
        <ele>145</ele>
        <time>2019-08-19T02:56:05Z</time>
      </trkpt>
      <trkpt lat="42.227285" lon="2.858616">
        <ele>145</ele>
        <time>2019-08-19T02:56:06Z</time>
      </trkpt>
      <trkpt lat="42.227272" lon="2.85852">
        <ele>145</ele>
        <time>2019-08-19T02:56:07Z</time>
      </trkpt>
      <trkpt lat="42.227237" lon="2.858323">
        <ele>145</ele>
        <time>2019-08-19T02:56:08Z</time>
      </trkpt>
      <trkpt lat="42.227216" lon="2.85822">
        <ele>145</ele>
        <time>2019-08-19T02:56:09Z</time>
      </trkpt>
      <trkpt lat="42.227195" lon="2.858116">
        <ele>145</ele>
        <time>2019-08-19T02:56:10Z</time>
      </trkpt>
      <trkpt lat="42.227175" lon="2.858012">
        <ele>145</ele>
        <time>2019-08-19T02:56:11Z</time>
      </trkpt>
      <trkpt lat="42.227154" lon="2.857909">
        <ele>145</ele>
        <time>2019-08-19T02:56:13Z</time>
      </trkpt>
      <trkpt lat="42.227133" lon="2.857805">
        <ele>145</ele>
        <time>2019-08-19T02:56:14Z</time>
      </trkpt>
      <trkpt lat="42.227112" lon="2.857702">
        <ele>145</ele>
        <time>2019-08-19T02:56:15Z</time>
      </trkpt>
      <trkpt lat="42.227091" lon="2.857598">
        <ele>145</ele>
        <time>2019-08-19T02:56:17Z</time>
      </trkpt>
      <trkpt lat="42.227046" lon="2.857416">
        <ele>145</ele>
        <time>2019-08-19T02:56:18Z</time>
      </trkpt>
      <trkpt lat="42.227022" lon="2.857326">
        <ele>145</ele>
        <time>2019-08-19T02:56:19Z</time>
      </trkpt>
      <trkpt lat="42.226998" lon="2.857236">
        <ele>145</ele>
        <time>2019-08-19T02:56:20Z</time>
      </trkpt>
      <trkpt lat="42.226974" lon="2.857146">
        <ele>145</ele>
        <time>2019-08-19T02:56:21Z</time>
      </trkpt>
      <trkpt lat="42.22695" lon="2.857057">
        <ele>145</ele>
        <time>2019-08-19T02:56:22Z</time>
      </trkpt>
      <trkpt lat="42.226926" lon="2.856967">
        <ele>145</ele>
        <time>2019-08-19T02:56:24Z</time>
      </trkpt>
      <trkpt lat="42.226902" lon="2.856877">
        <ele>145</ele>
        <time>2019-08-19T02:56:25Z</time>
      </trkpt>
      <trkpt lat="42.226878" lon="2.856787">
        <ele>145</ele>
        <time>2019-08-19T02:56:26Z</time>
      </trkpt>
      <trkpt lat="42.226854" lon="2.856697">
        <ele>144</ele>
        <time>2019-08-19T02:56:27Z</time>
      </trkpt>
      <trkpt lat="42.226798" lon="2.856523">
        <ele>144</ele>
        <time>2019-08-19T02:56:28Z</time>
      </trkpt>
      <trkpt lat="42.226768" lon="2.856438">
        <ele>144</ele>
        <time>2019-08-19T02:56:29Z</time>
      </trkpt>
      <trkpt lat="42.226738" lon="2.856354">
        <ele>144</ele>
        <time>2019-08-19T02:56:31Z</time>
      </trkpt>
      <trkpt lat="42.226708" lon="2.856269">
        <ele>144</ele>
        <time>2019-08-19T02:56:32Z</time>
      </trkpt>
      <trkpt lat="42.226678" lon="2.856185">
        <ele>144</ele>
        <time>2019-08-19T02:56:33Z</time>
      </trkpt>
      <trkpt lat="42.226648" lon="2.8561">
        <ele>144</ele>
        <time>2019-08-19T02:56:34Z</time>
      </trkpt>
      <trkpt lat="42.226618" lon="2.856016">
        <ele>144</ele>
        <time>2019-08-19T02:56:35Z</time>
      </trkpt>
      <trkpt lat="42.226588" lon="2.855931">
        <ele>144</ele>
        <time>2019-08-19T02:56:36Z</time>
      </trkpt>
      <trkpt lat="42.226558" lon="2.855847">
        <ele>143</ele>
        <time>2019-08-19T02:56:37Z</time>
      </trkpt>
      <trkpt lat="42.226469" lon="2.855616">
        <ele>143</ele>
        <time>2019-08-19T02:56:39Z</time>
      </trkpt>
      <trkpt lat="42.22644" lon="2.855545">
        <ele>143</ele>
        <time>2019-08-19T02:56:40Z</time>
      </trkpt>
      <trkpt lat="42.22641" lon="2.855473">
        <ele>143</ele>
        <time>2019-08-19T02:56:41Z</time>
      </trkpt>
      <trkpt lat="42.22638" lon="2.855401">
        <ele>143</ele>
        <time>2019-08-19T02:56:42Z</time>
      </trkpt>
      <trkpt lat="42.22635" lon="2.85533">
        <ele>143</ele>
        <time>2019-08-19T02:56:43Z</time>
      </trkpt>
      <trkpt lat="42.226321" lon="2.855258">
        <ele>143</ele>
        <time>2019-08-19T02:56:44Z</time>
      </trkpt>
      <trkpt lat="42.226291" lon="2.855187">
        <ele>143</ele>
        <time>2019-08-19T02:56:45Z</time>
      </trkpt>
      <trkpt lat="42.226261" lon="2.855115">
        <ele>143</ele>
        <time>2019-08-19T02:56:47Z</time>
      </trkpt>
      <trkpt lat="42.226197" lon="2.854969">
        <ele>143</ele>
        <time>2019-08-19T02:56:48Z</time>
      </trkpt>
      <trkpt lat="42.226164" lon="2.854896">
        <ele>143</ele>
        <time>2019-08-19T02:56:49Z</time>
      </trkpt>
      <trkpt lat="42.226131" lon="2.854824">
        <ele>143</ele>
        <time>2019-08-19T02:56:50Z</time>
      </trkpt>
      <trkpt lat="42.226098" lon="2.854751">
        <ele>143</ele>
        <time>2019-08-19T02:56:51Z</time>
      </trkpt>
      <trkpt lat="42.226064" lon="2.854678">
        <ele>143</ele>
        <time>2019-08-19T02:56:52Z</time>
      </trkpt>
      <trkpt lat="42.226031" lon="2.854605">
        <ele>143</ele>
        <time>2019-08-19T02:56:53Z</time>
      </trkpt>
      <trkpt lat="42.225998" lon="2.854533">
        <ele>143</ele>
        <time>2019-08-19T02:56:55Z</time>
      </trkpt>
      <trkpt lat="42.225965" lon="2.85446">
        <ele>143</ele>
        <time>2019-08-19T02:56:56Z</time>
      </trkpt>
      <trkpt lat="42.225932" lon="2.854387">
        <ele>144</ele>
        <time>2019-08-19T02:56:57Z</time>
      </trkpt>
      <trkpt lat="42.22587" lon="2.854257">
        <ele>144</ele>
        <time>2019-08-19T02:56:58Z</time>
      </trkpt>
      <trkpt lat="42.22584" lon="2.854196">
        <ele>144</ele>
        <time>2019-08-19T02:56:59Z</time>
      </trkpt>
      <trkpt lat="42.225811" lon="2.854136">
        <ele>144</ele>
        <time>2019-08-19T02:57:00Z</time>
      </trkpt>
      <trkpt lat="42.225781" lon="2.854075">
        <ele>144</ele>
        <time>2019-08-19T02:57:01Z</time>
      </trkpt>
      <trkpt lat="42.225752" lon="2.854014">
        <ele>144</ele>
        <time>2019-08-19T02:57:02Z</time>
      </trkpt>
      <trkpt lat="42.225722" lon="2.853953">
        <ele>144</ele>
        <time>2019-08-19T02:57:03Z</time>
      </trkpt>
      <trkpt lat="42.225693" lon="2.853892">
        <ele>144</ele>
        <time>2019-08-19T02:57:04Z</time>
      </trkpt>
      <trkpt lat="42.225663" lon="2.853832">
        <ele>144</ele>
        <time>2019-08-19T02:57:05Z</time>
      </trkpt>
      <trkpt lat="42.225634" lon="2.853771">
        <ele>144</ele>
        <time>2019-08-19T02:57:06Z</time>
      </trkpt>
      <trkpt lat="42.225604" lon="2.85371">
        <ele>145</ele>
        <time>2019-08-19T02:57:07Z</time>
      </trkpt>
      <trkpt lat="42.225543" lon="2.853577">
        <ele>145</ele>
        <time>2019-08-19T02:57:08Z</time>
      </trkpt>
      <trkpt lat="42.225515" lon="2.853509">
        <ele>145</ele>
        <time>2019-08-19T02:57:10Z</time>
      </trkpt>
      <trkpt lat="42.225486" lon="2.853442">
        <ele>145</ele>
        <time>2019-08-19T02:57:11Z</time>
      </trkpt>
      <trkpt lat="42.225457" lon="2.853374">
        <ele>145</ele>
        <time>2019-08-19T02:57:12Z</time>
      </trkpt>
      <trkpt lat="42.225429" lon="2.853306">
        <ele>145</ele>
        <time>2019-08-19T02:57:13Z</time>
      </trkpt>
      <trkpt lat="42.2254" lon="2.853238">
        <ele>145</ele>
        <time>2019-08-19T02:57:14Z</time>
      </trkpt>
      <trkpt lat="42.225371" lon="2.853171">
        <ele>145</ele>
        <time>2019-08-19T02:57:15Z</time>
      </trkpt>
      <trkpt lat="42.225343" lon="2.853103">
        <ele>145</ele>
        <time>2019-08-19T02:57:16Z</time>
      </trkpt>
      <trkpt lat="42.225314" lon="2.853035">
        <ele>146</ele>
        <time>2019-08-19T02:57:17Z</time>
      </trkpt>
      <trkpt lat="42.22526" lon="2.852911">
        <ele>146</ele>
        <time>2019-08-19T02:57:18Z</time>
      </trkpt>
      <trkpt lat="42.225234" lon="2.852854">
        <ele>146</ele>
        <time>2019-08-19T02:57:19Z</time>
      </trkpt>
      <trkpt lat="42.225209" lon="2.852796">
        <ele>146</ele>
        <time>2019-08-19T02:57:20Z</time>
      </trkpt>
      <trkpt lat="42.225183" lon="2.852739">
        <ele>146</ele>
        <time>2019-08-19T02:57:21Z</time>
      </trkpt>
      <trkpt lat="42.225157" lon="2.852681">
        <ele>146</ele>
        <time>2019-08-19T02:57:22Z</time>
      </trkpt>
      <trkpt lat="42.225131" lon="2.852623">
        <ele>146</ele>
        <time>2019-08-19T02:57:23Z</time>
      </trkpt>
      <trkpt lat="42.225105" lon="2.852566">
        <ele>146</ele>
        <time>2019-08-19T02:57:24Z</time>
      </trkpt>
      <trkpt lat="42.22508" lon="2.852508">
        <ele>146</ele>
        <time>2019-08-19T02:57:25Z</time>
      </trkpt>
      <trkpt lat="42.225054" lon="2.852451">
        <ele>146</ele>
        <time>2019-08-19T02:57:26Z</time>
      </trkpt>
      <trkpt lat="42.225028" lon="2.852393">
        <ele>147</ele>
        <time>2019-08-19T02:57:27Z</time>
      </trkpt>
      <trkpt lat="42.224951" lon="2.852204">
        <ele>147</ele>
        <time>2019-08-19T02:57:29Z</time>
      </trkpt>
      <trkpt lat="42.22493" lon="2.852145">
        <ele>147</ele>
        <time>2019-08-19T02:57:30Z</time>
      </trkpt>
      <trkpt lat="42.224909" lon="2.852086">
        <ele>147</ele>
        <time>2019-08-19T02:57:31Z</time>
      </trkpt>
      <trkpt lat="42.224888" lon="2.852027">
        <ele>147</ele>
        <time>2019-08-19T02:57:32Z</time>
      </trkpt>
      <trkpt lat="42.224868" lon="2.851968">
        <ele>147</ele>
        <time>2019-08-19T02:57:33Z</time>
      </trkpt>
      <trkpt lat="42.224847" lon="2.851909">
        <ele>147</ele>
        <time>2019-08-19T02:57:34Z</time>
      </trkpt>
      <trkpt lat="42.224826" lon="2.85185">
        <ele>147</ele>
        <time>2019-08-19T02:57:35Z</time>
      </trkpt>
      <trkpt lat="42.224805" lon="2.851791">
        <ele>147</ele>
        <time>2019-08-19T02:57:36Z</time>
      </trkpt>
      <trkpt lat="42.224784" lon="2.851732">
        <ele>148</ele>
        <time>2019-08-19T02:57:37Z</time>
      </trkpt>
      <trkpt lat="42.22475" lon="2.851595">
        <ele>148</ele>
        <time>2019-08-19T02:57:38Z</time>
      </trkpt>
      <trkpt lat="42.224735" lon="2.851528">
        <ele>148</ele>
        <time>2019-08-19T02:57:39Z</time>
      </trkpt>
      <trkpt lat="42.22472" lon="2.85146">
        <ele>148</ele>
        <time>2019-08-19T02:57:40Z</time>
      </trkpt>
      <trkpt lat="42.224705" lon="2.851392">
        <ele>148</ele>
        <time>2019-08-19T02:57:41Z</time>
      </trkpt>
      <trkpt lat="42.22469" lon="2.851324">
        <ele>148</ele>
        <time>2019-08-19T02:57:42Z</time>
      </trkpt>
      <trkpt lat="42.224674" lon="2.851257">
        <ele>148</ele>
        <time>2019-08-19T02:57:43Z</time>
      </trkpt>
      <trkpt lat="42.224659" lon="2.851189">
        <ele>148</ele>
        <time>2019-08-19T02:57:44Z</time>
      </trkpt>
      <trkpt lat="42.224644" lon="2.851121">
        <ele>148</ele>
        <time>2019-08-19T02:57:45Z</time>
      </trkpt>
      <trkpt lat="42.224629" lon="2.851054">
        <ele>148</ele>
        <time>2019-08-19T02:57:46Z</time>
      </trkpt>
      <trkpt lat="42.224614" lon="2.850986">
        <ele>150</ele>
        <time>2019-08-19T02:57:47Z</time>
      </trkpt>
      <trkpt lat="42.224591" lon="2.850823">
        <ele>150</ele>
        <time>2019-08-19T02:57:48Z</time>
      </trkpt>
      <trkpt lat="42.224581" lon="2.850742">
        <ele>150</ele>
        <time>2019-08-19T02:57:49Z</time>
      </trkpt>
      <trkpt lat="42.224572" lon="2.850662">
        <ele>150</ele>
        <time>2019-08-19T02:57:50Z</time>
      </trkpt>
      <trkpt lat="42.224563" lon="2.850581">
        <ele>150</ele>
        <time>2019-08-19T02:57:51Z</time>
      </trkpt>
      <trkpt lat="42.224554" lon="2.850501">
        <ele>150</ele>
        <time>2019-08-19T02:57:52Z</time>
      </trkpt>
      <trkpt lat="42.224544" lon="2.850421">
        <ele>150</ele>
        <time>2019-08-19T02:57:53Z</time>
      </trkpt>
      <trkpt lat="42.224535" lon="2.85034">
        <ele>150</ele>
        <time>2019-08-19T02:57:54Z</time>
      </trkpt>
      <trkpt lat="42.224526" lon="2.85026">
        <ele>150</ele>
        <time>2019-08-19T02:57:55Z</time>
      </trkpt>
      <trkpt lat="42.224516" lon="2.850179">
        <ele>150</ele>
        <time>2019-08-19T02:57:56Z</time>
      </trkpt>
      <trkpt lat="42.224507" lon="2.850099">
        <ele>150</ele>
        <time>2019-08-19T02:57:57Z</time>
      </trkpt>
      <trkpt lat="42.224492" lon="2.849911">
        <ele>150</ele>
        <time>2019-08-19T02:57:58Z</time>
      </trkpt>
      <trkpt lat="42.224485" lon="2.849815">
        <ele>150</ele>
        <time>2019-08-19T02:57:59Z</time>
      </trkpt>
      <trkpt lat="42.224479" lon="2.849719">
        <ele>150</ele>
        <time>2019-08-19T02:58:00Z</time>
      </trkpt>
      <trkpt lat="42.224473" lon="2.849623">
        <ele>150</ele>
        <time>2019-08-19T02:58:02Z</time>
      </trkpt>
      <trkpt lat="42.224466" lon="2.849527">
        <ele>150</ele>
        <time>2019-08-19T02:58:03Z</time>
      </trkpt>
      <trkpt lat="42.22446" lon="2.849431">
        <ele>150</ele>
        <time>2019-08-19T02:58:04Z</time>
      </trkpt>
      <trkpt lat="42.224454" lon="2.849335">
        <ele>150</ele>
        <time>2019-08-19T02:58:05Z</time>
      </trkpt>
      <trkpt lat="42.224447" lon="2.849239">
        <ele>150</ele>
        <time>2019-08-19T02:58:06Z</time>
      </trkpt>
      <trkpt lat="42.224441" lon="2.849143">
        <ele>150</ele>
        <time>2019-08-19T02:58:07Z</time>
      </trkpt>
      <trkpt lat="42.224422" lon="2.848869">
        <ele>150</ele>
        <time>2019-08-19T02:58:09Z</time>
      </trkpt>
      <trkpt lat="42.224417" lon="2.848789">
        <ele>150</ele>
        <time>2019-08-19T02:58:10Z</time>
      </trkpt>
      <trkpt lat="42.224411" lon="2.848708">
        <ele>150</ele>
        <time>2019-08-19T02:58:11Z</time>
      </trkpt>
      <trkpt lat="42.224406" lon="2.848627">
        <ele>150</ele>
        <time>2019-08-19T02:58:12Z</time>
      </trkpt>
      <trkpt lat="42.2244" lon="2.848547">
        <ele>150</ele>
        <time>2019-08-19T02:58:13Z</time>
      </trkpt>
      <trkpt lat="42.224395" lon="2.848466">
        <ele>150</ele>
        <time>2019-08-19T02:58:14Z</time>
      </trkpt>
      <trkpt lat="42.224389" lon="2.848385">
        <ele>150</ele>
        <time>2019-08-19T02:58:15Z</time>
      </trkpt>
      <trkpt lat="42.224384" lon="2.848305">
        <ele>150</ele>
        <time>2019-08-19T02:58:16Z</time>
      </trkpt>
      <trkpt lat="42.224378" lon="2.848224">
        <ele>150</ele>
        <time>2019-08-19T02:58:17Z</time>
      </trkpt>
      <trkpt lat="42.224367" lon="2.848054">
        <ele>150</ele>
        <time>2019-08-19T02:58:18Z</time>
      </trkpt>
      <trkpt lat="42.224361" lon="2.847969">
        <ele>150</ele>
        <time>2019-08-19T02:58:19Z</time>
      </trkpt>
      <trkpt lat="42.224355" lon="2.847884">
        <ele>150</ele>
        <time>2019-08-19T02:58:20Z</time>
      </trkpt>
      <trkpt lat="42.224349" lon="2.847799">
        <ele>150</ele>
        <time>2019-08-19T02:58:21Z</time>
      </trkpt>
      <trkpt lat="42.224342" lon="2.847714">
        <ele>150</ele>
        <time>2019-08-19T02:58:22Z</time>
      </trkpt>
      <trkpt lat="42.224336" lon="2.847629">
        <ele>150</ele>
        <time>2019-08-19T02:58:24Z</time>
      </trkpt>
      <trkpt lat="42.22433" lon="2.847544">
        <ele>150</ele>
        <time>2019-08-19T02:58:25Z</time>
      </trkpt>
      <trkpt lat="42.224324" lon="2.847459">
        <ele>150</ele>
        <time>2019-08-19T02:58:26Z</time>
      </trkpt>
      <trkpt lat="42.224318" lon="2.847374">
        <ele>150</ele>
        <time>2019-08-19T02:58:27Z</time>
      </trkpt>
      <trkpt lat="42.224307" lon="2.847217">
        <ele>150</ele>
        <time>2019-08-19T02:58:28Z</time>
      </trkpt>
      <trkpt lat="42.224302" lon="2.847143">
        <ele>150</ele>
        <time>2019-08-19T02:58:29Z</time>
      </trkpt>
      <trkpt lat="42.224297" lon="2.847069">
        <ele>150</ele>
        <time>2019-08-19T02:58:30Z</time>
      </trkpt>
      <trkpt lat="42.224292" lon="2.846995">
        <ele>150</ele>
        <time>2019-08-19T02:58:32Z</time>
      </trkpt>
      <trkpt lat="42.224287" lon="2.84692">
        <ele>150</ele>
        <time>2019-08-19T02:58:33Z</time>
      </trkpt>
      <trkpt lat="42.224282" lon="2.846846">
        <ele>150</ele>
        <time>2019-08-19T02:58:34Z</time>
      </trkpt>
      <trkpt lat="42.224277" lon="2.846772">
        <ele>150</ele>
        <time>2019-08-19T02:58:35Z</time>
      </trkpt>
      <trkpt lat="42.224272" lon="2.846698">
        <ele>150</ele>
        <time>2019-08-19T02:58:36Z</time>
      </trkpt>
      <trkpt lat="42.224267" lon="2.846624">
        <ele>151</ele>
        <time>2019-08-19T02:58:37Z</time>
      </trkpt>
      <trkpt lat="42.224258" lon="2.846489">
        <ele>151</ele>
        <time>2019-08-19T02:58:38Z</time>
      </trkpt>
      <trkpt lat="42.224253" lon="2.846425">
        <ele>151</ele>
        <time>2019-08-19T02:58:39Z</time>
      </trkpt>
      <trkpt lat="42.224249" lon="2.846361">
        <ele>151</ele>
        <time>2019-08-19T02:58:40Z</time>
      </trkpt>
      <trkpt lat="42.224244" lon="2.846297">
        <ele>151</ele>
        <time>2019-08-19T02:58:41Z</time>
      </trkpt>
      <trkpt lat="42.22424" lon="2.846232">
        <ele>151</ele>
        <time>2019-08-19T02:58:42Z</time>
      </trkpt>
      <trkpt lat="42.224235" lon="2.846168">
        <ele>151</ele>
        <time>2019-08-19T02:58:43Z</time>
      </trkpt>
      <trkpt lat="42.224231" lon="2.846104">
        <ele>151</ele>
        <time>2019-08-19T02:58:44Z</time>
      </trkpt>
      <trkpt lat="42.224226" lon="2.84604">
        <ele>151</ele>
        <time>2019-08-19T02:58:45Z</time>
      </trkpt>
      <trkpt lat="42.224222" lon="2.845976">
        <ele>151</ele>
        <time>2019-08-19T02:58:46Z</time>
      </trkpt>
      <trkpt lat="42.224217" lon="2.845912">
        <ele>152</ele>
        <time>2019-08-19T02:58:47Z</time>
      </trkpt>
      <trkpt lat="42.224205" lon="2.845737">
        <ele>152</ele>
        <time>2019-08-19T02:58:48Z</time>
      </trkpt>
      <trkpt lat="42.224198" lon="2.845637">
        <ele>152</ele>
        <time>2019-08-19T02:58:50Z</time>
      </trkpt>
      <trkpt lat="42.224192" lon="2.845538">
        <ele>152</ele>
        <time>2019-08-19T02:58:51Z</time>
      </trkpt>
      <trkpt lat="42.224185" lon="2.845438">
        <ele>152</ele>
        <time>2019-08-19T02:58:52Z</time>
      </trkpt>
      <trkpt lat="42.224179" lon="2.845338">
        <ele>152</ele>
        <time>2019-08-19T02:58:53Z</time>
      </trkpt>
      <trkpt lat="42.224172" lon="2.845238">
        <ele>152</ele>
        <time>2019-08-19T02:58:54Z</time>
      </trkpt>
      <trkpt lat="42.224166" lon="2.845139">
        <ele>152</ele>
        <time>2019-08-19T02:58:55Z</time>
      </trkpt>
      <trkpt lat="42.224159" lon="2.845039">
        <ele>152</ele>
        <time>2019-08-19T02:58:56Z</time>
      </trkpt>
      <trkpt lat="42.224153" lon="2.844939">
        <ele>153</ele>
        <time>2019-08-19T02:58:58Z</time>
      </trkpt>
      <trkpt lat="42.22414" lon="2.84475">
        <ele>153</ele>
        <time>2019-08-19T02:58:59Z</time>
      </trkpt>
      <trkpt lat="42.224134" lon="2.844658">
        <ele>153</ele>
        <time>2019-08-19T02:59:00Z</time>
      </trkpt>
      <trkpt lat="42.224128" lon="2.844567">
        <ele>153</ele>
        <time>2019-08-19T02:59:01Z</time>
      </trkpt>
      <trkpt lat="42.224122" lon="2.844475">
        <ele>153</ele>
        <time>2019-08-19T02:59:02Z</time>
      </trkpt>
      <trkpt lat="42.224115" lon="2.844384">
        <ele>153</ele>
        <time>2019-08-19T02:59:03Z</time>
      </trkpt>
      <trkpt lat="42.224109" lon="2.844292">
        <ele>153</ele>
        <time>2019-08-19T02:59:04Z</time>
      </trkpt>
      <trkpt lat="42.224103" lon="2.844201">
        <ele>153</ele>
        <time>2019-08-19T02:59:05Z</time>
      </trkpt>
      <trkpt lat="42.224097" lon="2.844109">
        <ele>153</ele>
        <time>2019-08-19T02:59:06Z</time>
      </trkpt>
      <trkpt lat="42.224091" lon="2.844018">
        <ele>151</ele>
        <time>2019-08-19T02:59:07Z</time>
      </trkpt>
      <trkpt lat="42.224076" lon="2.843809">
        <ele>151</ele>
        <time>2019-08-19T02:59:08Z</time>
      </trkpt>
      <trkpt lat="42.224069" lon="2.843707">
        <ele>151</ele>
        <time>2019-08-19T02:59:09Z</time>
      </trkpt>
      <trkpt lat="42.224062" lon="2.843605">
        <ele>151</ele>
        <time>2019-08-19T02:59:10Z</time>
      </trkpt>
      <trkpt lat="42.224055" lon="2.843503">
        <ele>151</ele>
        <time>2019-08-19T02:59:11Z</time>
      </trkpt>
      <trkpt lat="42.224049" lon="2.8434">
        <ele>151</ele>
        <time>2019-08-19T02:59:12Z</time>
      </trkpt>
      <trkpt lat="42.224042" lon="2.843298">
        <ele>151</ele>
        <time>2019-08-19T02:59:13Z</time>
      </trkpt>
      <trkpt lat="42.224035" lon="2.843196">
        <ele>151</ele>
        <time>2019-08-19T02:59:14Z</time>
      </trkpt>
      <trkpt lat="42.224028" lon="2.843094">
        <ele>151</ele>
        <time>2019-08-19T02:59:15Z</time>
      </trkpt>
      <trkpt lat="42.224021" lon="2.842992">
        <ele>151</ele>
        <time>2019-08-19T02:59:16Z</time>
      </trkpt>
      <trkpt lat="42.224014" lon="2.84289">
        <ele>149</ele>
        <time>2019-08-19T02:59:17Z</time>
      </trkpt>
      <trkpt lat="42.223998" lon="2.842657">
        <ele>149</ele>
        <time>2019-08-19T02:59:18Z</time>
      </trkpt>
      <trkpt lat="42.223989" lon="2.842539">
        <ele>149</ele>
        <time>2019-08-19T02:59:19Z</time>
      </trkpt>
      <trkpt lat="42.223981" lon="2.842422">
        <ele>149</ele>
        <time>2019-08-19T02:59:20Z</time>
      </trkpt>
      <trkpt lat="42.223972" lon="2.842304">
        <ele>149</ele>
        <time>2019-08-19T02:59:21Z</time>
      </trkpt>
      <trkpt lat="42.223964" lon="2.842187">
        <ele>149</ele>
        <time>2019-08-19T02:59:23Z</time>
      </trkpt>
      <trkpt lat="42.223955" lon="2.842069">
        <ele>149</ele>
        <time>2019-08-19T02:59:24Z</time>
      </trkpt>
      <trkpt lat="42.223947" lon="2.841952">
        <ele>149</ele>
        <time>2019-08-19T02:59:25Z</time>
      </trkpt>
      <trkpt lat="42.223938" lon="2.841834">
        <ele>149</ele>
        <time>2019-08-19T02:59:26Z</time>
      </trkpt>
      <trkpt lat="42.22393" lon="2.841717">
        <ele>146</ele>
        <time>2019-08-19T02:59:27Z</time>
      </trkpt>
      <trkpt lat="42.223904" lon="2.841383">
        <ele>146</ele>
        <time>2019-08-19T02:59:29Z</time>
      </trkpt>
      <trkpt lat="42.223897" lon="2.841277">
        <ele>146</ele>
        <time>2019-08-19T02:59:30Z</time>
      </trkpt>
      <trkpt lat="42.223889" lon="2.84117">
        <ele>146</ele>
        <time>2019-08-19T02:59:31Z</time>
      </trkpt>
      <trkpt lat="42.223882" lon="2.841063">
        <ele>146</ele>
        <time>2019-08-19T02:59:32Z</time>
      </trkpt>
      <trkpt lat="42.223874" lon="2.840957">
        <ele>146</ele>
        <time>2019-08-19T02:59:33Z</time>
      </trkpt>
      <trkpt lat="42.223866" lon="2.84085">
        <ele>146</ele>
        <time>2019-08-19T02:59:35Z</time>
      </trkpt>
      <trkpt lat="42.223859" lon="2.840744">
        <ele>146</ele>
        <time>2019-08-19T02:59:36Z</time>
      </trkpt>
      <trkpt lat="42.223851" lon="2.840637">
        <ele>145</ele>
        <time>2019-08-19T02:59:37Z</time>
      </trkpt>
      <trkpt lat="42.223835" lon="2.840431">
        <ele>145</ele>
        <time>2019-08-19T02:59:38Z</time>
      </trkpt>
      <trkpt lat="42.223828" lon="2.840331">
        <ele>145</ele>
        <time>2019-08-19T02:59:39Z</time>
      </trkpt>
      <trkpt lat="42.22382" lon="2.84023">
        <ele>145</ele>
        <time>2019-08-19T02:59:40Z</time>
      </trkpt>
      <trkpt lat="42.223813" lon="2.840129">
        <ele>145</ele>
        <time>2019-08-19T02:59:41Z</time>
      </trkpt>
      <trkpt lat="42.223806" lon="2.840028">
        <ele>145</ele>
        <time>2019-08-19T02:59:42Z</time>
      </trkpt>
      <trkpt lat="42.223799" lon="2.839928">
        <ele>145</ele>
        <time>2019-08-19T02:59:43Z</time>
      </trkpt>
      <trkpt lat="42.223792" lon="2.839827">
        <ele>145</ele>
        <time>2019-08-19T02:59:44Z</time>
      </trkpt>
      <trkpt lat="42.223784" lon="2.839726">
        <ele>145</ele>
        <time>2019-08-19T02:59:45Z</time>
      </trkpt>
      <trkpt lat="42.223777" lon="2.839626">
        <ele>145</ele>
        <time>2019-08-19T02:59:46Z</time>
      </trkpt>
      <trkpt lat="42.22377" lon="2.839525">
        <ele>145</ele>
        <time>2019-08-19T02:59:47Z</time>
      </trkpt>
      <trkpt lat="42.223753" lon="2.839293">
        <ele>145</ele>
        <time>2019-08-19T02:59:48Z</time>
      </trkpt>
      <trkpt lat="42.223744" lon="2.839174">
        <ele>145</ele>
        <time>2019-08-19T02:59:49Z</time>
      </trkpt>
      <trkpt lat="42.223736" lon="2.839055">
        <ele>145</ele>
        <time>2019-08-19T02:59:50Z</time>
      </trkpt>
      <trkpt lat="42.223727" lon="2.838936">
        <ele>145</ele>
        <time>2019-08-19T02:59:51Z</time>
      </trkpt>
      <trkpt lat="42.223718" lon="2.838817">
        <ele>145</ele>
        <time>2019-08-19T02:59:52Z</time>
      </trkpt>
      <trkpt lat="42.223709" lon="2.838698">
        <ele>145</ele>
        <time>2019-08-19T02:59:53Z</time>
      </trkpt>
      <trkpt lat="42.2237" lon="2.838579">
        <ele>145</ele>
        <time>2019-08-19T02:59:54Z</time>
      </trkpt>
      <trkpt lat="42.223692" lon="2.83846">
        <ele>145</ele>
        <time>2019-08-19T02:59:55Z</time>
      </trkpt>
      <trkpt lat="42.223683" lon="2.838341">
        <ele>145</ele>
        <time>2019-08-19T02:59:56Z</time>
      </trkpt>
      <trkpt lat="42.223674" lon="2.838222">
        <ele>143</ele>
        <time>2019-08-19T02:59:58Z</time>
      </trkpt>
      <trkpt lat="42.223657" lon="2.837977">
        <ele>143</ele>
        <time>2019-08-19T02:59:59Z</time>
      </trkpt>
      <trkpt lat="42.223649" lon="2.837853">
        <ele>143</ele>
        <time>2019-08-19T03:00:01Z</time>
      </trkpt>
      <trkpt lat="42.22364" lon="2.83773">
        <ele>143</ele>
        <time>2019-08-19T03:00:02Z</time>
      </trkpt>
      <trkpt lat="42.223631" lon="2.837606">
        <ele>143</ele>
        <time>2019-08-19T03:00:03Z</time>
      </trkpt>
      <trkpt lat="42.223622" lon="2.837483">
        <ele>143</ele>
        <time>2019-08-19T03:00:04Z</time>
      </trkpt>
      <trkpt lat="42.223614" lon="2.83736">
        <ele>143</ele>
        <time>2019-08-19T03:00:05Z</time>
      </trkpt>
      <trkpt lat="42.223605" lon="2.837236">
        <ele>143</ele>
        <time>2019-08-19T03:00:06Z</time>
      </trkpt>
      <trkpt lat="42.223596" lon="2.837113">
        <ele>142</ele>
        <time>2019-08-19T03:00:07Z</time>
      </trkpt>
      <trkpt lat="42.223571" lon="2.83676">
        <ele>142</ele>
        <time>2019-08-19T03:00:09Z</time>
      </trkpt>
      <trkpt lat="42.223563" lon="2.836648">
        <ele>142</ele>
        <time>2019-08-19T03:00:10Z</time>
      </trkpt>
      <trkpt lat="42.223554" lon="2.836536">
        <ele>142</ele>
        <time>2019-08-19T03:00:11Z</time>
      </trkpt>
      <trkpt lat="42.223546" lon="2.836423">
        <ele>142</ele>
        <time>2019-08-19T03:00:12Z</time>
      </trkpt>
      <trkpt lat="42.223537" lon="2.836311">
        <ele>142</ele>
        <time>2019-08-19T03:00:13Z</time>
      </trkpt>
      <trkpt lat="42.223528" lon="2.836199">
        <ele>142</ele>
        <time>2019-08-19T03:00:15Z</time>
      </trkpt>
      <trkpt lat="42.22352" lon="2.836087">
        <ele>142</ele>
        <time>2019-08-19T03:00:16Z</time>
      </trkpt>
      <trkpt lat="42.223511" lon="2.835975">
        <ele>143</ele>
        <time>2019-08-19T03:00:17Z</time>
      </trkpt>
      <trkpt lat="42.223495" lon="2.83576">
        <ele>143</ele>
        <time>2019-08-19T03:00:18Z</time>
      </trkpt>
      <trkpt lat="42.223486" lon="2.835649">
        <ele>143</ele>
        <time>2019-08-19T03:00:19Z</time>
      </trkpt>
      <trkpt lat="42.223478" lon="2.835539">
        <ele>143</ele>
        <time>2019-08-19T03:00:21Z</time>
      </trkpt>
      <trkpt lat="42.22347" lon="2.835429">
        <ele>143</ele>
        <time>2019-08-19T03:00:22Z</time>
      </trkpt>
      <trkpt lat="42.223461" lon="2.835318">
        <ele>143</ele>
        <time>2019-08-19T03:00:23Z</time>
      </trkpt>
      <trkpt lat="42.223453" lon="2.835208">
        <ele>143</ele>
        <time>2019-08-19T03:00:24Z</time>
      </trkpt>
      <trkpt lat="42.223445" lon="2.835098">
        <ele>143</ele>
        <time>2019-08-19T03:00:25Z</time>
      </trkpt>
      <trkpt lat="42.223436" lon="2.834987">
        <ele>143</ele>
        <time>2019-08-19T03:00:26Z</time>
      </trkpt>
      <trkpt lat="42.223428" lon="2.834877">
        <ele>144</ele>
        <time>2019-08-19T03:00:28Z</time>
      </trkpt>
      <trkpt lat="42.223416" lon="2.834725">
        <ele>144</ele>
        <time>2019-08-19T03:00:29Z</time>
      </trkpt>
      <trkpt lat="42.223411" lon="2.834662">
        <ele>144</ele>
        <time>2019-08-19T03:00:30Z</time>
      </trkpt>
      <trkpt lat="42.223405" lon="2.8346">
        <ele>144</ele>
        <time>2019-08-19T03:00:31Z</time>
      </trkpt>
      <trkpt lat="42.2234" lon="2.834537">
        <ele>144</ele>
        <time>2019-08-19T03:00:32Z</time>
      </trkpt>
      <trkpt lat="42.223395" lon="2.834475">
        <ele>144</ele>
        <time>2019-08-19T03:00:33Z</time>
      </trkpt>
      <trkpt lat="42.22339" lon="2.834412">
        <ele>144</ele>
        <time>2019-08-19T03:00:34Z</time>
      </trkpt>
      <trkpt lat="42.223384" lon="2.83435">
        <ele>144</ele>
        <time>2019-08-19T03:00:35Z</time>
      </trkpt>
      <trkpt lat="42.223379" lon="2.834287">
        <ele>144</ele>
        <time>2019-08-19T03:00:36Z</time>
      </trkpt>
      <trkpt lat="42.223374" lon="2.834225">
        <ele>146</ele>
        <time>2019-08-19T03:00:37Z</time>
      </trkpt>
      <trkpt lat="42.223356" lon="2.83405">
        <ele>146</ele>
        <time>2019-08-19T03:00:39Z</time>
      </trkpt>
      <trkpt lat="42.223353" lon="2.833995">
        <ele>146</ele>
        <time>2019-08-19T03:00:40Z</time>
      </trkpt>
      <trkpt lat="42.223349" lon="2.833941">
        <ele>146</ele>
        <time>2019-08-19T03:00:41Z</time>
      </trkpt>
      <trkpt lat="42.223346" lon="2.833887">
        <ele>146</ele>
        <time>2019-08-19T03:00:42Z</time>
      </trkpt>
      <trkpt lat="42.223342" lon="2.833832">
        <ele>146</ele>
        <time>2019-08-19T03:00:43Z</time>
      </trkpt>
      <trkpt lat="42.223339" lon="2.833778">
        <ele>146</ele>
        <time>2019-08-19T03:00:44Z</time>
      </trkpt>
      <trkpt lat="42.223335" lon="2.833724">
        <ele>146</ele>
        <time>2019-08-19T03:00:45Z</time>
      </trkpt>
      <trkpt lat="42.223332" lon="2.833669">
        <ele>146</ele>
        <time>2019-08-19T03:00:46Z</time>
      </trkpt>
      <trkpt lat="42.223328" lon="2.833615">
        <ele>151</ele>
        <time>2019-08-19T03:00:48Z</time>
      </trkpt>
      <trkpt lat="42.22332" lon="2.833505">
        <ele>151</ele>
        <time>2019-08-19T03:00:49Z</time>
      </trkpt>
      <trkpt lat="42.223317" lon="2.833449">
        <ele>151</ele>
        <time>2019-08-19T03:00:50Z</time>
      </trkpt>
      <trkpt lat="42.223314" lon="2.833394">
        <ele>151</ele>
        <time>2019-08-19T03:00:51Z</time>
      </trkpt>
      <trkpt lat="42.223311" lon="2.833339">
        <ele>151</ele>
        <time>2019-08-19T03:00:52Z</time>
      </trkpt>
      <trkpt lat="42.223307" lon="2.833283">
        <ele>151</ele>
        <time>2019-08-19T03:00:53Z</time>
      </trkpt>
      <trkpt lat="42.223304" lon="2.833228">
        <ele>151</ele>
        <time>2019-08-19T03:00:54Z</time>
      </trkpt>
      <trkpt lat="42.223301" lon="2.833173">
        <ele>151</ele>
        <time>2019-08-19T03:00:55Z</time>
      </trkpt>
      <trkpt lat="42.223298" lon="2.833117">
        <ele>151</ele>
        <time>2019-08-19T03:00:56Z</time>
      </trkpt>
      <trkpt lat="42.223295" lon="2.833062">
        <ele>153</ele>
        <time>2019-08-19T03:00:58Z</time>
      </trkpt>
      <trkpt lat="42.223286" lon="2.832963">
        <ele>153</ele>
        <time>2019-08-19T03:00:59Z</time>
      </trkpt>
      <trkpt lat="42.223281" lon="2.832917">
        <ele>153</ele>
        <time>2019-08-19T03:01:00Z</time>
      </trkpt>
      <trkpt lat="42.223276" lon="2.83287">
        <ele>153</ele>
        <time>2019-08-19T03:01:01Z</time>
      </trkpt>
      <trkpt lat="42.223271" lon="2.832824">
        <ele>153</ele>
        <time>2019-08-19T03:01:02Z</time>
      </trkpt>
      <trkpt lat="42.223266" lon="2.832778">
        <ele>153</ele>
        <time>2019-08-19T03:01:03Z</time>
      </trkpt>
      <trkpt lat="42.223261" lon="2.832732">
        <ele>153</ele>
        <time>2019-08-19T03:01:04Z</time>
      </trkpt>
      <trkpt lat="42.223256" lon="2.832685">
        <ele>153</ele>
        <time>2019-08-19T03:01:05Z</time>
      </trkpt>
      <trkpt lat="42.223251" lon="2.832639">
        <ele>153</ele>
        <time>2019-08-19T03:01:06Z</time>
      </trkpt>
      <trkpt lat="42.223246" lon="2.832593">
        <ele>155</ele>
        <time>2019-08-19T03:01:07Z</time>
      </trkpt>
      <trkpt lat="42.223233" lon="2.832498">
        <ele>155</ele>
        <time>2019-08-19T03:01:08Z</time>
      </trkpt>
      <trkpt lat="42.223226" lon="2.832454">
        <ele>155</ele>
        <time>2019-08-19T03:01:09Z</time>
      </trkpt>
      <trkpt lat="42.22322" lon="2.83241">
        <ele>155</ele>
        <time>2019-08-19T03:01:10Z</time>
      </trkpt>
      <trkpt lat="42.223213" lon="2.832366">
        <ele>155</ele>
        <time>2019-08-19T03:01:11Z</time>
      </trkpt>
      <trkpt lat="42.223207" lon="2.832321">
        <ele>155</ele>
        <time>2019-08-19T03:01:12Z</time>
      </trkpt>
      <trkpt lat="42.2232" lon="2.832277">
        <ele>155</ele>
        <time>2019-08-19T03:01:13Z</time>
      </trkpt>
      <trkpt lat="42.223194" lon="2.832233">
        <ele>155</ele>
        <time>2019-08-19T03:01:14Z</time>
      </trkpt>
      <trkpt lat="42.223187" lon="2.832189">
        <ele>155</ele>
        <time>2019-08-19T03:01:15Z</time>
      </trkpt>
      <trkpt lat="42.223181" lon="2.832145">
        <ele>155</ele>
        <time>2019-08-19T03:01:16Z</time>
      </trkpt>
      <trkpt lat="42.223174" lon="2.832101">
        <ele>156</ele>
        <time>2019-08-19T03:01:17Z</time>
      </trkpt>
      <trkpt lat="42.223158" lon="2.832011">
        <ele>156</ele>
        <time>2019-08-19T03:01:18Z</time>
      </trkpt>
      <trkpt lat="42.223149" lon="2.831968">
        <ele>156</ele>
        <time>2019-08-19T03:01:19Z</time>
      </trkpt>
      <trkpt lat="42.223141" lon="2.831925">
        <ele>156</ele>
        <time>2019-08-19T03:01:20Z</time>
      </trkpt>
      <trkpt lat="42.223132" lon="2.831882">
        <ele>156</ele>
        <time>2019-08-19T03:01:21Z</time>
      </trkpt>
      <trkpt lat="42.223124" lon="2.831838">
        <ele>156</ele>
        <time>2019-08-19T03:01:22Z</time>
      </trkpt>
      <trkpt lat="42.223116" lon="2.831795">
        <ele>156</ele>
        <time>2019-08-19T03:01:23Z</time>
      </trkpt>
      <trkpt lat="42.223107" lon="2.831752">
        <ele>156</ele>
        <time>2019-08-19T03:01:24Z</time>
      </trkpt>
      <trkpt lat="42.223099" lon="2.831709">
        <ele>156</ele>
        <time>2019-08-19T03:01:25Z</time>
      </trkpt>
      <trkpt lat="42.22309" lon="2.831666">
        <ele>156</ele>
        <time>2019-08-19T03:01:26Z</time>
      </trkpt>
      <trkpt lat="42.223082" lon="2.831623">
        <ele>157</ele>
        <time>2019-08-19T03:01:27Z</time>
      </trkpt>
      <trkpt lat="42.223063" lon="2.831529">
        <ele>157</ele>
        <time>2019-08-19T03:01:28Z</time>
      </trkpt>
      <trkpt lat="42.223054" lon="2.831484">
        <ele>157</ele>
        <time>2019-08-19T03:01:29Z</time>
      </trkpt>
      <trkpt lat="42.223044" lon="2.831438">
        <ele>157</ele>
        <time>2019-08-19T03:01:30Z</time>
      </trkpt>
      <trkpt lat="42.223035" lon="2.831392">
        <ele>157</ele>
        <time>2019-08-19T03:01:31Z</time>
      </trkpt>
      <trkpt lat="42.223025" lon="2.831346">
        <ele>157</ele>
        <time>2019-08-19T03:01:32Z</time>
      </trkpt>
      <trkpt lat="42.223015" lon="2.831301">
        <ele>157</ele>
        <time>2019-08-19T03:01:33Z</time>
      </trkpt>
      <trkpt lat="42.223006" lon="2.831255">
        <ele>157</ele>
        <time>2019-08-19T03:01:34Z</time>
      </trkpt>
      <trkpt lat="42.222996" lon="2.831209">
        <ele>157</ele>
        <time>2019-08-19T03:01:35Z</time>
      </trkpt>
      <trkpt lat="42.222987" lon="2.831164">
        <ele>157</ele>
        <time>2019-08-19T03:01:36Z</time>
      </trkpt>
      <trkpt lat="42.222977" lon="2.831118">
        <ele>159</ele>
        <time>2019-08-19T03:01:37Z</time>
      </trkpt>
      <trkpt lat="42.222954" lon="2.831024">
        <ele>159</ele>
        <time>2019-08-19T03:01:38Z</time>
      </trkpt>
      <trkpt lat="42.222944" lon="2.83098">
        <ele>159</ele>
        <time>2019-08-19T03:01:39Z</time>
      </trkpt>
      <trkpt lat="42.222933" lon="2.830936">
        <ele>159</ele>
        <time>2019-08-19T03:01:40Z</time>
      </trkpt>
      <trkpt lat="42.222922" lon="2.830892">
        <ele>159</ele>
        <time>2019-08-19T03:01:41Z</time>
      </trkpt>
      <trkpt lat="42.222912" lon="2.830848">
        <ele>159</ele>
        <time>2019-08-19T03:01:42Z</time>
      </trkpt>
      <trkpt lat="42.222901" lon="2.830805">
        <ele>159</ele>
        <time>2019-08-19T03:01:43Z</time>
      </trkpt>
      <trkpt lat="42.22289" lon="2.830761">
        <ele>159</ele>
        <time>2019-08-19T03:01:44Z</time>
      </trkpt>
      <trkpt lat="42.222879" lon="2.830717">
        <ele>159</ele>
        <time>2019-08-19T03:01:45Z</time>
      </trkpt>
      <trkpt lat="42.222869" lon="2.830673">
        <ele>159</ele>
        <time>2019-08-19T03:01:46Z</time>
      </trkpt>
      <trkpt lat="42.222858" lon="2.830629">
        <ele>160</ele>
        <time>2019-08-19T03:01:47Z</time>
      </trkpt>
      <trkpt lat="42.222838" lon="2.830541">
        <ele>160</ele>
        <time>2019-08-19T03:01:48Z</time>
      </trkpt>
      <trkpt lat="42.222828" lon="2.8305">
        <ele>160</ele>
        <time>2019-08-19T03:01:49Z</time>
      </trkpt>
      <trkpt lat="42.222819" lon="2.830458">
        <ele>160</ele>
        <time>2019-08-19T03:01:50Z</time>
      </trkpt>
      <trkpt lat="42.222809" lon="2.830417">
        <ele>160</ele>
        <time>2019-08-19T03:01:51Z</time>
      </trkpt>
      <trkpt lat="42.2228" lon="2.830375">
        <ele>160</ele>
        <time>2019-08-19T03:01:52Z</time>
      </trkpt>
      <trkpt lat="42.22279" lon="2.830333">
        <ele>160</ele>
        <time>2019-08-19T03:01:53Z</time>
      </trkpt>
      <trkpt lat="42.222781" lon="2.830292">
        <ele>160</ele>
        <time>2019-08-19T03:01:54Z</time>
      </trkpt>
      <trkpt lat="42.222771" lon="2.83025">
        <ele>160</ele>
        <time>2019-08-19T03:01:55Z</time>
      </trkpt>
      <trkpt lat="42.222762" lon="2.830209">
        <ele>160</ele>
        <time>2019-08-19T03:01:56Z</time>
      </trkpt>
      <trkpt lat="42.222752" lon="2.830167">
        <ele>161</ele>
        <time>2019-08-19T03:01:57Z</time>
      </trkpt>
      <trkpt lat="42.22273" lon="2.830073">
        <ele>161</ele>
        <time>2019-08-19T03:01:58Z</time>
      </trkpt>
      <trkpt lat="42.222718" lon="2.830024">
        <ele>161</ele>
        <time>2019-08-19T03:01:59Z</time>
      </trkpt>
      <trkpt lat="42.222707" lon="2.829975">
        <ele>161</ele>
        <time>2019-08-19T03:02:00Z</time>
      </trkpt>
      <trkpt lat="42.222696" lon="2.829926">
        <ele>161</ele>
        <time>2019-08-19T03:02:01Z</time>
      </trkpt>
      <trkpt lat="42.222684" lon="2.829878">
        <ele>161</ele>
        <time>2019-08-19T03:02:03Z</time>
      </trkpt>
      <trkpt lat="42.222673" lon="2.829829">
        <ele>161</ele>
        <time>2019-08-19T03:02:04Z</time>
      </trkpt>
      <trkpt lat="42.222661" lon="2.82978">
        <ele>161</ele>
        <time>2019-08-19T03:02:05Z</time>
      </trkpt>
      <trkpt lat="42.22265" lon="2.829731">
        <ele>163</ele>
        <time>2019-08-19T03:02:07Z</time>
      </trkpt>
      <trkpt lat="42.222628" lon="2.829646">
        <ele>163</ele>
        <time>2019-08-19T03:02:08Z</time>
      </trkpt>
      <trkpt lat="42.222618" lon="2.829604">
        <ele>163</ele>
        <time>2019-08-19T03:02:09Z</time>
      </trkpt>
      <trkpt lat="42.222608" lon="2.829561">
        <ele>163</ele>
        <time>2019-08-19T03:02:10Z</time>
      </trkpt>
      <trkpt lat="42.222598" lon="2.829519">
        <ele>163</ele>
        <time>2019-08-19T03:02:11Z</time>
      </trkpt>
      <trkpt lat="42.222587" lon="2.829477">
        <ele>163</ele>
        <time>2019-08-19T03:02:12Z</time>
      </trkpt>
      <trkpt lat="42.222577" lon="2.829435">
        <ele>163</ele>
        <time>2019-08-19T03:02:14Z</time>
      </trkpt>
      <trkpt lat="42.222567" lon="2.829392">
        <ele>163</ele>
        <time>2019-08-19T03:02:15Z</time>
      </trkpt>
      <trkpt lat="42.222557" lon="2.82935">
        <ele>163</ele>
        <time>2019-08-19T03:02:16Z</time>
      </trkpt>
      <trkpt lat="42.222547" lon="2.829308">
        <ele>165</ele>
        <time>2019-08-19T03:02:17Z</time>
      </trkpt>
      <trkpt lat="42.222529" lon="2.829225">
        <ele>165</ele>
        <time>2019-08-19T03:02:18Z</time>
      </trkpt>
      <trkpt lat="42.22252" lon="2.829186">
        <ele>165</ele>
        <time>2019-08-19T03:02:19Z</time>
      </trkpt>
      <trkpt lat="42.22251" lon="2.829147">
        <ele>165</ele>
        <time>2019-08-19T03:02:20Z</time>
      </trkpt>
      <trkpt lat="42.222501" lon="2.829108">
        <ele>165</ele>
        <time>2019-08-19T03:02:21Z</time>
      </trkpt>
      <trkpt lat="42.222492" lon="2.829069">
        <ele>165</ele>
        <time>2019-08-19T03:02:22Z</time>
      </trkpt>
      <trkpt lat="42.222483" lon="2.829031">
        <ele>165</ele>
        <time>2019-08-19T03:02:23Z</time>
      </trkpt>
      <trkpt lat="42.222474" lon="2.828992">
        <ele>165</ele>
        <time>2019-08-19T03:02:24Z</time>
      </trkpt>
      <trkpt lat="42.222464" lon="2.828953">
        <ele>165</ele>
        <time>2019-08-19T03:02:25Z</time>
      </trkpt>
      <trkpt lat="42.222455" lon="2.828914">
        <ele>165</ele>
        <time>2019-08-19T03:02:26Z</time>
      </trkpt>
      <trkpt lat="42.222446" lon="2.828875">
        <ele>167</ele>
        <time>2019-08-19T03:02:27Z</time>
      </trkpt>
      <trkpt lat="42.222428" lon="2.828796">
        <ele>167</ele>
        <time>2019-08-19T03:02:28Z</time>
      </trkpt>
      <trkpt lat="42.22242" lon="2.828759">
        <ele>167</ele>
        <time>2019-08-19T03:02:29Z</time>
      </trkpt>
      <trkpt lat="42.222412" lon="2.828722">
        <ele>167</ele>
        <time>2019-08-19T03:02:30Z</time>
      </trkpt>
      <trkpt lat="42.222404" lon="2.828685">
        <ele>167</ele>
        <time>2019-08-19T03:02:31Z</time>
      </trkpt>
      <trkpt lat="42.222396" lon="2.828648">
        <ele>167</ele>
        <time>2019-08-19T03:02:32Z</time>
      </trkpt>
      <trkpt lat="42.222388" lon="2.828612">
        <ele>167</ele>
        <time>2019-08-19T03:02:33Z</time>
      </trkpt>
      <trkpt lat="42.22238" lon="2.828575">
        <ele>167</ele>
        <time>2019-08-19T03:02:34Z</time>
      </trkpt>
      <trkpt lat="42.222372" lon="2.828538">
        <ele>167</ele>
        <time>2019-08-19T03:02:35Z</time>
      </trkpt>
      <trkpt lat="42.222364" lon="2.828501">
        <ele>167</ele>
        <time>2019-08-19T03:02:36Z</time>
      </trkpt>
      <trkpt lat="42.222356" lon="2.828464">
        <ele>169</ele>
        <time>2019-08-19T03:02:37Z</time>
      </trkpt>
      <trkpt lat="42.222338" lon="2.828385">
        <ele>169</ele>
        <time>2019-08-19T03:02:38Z</time>
      </trkpt>
      <trkpt lat="42.222328" lon="2.828346">
        <ele>169</ele>
        <time>2019-08-19T03:02:39Z</time>
      </trkpt>
      <trkpt lat="42.222319" lon="2.828306">
        <ele>169</ele>
        <time>2019-08-19T03:02:40Z</time>
      </trkpt>
      <trkpt lat="42.22231" lon="2.828267">
        <ele>169</ele>
        <time>2019-08-19T03:02:41Z</time>
      </trkpt>
      <trkpt lat="42.222301" lon="2.828228">
        <ele>169</ele>
        <time>2019-08-19T03:02:42Z</time>
      </trkpt>
      <trkpt lat="42.222291" lon="2.828189">
        <ele>169</ele>
        <time>2019-08-19T03:02:43Z</time>
      </trkpt>
      <trkpt lat="42.222282" lon="2.82815">
        <ele>169</ele>
        <time>2019-08-19T03:02:44Z</time>
      </trkpt>
      <trkpt lat="42.222273" lon="2.82811">
        <ele>169</ele>
        <time>2019-08-19T03:02:45Z</time>
      </trkpt>
      <trkpt lat="42.222263" lon="2.828071">
        <ele>169</ele>
        <time>2019-08-19T03:02:46Z</time>
      </trkpt>
      <trkpt lat="42.222254" lon="2.828032">
        <ele>172</ele>
        <time>2019-08-19T03:02:47Z</time>
      </trkpt>
      <trkpt lat="42.222232" lon="2.827944">
        <ele>172</ele>
        <time>2019-08-19T03:02:48Z</time>
      </trkpt>
      <trkpt lat="42.222222" lon="2.827901">
        <ele>172</ele>
        <time>2019-08-19T03:02:49Z</time>
      </trkpt>
      <trkpt lat="42.222213" lon="2.827857">
        <ele>172</ele>
        <time>2019-08-19T03:02:50Z</time>
      </trkpt>
      <trkpt lat="42.222203" lon="2.827813">
        <ele>172</ele>
        <time>2019-08-19T03:02:52Z</time>
      </trkpt>
      <trkpt lat="42.222193" lon="2.82777">
        <ele>172</ele>
        <time>2019-08-19T03:02:53Z</time>
      </trkpt>
      <trkpt lat="42.222183" lon="2.827726">
        <ele>172</ele>
        <time>2019-08-19T03:02:54Z</time>
      </trkpt>
      <trkpt lat="42.222174" lon="2.827682">
        <ele>172</ele>
        <time>2019-08-19T03:02:55Z</time>
      </trkpt>
      <trkpt lat="42.222164" lon="2.827639">
        <ele>172</ele>
        <time>2019-08-19T03:02:56Z</time>
      </trkpt>
      <trkpt lat="42.222154" lon="2.827595">
        <ele>172</ele>
        <time>2019-08-19T03:02:57Z</time>
      </trkpt>
      <trkpt lat="42.222136" lon="2.827514">
        <ele>172</ele>
        <time>2019-08-19T03:02:58Z</time>
      </trkpt>
      <trkpt lat="42.222127" lon="2.827475">
        <ele>172</ele>
        <time>2019-08-19T03:02:59Z</time>
      </trkpt>
      <trkpt lat="42.222118" lon="2.827436">
        <ele>172</ele>
        <time>2019-08-19T03:03:00Z</time>
      </trkpt>
      <trkpt lat="42.222109" lon="2.827397">
        <ele>172</ele>
        <time>2019-08-19T03:03:01Z</time>
      </trkpt>
      <trkpt lat="42.2221" lon="2.827358">
        <ele>172</ele>
        <time>2019-08-19T03:03:02Z</time>
      </trkpt>
      <trkpt lat="42.22209" lon="2.82732">
        <ele>172</ele>
        <time>2019-08-19T03:03:03Z</time>
      </trkpt>
      <trkpt lat="42.222081" lon="2.827281">
        <ele>172</ele>
        <time>2019-08-19T03:03:04Z</time>
      </trkpt>
      <trkpt lat="42.222072" lon="2.827242">
        <ele>172</ele>
        <time>2019-08-19T03:03:05Z</time>
      </trkpt>
      <trkpt lat="42.222063" lon="2.827203">
        <ele>172</ele>
        <time>2019-08-19T03:03:06Z</time>
      </trkpt>
      <trkpt lat="42.222054" lon="2.827164">
        <ele>173</ele>
        <time>2019-08-19T03:03:07Z</time>
      </trkpt>
      <trkpt lat="42.222036" lon="2.827085">
        <ele>173</ele>
        <time>2019-08-19T03:03:08Z</time>
      </trkpt>
      <trkpt lat="42.222028" lon="2.827048">
        <ele>173</ele>
        <time>2019-08-19T03:03:09Z</time>
      </trkpt>
      <trkpt lat="42.22202" lon="2.827011">
        <ele>173</ele>
        <time>2019-08-19T03:03:10Z</time>
      </trkpt>
      <trkpt lat="42.222012" lon="2.826974">
        <ele>173</ele>
        <time>2019-08-19T03:03:11Z</time>
      </trkpt>
      <trkpt lat="42.222004" lon="2.826936">
        <ele>173</ele>
        <time>2019-08-19T03:03:12Z</time>
      </trkpt>
      <trkpt lat="42.221995" lon="2.826899">
        <ele>173</ele>
        <time>2019-08-19T03:03:13Z</time>
      </trkpt>
      <trkpt lat="42.221987" lon="2.826862">
        <ele>173</ele>
        <time>2019-08-19T03:03:14Z</time>
      </trkpt>
      <trkpt lat="42.221979" lon="2.826825">
        <ele>173</ele>
        <time>2019-08-19T03:03:15Z</time>
      </trkpt>
      <trkpt lat="42.221971" lon="2.826788">
        <ele>173</ele>
        <time>2019-08-19T03:03:16Z</time>
      </trkpt>
      <trkpt lat="42.221963" lon="2.826751">
        <ele>177</ele>
        <time>2019-08-19T03:03:17Z</time>
      </trkpt>
      <trkpt lat="42.221943" lon="2.826665">
        <ele>177</ele>
        <time>2019-08-19T03:03:18Z</time>
      </trkpt>
      <trkpt lat="42.221933" lon="2.826622">
        <ele>177</ele>
        <time>2019-08-19T03:03:20Z</time>
      </trkpt>
      <trkpt lat="42.221922" lon="2.826579">
        <ele>177</ele>
        <time>2019-08-19T03:03:21Z</time>
      </trkpt>
      <trkpt lat="42.221912" lon="2.826536">
        <ele>177</ele>
        <time>2019-08-19T03:03:22Z</time>
      </trkpt>
      <trkpt lat="42.221901" lon="2.826492">
        <ele>177</ele>
        <time>2019-08-19T03:03:23Z</time>
      </trkpt>
      <trkpt lat="42.221891" lon="2.826449">
        <ele>177</ele>
        <time>2019-08-19T03:03:24Z</time>
      </trkpt>
      <trkpt lat="42.22188" lon="2.826406">
        <ele>177</ele>
        <time>2019-08-19T03:03:25Z</time>
      </trkpt>
      <trkpt lat="42.22187" lon="2.826363">
        <ele>177</ele>
        <time>2019-08-19T03:03:26Z</time>
      </trkpt>
      <trkpt lat="42.221859" lon="2.82632">
        <ele>178</ele>
        <time>2019-08-19T03:03:27Z</time>
      </trkpt>
      <trkpt lat="42.221826" lon="2.826187">
        <ele>178</ele>
        <time>2019-08-19T03:03:29Z</time>
      </trkpt>
      <trkpt lat="42.221815" lon="2.82614">
        <ele>178</ele>
        <time>2019-08-19T03:03:30Z</time>
      </trkpt>
      <trkpt lat="42.221804" lon="2.826093">
        <ele>178</ele>
        <time>2019-08-19T03:03:31Z</time>
      </trkpt>
      <trkpt lat="42.221793" lon="2.826046">
        <ele>178</ele>
        <time>2019-08-19T03:03:32Z</time>
      </trkpt>
      <trkpt lat="42.221781" lon="2.826">
        <ele>178</ele>
        <time>2019-08-19T03:03:33Z</time>
      </trkpt>
      <trkpt lat="42.22177" lon="2.825953">
        <ele>178</ele>
        <time>2019-08-19T03:03:34Z</time>
      </trkpt>
      <trkpt lat="42.221759" lon="2.825906">
        <ele>178</ele>
        <time>2019-08-19T03:03:35Z</time>
      </trkpt>
      <trkpt lat="42.221748" lon="2.825859">
        <ele>179</ele>
        <time>2019-08-19T03:03:37Z</time>
      </trkpt>
      <trkpt lat="42.221725" lon="2.825765">
        <ele>179</ele>
        <time>2019-08-19T03:03:38Z</time>
      </trkpt>
      <trkpt lat="42.221714" lon="2.825719">
        <ele>179</ele>
        <time>2019-08-19T03:03:39Z</time>
      </trkpt>
      <trkpt lat="42.221704" lon="2.825674">
        <ele>179</ele>
        <time>2019-08-19T03:03:40Z</time>
      </trkpt>
      <trkpt lat="42.221693" lon="2.825628">
        <ele>179</ele>
        <time>2019-08-19T03:03:41Z</time>
      </trkpt>
      <trkpt lat="42.221683" lon="2.825583">
        <ele>179</ele>
        <time>2019-08-19T03:03:42Z</time>
      </trkpt>
      <trkpt lat="42.221672" lon="2.825538">
        <ele>179</ele>
        <time>2019-08-19T03:03:43Z</time>
      </trkpt>
      <trkpt lat="42.221662" lon="2.825492">
        <ele>179</ele>
        <time>2019-08-19T03:03:44Z</time>
      </trkpt>
      <trkpt lat="42.221651" lon="2.825447">
        <ele>179</ele>
        <time>2019-08-19T03:03:45Z</time>
      </trkpt>
      <trkpt lat="42.221641" lon="2.825401">
        <ele>179</ele>
        <time>2019-08-19T03:03:46Z</time>
      </trkpt>
      <trkpt lat="42.22163" lon="2.825356">
        <ele>180</ele>
        <time>2019-08-19T03:03:47Z</time>
      </trkpt>
      <trkpt lat="42.221604" lon="2.825241">
        <ele>180</ele>
        <time>2019-08-19T03:03:48Z</time>
      </trkpt>
      <trkpt lat="42.221591" lon="2.82518">
        <ele>180</ele>
        <time>2019-08-19T03:03:50Z</time>
      </trkpt>
      <trkpt lat="42.221577" lon="2.82512">
        <ele>180</ele>
        <time>2019-08-19T03:03:51Z</time>
      </trkpt>
      <trkpt lat="42.221564" lon="2.825059">
        <ele>180</ele>
        <time>2019-08-19T03:03:52Z</time>
      </trkpt>
      <trkpt lat="42.22155" lon="2.824998">
        <ele>180</ele>
        <time>2019-08-19T03:03:53Z</time>
      </trkpt>
      <trkpt lat="42.221537" lon="2.824937">
        <ele>180</ele>
        <time>2019-08-19T03:03:54Z</time>
      </trkpt>
      <trkpt lat="42.221523" lon="2.824877">
        <ele>180</ele>
        <time>2019-08-19T03:03:55Z</time>
      </trkpt>
      <trkpt lat="42.22151" lon="2.824816">
        <ele>180</ele>
        <time>2019-08-19T03:03:56Z</time>
      </trkpt>
      <trkpt lat="42.221496" lon="2.824755">
        <ele>181</ele>
        <time>2019-08-19T03:03:57Z</time>
      </trkpt>
      <trkpt lat="42.221469" lon="2.824633">
        <ele>181</ele>
        <time>2019-08-19T03:03:58Z</time>
      </trkpt>
      <trkpt lat="42.221457" lon="2.824577">
        <ele>181</ele>
        <time>2019-08-19T03:03:59Z</time>
      </trkpt>
      <trkpt lat="42.221446" lon="2.82452">
        <ele>181</ele>
        <time>2019-08-19T03:04:00Z</time>
      </trkpt>
      <trkpt lat="42.221434" lon="2.824464">
        <ele>181</ele>
        <time>2019-08-19T03:04:01Z</time>
      </trkpt>
      <trkpt lat="42.221422" lon="2.824407">
        <ele>181</ele>
        <time>2019-08-19T03:04:02Z</time>
      </trkpt>
      <trkpt lat="42.22141" lon="2.824351">
        <ele>181</ele>
        <time>2019-08-19T03:04:03Z</time>
      </trkpt>
      <trkpt lat="42.221398" lon="2.824294">
        <ele>181</ele>
        <time>2019-08-19T03:04:04Z</time>
      </trkpt>
      <trkpt lat="42.221387" lon="2.824238">
        <ele>181</ele>
        <time>2019-08-19T03:04:05Z</time>
      </trkpt>
      <trkpt lat="42.221375" lon="2.824181">
        <ele>181</ele>
        <time>2019-08-19T03:04:06Z</time>
      </trkpt>
      <trkpt lat="42.221363" lon="2.824125">
        <ele>181</ele>
        <time>2019-08-19T03:04:07Z</time>
      </trkpt>
      <trkpt lat="42.221346" lon="2.82404">
        <ele>181</ele>
        <time>2019-08-19T03:04:08Z</time>
      </trkpt>
      <trkpt lat="42.22134" lon="2.824007">
        <ele>181</ele>
        <time>2019-08-19T03:04:09Z</time>
      </trkpt>
      <trkpt lat="42.221334" lon="2.823973">
        <ele>181</ele>
        <time>2019-08-19T03:04:10Z</time>
      </trkpt>
      <trkpt lat="42.221328" lon="2.82394">
        <ele>181</ele>
        <time>2019-08-19T03:04:11Z</time>
      </trkpt>
      <trkpt lat="42.221322" lon="2.823907">
        <ele>181</ele>
        <time>2019-08-19T03:04:12Z</time>
      </trkpt>
      <trkpt lat="42.221316" lon="2.823874">
        <ele>181</ele>
        <time>2019-08-19T03:04:13Z</time>
      </trkpt>
      <trkpt lat="42.22131" lon="2.823841">
        <ele>181</ele>
        <time>2019-08-19T03:04:14Z</time>
      </trkpt>
      <trkpt lat="42.221304" lon="2.823807">
        <ele>181</ele>
        <time>2019-08-19T03:04:15Z</time>
      </trkpt>
      <trkpt lat="42.221298" lon="2.823774">
        <ele>181</ele>
        <time>2019-08-19T03:04:16Z</time>
      </trkpt>
      <trkpt lat="42.221292" lon="2.823741">
        <ele>180</ele>
        <time>2019-08-19T03:04:17Z</time>
      </trkpt>
      <trkpt lat="42.221268" lon="2.823715">
        <ele>180</ele>
        <time>2019-08-19T03:04:18Z</time>
      </trkpt>
      <trkpt lat="42.221247" lon="2.823705">
        <ele>180</ele>
        <time>2019-08-19T03:04:26Z</time>
      </trkpt>
      <trkpt lat="42.221225" lon="2.823696">
        <ele>180</ele>
        <time>2019-08-19T03:04:32Z</time>
      </trkpt>
      <trkpt lat="42.221204" lon="2.823686">
        <ele>180</ele>
        <time>2019-08-19T03:04:33Z</time>
      </trkpt>
      <trkpt lat="42.221183" lon="2.823676">
        <ele>180</ele>
        <time>2019-08-19T03:04:34Z</time>
      </trkpt>
      <trkpt lat="42.221162" lon="2.823666">
        <ele>180</ele>
        <time>2019-08-19T03:04:35Z</time>
      </trkpt>
      <trkpt lat="42.22114" lon="2.823657">
        <ele>180</ele>
        <time>2019-08-19T03:04:36Z</time>
      </trkpt>
      <trkpt lat="42.221119" lon="2.823647">
        <ele>180</ele>
        <time>2019-08-19T03:04:37Z</time>
      </trkpt>
      <trkpt lat="42.221098" lon="2.823637">
        <ele>180</ele>
        <time>2019-08-19T03:04:38Z</time>
      </trkpt>
      <trkpt lat="42.221077" lon="2.823627">
        <ele>180</ele>
        <time>2019-08-19T03:04:39Z</time>
      </trkpt>
      <trkpt lat="42.221055" lon="2.823618">
        <ele>180</ele>
        <time>2019-08-19T03:04:40Z</time>
      </trkpt>
      <trkpt lat="42.221034" lon="2.823608">
        <ele>180</ele>
        <time>2019-08-19T03:04:41Z</time>
      </trkpt>
      <trkpt lat="42.221021" lon="2.823596">
        <ele>180</ele>
        <time>2019-08-19T03:04:42Z</time>
      </trkpt>
      <trkpt lat="42.221006" lon="2.823582">
        <ele>180</ele>
        <time>2019-08-19T03:04:44Z</time>
      </trkpt>
      <trkpt lat="42.221001" lon="2.823562">
        <ele>180</ele>
        <time>2019-08-19T03:04:50Z</time>
      </trkpt>
      <trkpt lat="42.220985" lon="2.82354">
        <ele>180</ele>
        <time>2019-08-19T03:04:54Z</time>
      </trkpt>
      <trkpt lat="42.220984" lon="2.823537">
        <ele>180</ele>
        <time>2019-08-19T03:04:55Z</time>
      </trkpt>
      <trkpt lat="42.220984" lon="2.823537">
        <ele>180</ele>
        <time>2019-08-19T03:04:59Z</time>
      </trkpt>
      <trkpt lat="42.22101" lon="2.823466">
        <ele>180</ele>
        <time>2019-08-19T03:05:28Z</time>
      </trkpt>
      <trkpt lat="42.22103" lon="2.823424">
        <ele>180</ele>
        <time>2019-08-19T03:05:29Z</time>
      </trkpt>
      <trkpt lat="42.221059" lon="2.823405">
        <ele>180</ele>
        <time>2019-08-19T03:05:31Z</time>
      </trkpt>
      <trkpt lat="42.221089" lon="2.823394">
        <ele>180</ele>
        <time>2019-08-19T03:05:33Z</time>
      </trkpt>
      <trkpt lat="42.221111" lon="2.823384">
        <ele>180</ele>
        <time>2019-08-19T03:05:35Z</time>
      </trkpt>
      <trkpt lat="42.221111" lon="2.823384">
        <ele>180</ele>
        <time>2019-08-19T03:05:37Z</time>
      </trkpt>
      <trkpt lat="42.221111" lon="2.823331">
        <ele>180</ele>
        <time>2019-08-19T03:05:42Z</time>
      </trkpt>
      <trkpt lat="42.221112" lon="2.82328">
        <ele>179</ele>
        <time>2019-08-19T03:05:50Z</time>
      </trkpt>
      <trkpt lat="42.221114" lon="2.823228">
        <ele>179</ele>
        <time>2019-08-19T03:05:51Z</time>
      </trkpt>
      <trkpt lat="42.221115" lon="2.823177">
        <ele>179</ele>
        <time>2019-08-19T03:05:52Z</time>
      </trkpt>
      <trkpt lat="42.221116" lon="2.823125">
        <ele>179</ele>
        <time>2019-08-19T03:05:53Z</time>
      </trkpt>
      <trkpt lat="42.221117" lon="2.823074">
        <ele>179</ele>
        <time>2019-08-19T03:05:54Z</time>
      </trkpt>
      <trkpt lat="42.221118" lon="2.823022">
        <ele>179</ele>
        <time>2019-08-19T03:05:55Z</time>
      </trkpt>
      <trkpt lat="42.221119" lon="2.822971">
        <ele>179</ele>
        <time>2019-08-19T03:05:56Z</time>
      </trkpt>
      <trkpt lat="42.221121" lon="2.822919">
        <ele>179</ele>
        <time>2019-08-19T03:05:57Z</time>
      </trkpt>
      <trkpt lat="42.221122" lon="2.822868">
        <ele>179</ele>
        <time>2019-08-19T03:05:58Z</time>
      </trkpt>
      <trkpt lat="42.221123" lon="2.822816">
        <ele>179</ele>
        <time>2019-08-19T03:05:59Z</time>
      </trkpt>
      <trkpt lat="42.221105" lon="2.822677">
        <ele>179</ele>
        <time>2019-08-19T03:06:00Z</time>
      </trkpt>
      <trkpt lat="42.221096" lon="2.822603">
        <ele>179</ele>
        <time>2019-08-19T03:06:01Z</time>
      </trkpt>
      <trkpt lat="42.221087" lon="2.822529">
        <ele>179</ele>
        <time>2019-08-19T03:06:02Z</time>
      </trkpt>
      <trkpt lat="42.221078" lon="2.822455">
        <ele>179</ele>
        <time>2019-08-19T03:06:03Z</time>
      </trkpt>
      <trkpt lat="42.221069" lon="2.822381">
        <ele>179</ele>
        <time>2019-08-19T03:06:04Z</time>
      </trkpt>
      <trkpt lat="42.22106" lon="2.822307">
        <ele>179</ele>
        <time>2019-08-19T03:06:05Z</time>
      </trkpt>
      <trkpt lat="42.221051" lon="2.822233">
        <ele>179</ele>
        <time>2019-08-19T03:06:06Z</time>
      </trkpt>
      <trkpt lat="42.221042" lon="2.822159">
        <ele>179</ele>
        <time>2019-08-19T03:06:07Z</time>
      </trkpt>
      <trkpt lat="42.221033" lon="2.822085">
        <ele>179</ele>
        <time>2019-08-19T03:06:08Z</time>
      </trkpt>
      <trkpt lat="42.221024" lon="2.822011">
        <ele>179</ele>
        <time>2019-08-19T03:06:10Z</time>
      </trkpt>
      <trkpt lat="42.221009" lon="2.821853">
        <ele>179</ele>
        <time>2019-08-19T03:06:11Z</time>
      </trkpt>
      <trkpt lat="42.221" lon="2.821775">
        <ele>179</ele>
        <time>2019-08-19T03:06:12Z</time>
      </trkpt>
      <trkpt lat="42.220992" lon="2.821698">
        <ele>179</ele>
        <time>2019-08-19T03:06:13Z</time>
      </trkpt>
      <trkpt lat="42.220984" lon="2.82162">
        <ele>179</ele>
        <time>2019-08-19T03:06:14Z</time>
      </trkpt>
      <trkpt lat="42.220975" lon="2.821542">
        <ele>179</ele>
        <time>2019-08-19T03:06:15Z</time>
      </trkpt>
      <trkpt lat="42.220967" lon="2.821464">
        <ele>179</ele>
        <time>2019-08-19T03:06:16Z</time>
      </trkpt>
      <trkpt lat="42.220959" lon="2.821387">
        <ele>179</ele>
        <time>2019-08-19T03:06:17Z</time>
      </trkpt>
      <trkpt lat="42.22095" lon="2.821309">
        <ele>179</ele>
        <time>2019-08-19T03:06:18Z</time>
      </trkpt>
      <trkpt lat="42.220942" lon="2.821231">
        <ele>179</ele>
        <time>2019-08-19T03:06:19Z</time>
      </trkpt>
      <trkpt lat="42.220925" lon="2.821068">
        <ele>179</ele>
        <time>2019-08-19T03:06:20Z</time>
      </trkpt>
      <trkpt lat="42.220918" lon="2.820995">
        <ele>179</ele>
        <time>2019-08-19T03:06:21Z</time>
      </trkpt>
      <trkpt lat="42.22091" lon="2.820921">
        <ele>179</ele>
        <time>2019-08-19T03:06:22Z</time>
      </trkpt>
      <trkpt lat="42.220903" lon="2.820848">
        <ele>179</ele>
        <time>2019-08-19T03:06:23Z</time>
      </trkpt>
      <trkpt lat="42.220895" lon="2.820775">
        <ele>179</ele>
        <time>2019-08-19T03:06:24Z</time>
      </trkpt>
      <trkpt lat="42.220888" lon="2.820702">
        <ele>179</ele>
        <time>2019-08-19T03:06:25Z</time>
      </trkpt>
      <trkpt lat="42.22088" lon="2.820628">
        <ele>179</ele>
        <time>2019-08-19T03:06:26Z</time>
      </trkpt>
      <trkpt lat="42.220873" lon="2.820555">
        <ele>179</ele>
        <time>2019-08-19T03:06:27Z</time>
      </trkpt>
      <trkpt lat="42.220865" lon="2.820482">
        <ele>177</ele>
        <time>2019-08-19T03:06:29Z</time>
      </trkpt>
      <trkpt lat="42.220861" lon="2.820437">
        <ele>177</ele>
        <time>2019-08-19T03:06:30Z</time>
      </trkpt>
      <trkpt lat="42.220857" lon="2.820413">
        <ele>177</ele>
        <time>2019-08-19T03:06:31Z</time>
      </trkpt>
      <trkpt lat="42.220852" lon="2.820387">
        <ele>177</ele>
        <time>2019-08-19T03:06:37Z</time>
      </trkpt>
      <trkpt lat="42.220846" lon="2.82033">
        <ele>176</ele>
        <time>2019-08-19T03:06:39Z</time>
      </trkpt>
      <trkpt lat="42.220838" lon="2.820243">
        <ele>176</ele>
        <time>2019-08-19T03:06:40Z</time>
      </trkpt>
      <trkpt lat="42.220833" lon="2.820191">
        <ele>176</ele>
        <time>2019-08-19T03:06:41Z</time>
      </trkpt>
      <trkpt lat="42.220828" lon="2.82014">
        <ele>176</ele>
        <time>2019-08-19T03:06:42Z</time>
      </trkpt>
      <trkpt lat="42.220823" lon="2.820088">
        <ele>176</ele>
        <time>2019-08-19T03:06:43Z</time>
      </trkpt>
      <trkpt lat="42.220819" lon="2.820037">
        <ele>176</ele>
        <time>2019-08-19T03:06:44Z</time>
      </trkpt>
      <trkpt lat="42.220814" lon="2.819986">
        <ele>176</ele>
        <time>2019-08-19T03:06:45Z</time>
      </trkpt>
      <trkpt lat="42.220809" lon="2.819934">
        <ele>176</ele>
        <time>2019-08-19T03:06:46Z</time>
      </trkpt>
      <trkpt lat="42.220804" lon="2.819883">
        <ele>176</ele>
        <time>2019-08-19T03:06:47Z</time>
      </trkpt>
      <trkpt lat="42.220799" lon="2.819831">
        <ele>176</ele>
        <time>2019-08-19T03:06:48Z</time>
      </trkpt>
      <trkpt lat="42.220794" lon="2.81978">
        <ele>175</ele>
        <time>2019-08-19T03:06:49Z</time>
      </trkpt>
      <trkpt lat="42.22078" lon="2.819643">
        <ele>175</ele>
        <time>2019-08-19T03:06:50Z</time>
      </trkpt>
      <trkpt lat="42.220772" lon="2.819572">
        <ele>175</ele>
        <time>2019-08-19T03:06:51Z</time>
      </trkpt>
      <trkpt lat="42.220765" lon="2.8195">
        <ele>175</ele>
        <time>2019-08-19T03:06:52Z</time>
      </trkpt>
      <trkpt lat="42.220758" lon="2.819429">
        <ele>175</ele>
        <time>2019-08-19T03:06:53Z</time>
      </trkpt>
      <trkpt lat="42.220751" lon="2.819357">
        <ele>175</ele>
        <time>2019-08-19T03:06:54Z</time>
      </trkpt>
      <trkpt lat="42.220743" lon="2.819286">
        <ele>175</ele>
        <time>2019-08-19T03:06:55Z</time>
      </trkpt>
      <trkpt lat="42.220736" lon="2.819214">
        <ele>175</ele>
        <time>2019-08-19T03:06:56Z</time>
      </trkpt>
      <trkpt lat="42.220729" lon="2.819143">
        <ele>175</ele>
        <time>2019-08-19T03:06:57Z</time>
      </trkpt>
      <trkpt lat="42.220721" lon="2.819071">
        <ele>175</ele>
        <time>2019-08-19T03:06:58Z</time>
      </trkpt>
      <trkpt lat="42.220714" lon="2.819">
        <ele>174</ele>
        <time>2019-08-19T03:06:59Z</time>
      </trkpt>
      <trkpt lat="42.220695" lon="2.818822">
        <ele>174</ele>
        <time>2019-08-19T03:07:00Z</time>
      </trkpt>
      <trkpt lat="42.220686" lon="2.818734">
        <ele>174</ele>
        <time>2019-08-19T03:07:01Z</time>
      </trkpt>
      <trkpt lat="42.220678" lon="2.818645">
        <ele>174</ele>
        <time>2019-08-19T03:07:02Z</time>
      </trkpt>
      <trkpt lat="42.220669" lon="2.818557">
        <ele>174</ele>
        <time>2019-08-19T03:07:03Z</time>
      </trkpt>
      <trkpt lat="42.22066" lon="2.818469">
        <ele>174</ele>
        <time>2019-08-19T03:07:04Z</time>
      </trkpt>
      <trkpt lat="42.220651" lon="2.818381">
        <ele>174</ele>
        <time>2019-08-19T03:07:05Z</time>
      </trkpt>
      <trkpt lat="42.220642" lon="2.818293">
        <ele>174</ele>
        <time>2019-08-19T03:07:06Z</time>
      </trkpt>
      <trkpt lat="42.220634" lon="2.818204">
        <ele>174</ele>
        <time>2019-08-19T03:07:07Z</time>
      </trkpt>
      <trkpt lat="42.220625" lon="2.818116">
        <ele>174</ele>
        <time>2019-08-19T03:07:08Z</time>
      </trkpt>
      <trkpt lat="42.220616" lon="2.818028">
        <ele>173</ele>
        <time>2019-08-19T03:07:09Z</time>
      </trkpt>
      <trkpt lat="42.220595" lon="2.817818">
        <ele>173</ele>
        <time>2019-08-19T03:07:10Z</time>
      </trkpt>
      <trkpt lat="42.220584" lon="2.817713">
        <ele>173</ele>
        <time>2019-08-19T03:07:11Z</time>
      </trkpt>
      <trkpt lat="42.220573" lon="2.817607">
        <ele>173</ele>
        <time>2019-08-19T03:07:12Z</time>
      </trkpt>
      <trkpt lat="42.220562" lon="2.817502">
        <ele>173</ele>
        <time>2019-08-19T03:07:13Z</time>
      </trkpt>
      <trkpt lat="42.220551" lon="2.817397">
        <ele>173</ele>
        <time>2019-08-19T03:07:14Z</time>
      </trkpt>
      <trkpt lat="42.220539" lon="2.817292">
        <ele>173</ele>
        <time>2019-08-19T03:07:15Z</time>
      </trkpt>
      <trkpt lat="42.220528" lon="2.817187">
        <ele>173</ele>
        <time>2019-08-19T03:07:16Z</time>
      </trkpt>
      <trkpt lat="42.220517" lon="2.817081">
        <ele>173</ele>
        <time>2019-08-19T03:07:17Z</time>
      </trkpt>
      <trkpt lat="42.220506" lon="2.816976">
        <ele>173</ele>
        <time>2019-08-19T03:07:18Z</time>
      </trkpt>
      <trkpt lat="42.220495" lon="2.816871">
        <ele>171</ele>
        <time>2019-08-19T03:07:19Z</time>
      </trkpt>
      <trkpt lat="42.220468" lon="2.816638">
        <ele>171</ele>
        <time>2019-08-19T03:07:20Z</time>
      </trkpt>
      <trkpt lat="42.220456" lon="2.816525">
        <ele>171</ele>
        <time>2019-08-19T03:07:21Z</time>
      </trkpt>
      <trkpt lat="42.220443" lon="2.816412">
        <ele>171</ele>
        <time>2019-08-19T03:07:22Z</time>
      </trkpt>
      <trkpt lat="42.220431" lon="2.816299">
        <ele>171</ele>
        <time>2019-08-19T03:07:23Z</time>
      </trkpt>
      <trkpt lat="42.220419" lon="2.816186">
        <ele>171</ele>
        <time>2019-08-19T03:07:24Z</time>
      </trkpt>
      <trkpt lat="42.220407" lon="2.816073">
        <ele>171</ele>
        <time>2019-08-19T03:07:25Z</time>
      </trkpt>
      <trkpt lat="42.220394" lon="2.81596">
        <ele>171</ele>
        <time>2019-08-19T03:07:27Z</time>
      </trkpt>
      <trkpt lat="42.220382" lon="2.815847">
        <ele>171</ele>
        <time>2019-08-19T03:07:28Z</time>
      </trkpt>
      <trkpt lat="42.22037" lon="2.815734">
        <ele>170</ele>
        <time>2019-08-19T03:07:29Z</time>
      </trkpt>
      <trkpt lat="42.220348" lon="2.815531">
        <ele>170</ele>
        <time>2019-08-19T03:07:30Z</time>
      </trkpt>
      <trkpt lat="42.220339" lon="2.815436">
        <ele>170</ele>
        <time>2019-08-19T03:07:31Z</time>
      </trkpt>
      <trkpt lat="42.220329" lon="2.815342">
        <ele>170</ele>
        <time>2019-08-19T03:07:32Z</time>
      </trkpt>
      <trkpt lat="42.220319" lon="2.815247">
        <ele>170</ele>
        <time>2019-08-19T03:07:33Z</time>
      </trkpt>
      <trkpt lat="42.22031" lon="2.815152">
        <ele>170</ele>
        <time>2019-08-19T03:07:34Z</time>
      </trkpt>
      <trkpt lat="42.2203" lon="2.815057">
        <ele>170</ele>
        <time>2019-08-19T03:07:35Z</time>
      </trkpt>
      <trkpt lat="42.22029" lon="2.814962">
        <ele>170</ele>
        <time>2019-08-19T03:07:36Z</time>
      </trkpt>
      <trkpt lat="42.22028" lon="2.814868">
        <ele>170</ele>
        <time>2019-08-19T03:07:37Z</time>
      </trkpt>
      <trkpt lat="42.220271" lon="2.814773">
        <ele>170</ele>
        <time>2019-08-19T03:07:38Z</time>
      </trkpt>
      <trkpt lat="42.220261" lon="2.814678">
        <ele>168</ele>
        <time>2019-08-19T03:07:40Z</time>
      </trkpt>
      <trkpt lat="42.220245" lon="2.814515">
        <ele>168</ele>
        <time>2019-08-19T03:07:41Z</time>
      </trkpt>
      <trkpt lat="42.220236" lon="2.814439">
        <ele>168</ele>
        <time>2019-08-19T03:07:42Z</time>
      </trkpt>
      <trkpt lat="42.220228" lon="2.814362">
        <ele>168</ele>
        <time>2019-08-19T03:07:43Z</time>
      </trkpt>
      <trkpt lat="42.22022" lon="2.814286">
        <ele>168</ele>
        <time>2019-08-19T03:07:45Z</time>
      </trkpt>
      <trkpt lat="42.220211" lon="2.814209">
        <ele>168</ele>
        <time>2019-08-19T03:07:46Z</time>
      </trkpt>
      <trkpt lat="42.220203" lon="2.814133">
        <ele>168</ele>
        <time>2019-08-19T03:07:47Z</time>
      </trkpt>
      <trkpt lat="42.220194" lon="2.814056">
        <ele>168</ele>
        <time>2019-08-19T03:07:48Z</time>
      </trkpt>
      <trkpt lat="42.220186" lon="2.81398">
        <ele>170</ele>
        <time>2019-08-19T03:07:49Z</time>
      </trkpt>
      <trkpt lat="42.220171" lon="2.813842">
        <ele>170</ele>
        <time>2019-08-19T03:07:50Z</time>
      </trkpt>
      <trkpt lat="42.220164" lon="2.813772">
        <ele>170</ele>
        <time>2019-08-19T03:07:51Z</time>
      </trkpt>
      <trkpt lat="42.220156" lon="2.813702">
        <ele>170</ele>
        <time>2019-08-19T03:07:52Z</time>
      </trkpt>
      <trkpt lat="42.220148" lon="2.813632">
        <ele>170</ele>
        <time>2019-08-19T03:07:53Z</time>
      </trkpt>
      <trkpt lat="42.220141" lon="2.813561">
        <ele>170</ele>
        <time>2019-08-19T03:07:54Z</time>
      </trkpt>
      <trkpt lat="42.220133" lon="2.813491">
        <ele>170</ele>
        <time>2019-08-19T03:07:55Z</time>
      </trkpt>
      <trkpt lat="42.220125" lon="2.813421">
        <ele>170</ele>
        <time>2019-08-19T03:07:56Z</time>
      </trkpt>
      <trkpt lat="42.220118" lon="2.813351">
        <ele>170</ele>
        <time>2019-08-19T03:07:58Z</time>
      </trkpt>
      <trkpt lat="42.22011" lon="2.813281">
        <ele>172</ele>
        <time>2019-08-19T03:07:59Z</time>
      </trkpt>
      <trkpt lat="42.220087" lon="2.813115">
        <ele>172</ele>
        <time>2019-08-19T03:08:00Z</time>
      </trkpt>
      <trkpt lat="42.220073" lon="2.813021">
        <ele>172</ele>
        <time>2019-08-19T03:08:01Z</time>
      </trkpt>
      <trkpt lat="42.220059" lon="2.812928">
        <ele>172</ele>
        <time>2019-08-19T03:08:02Z</time>
      </trkpt>
      <trkpt lat="42.220046" lon="2.812835">
        <ele>172</ele>
        <time>2019-08-19T03:08:04Z</time>
      </trkpt>
      <trkpt lat="42.220032" lon="2.812742">
        <ele>172</ele>
        <time>2019-08-19T03:08:05Z</time>
      </trkpt>
      <trkpt lat="42.220018" lon="2.812648">
        <ele>172</ele>
        <time>2019-08-19T03:08:07Z</time>
      </trkpt>
      <trkpt lat="42.220004" lon="2.812555">
        <ele>172</ele>
        <time>2019-08-19T03:08:08Z</time>
      </trkpt>
      <trkpt lat="42.21999" lon="2.812462">
        <ele>172</ele>
        <time>2019-08-19T03:08:09Z</time>
      </trkpt>
      <trkpt lat="42.219944" lon="2.81226">
        <ele>172</ele>
        <time>2019-08-19T03:08:10Z</time>
      </trkpt>
      <trkpt lat="42.219916" lon="2.812152">
        <ele>172</ele>
        <time>2019-08-19T03:08:11Z</time>
      </trkpt>
      <trkpt lat="42.219888" lon="2.812045">
        <ele>172</ele>
        <time>2019-08-19T03:08:12Z</time>
      </trkpt>
      <trkpt lat="42.21986" lon="2.811938">
        <ele>172</ele>
        <time>2019-08-19T03:08:13Z</time>
      </trkpt>
      <trkpt lat="42.219832" lon="2.81183">
        <ele>172</ele>
        <time>2019-08-19T03:08:14Z</time>
      </trkpt>
      <trkpt lat="42.219803" lon="2.811723">
        <ele>172</ele>
        <time>2019-08-19T03:08:15Z</time>
      </trkpt>
      <trkpt lat="42.219775" lon="2.811616">
        <ele>172</ele>
        <time>2019-08-19T03:08:16Z</time>
      </trkpt>
      <trkpt lat="42.219747" lon="2.811509">
        <ele>172</ele>
        <time>2019-08-19T03:08:17Z</time>
      </trkpt>
      <trkpt lat="42.219719" lon="2.811401">
        <ele>172</ele>
        <time>2019-08-19T03:08:18Z</time>
      </trkpt>
      <trkpt lat="42.219691" lon="2.811294">
        <ele>171</ele>
        <time>2019-08-19T03:08:20Z</time>
      </trkpt>
      <trkpt lat="42.219609" lon="2.811065">
        <ele>171</ele>
        <time>2019-08-19T03:08:21Z</time>
      </trkpt>
      <trkpt lat="42.219562" lon="2.810948">
        <ele>171</ele>
        <time>2019-08-19T03:08:23Z</time>
      </trkpt>
      <trkpt lat="42.219516" lon="2.810831">
        <ele>171</ele>
        <time>2019-08-19T03:08:24Z</time>
      </trkpt>
      <trkpt lat="42.219469" lon="2.810713">
        <ele>171</ele>
        <time>2019-08-19T03:08:25Z</time>
      </trkpt>
      <trkpt lat="42.219423" lon="2.810596">
        <ele>171</ele>
        <time>2019-08-19T03:08:26Z</time>
      </trkpt>
      <trkpt lat="42.219376" lon="2.810479">
        <ele>171</ele>
        <time>2019-08-19T03:08:27Z</time>
      </trkpt>
      <trkpt lat="42.21933" lon="2.810362">
        <ele>171</ele>
        <time>2019-08-19T03:08:28Z</time>
      </trkpt>
      <trkpt lat="42.219283" lon="2.810245">
        <ele>166</ele>
        <time>2019-08-19T03:08:29Z</time>
      </trkpt>
      <trkpt lat="42.219232" lon="2.810128">
        <ele>166</ele>
        <time>2019-08-19T03:08:30Z</time>
      </trkpt>
      <trkpt lat="42.219182" lon="2.810011">
        <ele>166</ele>
        <time>2019-08-19T03:08:31Z</time>
      </trkpt>
      <trkpt lat="42.219131" lon="2.809893">
        <ele>166</ele>
        <time>2019-08-19T03:08:32Z</time>
      </trkpt>
      <trkpt lat="42.21908" lon="2.809775">
        <ele>166</ele>
        <time>2019-08-19T03:08:33Z</time>
      </trkpt>
      <trkpt lat="42.219028" lon="2.809654">
        <ele>166</ele>
        <time>2019-08-19T03:08:34Z</time>
      </trkpt>
      <trkpt lat="42.218974" lon="2.809533">
        <ele>166</ele>
        <time>2019-08-19T03:08:35Z</time>
      </trkpt>
      <trkpt lat="42.21892" lon="2.809412">
        <ele>166</ele>
        <time>2019-08-19T03:08:36Z</time>
      </trkpt>
      <trkpt lat="42.218865" lon="2.809289">
        <ele>166</ele>
        <time>2019-08-19T03:08:37Z</time>
      </trkpt>
      <trkpt lat="42.218756" lon="2.809049">
        <ele>166</ele>
        <time>2019-08-19T03:08:38Z</time>
      </trkpt>
      <trkpt lat="42.218701" lon="2.808933">
        <ele>162</ele>
        <time>2019-08-19T03:08:40Z</time>
      </trkpt>
      <trkpt lat="42.218539" lon="2.808602">
        <ele>162</ele>
        <time>2019-08-19T03:08:42Z</time>
      </trkpt>
      <trkpt lat="42.218486" lon="2.808502">
        <ele>162</ele>
        <time>2019-08-19T03:08:43Z</time>
      </trkpt>
      <trkpt lat="42.218434" lon="2.808403">
        <ele>162</ele>
        <time>2019-08-19T03:08:45Z</time>
      </trkpt>
      <trkpt lat="42.218381" lon="2.808304">
        <ele>162</ele>
        <time>2019-08-19T03:08:46Z</time>
      </trkpt>
      <trkpt lat="42.218329" lon="2.808205">
        <ele>162</ele>
        <time>2019-08-19T03:08:47Z</time>
      </trkpt>
      <trkpt lat="42.218276" lon="2.808105">
        <ele>162</ele>
        <time>2019-08-19T03:08:48Z</time>
      </trkpt>
      <trkpt lat="42.218224" lon="2.808006">
        <ele>159</ele>
        <time>2019-08-19T03:08:49Z</time>
      </trkpt>
      <trkpt lat="42.218138" lon="2.807857">
        <ele>159</ele>
        <time>2019-08-19T03:08:50Z</time>
      </trkpt>
      <trkpt lat="42.218101" lon="2.807797">
        <ele>159</ele>
        <time>2019-08-19T03:08:51Z</time>
      </trkpt>
      <trkpt lat="42.218064" lon="2.807736">
        <ele>159</ele>
        <time>2019-08-19T03:08:52Z</time>
      </trkpt>
      <trkpt lat="42.218027" lon="2.807676">
        <ele>159</ele>
        <time>2019-08-19T03:08:53Z</time>
      </trkpt>
      <trkpt lat="42.217991" lon="2.807615">
        <ele>159</ele>
        <time>2019-08-19T03:08:54Z</time>
      </trkpt>
      <trkpt lat="42.217954" lon="2.807554">
        <ele>159</ele>
        <time>2019-08-19T03:08:55Z</time>
      </trkpt>
      <trkpt lat="42.217917" lon="2.807494">
        <ele>159</ele>
        <time>2019-08-19T03:08:56Z</time>
      </trkpt>
      <trkpt lat="42.21788" lon="2.807433">
        <ele>159</ele>
        <time>2019-08-19T03:08:57Z</time>
      </trkpt>
      <trkpt lat="42.217843" lon="2.807373">
        <ele>159</ele>
        <time>2019-08-19T03:08:58Z</time>
      </trkpt>
      <trkpt lat="42.217806" lon="2.807312">
        <ele>158</ele>
        <time>2019-08-19T03:08:59Z</time>
      </trkpt>
      <trkpt lat="42.217706" lon="2.80716">
        <ele>158</ele>
        <time>2019-08-19T03:09:01Z</time>
      </trkpt>
      <trkpt lat="42.217676" lon="2.807118">
        <ele>158</ele>
        <time>2019-08-19T03:09:02Z</time>
      </trkpt>
      <trkpt lat="42.217647" lon="2.807075">
        <ele>158</ele>
        <time>2019-08-19T03:09:03Z</time>
      </trkpt>
      <trkpt lat="42.217618" lon="2.807033">
        <ele>158</ele>
        <time>2019-08-19T03:09:04Z</time>
      </trkpt>
      <trkpt lat="42.217588" lon="2.80699">
        <ele>158</ele>
        <time>2019-08-19T03:09:05Z</time>
      </trkpt>
      <trkpt lat="42.217559" lon="2.806948">
        <ele>158</ele>
        <time>2019-08-19T03:09:06Z</time>
      </trkpt>
      <trkpt lat="42.21753" lon="2.806905">
        <ele>158</ele>
        <time>2019-08-19T03:09:07Z</time>
      </trkpt>
      <trkpt lat="42.2175" lon="2.806863">
        <ele>158</ele>
        <time>2019-08-19T03:09:08Z</time>
      </trkpt>
      <trkpt lat="42.217471" lon="2.80682">
        <ele>160</ele>
        <time>2019-08-19T03:09:09Z</time>
      </trkpt>
      <trkpt lat="42.217407" lon="2.806735">
        <ele>160</ele>
        <time>2019-08-19T03:09:10Z</time>
      </trkpt>
      <trkpt lat="42.217377" lon="2.806694">
        <ele>160</ele>
        <time>2019-08-19T03:09:11Z</time>
      </trkpt>
      <trkpt lat="42.217346" lon="2.806653">
        <ele>160</ele>
        <time>2019-08-19T03:09:12Z</time>
      </trkpt>
      <trkpt lat="42.217316" lon="2.806612">
        <ele>160</ele>
        <time>2019-08-19T03:09:13Z</time>
      </trkpt>
      <trkpt lat="42.217286" lon="2.80657">
        <ele>160</ele>
        <time>2019-08-19T03:09:14Z</time>
      </trkpt>
      <trkpt lat="42.217256" lon="2.806529">
        <ele>160</ele>
        <time>2019-08-19T03:09:15Z</time>
      </trkpt>
      <trkpt lat="42.217225" lon="2.806488">
        <ele>160</ele>
        <time>2019-08-19T03:09:16Z</time>
      </trkpt>
      <trkpt lat="42.217195" lon="2.806447">
        <ele>160</ele>
        <time>2019-08-19T03:09:18Z</time>
      </trkpt>
      <trkpt lat="42.217165" lon="2.806406">
        <ele>164</ele>
        <time>2019-08-19T03:09:19Z</time>
      </trkpt>
      <trkpt lat="42.217106" lon="2.806331">
        <ele>164</ele>
        <time>2019-08-19T03:09:20Z</time>
      </trkpt>
      <trkpt lat="42.217076" lon="2.806294">
        <ele>164</ele>
        <time>2019-08-19T03:09:21Z</time>
      </trkpt>
      <trkpt lat="42.217045" lon="2.806257">
        <ele>164</ele>
        <time>2019-08-19T03:09:22Z</time>
      </trkpt>
      <trkpt lat="42.217015" lon="2.80622">
        <ele>164</ele>
        <time>2019-08-19T03:09:23Z</time>
      </trkpt>
      <trkpt lat="42.216985" lon="2.806183">
        <ele>164</ele>
        <time>2019-08-19T03:09:24Z</time>
      </trkpt>
      <trkpt lat="42.216955" lon="2.806147">
        <ele>164</ele>
        <time>2019-08-19T03:09:25Z</time>
      </trkpt>
      <trkpt lat="42.216925" lon="2.80611">
        <ele>164</ele>
        <time>2019-08-19T03:09:26Z</time>
      </trkpt>
      <trkpt lat="42.216894" lon="2.806073">
        <ele>164</ele>
        <time>2019-08-19T03:09:27Z</time>
      </trkpt>
      <trkpt lat="42.216864" lon="2.806036">
        <ele>164</ele>
        <time>2019-08-19T03:09:28Z</time>
      </trkpt>
      <trkpt lat="42.216834" lon="2.805999">
        <ele>166</ele>
        <time>2019-08-19T03:09:30Z</time>
      </trkpt>
      <trkpt lat="42.216776" lon="2.80593">
        <ele>166</ele>
        <time>2019-08-19T03:09:31Z</time>
      </trkpt>
      <trkpt lat="42.216747" lon="2.805898">
        <ele>166</ele>
        <time>2019-08-19T03:09:32Z</time>
      </trkpt>
      <trkpt lat="42.216719" lon="2.805865">
        <ele>166</ele>
        <time>2019-08-19T03:09:33Z</time>
      </trkpt>
      <trkpt lat="42.21669" lon="2.805832">
        <ele>166</ele>
        <time>2019-08-19T03:09:34Z</time>
      </trkpt>
      <trkpt lat="42.216662" lon="2.8058">
        <ele>166</ele>
        <time>2019-08-19T03:09:35Z</time>
      </trkpt>
      <trkpt lat="42.216633" lon="2.805767">
        <ele>166</ele>
        <time>2019-08-19T03:09:36Z</time>
      </trkpt>
      <trkpt lat="42.216605" lon="2.805735">
        <ele>166</ele>
        <time>2019-08-19T03:09:37Z</time>
      </trkpt>
      <trkpt lat="42.216576" lon="2.805702">
        <ele>167</ele>
        <time>2019-08-19T03:09:39Z</time>
      </trkpt>
      <trkpt lat="42.216525" lon="2.805646">
        <ele>167</ele>
        <time>2019-08-19T03:09:40Z</time>
      </trkpt>
      <trkpt lat="42.216499" lon="2.805618">
        <ele>167</ele>
        <time>2019-08-19T03:09:41Z</time>
      </trkpt>
      <trkpt lat="42.216473" lon="2.80559">
        <ele>167</ele>
        <time>2019-08-19T03:09:43Z</time>
      </trkpt>
      <trkpt lat="42.216447" lon="2.805562">
        <ele>167</ele>
        <time>2019-08-19T03:09:44Z</time>
      </trkpt>
      <trkpt lat="42.21642" lon="2.805533">
        <ele>167</ele>
        <time>2019-08-19T03:09:45Z</time>
      </trkpt>
      <trkpt lat="42.216394" lon="2.805505">
        <ele>167</ele>
        <time>2019-08-19T03:09:46Z</time>
      </trkpt>
      <trkpt lat="42.216368" lon="2.805477">
        <ele>167</ele>
        <time>2019-08-19T03:09:47Z</time>
      </trkpt>
      <trkpt lat="42.216342" lon="2.805449">
        <ele>167</ele>
        <time>2019-08-19T03:09:48Z</time>
      </trkpt>
      <trkpt lat="42.216316" lon="2.805421">
        <ele>169</ele>
        <time>2019-08-19T03:09:49Z</time>
      </trkpt>
      <trkpt lat="42.216265" lon="2.805369">
        <ele>169</ele>
        <time>2019-08-19T03:09:50Z</time>
      </trkpt>
      <trkpt lat="42.21624" lon="2.805343">
        <ele>169</ele>
        <time>2019-08-19T03:09:51Z</time>
      </trkpt>
      <trkpt lat="42.216214" lon="2.805317">
        <ele>169</ele>
        <time>2019-08-19T03:09:52Z</time>
      </trkpt>
      <trkpt lat="42.216189" lon="2.805291">
        <ele>169</ele>
        <time>2019-08-19T03:09:53Z</time>
      </trkpt>
      <trkpt lat="42.216164" lon="2.805264">
        <ele>169</ele>
        <time>2019-08-19T03:09:54Z</time>
      </trkpt>
      <trkpt lat="42.216139" lon="2.805238">
        <ele>169</ele>
        <time>2019-08-19T03:09:55Z</time>
      </trkpt>
      <trkpt lat="42.216113" lon="2.805212">
        <ele>169</ele>
        <time>2019-08-19T03:09:56Z</time>
      </trkpt>
      <trkpt lat="42.216088" lon="2.805186">
        <ele>169</ele>
        <time>2019-08-19T03:09:58Z</time>
      </trkpt>
      <trkpt lat="42.216063" lon="2.80516">
        <ele>171</ele>
        <time>2019-08-19T03:09:59Z</time>
      </trkpt>
      <trkpt lat="42.216011" lon="2.805108">
        <ele>171</ele>
        <time>2019-08-19T03:10:00Z</time>
      </trkpt>
      <trkpt lat="42.215986" lon="2.805083">
        <ele>171</ele>
        <time>2019-08-19T03:10:01Z</time>
      </trkpt>
      <trkpt lat="42.215962" lon="2.805058">
        <ele>171</ele>
        <time>2019-08-19T03:10:02Z</time>
      </trkpt>
      <trkpt lat="42.215937" lon="2.805033">
        <ele>171</ele>
        <time>2019-08-19T03:10:03Z</time>
      </trkpt>
      <trkpt lat="42.215912" lon="2.805008">
        <ele>171</ele>
        <time>2019-08-19T03:10:04Z</time>
      </trkpt>
      <trkpt lat="42.215887" lon="2.804983">
        <ele>171</ele>
        <time>2019-08-19T03:10:05Z</time>
      </trkpt>
      <trkpt lat="42.215862" lon="2.804958">
        <ele>171</ele>
        <time>2019-08-19T03:10:06Z</time>
      </trkpt>
      <trkpt lat="42.215838" lon="2.804933">
        <ele>171</ele>
        <time>2019-08-19T03:10:07Z</time>
      </trkpt>
      <trkpt lat="42.215813" lon="2.804908">
        <ele>171</ele>
        <time>2019-08-19T03:10:08Z</time>
      </trkpt>
      <trkpt lat="42.215788" lon="2.804883">
        <ele>172</ele>
        <time>2019-08-19T03:10:09Z</time>
      </trkpt>
      <trkpt lat="42.215737" lon="2.804832">
        <ele>172</ele>
        <time>2019-08-19T03:10:10Z</time>
      </trkpt>
      <trkpt lat="42.215714" lon="2.804809">
        <ele>172</ele>
        <time>2019-08-19T03:10:11Z</time>
      </trkpt>
      <trkpt lat="42.21569" lon="2.804785">
        <ele>172</ele>
        <time>2019-08-19T03:10:12Z</time>
      </trkpt>
      <trkpt lat="42.215666" lon="2.804762">
        <ele>172</ele>
        <time>2019-08-19T03:10:13Z</time>
      </trkpt>
      <trkpt lat="42.215643" lon="2.804738">
        <ele>172</ele>
        <time>2019-08-19T03:10:14Z</time>
      </trkpt>
      <trkpt lat="42.215619" lon="2.804715">
        <ele>172</ele>
        <time>2019-08-19T03:10:15Z</time>
      </trkpt>
      <trkpt lat="42.215595" lon="2.804691">
        <ele>172</ele>
        <time>2019-08-19T03:10:16Z</time>
      </trkpt>
      <trkpt lat="42.215571" lon="2.804668">
        <ele>172</ele>
        <time>2019-08-19T03:10:17Z</time>
      </trkpt>
      <trkpt lat="42.215548" lon="2.804644">
        <ele>172</ele>
        <time>2019-08-19T03:10:18Z</time>
      </trkpt>
      <trkpt lat="42.215524" lon="2.804621">
        <ele>174</ele>
        <time>2019-08-19T03:10:19Z</time>
      </trkpt>
      <trkpt lat="42.215469" lon="2.804567">
        <ele>174</ele>
        <time>2019-08-19T03:10:20Z</time>
      </trkpt>
      <trkpt lat="42.215441" lon="2.804539">
        <ele>174</ele>
        <time>2019-08-19T03:10:21Z</time>
      </trkpt>
      <trkpt lat="42.215414" lon="2.804511">
        <ele>174</ele>
        <time>2019-08-19T03:10:22Z</time>
      </trkpt>
      <trkpt lat="42.215386" lon="2.804483">
        <ele>174</ele>
        <time>2019-08-19T03:10:23Z</time>
      </trkpt>
      <trkpt lat="42.215358" lon="2.804454">
        <ele>174</ele>
        <time>2019-08-19T03:10:24Z</time>
      </trkpt>
      <trkpt lat="42.21533" lon="2.804426">
        <ele>174</ele>
        <time>2019-08-19T03:10:25Z</time>
      </trkpt>
      <trkpt lat="42.215303" lon="2.804398">
        <ele>174</ele>
        <time>2019-08-19T03:10:26Z</time>
      </trkpt>
      <trkpt lat="42.215275" lon="2.80437">
        <ele>174</ele>
        <time>2019-08-19T03:10:28Z</time>
      </trkpt>
      <trkpt lat="42.215247" lon="2.804342">
        <ele>175</ele>
        <time>2019-08-19T03:10:29Z</time>
      </trkpt>
      <trkpt lat="42.215187" lon="2.804283">
        <ele>175</ele>
        <time>2019-08-19T03:10:30Z</time>
      </trkpt>
      <trkpt lat="42.215157" lon="2.804254">
        <ele>175</ele>
        <time>2019-08-19T03:10:31Z</time>
      </trkpt>
      <trkpt lat="42.215128" lon="2.804225">
        <ele>175</ele>
        <time>2019-08-19T03:10:32Z</time>
      </trkpt>
      <trkpt lat="42.215098" lon="2.804196">
        <ele>175</ele>
        <time>2019-08-19T03:10:33Z</time>
      </trkpt>
      <trkpt lat="42.215068" lon="2.804167">
        <ele>175</ele>
        <time>2019-08-19T03:10:34Z</time>
      </trkpt>
      <trkpt lat="42.215038" lon="2.804138">
        <ele>175</ele>
        <time>2019-08-19T03:10:36Z</time>
      </trkpt>
      <trkpt lat="42.215009" lon="2.804109">
        <ele>175</ele>
        <time>2019-08-19T03:10:37Z</time>
      </trkpt>
      <trkpt lat="42.214979" lon="2.80408">
        <ele>175</ele>
        <time>2019-08-19T03:10:38Z</time>
      </trkpt>
      <trkpt lat="42.214949" lon="2.804051">
        <ele>176</ele>
        <time>2019-08-19T03:10:39Z</time>
      </trkpt>
      <trkpt lat="42.214889" lon="2.803993">
        <ele>176</ele>
        <time>2019-08-19T03:10:40Z</time>
      </trkpt>
      <trkpt lat="42.214858" lon="2.803963">
        <ele>176</ele>
        <time>2019-08-19T03:10:42Z</time>
      </trkpt>
      <trkpt lat="42.214826" lon="2.803933">
        <ele>176</ele>
        <time>2019-08-19T03:10:43Z</time>
      </trkpt>
      <trkpt lat="42.214795" lon="2.803903">
        <ele>176</ele>
        <time>2019-08-19T03:10:44Z</time>
      </trkpt>
      <trkpt lat="42.214764" lon="2.803874">
        <ele>176</ele>
        <time>2019-08-19T03:10:45Z</time>
      </trkpt>
      <trkpt lat="42.214733" lon="2.803844">
        <ele>176</ele>
        <time>2019-08-19T03:10:46Z</time>
      </trkpt>
      <trkpt lat="42.214701" lon="2.803814">
        <ele>176</ele>
        <time>2019-08-19T03:10:47Z</time>
      </trkpt>
      <trkpt lat="42.21467" lon="2.803784">
        <ele>176</ele>
        <time>2019-08-19T03:10:48Z</time>
      </trkpt>
      <trkpt lat="42.214639" lon="2.803754">
        <ele>177</ele>
        <time>2019-08-19T03:10:49Z</time>
      </trkpt>
      <trkpt lat="42.214571" lon="2.803687">
        <ele>177</ele>
        <time>2019-08-19T03:10:50Z</time>
      </trkpt>
      <trkpt lat="42.214536" lon="2.803653">
        <ele>177</ele>
        <time>2019-08-19T03:10:51Z</time>
      </trkpt>
      <trkpt lat="42.214501" lon="2.80362">
        <ele>177</ele>
        <time>2019-08-19T03:10:52Z</time>
      </trkpt>
      <trkpt lat="42.214466" lon="2.803586">
        <ele>177</ele>
        <time>2019-08-19T03:10:53Z</time>
      </trkpt>
      <trkpt lat="42.21443" lon="2.803552">
        <ele>177</ele>
        <time>2019-08-19T03:10:55Z</time>
      </trkpt>
      <trkpt lat="42.214395" lon="2.803518">
        <ele>177</ele>
        <time>2019-08-19T03:10:56Z</time>
      </trkpt>
      <trkpt lat="42.21436" lon="2.803485">
        <ele>177</ele>
        <time>2019-08-19T03:10:57Z</time>
      </trkpt>
      <trkpt lat="42.214325" lon="2.803451">
        <ele>177</ele>
        <time>2019-08-19T03:10:58Z</time>
      </trkpt>
      <trkpt lat="42.21429" lon="2.803417">
        <ele>178</ele>
        <time>2019-08-19T03:10:59Z</time>
      </trkpt>
      <trkpt lat="42.214213" lon="2.803342">
        <ele>178</ele>
        <time>2019-08-19T03:11:00Z</time>
      </trkpt>
      <trkpt lat="42.214173" lon="2.803303">
        <ele>178</ele>
        <time>2019-08-19T03:11:01Z</time>
      </trkpt>
      <trkpt lat="42.214133" lon="2.803264">
        <ele>178</ele>
        <time>2019-08-19T03:11:02Z</time>
      </trkpt>
      <trkpt lat="42.214093" lon="2.803225">
        <ele>178</ele>
        <time>2019-08-19T03:11:03Z</time>
      </trkpt>
      <trkpt lat="42.214054" lon="2.803185">
        <ele>178</ele>
        <time>2019-08-19T03:11:04Z</time>
      </trkpt>
      <trkpt lat="42.214014" lon="2.803146">
        <ele>178</ele>
        <time>2019-08-19T03:11:06Z</time>
      </trkpt>
      <trkpt lat="42.213974" lon="2.803107">
        <ele>178</ele>
        <time>2019-08-19T03:11:07Z</time>
      </trkpt>
      <trkpt lat="42.213934" lon="2.803068">
        <ele>178</ele>
        <time>2019-08-19T03:11:08Z</time>
      </trkpt>
      <trkpt lat="42.213894" lon="2.803029">
        <ele>178</ele>
        <time>2019-08-19T03:11:09Z</time>
      </trkpt>
      <trkpt lat="42.213811" lon="2.80294">
        <ele>178</ele>
        <time>2019-08-19T03:11:10Z</time>
      </trkpt>
      <trkpt lat="42.21377" lon="2.802892">
        <ele>178</ele>
        <time>2019-08-19T03:11:11Z</time>
      </trkpt>
      <trkpt lat="42.213729" lon="2.802845">
        <ele>178</ele>
        <time>2019-08-19T03:11:12Z</time>
      </trkpt>
      <trkpt lat="42.213688" lon="2.802797">
        <ele>178</ele>
        <time>2019-08-19T03:11:13Z</time>
      </trkpt>
      <trkpt lat="42.213648" lon="2.802749">
        <ele>178</ele>
        <time>2019-08-19T03:11:14Z</time>
      </trkpt>
      <trkpt lat="42.213607" lon="2.802701">
        <ele>178</ele>
        <time>2019-08-19T03:11:16Z</time>
      </trkpt>
      <trkpt lat="42.213566" lon="2.802654">
        <ele>178</ele>
        <time>2019-08-19T03:11:17Z</time>
      </trkpt>
      <trkpt lat="42.213525" lon="2.802606">
        <ele>178</ele>
        <time>2019-08-19T03:11:18Z</time>
      </trkpt>
      <trkpt lat="42.213484" lon="2.802558">
        <ele>178</ele>
        <time>2019-08-19T03:11:19Z</time>
      </trkpt>
      <trkpt lat="42.213391" lon="2.802453">
        <ele>178</ele>
        <time>2019-08-19T03:11:20Z</time>
      </trkpt>
      <trkpt lat="42.213342" lon="2.8024">
        <ele>178</ele>
        <time>2019-08-19T03:11:21Z</time>
      </trkpt>
      <trkpt lat="42.213294" lon="2.802346">
        <ele>178</ele>
        <time>2019-08-19T03:11:22Z</time>
      </trkpt>
      <trkpt lat="42.213245" lon="2.802293">
        <ele>178</ele>
        <time>2019-08-19T03:11:24Z</time>
      </trkpt>
      <trkpt lat="42.213196" lon="2.80224">
        <ele>178</ele>
        <time>2019-08-19T03:11:25Z</time>
      </trkpt>
      <trkpt lat="42.213147" lon="2.802187">
        <ele>178</ele>
        <time>2019-08-19T03:11:26Z</time>
      </trkpt>
      <trkpt lat="42.213099" lon="2.802133">
        <ele>178</ele>
        <time>2019-08-19T03:11:27Z</time>
      </trkpt>
      <trkpt lat="42.21305" lon="2.80208">
        <ele>178</ele>
        <time>2019-08-19T03:11:28Z</time>
      </trkpt>
      <trkpt lat="42.213001" lon="2.802027">
        <ele>178</ele>
        <time>2019-08-19T03:11:29Z</time>
      </trkpt>
      <trkpt lat="42.212867" lon="2.80189">
        <ele>178</ele>
        <time>2019-08-19T03:11:31Z</time>
      </trkpt>
      <trkpt lat="42.212807" lon="2.801828">
        <ele>178</ele>
        <time>2019-08-19T03:11:32Z</time>
      </trkpt>
      <trkpt lat="42.212746" lon="2.801766">
        <ele>178</ele>
        <time>2019-08-19T03:11:33Z</time>
      </trkpt>
      <trkpt lat="42.212685" lon="2.801704">
        <ele>178</ele>
        <time>2019-08-19T03:11:34Z</time>
      </trkpt>
      <trkpt lat="42.212624" lon="2.801642">
        <ele>178</ele>
        <time>2019-08-19T03:11:35Z</time>
      </trkpt>
      <trkpt lat="42.212564" lon="2.80158">
        <ele>178</ele>
        <time>2019-08-19T03:11:36Z</time>
      </trkpt>
      <trkpt lat="42.212503" lon="2.801518">
        <ele>178</ele>
        <time>2019-08-19T03:11:37Z</time>
      </trkpt>
      <trkpt lat="42.212442" lon="2.801456">
        <ele>176</ele>
        <time>2019-08-19T03:11:39Z</time>
      </trkpt>
      <trkpt lat="42.212374" lon="2.801332">
        <ele>176</ele>
        <time>2019-08-19T03:11:40Z</time>
      </trkpt>
      <trkpt lat="42.212345" lon="2.801252">
        <ele>176</ele>
        <time>2019-08-19T03:11:41Z</time>
      </trkpt>
      <trkpt lat="42.212316" lon="2.801173">
        <ele>176</ele>
        <time>2019-08-19T03:11:42Z</time>
      </trkpt>
      <trkpt lat="42.212287" lon="2.801093">
        <ele>176</ele>
        <time>2019-08-19T03:11:43Z</time>
      </trkpt>
      <trkpt lat="42.212258" lon="2.801013">
        <ele>176</ele>
        <time>2019-08-19T03:11:44Z</time>
      </trkpt>
      <trkpt lat="42.212228" lon="2.800933">
        <ele>176</ele>
        <time>2019-08-19T03:11:45Z</time>
      </trkpt>
      <trkpt lat="42.212199" lon="2.800853">
        <ele>176</ele>
        <time>2019-08-19T03:11:46Z</time>
      </trkpt>
      <trkpt lat="42.21217" lon="2.800774">
        <ele>176</ele>
        <time>2019-08-19T03:11:47Z</time>
      </trkpt>
      <trkpt lat="42.212141" lon="2.800694">
        <ele>176</ele>
        <time>2019-08-19T03:11:48Z</time>
      </trkpt>
      <trkpt lat="42.212112" lon="2.800614">
        <ele>173</ele>
        <time>2019-08-19T03:11:49Z</time>
      </trkpt>
      <trkpt lat="42.212139" lon="2.800451">
        <ele>173</ele>
        <time>2019-08-19T03:11:50Z</time>
      </trkpt>
      <trkpt lat="42.212165" lon="2.800366">
        <ele>173</ele>
        <time>2019-08-19T03:11:52Z</time>
      </trkpt>
      <trkpt lat="42.212191" lon="2.800281">
        <ele>173</ele>
        <time>2019-08-19T03:11:54Z</time>
      </trkpt>
      <trkpt lat="42.212218" lon="2.800196">
        <ele>173</ele>
        <time>2019-08-19T03:11:55Z</time>
      </trkpt>
      <trkpt lat="42.212244" lon="2.800111">
        <ele>173</ele>
        <time>2019-08-19T03:11:56Z</time>
      </trkpt>
      <trkpt lat="42.21227" lon="2.800026">
        <ele>173</ele>
        <time>2019-08-19T03:11:57Z</time>
      </trkpt>
      <trkpt lat="42.212296" lon="2.799941">
        <ele>173</ele>
        <time>2019-08-19T03:11:58Z</time>
      </trkpt>
      <trkpt lat="42.212322" lon="2.799856">
        <ele>175</ele>
        <time>2019-08-19T03:11:59Z</time>
      </trkpt>
      <trkpt lat="42.212395" lon="2.799703">
        <ele>175</ele>
        <time>2019-08-19T03:12:00Z</time>
      </trkpt>
      <trkpt lat="42.212436" lon="2.799628">
        <ele>175</ele>
        <time>2019-08-19T03:12:02Z</time>
      </trkpt>
      <trkpt lat="42.212477" lon="2.799552">
        <ele>175</ele>
        <time>2019-08-19T03:12:03Z</time>
      </trkpt>
      <trkpt lat="42.212518" lon="2.799477">
        <ele>175</ele>
        <time>2019-08-19T03:12:04Z</time>
      </trkpt>
      <trkpt lat="42.212558" lon="2.799401">
        <ele>175</ele>
        <time>2019-08-19T03:12:05Z</time>
      </trkpt>
      <trkpt lat="42.212599" lon="2.799326">
        <ele>175</ele>
        <time>2019-08-19T03:12:06Z</time>
      </trkpt>
      <trkpt lat="42.21264" lon="2.79925">
        <ele>175</ele>
        <time>2019-08-19T03:12:07Z</time>
      </trkpt>
      <trkpt lat="42.212681" lon="2.799175">
        <ele>175</ele>
        <time>2019-08-19T03:12:08Z</time>
      </trkpt>
      <trkpt lat="42.212722" lon="2.799099">
        <ele>174</ele>
        <time>2019-08-19T03:12:09Z</time>
      </trkpt>
      <trkpt lat="42.212857" lon="2.798875">
        <ele>174</ele>
        <time>2019-08-19T03:12:11Z</time>
      </trkpt>
      <trkpt lat="42.212905" lon="2.798799">
        <ele>174</ele>
        <time>2019-08-19T03:12:12Z</time>
      </trkpt>
      <trkpt lat="42.212952" lon="2.798723">
        <ele>174</ele>
        <time>2019-08-19T03:12:13Z</time>
      </trkpt>
      <trkpt lat="42.212999" lon="2.798648">
        <ele>174</ele>
        <time>2019-08-19T03:12:14Z</time>
      </trkpt>
      <trkpt lat="42.213046" lon="2.798572">
        <ele>174</ele>
        <time>2019-08-19T03:12:16Z</time>
      </trkpt>
      <trkpt lat="42.213094" lon="2.798496">
        <ele>174</ele>
        <time>2019-08-19T03:12:17Z</time>
      </trkpt>
      <trkpt lat="42.213141" lon="2.79842">
        <ele>174</ele>
        <time>2019-08-19T03:12:18Z</time>
      </trkpt>
      <trkpt lat="42.213188" lon="2.798344">
        <ele>172</ele>
        <time>2019-08-19T03:12:19Z</time>
      </trkpt>
      <trkpt lat="42.213316" lon="2.798197">
        <ele>172</ele>
        <time>2019-08-19T03:12:20Z</time>
      </trkpt>
      <trkpt lat="42.213393" lon="2.798127">
        <ele>172</ele>
        <time>2019-08-19T03:12:21Z</time>
      </trkpt>
      <trkpt lat="42.213469" lon="2.798058">
        <ele>172</ele>
        <time>2019-08-19T03:12:23Z</time>
      </trkpt>
      <trkpt lat="42.213546" lon="2.797988">
        <ele>172</ele>
        <time>2019-08-19T03:12:24Z</time>
      </trkpt>
      <trkpt lat="42.213623" lon="2.797919">
        <ele>172</ele>
        <time>2019-08-19T03:12:25Z</time>
      </trkpt>
      <trkpt lat="42.2137" lon="2.797849">
        <ele>172</ele>
        <time>2019-08-19T03:12:26Z</time>
      </trkpt>
      <trkpt lat="42.213776" lon="2.79778">
        <ele>172</ele>
        <time>2019-08-19T03:12:27Z</time>
      </trkpt>
      <trkpt lat="42.213853" lon="2.79771">
        <ele>172</ele>
        <time>2019-08-19T03:12:29Z</time>
      </trkpt>
      <trkpt lat="42.213982" lon="2.797601">
        <ele>172</ele>
        <time>2019-08-19T03:12:30Z</time>
      </trkpt>
      <trkpt lat="42.214035" lon="2.797544">
        <ele>172</ele>
        <time>2019-08-19T03:12:31Z</time>
      </trkpt>
      <trkpt lat="42.214088" lon="2.797487">
        <ele>172</ele>
        <time>2019-08-19T03:12:32Z</time>
      </trkpt>
      <trkpt lat="42.214141" lon="2.79743">
        <ele>172</ele>
        <time>2019-08-19T03:12:33Z</time>
      </trkpt>
      <trkpt lat="42.214194" lon="2.797373">
        <ele>172</ele>
        <time>2019-08-19T03:12:34Z</time>
      </trkpt>
      <trkpt lat="42.214247" lon="2.797316">
        <ele>172</ele>
        <time>2019-08-19T03:12:35Z</time>
      </trkpt>
      <trkpt lat="42.2143" lon="2.797259">
        <ele>172</ele>
        <time>2019-08-19T03:12:36Z</time>
      </trkpt>
      <trkpt lat="42.214353" lon="2.797202">
        <ele>172</ele>
        <time>2019-08-19T03:12:37Z</time>
      </trkpt>
      <trkpt lat="42.214406" lon="2.797145">
        <ele>172</ele>
        <time>2019-08-19T03:12:38Z</time>
      </trkpt>
      <trkpt lat="42.214459" lon="2.797088">
        <ele>169</ele>
        <time>2019-08-19T03:12:39Z</time>
      </trkpt>
      <trkpt lat="42.214378" lon="2.796849">
        <ele>169</ele>
        <time>2019-08-19T03:12:41Z</time>
      </trkpt>
      <trkpt lat="42.214313" lon="2.796782">
        <ele>169</ele>
        <time>2019-08-19T03:12:42Z</time>
      </trkpt>
      <trkpt lat="42.214249" lon="2.796715">
        <ele>169</ele>
        <time>2019-08-19T03:12:43Z</time>
      </trkpt>
      <trkpt lat="42.214185" lon="2.796647">
        <ele>169</ele>
        <time>2019-08-19T03:12:44Z</time>
      </trkpt>
      <trkpt lat="42.21412" lon="2.79658">
        <ele>169</ele>
        <time>2019-08-19T03:12:45Z</time>
      </trkpt>
      <trkpt lat="42.214056" lon="2.796513">
        <ele>169</ele>
        <time>2019-08-19T03:12:46Z</time>
      </trkpt>
      <trkpt lat="42.213991" lon="2.796446">
        <ele>169</ele>
        <time>2019-08-19T03:12:47Z</time>
      </trkpt>
      <trkpt lat="42.213927" lon="2.796379">
        <ele>167</ele>
        <time>2019-08-19T03:12:49Z</time>
      </trkpt>
      <trkpt lat="42.213848" lon="2.79616">
        <ele>167</ele>
        <time>2019-08-19T03:12:50Z</time>
      </trkpt>
      <trkpt lat="42.213831" lon="2.796025">
        <ele>167</ele>
        <time>2019-08-19T03:12:51Z</time>
      </trkpt>
      <trkpt lat="42.213814" lon="2.795889">
        <ele>167</ele>
        <time>2019-08-19T03:12:53Z</time>
      </trkpt>
      <trkpt lat="42.213797" lon="2.795754">
        <ele>167</ele>
        <time>2019-08-19T03:12:54Z</time>
      </trkpt>
      <trkpt lat="42.213779" lon="2.795618">
        <ele>167</ele>
        <time>2019-08-19T03:12:55Z</time>
      </trkpt>
      <trkpt lat="42.213762" lon="2.795483">
        <ele>167</ele>
        <time>2019-08-19T03:12:56Z</time>
      </trkpt>
      <trkpt lat="42.213745" lon="2.795347">
        <ele>167</ele>
        <time>2019-08-19T03:12:57Z</time>
      </trkpt>
      <trkpt lat="42.213728" lon="2.795212">
        <ele>165</ele>
        <time>2019-08-19T03:12:59Z</time>
      </trkpt>
      <trkpt lat="42.213643" lon="2.794988">
        <ele>165</ele>
        <time>2019-08-19T03:13:00Z</time>
      </trkpt>
      <trkpt lat="42.21358" lon="2.794887">
        <ele>165</ele>
        <time>2019-08-19T03:13:01Z</time>
      </trkpt>
      <trkpt lat="42.213516" lon="2.794786">
        <ele>165</ele>
        <time>2019-08-19T03:13:02Z</time>
      </trkpt>
      <trkpt lat="42.213453" lon="2.794684">
        <ele>165</ele>
        <time>2019-08-19T03:13:04Z</time>
      </trkpt>
      <trkpt lat="42.21339" lon="2.794583">
        <ele>165</ele>
        <time>2019-08-19T03:13:05Z</time>
      </trkpt>
      <trkpt lat="42.213327" lon="2.794482">
        <ele>165</ele>
        <time>2019-08-19T03:13:06Z</time>
      </trkpt>
      <trkpt lat="42.213263" lon="2.794381">
        <ele>165</ele>
        <time>2019-08-19T03:13:08Z</time>
      </trkpt>
      <trkpt lat="42.2132" lon="2.79428">
        <ele>161</ele>
        <time>2019-08-19T03:13:09Z</time>
      </trkpt>
      <trkpt lat="42.213035" lon="2.794158">
        <ele>161</ele>
        <time>2019-08-19T03:13:10Z</time>
      </trkpt>
      <trkpt lat="42.212966" lon="2.794137">
        <ele>161</ele>
        <time>2019-08-19T03:13:11Z</time>
      </trkpt>
      <trkpt lat="42.212896" lon="2.794116">
        <ele>161</ele>
        <time>2019-08-19T03:13:14Z</time>
      </trkpt>
      <trkpt lat="42.212826" lon="2.794095">
        <ele>161</ele>
        <time>2019-08-19T03:13:15Z</time>
      </trkpt>
      <trkpt lat="42.212756" lon="2.794074">
        <ele>161</ele>
        <time>2019-08-19T03:13:17Z</time>
      </trkpt>
      <trkpt lat="42.212687" lon="2.794053">
        <ele>161</ele>
        <time>2019-08-19T03:13:18Z</time>
      </trkpt>
      <trkpt lat="42.212617" lon="2.794032">
        <ele>162</ele>
        <time>2019-08-19T03:13:19Z</time>
      </trkpt>
      <trkpt lat="42.212537" lon="2.794054">
        <ele>162</ele>
        <time>2019-08-19T03:13:20Z</time>
      </trkpt>
      <trkpt lat="42.212501" lon="2.794067">
        <ele>162</ele>
        <time>2019-08-19T03:13:21Z</time>
      </trkpt>
      <trkpt lat="42.212464" lon="2.794079">
        <ele>162</ele>
        <time>2019-08-19T03:13:22Z</time>
      </trkpt>
      <trkpt lat="42.212428" lon="2.794092">
        <ele>162</ele>
        <time>2019-08-19T03:13:23Z</time>
      </trkpt>
      <trkpt lat="42.212391" lon="2.794105">
        <ele>162</ele>
        <time>2019-08-19T03:13:24Z</time>
      </trkpt>
      <trkpt lat="42.212355" lon="2.794118">
        <ele>162</ele>
        <time>2019-08-19T03:13:25Z</time>
      </trkpt>
      <trkpt lat="42.212318" lon="2.79413">
        <ele>162</ele>
        <time>2019-08-19T03:13:27Z</time>
      </trkpt>
      <trkpt lat="42.212282" lon="2.794143">
        <ele>162</ele>
        <time>2019-08-19T03:13:28Z</time>
      </trkpt>
      <trkpt lat="42.212245" lon="2.794156">
        <ele>166</ele>
        <time>2019-08-19T03:13:29Z</time>
      </trkpt>
      <trkpt lat="42.212182" lon="2.79418">
        <ele>166</ele>
        <time>2019-08-19T03:13:30Z</time>
      </trkpt>
      <trkpt lat="42.212153" lon="2.794191">
        <ele>166</ele>
        <time>2019-08-19T03:13:31Z</time>
      </trkpt>
      <trkpt lat="42.212123" lon="2.794201">
        <ele>166</ele>
        <time>2019-08-19T03:13:32Z</time>
      </trkpt>
      <trkpt lat="42.212093" lon="2.794211">
        <ele>166</ele>
        <time>2019-08-19T03:13:33Z</time>
      </trkpt>
      <trkpt lat="42.212064" lon="2.794222">
        <ele>166</ele>
        <time>2019-08-19T03:13:34Z</time>
      </trkpt>
      <trkpt lat="42.212034" lon="2.794232">
        <ele>166</ele>
        <time>2019-08-19T03:13:35Z</time>
      </trkpt>
      <trkpt lat="42.212004" lon="2.794242">
        <ele>166</ele>
        <time>2019-08-19T03:13:36Z</time>
      </trkpt>
      <trkpt lat="42.211974" lon="2.794252">
        <ele>166</ele>
        <time>2019-08-19T03:13:37Z</time>
      </trkpt>
      <trkpt lat="42.211945" lon="2.794263">
        <ele>166</ele>
        <time>2019-08-19T03:13:38Z</time>
      </trkpt>
      <trkpt lat="42.211915" lon="2.794273">
        <ele>167</ele>
        <time>2019-08-19T03:13:39Z</time>
      </trkpt>
      <trkpt lat="42.211822" lon="2.794307">
        <ele>167</ele>
        <time>2019-08-19T03:13:41Z</time>
      </trkpt>
      <trkpt lat="42.211792" lon="2.794321">
        <ele>167</ele>
        <time>2019-08-19T03:13:42Z</time>
      </trkpt>
      <trkpt lat="42.211762" lon="2.794334">
        <ele>167</ele>
        <time>2019-08-19T03:13:43Z</time>
      </trkpt>
      <trkpt lat="42.211732" lon="2.794347">
        <ele>167</ele>
        <time>2019-08-19T03:13:45Z</time>
      </trkpt>
      <trkpt lat="42.211702" lon="2.79436">
        <ele>167</ele>
        <time>2019-08-19T03:13:46Z</time>
      </trkpt>
      <trkpt lat="42.211672" lon="2.794374">
        <ele>167</ele>
        <time>2019-08-19T03:13:47Z</time>
      </trkpt>
      <trkpt lat="42.211642" lon="2.794387">
        <ele>169</ele>
        <time>2019-08-19T03:13:49Z</time>
      </trkpt>
      <trkpt lat="42.211585" lon="2.794411">
        <ele>169</ele>
        <time>2019-08-19T03:13:50Z</time>
      </trkpt>
      <trkpt lat="42.211558" lon="2.794419">
        <ele>169</ele>
        <time>2019-08-19T03:13:51Z</time>
      </trkpt>
      <trkpt lat="42.211531" lon="2.794428">
        <ele>169</ele>
        <time>2019-08-19T03:13:52Z</time>
      </trkpt>
      <trkpt lat="42.211504" lon="2.794436">
        <ele>169</ele>
        <time>2019-08-19T03:13:53Z</time>
      </trkpt>
      <trkpt lat="42.211477" lon="2.794444">
        <ele>169</ele>
        <time>2019-08-19T03:13:54Z</time>
      </trkpt>
      <trkpt lat="42.21145" lon="2.794452">
        <ele>169</ele>
        <time>2019-08-19T03:13:55Z</time>
      </trkpt>
      <trkpt lat="42.211423" lon="2.79446">
        <ele>169</ele>
        <time>2019-08-19T03:13:56Z</time>
      </trkpt>
      <trkpt lat="42.211396" lon="2.794469">
        <ele>169</ele>
        <time>2019-08-19T03:13:57Z</time>
      </trkpt>
      <trkpt lat="42.211369" lon="2.794477">
        <ele>169</ele>
        <time>2019-08-19T03:13:58Z</time>
      </trkpt>
      <trkpt lat="42.211342" lon="2.794485">
        <ele>171</ele>
        <time>2019-08-19T03:13:59Z</time>
      </trkpt>
      <trkpt lat="42.211276" lon="2.794508">
        <ele>171</ele>
        <time>2019-08-19T03:14:00Z</time>
      </trkpt>
      <trkpt lat="42.211243" lon="2.794519">
        <ele>171</ele>
        <time>2019-08-19T03:14:01Z</time>
      </trkpt>
      <trkpt lat="42.211209" lon="2.79453">
        <ele>171</ele>
        <time>2019-08-19T03:14:03Z</time>
      </trkpt>
      <trkpt lat="42.211176" lon="2.794541">
        <ele>171</ele>
        <time>2019-08-19T03:14:04Z</time>
      </trkpt>
      <trkpt lat="42.211142" lon="2.794552">
        <ele>171</ele>
        <time>2019-08-19T03:14:05Z</time>
      </trkpt>
      <trkpt lat="42.211108" lon="2.794563">
        <ele>171</ele>
        <time>2019-08-19T03:14:06Z</time>
      </trkpt>
      <trkpt lat="42.211075" lon="2.794574">
        <ele>171</ele>
        <time>2019-08-19T03:14:07Z</time>
      </trkpt>
      <trkpt lat="42.211041" lon="2.794585">
        <ele>172</ele>
        <time>2019-08-19T03:14:09Z</time>
      </trkpt>
      <trkpt lat="42.210948" lon="2.794615">
        <ele>172</ele>
        <time>2019-08-19T03:14:10Z</time>
      </trkpt>
      <trkpt lat="42.210914" lon="2.794626">
        <ele>172</ele>
        <time>2019-08-19T03:14:12Z</time>
      </trkpt>
      <trkpt lat="42.21088" lon="2.794636">
        <ele>172</ele>
        <time>2019-08-19T03:14:13Z</time>
      </trkpt>
      <trkpt lat="42.210846" lon="2.794646">
        <ele>172</ele>
        <time>2019-08-19T03:14:15Z</time>
      </trkpt>
      <trkpt lat="42.210812" lon="2.794656">
        <ele>172</ele>
        <time>2019-08-19T03:14:16Z</time>
      </trkpt>
      <trkpt lat="42.210778" lon="2.794667">
        <ele>172</ele>
        <time>2019-08-19T03:14:18Z</time>
      </trkpt>
      <trkpt lat="42.210744" lon="2.794677">
        <ele>172</ele>
        <time>2019-08-19T03:14:19Z</time>
      </trkpt>
      <trkpt lat="42.210639" lon="2.794712">
        <ele>172</ele>
        <time>2019-08-19T03:14:21Z</time>
      </trkpt>
      <trkpt lat="42.210595" lon="2.794726">
        <ele>172</ele>
        <time>2019-08-19T03:14:22Z</time>
      </trkpt>
      <trkpt lat="42.210551" lon="2.79474">
        <ele>172</ele>
        <time>2019-08-19T03:14:24Z</time>
      </trkpt>
      <trkpt lat="42.210508" lon="2.794753">
        <ele>172</ele>
        <time>2019-08-19T03:14:25Z</time>
      </trkpt>
      <trkpt lat="42.210464" lon="2.794767">
        <ele>172</ele>
        <time>2019-08-19T03:14:27Z</time>
      </trkpt>
      <trkpt lat="42.21042" lon="2.794781">
        <ele>172</ele>
        <time>2019-08-19T03:14:28Z</time>
      </trkpt>
      <trkpt lat="42.210376" lon="2.794795">
        <ele>174</ele>
        <time>2019-08-19T03:14:30Z</time>
      </trkpt>
      <trkpt lat="42.210311" lon="2.794807">
        <ele>174</ele>
        <time>2019-08-19T03:14:31Z</time>
      </trkpt>
      <trkpt lat="42.210278" lon="2.794811">
        <ele>174</ele>
        <time>2019-08-19T03:14:33Z</time>
      </trkpt>
      <trkpt lat="42.210246" lon="2.794815">
        <ele>174</ele>
        <time>2019-08-19T03:14:34Z</time>
      </trkpt>
      <trkpt lat="42.210213" lon="2.79482">
        <ele>174</ele>
        <time>2019-08-19T03:14:35Z</time>
      </trkpt>
      <trkpt lat="42.210181" lon="2.794824">
        <ele>174</ele>
        <time>2019-08-19T03:14:36Z</time>
      </trkpt>
      <trkpt lat="42.210148" lon="2.794828">
        <ele>174</ele>
        <time>2019-08-19T03:14:37Z</time>
      </trkpt>
      <trkpt lat="42.210116" lon="2.794832">
        <ele>174</ele>
        <time>2019-08-19T03:14:38Z</time>
      </trkpt>
      <trkpt lat="42.210083" lon="2.794836">
        <ele>176</ele>
        <time>2019-08-19T03:14:39Z</time>
      </trkpt>
      <trkpt lat="42.210022" lon="2.794818">
        <ele>176</ele>
        <time>2019-08-19T03:14:40Z</time>
      </trkpt>
      <trkpt lat="42.209995" lon="2.794799">
        <ele>176</ele>
        <time>2019-08-19T03:14:41Z</time>
      </trkpt>
      <trkpt lat="42.209968" lon="2.79478">
        <ele>176</ele>
        <time>2019-08-19T03:14:42Z</time>
      </trkpt>
      <trkpt lat="42.209941" lon="2.794761">
        <ele>176</ele>
        <time>2019-08-19T03:14:44Z</time>
      </trkpt>
      <trkpt lat="42.209915" lon="2.794743">
        <ele>176</ele>
        <time>2019-08-19T03:14:45Z</time>
      </trkpt>
      <trkpt lat="42.209888" lon="2.794724">
        <ele>176</ele>
        <time>2019-08-19T03:14:46Z</time>
      </trkpt>
      <trkpt lat="42.209861" lon="2.794705">
        <ele>176</ele>
        <time>2019-08-19T03:14:47Z</time>
      </trkpt>
      <trkpt lat="42.209834" lon="2.794686">
        <ele>176</ele>
        <time>2019-08-19T03:14:48Z</time>
      </trkpt>
      <trkpt lat="42.209807" lon="2.794667">
        <ele>176</ele>
        <time>2019-08-19T03:14:49Z</time>
      </trkpt>
      <trkpt lat="42.209769" lon="2.794599">
        <ele>176</ele>
        <time>2019-08-19T03:14:50Z</time>
      </trkpt>
      <trkpt lat="42.209752" lon="2.79456">
        <ele>176</ele>
        <time>2019-08-19T03:14:51Z</time>
      </trkpt>
      <trkpt lat="42.209735" lon="2.794521">
        <ele>176</ele>
        <time>2019-08-19T03:14:53Z</time>
      </trkpt>
      <trkpt lat="42.209718" lon="2.794482">
        <ele>176</ele>
        <time>2019-08-19T03:14:54Z</time>
      </trkpt>
      <trkpt lat="42.2097" lon="2.794444">
        <ele>176</ele>
        <time>2019-08-19T03:14:56Z</time>
      </trkpt>
      <trkpt lat="42.209683" lon="2.794405">
        <ele>176</ele>
        <time>2019-08-19T03:14:57Z</time>
      </trkpt>
      <trkpt lat="42.209666" lon="2.794366">
        <ele>176</ele>
        <time>2019-08-19T03:14:58Z</time>
      </trkpt>
      <trkpt lat="42.209649" lon="2.794327">
        <ele>178</ele>
        <time>2019-08-19T03:14:59Z</time>
      </trkpt>
      <trkpt lat="42.209621" lon="2.794236">
        <ele>178</ele>
        <time>2019-08-19T03:15:00Z</time>
      </trkpt>
      <trkpt lat="42.209605" lon="2.794181">
        <ele>178</ele>
        <time>2019-08-19T03:15:01Z</time>
      </trkpt>
      <trkpt lat="42.20959" lon="2.794127">
        <ele>178</ele>
        <time>2019-08-19T03:15:03Z</time>
      </trkpt>
      <trkpt lat="42.209575" lon="2.794073">
        <ele>178</ele>
        <time>2019-08-19T03:15:04Z</time>
      </trkpt>
      <trkpt lat="42.20956" lon="2.794019">
        <ele>178</ele>
        <time>2019-08-19T03:15:06Z</time>
      </trkpt>
      <trkpt lat="42.209544" lon="2.793964">
        <ele>178</ele>
        <time>2019-08-19T03:15:07Z</time>
      </trkpt>
      <trkpt lat="42.209529" lon="2.79391">
        <ele>180</ele>
        <time>2019-08-19T03:15:09Z</time>
      </trkpt>
      <trkpt lat="42.209518" lon="2.793793">
        <ele>180</ele>
        <time>2019-08-19T03:15:10Z</time>
      </trkpt>
      <trkpt lat="42.20952" lon="2.793729">
        <ele>180</ele>
        <time>2019-08-19T03:15:11Z</time>
      </trkpt>
      <trkpt lat="42.209521" lon="2.793665">
        <ele>180</ele>
        <time>2019-08-19T03:15:12Z</time>
      </trkpt>
      <trkpt lat="42.209523" lon="2.793601">
        <ele>180</ele>
        <time>2019-08-19T03:15:13Z</time>
      </trkpt>
      <trkpt lat="42.209525" lon="2.793536">
        <ele>180</ele>
        <time>2019-08-19T03:15:15Z</time>
      </trkpt>
      <trkpt lat="42.209527" lon="2.793472">
        <ele>180</ele>
        <time>2019-08-19T03:15:16Z</time>
      </trkpt>
      <trkpt lat="42.209528" lon="2.793408">
        <ele>180</ele>
        <time>2019-08-19T03:15:17Z</time>
      </trkpt>
      <trkpt lat="42.20953" lon="2.793344">
        <ele>181</ele>
        <time>2019-08-19T03:15:19Z</time>
      </trkpt>
      <trkpt lat="42.209571" lon="2.793236">
        <ele>181</ele>
        <time>2019-08-19T03:15:20Z</time>
      </trkpt>
      <trkpt lat="42.209596" lon="2.793186">
        <ele>181</ele>
        <time>2019-08-19T03:15:21Z</time>
      </trkpt>
      <trkpt lat="42.20962" lon="2.793135">
        <ele>181</ele>
        <time>2019-08-19T03:15:22Z</time>
      </trkpt>
      <trkpt lat="42.209645" lon="2.793084">
        <ele>181</ele>
        <time>2019-08-19T03:15:23Z</time>
      </trkpt>
      <trkpt lat="42.209669" lon="2.793034">
        <ele>181</ele>
        <time>2019-08-19T03:15:24Z</time>
      </trkpt>
      <trkpt lat="42.209694" lon="2.792983">
        <ele>181</ele>
        <time>2019-08-19T03:15:25Z</time>
      </trkpt>
      <trkpt lat="42.209718" lon="2.792932">
        <ele>181</ele>
        <time>2019-08-19T03:15:27Z</time>
      </trkpt>
      <trkpt lat="42.209743" lon="2.792882">
        <ele>181</ele>
        <time>2019-08-19T03:15:28Z</time>
      </trkpt>
      <trkpt lat="42.209767" lon="2.792831">
        <ele>181</ele>
        <time>2019-08-19T03:15:29Z</time>
      </trkpt>
      <trkpt lat="42.209825" lon="2.792711">
        <ele>181</ele>
        <time>2019-08-19T03:15:30Z</time>
      </trkpt>
      <trkpt lat="42.209856" lon="2.792643">
        <ele>181</ele>
        <time>2019-08-19T03:15:32Z</time>
      </trkpt>
      <trkpt lat="42.209888" lon="2.792576">
        <ele>181</ele>
        <time>2019-08-19T03:15:34Z</time>
      </trkpt>
      <trkpt lat="42.20992" lon="2.792508">
        <ele>181</ele>
        <time>2019-08-19T03:15:35Z</time>
      </trkpt>
      <trkpt lat="42.209952" lon="2.792441">
        <ele>181</ele>
        <time>2019-08-19T03:15:37Z</time>
      </trkpt>
      <trkpt lat="42.209983" lon="2.792373">
        <ele>181</ele>
        <time>2019-08-19T03:15:38Z</time>
      </trkpt>
      <trkpt lat="42.210015" lon="2.792306">
        <ele>182</ele>
        <time>2019-08-19T03:15:39Z</time>
      </trkpt>
      <trkpt lat="42.210071" lon="2.792169">
        <ele>182</ele>
        <time>2019-08-19T03:15:40Z</time>
      </trkpt>
      <trkpt lat="42.210086" lon="2.792109">
        <ele>182</ele>
        <time>2019-08-19T03:15:41Z</time>
      </trkpt>
      <trkpt lat="42.210102" lon="2.79205">
        <ele>182</ele>
        <time>2019-08-19T03:15:42Z</time>
      </trkpt>
      <trkpt lat="42.210117" lon="2.79199">
        <ele>182</ele>
        <time>2019-08-19T03:15:43Z</time>
      </trkpt>
      <trkpt lat="42.210132" lon="2.791931">
        <ele>182</ele>
        <time>2019-08-19T03:15:44Z</time>
      </trkpt>
      <trkpt lat="42.210147" lon="2.791872">
        <ele>182</ele>
        <time>2019-08-19T03:15:45Z</time>
      </trkpt>
      <trkpt lat="42.210162" lon="2.791812">
        <ele>182</ele>
        <time>2019-08-19T03:15:46Z</time>
      </trkpt>
      <trkpt lat="42.210178" lon="2.791753">
        <ele>182</ele>
        <time>2019-08-19T03:15:47Z</time>
      </trkpt>
      <trkpt lat="42.210193" lon="2.791693">
        <ele>182</ele>
        <time>2019-08-19T03:15:48Z</time>
      </trkpt>
      <trkpt lat="42.210208" lon="2.791634">
        <ele>182</ele>
        <time>2019-08-19T03:15:49Z</time>
      </trkpt>
      <trkpt lat="42.210195" lon="2.791461">
        <ele>182</ele>
        <time>2019-08-19T03:15:50Z</time>
      </trkpt>
      <trkpt lat="42.210185" lon="2.791369">
        <ele>182</ele>
        <time>2019-08-19T03:15:52Z</time>
      </trkpt>
      <trkpt lat="42.210174" lon="2.791277">
        <ele>182</ele>
        <time>2019-08-19T03:15:54Z</time>
      </trkpt>
      <trkpt lat="42.210163" lon="2.791184">
        <ele>182</ele>
        <time>2019-08-19T03:15:55Z</time>
      </trkpt>
      <trkpt lat="42.210152" lon="2.791092">
        <ele>182</ele>
        <time>2019-08-19T03:15:56Z</time>
      </trkpt>
      <trkpt lat="42.210142" lon="2.791">
        <ele>182</ele>
        <time>2019-08-19T03:15:57Z</time>
      </trkpt>
      <trkpt lat="42.210131" lon="2.790908">
        <ele>182</ele>
        <time>2019-08-19T03:15:58Z</time>
      </trkpt>
      <trkpt lat="42.21012" lon="2.790816">
        <ele>182</ele>
        <time>2019-08-19T03:15:59Z</time>
      </trkpt>
      <trkpt lat="42.210096" lon="2.790663">
        <ele>182</ele>
        <time>2019-08-19T03:16:00Z</time>
      </trkpt>
      <trkpt lat="42.210084" lon="2.79059">
        <ele>182</ele>
        <time>2019-08-19T03:16:01Z</time>
      </trkpt>
      <trkpt lat="42.210071" lon="2.790517">
        <ele>182</ele>
        <time>2019-08-19T03:16:02Z</time>
      </trkpt>
      <trkpt lat="42.210059" lon="2.790444">
        <ele>182</ele>
        <time>2019-08-19T03:16:04Z</time>
      </trkpt>
      <trkpt lat="42.210047" lon="2.790371">
        <ele>182</ele>
        <time>2019-08-19T03:16:05Z</time>
      </trkpt>
      <trkpt lat="42.210035" lon="2.790298">
        <ele>182</ele>
        <time>2019-08-19T03:16:06Z</time>
      </trkpt>
      <trkpt lat="42.210022" lon="2.790225">
        <ele>182</ele>
        <time>2019-08-19T03:16:07Z</time>
      </trkpt>
      <trkpt lat="42.21001" lon="2.790152">
        <ele>182</ele>
        <time>2019-08-19T03:16:08Z</time>
      </trkpt>
      <trkpt lat="42.209998" lon="2.790079">
        <ele>182</ele>
        <time>2019-08-19T03:16:09Z</time>
      </trkpt>
      <trkpt lat="42.209936" lon="2.789931">
        <ele>182</ele>
        <time>2019-08-19T03:16:10Z</time>
      </trkpt>
      <trkpt lat="42.209899" lon="2.789891">
        <ele>182</ele>
        <time>2019-08-19T03:16:11Z</time>
      </trkpt>
      <trkpt lat="42.209863" lon="2.789852">
        <ele>182</ele>
        <time>2019-08-19T03:16:12Z</time>
      </trkpt>
      <trkpt lat="42.209827" lon="2.789813">
        <ele>182</ele>
        <time>2019-08-19T03:16:13Z</time>
      </trkpt>
      <trkpt lat="42.20979" lon="2.789773">
        <ele>182</ele>
        <time>2019-08-19T03:16:14Z</time>
      </trkpt>
      <trkpt lat="42.209754" lon="2.789734">
        <ele>182</ele>
        <time>2019-08-19T03:16:15Z</time>
      </trkpt>
      <trkpt lat="42.209718" lon="2.789695">
        <ele>182</ele>
        <time>2019-08-19T03:16:16Z</time>
      </trkpt>
      <trkpt lat="42.209681" lon="2.789655">
        <ele>182</ele>
        <time>2019-08-19T03:16:18Z</time>
      </trkpt>
      <trkpt lat="42.209645" lon="2.789616">
        <ele>183</ele>
        <time>2019-08-19T03:16:19Z</time>
      </trkpt>
      <trkpt lat="42.209556" lon="2.789586">
        <ele>183</ele>
        <time>2019-08-19T03:16:20Z</time>
      </trkpt>
      <trkpt lat="42.209514" lon="2.789574">
        <ele>183</ele>
        <time>2019-08-19T03:16:21Z</time>
      </trkpt>
      <trkpt lat="42.209471" lon="2.789563">
        <ele>183</ele>
        <time>2019-08-19T03:16:23Z</time>
      </trkpt>
      <trkpt lat="42.209428" lon="2.789551">
        <ele>183</ele>
        <time>2019-08-19T03:16:24Z</time>
      </trkpt>
      <trkpt lat="42.209386" lon="2.789539">
        <ele>183</ele>
        <time>2019-08-19T03:16:25Z</time>
      </trkpt>
      <trkpt lat="42.209343" lon="2.789527">
        <ele>183</ele>
        <time>2019-08-19T03:16:26Z</time>
      </trkpt>
      <trkpt lat="42.2093" lon="2.789516">
        <ele>183</ele>
        <time>2019-08-19T03:16:27Z</time>
      </trkpt>
      <trkpt lat="42.209258" lon="2.789504">
        <ele>183</ele>
        <time>2019-08-19T03:16:28Z</time>
      </trkpt>
      <trkpt lat="42.209215" lon="2.789492">
        <ele>185</ele>
        <time>2019-08-19T03:16:29Z</time>
      </trkpt>
      <trkpt lat="42.209141" lon="2.789455">
        <ele>185</ele>
        <time>2019-08-19T03:16:30Z</time>
      </trkpt>
      <trkpt lat="42.209107" lon="2.789431">
        <ele>185</ele>
        <time>2019-08-19T03:16:31Z</time>
      </trkpt>
      <trkpt lat="42.209072" lon="2.789406">
        <ele>185</ele>
        <time>2019-08-19T03:16:33Z</time>
      </trkpt>
      <trkpt lat="42.209038" lon="2.789381">
        <ele>185</ele>
        <time>2019-08-19T03:16:34Z</time>
      </trkpt>
      <trkpt lat="42.209003" lon="2.789357">
        <ele>185</ele>
        <time>2019-08-19T03:16:35Z</time>
      </trkpt>
      <trkpt lat="42.208969" lon="2.789332">
        <ele>185</ele>
        <time>2019-08-19T03:16:36Z</time>
      </trkpt>
      <trkpt lat="42.208934" lon="2.789307">
        <ele>185</ele>
        <time>2019-08-19T03:16:37Z</time>
      </trkpt>
      <trkpt lat="42.2089" lon="2.789283">
        <ele>185</ele>
        <time>2019-08-19T03:16:38Z</time>
      </trkpt>
      <trkpt lat="42.208865" lon="2.789258">
        <ele>186</ele>
        <time>2019-08-19T03:16:39Z</time>
      </trkpt>
      <trkpt lat="42.20881" lon="2.789183">
        <ele>186</ele>
        <time>2019-08-19T03:16:40Z</time>
      </trkpt>
      <trkpt lat="42.208785" lon="2.789143">
        <ele>186</ele>
        <time>2019-08-19T03:16:41Z</time>
      </trkpt>
      <trkpt lat="42.20876" lon="2.789102">
        <ele>186</ele>
        <time>2019-08-19T03:16:42Z</time>
      </trkpt>
      <trkpt lat="42.208735" lon="2.789061">
        <ele>186</ele>
        <time>2019-08-19T03:16:44Z</time>
      </trkpt>
      <trkpt lat="42.208709" lon="2.789021">
        <ele>186</ele>
        <time>2019-08-19T03:16:45Z</time>
      </trkpt>
      <trkpt lat="42.208684" lon="2.78898">
        <ele>186</ele>
        <time>2019-08-19T03:16:46Z</time>
      </trkpt>
      <trkpt lat="42.208659" lon="2.788939">
        <ele>186</ele>
        <time>2019-08-19T03:16:47Z</time>
      </trkpt>
      <trkpt lat="42.208634" lon="2.788899">
        <ele>186</ele>
        <time>2019-08-19T03:16:48Z</time>
      </trkpt>
      <trkpt lat="42.208609" lon="2.788858">
        <ele>188</ele>
        <time>2019-08-19T03:16:49Z</time>
      </trkpt>
      <trkpt lat="42.208573" lon="2.788778">
        <ele>188</ele>
        <time>2019-08-19T03:16:50Z</time>
      </trkpt>
      <trkpt lat="42.208558" lon="2.788735">
        <ele>188</ele>
        <time>2019-08-19T03:16:51Z</time>
      </trkpt>
      <trkpt lat="42.208544" lon="2.788691">
        <ele>188</ele>
        <time>2019-08-19T03:16:52Z</time>
      </trkpt>
      <trkpt lat="42.208529" lon="2.788648">
        <ele>188</ele>
        <time>2019-08-19T03:16:53Z</time>
      </trkpt>
      <trkpt lat="42.208515" lon="2.788605">
        <ele>188</ele>
        <time>2019-08-19T03:16:54Z</time>
      </trkpt>
      <trkpt lat="42.208501" lon="2.788562">
        <ele>188</ele>
        <time>2019-08-19T03:16:55Z</time>
      </trkpt>
      <trkpt lat="42.208486" lon="2.788519">
        <ele>188</ele>
        <time>2019-08-19T03:16:56Z</time>
      </trkpt>
      <trkpt lat="42.208472" lon="2.788475">
        <ele>188</ele>
        <time>2019-08-19T03:16:57Z</time>
      </trkpt>
      <trkpt lat="42.208457" lon="2.788432">
        <ele>188</ele>
        <time>2019-08-19T03:16:58Z</time>
      </trkpt>
      <trkpt lat="42.208443" lon="2.788389">
        <ele>189</ele>
        <time>2019-08-19T03:16:59Z</time>
      </trkpt>
      <trkpt lat="42.208434" lon="2.788281">
        <ele>189</ele>
        <time>2019-08-19T03:17:00Z</time>
      </trkpt>
      <trkpt lat="42.208431" lon="2.788226">
        <ele>189</ele>
        <time>2019-08-19T03:17:01Z</time>
      </trkpt>
      <trkpt lat="42.208428" lon="2.788172">
        <ele>189</ele>
        <time>2019-08-19T03:17:03Z</time>
      </trkpt>
      <trkpt lat="42.208425" lon="2.788117">
        <ele>189</ele>
        <time>2019-08-19T03:17:04Z</time>
      </trkpt>
      <trkpt lat="42.208422" lon="2.788062">
        <ele>189</ele>
        <time>2019-08-19T03:17:05Z</time>
      </trkpt>
      <trkpt lat="42.208419" lon="2.788007">
        <ele>189</ele>
        <time>2019-08-19T03:17:06Z</time>
      </trkpt>
      <trkpt lat="42.208416" lon="2.787953">
        <ele>189</ele>
        <time>2019-08-19T03:17:07Z</time>
      </trkpt>
      <trkpt lat="42.208413" lon="2.787898">
        <ele>189</ele>
        <time>2019-08-19T03:17:08Z</time>
      </trkpt>
      <trkpt lat="42.20841" lon="2.787843">
        <ele>190</ele>
        <time>2019-08-19T03:17:09Z</time>
      </trkpt>
      <trkpt lat="42.208406" lon="2.787733">
        <ele>190</ele>
        <time>2019-08-19T03:17:10Z</time>
      </trkpt>
      <trkpt lat="42.208405" lon="2.78768">
        <ele>190</ele>
        <time>2019-08-19T03:17:11Z</time>
      </trkpt>
      <trkpt lat="42.208403" lon="2.787626">
        <ele>190</ele>
        <time>2019-08-19T03:17:12Z</time>
      </trkpt>
      <trkpt lat="42.208402" lon="2.787573">
        <ele>190</ele>
        <time>2019-08-19T03:17:13Z</time>
      </trkpt>
      <trkpt lat="42.208401" lon="2.78752">
        <ele>190</ele>
        <time>2019-08-19T03:17:15Z</time>
      </trkpt>
      <trkpt lat="42.2084" lon="2.787467">
        <ele>190</ele>
        <time>2019-08-19T03:17:16Z</time>
      </trkpt>
      <trkpt lat="42.208398" lon="2.787413">
        <ele>190</ele>
        <time>2019-08-19T03:17:17Z</time>
      </trkpt>
      <trkpt lat="42.208397" lon="2.78736">
        <ele>190</ele>
        <time>2019-08-19T03:17:18Z</time>
      </trkpt>
      <trkpt lat="42.208396" lon="2.787307">
        <ele>191</ele>
        <time>2019-08-19T03:17:19Z</time>
      </trkpt>
      <trkpt lat="42.208385" lon="2.787219">
        <ele>191</ele>
        <time>2019-08-19T03:17:20Z</time>
      </trkpt>
      <trkpt lat="42.208376" lon="2.787159">
        <ele>191</ele>
        <time>2019-08-19T03:17:21Z</time>
      </trkpt>
      <trkpt lat="42.208367" lon="2.7871">
        <ele>191</ele>
        <time>2019-08-19T03:17:22Z</time>
      </trkpt>
      <trkpt lat="42.208358" lon="2.787041">
        <ele>191</ele>
        <time>2019-08-19T03:17:23Z</time>
      </trkpt>
      <trkpt lat="42.20835" lon="2.786981">
        <ele>191</ele>
        <time>2019-08-19T03:17:24Z</time>
      </trkpt>
      <trkpt lat="42.208341" lon="2.786922">
        <ele>191</ele>
        <time>2019-08-19T03:17:26Z</time>
      </trkpt>
      <trkpt lat="42.208332" lon="2.786863">
        <ele>191</ele>
        <time>2019-08-19T03:17:27Z</time>
      </trkpt>
      <trkpt lat="42.208323" lon="2.786803">
        <ele>191</ele>
        <time>2019-08-19T03:17:28Z</time>
      </trkpt>
      <trkpt lat="42.208314" lon="2.786744">
        <ele>191</ele>
        <time>2019-08-19T03:17:29Z</time>
      </trkpt>
      <trkpt lat="42.208262" lon="2.786646">
        <ele>191</ele>
        <time>2019-08-19T03:17:30Z</time>
      </trkpt>
      <trkpt lat="42.208238" lon="2.786623">
        <ele>191</ele>
        <time>2019-08-19T03:17:31Z</time>
      </trkpt>
      <trkpt lat="42.208215" lon="2.7866">
        <ele>191</ele>
        <time>2019-08-19T03:17:32Z</time>
      </trkpt>
      <trkpt lat="42.208191" lon="2.786577">
        <ele>191</ele>
        <time>2019-08-19T03:17:33Z</time>
      </trkpt>
      <trkpt lat="42.208168" lon="2.786554">
        <ele>191</ele>
        <time>2019-08-19T03:17:34Z</time>
      </trkpt>
      <trkpt lat="42.208144" lon="2.786531">
        <ele>191</ele>
        <time>2019-08-19T03:17:35Z</time>
      </trkpt>
      <trkpt lat="42.208121" lon="2.786508">
        <ele>191</ele>
        <time>2019-08-19T03:17:36Z</time>
      </trkpt>
      <trkpt lat="42.208097" lon="2.786485">
        <ele>191</ele>
        <time>2019-08-19T03:17:37Z</time>
      </trkpt>
      <trkpt lat="42.208074" lon="2.786462">
        <ele>191</ele>
        <time>2019-08-19T03:17:38Z</time>
      </trkpt>
      <trkpt lat="42.20805" lon="2.786439">
        <ele>193</ele>
        <time>2019-08-19T03:17:39Z</time>
      </trkpt>
      <trkpt lat="42.20801" lon="2.786424">
        <ele>193</ele>
        <time>2019-08-19T03:17:40Z</time>
      </trkpt>
      <trkpt lat="42.207983" lon="2.786416">
        <ele>193</ele>
        <time>2019-08-19T03:17:41Z</time>
      </trkpt>
      <trkpt lat="42.207957" lon="2.786407">
        <ele>193</ele>
        <time>2019-08-19T03:17:42Z</time>
      </trkpt>
      <trkpt lat="42.207931" lon="2.786398">
        <ele>193</ele>
        <time>2019-08-19T03:17:43Z</time>
      </trkpt>
      <trkpt lat="42.207905" lon="2.786389">
        <ele>193</ele>
        <time>2019-08-19T03:17:44Z</time>
      </trkpt>
      <trkpt lat="42.207878" lon="2.786381">
        <ele>193</ele>
        <time>2019-08-19T03:17:45Z</time>
      </trkpt>
      <trkpt lat="42.207852" lon="2.786372">
        <ele>193</ele>
        <time>2019-08-19T03:17:46Z</time>
      </trkpt>
      <trkpt lat="42.207826" lon="2.786363">
        <ele>193</ele>
        <time>2019-08-19T03:17:47Z</time>
      </trkpt>
      <trkpt lat="42.207799" lon="2.786355">
        <ele>193</ele>
        <time>2019-08-19T03:17:48Z</time>
      </trkpt>
      <trkpt lat="42.207773" lon="2.786346">
        <ele>195</ele>
        <time>2019-08-19T03:17:49Z</time>
      </trkpt>
      <trkpt lat="42.20773" lon="2.786336">
        <ele>195</ele>
        <time>2019-08-19T03:17:50Z</time>
      </trkpt>
      <trkpt lat="42.207702" lon="2.786328">
        <ele>195</ele>
        <time>2019-08-19T03:17:51Z</time>
      </trkpt>
      <trkpt lat="42.207674" lon="2.786321">
        <ele>195</ele>
        <time>2019-08-19T03:17:52Z</time>
      </trkpt>
      <trkpt lat="42.207646" lon="2.786313">
        <ele>195</ele>
        <time>2019-08-19T03:17:53Z</time>
      </trkpt>
      <trkpt lat="42.207619" lon="2.786305">
        <ele>195</ele>
        <time>2019-08-19T03:17:55Z</time>
      </trkpt>
      <trkpt lat="42.207591" lon="2.786297">
        <ele>195</ele>
        <time>2019-08-19T03:17:56Z</time>
      </trkpt>
      <trkpt lat="42.207563" lon="2.78629">
        <ele>195</ele>
        <time>2019-08-19T03:17:57Z</time>
      </trkpt>
      <trkpt lat="42.207535" lon="2.786282">
        <ele>195</ele>
        <time>2019-08-19T03:17:58Z</time>
      </trkpt>
      <trkpt lat="42.207507" lon="2.786274">
        <ele>197</ele>
        <time>2019-08-19T03:17:59Z</time>
      </trkpt>
      <trkpt lat="42.207456" lon="2.786251">
        <ele>197</ele>
        <time>2019-08-19T03:18:00Z</time>
      </trkpt>
      <trkpt lat="42.207432" lon="2.786238">
        <ele>197</ele>
        <time>2019-08-19T03:18:01Z</time>
      </trkpt>
      <trkpt lat="42.207407" lon="2.786226">
        <ele>197</ele>
        <time>2019-08-19T03:18:02Z</time>
      </trkpt>
      <trkpt lat="42.207383" lon="2.786213">
        <ele>197</ele>
        <time>2019-08-19T03:18:03Z</time>
      </trkpt>
      <trkpt lat="42.207359" lon="2.7862">
        <ele>197</ele>
        <time>2019-08-19T03:18:04Z</time>
      </trkpt>
      <trkpt lat="42.207335" lon="2.786187">
        <ele>197</ele>
        <time>2019-08-19T03:18:05Z</time>
      </trkpt>
      <trkpt lat="42.207311" lon="2.786174">
        <ele>197</ele>
        <time>2019-08-19T03:18:06Z</time>
      </trkpt>
      <trkpt lat="42.207286" lon="2.786162">
        <ele>197</ele>
        <time>2019-08-19T03:18:07Z</time>
      </trkpt>
      <trkpt lat="42.207262" lon="2.786149">
        <ele>197</ele>
        <time>2019-08-19T03:18:08Z</time>
      </trkpt>
      <trkpt lat="42.207238" lon="2.786136">
        <ele>198</ele>
        <time>2019-08-19T03:18:09Z</time>
      </trkpt>
      <trkpt lat="42.207183" lon="2.786099">
        <ele>198</ele>
        <time>2019-08-19T03:18:10Z</time>
      </trkpt>
      <trkpt lat="42.207155" lon="2.786079">
        <ele>198</ele>
        <time>2019-08-19T03:18:11Z</time>
      </trkpt>
      <trkpt lat="42.207126" lon="2.786059">
        <ele>198</ele>
        <time>2019-08-19T03:18:12Z</time>
      </trkpt>
      <trkpt lat="42.207098" lon="2.786039">
        <ele>198</ele>
        <time>2019-08-19T03:18:13Z</time>
      </trkpt>
      <trkpt lat="42.20707" lon="2.78602">
        <ele>198</ele>
        <time>2019-08-19T03:18:15Z</time>
      </trkpt>
      <trkpt lat="42.207042" lon="2.786">
        <ele>198</ele>
        <time>2019-08-19T03:18:17Z</time>
      </trkpt>
      <trkpt lat="42.207013" lon="2.78598">
        <ele>198</ele>
        <time>2019-08-19T03:18:18Z</time>
      </trkpt>
      <trkpt lat="42.206985" lon="2.78596">
        <ele>199</ele>
        <time>2019-08-19T03:18:19Z</time>
      </trkpt>
      <trkpt lat="42.206934" lon="2.785915">
        <ele>199</ele>
        <time>2019-08-19T03:18:20Z</time>
      </trkpt>
      <trkpt lat="42.206907" lon="2.785888">
        <ele>199</ele>
        <time>2019-08-19T03:18:21Z</time>
      </trkpt>
      <trkpt lat="42.20688" lon="2.785861">
        <ele>199</ele>
        <time>2019-08-19T03:18:22Z</time>
      </trkpt>
      <trkpt lat="42.206853" lon="2.785834">
        <ele>199</ele>
        <time>2019-08-19T03:18:23Z</time>
      </trkpt>
      <trkpt lat="42.206825" lon="2.785808">
        <ele>199</ele>
        <time>2019-08-19T03:18:24Z</time>
      </trkpt>
      <trkpt lat="42.206798" lon="2.785781">
        <ele>199</ele>
        <time>2019-08-19T03:18:25Z</time>
      </trkpt>
      <trkpt lat="42.206771" lon="2.785754">
        <ele>199</ele>
        <time>2019-08-19T03:18:26Z</time>
      </trkpt>
      <trkpt lat="42.206744" lon="2.785727">
        <ele>199</ele>
        <time>2019-08-19T03:18:27Z</time>
      </trkpt>
      <trkpt lat="42.206717" lon="2.7857">
        <ele>202</ele>
        <time>2019-08-19T03:18:29Z</time>
      </trkpt>
      <trkpt lat="42.206675" lon="2.785573">
        <ele>202</ele>
        <time>2019-08-19T03:18:31Z</time>
      </trkpt>
      <trkpt lat="42.206662" lon="2.785483">
        <ele>202</ele>
        <time>2019-08-19T03:18:32Z</time>
      </trkpt>
      <trkpt lat="42.206648" lon="2.785393">
        <ele>202</ele>
        <time>2019-08-19T03:18:33Z</time>
      </trkpt>
      <trkpt lat="42.206634" lon="2.785304">
        <ele>202</ele>
        <time>2019-08-19T03:18:35Z</time>
      </trkpt>
      <trkpt lat="42.20662" lon="2.785214">
        <ele>202</ele>
        <time>2019-08-19T03:18:37Z</time>
      </trkpt>
      <trkpt lat="42.206607" lon="2.785124">
        <ele>202</ele>
        <time>2019-08-19T03:18:38Z</time>
      </trkpt>
      <trkpt lat="42.206593" lon="2.785034">
        <ele>201</ele>
        <time>2019-08-19T03:18:40Z</time>
      </trkpt>
      <trkpt lat="42.206653" lon="2.784906">
        <ele>201</ele>
        <time>2019-08-19T03:18:41Z</time>
      </trkpt>
      <trkpt lat="42.206692" lon="2.784846">
        <ele>201</ele>
        <time>2019-08-19T03:18:42Z</time>
      </trkpt>
      <trkpt lat="42.20673" lon="2.784787">
        <ele>201</ele>
        <time>2019-08-19T03:18:43Z</time>
      </trkpt>
      <trkpt lat="42.206769" lon="2.784727">
        <ele>201</ele>
        <time>2019-08-19T03:18:44Z</time>
      </trkpt>
      <trkpt lat="42.206807" lon="2.784667">
        <ele>201</ele>
        <time>2019-08-19T03:18:45Z</time>
      </trkpt>
      <trkpt lat="42.206846" lon="2.784607">
        <ele>201</ele>
        <time>2019-08-19T03:18:46Z</time>
      </trkpt>
      <trkpt lat="42.206884" lon="2.784548">
        <ele>201</ele>
        <time>2019-08-19T03:18:47Z</time>
      </trkpt>
      <trkpt lat="42.206923" lon="2.784488">
        <ele>201</ele>
        <time>2019-08-19T03:18:48Z</time>
      </trkpt>
      <trkpt lat="42.206961" lon="2.784428">
        <ele>200</ele>
        <time>2019-08-19T03:18:49Z</time>
      </trkpt>
      <trkpt lat="42.207016" lon="2.784278">
        <ele>200</ele>
        <time>2019-08-19T03:18:50Z</time>
      </trkpt>
      <trkpt lat="42.20703" lon="2.784197">
        <ele>200</ele>
        <time>2019-08-19T03:18:51Z</time>
      </trkpt>
      <trkpt lat="42.207043" lon="2.784117">
        <ele>200</ele>
        <time>2019-08-19T03:18:52Z</time>
      </trkpt>
      <trkpt lat="42.207057" lon="2.784036">
        <ele>200</ele>
        <time>2019-08-19T03:18:53Z</time>
      </trkpt>
      <trkpt lat="42.207071" lon="2.783956">
        <ele>200</ele>
        <time>2019-08-19T03:18:54Z</time>
      </trkpt>
      <trkpt lat="42.207085" lon="2.783875">
        <ele>200</ele>
        <time>2019-08-19T03:18:55Z</time>
      </trkpt>
      <trkpt lat="42.207099" lon="2.783795">
        <ele>200</ele>
        <time>2019-08-19T03:18:56Z</time>
      </trkpt>
      <trkpt lat="42.207112" lon="2.783714">
        <ele>200</ele>
        <time>2019-08-19T03:18:57Z</time>
      </trkpt>
      <trkpt lat="42.207126" lon="2.783634">
        <ele>200</ele>
        <time>2019-08-19T03:18:58Z</time>
      </trkpt>
      <trkpt lat="42.20714" lon="2.783553">
        <ele>200</ele>
        <time>2019-08-19T03:18:59Z</time>
      </trkpt>
      <trkpt lat="42.207095" lon="2.783376">
        <ele>200</ele>
        <time>2019-08-19T03:19:00Z</time>
      </trkpt>
      <trkpt lat="42.207062" lon="2.78329">
        <ele>200</ele>
        <time>2019-08-19T03:19:02Z</time>
      </trkpt>
      <trkpt lat="42.207028" lon="2.783203">
        <ele>200</ele>
        <time>2019-08-19T03:19:03Z</time>
      </trkpt>
      <trkpt lat="42.206995" lon="2.783117">
        <ele>200</ele>
        <time>2019-08-19T03:19:05Z</time>
      </trkpt>
      <trkpt lat="42.206961" lon="2.78303">
        <ele>200</ele>
        <time>2019-08-19T03:19:06Z</time>
      </trkpt>
      <trkpt lat="42.206927" lon="2.782944">
        <ele>200</ele>
        <time>2019-08-19T03:19:08Z</time>
      </trkpt>
      <trkpt lat="42.206894" lon="2.782857">
        <ele>200</ele>
        <time>2019-08-19T03:19:09Z</time>
      </trkpt>
      <trkpt lat="42.20686" lon="2.782771">
        <ele>199</ele>
        <time>2019-08-19T03:19:10Z</time>
      </trkpt>
      <trkpt lat="42.206771" lon="2.782701">
        <ele>199</ele>
        <time>2019-08-19T03:19:11Z</time>
      </trkpt>
      <trkpt lat="42.206738" lon="2.782692">
        <ele>199</ele>
        <time>2019-08-19T03:19:12Z</time>
      </trkpt>
      <trkpt lat="42.206705" lon="2.782682">
        <ele>199</ele>
        <time>2019-08-19T03:19:13Z</time>
      </trkpt>
      <trkpt lat="42.206672" lon="2.782673">
        <ele>199</ele>
        <time>2019-08-19T03:19:14Z</time>
      </trkpt>
      <trkpt lat="42.206639" lon="2.782664">
        <ele>199</ele>
        <time>2019-08-19T03:19:15Z</time>
      </trkpt>
      <trkpt lat="42.206606" lon="2.782655">
        <ele>199</ele>
        <time>2019-08-19T03:19:16Z</time>
      </trkpt>
      <trkpt lat="42.206573" lon="2.782645">
        <ele>199</ele>
        <time>2019-08-19T03:19:17Z</time>
      </trkpt>
      <trkpt lat="42.20654" lon="2.782636">
        <ele>199</ele>
        <time>2019-08-19T03:19:18Z</time>
      </trkpt>
      <trkpt lat="42.206507" lon="2.782627">
        <ele>199</ele>
        <time>2019-08-19T03:19:19Z</time>
      </trkpt>
      <trkpt lat="42.206451" lon="2.782628">
        <ele>199</ele>
        <time>2019-08-19T03:19:20Z</time>
      </trkpt>
      <trkpt lat="42.206416" lon="2.782628">
        <ele>199</ele>
        <time>2019-08-19T03:19:21Z</time>
      </trkpt>
      <trkpt lat="42.20638" lon="2.782629">
        <ele>199</ele>
        <time>2019-08-19T03:19:22Z</time>
      </trkpt>
      <trkpt lat="42.206345" lon="2.78263">
        <ele>199</ele>
        <time>2019-08-19T03:19:23Z</time>
      </trkpt>
      <trkpt lat="42.20631" lon="2.782631">
        <ele>199</ele>
        <time>2019-08-19T03:19:24Z</time>
      </trkpt>
      <trkpt lat="42.206275" lon="2.782631">
        <ele>199</ele>
        <time>2019-08-19T03:19:25Z</time>
      </trkpt>
      <trkpt lat="42.20624" lon="2.782632">
        <ele>199</ele>
        <time>2019-08-19T03:19:26Z</time>
      </trkpt>
      <trkpt lat="42.206204" lon="2.782633">
        <ele>199</ele>
        <time>2019-08-19T03:19:27Z</time>
      </trkpt>
      <trkpt lat="42.206169" lon="2.782633">
        <ele>199</ele>
        <time>2019-08-19T03:19:28Z</time>
      </trkpt>
      <trkpt lat="42.206134" lon="2.782634">
        <ele>203</ele>
        <time>2019-08-19T03:19:29Z</time>
      </trkpt>
      <trkpt lat="42.206064" lon="2.782616">
        <ele>203</ele>
        <time>2019-08-19T03:19:30Z</time>
      </trkpt>
      <trkpt lat="42.206034" lon="2.782601">
        <ele>203</ele>
        <time>2019-08-19T03:19:31Z</time>
      </trkpt>
      <trkpt lat="42.206003" lon="2.782585">
        <ele>203</ele>
        <time>2019-08-19T03:19:32Z</time>
      </trkpt>
      <trkpt lat="42.205972" lon="2.782569">
        <ele>203</ele>
        <time>2019-08-19T03:19:33Z</time>
      </trkpt>
      <trkpt lat="42.205942" lon="2.782553">
        <ele>203</ele>
        <time>2019-08-19T03:19:34Z</time>
      </trkpt>
      <trkpt lat="42.205911" lon="2.782538">
        <ele>203</ele>
        <time>2019-08-19T03:19:35Z</time>
      </trkpt>
      <trkpt lat="42.20588" lon="2.782522">
        <ele>203</ele>
        <time>2019-08-19T03:19:36Z</time>
      </trkpt>
      <trkpt lat="42.205849" lon="2.782506">
        <ele>203</ele>
        <time>2019-08-19T03:19:37Z</time>
      </trkpt>
      <trkpt lat="42.205819" lon="2.782491">
        <ele>203</ele>
        <time>2019-08-19T03:19:38Z</time>
      </trkpt>
      <trkpt lat="42.205788" lon="2.782475">
        <ele>204</ele>
        <time>2019-08-19T03:19:39Z</time>
      </trkpt>
      <trkpt lat="42.205747" lon="2.782388">
        <ele>204</ele>
        <time>2019-08-19T03:19:40Z</time>
      </trkpt>
      <trkpt lat="42.205731" lon="2.782338">
        <ele>204</ele>
        <time>2019-08-19T03:19:41Z</time>
      </trkpt>
      <trkpt lat="42.205716" lon="2.782288">
        <ele>204</ele>
        <time>2019-08-19T03:19:42Z</time>
      </trkpt>
      <trkpt lat="42.2057" lon="2.782238">
        <ele>204</ele>
        <time>2019-08-19T03:19:43Z</time>
      </trkpt>
      <trkpt lat="42.205685" lon="2.782188">
        <ele>204</ele>
        <time>2019-08-19T03:19:44Z</time>
      </trkpt>
      <trkpt lat="42.205669" lon="2.782138">
        <ele>204</ele>
        <time>2019-08-19T03:19:45Z</time>
      </trkpt>
      <trkpt lat="42.205654" lon="2.782088">
        <ele>204</ele>
        <time>2019-08-19T03:19:46Z</time>
      </trkpt>
      <trkpt lat="42.205638" lon="2.782038">
        <ele>204</ele>
        <time>2019-08-19T03:19:47Z</time>
      </trkpt>
      <trkpt lat="42.205623" lon="2.781988">
        <ele>204</ele>
        <time>2019-08-19T03:19:48Z</time>
      </trkpt>
      <trkpt lat="42.205607" lon="2.781938">
        <ele>206</ele>
        <time>2019-08-19T03:19:49Z</time>
      </trkpt>
      <trkpt lat="42.205583" lon="2.781842">
        <ele>206</ele>
        <time>2019-08-19T03:19:50Z</time>
      </trkpt>
      <trkpt lat="42.205572" lon="2.781796">
        <ele>206</ele>
        <time>2019-08-19T03:19:51Z</time>
      </trkpt>
      <trkpt lat="42.20556" lon="2.781749">
        <ele>206</ele>
        <time>2019-08-19T03:19:52Z</time>
      </trkpt>
      <trkpt lat="42.205549" lon="2.781703">
        <ele>206</ele>
        <time>2019-08-19T03:19:53Z</time>
      </trkpt>
      <trkpt lat="42.205538" lon="2.781656">
        <ele>206</ele>
        <time>2019-08-19T03:19:54Z</time>
      </trkpt>
      <trkpt lat="42.205527" lon="2.78161">
        <ele>206</ele>
        <time>2019-08-19T03:19:56Z</time>
      </trkpt>
      <trkpt lat="42.205516" lon="2.781563">
        <ele>206</ele>
        <time>2019-08-19T03:19:57Z</time>
      </trkpt>
      <trkpt lat="42.205504" lon="2.781517">
        <ele>206</ele>
        <time>2019-08-19T03:19:58Z</time>
      </trkpt>
      <trkpt lat="42.205493" lon="2.78147">
        <ele>206</ele>
        <time>2019-08-19T03:19:59Z</time>
      </trkpt>
      <trkpt lat="42.205482" lon="2.781424">
        <ele>208</ele>
        <time>2019-08-19T03:20:00Z</time>
      </trkpt>
      <trkpt lat="42.205458" lon="2.781313">
        <ele>208</ele>
        <time>2019-08-19T03:20:01Z</time>
      </trkpt>
      <trkpt lat="42.205451" lon="2.78127">
        <ele>208</ele>
        <time>2019-08-19T03:20:02Z</time>
      </trkpt>
      <trkpt lat="42.205444" lon="2.781228">
        <ele>208</ele>
        <time>2019-08-19T03:20:03Z</time>
      </trkpt>
      <trkpt lat="42.205437" lon="2.781185">
        <ele>208</ele>
        <time>2019-08-19T03:20:04Z</time>
      </trkpt>
      <trkpt lat="42.205429" lon="2.781142">
        <ele>208</ele>
        <time>2019-08-19T03:20:05Z</time>
      </trkpt>
      <trkpt lat="42.205422" lon="2.781099">
        <ele>208</ele>
        <time>2019-08-19T03:20:06Z</time>
      </trkpt>
      <trkpt lat="42.205415" lon="2.781057">
        <ele>208</ele>
        <time>2019-08-19T03:20:07Z</time>
      </trkpt>
      <trkpt lat="42.205408" lon="2.781014">
        <ele>208</ele>
        <time>2019-08-19T03:20:08Z</time>
      </trkpt>
      <trkpt lat="42.205401" lon="2.780971">
        <ele>209</ele>
        <time>2019-08-19T03:20:09Z</time>
      </trkpt>
      <trkpt lat="42.205455" lon="2.780837">
        <ele>209</ele>
        <time>2019-08-19T03:20:11Z</time>
      </trkpt>
      <trkpt lat="42.205492" lon="2.780808">
        <ele>209</ele>
        <time>2019-08-19T03:20:13Z</time>
      </trkpt>
      <trkpt lat="42.205529" lon="2.780778">
        <ele>209</ele>
        <time>2019-08-19T03:20:14Z</time>
      </trkpt>
      <trkpt lat="42.205567" lon="2.780749">
        <ele>209</ele>
        <time>2019-08-19T03:20:15Z</time>
      </trkpt>
      <trkpt lat="42.205604" lon="2.78072">
        <ele>209</ele>
        <time>2019-08-19T03:20:16Z</time>
      </trkpt>
      <trkpt lat="42.205641" lon="2.780691">
        <ele>209</ele>
        <time>2019-08-19T03:20:17Z</time>
      </trkpt>
      <trkpt lat="42.205678" lon="2.780661">
        <ele>209</ele>
        <time>2019-08-19T03:20:18Z</time>
      </trkpt>
      <trkpt lat="42.205715" lon="2.780632">
        <ele>209</ele>
        <time>2019-08-19T03:20:19Z</time>
      </trkpt>
      <trkpt lat="42.205813" lon="2.780552">
        <ele>209</ele>
        <time>2019-08-19T03:20:20Z</time>
      </trkpt>
      <trkpt lat="42.20586" lon="2.780499">
        <ele>209</ele>
        <time>2019-08-19T03:20:21Z</time>
      </trkpt>
      <trkpt lat="42.205906" lon="2.780447">
        <ele>209</ele>
        <time>2019-08-19T03:20:22Z</time>
      </trkpt>
      <trkpt lat="42.205953" lon="2.780394">
        <ele>209</ele>
        <time>2019-08-19T03:20:23Z</time>
      </trkpt>
      <trkpt lat="42.206" lon="2.780342">
        <ele>209</ele>
        <time>2019-08-19T03:20:25Z</time>
      </trkpt>
      <trkpt lat="42.206047" lon="2.780289">
        <ele>209</ele>
        <time>2019-08-19T03:20:26Z</time>
      </trkpt>
      <trkpt lat="42.206093" lon="2.780237">
        <ele>209</ele>
        <time>2019-08-19T03:20:27Z</time>
      </trkpt>
      <trkpt lat="42.20614" lon="2.780184">
        <ele>209</ele>
        <time>2019-08-19T03:20:28Z</time>
      </trkpt>
      <trkpt lat="42.206187" lon="2.780132">
        <ele>208</ele>
        <time>2019-08-19T03:20:29Z</time>
      </trkpt>
      <trkpt lat="42.206203" lon="2.779966">
        <ele>208</ele>
        <time>2019-08-19T03:20:30Z</time>
      </trkpt>
      <trkpt lat="42.206188" lon="2.77988">
        <ele>208</ele>
        <time>2019-08-19T03:20:31Z</time>
      </trkpt>
      <trkpt lat="42.206174" lon="2.779793">
        <ele>208</ele>
        <time>2019-08-19T03:20:32Z</time>
      </trkpt>
      <trkpt lat="42.206159" lon="2.779707">
        <ele>208</ele>
        <time>2019-08-19T03:20:33Z</time>
      </trkpt>
      <trkpt lat="42.206144" lon="2.77962">
        <ele>208</ele>
        <time>2019-08-19T03:20:34Z</time>
      </trkpt>
      <trkpt lat="42.206129" lon="2.779533">
        <ele>208</ele>
        <time>2019-08-19T03:20:35Z</time>
      </trkpt>
      <trkpt lat="42.206114" lon="2.779447">
        <ele>208</ele>
        <time>2019-08-19T03:20:36Z</time>
      </trkpt>
      <trkpt lat="42.2061" lon="2.77936">
        <ele>208</ele>
        <time>2019-08-19T03:20:37Z</time>
      </trkpt>
      <trkpt lat="42.206085" lon="2.779274">
        <ele>208</ele>
        <time>2019-08-19T03:20:38Z</time>
      </trkpt>
      <trkpt lat="42.20607" lon="2.779187">
        <ele>206</ele>
        <time>2019-08-19T03:20:39Z</time>
      </trkpt>
      <trkpt lat="42.206006" lon="2.778999">
        <ele>206</ele>
        <time>2019-08-19T03:20:40Z</time>
      </trkpt>
      <trkpt lat="42.206002" lon="2.778879">
        <ele>206</ele>
        <time>2019-08-19T03:20:41Z</time>
      </trkpt>
      <trkpt lat="42.205998" lon="2.77876">
        <ele>206</ele>
        <time>2019-08-19T03:20:42Z</time>
      </trkpt>
      <trkpt lat="42.205994" lon="2.77864">
        <ele>206</ele>
        <time>2019-08-19T03:20:44Z</time>
      </trkpt>
      <trkpt lat="42.20599" lon="2.77852">
        <ele>206</ele>
        <time>2019-08-19T03:20:45Z</time>
      </trkpt>
      <trkpt lat="42.205986" lon="2.7784">
        <ele>206</ele>
        <time>2019-08-19T03:20:46Z</time>
      </trkpt>
      <trkpt lat="42.205982" lon="2.778281">
        <ele>206</ele>
        <time>2019-08-19T03:20:47Z</time>
      </trkpt>
      <trkpt lat="42.205978" lon="2.778161">
        <ele>206</ele>
        <time>2019-08-19T03:20:48Z</time>
      </trkpt>
      <trkpt lat="42.205974" lon="2.778041">
        <ele>203</ele>
        <time>2019-08-19T03:20:50Z</time>
      </trkpt>
      <trkpt lat="42.206022" lon="2.777925">
        <ele>203</ele>
        <time>2019-08-19T03:20:51Z</time>
      </trkpt>
      <trkpt lat="42.206082" lon="2.777813">
        <ele>203</ele>
        <time>2019-08-19T03:20:52Z</time>
      </trkpt>
      <trkpt lat="42.20615" lon="2.777705">
        <ele>203</ele>
        <time>2019-08-19T03:20:53Z</time>
      </trkpt>
      <trkpt lat="42.206216" lon="2.777591">
        <ele>203</ele>
        <time>2019-08-19T03:20:54Z</time>
      </trkpt>
      <trkpt lat="42.206283" lon="2.777476">
        <ele>203</ele>
        <time>2019-08-19T03:20:55Z</time>
      </trkpt>
      <trkpt lat="42.206351" lon="2.77736">
        <ele>203</ele>
        <time>2019-08-19T03:20:56Z</time>
      </trkpt>
      <trkpt lat="42.20642" lon="2.777242">
        <ele>203</ele>
        <time>2019-08-19T03:20:57Z</time>
      </trkpt>
      <trkpt lat="42.206488" lon="2.777121">
        <ele>203</ele>
        <time>2019-08-19T03:20:58Z</time>
      </trkpt>
      <trkpt lat="42.206624" lon="2.776871">
        <ele>196</ele>
        <time>2019-08-19T03:21:00Z</time>
      </trkpt>
      <trkpt lat="42.206692" lon="2.776746">
        <ele>196</ele>
        <time>2019-08-19T03:21:01Z</time>
      </trkpt>
      <trkpt lat="42.206764" lon="2.776622">
        <ele>196</ele>
        <time>2019-08-19T03:21:03Z</time>
      </trkpt>
      <trkpt lat="42.206909" lon="2.77637">
        <ele>196</ele>
        <time>2019-08-19T03:21:04Z</time>
      </trkpt>
      <trkpt lat="42.206982" lon="2.776242">
        <ele>196</ele>
        <time>2019-08-19T03:21:05Z</time>
      </trkpt>
      <trkpt lat="42.207053" lon="2.776115">
        <ele>196</ele>
        <time>2019-08-19T03:21:06Z</time>
      </trkpt>
      <trkpt lat="42.207119" lon="2.775986">
        <ele>196</ele>
        <time>2019-08-19T03:21:07Z</time>
      </trkpt>
      <trkpt lat="42.207178" lon="2.775855">
        <ele>196</ele>
        <time>2019-08-19T03:21:08Z</time>
      </trkpt>
      <trkpt lat="42.207205" lon="2.775789">
        <ele>192</ele>
        <time>2019-08-19T03:21:09Z</time>
      </trkpt>
      <trkpt lat="42.207231" lon="2.775722">
        <ele>192</ele>
        <time>2019-08-19T03:21:10Z</time>
      </trkpt>
      <trkpt lat="42.207273" lon="2.775588">
        <ele>192</ele>
        <time>2019-08-19T03:21:11Z</time>
      </trkpt>
      <trkpt lat="42.207304" lon="2.775455">
        <ele>192</ele>
        <time>2019-08-19T03:21:12Z</time>
      </trkpt>
      <trkpt lat="42.20733" lon="2.775193">
        <ele>192</ele>
        <time>2019-08-19T03:21:13Z</time>
      </trkpt>
      <trkpt lat="42.207311" lon="2.775058">
        <ele>192</ele>
        <time>2019-08-19T03:21:14Z</time>
      </trkpt>
      <trkpt lat="42.207282" lon="2.774933">
        <ele>192</ele>
        <time>2019-08-19T03:21:15Z</time>
      </trkpt>
      <trkpt lat="42.207227" lon="2.77482">
        <ele>192</ele>
        <time>2019-08-19T03:21:16Z</time>
      </trkpt>
      <trkpt lat="42.207159" lon="2.774714">
        <ele>192</ele>
        <time>2019-08-19T03:21:18Z</time>
      </trkpt>
      <trkpt lat="42.207088" lon="2.774617">
        <ele>190</ele>
        <time>2019-08-19T03:21:19Z</time>
      </trkpt>
      <trkpt lat="42.207016" lon="2.774521">
        <ele>190</ele>
        <time>2019-08-19T03:21:20Z</time>
      </trkpt>
      <trkpt lat="42.206945" lon="2.774426">
        <ele>190</ele>
        <time>2019-08-19T03:21:21Z</time>
      </trkpt>
      <trkpt lat="42.206802" lon="2.774229">
        <ele>190</ele>
        <time>2019-08-19T03:21:22Z</time>
      </trkpt>
      <trkpt lat="42.206733" lon="2.774134">
        <ele>190</ele>
        <time>2019-08-19T03:21:24Z</time>
      </trkpt>
      <trkpt lat="42.206663" lon="2.774038">
        <ele>190</ele>
        <time>2019-08-19T03:21:25Z</time>
      </trkpt>
      <trkpt lat="42.206595" lon="2.773943">
        <ele>190</ele>
        <time>2019-08-19T03:21:26Z</time>
      </trkpt>
      <trkpt lat="42.206529" lon="2.773849">
        <ele>190</ele>
        <time>2019-08-19T03:21:27Z</time>
      </trkpt>
      <trkpt lat="42.206465" lon="2.77376">
        <ele>190</ele>
        <time>2019-08-19T03:21:28Z</time>
      </trkpt>
      <trkpt lat="42.206404" lon="2.773679">
        <ele>186</ele>
        <time>2019-08-19T03:21:29Z</time>
      </trkpt>
      <trkpt lat="42.206342" lon="2.773599">
        <ele>186</ele>
        <time>2019-08-19T03:21:30Z</time>
      </trkpt>
      <trkpt lat="42.206283" lon="2.773519">
        <ele>186</ele>
        <time>2019-08-19T03:21:31Z</time>
      </trkpt>
      <trkpt lat="42.206229" lon="2.773443">
        <ele>186</ele>
        <time>2019-08-19T03:21:32Z</time>
      </trkpt>
      <trkpt lat="42.206169" lon="2.773355">
        <ele>186</ele>
        <time>2019-08-19T03:21:33Z</time>
      </trkpt>
      <trkpt lat="42.206049" lon="2.773185">
        <ele>186</ele>
        <time>2019-08-19T03:21:34Z</time>
      </trkpt>
      <trkpt lat="42.205992" lon="2.773103">
        <ele>186</ele>
        <time>2019-08-19T03:21:35Z</time>
      </trkpt>
      <trkpt lat="42.205936" lon="2.773024">
        <ele>186</ele>
        <time>2019-08-19T03:21:36Z</time>
      </trkpt>
      <trkpt lat="42.20588" lon="2.772948">
        <ele>186</ele>
        <time>2019-08-19T03:21:37Z</time>
      </trkpt>
      <trkpt lat="42.205825" lon="2.772875">
        <ele>186</ele>
        <time>2019-08-19T03:21:38Z</time>
      </trkpt>
      <trkpt lat="42.205726" lon="2.772743">
        <ele>185</ele>
        <time>2019-08-19T03:21:40Z</time>
      </trkpt>
      <trkpt lat="42.205652" lon="2.772613">
        <ele>185</ele>
        <time>2019-08-19T03:21:41Z</time>
      </trkpt>
      <trkpt lat="42.205627" lon="2.77255">
        <ele>185</ele>
        <time>2019-08-19T03:21:42Z</time>
      </trkpt>
      <trkpt lat="42.205601" lon="2.772486">
        <ele>185</ele>
        <time>2019-08-19T03:21:43Z</time>
      </trkpt>
      <trkpt lat="42.205576" lon="2.772422">
        <ele>185</ele>
        <time>2019-08-19T03:21:44Z</time>
      </trkpt>
      <trkpt lat="42.205551" lon="2.772359">
        <ele>185</ele>
        <time>2019-08-19T03:21:45Z</time>
      </trkpt>
      <trkpt lat="42.205526" lon="2.772295">
        <ele>185</ele>
        <time>2019-08-19T03:21:47Z</time>
      </trkpt>
      <trkpt lat="42.2055" lon="2.772232">
        <ele>185</ele>
        <time>2019-08-19T03:21:48Z</time>
      </trkpt>
      <trkpt lat="42.205475" lon="2.772168">
        <ele>185</ele>
        <time>2019-08-19T03:21:49Z</time>
      </trkpt>
      <trkpt lat="42.205485" lon="2.772025">
        <ele>185</ele>
        <time>2019-08-19T03:21:50Z</time>
      </trkpt>
      <trkpt lat="42.205487" lon="2.771951">
        <ele>185</ele>
        <time>2019-08-19T03:21:51Z</time>
      </trkpt>
      <trkpt lat="42.20549" lon="2.771878">
        <ele>185</ele>
        <time>2019-08-19T03:21:52Z</time>
      </trkpt>
      <trkpt lat="42.205493" lon="2.771805">
        <ele>185</ele>
        <time>2019-08-19T03:21:53Z</time>
      </trkpt>
      <trkpt lat="42.205496" lon="2.771732">
        <ele>185</ele>
        <time>2019-08-19T03:21:54Z</time>
      </trkpt>
      <trkpt lat="42.205498" lon="2.771658">
        <ele>185</ele>
        <time>2019-08-19T03:21:55Z</time>
      </trkpt>
      <trkpt lat="42.205501" lon="2.771585">
        <ele>185</ele>
        <time>2019-08-19T03:21:56Z</time>
      </trkpt>
      <trkpt lat="42.205504" lon="2.771512">
        <ele>185</ele>
        <time>2019-08-19T03:21:57Z</time>
      </trkpt>
      <trkpt lat="42.205506" lon="2.771438">
        <ele>185</ele>
        <time>2019-08-19T03:21:58Z</time>
      </trkpt>
      <trkpt lat="42.205509" lon="2.771365">
        <ele>189</ele>
        <time>2019-08-19T03:22:00Z</time>
      </trkpt>
      <trkpt lat="42.205513" lon="2.771219">
        <ele>189</ele>
        <time>2019-08-19T03:22:01Z</time>
      </trkpt>
      <trkpt lat="42.205515" lon="2.77115">
        <ele>189</ele>
        <time>2019-08-19T03:22:02Z</time>
      </trkpt>
      <trkpt lat="42.205517" lon="2.77108">
        <ele>189</ele>
        <time>2019-08-19T03:22:03Z</time>
      </trkpt>
      <trkpt lat="42.205519" lon="2.771011">
        <ele>189</ele>
        <time>2019-08-19T03:22:04Z</time>
      </trkpt>
      <trkpt lat="42.205522" lon="2.770941">
        <ele>189</ele>
        <time>2019-08-19T03:22:05Z</time>
      </trkpt>
      <trkpt lat="42.205524" lon="2.770872">
        <ele>189</ele>
        <time>2019-08-19T03:22:06Z</time>
      </trkpt>
      <trkpt lat="42.205526" lon="2.770802">
        <ele>189</ele>
        <time>2019-08-19T03:22:07Z</time>
      </trkpt>
      <trkpt lat="42.205528" lon="2.770733">
        <ele>189</ele>
        <time>2019-08-19T03:22:08Z</time>
      </trkpt>
      <trkpt lat="42.20553" lon="2.770663">
        <ele>189</ele>
        <time>2019-08-19T03:22:09Z</time>
      </trkpt>
      <trkpt lat="42.205534" lon="2.770498">
        <ele>189</ele>
        <time>2019-08-19T03:22:10Z</time>
      </trkpt>
      <trkpt lat="42.205535" lon="2.770416">
        <ele>189</ele>
        <time>2019-08-19T03:22:11Z</time>
      </trkpt>
      <trkpt lat="42.205537" lon="2.770333">
        <ele>189</ele>
        <time>2019-08-19T03:22:12Z</time>
      </trkpt>
      <trkpt lat="42.205539" lon="2.770251">
        <ele>189</ele>
        <time>2019-08-19T03:22:14Z</time>
      </trkpt>
      <trkpt lat="42.20554" lon="2.770168">
        <ele>189</ele>
        <time>2019-08-19T03:22:15Z</time>
      </trkpt>
      <trkpt lat="42.205542" lon="2.770086">
        <ele>189</ele>
        <time>2019-08-19T03:22:16Z</time>
      </trkpt>
      <trkpt lat="42.205544" lon="2.770003">
        <ele>189</ele>
        <time>2019-08-19T03:22:17Z</time>
      </trkpt>
      <trkpt lat="42.205545" lon="2.769921">
        <ele>189</ele>
        <time>2019-08-19T03:22:18Z</time>
      </trkpt>
      <trkpt lat="42.205547" lon="2.769838">
        <ele>189</ele>
        <time>2019-08-19T03:22:19Z</time>
      </trkpt>
      <trkpt lat="42.205552" lon="2.769588">
        <ele>189</ele>
        <time>2019-08-19T03:22:20Z</time>
      </trkpt>
      <trkpt lat="42.205554" lon="2.769479">
        <ele>189</ele>
        <time>2019-08-19T03:22:22Z</time>
      </trkpt>
      <trkpt lat="42.205557" lon="2.76937">
        <ele>189</ele>
        <time>2019-08-19T03:22:23Z</time>
      </trkpt>
      <trkpt lat="42.205559" lon="2.769262">
        <ele>189</ele>
        <time>2019-08-19T03:22:25Z</time>
      </trkpt>
      <trkpt lat="42.205562" lon="2.769153">
        <ele>189</ele>
        <time>2019-08-19T03:22:26Z</time>
      </trkpt>
      <trkpt lat="42.205564" lon="2.769044">
        <ele>189</ele>
        <time>2019-08-19T03:22:27Z</time>
      </trkpt>
      <trkpt lat="42.205567" lon="2.768935">
        <ele>189</ele>
        <time>2019-08-19T03:22:28Z</time>
      </trkpt>
      <trkpt lat="42.205569" lon="2.768826">
        <ele>189</ele>
        <time>2019-08-19T03:22:29Z</time>
      </trkpt>
      <trkpt lat="42.20557" lon="2.768769">
        <ele>189</ele>
        <time>2019-08-19T03:22:30Z</time>
      </trkpt>
      <trkpt lat="42.205573" lon="2.768654">
        <ele>189</ele>
        <time>2019-08-19T03:22:31Z</time>
      </trkpt>
      <trkpt lat="42.205576" lon="2.768538">
        <ele>189</ele>
        <time>2019-08-19T03:22:32Z</time>
      </trkpt>
      <trkpt lat="42.205579" lon="2.768419">
        <ele>189</ele>
        <time>2019-08-19T03:22:33Z</time>
      </trkpt>
      <trkpt lat="42.205583" lon="2.768177">
        <ele>189</ele>
        <time>2019-08-19T03:22:34Z</time>
      </trkpt>
      <trkpt lat="42.205586" lon="2.768054">
        <ele>189</ele>
        <time>2019-08-19T03:22:35Z</time>
      </trkpt>
      <trkpt lat="42.205589" lon="2.767931">
        <ele>189</ele>
        <time>2019-08-19T03:22:36Z</time>
      </trkpt>
      <trkpt lat="42.205592" lon="2.767808">
        <ele>189</ele>
        <time>2019-08-19T03:22:38Z</time>
      </trkpt>
      <trkpt lat="42.205596" lon="2.767684">
        <ele>189</ele>
        <time>2019-08-19T03:22:39Z</time>
      </trkpt>
      <trkpt lat="42.205601" lon="2.767494">
        <ele>185</ele>
        <time>2019-08-19T03:22:40Z</time>
      </trkpt>
      <trkpt lat="42.205609" lon="2.767175">
        <ele>185</ele>
        <time>2019-08-19T03:22:41Z</time>
      </trkpt>
      <trkpt lat="42.205612" lon="2.767046">
        <ele>185</ele>
        <time>2019-08-19T03:22:42Z</time>
      </trkpt>
      <trkpt lat="42.205614" lon="2.766916">
        <ele>185</ele>
        <time>2019-08-19T03:22:43Z</time>
      </trkpt>
      <trkpt lat="42.205617" lon="2.766787">
        <ele>185</ele>
        <time>2019-08-19T03:22:44Z</time>
      </trkpt>
      <trkpt lat="42.20562" lon="2.766658">
        <ele>185</ele>
        <time>2019-08-19T03:22:45Z</time>
      </trkpt>
      <trkpt lat="42.205623" lon="2.766529">
        <ele>185</ele>
        <time>2019-08-19T03:22:46Z</time>
      </trkpt>
      <trkpt lat="42.205625" lon="2.766399">
        <ele>185</ele>
        <time>2019-08-19T03:22:47Z</time>
      </trkpt>
      <trkpt lat="42.205628" lon="2.76627">
        <ele>185</ele>
        <time>2019-08-19T03:22:48Z</time>
      </trkpt>
      <trkpt lat="42.205631" lon="2.766141">
        <ele>183</ele>
        <time>2019-08-19T03:22:50Z</time>
      </trkpt>
      <trkpt lat="42.205636" lon="2.765898">
        <ele>183</ele>
        <time>2019-08-19T03:22:51Z</time>
      </trkpt>
      <trkpt lat="42.205639" lon="2.765781">
        <ele>183</ele>
        <time>2019-08-19T03:22:52Z</time>
      </trkpt>
      <trkpt lat="42.205642" lon="2.765664">
        <ele>183</ele>
        <time>2019-08-19T03:22:53Z</time>
      </trkpt>
      <trkpt lat="42.205645" lon="2.765548">
        <ele>183</ele>
        <time>2019-08-19T03:22:54Z</time>
      </trkpt>
      <trkpt lat="42.205648" lon="2.765431">
        <ele>183</ele>
        <time>2019-08-19T03:22:56Z</time>
      </trkpt>
      <trkpt lat="42.205651" lon="2.765314">
        <ele>183</ele>
        <time>2019-08-19T03:22:57Z</time>
      </trkpt>
      <trkpt lat="42.205654" lon="2.765197">
        <ele>183</ele>
        <time>2019-08-19T03:22:58Z</time>
      </trkpt>
      <trkpt lat="42.205657" lon="2.76508">
        <ele>181</ele>
        <time>2019-08-19T03:22:59Z</time>
      </trkpt>
      <trkpt lat="42.205664" lon="2.764863">
        <ele>181</ele>
        <time>2019-08-19T03:23:00Z</time>
      </trkpt>
      <trkpt lat="42.205667" lon="2.764759">
        <ele>181</ele>
        <time>2019-08-19T03:23:02Z</time>
      </trkpt>
      <trkpt lat="42.205671" lon="2.764655">
        <ele>181</ele>
        <time>2019-08-19T03:23:03Z</time>
      </trkpt>
      <trkpt lat="42.205674" lon="2.764551">
        <ele>181</ele>
        <time>2019-08-19T03:23:04Z</time>
      </trkpt>
      <trkpt lat="42.205677" lon="2.764446">
        <ele>181</ele>
        <time>2019-08-19T03:23:05Z</time>
      </trkpt>
      <trkpt lat="42.20568" lon="2.764342">
        <ele>181</ele>
        <time>2019-08-19T03:23:06Z</time>
      </trkpt>
      <trkpt lat="42.205684" lon="2.764238">
        <ele>181</ele>
        <time>2019-08-19T03:23:07Z</time>
      </trkpt>
      <trkpt lat="42.205687" lon="2.764134">
        <ele>181</ele>
        <time>2019-08-19T03:23:08Z</time>
      </trkpt>
      <trkpt lat="42.20569" lon="2.76403">
        <ele>181</ele>
        <time>2019-08-19T03:23:09Z</time>
      </trkpt>
      <trkpt lat="42.205697" lon="2.763753">
        <ele>181</ele>
        <time>2019-08-19T03:23:10Z</time>
      </trkpt>
      <trkpt lat="42.2057" lon="2.763638">
        <ele>181</ele>
        <time>2019-08-19T03:23:12Z</time>
      </trkpt>
      <trkpt lat="42.205704" lon="2.763522">
        <ele>181</ele>
        <time>2019-08-19T03:23:13Z</time>
      </trkpt>
      <trkpt lat="42.205708" lon="2.763406">
        <ele>181</ele>
        <time>2019-08-19T03:23:14Z</time>
      </trkpt>
      <trkpt lat="42.205711" lon="2.76329">
        <ele>181</ele>
        <time>2019-08-19T03:23:16Z</time>
      </trkpt>
      <trkpt lat="42.205715" lon="2.763175">
        <ele>181</ele>
        <time>2019-08-19T03:23:17Z</time>
      </trkpt>
      <trkpt lat="42.205718" lon="2.763059">
        <ele>181</ele>
        <time>2019-08-19T03:23:18Z</time>
      </trkpt>
      <trkpt lat="42.205722" lon="2.762943">
        <ele>182</ele>
        <time>2019-08-19T03:23:19Z</time>
      </trkpt>
      <trkpt lat="42.205726" lon="2.762749">
        <ele>182</ele>
        <time>2019-08-19T03:23:20Z</time>
      </trkpt>
      <trkpt lat="42.205729" lon="2.762657">
        <ele>182</ele>
        <time>2019-08-19T03:23:22Z</time>
      </trkpt>
      <trkpt lat="42.205731" lon="2.762565">
        <ele>182</ele>
        <time>2019-08-19T03:23:23Z</time>
      </trkpt>
      <trkpt lat="42.205734" lon="2.762473">
        <ele>182</ele>
        <time>2019-08-19T03:23:24Z</time>
      </trkpt>
      <trkpt lat="42.205737" lon="2.76238">
        <ele>182</ele>
        <time>2019-08-19T03:23:25Z</time>
      </trkpt>
      <trkpt lat="42.20574" lon="2.762288">
        <ele>182</ele>
        <time>2019-08-19T03:23:26Z</time>
      </trkpt>
      <trkpt lat="42.205742" lon="2.762196">
        <ele>182</ele>
        <time>2019-08-19T03:23:27Z</time>
      </trkpt>
      <trkpt lat="42.205745" lon="2.762104">
        <ele>182</ele>
        <time>2019-08-19T03:23:28Z</time>
      </trkpt>
      <trkpt lat="42.205748" lon="2.762012">
        <ele>182</ele>
        <time>2019-08-19T03:23:29Z</time>
      </trkpt>
      <trkpt lat="42.205754" lon="2.761849">
        <ele>182</ele>
        <time>2019-08-19T03:23:30Z</time>
      </trkpt>
      <trkpt lat="42.205757" lon="2.761771">
        <ele>182</ele>
        <time>2019-08-19T03:23:31Z</time>
      </trkpt>
      <trkpt lat="42.20576" lon="2.761692">
        <ele>182</ele>
        <time>2019-08-19T03:23:32Z</time>
      </trkpt>
      <trkpt lat="42.205763" lon="2.761614">
        <ele>182</ele>
        <time>2019-08-19T03:23:33Z</time>
      </trkpt>
      <trkpt lat="42.205767" lon="2.761535">
        <ele>182</ele>
        <time>2019-08-19T03:23:35Z</time>
      </trkpt>
      <trkpt lat="42.20577" lon="2.761457">
        <ele>182</ele>
        <time>2019-08-19T03:23:36Z</time>
      </trkpt>
      <trkpt lat="42.205773" lon="2.761378">
        <ele>182</ele>
        <time>2019-08-19T03:23:37Z</time>
      </trkpt>
      <trkpt lat="42.205776" lon="2.7613">
        <ele>182</ele>
        <time>2019-08-19T03:23:38Z</time>
      </trkpt>
      <trkpt lat="42.205779" lon="2.761221">
        <ele>183</ele>
        <time>2019-08-19T03:23:39Z</time>
      </trkpt>
      <trkpt lat="42.205784" lon="2.761075">
        <ele>183</ele>
        <time>2019-08-19T03:23:40Z</time>
      </trkpt>
      <trkpt lat="42.205786" lon="2.761006">
        <ele>183</ele>
        <time>2019-08-19T03:23:41Z</time>
      </trkpt>
      <trkpt lat="42.205788" lon="2.760938">
        <ele>183</ele>
        <time>2019-08-19T03:23:42Z</time>
      </trkpt>
      <trkpt lat="42.20579" lon="2.76087">
        <ele>183</ele>
        <time>2019-08-19T03:23:44Z</time>
      </trkpt>
      <trkpt lat="42.205791" lon="2.760801">
        <ele>183</ele>
        <time>2019-08-19T03:23:45Z</time>
      </trkpt>
      <trkpt lat="42.205793" lon="2.760733">
        <ele>183</ele>
        <time>2019-08-19T03:23:46Z</time>
      </trkpt>
      <trkpt lat="42.205795" lon="2.760665">
        <ele>183</ele>
        <time>2019-08-19T03:23:47Z</time>
      </trkpt>
      <trkpt lat="42.205797" lon="2.760596">
        <ele>183</ele>
        <time>2019-08-19T03:23:48Z</time>
      </trkpt>
      <trkpt lat="42.205799" lon="2.760528">
        <ele>184</ele>
        <time>2019-08-19T03:23:49Z</time>
      </trkpt>
      <trkpt lat="42.205803" lon="2.760371">
        <ele>184</ele>
        <time>2019-08-19T03:23:50Z</time>
      </trkpt>
      <trkpt lat="42.205804" lon="2.760294">
        <ele>184</ele>
        <time>2019-08-19T03:23:51Z</time>
      </trkpt>
      <trkpt lat="42.205806" lon="2.760217">
        <ele>184</ele>
        <time>2019-08-19T03:23:52Z</time>
      </trkpt>
      <trkpt lat="42.205807" lon="2.76014">
        <ele>184</ele>
        <time>2019-08-19T03:23:53Z</time>
      </trkpt>
      <trkpt lat="42.205809" lon="2.760063">
        <ele>184</ele>
        <time>2019-08-19T03:23:54Z</time>
      </trkpt>
      <trkpt lat="42.20581" lon="2.759986">
        <ele>184</ele>
        <time>2019-08-19T03:23:55Z</time>
      </trkpt>
      <trkpt lat="42.205812" lon="2.759909">
        <ele>184</ele>
        <time>2019-08-19T03:23:56Z</time>
      </trkpt>
      <trkpt lat="42.205813" lon="2.759832">
        <ele>184</ele>
        <time>2019-08-19T03:23:57Z</time>
      </trkpt>
      <trkpt lat="42.205815" lon="2.759755">
        <ele>184</ele>
        <time>2019-08-19T03:23:58Z</time>
      </trkpt>
      <trkpt lat="42.205816" lon="2.759678">
        <ele>183</ele>
        <time>2019-08-19T03:23:59Z</time>
      </trkpt>
      <trkpt lat="42.205818" lon="2.759493">
        <ele>183</ele>
        <time>2019-08-19T03:24:00Z</time>
      </trkpt>
      <trkpt lat="42.205819" lon="2.759398">
        <ele>183</ele>
        <time>2019-08-19T03:24:01Z</time>
      </trkpt>
      <trkpt lat="42.20582" lon="2.759303">
        <ele>183</ele>
        <time>2019-08-19T03:24:02Z</time>
      </trkpt>
      <trkpt lat="42.205821" lon="2.759208">
        <ele>183</ele>
        <time>2019-08-19T03:24:03Z</time>
      </trkpt>
      <trkpt lat="42.205822" lon="2.759114">
        <ele>183</ele>
        <time>2019-08-19T03:24:04Z</time>
      </trkpt>
      <trkpt lat="42.205822" lon="2.759019">
        <ele>183</ele>
        <time>2019-08-19T03:24:05Z</time>
      </trkpt>
      <trkpt lat="42.205823" lon="2.758924">
        <ele>183</ele>
        <time>2019-08-19T03:24:06Z</time>
      </trkpt>
      <trkpt lat="42.205824" lon="2.758829">
        <ele>183</ele>
        <time>2019-08-19T03:24:07Z</time>
      </trkpt>
      <trkpt lat="42.205825" lon="2.758734">
        <ele>183</ele>
        <time>2019-08-19T03:24:08Z</time>
      </trkpt>
      <trkpt lat="42.205826" lon="2.758639">
        <ele>182</ele>
        <time>2019-08-19T03:24:09Z</time>
      </trkpt>
      <trkpt lat="42.205829" lon="2.758422">
        <ele>182</ele>
        <time>2019-08-19T03:24:10Z</time>
      </trkpt>
      <trkpt lat="42.20583" lon="2.758309">
        <ele>182</ele>
        <time>2019-08-19T03:24:12Z</time>
      </trkpt>
      <trkpt lat="42.205832" lon="2.758196">
        <ele>182</ele>
        <time>2019-08-19T03:24:13Z</time>
      </trkpt>
      <trkpt lat="42.205834" lon="2.758083">
        <ele>182</ele>
        <time>2019-08-19T03:24:14Z</time>
      </trkpt>
      <trkpt lat="42.205835" lon="2.757971">
        <ele>182</ele>
        <time>2019-08-19T03:24:15Z</time>
      </trkpt>
      <trkpt lat="42.205837" lon="2.757858">
        <ele>182</ele>
        <time>2019-08-19T03:24:16Z</time>
      </trkpt>
      <trkpt lat="42.205839" lon="2.757745">
        <ele>182</ele>
        <time>2019-08-19T03:24:17Z</time>
      </trkpt>
      <trkpt lat="42.20584" lon="2.757632">
        <ele>182</ele>
        <time>2019-08-19T03:24:18Z</time>
      </trkpt>
      <trkpt lat="42.205842" lon="2.757519">
        <ele>181</ele>
        <time>2019-08-19T03:24:19Z</time>
      </trkpt>
      <trkpt lat="42.205843" lon="2.757398">
        <ele>181</ele>
        <time>2019-08-19T03:24:20Z</time>
      </trkpt>
      <trkpt lat="42.205844" lon="2.757274">
        <ele>181</ele>
        <time>2019-08-19T03:24:21Z</time>
      </trkpt>
      <trkpt lat="42.205845" lon="2.75715">
        <ele>181</ele>
        <time>2019-08-19T03:24:22Z</time>
      </trkpt>
      <trkpt lat="42.205845" lon="2.757024">
        <ele>181</ele>
        <time>2019-08-19T03:24:23Z</time>
      </trkpt>
      <trkpt lat="42.205846" lon="2.756897">
        <ele>181</ele>
        <time>2019-08-19T03:24:24Z</time>
      </trkpt>
      <trkpt lat="42.205847" lon="2.75664">
        <ele>181</ele>
        <time>2019-08-19T03:24:26Z</time>
      </trkpt>
      <trkpt lat="42.205849" lon="2.756509">
        <ele>181</ele>
        <time>2019-08-19T03:24:27Z</time>
      </trkpt>
      <trkpt lat="42.205852" lon="2.756378">
        <ele>181</ele>
        <time>2019-08-19T03:24:28Z</time>
      </trkpt>
      <trkpt lat="42.205852" lon="2.756312">
        <ele>178</ele>
        <time>2019-08-19T03:24:29Z</time>
      </trkpt>
      <trkpt lat="42.205852" lon="2.756246">
        <ele>178</ele>
        <time>2019-08-19T03:24:30Z</time>
      </trkpt>
      <trkpt lat="42.205852" lon="2.756112">
        <ele>178</ele>
        <time>2019-08-19T03:24:31Z</time>
      </trkpt>
      <trkpt lat="42.205853" lon="2.755978">
        <ele>178</ele>
        <time>2019-08-19T03:24:32Z</time>
      </trkpt>
      <trkpt lat="42.205855" lon="2.755708">
        <ele>178</ele>
        <time>2019-08-19T03:24:33Z</time>
      </trkpt>
      <trkpt lat="42.205856" lon="2.755572">
        <ele>178</ele>
        <time>2019-08-19T03:24:34Z</time>
      </trkpt>
      <trkpt lat="42.205859" lon="2.755299">
        <ele>178</ele>
        <time>2019-08-19T03:24:36Z</time>
      </trkpt>
      <trkpt lat="42.205859" lon="2.755162">
        <ele>178</ele>
        <time>2019-08-19T03:24:38Z</time>
      </trkpt>
      <trkpt lat="42.205859" lon="2.755028">
        <ele>173</ele>
        <time>2019-08-19T03:24:39Z</time>
      </trkpt>
      <trkpt lat="42.205859" lon="2.754894">
        <ele>173</ele>
        <time>2019-08-19T03:24:40Z</time>
      </trkpt>
      <trkpt lat="42.205862" lon="2.754638">
        <ele>173</ele>
        <time>2019-08-19T03:24:41Z</time>
      </trkpt>
      <trkpt lat="42.205863" lon="2.754511">
        <ele>173</ele>
        <time>2019-08-19T03:24:43Z</time>
      </trkpt>
      <trkpt lat="42.205865" lon="2.754388">
        <ele>173</ele>
        <time>2019-08-19T03:24:44Z</time>
      </trkpt>
      <trkpt lat="42.205868" lon="2.754267">
        <ele>173</ele>
        <time>2019-08-19T03:24:45Z</time>
      </trkpt>
      <trkpt lat="42.205871" lon="2.754149">
        <ele>173</ele>
        <time>2019-08-19T03:24:46Z</time>
      </trkpt>
      <trkpt lat="42.205877" lon="2.753917">
        <ele>173</ele>
        <time>2019-08-19T03:24:47Z</time>
      </trkpt>
      <trkpt lat="42.205881" lon="2.753762">
        <ele>172</ele>
        <time>2019-08-19T03:24:49Z</time>
      </trkpt>
      <trkpt lat="42.205883" lon="2.753684">
        <ele>172</ele>
        <time>2019-08-19T03:24:50Z</time>
      </trkpt>
      <trkpt lat="42.205887" lon="2.75357">
        <ele>172</ele>
        <time>2019-08-19T03:24:51Z</time>
      </trkpt>
      <trkpt lat="42.2059" lon="2.753345">
        <ele>172</ele>
        <time>2019-08-19T03:24:52Z</time>
      </trkpt>
      <trkpt lat="42.205907" lon="2.753236">
        <ele>172</ele>
        <time>2019-08-19T03:24:53Z</time>
      </trkpt>
      <trkpt lat="42.205915" lon="2.753128">
        <ele>172</ele>
        <time>2019-08-19T03:24:54Z</time>
      </trkpt>
      <trkpt lat="42.205925" lon="2.753021">
        <ele>172</ele>
        <time>2019-08-19T03:24:55Z</time>
      </trkpt>
      <trkpt lat="42.205935" lon="2.752916">
        <ele>172</ele>
        <time>2019-08-19T03:24:56Z</time>
      </trkpt>
      <trkpt lat="42.205959" lon="2.752713">
        <ele>172</ele>
        <time>2019-08-19T03:24:58Z</time>
      </trkpt>
      <trkpt lat="42.205984" lon="2.752524">
        <ele>171</ele>
        <time>2019-08-19T03:25:00Z</time>
      </trkpt>
      <trkpt lat="42.20601" lon="2.75235">
        <ele>171</ele>
        <time>2019-08-19T03:25:01Z</time>
      </trkpt>
      <trkpt lat="42.206023" lon="2.752269">
        <ele>171</ele>
        <time>2019-08-19T03:25:02Z</time>
      </trkpt>
      <trkpt lat="42.206036" lon="2.752189">
        <ele>171</ele>
        <time>2019-08-19T03:25:03Z</time>
      </trkpt>
      <trkpt lat="42.206049" lon="2.752109">
        <ele>171</ele>
        <time>2019-08-19T03:25:04Z</time>
      </trkpt>
      <trkpt lat="42.206061" lon="2.752028">
        <ele>171</ele>
        <time>2019-08-19T03:25:05Z</time>
      </trkpt>
      <trkpt lat="42.206074" lon="2.751948">
        <ele>171</ele>
        <time>2019-08-19T03:25:06Z</time>
      </trkpt>
      <trkpt lat="42.206087" lon="2.751868">
        <ele>171</ele>
        <time>2019-08-19T03:25:07Z</time>
      </trkpt>
      <trkpt lat="42.2061" lon="2.751787">
        <ele>171</ele>
        <time>2019-08-19T03:25:08Z</time>
      </trkpt>
      <trkpt lat="42.206113" lon="2.751707">
        <ele>173</ele>
        <time>2019-08-19T03:25:10Z</time>
      </trkpt>
      <trkpt lat="42.206135" lon="2.75157">
        <ele>173</ele>
        <time>2019-08-19T03:25:11Z</time>
      </trkpt>
      <trkpt lat="42.206145" lon="2.75151">
        <ele>173</ele>
        <time>2019-08-19T03:25:12Z</time>
      </trkpt>
      <trkpt lat="42.206154" lon="2.75145">
        <ele>173</ele>
        <time>2019-08-19T03:25:13Z</time>
      </trkpt>
      <trkpt lat="42.206163" lon="2.75139">
        <ele>173</ele>
        <time>2019-08-19T03:25:14Z</time>
      </trkpt>
      <trkpt lat="42.206173" lon="2.751329">
        <ele>173</ele>
        <time>2019-08-19T03:25:15Z</time>
      </trkpt>
      <trkpt lat="42.206182" lon="2.751269">
        <ele>173</ele>
        <time>2019-08-19T03:25:16Z</time>
      </trkpt>
      <trkpt lat="42.206191" lon="2.751209">
        <ele>173</ele>
        <time>2019-08-19T03:25:17Z</time>
      </trkpt>
      <trkpt lat="42.206201" lon="2.751149">
        <ele>173</ele>
        <time>2019-08-19T03:25:18Z</time>
      </trkpt>
      <trkpt lat="42.20621" lon="2.751089">
        <ele>174</ele>
        <time>2019-08-19T03:25:19Z</time>
      </trkpt>
      <trkpt lat="42.206224" lon="2.750984">
        <ele>174</ele>
        <time>2019-08-19T03:25:20Z</time>
      </trkpt>
      <trkpt lat="42.206233" lon="2.750915">
        <ele>174</ele>
        <time>2019-08-19T03:25:21Z</time>
      </trkpt>
      <trkpt lat="42.206241" lon="2.750847">
        <ele>174</ele>
        <time>2019-08-19T03:25:22Z</time>
      </trkpt>
      <trkpt lat="42.20625" lon="2.750778">
        <ele>174</ele>
        <time>2019-08-19T03:25:23Z</time>
      </trkpt>
      <trkpt lat="42.206259" lon="2.750709">
        <ele>174</ele>
        <time>2019-08-19T03:25:25Z</time>
      </trkpt>
      <trkpt lat="42.206268" lon="2.75064">
        <ele>174</ele>
        <time>2019-08-19T03:25:26Z</time>
      </trkpt>
      <trkpt lat="42.206276" lon="2.750572">
        <ele>174</ele>
        <time>2019-08-19T03:25:27Z</time>
      </trkpt>
      <trkpt lat="42.206285" lon="2.750503">
        <ele>174</ele>
        <time>2019-08-19T03:25:28Z</time>
      </trkpt>
      <trkpt lat="42.206294" lon="2.750434">
        <ele>176</ele>
        <time>2019-08-19T03:25:29Z</time>
      </trkpt>
      <trkpt lat="42.206312" lon="2.750286">
        <ele>176</ele>
        <time>2019-08-19T03:25:30Z</time>
      </trkpt>
      <trkpt lat="42.206323" lon="2.750207">
        <ele>176</ele>
        <time>2019-08-19T03:25:31Z</time>
      </trkpt>
      <trkpt lat="42.206334" lon="2.750127">
        <ele>176</ele>
        <time>2019-08-19T03:25:33Z</time>
      </trkpt>
      <trkpt lat="42.206345" lon="2.750047">
        <ele>176</ele>
        <time>2019-08-19T03:25:35Z</time>
      </trkpt>
      <trkpt lat="42.206355" lon="2.749967">
        <ele>176</ele>
        <time>2019-08-19T03:25:36Z</time>
      </trkpt>
      <trkpt lat="42.206366" lon="2.749888">
        <ele>176</ele>
        <time>2019-08-19T03:25:37Z</time>
      </trkpt>
      <trkpt lat="42.206377" lon="2.749808">
        <ele>176</ele>
        <time>2019-08-19T03:25:38Z</time>
      </trkpt>
      <trkpt lat="42.206388" lon="2.749728">
        <ele>177</ele>
        <time>2019-08-19T03:25:39Z</time>
      </trkpt>
      <trkpt lat="42.2064" lon="2.749633">
        <ele>177</ele>
        <time>2019-08-19T03:25:40Z</time>
      </trkpt>
      <trkpt lat="42.206409" lon="2.749571">
        <ele>177</ele>
        <time>2019-08-19T03:25:41Z</time>
      </trkpt>
      <trkpt lat="42.206417" lon="2.74951">
        <ele>177</ele>
        <time>2019-08-19T03:25:42Z</time>
      </trkpt>
      <trkpt lat="42.206426" lon="2.749448">
        <ele>177</ele>
        <time>2019-08-19T03:25:43Z</time>
      </trkpt>
      <trkpt lat="42.206435" lon="2.749387">
        <ele>177</ele>
        <time>2019-08-19T03:25:44Z</time>
      </trkpt>
      <trkpt lat="42.206444" lon="2.749325">
        <ele>177</ele>
        <time>2019-08-19T03:25:45Z</time>
      </trkpt>
      <trkpt lat="42.206452" lon="2.749264">
        <ele>177</ele>
        <time>2019-08-19T03:25:47Z</time>
      </trkpt>
      <trkpt lat="42.206461" lon="2.749202">
        <ele>177</ele>
        <time>2019-08-19T03:25:48Z</time>
      </trkpt>
      <trkpt lat="42.20647" lon="2.749141">
        <ele>177</ele>
        <time>2019-08-19T03:25:49Z</time>
      </trkpt>
      <trkpt lat="42.206476" lon="2.749023">
        <ele>177</ele>
        <time>2019-08-19T03:25:50Z</time>
      </trkpt>
      <trkpt lat="42.206477" lon="2.748966">
        <ele>177</ele>
        <time>2019-08-19T03:25:51Z</time>
      </trkpt>
      <trkpt lat="42.206478" lon="2.748908">
        <ele>177</ele>
        <time>2019-08-19T03:25:52Z</time>
      </trkpt>
      <trkpt lat="42.206479" lon="2.74885">
        <ele>177</ele>
        <time>2019-08-19T03:25:53Z</time>
      </trkpt>
      <trkpt lat="42.206481" lon="2.748793">
        <ele>177</ele>
        <time>2019-08-19T03:25:54Z</time>
      </trkpt>
      <trkpt lat="42.206482" lon="2.748735">
        <ele>177</ele>
        <time>2019-08-19T03:25:55Z</time>
      </trkpt>
      <trkpt lat="42.206483" lon="2.748677">
        <ele>177</ele>
        <time>2019-08-19T03:25:56Z</time>
      </trkpt>
      <trkpt lat="42.206484" lon="2.74862">
        <ele>177</ele>
        <time>2019-08-19T03:25:58Z</time>
      </trkpt>
      <trkpt lat="42.206485" lon="2.748562">
        <ele>179</ele>
        <time>2019-08-19T03:25:59Z</time>
      </trkpt>
      <trkpt lat="42.20648" lon="2.748442">
        <ele>179</ele>
        <time>2019-08-19T03:26:00Z</time>
      </trkpt>
      <trkpt lat="42.206475" lon="2.748383">
        <ele>179</ele>
        <time>2019-08-19T03:26:01Z</time>
      </trkpt>
      <trkpt lat="42.20647" lon="2.748325">
        <ele>179</ele>
        <time>2019-08-19T03:26:02Z</time>
      </trkpt>
      <trkpt lat="42.206465" lon="2.748267">
        <ele>179</ele>
        <time>2019-08-19T03:26:03Z</time>
      </trkpt>
      <trkpt lat="42.20646" lon="2.748208">
        <ele>179</ele>
        <time>2019-08-19T03:26:04Z</time>
      </trkpt>
      <trkpt lat="42.206454" lon="2.74815">
        <ele>179</ele>
        <time>2019-08-19T03:26:05Z</time>
      </trkpt>
      <trkpt lat="42.206449" lon="2.748092">
        <ele>179</ele>
        <time>2019-08-19T03:26:06Z</time>
      </trkpt>
      <trkpt lat="42.206444" lon="2.748034">
        <ele>179</ele>
        <time>2019-08-19T03:26:07Z</time>
      </trkpt>
      <trkpt lat="42.206439" lon="2.747975">
        <ele>179</ele>
        <time>2019-08-19T03:26:08Z</time>
      </trkpt>
      <trkpt lat="42.206434" lon="2.747917">
        <ele>179</ele>
        <time>2019-08-19T03:26:09Z</time>
      </trkpt>
      <trkpt lat="42.206421" lon="2.747776">
        <ele>179</ele>
        <time>2019-08-19T03:26:10Z</time>
      </trkpt>
      <trkpt lat="42.206414" lon="2.747705">
        <ele>179</ele>
        <time>2019-08-19T03:26:11Z</time>
      </trkpt>
      <trkpt lat="42.206408" lon="2.747633">
        <ele>179</ele>
        <time>2019-08-19T03:26:12Z</time>
      </trkpt>
      <trkpt lat="42.206402" lon="2.747561">
        <ele>179</ele>
        <time>2019-08-19T03:26:13Z</time>
      </trkpt>
      <trkpt lat="42.206396" lon="2.747489">
        <ele>179</ele>
        <time>2019-08-19T03:26:14Z</time>
      </trkpt>
      <trkpt lat="42.206389" lon="2.747418">
        <ele>179</ele>
        <time>2019-08-19T03:26:15Z</time>
      </trkpt>
      <trkpt lat="42.206383" lon="2.747346">
        <ele>179</ele>
        <time>2019-08-19T03:26:16Z</time>
      </trkpt>
      <trkpt lat="42.206377" lon="2.747274">
        <ele>179</ele>
        <time>2019-08-19T03:26:17Z</time>
      </trkpt>
      <trkpt lat="42.20637" lon="2.747203">
        <ele>179</ele>
        <time>2019-08-19T03:26:18Z</time>
      </trkpt>
      <trkpt lat="42.206364" lon="2.747131">
        <ele>178</ele>
        <time>2019-08-19T03:26:19Z</time>
      </trkpt>
      <trkpt lat="42.206351" lon="2.746967">
        <ele>178</ele>
        <time>2019-08-19T03:26:20Z</time>
      </trkpt>
      <trkpt lat="42.206344" lon="2.746879">
        <ele>178</ele>
        <time>2019-08-19T03:26:21Z</time>
      </trkpt>
      <trkpt lat="42.206338" lon="2.746792">
        <ele>178</ele>
        <time>2019-08-19T03:26:22Z</time>
      </trkpt>
      <trkpt lat="42.206332" lon="2.746704">
        <ele>178</ele>
        <time>2019-08-19T03:26:24Z</time>
      </trkpt>
      <trkpt lat="42.206325" lon="2.746616">
        <ele>178</ele>
        <time>2019-08-19T03:26:26Z</time>
      </trkpt>
      <trkpt lat="42.206319" lon="2.746528">
        <ele>178</ele>
        <time>2019-08-19T03:26:27Z</time>
      </trkpt>
      <trkpt lat="42.206312" lon="2.746441">
        <ele>178</ele>
        <time>2019-08-19T03:26:28Z</time>
      </trkpt>
      <trkpt lat="42.206306" lon="2.746353">
        <ele>179</ele>
        <time>2019-08-19T03:26:29Z</time>
      </trkpt>
      <trkpt lat="42.20629" lon="2.746129">
        <ele>179</ele>
        <time>2019-08-19T03:26:30Z</time>
      </trkpt>
      <trkpt lat="42.206284" lon="2.74603">
        <ele>179</ele>
        <time>2019-08-19T03:26:32Z</time>
      </trkpt>
      <trkpt lat="42.206277" lon="2.74593">
        <ele>179</ele>
        <time>2019-08-19T03:26:33Z</time>
      </trkpt>
      <trkpt lat="42.206271" lon="2.74583">
        <ele>179</ele>
        <time>2019-08-19T03:26:35Z</time>
      </trkpt>
      <trkpt lat="42.206264" lon="2.745731">
        <ele>179</ele>
        <time>2019-08-19T03:26:36Z</time>
      </trkpt>
      <trkpt lat="42.206257" lon="2.745631">
        <ele>179</ele>
        <time>2019-08-19T03:26:37Z</time>
      </trkpt>
      <trkpt lat="42.206251" lon="2.745532">
        <ele>179</ele>
        <time>2019-08-19T03:26:38Z</time>
      </trkpt>
      <trkpt lat="42.206244" lon="2.745432">
        <ele>179</ele>
        <time>2019-08-19T03:26:39Z</time>
      </trkpt>
      <trkpt lat="42.206232" lon="2.745246">
        <ele>179</ele>
        <time>2019-08-19T03:26:40Z</time>
      </trkpt>
      <trkpt lat="42.206226" lon="2.745153">
        <ele>179</ele>
        <time>2019-08-19T03:26:41Z</time>
      </trkpt>
      <trkpt lat="42.20622" lon="2.745061">
        <ele>179</ele>
        <time>2019-08-19T03:26:42Z</time>
      </trkpt>
      <trkpt lat="42.206214" lon="2.744968">
        <ele>179</ele>
        <time>2019-08-19T03:26:43Z</time>
      </trkpt>
      <trkpt lat="42.206208" lon="2.744875">
        <ele>179</ele>
        <time>2019-08-19T03:26:45Z</time>
      </trkpt>
      <trkpt lat="42.206202" lon="2.744782">
        <ele>179</ele>
        <time>2019-08-19T03:26:46Z</time>
      </trkpt>
      <trkpt lat="42.206196" lon="2.74469">
        <ele>179</ele>
        <time>2019-08-19T03:26:47Z</time>
      </trkpt>
      <trkpt lat="42.20619" lon="2.744597">
        <ele>179</ele>
        <time>2019-08-19T03:26:48Z</time>
      </trkpt>
      <trkpt lat="42.206184" lon="2.744504">
        <ele>179</ele>
        <time>2019-08-19T03:26:49Z</time>
      </trkpt>
      <trkpt lat="42.206169" lon="2.744307">
        <ele>179</ele>
        <time>2019-08-19T03:26:50Z</time>
      </trkpt>
      <trkpt lat="42.206162" lon="2.744206">
        <ele>179</ele>
        <time>2019-08-19T03:26:51Z</time>
      </trkpt>
      <trkpt lat="42.206155" lon="2.744104">
        <ele>179</ele>
        <time>2019-08-19T03:26:52Z</time>
      </trkpt>
      <trkpt lat="42.206148" lon="2.744003">
        <ele>179</ele>
        <time>2019-08-19T03:26:54Z</time>
      </trkpt>
      <trkpt lat="42.20614" lon="2.743901">
        <ele>179</ele>
        <time>2019-08-19T03:26:55Z</time>
      </trkpt>
      <trkpt lat="42.206133" lon="2.7438">
        <ele>179</ele>
        <time>2019-08-19T03:26:56Z</time>
      </trkpt>
      <trkpt lat="42.206126" lon="2.743698">
        <ele>179</ele>
        <time>2019-08-19T03:26:57Z</time>
      </trkpt>
      <trkpt lat="42.206119" lon="2.743597">
        <ele>179</ele>
        <time>2019-08-19T03:26:58Z</time>
      </trkpt>
      <trkpt lat="42.206112" lon="2.743495">
        <ele>178</ele>
        <time>2019-08-19T03:26:59Z</time>
      </trkpt>
      <trkpt lat="42.206087" lon="2.743172">
        <ele>178</ele>
        <time>2019-08-19T03:27:01Z</time>
      </trkpt>
      <trkpt lat="42.20608" lon="2.743055">
        <ele>178</ele>
        <time>2019-08-19T03:27:02Z</time>
      </trkpt>
      <trkpt lat="42.206072" lon="2.742939">
        <ele>178</ele>
        <time>2019-08-19T03:27:04Z</time>
      </trkpt>
      <trkpt lat="42.206065" lon="2.742823">
        <ele>178</ele>
        <time>2019-08-19T03:27:05Z</time>
      </trkpt>
      <trkpt lat="42.206057" lon="2.742707">
        <ele>178</ele>
        <time>2019-08-19T03:27:07Z</time>
      </trkpt>
      <trkpt lat="42.20605" lon="2.74259">
        <ele>178</ele>
        <time>2019-08-19T03:27:08Z</time>
      </trkpt>
      <trkpt lat="42.206042" lon="2.742474">
        <ele>178</ele>
        <time>2019-08-19T03:27:09Z</time>
      </trkpt>
      <trkpt lat="42.206028" lon="2.742267">
        <ele>178</ele>
        <time>2019-08-19T03:27:10Z</time>
      </trkpt>
      <trkpt lat="42.206021" lon="2.742165">
        <ele>178</ele>
        <time>2019-08-19T03:27:11Z</time>
      </trkpt>
      <trkpt lat="42.206014" lon="2.742062">
        <ele>178</ele>
        <time>2019-08-19T03:27:12Z</time>
      </trkpt>
      <trkpt lat="42.206007" lon="2.74196">
        <ele>178</ele>
        <time>2019-08-19T03:27:14Z</time>
      </trkpt>
      <trkpt lat="42.206001" lon="2.741857">
        <ele>178</ele>
        <time>2019-08-19T03:27:15Z</time>
      </trkpt>
      <trkpt lat="42.205994" lon="2.741755">
        <ele>178</ele>
        <time>2019-08-19T03:27:16Z</time>
      </trkpt>
      <trkpt lat="42.205987" lon="2.741652">
        <ele>178</ele>
        <time>2019-08-19T03:27:17Z</time>
      </trkpt>
      <trkpt lat="42.20598" lon="2.74155">
        <ele>178</ele>
        <time>2019-08-19T03:27:18Z</time>
      </trkpt>
      <trkpt lat="42.205973" lon="2.741447">
        <ele>177</ele>
        <time>2019-08-19T03:27:19Z</time>
      </trkpt>
      <trkpt lat="42.205959" lon="2.741247">
        <ele>177</ele>
        <time>2019-08-19T03:27:20Z</time>
      </trkpt>
      <trkpt lat="42.205952" lon="2.741148">
        <ele>177</ele>
        <time>2019-08-19T03:27:21Z</time>
      </trkpt>
      <trkpt lat="42.205946" lon="2.741049">
        <ele>177</ele>
        <time>2019-08-19T03:27:22Z</time>
      </trkpt>
      <trkpt lat="42.205939" lon="2.74095">
        <ele>177</ele>
        <time>2019-08-19T03:27:23Z</time>
      </trkpt>
      <trkpt lat="42.205932" lon="2.740852">
        <ele>177</ele>
        <time>2019-08-19T03:27:24Z</time>
      </trkpt>
      <trkpt lat="42.205925" lon="2.740753">
        <ele>177</ele>
        <time>2019-08-19T03:27:25Z</time>
      </trkpt>
      <trkpt lat="42.205919" lon="2.740654">
        <ele>177</ele>
        <time>2019-08-19T03:27:27Z</time>
      </trkpt>
      <trkpt lat="42.205912" lon="2.740555">
        <ele>177</ele>
        <time>2019-08-19T03:27:28Z</time>
      </trkpt>
      <trkpt lat="42.205905" lon="2.740456">
        <ele>177</ele>
        <time>2019-08-19T03:27:29Z</time>
      </trkpt>
      <trkpt lat="42.205889" lon="2.740237">
        <ele>177</ele>
        <time>2019-08-19T03:27:30Z</time>
      </trkpt>
      <trkpt lat="42.205882" lon="2.740122">
        <ele>177</ele>
        <time>2019-08-19T03:27:32Z</time>
      </trkpt>
      <trkpt lat="42.205874" lon="2.740008">
        <ele>177</ele>
        <time>2019-08-19T03:27:34Z</time>
      </trkpt>
      <trkpt lat="42.205867" lon="2.739893">
        <ele>177</ele>
        <time>2019-08-19T03:27:35Z</time>
      </trkpt>
      <trkpt lat="42.205859" lon="2.739778">
        <ele>177</ele>
        <time>2019-08-19T03:27:36Z</time>
      </trkpt>
      <trkpt lat="42.205851" lon="2.739663">
        <ele>177</ele>
        <time>2019-08-19T03:27:37Z</time>
      </trkpt>
      <trkpt lat="42.205844" lon="2.739549">
        <ele>177</ele>
        <time>2019-08-19T03:27:38Z</time>
      </trkpt>
      <trkpt lat="42.205836" lon="2.739434">
        <ele>177</ele>
        <time>2019-08-19T03:27:39Z</time>
      </trkpt>
      <trkpt lat="42.205821" lon="2.739225">
        <ele>177</ele>
        <time>2019-08-19T03:27:40Z</time>
      </trkpt>
      <trkpt lat="42.205814" lon="2.739119">
        <ele>177</ele>
        <time>2019-08-19T03:27:42Z</time>
      </trkpt>
      <trkpt lat="42.205806" lon="2.739013">
        <ele>177</ele>
        <time>2019-08-19T03:27:43Z</time>
      </trkpt>
      <trkpt lat="42.205799" lon="2.738907">
        <ele>177</ele>
        <time>2019-08-19T03:27:44Z</time>
      </trkpt>
      <trkpt lat="42.205791" lon="2.738801">
        <ele>177</ele>
        <time>2019-08-19T03:27:45Z</time>
      </trkpt>
      <trkpt lat="42.205784" lon="2.738695">
        <ele>177</ele>
        <time>2019-08-19T03:27:46Z</time>
      </trkpt>
      <trkpt lat="42.205776" lon="2.738589">
        <ele>177</ele>
        <time>2019-08-19T03:27:47Z</time>
      </trkpt>
      <trkpt lat="42.205769" lon="2.738483">
        <ele>177</ele>
        <time>2019-08-19T03:27:48Z</time>
      </trkpt>
      <trkpt lat="42.205761" lon="2.738377">
        <ele>175</ele>
        <time>2019-08-19T03:27:49Z</time>
      </trkpt>
      <trkpt lat="42.205744" lon="2.738163">
        <ele>175</ele>
        <time>2019-08-19T03:27:50Z</time>
      </trkpt>
      <trkpt lat="42.205737" lon="2.738057">
        <ele>175</ele>
        <time>2019-08-19T03:27:51Z</time>
      </trkpt>
      <trkpt lat="42.205729" lon="2.737951">
        <ele>175</ele>
        <time>2019-08-19T03:27:53Z</time>
      </trkpt>
      <trkpt lat="42.205722" lon="2.737845">
        <ele>175</ele>
        <time>2019-08-19T03:27:54Z</time>
      </trkpt>
      <trkpt lat="42.205714" lon="2.737739">
        <ele>175</ele>
        <time>2019-08-19T03:27:55Z</time>
      </trkpt>
      <trkpt lat="42.205707" lon="2.737633">
        <ele>175</ele>
        <time>2019-08-19T03:27:56Z</time>
      </trkpt>
      <trkpt lat="42.205699" lon="2.737527">
        <ele>175</ele>
        <time>2019-08-19T03:27:57Z</time>
      </trkpt>
      <trkpt lat="42.205692" lon="2.737421">
        <ele>175</ele>
        <time>2019-08-19T03:27:58Z</time>
      </trkpt>
      <trkpt lat="42.205684" lon="2.737315">
        <ele>174</ele>
        <time>2019-08-19T03:27:59Z</time>
      </trkpt>
      <trkpt lat="42.205661" lon="2.736972">
        <ele>174</ele>
        <time>2019-08-19T03:28:01Z</time>
      </trkpt>
      <trkpt lat="42.205652" lon="2.736844">
        <ele>174</ele>
        <time>2019-08-19T03:28:02Z</time>
      </trkpt>
      <trkpt lat="42.205643" lon="2.736716">
        <ele>174</ele>
        <time>2019-08-19T03:28:03Z</time>
      </trkpt>
      <trkpt lat="42.205633" lon="2.736589">
        <ele>174</ele>
        <time>2019-08-19T03:28:05Z</time>
      </trkpt>
      <trkpt lat="42.205624" lon="2.736461">
        <ele>174</ele>
        <time>2019-08-19T03:28:07Z</time>
      </trkpt>
      <trkpt lat="42.205615" lon="2.736333">
        <ele>174</ele>
        <time>2019-08-19T03:28:08Z</time>
      </trkpt>
      <trkpt lat="42.205606" lon="2.736205">
        <ele>173</ele>
        <time>2019-08-19T03:28:09Z</time>
      </trkpt>
      <trkpt lat="42.205588" lon="2.735951">
        <ele>173</ele>
        <time>2019-08-19T03:28:10Z</time>
      </trkpt>
      <trkpt lat="42.205579" lon="2.735807">
        <ele>173</ele>
        <time>2019-08-19T03:28:12Z</time>
      </trkpt>
      <trkpt lat="42.205569" lon="2.735663">
        <ele>173</ele>
        <time>2019-08-19T03:28:13Z</time>
      </trkpt>
      <trkpt lat="42.205559" lon="2.735519">
        <ele>173</ele>
        <time>2019-08-19T03:28:14Z</time>
      </trkpt>
      <trkpt lat="42.205549" lon="2.735375">
        <ele>173</ele>
        <time>2019-08-19T03:28:15Z</time>
      </trkpt>
      <trkpt lat="42.20554" lon="2.735231">
        <ele>173</ele>
        <time>2019-08-19T03:28:17Z</time>
      </trkpt>
      <trkpt lat="42.20553" lon="2.735087">
        <ele>173</ele>
        <time>2019-08-19T03:28:18Z</time>
      </trkpt>
      <trkpt lat="42.20552" lon="2.734943">
        <ele>171</ele>
        <time>2019-08-19T03:28:20Z</time>
      </trkpt>
      <trkpt lat="42.205506" lon="2.734723">
        <ele>171</ele>
        <time>2019-08-19T03:28:21Z</time>
      </trkpt>
      <trkpt lat="42.205499" lon="2.734623">
        <ele>171</ele>
        <time>2019-08-19T03:28:22Z</time>
      </trkpt>
      <trkpt lat="42.205493" lon="2.734522">
        <ele>171</ele>
        <time>2019-08-19T03:28:23Z</time>
      </trkpt>
      <trkpt lat="42.205486" lon="2.734421">
        <ele>171</ele>
        <time>2019-08-19T03:28:24Z</time>
      </trkpt>
      <trkpt lat="42.20548" lon="2.734321">
        <ele>171</ele>
        <time>2019-08-19T03:28:25Z</time>
      </trkpt>
      <trkpt lat="42.205473" lon="2.73422">
        <ele>171</ele>
        <time>2019-08-19T03:28:26Z</time>
      </trkpt>
      <trkpt lat="42.205467" lon="2.734119">
        <ele>171</ele>
        <time>2019-08-19T03:28:27Z</time>
      </trkpt>
      <trkpt lat="42.20546" lon="2.734019">
        <ele>171</ele>
        <time>2019-08-19T03:28:28Z</time>
      </trkpt>
      <trkpt lat="42.205454" lon="2.733918">
        <ele>170</ele>
        <time>2019-08-19T03:28:29Z</time>
      </trkpt>
      <trkpt lat="42.205439" lon="2.73368">
        <ele>170</ele>
        <time>2019-08-19T03:28:30Z</time>
      </trkpt>
      <trkpt lat="42.20543" lon="2.73355">
        <ele>170</ele>
        <time>2019-08-19T03:28:32Z</time>
      </trkpt>
      <trkpt lat="42.205422" lon="2.73342">
        <ele>170</ele>
        <time>2019-08-19T03:28:33Z</time>
      </trkpt>
      <trkpt lat="42.205414" lon="2.733291">
        <ele>170</ele>
        <time>2019-08-19T03:28:34Z</time>
      </trkpt>
      <trkpt lat="42.205406" lon="2.733161">
        <ele>170</ele>
        <time>2019-08-19T03:28:35Z</time>
      </trkpt>
      <trkpt lat="42.205397" lon="2.733031">
        <ele>170</ele>
        <time>2019-08-19T03:28:37Z</time>
      </trkpt>
      <trkpt lat="42.205389" lon="2.732901">
        <ele>170</ele>
        <time>2019-08-19T03:28:39Z</time>
      </trkpt>
      <trkpt lat="42.205379" lon="2.732715">
        <ele>170</ele>
        <time>2019-08-19T03:28:40Z</time>
      </trkpt>
      <trkpt lat="42.205373" lon="2.732624">
        <ele>170</ele>
        <time>2019-08-19T03:28:42Z</time>
      </trkpt>
      <trkpt lat="42.205368" lon="2.732533">
        <ele>170</ele>
        <time>2019-08-19T03:28:43Z</time>
      </trkpt>
      <trkpt lat="42.205362" lon="2.732442">
        <ele>170</ele>
        <time>2019-08-19T03:28:44Z</time>
      </trkpt>
      <trkpt lat="42.205357" lon="2.732351">
        <ele>170</ele>
        <time>2019-08-19T03:28:45Z</time>
      </trkpt>
      <trkpt lat="42.205351" lon="2.73226">
        <ele>170</ele>
        <time>2019-08-19T03:28:46Z</time>
      </trkpt>
      <trkpt lat="42.205346" lon="2.732169">
        <ele>170</ele>
        <time>2019-08-19T03:28:47Z</time>
      </trkpt>
      <trkpt lat="42.20534" lon="2.732078">
        <ele>170</ele>
        <time>2019-08-19T03:28:48Z</time>
      </trkpt>
      <trkpt lat="42.205335" lon="2.731987">
        <ele>171</ele>
        <time>2019-08-19T03:28:49Z</time>
      </trkpt>
      <trkpt lat="42.205324" lon="2.731819">
        <ele>171</ele>
        <time>2019-08-19T03:28:50Z</time>
      </trkpt>
      <trkpt lat="42.205319" lon="2.731742">
        <ele>171</ele>
        <time>2019-08-19T03:28:51Z</time>
      </trkpt>
      <trkpt lat="42.205314" lon="2.731664">
        <ele>171</ele>
        <time>2019-08-19T03:28:52Z</time>
      </trkpt>
      <trkpt lat="42.205309" lon="2.731587">
        <ele>171</ele>
        <time>2019-08-19T03:28:53Z</time>
      </trkpt>
      <trkpt lat="42.205304" lon="2.731509">
        <ele>171</ele>
        <time>2019-08-19T03:28:54Z</time>
      </trkpt>
      <trkpt lat="42.205299" lon="2.731431">
        <ele>171</ele>
        <time>2019-08-19T03:28:55Z</time>
      </trkpt>
      <trkpt lat="42.205294" lon="2.731354">
        <ele>171</ele>
        <time>2019-08-19T03:28:56Z</time>
      </trkpt>
      <trkpt lat="42.205289" lon="2.731276">
        <ele>171</ele>
        <time>2019-08-19T03:28:57Z</time>
      </trkpt>
      <trkpt lat="42.205284" lon="2.731199">
        <ele>171</ele>
        <time>2019-08-19T03:28:58Z</time>
      </trkpt>
      <trkpt lat="42.205279" lon="2.731121">
        <ele>171</ele>
        <time>2019-08-19T03:28:59Z</time>
      </trkpt>
      <trkpt lat="42.205269" lon="2.730969">
        <ele>171</ele>
        <time>2019-08-19T03:29:00Z</time>
      </trkpt>
      <trkpt lat="42.205265" lon="2.730899">
        <ele>171</ele>
        <time>2019-08-19T03:29:01Z</time>
      </trkpt>
      <trkpt lat="42.20526" lon="2.730828">
        <ele>171</ele>
        <time>2019-08-19T03:29:02Z</time>
      </trkpt>
      <trkpt lat="42.205256" lon="2.730758">
        <ele>171</ele>
        <time>2019-08-19T03:29:03Z</time>
      </trkpt>
      <trkpt lat="42.205252" lon="2.730687">
        <ele>171</ele>
        <time>2019-08-19T03:29:04Z</time>
      </trkpt>
      <trkpt lat="42.205248" lon="2.730617">
        <ele>171</ele>
        <time>2019-08-19T03:29:05Z</time>
      </trkpt>
      <trkpt lat="42.205244" lon="2.730546">
        <ele>171</ele>
        <time>2019-08-19T03:29:06Z</time>
      </trkpt>
      <trkpt lat="42.205239" lon="2.730476">
        <ele>171</ele>
        <time>2019-08-19T03:29:07Z</time>
      </trkpt>
      <trkpt lat="42.205235" lon="2.730405">
        <ele>171</ele>
        <time>2019-08-19T03:29:08Z</time>
      </trkpt>
      <trkpt lat="42.205231" lon="2.730335">
        <ele>172</ele>
        <time>2019-08-19T03:29:09Z</time>
      </trkpt>
      <trkpt lat="42.205221" lon="2.730183">
        <ele>172</ele>
        <time>2019-08-19T03:29:10Z</time>
      </trkpt>
      <trkpt lat="42.205217" lon="2.730105">
        <ele>172</ele>
        <time>2019-08-19T03:29:11Z</time>
      </trkpt>
      <trkpt lat="42.205212" lon="2.730026">
        <ele>172</ele>
        <time>2019-08-19T03:29:13Z</time>
      </trkpt>
      <trkpt lat="42.205208" lon="2.729947">
        <ele>172</ele>
        <time>2019-08-19T03:29:14Z</time>
      </trkpt>
      <trkpt lat="42.205204" lon="2.729869">
        <ele>172</ele>
        <time>2019-08-19T03:29:15Z</time>
      </trkpt>
      <trkpt lat="42.2052" lon="2.72979">
        <ele>172</ele>
        <time>2019-08-19T03:29:17Z</time>
      </trkpt>
      <trkpt lat="42.205195" lon="2.729712">
        <ele>172</ele>
        <time>2019-08-19T03:29:18Z</time>
      </trkpt>
      <trkpt lat="42.205191" lon="2.729633">
        <ele>173</ele>
        <time>2019-08-19T03:29:19Z</time>
      </trkpt>
      <trkpt lat="42.205184" lon="2.729485">
        <ele>173</ele>
        <time>2019-08-19T03:29:20Z</time>
      </trkpt>
      <trkpt lat="42.205181" lon="2.729413">
        <ele>173</ele>
        <time>2019-08-19T03:29:21Z</time>
      </trkpt>
      <trkpt lat="42.205179" lon="2.72934">
        <ele>173</ele>
        <time>2019-08-19T03:29:22Z</time>
      </trkpt>
      <trkpt lat="42.205176" lon="2.729267">
        <ele>173</ele>
        <time>2019-08-19T03:29:23Z</time>
      </trkpt>
      <trkpt lat="42.205173" lon="2.729194">
        <ele>173</ele>
        <time>2019-08-19T03:29:24Z</time>
      </trkpt>
      <trkpt lat="42.20517" lon="2.729122">
        <ele>173</ele>
        <time>2019-08-19T03:29:25Z</time>
      </trkpt>
      <trkpt lat="42.205167" lon="2.729049">
        <ele>173</ele>
        <time>2019-08-19T03:29:26Z</time>
      </trkpt>
      <trkpt lat="42.205165" lon="2.728976">
        <ele>173</ele>
        <time>2019-08-19T03:29:27Z</time>
      </trkpt>
      <trkpt lat="42.205162" lon="2.728904">
        <ele>173</ele>
        <time>2019-08-19T03:29:28Z</time>
      </trkpt>
      <trkpt lat="42.205159" lon="2.728831">
        <ele>173</ele>
        <time>2019-08-19T03:29:29Z</time>
      </trkpt>
      <trkpt lat="42.205153" lon="2.728637">
        <ele>173</ele>
        <time>2019-08-19T03:29:30Z</time>
      </trkpt>
      <trkpt lat="42.205151" lon="2.728528">
        <ele>173</ele>
        <time>2019-08-19T03:29:32Z</time>
      </trkpt>
      <trkpt lat="42.205148" lon="2.728418">
        <ele>173</ele>
        <time>2019-08-19T03:29:34Z</time>
      </trkpt>
      <trkpt lat="42.205145" lon="2.728308">
        <ele>173</ele>
        <time>2019-08-19T03:29:35Z</time>
      </trkpt>
      <trkpt lat="42.205142" lon="2.728198">
        <ele>173</ele>
        <time>2019-08-19T03:29:36Z</time>
      </trkpt>
      <trkpt lat="42.20514" lon="2.728089">
        <ele>173</ele>
        <time>2019-08-19T03:29:37Z</time>
      </trkpt>
      <trkpt lat="42.205137" lon="2.727979">
        <ele>173</ele>
        <time>2019-08-19T03:29:39Z</time>
      </trkpt>
      <trkpt lat="42.205134" lon="2.727812">
        <ele>173</ele>
        <time>2019-08-19T03:29:40Z</time>
      </trkpt>
      <trkpt lat="42.205132" lon="2.727728">
        <ele>173</ele>
        <time>2019-08-19T03:29:41Z</time>
      </trkpt>
      <trkpt lat="42.205131" lon="2.727645">
        <ele>173</ele>
        <time>2019-08-19T03:29:43Z</time>
      </trkpt>
      <trkpt lat="42.205129" lon="2.727562">
        <ele>173</ele>
        <time>2019-08-19T03:29:44Z</time>
      </trkpt>
      <trkpt lat="42.205128" lon="2.727478">
        <ele>173</ele>
        <time>2019-08-19T03:29:45Z</time>
      </trkpt>
      <trkpt lat="42.205126" lon="2.727395">
        <ele>173</ele>
        <time>2019-08-19T03:29:46Z</time>
      </trkpt>
      <trkpt lat="42.205125" lon="2.727312">
        <ele>173</ele>
        <time>2019-08-19T03:29:47Z</time>
      </trkpt>
      <trkpt lat="42.205123" lon="2.727228">
        <ele>173</ele>
        <time>2019-08-19T03:29:48Z</time>
      </trkpt>
      <trkpt lat="42.205122" lon="2.727145">
        <ele>172</ele>
        <time>2019-08-19T03:29:49Z</time>
      </trkpt>
      <trkpt lat="42.20512" lon="2.726968">
        <ele>172</ele>
        <time>2019-08-19T03:29:50Z</time>
      </trkpt>
      <trkpt lat="42.205119" lon="2.726875">
        <ele>172</ele>
        <time>2019-08-19T03:29:51Z</time>
      </trkpt>
      <trkpt lat="42.205118" lon="2.726783">
        <ele>172</ele>
        <time>2019-08-19T03:29:53Z</time>
      </trkpt>
      <trkpt lat="42.205117" lon="2.72669">
        <ele>172</ele>
        <time>2019-08-19T03:29:54Z</time>
      </trkpt>
      <trkpt lat="42.205116" lon="2.726597">
        <ele>172</ele>
        <time>2019-08-19T03:29:56Z</time>
      </trkpt>
      <trkpt lat="42.205115" lon="2.726504">
        <ele>172</ele>
        <time>2019-08-19T03:29:57Z</time>
      </trkpt>
      <trkpt lat="42.205114" lon="2.726412">
        <ele>172</ele>
        <time>2019-08-19T03:29:58Z</time>
      </trkpt>
      <trkpt lat="42.205113" lon="2.726319">
        <ele>172</ele>
        <time>2019-08-19T03:29:59Z</time>
      </trkpt>
      <trkpt lat="42.20511" lon="2.726145">
        <ele>172</ele>
        <time>2019-08-19T03:30:00Z</time>
      </trkpt>
      <trkpt lat="42.205108" lon="2.726052">
        <ele>172</ele>
        <time>2019-08-19T03:30:01Z</time>
      </trkpt>
      <trkpt lat="42.205107" lon="2.72596">
        <ele>172</ele>
        <time>2019-08-19T03:30:02Z</time>
      </trkpt>
      <trkpt lat="42.205106" lon="2.725867">
        <ele>172</ele>
        <time>2019-08-19T03:30:04Z</time>
      </trkpt>
      <trkpt lat="42.205104" lon="2.725775">
        <ele>172</ele>
        <time>2019-08-19T03:30:05Z</time>
      </trkpt>
      <trkpt lat="42.205103" lon="2.725683">
        <ele>172</ele>
        <time>2019-08-19T03:30:07Z</time>
      </trkpt>
      <trkpt lat="42.205101" lon="2.72559">
        <ele>172</ele>
        <time>2019-08-19T03:30:08Z</time>
      </trkpt>
      <trkpt lat="42.2051" lon="2.725498">
        <ele>172</ele>
        <time>2019-08-19T03:30:09Z</time>
      </trkpt>
      <trkpt lat="42.205099" lon="2.725305">
        <ele>172</ele>
        <time>2019-08-19T03:30:10Z</time>
      </trkpt>
      <trkpt lat="42.205101" lon="2.725199">
        <ele>172</ele>
        <time>2019-08-19T03:30:11Z</time>
      </trkpt>
      <trkpt lat="42.205102" lon="2.725094">
        <ele>172</ele>
        <time>2019-08-19T03:30:12Z</time>
      </trkpt>
      <trkpt lat="42.205104" lon="2.724988">
        <ele>172</ele>
        <time>2019-08-19T03:30:14Z</time>
      </trkpt>
      <trkpt lat="42.205105" lon="2.724883">
        <ele>172</ele>
        <time>2019-08-19T03:30:15Z</time>
      </trkpt>
      <trkpt lat="42.205106" lon="2.724777">
        <ele>172</ele>
        <time>2019-08-19T03:30:16Z</time>
      </trkpt>
      <trkpt lat="42.205108" lon="2.724672">
        <ele>172</ele>
        <time>2019-08-19T03:30:18Z</time>
      </trkpt>
      <trkpt lat="42.205109" lon="2.724566">
        <ele>172</ele>
        <time>2019-08-19T03:30:19Z</time>
      </trkpt>
      <trkpt lat="42.205132" lon="2.724244">
        <ele>172</ele>
        <time>2019-08-19T03:30:20Z</time>
      </trkpt>
      <trkpt lat="42.205147" lon="2.724088">
        <ele>172</ele>
        <time>2019-08-19T03:30:21Z</time>
      </trkpt>
      <trkpt lat="42.205161" lon="2.723931">
        <ele>172</ele>
        <time>2019-08-19T03:30:23Z</time>
      </trkpt>
      <trkpt lat="42.205175" lon="2.723775">
        <ele>172</ele>
        <time>2019-08-19T03:30:25Z</time>
      </trkpt>
      <trkpt lat="42.205189" lon="2.723618">
        <ele>172</ele>
        <time>2019-08-19T03:30:26Z</time>
      </trkpt>
      <trkpt lat="42.205204" lon="2.723462">
        <ele>172</ele>
        <time>2019-08-19T03:30:27Z</time>
      </trkpt>
      <trkpt lat="42.205218" lon="2.723305">
        <ele>170</ele>
        <time>2019-08-19T03:30:29Z</time>
      </trkpt>
      <trkpt lat="42.205228" lon="2.723182">
        <ele>170</ele>
        <time>2019-08-19T03:30:30Z</time>
      </trkpt>
      <trkpt lat="42.205234" lon="2.723066">
        <ele>170</ele>
        <time>2019-08-19T03:30:32Z</time>
      </trkpt>
      <trkpt lat="42.205243" lon="2.722829">
        <ele>170</ele>
        <time>2019-08-19T03:30:33Z</time>
      </trkpt>
      <trkpt lat="42.205247" lon="2.72271">
        <ele>170</ele>
        <time>2019-08-19T03:30:34Z</time>
      </trkpt>
      <trkpt lat="42.205255" lon="2.722463">
        <ele>170</ele>
        <time>2019-08-19T03:30:36Z</time>
      </trkpt>
      <trkpt lat="42.205257" lon="2.722336">
        <ele>170</ele>
        <time>2019-08-19T03:30:37Z</time>
      </trkpt>
      <trkpt lat="42.205257" lon="2.722207">
        <ele>170</ele>
        <time>2019-08-19T03:30:38Z</time>
      </trkpt>
      <trkpt lat="42.205251" lon="2.722072">
        <ele>164</ele>
        <time>2019-08-19T03:30:39Z</time>
      </trkpt>
      <trkpt lat="42.205245" lon="2.721937">
        <ele>164</ele>
        <time>2019-08-19T03:30:40Z</time>
      </trkpt>
      <trkpt lat="42.205233" lon="2.721802">
        <ele>164</ele>
        <time>2019-08-19T03:30:41Z</time>
      </trkpt>
      <trkpt lat="42.205217" lon="2.721666">
        <ele>164</ele>
        <time>2019-08-19T03:30:42Z</time>
      </trkpt>
      <trkpt lat="42.205199" lon="2.72153">
        <ele>164</ele>
        <time>2019-08-19T03:30:43Z</time>
      </trkpt>
      <trkpt lat="42.205178" lon="2.721392">
        <ele>164</ele>
        <time>2019-08-19T03:30:45Z</time>
      </trkpt>
      <trkpt lat="42.205156" lon="2.721253">
        <ele>164</ele>
        <time>2019-08-19T03:30:46Z</time>
      </trkpt>
      <trkpt lat="42.205132" lon="2.721114">
        <ele>164</ele>
        <time>2019-08-19T03:30:47Z</time>
      </trkpt>
      <trkpt lat="42.20511" lon="2.720973">
        <ele>164</ele>
        <time>2019-08-19T03:30:48Z</time>
      </trkpt>
      <trkpt lat="42.205088" lon="2.720831">
        <ele>158</ele>
        <time>2019-08-19T03:30:49Z</time>
      </trkpt>
      <trkpt lat="42.205065" lon="2.72069">
        <ele>158</ele>
        <time>2019-08-19T03:30:50Z</time>
      </trkpt>
      <trkpt lat="42.20504" lon="2.720549">
        <ele>158</ele>
        <time>2019-08-19T03:30:51Z</time>
      </trkpt>
      <trkpt lat="42.204992" lon="2.720265">
        <ele>158</ele>
        <time>2019-08-19T03:30:52Z</time>
      </trkpt>
      <trkpt lat="42.204969" lon="2.720122">
        <ele>158</ele>
        <time>2019-08-19T03:30:53Z</time>
      </trkpt>
      <trkpt lat="42.204944" lon="2.719978">
        <ele>158</ele>
        <time>2019-08-19T03:30:54Z</time>
      </trkpt>
      <trkpt lat="42.204895" lon="2.719683">
        <ele>158</ele>
        <time>2019-08-19T03:30:56Z</time>
      </trkpt>
      <trkpt lat="42.204858" lon="2.719456">
        <ele>158</ele>
        <time>2019-08-19T03:30:57Z</time>
      </trkpt>
      <trkpt lat="42.204847" lon="2.71938">
        <ele>158</ele>
        <time>2019-08-19T03:30:58Z</time>
      </trkpt>
      <trkpt lat="42.204835" lon="2.719303">
        <ele>154</ele>
        <time>2019-08-19T03:30:59Z</time>
      </trkpt>
      <trkpt lat="42.204823" lon="2.719227">
        <ele>154</ele>
        <time>2019-08-19T03:31:00Z</time>
      </trkpt>
      <trkpt lat="42.2048" lon="2.719073">
        <ele>154</ele>
        <time>2019-08-19T03:31:01Z</time>
      </trkpt>
      <trkpt lat="42.204776" lon="2.718916">
        <ele>154</ele>
        <time>2019-08-19T03:31:02Z</time>
      </trkpt>
      <trkpt lat="42.20475" lon="2.718757">
        <ele>154</ele>
        <time>2019-08-19T03:31:03Z</time>
      </trkpt>
      <trkpt lat="42.204702" lon="2.718441">
        <ele>154</ele>
        <time>2019-08-19T03:31:04Z</time>
      </trkpt>
      <trkpt lat="42.204679" lon="2.718283">
        <ele>154</ele>
        <time>2019-08-19T03:31:05Z</time>
      </trkpt>
      <trkpt lat="42.204656" lon="2.718124">
        <ele>154</ele>
        <time>2019-08-19T03:31:06Z</time>
      </trkpt>
      <trkpt lat="42.20462" lon="2.717864">
        <ele>154</ele>
        <time>2019-08-19T03:31:07Z</time>
      </trkpt>
      <trkpt lat="42.204606" lon="2.717762">
        <ele>154</ele>
        <time>2019-08-19T03:31:08Z</time>
      </trkpt>
      <trkpt lat="42.204593" lon="2.717659">
        <ele>149</ele>
        <time>2019-08-19T03:31:09Z</time>
      </trkpt>
      <trkpt lat="42.204556" lon="2.717353">
        <ele>149</ele>
        <time>2019-08-19T03:31:11Z</time>
      </trkpt>
      <trkpt lat="42.204516" lon="2.717059">
        <ele>149</ele>
        <time>2019-08-19T03:31:13Z</time>
      </trkpt>
      <trkpt lat="42.204495" lon="2.716917">
        <ele>149</ele>
        <time>2019-08-19T03:31:14Z</time>
      </trkpt>
      <trkpt lat="42.204472" lon="2.716779">
        <ele>149</ele>
        <time>2019-08-19T03:31:15Z</time>
      </trkpt>
      <trkpt lat="42.204431" lon="2.716514">
        <ele>149</ele>
        <time>2019-08-19T03:31:17Z</time>
      </trkpt>
      <trkpt lat="42.204414" lon="2.716383">
        <ele>149</ele>
        <time>2019-08-19T03:31:18Z</time>
      </trkpt>
      <trkpt lat="42.204402" lon="2.716253">
        <ele>147</ele>
        <time>2019-08-19T03:31:19Z</time>
      </trkpt>
      <trkpt lat="42.204396" lon="2.716008">
        <ele>147</ele>
        <time>2019-08-19T03:31:20Z</time>
      </trkpt>
      <trkpt lat="42.204402" lon="2.715891">
        <ele>147</ele>
        <time>2019-08-19T03:31:22Z</time>
      </trkpt>
      <trkpt lat="42.204407" lon="2.715775">
        <ele>147</ele>
        <time>2019-08-19T03:31:23Z</time>
      </trkpt>
      <trkpt lat="42.204413" lon="2.715659">
        <ele>147</ele>
        <time>2019-08-19T03:31:24Z</time>
      </trkpt>
      <trkpt lat="42.204419" lon="2.715542">
        <ele>147</ele>
        <time>2019-08-19T03:31:25Z</time>
      </trkpt>
      <trkpt lat="42.204425" lon="2.715426">
        <ele>147</ele>
        <time>2019-08-19T03:31:26Z</time>
      </trkpt>
      <trkpt lat="42.20443" lon="2.71531">
        <ele>147</ele>
        <time>2019-08-19T03:31:28Z</time>
      </trkpt>
      <trkpt lat="42.204436" lon="2.715193">
        <ele>147</ele>
        <time>2019-08-19T03:31:29Z</time>
      </trkpt>
      <trkpt lat="42.204442" lon="2.715077">
        <ele>150</ele>
        <time>2019-08-19T03:31:30Z</time>
      </trkpt>
      <trkpt lat="42.20448" lon="2.714882">
        <ele>150</ele>
        <time>2019-08-19T03:31:31Z</time>
      </trkpt>
      <trkpt lat="42.204496" lon="2.714823">
        <ele>150</ele>
        <time>2019-08-19T03:31:32Z</time>
      </trkpt>
      <trkpt lat="42.204511" lon="2.714763">
        <ele>150</ele>
        <time>2019-08-19T03:31:33Z</time>
      </trkpt>
      <trkpt lat="42.204527" lon="2.714704">
        <ele>150</ele>
        <time>2019-08-19T03:31:34Z</time>
      </trkpt>
      <trkpt lat="42.204542" lon="2.714644">
        <ele>150</ele>
        <time>2019-08-19T03:31:35Z</time>
      </trkpt>
      <trkpt lat="42.204558" lon="2.714585">
        <ele>150</ele>
        <time>2019-08-19T03:31:36Z</time>
      </trkpt>
      <trkpt lat="42.204573" lon="2.714525">
        <ele>150</ele>
        <time>2019-08-19T03:31:37Z</time>
      </trkpt>
      <trkpt lat="42.204589" lon="2.714466">
        <ele>150</ele>
        <time>2019-08-19T03:31:38Z</time>
      </trkpt>
      <trkpt lat="42.204604" lon="2.714406">
        <ele>152</ele>
        <time>2019-08-19T03:31:39Z</time>
      </trkpt>
      <trkpt lat="42.204638" lon="2.714307">
        <ele>152</ele>
        <time>2019-08-19T03:31:40Z</time>
      </trkpt>
      <trkpt lat="42.204652" lon="2.714263">
        <ele>152</ele>
        <time>2019-08-19T03:31:41Z</time>
      </trkpt>
      <trkpt lat="42.204667" lon="2.714219">
        <ele>152</ele>
        <time>2019-08-19T03:31:42Z</time>
      </trkpt>
      <trkpt lat="42.204682" lon="2.714175">
        <ele>152</ele>
        <time>2019-08-19T03:31:43Z</time>
      </trkpt>
      <trkpt lat="42.204696" lon="2.714132">
        <ele>152</ele>
        <time>2019-08-19T03:31:44Z</time>
      </trkpt>
      <trkpt lat="42.204711" lon="2.714088">
        <ele>152</ele>
        <time>2019-08-19T03:31:46Z</time>
      </trkpt>
      <trkpt lat="42.204726" lon="2.714044">
        <ele>152</ele>
        <time>2019-08-19T03:31:47Z</time>
      </trkpt>
      <trkpt lat="42.20474" lon="2.714">
        <ele>152</ele>
        <time>2019-08-19T03:31:48Z</time>
      </trkpt>
      <trkpt lat="42.204755" lon="2.713956">
        <ele>155</ele>
        <time>2019-08-19T03:31:49Z</time>
      </trkpt>
      <trkpt lat="42.204778" lon="2.713849">
        <ele>155</ele>
        <time>2019-08-19T03:31:50Z</time>
      </trkpt>
      <trkpt lat="42.204785" lon="2.713785">
        <ele>155</ele>
        <time>2019-08-19T03:31:51Z</time>
      </trkpt>
      <trkpt lat="42.204791" lon="2.713722">
        <ele>155</ele>
        <time>2019-08-19T03:31:52Z</time>
      </trkpt>
      <trkpt lat="42.204797" lon="2.713659">
        <ele>155</ele>
        <time>2019-08-19T03:31:53Z</time>
      </trkpt>
      <trkpt lat="42.204804" lon="2.713595">
        <ele>155</ele>
        <time>2019-08-19T03:31:54Z</time>
      </trkpt>
      <trkpt lat="42.20481" lon="2.713532">
        <ele>155</ele>
        <time>2019-08-19T03:31:55Z</time>
      </trkpt>
      <trkpt lat="42.204816" lon="2.713469">
        <ele>155</ele>
        <time>2019-08-19T03:31:56Z</time>
      </trkpt>
      <trkpt lat="42.204823" lon="2.713405">
        <ele>155</ele>
        <time>2019-08-19T03:31:58Z</time>
      </trkpt>
      <trkpt lat="42.204829" lon="2.713342">
        <ele>155</ele>
        <time>2019-08-19T03:31:59Z</time>
      </trkpt>
      <trkpt lat="42.204766" lon="2.713168">
        <ele>155</ele>
        <time>2019-08-19T03:32:00Z</time>
      </trkpt>
      <trkpt lat="42.20472" lon="2.713104">
        <ele>155</ele>
        <time>2019-08-19T03:32:01Z</time>
      </trkpt>
      <trkpt lat="42.204675" lon="2.713041">
        <ele>155</ele>
        <time>2019-08-19T03:32:02Z</time>
      </trkpt>
      <trkpt lat="42.204629" lon="2.712978">
        <ele>155</ele>
        <time>2019-08-19T03:32:04Z</time>
      </trkpt>
      <trkpt lat="42.204584" lon="2.712915">
        <ele>155</ele>
        <time>2019-08-19T03:32:05Z</time>
      </trkpt>
      <trkpt lat="42.204538" lon="2.712851">
        <ele>155</ele>
        <time>2019-08-19T03:32:07Z</time>
      </trkpt>
      <trkpt lat="42.204493" lon="2.712788">
        <ele>155</ele>
        <time>2019-08-19T03:32:08Z</time>
      </trkpt>
      <trkpt lat="42.204447" lon="2.712725">
        <ele>155</ele>
        <time>2019-08-19T03:32:09Z</time>
      </trkpt>
      <trkpt lat="42.204258" lon="2.712572">
        <ele>155</ele>
        <time>2019-08-19T03:32:11Z</time>
      </trkpt>
      <trkpt lat="42.2042" lon="2.71251">
        <ele>155</ele>
        <time>2019-08-19T03:32:12Z</time>
      </trkpt>
      <trkpt lat="42.204141" lon="2.712448">
        <ele>155</ele>
        <time>2019-08-19T03:32:13Z</time>
      </trkpt>
      <trkpt lat="42.204083" lon="2.712386">
        <ele>155</ele>
        <time>2019-08-19T03:32:14Z</time>
      </trkpt>
      <trkpt lat="42.204024" lon="2.712325">
        <ele>155</ele>
        <time>2019-08-19T03:32:15Z</time>
      </trkpt>
      <trkpt lat="42.203966" lon="2.712263">
        <ele>155</ele>
        <time>2019-08-19T03:32:16Z</time>
      </trkpt>
      <trkpt lat="42.203907" lon="2.712201">
        <ele>155</ele>
        <time>2019-08-19T03:32:17Z</time>
      </trkpt>
      <trkpt lat="42.203849" lon="2.712139">
        <ele>155</ele>
        <time>2019-08-19T03:32:19Z</time>
      </trkpt>
      <trkpt lat="42.20379" lon="2.712077">
        <ele>149</ele>
        <time>2019-08-19T03:32:20Z</time>
      </trkpt>
      <trkpt lat="42.203722" lon="2.711921">
        <ele>149</ele>
        <time>2019-08-19T03:32:21Z</time>
      </trkpt>
      <trkpt lat="42.203701" lon="2.711846">
        <ele>149</ele>
        <time>2019-08-19T03:32:22Z</time>
      </trkpt>
      <trkpt lat="42.20368" lon="2.71177">
        <ele>149</ele>
        <time>2019-08-19T03:32:23Z</time>
      </trkpt>
      <trkpt lat="42.203659" lon="2.711694">
        <ele>149</ele>
        <time>2019-08-19T03:32:24Z</time>
      </trkpt>
      <trkpt lat="42.203638" lon="2.711618">
        <ele>149</ele>
        <time>2019-08-19T03:32:25Z</time>
      </trkpt>
      <trkpt lat="42.203617" lon="2.711543">
        <ele>149</ele>
        <time>2019-08-19T03:32:26Z</time>
      </trkpt>
      <trkpt lat="42.203596" lon="2.711467">
        <ele>149</ele>
        <time>2019-08-19T03:32:27Z</time>
      </trkpt>
      <trkpt lat="42.203575" lon="2.711391">
        <ele>149</ele>
        <time>2019-08-19T03:32:28Z</time>
      </trkpt>
      <trkpt lat="42.203554" lon="2.711316">
        <ele>149</ele>
        <time>2019-08-19T03:32:29Z</time>
      </trkpt>
      <trkpt lat="42.203533" lon="2.71124">
        <ele>148</ele>
        <time>2019-08-19T03:32:30Z</time>
      </trkpt>
      <trkpt lat="42.203523" lon="2.711088">
        <ele>148</ele>
        <time>2019-08-19T03:32:31Z</time>
      </trkpt>
      <trkpt lat="42.203523" lon="2.711038">
        <ele>148</ele>
        <time>2019-08-19T03:32:32Z</time>
      </trkpt>
      <trkpt lat="42.203524" lon="2.710988">
        <ele>148</ele>
        <time>2019-08-19T03:32:33Z</time>
      </trkpt>
      <trkpt lat="42.203525" lon="2.710938">
        <ele>148</ele>
        <time>2019-08-19T03:32:34Z</time>
      </trkpt>
      <trkpt lat="42.203525" lon="2.710889">
        <ele>148</ele>
        <time>2019-08-19T03:32:35Z</time>
      </trkpt>
      <trkpt lat="42.203526" lon="2.710839">
        <ele>148</ele>
        <time>2019-08-19T03:32:36Z</time>
      </trkpt>
      <trkpt lat="42.203527" lon="2.710789">
        <ele>148</ele>
        <time>2019-08-19T03:32:37Z</time>
      </trkpt>
      <trkpt lat="42.203527" lon="2.710739">
        <ele>148</ele>
        <time>2019-08-19T03:32:38Z</time>
      </trkpt>
      <trkpt lat="42.203528" lon="2.710689">
        <ele>149</ele>
        <time>2019-08-19T03:32:39Z</time>
      </trkpt>
      <trkpt lat="42.203531" lon="2.710586">
        <ele>149</ele>
        <time>2019-08-19T03:32:40Z</time>
      </trkpt>
      <trkpt lat="42.203532" lon="2.710535">
        <ele>149</ele>
        <time>2019-08-19T03:32:41Z</time>
      </trkpt>
      <trkpt lat="42.203534" lon="2.710485">
        <ele>149</ele>
        <time>2019-08-19T03:32:42Z</time>
      </trkpt>
      <trkpt lat="42.203535" lon="2.710434">
        <ele>149</ele>
        <time>2019-08-19T03:32:43Z</time>
      </trkpt>
      <trkpt lat="42.203537" lon="2.710383">
        <ele>149</ele>
        <time>2019-08-19T03:32:45Z</time>
      </trkpt>
      <trkpt lat="42.203538" lon="2.710332">
        <ele>149</ele>
        <time>2019-08-19T03:32:46Z</time>
      </trkpt>
      <trkpt lat="42.20354" lon="2.710282">
        <ele>149</ele>
        <time>2019-08-19T03:32:47Z</time>
      </trkpt>
      <trkpt lat="42.203541" lon="2.710231">
        <ele>149</ele>
        <time>2019-08-19T03:32:48Z</time>
      </trkpt>
      <trkpt lat="42.203543" lon="2.71018">
        <ele>150</ele>
        <time>2019-08-19T03:32:50Z</time>
      </trkpt>
      <trkpt lat="42.203557" lon="2.710031">
        <ele>150</ele>
        <time>2019-08-19T03:32:51Z</time>
      </trkpt>
      <trkpt lat="42.203561" lon="2.709982">
        <ele>150</ele>
        <time>2019-08-19T03:32:52Z</time>
      </trkpt>
      <trkpt lat="42.203566" lon="2.709932">
        <ele>150</ele>
        <time>2019-08-19T03:32:54Z</time>
      </trkpt>
      <trkpt lat="42.20357" lon="2.709883">
        <ele>150</ele>
        <time>2019-08-19T03:32:55Z</time>
      </trkpt>
      <trkpt lat="42.203575" lon="2.709833">
        <ele>150</ele>
        <time>2019-08-19T03:32:56Z</time>
      </trkpt>
      <trkpt lat="42.203579" lon="2.709783">
        <ele>150</ele>
        <time>2019-08-19T03:32:57Z</time>
      </trkpt>
      <trkpt lat="42.203584" lon="2.709734">
        <ele>150</ele>
        <time>2019-08-19T03:32:58Z</time>
      </trkpt>
      <trkpt lat="42.203588" lon="2.709684">
        <ele>153</ele>
        <time>2019-08-19T03:32:59Z</time>
      </trkpt>
      <trkpt lat="42.203605" lon="2.709536">
        <ele>153</ele>
        <time>2019-08-19T03:33:01Z</time>
      </trkpt>
      <trkpt lat="42.203611" lon="2.709486">
        <ele>153</ele>
        <time>2019-08-19T03:33:03Z</time>
      </trkpt>
      <trkpt lat="42.203618" lon="2.709437">
        <ele>153</ele>
        <time>2019-08-19T03:33:05Z</time>
      </trkpt>
      <trkpt lat="42.203624" lon="2.709387">
        <ele>153</ele>
        <time>2019-08-19T03:33:06Z</time>
      </trkpt>
      <trkpt lat="42.203631" lon="2.709338">
        <ele>153</ele>
        <time>2019-08-19T03:33:07Z</time>
      </trkpt>
      <trkpt lat="42.203637" lon="2.709288">
        <ele>153</ele>
        <time>2019-08-19T03:33:08Z</time>
      </trkpt>
      <trkpt lat="42.203644" lon="2.709239">
        <ele>155</ele>
        <time>2019-08-19T03:33:09Z</time>
      </trkpt>
      <trkpt lat="42.203657" lon="2.70915">
        <ele>155</ele>
        <time>2019-08-19T03:33:10Z</time>
      </trkpt>
      <trkpt lat="42.203665" lon="2.709108">
        <ele>155</ele>
        <time>2019-08-19T03:33:11Z</time>
      </trkpt>
      <trkpt lat="42.203672" lon="2.709067">
        <ele>155</ele>
        <time>2019-08-19T03:33:12Z</time>
      </trkpt>
      <trkpt lat="42.20368" lon="2.709025">
        <ele>155</ele>
        <time>2019-08-19T03:33:13Z</time>
      </trkpt>
      <trkpt lat="42.203687" lon="2.708984">
        <ele>155</ele>
        <time>2019-08-19T03:33:14Z</time>
      </trkpt>
      <trkpt lat="42.203694" lon="2.708942">
        <ele>155</ele>
        <time>2019-08-19T03:33:15Z</time>
      </trkpt>
      <trkpt lat="42.203702" lon="2.708901">
        <ele>155</ele>
        <time>2019-08-19T03:33:16Z</time>
      </trkpt>
      <trkpt lat="42.203709" lon="2.708859">
        <ele>155</ele>
        <time>2019-08-19T03:33:17Z</time>
      </trkpt>
      <trkpt lat="42.203717" lon="2.708818">
        <ele>155</ele>
        <time>2019-08-19T03:33:18Z</time>
      </trkpt>
      <trkpt lat="42.203724" lon="2.708776">
        <ele>157</ele>
        <time>2019-08-19T03:33:19Z</time>
      </trkpt>
      <trkpt lat="42.203748" lon="2.708692">
        <ele>157</ele>
        <time>2019-08-19T03:33:20Z</time>
      </trkpt>
      <trkpt lat="42.203761" lon="2.708652">
        <ele>157</ele>
        <time>2019-08-19T03:33:21Z</time>
      </trkpt>
      <trkpt lat="42.203773" lon="2.708611">
        <ele>157</ele>
        <time>2019-08-19T03:33:22Z</time>
      </trkpt>
      <trkpt lat="42.203786" lon="2.70857">
        <ele>157</ele>
        <time>2019-08-19T03:33:23Z</time>
      </trkpt>
      <trkpt lat="42.203799" lon="2.70853">
        <ele>157</ele>
        <time>2019-08-19T03:33:24Z</time>
      </trkpt>
      <trkpt lat="42.203812" lon="2.708489">
        <ele>157</ele>
        <time>2019-08-19T03:33:25Z</time>
      </trkpt>
      <trkpt lat="42.203825" lon="2.708448">
        <ele>157</ele>
        <time>2019-08-19T03:33:26Z</time>
      </trkpt>
      <trkpt lat="42.203837" lon="2.708407">
        <ele>157</ele>
        <time>2019-08-19T03:33:27Z</time>
      </trkpt>
      <trkpt lat="42.20385" lon="2.708367">
        <ele>157</ele>
        <time>2019-08-19T03:33:28Z</time>
      </trkpt>
      <trkpt lat="42.203863" lon="2.708326">
        <ele>160</ele>
        <time>2019-08-19T03:33:29Z</time>
      </trkpt>
      <trkpt lat="42.203906" lon="2.708225">
        <ele>160</ele>
        <time>2019-08-19T03:33:31Z</time>
      </trkpt>
      <trkpt lat="42.203925" lon="2.708182">
        <ele>160</ele>
        <time>2019-08-19T03:33:32Z</time>
      </trkpt>
      <trkpt lat="42.203945" lon="2.70814">
        <ele>160</ele>
        <time>2019-08-19T03:33:33Z</time>
      </trkpt>
      <trkpt lat="42.203964" lon="2.708098">
        <ele>160</ele>
        <time>2019-08-19T03:33:34Z</time>
      </trkpt>
      <trkpt lat="42.203984" lon="2.708055">
        <ele>160</ele>
        <time>2019-08-19T03:33:35Z</time>
      </trkpt>
      <trkpt lat="42.204003" lon="2.708013">
        <ele>160</ele>
        <time>2019-08-19T03:33:36Z</time>
      </trkpt>
      <trkpt lat="42.204023" lon="2.707971">
        <ele>160</ele>
        <time>2019-08-19T03:33:37Z</time>
      </trkpt>
      <trkpt lat="42.204042" lon="2.707928">
        <ele>160</ele>
        <time>2019-08-19T03:33:38Z</time>
      </trkpt>
      <trkpt lat="42.204062" lon="2.707886">
        <ele>159</ele>
        <time>2019-08-19T03:33:39Z</time>
      </trkpt>
      <trkpt lat="42.204114" lon="2.707786">
        <ele>159</ele>
        <time>2019-08-19T03:33:40Z</time>
      </trkpt>
      <trkpt lat="42.204142" lon="2.707737">
        <ele>159</ele>
        <time>2019-08-19T03:33:41Z</time>
      </trkpt>
      <trkpt lat="42.20417" lon="2.707688">
        <ele>159</ele>
        <time>2019-08-19T03:33:42Z</time>
      </trkpt>
      <trkpt lat="42.204198" lon="2.707639">
        <ele>159</ele>
        <time>2019-08-19T03:33:43Z</time>
      </trkpt>
      <trkpt lat="42.204227" lon="2.70759">
        <ele>159</ele>
        <time>2019-08-19T03:33:44Z</time>
      </trkpt>
      <trkpt lat="42.204255" lon="2.70754">
        <ele>159</ele>
        <time>2019-08-19T03:33:45Z</time>
      </trkpt>
      <trkpt lat="42.204283" lon="2.707491">
        <ele>159</ele>
        <time>2019-08-19T03:33:46Z</time>
      </trkpt>
      <trkpt lat="42.204311" lon="2.707442">
        <ele>159</ele>
        <time>2019-08-19T03:33:47Z</time>
      </trkpt>
      <trkpt lat="42.204339" lon="2.707393">
        <ele>159</ele>
        <time>2019-08-19T03:33:48Z</time>
      </trkpt>
      <trkpt lat="42.204367" lon="2.707344">
        <ele>159</ele>
        <time>2019-08-19T03:33:49Z</time>
      </trkpt>
      <trkpt lat="42.204426" lon="2.707257">
        <ele>159</ele>
        <time>2019-08-19T03:33:50Z</time>
      </trkpt>
      <trkpt lat="42.204454" lon="2.707218">
        <ele>159</ele>
        <time>2019-08-19T03:33:51Z</time>
      </trkpt>
      <trkpt lat="42.204483" lon="2.707178">
        <ele>159</ele>
        <time>2019-08-19T03:33:52Z</time>
      </trkpt>
      <trkpt lat="42.204512" lon="2.707139">
        <ele>159</ele>
        <time>2019-08-19T03:33:53Z</time>
      </trkpt>
      <trkpt lat="42.204541" lon="2.7071">
        <ele>159</ele>
        <time>2019-08-19T03:33:54Z</time>
      </trkpt>
      <trkpt lat="42.204569" lon="2.707061">
        <ele>159</ele>
        <time>2019-08-19T03:33:55Z</time>
      </trkpt>
      <trkpt lat="42.204598" lon="2.707022">
        <ele>159</ele>
        <time>2019-08-19T03:33:56Z</time>
      </trkpt>
      <trkpt lat="42.204627" lon="2.706982">
        <ele>159</ele>
        <time>2019-08-19T03:33:57Z</time>
      </trkpt>
      <trkpt lat="42.204655" lon="2.706943">
        <ele>159</ele>
        <time>2019-08-19T03:33:58Z</time>
      </trkpt>
      <trkpt lat="42.204684" lon="2.706904">
        <ele>159</ele>
        <time>2019-08-19T03:33:59Z</time>
      </trkpt>
      <trkpt lat="42.204742" lon="2.706831">
        <ele>159</ele>
        <time>2019-08-19T03:34:00Z</time>
      </trkpt>
      <trkpt lat="42.204763" lon="2.706787">
        <ele>159</ele>
        <time>2019-08-19T03:34:02Z</time>
      </trkpt>
      <trkpt lat="42.204783" lon="2.706744">
        <ele>159</ele>
        <time>2019-08-19T03:34:03Z</time>
      </trkpt>
      <trkpt lat="42.204804" lon="2.7067">
        <ele>159</ele>
        <time>2019-08-19T03:34:04Z</time>
      </trkpt>
      <trkpt lat="42.204824" lon="2.706656">
        <ele>159</ele>
        <time>2019-08-19T03:34:05Z</time>
      </trkpt>
      <trkpt lat="42.204845" lon="2.706612">
        <ele>159</ele>
        <time>2019-08-19T03:34:06Z</time>
      </trkpt>
      <trkpt lat="42.204865" lon="2.706569">
        <ele>159</ele>
        <time>2019-08-19T03:34:07Z</time>
      </trkpt>
      <trkpt lat="42.204886" lon="2.706525">
        <ele>159</ele>
        <time>2019-08-19T03:34:08Z</time>
      </trkpt>
      <trkpt lat="42.204906" lon="2.706481">
        <ele>159</ele>
        <time>2019-08-19T03:34:09Z</time>
      </trkpt>
      <trkpt lat="42.204838" lon="2.706415">
        <ele>159</ele>
        <time>2019-08-19T03:34:10Z</time>
      </trkpt>
      <trkpt lat="42.204788" lon="2.706401">
        <ele>159</ele>
        <time>2019-08-19T03:34:12Z</time>
      </trkpt>
      <trkpt lat="42.204739" lon="2.706387">
        <ele>159</ele>
        <time>2019-08-19T03:34:13Z</time>
      </trkpt>
      <trkpt lat="42.20469" lon="2.706373">
        <ele>159</ele>
        <time>2019-08-19T03:34:14Z</time>
      </trkpt>
      <trkpt lat="42.20464" lon="2.706359">
        <ele>159</ele>
        <time>2019-08-19T03:34:16Z</time>
      </trkpt>
      <trkpt lat="42.204591" lon="2.706345">
        <ele>159</ele>
        <time>2019-08-19T03:34:17Z</time>
      </trkpt>
      <trkpt lat="42.204541" lon="2.706331">
        <ele>159</ele>
        <time>2019-08-19T03:34:18Z</time>
      </trkpt>
      <trkpt lat="42.204492" lon="2.706317">
        <ele>160</ele>
        <time>2019-08-19T03:34:19Z</time>
      </trkpt>
      <trkpt lat="42.204358" lon="2.706261">
        <ele>160</ele>
        <time>2019-08-19T03:34:21Z</time>
      </trkpt>
      <trkpt lat="42.204293" lon="2.706226">
        <ele>160</ele>
        <time>2019-08-19T03:34:22Z</time>
      </trkpt>
      <trkpt lat="42.204228" lon="2.706191">
        <ele>160</ele>
        <time>2019-08-19T03:34:23Z</time>
      </trkpt>
      <trkpt lat="42.204162" lon="2.706156">
        <ele>160</ele>
        <time>2019-08-19T03:34:24Z</time>
      </trkpt>
      <trkpt lat="42.204097" lon="2.706121">
        <ele>160</ele>
        <time>2019-08-19T03:34:27Z</time>
      </trkpt>
      <trkpt lat="42.204032" lon="2.706086">
        <ele>160</ele>
        <time>2019-08-19T03:34:29Z</time>
      </trkpt>
      <trkpt lat="42.203854" lon="2.705989">
        <ele>160</ele>
        <time>2019-08-19T03:34:32Z</time>
      </trkpt>
      <trkpt lat="42.203817" lon="2.705956">
        <ele>160</ele>
        <time>2019-08-19T03:34:35Z</time>
      </trkpt>
      <trkpt lat="42.203779" lon="2.705924">
        <ele>160</ele>
        <time>2019-08-19T03:34:36Z</time>
      </trkpt>
      <trkpt lat="42.203742" lon="2.705891">
        <ele>160</ele>
        <time>2019-08-19T03:34:38Z</time>
      </trkpt>
      <trkpt lat="42.203704" lon="2.705859">
        <ele>162</ele>
        <time>2019-08-19T03:34:39Z</time>
      </trkpt>
      <trkpt lat="42.20366" lon="2.705804">
        <ele>162</ele>
        <time>2019-08-19T03:34:40Z</time>
      </trkpt>
      <trkpt lat="42.203645" lon="2.705772">
        <ele>162</ele>
        <time>2019-08-19T03:34:41Z</time>
      </trkpt>
      <trkpt lat="42.203629" lon="2.705741">
        <ele>162</ele>
        <time>2019-08-19T03:34:42Z</time>
      </trkpt>
      <trkpt lat="42.203613" lon="2.705709">
        <ele>162</ele>
        <time>2019-08-19T03:34:43Z</time>
      </trkpt>
      <trkpt lat="42.203598" lon="2.705677">
        <ele>162</ele>
        <time>2019-08-19T03:34:44Z</time>
      </trkpt>
      <trkpt lat="42.203582" lon="2.705645">
        <ele>162</ele>
        <time>2019-08-19T03:34:45Z</time>
      </trkpt>
      <trkpt lat="42.203566" lon="2.705613">
        <ele>162</ele>
        <time>2019-08-19T03:34:46Z</time>
      </trkpt>
      <trkpt lat="42.20355" lon="2.705582">
        <ele>162</ele>
        <time>2019-08-19T03:34:47Z</time>
      </trkpt>
      <trkpt lat="42.203535" lon="2.70555">
        <ele>162</ele>
        <time>2019-08-19T03:34:48Z</time>
      </trkpt>
      <trkpt lat="42.203519" lon="2.705518">
        <ele>164</ele>
        <time>2019-08-19T03:34:49Z</time>
      </trkpt>
      <trkpt lat="42.203455" lon="2.705456">
        <ele>164</ele>
        <time>2019-08-19T03:34:50Z</time>
      </trkpt>
      <trkpt lat="42.203419" lon="2.705429">
        <ele>164</ele>
        <time>2019-08-19T03:34:51Z</time>
      </trkpt>
      <trkpt lat="42.203382" lon="2.705402">
        <ele>164</ele>
        <time>2019-08-19T03:34:53Z</time>
      </trkpt>
      <trkpt lat="42.203345" lon="2.705375">
        <ele>164</ele>
        <time>2019-08-19T03:34:54Z</time>
      </trkpt>
      <trkpt lat="42.203308" lon="2.705349">
        <ele>164</ele>
        <time>2019-08-19T03:34:55Z</time>
      </trkpt>
      <trkpt lat="42.203272" lon="2.705322">
        <ele>164</ele>
        <time>2019-08-19T03:34:56Z</time>
      </trkpt>
      <trkpt lat="42.203235" lon="2.705295">
        <ele>164</ele>
        <time>2019-08-19T03:34:57Z</time>
      </trkpt>
      <trkpt lat="42.203198" lon="2.705268">
        <ele>164</ele>
        <time>2019-08-19T03:34:59Z</time>
      </trkpt>
      <trkpt lat="42.203166" lon="2.705195">
        <ele>164</ele>
        <time>2019-08-19T03:35:00Z</time>
      </trkpt>
      <trkpt lat="42.203154" lon="2.705147">
        <ele>164</ele>
        <time>2019-08-19T03:35:01Z</time>
      </trkpt>
      <trkpt lat="42.203142" lon="2.705098">
        <ele>164</ele>
        <time>2019-08-19T03:35:02Z</time>
      </trkpt>
      <trkpt lat="42.20313" lon="2.705049">
        <ele>164</ele>
        <time>2019-08-19T03:35:03Z</time>
      </trkpt>
      <trkpt lat="42.203118" lon="2.705">
        <ele>164</ele>
        <time>2019-08-19T03:35:04Z</time>
      </trkpt>
      <trkpt lat="42.203105" lon="2.704952">
        <ele>164</ele>
        <time>2019-08-19T03:35:05Z</time>
      </trkpt>
      <trkpt lat="42.203093" lon="2.704903">
        <ele>164</ele>
        <time>2019-08-19T03:35:06Z</time>
      </trkpt>
      <trkpt lat="42.203081" lon="2.704854">
        <ele>164</ele>
        <time>2019-08-19T03:35:07Z</time>
      </trkpt>
      <trkpt lat="42.203069" lon="2.704806">
        <ele>164</ele>
        <time>2019-08-19T03:35:08Z</time>
      </trkpt>
      <trkpt lat="42.203057" lon="2.704757">
        <ele>165</ele>
        <time>2019-08-19T03:35:09Z</time>
      </trkpt>
      <trkpt lat="42.203043" lon="2.704658">
        <ele>165</ele>
        <time>2019-08-19T03:35:10Z</time>
      </trkpt>
      <trkpt lat="42.203033" lon="2.704586">
        <ele>165</ele>
        <time>2019-08-19T03:35:11Z</time>
      </trkpt>
      <trkpt lat="42.203023" lon="2.704515">
        <ele>165</ele>
        <time>2019-08-19T03:35:12Z</time>
      </trkpt>
      <trkpt lat="42.203014" lon="2.704444">
        <ele>165</ele>
        <time>2019-08-19T03:35:14Z</time>
      </trkpt>
      <trkpt lat="42.203004" lon="2.704373">
        <ele>165</ele>
        <time>2019-08-19T03:35:15Z</time>
      </trkpt>
      <trkpt lat="42.202994" lon="2.704301">
        <ele>165</ele>
        <time>2019-08-19T03:35:17Z</time>
      </trkpt>
      <trkpt lat="42.202984" lon="2.70423">
        <ele>165</ele>
        <time>2019-08-19T03:35:18Z</time>
      </trkpt>
      <trkpt lat="42.202974" lon="2.704159">
        <ele>166</ele>
        <time>2019-08-19T03:35:19Z</time>
      </trkpt>
      <trkpt lat="42.202959" lon="2.704061">
        <ele>166</ele>
        <time>2019-08-19T03:35:20Z</time>
      </trkpt>
      <trkpt lat="42.20295" lon="2.703994">
        <ele>166</ele>
        <time>2019-08-19T03:35:21Z</time>
      </trkpt>
      <trkpt lat="42.20294" lon="2.703927">
        <ele>166</ele>
        <time>2019-08-19T03:35:23Z</time>
      </trkpt>
      <trkpt lat="42.202931" lon="2.70386">
        <ele>166</ele>
        <time>2019-08-19T03:35:24Z</time>
      </trkpt>
      <trkpt lat="42.202921" lon="2.703793">
        <ele>166</ele>
        <time>2019-08-19T03:35:25Z</time>
      </trkpt>
      <trkpt lat="42.202912" lon="2.703726">
        <ele>166</ele>
        <time>2019-08-19T03:35:26Z</time>
      </trkpt>
      <trkpt lat="42.202902" lon="2.703659">
        <ele>166</ele>
        <time>2019-08-19T03:35:27Z</time>
      </trkpt>
      <trkpt lat="42.202893" lon="2.703592">
        <ele>166</ele>
        <time>2019-08-19T03:35:28Z</time>
      </trkpt>
      <trkpt lat="42.202883" lon="2.703525">
        <ele>165</ele>
        <time>2019-08-19T03:35:29Z</time>
      </trkpt>
      <trkpt lat="42.202862" lon="2.703377">
        <ele>165</ele>
        <time>2019-08-19T03:35:30Z</time>
      </trkpt>
      <trkpt lat="42.202853" lon="2.703318">
        <ele>165</ele>
        <time>2019-08-19T03:35:31Z</time>
      </trkpt>
      <trkpt lat="42.202845" lon="2.70326">
        <ele>165</ele>
        <time>2019-08-19T03:35:32Z</time>
      </trkpt>
      <trkpt lat="42.202836" lon="2.703202">
        <ele>165</ele>
        <time>2019-08-19T03:35:33Z</time>
      </trkpt>
      <trkpt lat="42.202827" lon="2.703143">
        <ele>165</ele>
        <time>2019-08-19T03:35:34Z</time>
      </trkpt>
      <trkpt lat="42.202818" lon="2.703085">
        <ele>165</ele>
        <time>2019-08-19T03:35:35Z</time>
      </trkpt>
      <trkpt lat="42.20281" lon="2.703027">
        <ele>165</ele>
        <time>2019-08-19T03:35:37Z</time>
      </trkpt>
      <trkpt lat="42.202801" lon="2.702968">
        <ele>165</ele>
        <time>2019-08-19T03:35:38Z</time>
      </trkpt>
      <trkpt lat="42.202792" lon="2.70291">
        <ele>165</ele>
        <time>2019-08-19T03:35:39Z</time>
      </trkpt>
      <trkpt lat="42.202738" lon="2.702666">
        <ele>165</ele>
        <time>2019-08-19T03:35:41Z</time>
      </trkpt>
      <trkpt lat="42.202712" lon="2.702566">
        <ele>165</ele>
        <time>2019-08-19T03:35:42Z</time>
      </trkpt>
      <trkpt lat="42.202685" lon="2.702467">
        <ele>165</ele>
        <time>2019-08-19T03:35:43Z</time>
      </trkpt>
      <trkpt lat="42.202658" lon="2.702368">
        <ele>165</ele>
        <time>2019-08-19T03:35:44Z</time>
      </trkpt>
      <trkpt lat="42.202631" lon="2.702269">
        <ele>165</ele>
        <time>2019-08-19T03:35:45Z</time>
      </trkpt>
      <trkpt lat="42.202605" lon="2.702169">
        <ele>165</ele>
        <time>2019-08-19T03:35:47Z</time>
      </trkpt>
      <trkpt lat="42.202578" lon="2.70207">
        <ele>165</ele>
        <time>2019-08-19T03:35:49Z</time>
      </trkpt>
      <trkpt lat="42.202519" lon="2.701905">
        <ele>165</ele>
        <time>2019-08-19T03:35:50Z</time>
      </trkpt>
      <trkpt lat="42.202483" lon="2.701818">
        <ele>165</ele>
        <time>2019-08-19T03:35:51Z</time>
      </trkpt>
      <trkpt lat="42.202448" lon="2.701732">
        <ele>165</ele>
        <time>2019-08-19T03:35:52Z</time>
      </trkpt>
      <trkpt lat="42.202413" lon="2.701646">
        <ele>165</ele>
        <time>2019-08-19T03:35:53Z</time>
      </trkpt>
      <trkpt lat="42.202377" lon="2.70156">
        <ele>165</ele>
        <time>2019-08-19T03:35:55Z</time>
      </trkpt>
      <trkpt lat="42.202342" lon="2.701473">
        <ele>165</ele>
        <time>2019-08-19T03:35:56Z</time>
      </trkpt>
      <trkpt lat="42.202306" lon="2.701387">
        <ele>165</ele>
        <time>2019-08-19T03:35:57Z</time>
      </trkpt>
      <trkpt lat="42.202271" lon="2.701301">
        <ele>163</ele>
        <time>2019-08-19T03:35:59Z</time>
      </trkpt>
      <trkpt lat="42.202199" lon="2.701133">
        <ele>163</ele>
        <time>2019-08-19T03:36:00Z</time>
      </trkpt>
      <trkpt lat="42.202162" lon="2.701049">
        <ele>163</ele>
        <time>2019-08-19T03:36:01Z</time>
      </trkpt>
      <trkpt lat="42.202126" lon="2.700964">
        <ele>163</ele>
        <time>2019-08-19T03:36:03Z</time>
      </trkpt>
      <trkpt lat="42.202089" lon="2.70088">
        <ele>163</ele>
        <time>2019-08-19T03:36:04Z</time>
      </trkpt>
      <trkpt lat="42.202053" lon="2.700795">
        <ele>163</ele>
        <time>2019-08-19T03:36:05Z</time>
      </trkpt>
      <trkpt lat="42.202016" lon="2.700711">
        <ele>163</ele>
        <time>2019-08-19T03:36:06Z</time>
      </trkpt>
      <trkpt lat="42.20198" lon="2.700626">
        <ele>163</ele>
        <time>2019-08-19T03:36:07Z</time>
      </trkpt>
      <trkpt lat="42.201943" lon="2.700542">
        <ele>163</ele>
        <time>2019-08-19T03:36:08Z</time>
      </trkpt>
      <trkpt lat="42.201907" lon="2.700457">
        <ele>162</ele>
        <time>2019-08-19T03:36:09Z</time>
      </trkpt>
      <trkpt lat="42.201806" lon="2.700224">
        <ele>162</ele>
        <time>2019-08-19T03:36:10Z</time>
      </trkpt>
      <trkpt lat="42.201763" lon="2.700129">
        <ele>162</ele>
        <time>2019-08-19T03:36:11Z</time>
      </trkpt>
      <trkpt lat="42.201721" lon="2.700034">
        <ele>162</ele>
        <time>2019-08-19T03:36:12Z</time>
      </trkpt>
      <trkpt lat="42.201679" lon="2.699939">
        <ele>162</ele>
        <time>2019-08-19T03:36:13Z</time>
      </trkpt>
      <trkpt lat="42.201636" lon="2.699845">
        <ele>162</ele>
        <time>2019-08-19T03:36:15Z</time>
      </trkpt>
      <trkpt lat="42.201594" lon="2.69975">
        <ele>162</ele>
        <time>2019-08-19T03:36:16Z</time>
      </trkpt>
      <trkpt lat="42.201552" lon="2.699655">
        <ele>162</ele>
        <time>2019-08-19T03:36:17Z</time>
      </trkpt>
      <trkpt lat="42.201509" lon="2.69956">
        <ele>162</ele>
        <time>2019-08-19T03:36:18Z</time>
      </trkpt>
      <trkpt lat="42.201467" lon="2.699465">
        <ele>159</ele>
        <time>2019-08-19T03:36:19Z</time>
      </trkpt>
      <trkpt lat="42.201357" lon="2.699325">
        <ele>159</ele>
        <time>2019-08-19T03:36:20Z</time>
      </trkpt>
      <trkpt lat="42.201291" lon="2.699279">
        <ele>159</ele>
        <time>2019-08-19T03:36:22Z</time>
      </trkpt>
      <trkpt lat="42.201224" lon="2.699233">
        <ele>159</ele>
        <time>2019-08-19T03:36:23Z</time>
      </trkpt>
      <trkpt lat="42.201157" lon="2.699186">
        <ele>159</ele>
        <time>2019-08-19T03:36:24Z</time>
      </trkpt>
      <trkpt lat="42.20109" lon="2.69914">
        <ele>159</ele>
        <time>2019-08-19T03:36:25Z</time>
      </trkpt>
      <trkpt lat="42.201024" lon="2.699094">
        <ele>159</ele>
        <time>2019-08-19T03:36:26Z</time>
      </trkpt>
      <trkpt lat="42.200957" lon="2.699048">
        <ele>159</ele>
        <time>2019-08-19T03:36:28Z</time>
      </trkpt>
      <trkpt lat="42.20089" lon="2.699002">
        <ele>158</ele>
        <time>2019-08-19T03:36:29Z</time>
      </trkpt>
      <trkpt lat="42.200822" lon="2.698962">
        <ele>158</ele>
        <time>2019-08-19T03:36:30Z</time>
      </trkpt>
      <trkpt lat="42.200784" lon="2.698938">
        <ele>158</ele>
        <time>2019-08-19T03:36:31Z</time>
      </trkpt>
      <trkpt lat="42.200746" lon="2.698913">
        <ele>158</ele>
        <time>2019-08-19T03:36:32Z</time>
      </trkpt>
      <trkpt lat="42.200708" lon="2.698889">
        <ele>158</ele>
        <time>2019-08-19T03:36:33Z</time>
      </trkpt>
      <trkpt lat="42.20067" lon="2.698864">
        <ele>158</ele>
        <time>2019-08-19T03:36:34Z</time>
      </trkpt>
      <trkpt lat="42.200632" lon="2.698839">
        <ele>158</ele>
        <time>2019-08-19T03:36:35Z</time>
      </trkpt>
      <trkpt lat="42.200594" lon="2.698815">
        <ele>158</ele>
        <time>2019-08-19T03:36:36Z</time>
      </trkpt>
      <trkpt lat="42.200556" lon="2.69879">
        <ele>158</ele>
        <time>2019-08-19T03:36:37Z</time>
      </trkpt>
      <trkpt lat="42.200518" lon="2.698766">
        <ele>158</ele>
        <time>2019-08-19T03:36:38Z</time>
      </trkpt>
      <trkpt lat="42.20048" lon="2.698741">
        <ele>157</ele>
        <time>2019-08-19T03:36:39Z</time>
      </trkpt>
      <trkpt lat="42.200455" lon="2.698657">
        <ele>157</ele>
        <time>2019-08-19T03:36:40Z</time>
      </trkpt>
      <trkpt lat="42.200448" lon="2.698614">
        <ele>157</ele>
        <time>2019-08-19T03:36:41Z</time>
      </trkpt>
      <trkpt lat="42.200441" lon="2.69857">
        <ele>157</ele>
        <time>2019-08-19T03:36:42Z</time>
      </trkpt>
      <trkpt lat="42.200434" lon="2.698527">
        <ele>157</ele>
        <time>2019-08-19T03:36:43Z</time>
      </trkpt>
      <trkpt lat="42.200427" lon="2.698483">
        <ele>157</ele>
        <time>2019-08-19T03:36:44Z</time>
      </trkpt>
      <trkpt lat="42.200419" lon="2.698439">
        <ele>157</ele>
        <time>2019-08-19T03:36:45Z</time>
      </trkpt>
      <trkpt lat="42.200412" lon="2.698396">
        <ele>157</ele>
        <time>2019-08-19T03:36:46Z</time>
      </trkpt>
      <trkpt lat="42.200405" lon="2.698352">
        <ele>157</ele>
        <time>2019-08-19T03:36:47Z</time>
      </trkpt>
      <trkpt lat="42.200398" lon="2.698309">
        <ele>157</ele>
        <time>2019-08-19T03:36:48Z</time>
      </trkpt>
      <trkpt lat="42.200391" lon="2.698265">
        <ele>157</ele>
        <time>2019-08-19T03:36:49Z</time>
      </trkpt>
      <trkpt lat="42.200374" lon="2.698114">
        <ele>157</ele>
        <time>2019-08-19T03:36:51Z</time>
      </trkpt>
      <trkpt lat="42.200367" lon="2.698057">
        <ele>157</ele>
        <time>2019-08-19T03:36:53Z</time>
      </trkpt>
      <trkpt lat="42.200361" lon="2.698001">
        <ele>157</ele>
        <time>2019-08-19T03:36:54Z</time>
      </trkpt>
      <trkpt lat="42.200354" lon="2.697944">
        <ele>157</ele>
        <time>2019-08-19T03:36:56Z</time>
      </trkpt>
      <trkpt lat="42.200348" lon="2.697888">
        <ele>157</ele>
        <time>2019-08-19T03:36:57Z</time>
      </trkpt>
      <trkpt lat="42.200341" lon="2.697831">
        <ele>157</ele>
        <time>2019-08-19T03:36:58Z</time>
      </trkpt>
      <trkpt lat="42.200335" lon="2.697775">
        <ele>157</ele>
        <time>2019-08-19T03:36:59Z</time>
      </trkpt>
      <trkpt lat="42.200326" lon="2.697701">
        <ele>157</ele>
        <time>2019-08-19T03:37:00Z</time>
      </trkpt>
      <trkpt lat="42.200321" lon="2.69767">
        <ele>157</ele>
        <time>2019-08-19T03:37:01Z</time>
      </trkpt>
      <trkpt lat="42.200316" lon="2.69764">
        <ele>158</ele>
        <time>2019-08-19T03:37:09Z</time>
      </trkpt>
      <trkpt lat="42.200311" lon="2.69761">
        <ele>158</ele>
        <time>2019-08-19T03:37:10Z</time>
      </trkpt>
      <trkpt lat="42.200306" lon="2.697579">
        <ele>158</ele>
        <time>2019-08-19T03:37:28Z</time>
      </trkpt>
      <trkpt lat="42.2003" lon="2.697549">
        <ele>158</ele>
        <time>2019-08-19T03:37:31Z</time>
      </trkpt>
      <trkpt lat="42.200295" lon="2.697519">
        <ele>158</ele>
        <time>2019-08-19T03:37:34Z</time>
      </trkpt>
      <trkpt lat="42.20029" lon="2.697489">
        <ele>158</ele>
        <time>2019-08-19T03:37:35Z</time>
      </trkpt>
      <trkpt lat="42.200285" lon="2.697458">
        <ele>158</ele>
        <time>2019-08-19T03:37:36Z</time>
      </trkpt>
      <trkpt lat="42.20028" lon="2.697428">
        <ele>159</ele>
        <time>2019-08-19T03:37:37Z</time>
      </trkpt>
      <trkpt lat="42.200274" lon="2.697391">
        <ele>159</ele>
        <time>2019-08-19T03:37:38Z</time>
      </trkpt>
      <trkpt lat="42.200262" lon="2.697361">
        <ele>159</ele>
        <time>2019-08-19T03:37:39Z</time>
      </trkpt>
      <trkpt lat="42.200249" lon="2.697333">
        <ele>159</ele>
        <time>2019-08-19T03:37:40Z</time>
      </trkpt>
      <trkpt lat="42.200236" lon="2.697303">
        <ele>159</ele>
        <time>2019-08-19T03:37:41Z</time>
      </trkpt>
      <trkpt lat="42.200224" lon="2.697272">
        <ele>159</ele>
        <time>2019-08-19T03:37:42Z</time>
      </trkpt>
      <trkpt lat="42.200217" lon="2.697247">
        <ele>159</ele>
        <time>2019-08-19T03:37:43Z</time>
      </trkpt>
      <trkpt lat="42.200204" lon="2.697213">
        <ele>159</ele>
        <time>2019-08-19T03:37:45Z</time>
      </trkpt>
      <trkpt lat="42.200204" lon="2.697213">
        <ele>159</ele>
        <time>2019-08-19T03:37:48Z</time>
      </trkpt>
      <trkpt lat="42.200205" lon="2.697164">
        <ele>159</ele>
        <time>2019-08-19T03:37:52Z</time>
      </trkpt>
      <trkpt lat="42.200209" lon="2.697123">
        <ele>161</ele>
        <time>2019-08-19T03:51:11Z</time>
      </trkpt>
      <trkpt lat="42.200212" lon="2.697081">
        <ele>162</ele>
        <time>2019-08-19T03:51:16Z</time>
      </trkpt>
      <trkpt lat="42.200216" lon="2.69704">
        <ele>162</ele>
        <time>2019-08-19T03:51:40Z</time>
      </trkpt>
      <trkpt lat="42.20022" lon="2.696998">
        <ele>162</ele>
        <time>2019-08-19T03:51:41Z</time>
      </trkpt>
      <trkpt lat="42.200224" lon="2.696957">
        <ele>162</ele>
        <time>2019-08-19T03:51:42Z</time>
      </trkpt>
      <trkpt lat="42.200228" lon="2.696915">
        <ele>162</ele>
        <time>2019-08-19T03:51:44Z</time>
      </trkpt>
      <trkpt lat="42.200232" lon="2.696874">
        <ele>162</ele>
        <time>2019-08-19T03:51:45Z</time>
      </trkpt>
      <trkpt lat="42.200235" lon="2.696832">
        <ele>162</ele>
        <time>2019-08-19T03:51:46Z</time>
      </trkpt>
      <trkpt lat="42.200239" lon="2.696791">
        <ele>162</ele>
        <time>2019-08-19T03:51:48Z</time>
      </trkpt>
      <trkpt lat="42.200243" lon="2.696749">
        <ele>162</ele>
        <time>2019-08-19T03:51:49Z</time>
      </trkpt>
      <trkpt lat="42.200247" lon="2.69665">
        <ele>162</ele>
        <time>2019-08-19T03:51:50Z</time>
      </trkpt>
      <trkpt lat="42.200248" lon="2.696604">
        <ele>162</ele>
        <time>2019-08-19T03:51:51Z</time>
      </trkpt>
      <trkpt lat="42.200249" lon="2.696559">
        <ele>162</ele>
        <time>2019-08-19T03:51:52Z</time>
      </trkpt>
      <trkpt lat="42.20025" lon="2.696513">
        <ele>162</ele>
        <time>2019-08-19T03:51:53Z</time>
      </trkpt>
      <trkpt lat="42.200251" lon="2.696468">
        <ele>162</ele>
        <time>2019-08-19T03:51:54Z</time>
      </trkpt>
      <trkpt lat="42.200252" lon="2.696423">
        <ele>162</ele>
        <time>2019-08-19T03:51:55Z</time>
      </trkpt>
      <trkpt lat="42.200253" lon="2.696377">
        <ele>162</ele>
        <time>2019-08-19T03:51:56Z</time>
      </trkpt>
      <trkpt lat="42.200254" lon="2.696332">
        <ele>162</ele>
        <time>2019-08-19T03:51:57Z</time>
      </trkpt>
      <trkpt lat="42.200255" lon="2.696286">
        <ele>162</ele>
        <time>2019-08-19T03:51:58Z</time>
      </trkpt>
      <trkpt lat="42.200256" lon="2.696241">
        <ele>163</ele>
        <time>2019-08-19T03:51:59Z</time>
      </trkpt>
      <trkpt lat="42.20026" lon="2.69613">
        <ele>163</ele>
        <time>2019-08-19T03:52:00Z</time>
      </trkpt>
      <trkpt lat="42.200263" lon="2.696068">
        <ele>163</ele>
        <time>2019-08-19T03:52:01Z</time>
      </trkpt>
      <trkpt lat="42.200267" lon="2.696006">
        <ele>163</ele>
        <time>2019-08-19T03:52:02Z</time>
      </trkpt>
      <trkpt lat="42.200271" lon="2.695944">
        <ele>163</ele>
        <time>2019-08-19T03:52:03Z</time>
      </trkpt>
      <trkpt lat="42.200275" lon="2.695882">
        <ele>163</ele>
        <time>2019-08-19T03:52:04Z</time>
      </trkpt>
      <trkpt lat="42.200278" lon="2.695819">
        <ele>163</ele>
        <time>2019-08-19T03:52:05Z</time>
      </trkpt>
      <trkpt lat="42.200282" lon="2.695757">
        <ele>163</ele>
        <time>2019-08-19T03:52:06Z</time>
      </trkpt>
      <trkpt lat="42.200286" lon="2.695695">
        <ele>163</ele>
        <time>2019-08-19T03:52:07Z</time>
      </trkpt>
      <trkpt lat="42.200289" lon="2.695633">
        <ele>163</ele>
        <time>2019-08-19T03:52:08Z</time>
      </trkpt>
      <trkpt lat="42.200293" lon="2.695571">
        <ele>163</ele>
        <time>2019-08-19T03:52:09Z</time>
      </trkpt>
      <trkpt lat="42.200331" lon="2.695461">
        <ele>163</ele>
        <time>2019-08-19T03:52:10Z</time>
      </trkpt>
      <trkpt lat="42.200358" lon="2.695403">
        <ele>163</ele>
        <time>2019-08-19T03:52:12Z</time>
      </trkpt>
      <trkpt lat="42.200384" lon="2.695346">
        <ele>163</ele>
        <time>2019-08-19T03:52:14Z</time>
      </trkpt>
      <trkpt lat="42.20041" lon="2.695288">
        <ele>163</ele>
        <time>2019-08-19T03:52:15Z</time>
      </trkpt>
      <trkpt lat="42.200436" lon="2.695231">
        <ele>163</ele>
        <time>2019-08-19T03:52:17Z</time>
      </trkpt>
      <trkpt lat="42.200463" lon="2.695173">
        <ele>163</ele>
        <time>2019-08-19T03:52:18Z</time>
      </trkpt>
      <trkpt lat="42.200489" lon="2.695116">
        <ele>163</ele>
        <time>2019-08-19T03:52:19Z</time>
      </trkpt>
      <trkpt lat="42.20055" lon="2.695006">
        <ele>163</ele>
        <time>2019-08-19T03:52:20Z</time>
      </trkpt>
      <trkpt lat="42.200576" lon="2.694961">
        <ele>163</ele>
        <time>2019-08-19T03:52:21Z</time>
      </trkpt>
      <trkpt lat="42.200602" lon="2.694917">
        <ele>163</ele>
        <time>2019-08-19T03:52:22Z</time>
      </trkpt>
      <trkpt lat="42.200629" lon="2.694873">
        <ele>163</ele>
        <time>2019-08-19T03:52:24Z</time>
      </trkpt>
      <trkpt lat="42.200655" lon="2.694828">
        <ele>163</ele>
        <time>2019-08-19T03:52:26Z</time>
      </trkpt>
      <trkpt lat="42.200681" lon="2.694784">
        <ele>163</ele>
        <time>2019-08-19T03:52:27Z</time>
      </trkpt>
      <trkpt lat="42.200707" lon="2.694739">
        <ele>163</ele>
        <time>2019-08-19T03:52:28Z</time>
      </trkpt>
      <trkpt lat="42.200733" lon="2.694695">
        <ele>163</ele>
        <time>2019-08-19T03:52:29Z</time>
      </trkpt>
      <trkpt lat="42.200778" lon="2.694618">
        <ele>163</ele>
        <time>2019-08-19T03:52:30Z</time>
      </trkpt>
      <trkpt lat="42.200799" lon="2.69458">
        <ele>163</ele>
        <time>2019-08-19T03:52:31Z</time>
      </trkpt>
      <trkpt lat="42.200819" lon="2.694542">
        <ele>163</ele>
        <time>2019-08-19T03:52:32Z</time>
      </trkpt>
      <trkpt lat="42.20084" lon="2.694504">
        <ele>163</ele>
        <time>2019-08-19T03:52:34Z</time>
      </trkpt>
      <trkpt lat="42.20086" lon="2.694467">
        <ele>163</ele>
        <time>2019-08-19T03:52:35Z</time>
      </trkpt>
      <trkpt lat="42.200881" lon="2.694429">
        <ele>163</ele>
        <time>2019-08-19T03:52:36Z</time>
      </trkpt>
      <trkpt lat="42.200901" lon="2.694391">
        <ele>163</ele>
        <time>2019-08-19T03:52:37Z</time>
      </trkpt>
      <trkpt lat="42.200922" lon="2.694353">
        <ele>163</ele>
        <time>2019-08-19T03:52:38Z</time>
      </trkpt>
      <trkpt lat="42.200942" lon="2.694315">
        <ele>163</ele>
        <time>2019-08-19T03:52:39Z</time>
      </trkpt>
      <trkpt lat="42.201031" lon="2.69416">
        <ele>163</ele>
        <time>2019-08-19T03:52:41Z</time>
      </trkpt>
      <trkpt lat="42.20107" lon="2.694094">
        <ele>163</ele>
        <time>2019-08-19T03:52:42Z</time>
      </trkpt>
      <trkpt lat="42.20111" lon="2.694028">
        <ele>163</ele>
        <time>2019-08-19T03:52:44Z</time>
      </trkpt>
      <trkpt lat="42.201149" lon="2.693961">
        <ele>163</ele>
        <time>2019-08-19T03:52:45Z</time>
      </trkpt>
      <trkpt lat="42.201189" lon="2.693895">
        <ele>163</ele>
        <time>2019-08-19T03:52:47Z</time>
      </trkpt>
      <trkpt lat="42.201228" lon="2.693829">
        <ele>162</ele>
        <time>2019-08-19T03:52:49Z</time>
      </trkpt>
      <trkpt lat="42.201281" lon="2.693737">
        <ele>162</ele>
        <time>2019-08-19T03:52:50Z</time>
      </trkpt>
      <trkpt lat="42.201308" lon="2.693691">
        <ele>162</ele>
        <time>2019-08-19T03:52:51Z</time>
      </trkpt>
      <trkpt lat="42.201334" lon="2.693645">
        <ele>162</ele>
        <time>2019-08-19T03:52:52Z</time>
      </trkpt>
      <trkpt lat="42.201361" lon="2.693599">
        <ele>162</ele>
        <time>2019-08-19T03:52:53Z</time>
      </trkpt>
      <trkpt lat="42.201388" lon="2.693554">
        <ele>162</ele>
        <time>2019-08-19T03:52:54Z</time>
      </trkpt>
      <trkpt lat="42.201415" lon="2.693508">
        <ele>162</ele>
        <time>2019-08-19T03:52:55Z</time>
      </trkpt>
      <trkpt lat="42.201441" lon="2.693462">
        <ele>162</ele>
        <time>2019-08-19T03:52:57Z</time>
      </trkpt>
      <trkpt lat="42.201468" lon="2.693416">
        <ele>162</ele>
        <time>2019-08-19T03:52:58Z</time>
      </trkpt>
      <trkpt lat="42.201495" lon="2.69337">
        <ele>163</ele>
        <time>2019-08-19T03:52:59Z</time>
      </trkpt>
      <trkpt lat="42.20155" lon="2.693274">
        <ele>163</ele>
        <time>2019-08-19T03:53:00Z</time>
      </trkpt>
      <trkpt lat="42.20158" lon="2.693223">
        <ele>163</ele>
        <time>2019-08-19T03:53:01Z</time>
      </trkpt>
      <trkpt lat="42.201609" lon="2.693173">
        <ele>163</ele>
        <time>2019-08-19T03:53:03Z</time>
      </trkpt>
      <trkpt lat="42.201638" lon="2.693122">
        <ele>163</ele>
        <time>2019-08-19T03:53:04Z</time>
      </trkpt>
      <trkpt lat="42.201667" lon="2.693072">
        <ele>163</ele>
        <time>2019-08-19T03:53:06Z</time>
      </trkpt>
      <trkpt lat="42.201697" lon="2.693021">
        <ele>163</ele>
        <time>2019-08-19T03:53:08Z</time>
      </trkpt>
      <trkpt lat="42.201726" lon="2.692971">
        <ele>164</ele>
        <time>2019-08-19T03:53:09Z</time>
      </trkpt>
      <trkpt lat="42.201763" lon="2.692901">
        <ele>164</ele>
        <time>2019-08-19T03:53:10Z</time>
      </trkpt>
      <trkpt lat="42.201792" lon="2.69285">
        <ele>164</ele>
        <time>2019-08-19T03:53:11Z</time>
      </trkpt>
      <trkpt lat="42.20182" lon="2.692798">
        <ele>164</ele>
        <time>2019-08-19T03:53:13Z</time>
      </trkpt>
      <trkpt lat="42.201849" lon="2.692747">
        <ele>164</ele>
        <time>2019-08-19T03:53:14Z</time>
      </trkpt>
      <trkpt lat="42.201877" lon="2.692695">
        <ele>164</ele>
        <time>2019-08-19T03:53:16Z</time>
      </trkpt>
      <trkpt lat="42.201906" lon="2.692644">
        <ele>164</ele>
        <time>2019-08-19T03:53:17Z</time>
      </trkpt>
      <trkpt lat="42.201934" lon="2.692592">
        <ele>165</ele>
        <time>2019-08-19T03:53:19Z</time>
      </trkpt>
      <trkpt lat="42.201978" lon="2.692515">
        <ele>165</ele>
        <time>2019-08-19T03:53:21Z</time>
      </trkpt>
      <trkpt lat="42.202001" lon="2.692475">
        <ele>165</ele>
        <time>2019-08-19T03:53:22Z</time>
      </trkpt>
      <trkpt lat="42.202023" lon="2.692435">
        <ele>165</ele>
        <time>2019-08-19T03:53:23Z</time>
      </trkpt>
      <trkpt lat="42.202045" lon="2.692396">
        <ele>165</ele>
        <time>2019-08-19T03:53:24Z</time>
      </trkpt>
      <trkpt lat="42.202067" lon="2.692356">
        <ele>165</ele>
        <time>2019-08-19T03:53:25Z</time>
      </trkpt>
      <trkpt lat="42.20209" lon="2.692316">
        <ele>165</ele>
        <time>2019-08-19T03:53:27Z</time>
      </trkpt>
      <trkpt lat="42.202112" lon="2.692276">
        <ele>165</ele>
        <time>2019-08-19T03:53:28Z</time>
      </trkpt>
      <trkpt lat="42.202134" lon="2.692236">
        <ele>165</ele>
        <time>2019-08-19T03:53:29Z</time>
      </trkpt>
      <trkpt lat="42.202178" lon="2.692158">
        <ele>165</ele>
        <time>2019-08-19T03:53:30Z</time>
      </trkpt>
      <trkpt lat="42.202199" lon="2.69212">
        <ele>165</ele>
        <time>2019-08-19T03:53:31Z</time>
      </trkpt>
      <trkpt lat="42.202221" lon="2.692083">
        <ele>165</ele>
        <time>2019-08-19T03:53:32Z</time>
      </trkpt>
      <trkpt lat="42.202242" lon="2.692045">
        <ele>165</ele>
        <time>2019-08-19T03:53:33Z</time>
      </trkpt>
      <trkpt lat="42.202264" lon="2.692008">
        <ele>165</ele>
        <time>2019-08-19T03:53:34Z</time>
      </trkpt>
      <trkpt lat="42.202286" lon="2.691971">
        <ele>165</ele>
        <time>2019-08-19T03:53:35Z</time>
      </trkpt>
      <trkpt lat="42.202307" lon="2.691933">
        <ele>165</ele>
        <time>2019-08-19T03:53:36Z</time>
      </trkpt>
      <trkpt lat="42.202329" lon="2.691896">
        <ele>165</ele>
        <time>2019-08-19T03:53:37Z</time>
      </trkpt>
      <trkpt lat="42.20235" lon="2.691858">
        <ele>165</ele>
        <time>2019-08-19T03:53:38Z</time>
      </trkpt>
      <trkpt lat="42.202372" lon="2.691821">
        <ele>165</ele>
        <time>2019-08-19T03:53:39Z</time>
      </trkpt>
      <trkpt lat="42.202417" lon="2.691743">
        <ele>165</ele>
        <time>2019-08-19T03:53:40Z</time>
      </trkpt>
      <trkpt lat="42.202438" lon="2.691707">
        <ele>165</ele>
        <time>2019-08-19T03:53:41Z</time>
      </trkpt>
      <trkpt lat="42.202459" lon="2.691671">
        <ele>165</ele>
        <time>2019-08-19T03:53:42Z</time>
      </trkpt>
      <trkpt lat="42.20248" lon="2.691635">
        <ele>165</ele>
        <time>2019-08-19T03:53:43Z</time>
      </trkpt>
      <trkpt lat="42.202502" lon="2.691599">
        <ele>165</ele>
        <time>2019-08-19T03:53:44Z</time>
      </trkpt>
      <trkpt lat="42.202523" lon="2.691562">
        <ele>165</ele>
        <time>2019-08-19T03:53:45Z</time>
      </trkpt>
      <trkpt lat="42.202544" lon="2.691526">
        <ele>165</ele>
        <time>2019-08-19T03:53:46Z</time>
      </trkpt>
      <trkpt lat="42.202565" lon="2.69149">
        <ele>165</ele>
        <time>2019-08-19T03:53:47Z</time>
      </trkpt>
      <trkpt lat="42.202586" lon="2.691454">
        <ele>165</ele>
        <time>2019-08-19T03:53:48Z</time>
      </trkpt>
      <trkpt lat="42.202607" lon="2.691418">
        <ele>166</ele>
        <time>2019-08-19T03:53:49Z</time>
      </trkpt>
      <trkpt lat="42.202649" lon="2.691348">
        <ele>166</ele>
        <time>2019-08-19T03:53:50Z</time>
      </trkpt>
      <trkpt lat="42.20267" lon="2.691312">
        <ele>166</ele>
        <time>2019-08-19T03:53:51Z</time>
      </trkpt>
      <trkpt lat="42.202692" lon="2.691275">
        <ele>166</ele>
        <time>2019-08-19T03:53:52Z</time>
      </trkpt>
      <trkpt lat="42.202713" lon="2.691239">
        <ele>166</ele>
        <time>2019-08-19T03:53:53Z</time>
      </trkpt>
      <trkpt lat="42.202734" lon="2.691203">
        <ele>166</ele>
        <time>2019-08-19T03:53:54Z</time>
      </trkpt>
      <trkpt lat="42.202755" lon="2.691167">
        <ele>166</ele>
        <time>2019-08-19T03:53:55Z</time>
      </trkpt>
      <trkpt lat="42.202776" lon="2.691131">
        <ele>166</ele>
        <time>2019-08-19T03:53:56Z</time>
      </trkpt>
      <trkpt lat="42.202798" lon="2.691094">
        <ele>166</ele>
        <time>2019-08-19T03:53:57Z</time>
      </trkpt>
      <trkpt lat="42.202819" lon="2.691058">
        <ele>166</ele>
        <time>2019-08-19T03:53:58Z</time>
      </trkpt>
      <trkpt lat="42.20284" lon="2.691022">
        <ele>167</ele>
        <time>2019-08-19T03:53:59Z</time>
      </trkpt>
      <trkpt lat="42.202884" lon="2.690945">
        <ele>167</ele>
        <time>2019-08-19T03:54:00Z</time>
      </trkpt>
      <trkpt lat="42.202904" lon="2.690908">
        <ele>167</ele>
        <time>2019-08-19T03:54:01Z</time>
      </trkpt>
      <trkpt lat="42.202925" lon="2.690872">
        <ele>167</ele>
        <time>2019-08-19T03:54:02Z</time>
      </trkpt>
      <trkpt lat="42.202946" lon="2.690835">
        <ele>167</ele>
        <time>2019-08-19T03:54:03Z</time>
      </trkpt>
      <trkpt lat="42.202967" lon="2.690799">
        <ele>167</ele>
        <time>2019-08-19T03:54:04Z</time>
      </trkpt>
      <trkpt lat="42.202987" lon="2.690762">
        <ele>167</ele>
        <time>2019-08-19T03:54:05Z</time>
      </trkpt>
      <trkpt lat="42.203008" lon="2.690726">
        <ele>167</ele>
        <time>2019-08-19T03:54:06Z</time>
      </trkpt>
      <trkpt lat="42.203029" lon="2.690689">
        <ele>167</ele>
        <time>2019-08-19T03:54:07Z</time>
      </trkpt>
      <trkpt lat="42.203049" lon="2.690653">
        <ele>167</ele>
        <time>2019-08-19T03:54:08Z</time>
      </trkpt>
      <trkpt lat="42.20307" lon="2.690616">
        <ele>167</ele>
        <time>2019-08-19T03:54:09Z</time>
      </trkpt>
      <trkpt lat="42.203116" lon="2.690536">
        <ele>167</ele>
        <time>2019-08-19T03:54:10Z</time>
      </trkpt>
      <trkpt lat="42.203139" lon="2.690496">
        <ele>167</ele>
        <time>2019-08-19T03:54:11Z</time>
      </trkpt>
      <trkpt lat="42.203161" lon="2.690456">
        <ele>167</ele>
        <time>2019-08-19T03:54:12Z</time>
      </trkpt>
      <trkpt lat="42.203184" lon="2.690416">
        <ele>167</ele>
        <time>2019-08-19T03:54:13Z</time>
      </trkpt>
      <trkpt lat="42.203206" lon="2.690377">
        <ele>167</ele>
        <time>2019-08-19T03:54:14Z</time>
      </trkpt>
      <trkpt lat="42.203228" lon="2.690337">
        <ele>167</ele>
        <time>2019-08-19T03:54:15Z</time>
      </trkpt>
      <trkpt lat="42.203251" lon="2.690297">
        <ele>167</ele>
        <time>2019-08-19T03:54:16Z</time>
      </trkpt>
      <trkpt lat="42.203273" lon="2.690257">
        <ele>167</ele>
        <time>2019-08-19T03:54:17Z</time>
      </trkpt>
      <trkpt lat="42.203296" lon="2.690217">
        <ele>167</ele>
        <time>2019-08-19T03:54:18Z</time>
      </trkpt>
      <trkpt lat="42.203318" lon="2.690177">
        <ele>168</ele>
        <time>2019-08-19T03:54:19Z</time>
      </trkpt>
      <trkpt lat="42.203377" lon="2.69007">
        <ele>168</ele>
        <time>2019-08-19T03:54:21Z</time>
      </trkpt>
      <trkpt lat="42.203396" lon="2.690038">
        <ele>168</ele>
        <time>2019-08-19T03:54:22Z</time>
      </trkpt>
      <trkpt lat="42.203415" lon="2.690005">
        <ele>168</ele>
        <time>2019-08-19T03:54:23Z</time>
      </trkpt>
      <trkpt lat="42.203434" lon="2.689972">
        <ele>168</ele>
        <time>2019-08-19T03:54:24Z</time>
      </trkpt>
      <trkpt lat="42.203452" lon="2.689939">
        <ele>168</ele>
        <time>2019-08-19T03:54:26Z</time>
      </trkpt>
      <trkpt lat="42.203471" lon="2.689907">
        <ele>168</ele>
        <time>2019-08-19T03:54:27Z</time>
      </trkpt>
      <trkpt lat="42.20349" lon="2.689874">
        <ele>168</ele>
        <time>2019-08-19T03:54:28Z</time>
      </trkpt>
      <trkpt lat="42.203509" lon="2.689841">
        <ele>170</ele>
        <time>2019-08-19T03:54:29Z</time>
      </trkpt>
      <trkpt lat="42.203547" lon="2.689775">
        <ele>170</ele>
        <time>2019-08-19T03:54:30Z</time>
      </trkpt>
      <trkpt lat="42.203566" lon="2.689742">
        <ele>170</ele>
        <time>2019-08-19T03:54:32Z</time>
      </trkpt>
      <trkpt lat="42.203585" lon="2.689709">
        <ele>170</ele>
        <time>2019-08-19T03:54:33Z</time>
      </trkpt>
      <trkpt lat="42.203604" lon="2.689676">
        <ele>170</ele>
        <time>2019-08-19T03:54:34Z</time>
      </trkpt>
      <trkpt lat="42.203622" lon="2.689643">
        <ele>170</ele>
        <time>2019-08-19T03:54:35Z</time>
      </trkpt>
      <trkpt lat="42.203641" lon="2.68961">
        <ele>170</ele>
        <time>2019-08-19T03:54:36Z</time>
      </trkpt>
      <trkpt lat="42.20366" lon="2.689577">
        <ele>170</ele>
        <time>2019-08-19T03:54:38Z</time>
      </trkpt>
      <trkpt lat="42.203679" lon="2.689544">
        <ele>171</ele>
        <time>2019-08-19T03:54:39Z</time>
      </trkpt>
      <trkpt lat="42.203717" lon="2.689483">
        <ele>171</ele>
        <time>2019-08-19T03:54:40Z</time>
      </trkpt>
      <trkpt lat="42.203734" lon="2.689454">
        <ele>171</ele>
        <time>2019-08-19T03:54:41Z</time>
      </trkpt>
      <trkpt lat="42.203752" lon="2.689425">
        <ele>171</ele>
        <time>2019-08-19T03:54:42Z</time>
      </trkpt>
      <trkpt lat="42.203769" lon="2.689396">
        <ele>171</ele>
        <time>2019-08-19T03:54:43Z</time>
      </trkpt>
      <trkpt lat="42.203787" lon="2.689367">
        <ele>171</ele>
        <time>2019-08-19T03:54:44Z</time>
      </trkpt>
      <trkpt lat="42.203805" lon="2.689337">
        <ele>171</ele>
        <time>2019-08-19T03:54:45Z</time>
      </trkpt>
      <trkpt lat="42.203822" lon="2.689308">
        <ele>171</ele>
        <time>2019-08-19T03:54:46Z</time>
      </trkpt>
      <trkpt lat="42.20384" lon="2.689279">
        <ele>171</ele>
        <time>2019-08-19T03:54:47Z</time>
      </trkpt>
      <trkpt lat="42.203857" lon="2.68925">
        <ele>171</ele>
        <time>2019-08-19T03:54:48Z</time>
      </trkpt>
      <trkpt lat="42.203875" lon="2.689221">
        <ele>173</ele>
        <time>2019-08-19T03:54:49Z</time>
      </trkpt>
      <trkpt lat="42.203935" lon="2.689112">
        <ele>173</ele>
        <time>2019-08-19T03:54:51Z</time>
      </trkpt>
      <trkpt lat="42.203957" lon="2.689073">
        <ele>173</ele>
        <time>2019-08-19T03:54:52Z</time>
      </trkpt>
      <trkpt lat="42.203979" lon="2.689033">
        <ele>173</ele>
        <time>2019-08-19T03:54:53Z</time>
      </trkpt>
      <trkpt lat="42.204001" lon="2.688994">
        <ele>173</ele>
        <time>2019-08-19T03:54:54Z</time>
      </trkpt>
      <trkpt lat="42.204023" lon="2.688954">
        <ele>173</ele>
        <time>2019-08-19T03:54:56Z</time>
      </trkpt>
      <trkpt lat="42.204045" lon="2.688914">
        <ele>173</ele>
        <time>2019-08-19T03:54:58Z</time>
      </trkpt>
      <trkpt lat="42.204067" lon="2.688875">
        <ele>173</ele>
        <time>2019-08-19T03:54:59Z</time>
      </trkpt>
      <trkpt lat="42.204089" lon="2.688835">
        <ele>174</ele>
        <time>2019-08-19T03:55:00Z</time>
      </trkpt>
      <trkpt lat="42.204131" lon="2.688762">
        <ele>174</ele>
        <time>2019-08-19T03:55:01Z</time>
      </trkpt>
      <trkpt lat="42.204145" lon="2.688736">
        <ele>174</ele>
        <time>2019-08-19T03:55:02Z</time>
      </trkpt>
      <trkpt lat="42.20416" lon="2.68871">
        <ele>174</ele>
        <time>2019-08-19T03:55:03Z</time>
      </trkpt>
      <trkpt lat="42.204174" lon="2.688684">
        <ele>174</ele>
        <time>2019-08-19T03:55:04Z</time>
      </trkpt>
      <trkpt lat="42.204189" lon="2.688659">
        <ele>174</ele>
        <time>2019-08-19T03:55:05Z</time>
      </trkpt>
      <trkpt lat="42.204203" lon="2.688633">
        <ele>174</ele>
        <time>2019-08-19T03:55:06Z</time>
      </trkpt>
      <trkpt lat="42.204218" lon="2.688607">
        <ele>174</ele>
        <time>2019-08-19T03:55:07Z</time>
      </trkpt>
      <trkpt lat="42.204232" lon="2.688581">
        <ele>174</ele>
        <time>2019-08-19T03:55:08Z</time>
      </trkpt>
      <trkpt lat="42.204247" lon="2.688555">
        <ele>175</ele>
        <time>2019-08-19T03:55:09Z</time>
      </trkpt>
      <trkpt lat="42.204279" lon="2.688502">
        <ele>175</ele>
        <time>2019-08-19T03:55:10Z</time>
      </trkpt>
      <trkpt lat="42.204293" lon="2.688477">
        <ele>175</ele>
        <time>2019-08-19T03:55:11Z</time>
      </trkpt>
      <trkpt lat="42.204308" lon="2.688453">
        <ele>175</ele>
        <time>2019-08-19T03:55:12Z</time>
      </trkpt>
      <trkpt lat="42.204323" lon="2.688428">
        <ele>175</ele>
        <time>2019-08-19T03:55:13Z</time>
      </trkpt>
      <trkpt lat="42.204338" lon="2.688403">
        <ele>175</ele>
        <time>2019-08-19T03:55:14Z</time>
      </trkpt>
      <trkpt lat="42.204352" lon="2.688378">
        <ele>175</ele>
        <time>2019-08-19T03:55:15Z</time>
      </trkpt>
      <trkpt lat="42.204367" lon="2.688353">
        <ele>175</ele>
        <time>2019-08-19T03:55:16Z</time>
      </trkpt>
      <trkpt lat="42.204382" lon="2.688329">
        <ele>175</ele>
        <time>2019-08-19T03:55:17Z</time>
      </trkpt>
      <trkpt lat="42.204396" lon="2.688304">
        <ele>175</ele>
        <time>2019-08-19T03:55:18Z</time>
      </trkpt>
      <trkpt lat="42.204411" lon="2.688279">
        <ele>177</ele>
        <time>2019-08-19T03:55:19Z</time>
      </trkpt>
      <trkpt lat="42.204452" lon="2.688205">
        <ele>177</ele>
        <time>2019-08-19T03:55:21Z</time>
      </trkpt>
      <trkpt lat="42.204472" lon="2.68817">
        <ele>177</ele>
        <time>2019-08-19T03:55:22Z</time>
      </trkpt>
      <trkpt lat="42.204492" lon="2.688136">
        <ele>177</ele>
        <time>2019-08-19T03:55:24Z</time>
      </trkpt>
      <trkpt lat="42.204511" lon="2.688102">
        <ele>177</ele>
        <time>2019-08-19T03:55:25Z</time>
      </trkpt>
      <trkpt lat="42.204531" lon="2.688068">
        <ele>177</ele>
        <time>2019-08-19T03:55:26Z</time>
      </trkpt>
      <trkpt lat="42.204551" lon="2.688033">
        <ele>177</ele>
        <time>2019-08-19T03:55:27Z</time>
      </trkpt>
      <trkpt lat="42.204571" lon="2.687999">
        <ele>178</ele>
        <time>2019-08-19T03:55:29Z</time>
      </trkpt>
      <trkpt lat="42.204629" lon="2.687903">
        <ele>178</ele>
        <time>2019-08-19T03:55:30Z</time>
      </trkpt>
      <trkpt lat="42.204651" lon="2.687866">
        <ele>178</ele>
        <time>2019-08-19T03:55:31Z</time>
      </trkpt>
      <trkpt lat="42.204672" lon="2.687829">
        <ele>178</ele>
        <time>2019-08-19T03:55:33Z</time>
      </trkpt>
      <trkpt lat="42.204694" lon="2.687791">
        <ele>178</ele>
        <time>2019-08-19T03:55:35Z</time>
      </trkpt>
      <trkpt lat="42.204715" lon="2.687754">
        <ele>178</ele>
        <time>2019-08-19T03:55:37Z</time>
      </trkpt>
      <trkpt lat="42.204737" lon="2.687717">
        <ele>178</ele>
        <time>2019-08-19T03:55:38Z</time>
      </trkpt>
      <trkpt lat="42.204758" lon="2.68768">
        <ele>179</ele>
        <time>2019-08-19T03:55:39Z</time>
      </trkpt>
      <trkpt lat="42.204785" lon="2.68763">
        <ele>179</ele>
        <time>2019-08-19T03:55:40Z</time>
      </trkpt>
      <trkpt lat="42.204805" lon="2.687596">
        <ele>179</ele>
        <time>2019-08-19T03:55:41Z</time>
      </trkpt>
      <trkpt lat="42.204824" lon="2.687561">
        <ele>179</ele>
        <time>2019-08-19T03:55:42Z</time>
      </trkpt>
      <trkpt lat="42.204843" lon="2.687527">
        <ele>179</ele>
        <time>2019-08-19T03:55:43Z</time>
      </trkpt>
      <trkpt lat="42.204863" lon="2.687493">
        <ele>179</ele>
        <time>2019-08-19T03:55:44Z</time>
      </trkpt>
      <trkpt lat="42.204882" lon="2.687459">
        <ele>179</ele>
        <time>2019-08-19T03:55:46Z</time>
      </trkpt>
      <trkpt lat="42.204901" lon="2.687424">
        <ele>179</ele>
        <time>2019-08-19T03:55:47Z</time>
      </trkpt>
      <trkpt lat="42.204921" lon="2.68739">
        <ele>179</ele>
        <time>2019-08-19T03:55:48Z</time>
      </trkpt>
      <trkpt lat="42.20494" lon="2.687356">
        <ele>180</ele>
        <time>2019-08-19T03:55:49Z</time>
      </trkpt>
      <trkpt lat="42.204974" lon="2.687286">
        <ele>180</ele>
        <time>2019-08-19T03:55:50Z</time>
      </trkpt>
      <trkpt lat="42.204993" lon="2.687249">
        <ele>180</ele>
        <time>2019-08-19T03:55:52Z</time>
      </trkpt>
      <trkpt lat="42.205011" lon="2.687211">
        <ele>180</ele>
        <time>2019-08-19T03:55:54Z</time>
      </trkpt>
      <trkpt lat="42.20503" lon="2.687173">
        <ele>180</ele>
        <time>2019-08-19T03:55:55Z</time>
      </trkpt>
      <trkpt lat="42.205048" lon="2.687135">
        <ele>180</ele>
        <time>2019-08-19T03:55:57Z</time>
      </trkpt>
      <trkpt lat="42.205067" lon="2.687098">
        <ele>180</ele>
        <time>2019-08-19T03:55:58Z</time>
      </trkpt>
      <trkpt lat="42.205085" lon="2.68706">
        <ele>180</ele>
        <time>2019-08-19T03:55:59Z</time>
      </trkpt>
      <trkpt lat="42.20511" lon="2.686983">
        <ele>180</ele>
        <time>2019-08-19T03:56:00Z</time>
      </trkpt>
      <trkpt lat="42.205121" lon="2.686941">
        <ele>180</ele>
        <time>2019-08-19T03:56:01Z</time>
      </trkpt>
      <trkpt lat="42.205133" lon="2.6869">
        <ele>180</ele>
        <time>2019-08-19T03:56:02Z</time>
      </trkpt>
      <trkpt lat="42.205144" lon="2.686859">
        <ele>180</ele>
        <time>2019-08-19T03:56:03Z</time>
      </trkpt>
      <trkpt lat="42.205155" lon="2.686817">
        <ele>180</ele>
        <time>2019-08-19T03:56:05Z</time>
      </trkpt>
      <trkpt lat="42.205166" lon="2.686776">
        <ele>180</ele>
        <time>2019-08-19T03:56:06Z</time>
      </trkpt>
      <trkpt lat="42.205178" lon="2.686735">
        <ele>180</ele>
        <time>2019-08-19T03:56:07Z</time>
      </trkpt>
      <trkpt lat="42.205189" lon="2.686693">
        <ele>180</ele>
        <time>2019-08-19T03:56:08Z</time>
      </trkpt>
      <trkpt lat="42.2052" lon="2.686652">
        <ele>181</ele>
        <time>2019-08-19T03:56:09Z</time>
      </trkpt>
      <trkpt lat="42.20521" lon="2.686562">
        <ele>181</ele>
        <time>2019-08-19T03:56:10Z</time>
      </trkpt>
      <trkpt lat="42.205212" lon="2.686516">
        <ele>181</ele>
        <time>2019-08-19T03:56:11Z</time>
      </trkpt>
      <trkpt lat="42.205215" lon="2.686471">
        <ele>181</ele>
        <time>2019-08-19T03:56:12Z</time>
      </trkpt>
      <trkpt lat="42.205218" lon="2.686425">
        <ele>181</ele>
        <time>2019-08-19T03:56:13Z</time>
      </trkpt>
      <trkpt lat="42.20522" lon="2.68638">
        <ele>181</ele>
        <time>2019-08-19T03:56:14Z</time>
      </trkpt>
      <trkpt lat="42.205223" lon="2.686334">
        <ele>181</ele>
        <time>2019-08-19T03:56:15Z</time>
      </trkpt>
      <trkpt lat="42.205226" lon="2.686289">
        <ele>181</ele>
        <time>2019-08-19T03:56:17Z</time>
      </trkpt>
      <trkpt lat="42.205228" lon="2.686243">
        <ele>181</ele>
        <time>2019-08-19T03:56:18Z</time>
      </trkpt>
      <trkpt lat="42.205231" lon="2.686198">
        <ele>183</ele>
        <time>2019-08-19T03:56:19Z</time>
      </trkpt>
      <trkpt lat="42.205226" lon="2.686103">
        <ele>183</ele>
        <time>2019-08-19T03:56:20Z</time>
      </trkpt>
      <trkpt lat="42.205222" lon="2.686067">
        <ele>183</ele>
        <time>2019-08-19T03:56:22Z</time>
      </trkpt>
      <trkpt lat="42.205217" lon="2.686032">
        <ele>183</ele>
        <time>2019-08-19T03:56:23Z</time>
      </trkpt>
      <trkpt lat="42.205213" lon="2.685996">
        <ele>183</ele>
        <time>2019-08-19T03:56:24Z</time>
      </trkpt>
      <trkpt lat="42.205209" lon="2.685961">
        <ele>183</ele>
        <time>2019-08-19T03:56:25Z</time>
      </trkpt>
      <trkpt lat="42.205205" lon="2.685925">
        <ele>183</ele>
        <time>2019-08-19T03:56:26Z</time>
      </trkpt>
      <trkpt lat="42.2052" lon="2.68589">
        <ele>183</ele>
        <time>2019-08-19T03:56:27Z</time>
      </trkpt>
      <trkpt lat="42.205196" lon="2.685854">
        <ele>183</ele>
        <time>2019-08-19T03:56:28Z</time>
      </trkpt>
      <trkpt lat="42.205192" lon="2.685819">
        <ele>184</ele>
        <time>2019-08-19T03:56:29Z</time>
      </trkpt>
      <trkpt lat="42.205179" lon="2.685735">
        <ele>184</ele>
        <time>2019-08-19T03:56:30Z</time>
      </trkpt>
      <trkpt lat="42.205173" lon="2.685689">
        <ele>184</ele>
        <time>2019-08-19T03:56:31Z</time>
      </trkpt>
      <trkpt lat="42.205167" lon="2.685643">
        <ele>184</ele>
        <time>2019-08-19T03:56:33Z</time>
      </trkpt>
      <trkpt lat="42.205162" lon="2.685597">
        <ele>184</ele>
        <time>2019-08-19T03:56:34Z</time>
      </trkpt>
      <trkpt lat="42.205156" lon="2.685552">
        <ele>184</ele>
        <time>2019-08-19T03:56:35Z</time>
      </trkpt>
      <trkpt lat="42.20515" lon="2.685506">
        <ele>184</ele>
        <time>2019-08-19T03:56:36Z</time>
      </trkpt>
      <trkpt lat="42.205144" lon="2.68546">
        <ele>184</ele>
        <time>2019-08-19T03:56:37Z</time>
      </trkpt>
      <trkpt lat="42.205138" lon="2.685414">
        <ele>186</ele>
        <time>2019-08-19T03:56:39Z</time>
      </trkpt>
      <trkpt lat="42.20513" lon="2.685336">
        <ele>186</ele>
        <time>2019-08-19T03:56:40Z</time>
      </trkpt>
      <trkpt lat="42.205127" lon="2.685298">
        <ele>186</ele>
        <time>2019-08-19T03:56:41Z</time>
      </trkpt>
      <trkpt lat="42.205125" lon="2.68526">
        <ele>186</ele>
        <time>2019-08-19T03:56:42Z</time>
      </trkpt>
      <trkpt lat="42.205122" lon="2.685222">
        <ele>186</ele>
        <time>2019-08-19T03:56:43Z</time>
      </trkpt>
      <trkpt lat="42.205119" lon="2.685184">
        <ele>186</ele>
        <time>2019-08-19T03:56:44Z</time>
      </trkpt>
      <trkpt lat="42.205116" lon="2.685146">
        <ele>186</ele>
        <time>2019-08-19T03:56:45Z</time>
      </trkpt>
      <trkpt lat="42.205113" lon="2.685108">
        <ele>186</ele>
        <time>2019-08-19T03:56:46Z</time>
      </trkpt>
      <trkpt lat="42.205111" lon="2.68507">
        <ele>186</ele>
        <time>2019-08-19T03:56:47Z</time>
      </trkpt>
      <trkpt lat="42.205108" lon="2.685032">
        <ele>186</ele>
        <time>2019-08-19T03:56:48Z</time>
      </trkpt>
      <trkpt lat="42.205105" lon="2.684994">
        <ele>188</ele>
        <time>2019-08-19T03:56:49Z</time>
      </trkpt>
      <trkpt lat="42.205111" lon="2.684895">
        <ele>188</ele>
        <time>2019-08-19T03:56:50Z</time>
      </trkpt>
      <trkpt lat="42.205116" lon="2.684857">
        <ele>188</ele>
        <time>2019-08-19T03:56:52Z</time>
      </trkpt>
      <trkpt lat="42.205122" lon="2.684818">
        <ele>188</ele>
        <time>2019-08-19T03:56:54Z</time>
      </trkpt>
      <trkpt lat="42.205128" lon="2.684779">
        <ele>188</ele>
        <time>2019-08-19T03:56:55Z</time>
      </trkpt>
      <trkpt lat="42.205133" lon="2.68474">
        <ele>188</ele>
        <time>2019-08-19T03:56:56Z</time>
      </trkpt>
      <trkpt lat="42.205139" lon="2.684702">
        <ele>188</ele>
        <time>2019-08-19T03:56:57Z</time>
      </trkpt>
      <trkpt lat="42.205144" lon="2.684663">
        <ele>188</ele>
        <time>2019-08-19T03:56:58Z</time>
      </trkpt>
      <trkpt lat="42.20515" lon="2.684624">
        <ele>188</ele>
        <time>2019-08-19T03:56:59Z</time>
      </trkpt>
      <trkpt lat="42.205172" lon="2.684548">
        <ele>188</ele>
        <time>2019-08-19T03:57:00Z</time>
      </trkpt>
      <trkpt lat="42.205184" lon="2.68451">
        <ele>188</ele>
        <time>2019-08-19T03:57:01Z</time>
      </trkpt>
      <trkpt lat="42.205197" lon="2.684471">
        <ele>188</ele>
        <time>2019-08-19T03:57:02Z</time>
      </trkpt>
      <trkpt lat="42.20521" lon="2.684433">
        <ele>188</ele>
        <time>2019-08-19T03:57:03Z</time>
      </trkpt>
      <trkpt lat="42.205222" lon="2.684395">
        <ele>188</ele>
        <time>2019-08-19T03:57:04Z</time>
      </trkpt>
      <trkpt lat="42.205235" lon="2.684357">
        <ele>188</ele>
        <time>2019-08-19T03:57:05Z</time>
      </trkpt>
      <trkpt lat="42.205248" lon="2.684318">
        <ele>188</ele>
        <time>2019-08-19T03:57:07Z</time>
      </trkpt>
      <trkpt lat="42.20526" lon="2.68428">
        <ele>188</ele>
        <time>2019-08-19T03:57:08Z</time>
      </trkpt>
      <trkpt lat="42.205273" lon="2.684242">
        <ele>190</ele>
        <time>2019-08-19T03:57:09Z</time>
      </trkpt>
      <trkpt lat="42.20532" lon="2.684152">
        <ele>190</ele>
        <time>2019-08-19T03:57:10Z</time>
      </trkpt>
      <trkpt lat="42.205344" lon="2.684112">
        <ele>190</ele>
        <time>2019-08-19T03:57:12Z</time>
      </trkpt>
      <trkpt lat="42.205368" lon="2.684073">
        <ele>190</ele>
        <time>2019-08-19T03:57:14Z</time>
      </trkpt>
      <trkpt lat="42.205392" lon="2.684034">
        <ele>190</ele>
        <time>2019-08-19T03:57:15Z</time>
      </trkpt>
      <trkpt lat="42.205416" lon="2.683995">
        <ele>190</ele>
        <time>2019-08-19T03:57:16Z</time>
      </trkpt>
      <trkpt lat="42.20544" lon="2.683955">
        <ele>190</ele>
        <time>2019-08-19T03:57:17Z</time>
      </trkpt>
      <trkpt lat="42.205464" lon="2.683916">
        <ele>192</ele>
        <time>2019-08-19T03:57:19Z</time>
      </trkpt>
      <trkpt lat="42.205509" lon="2.683864">
        <ele>192</ele>
        <time>2019-08-19T03:57:21Z</time>
      </trkpt>
      <trkpt lat="42.205533" lon="2.683839">
        <ele>192</ele>
        <time>2019-08-19T03:57:22Z</time>
      </trkpt>
      <trkpt lat="42.205556" lon="2.683813">
        <ele>192</ele>
        <time>2019-08-19T03:57:23Z</time>
      </trkpt>
      <trkpt lat="42.20558" lon="2.683788">
        <ele>192</ele>
        <time>2019-08-19T03:57:24Z</time>
      </trkpt>
      <trkpt lat="42.205603" lon="2.683763">
        <ele>192</ele>
        <time>2019-08-19T03:57:25Z</time>
      </trkpt>
      <trkpt lat="42.205626" lon="2.683738">
        <ele>192</ele>
        <time>2019-08-19T03:57:27Z</time>
      </trkpt>
      <trkpt lat="42.20565" lon="2.683712">
        <ele>192</ele>
        <time>2019-08-19T03:57:28Z</time>
      </trkpt>
      <trkpt lat="42.205673" lon="2.683687">
        <ele>194</ele>
        <time>2019-08-19T03:57:29Z</time>
      </trkpt>
      <trkpt lat="42.205725" lon="2.68364">
        <ele>194</ele>
        <time>2019-08-19T03:57:30Z</time>
      </trkpt>
      <trkpt lat="42.205753" lon="2.683617">
        <ele>194</ele>
        <time>2019-08-19T03:57:31Z</time>
      </trkpt>
      <trkpt lat="42.20578" lon="2.683594">
        <ele>194</ele>
        <time>2019-08-19T03:57:32Z</time>
      </trkpt>
      <trkpt lat="42.205808" lon="2.683571">
        <ele>194</ele>
        <time>2019-08-19T03:57:33Z</time>
      </trkpt>
      <trkpt lat="42.205835" lon="2.683548">
        <ele>194</ele>
        <time>2019-08-19T03:57:34Z</time>
      </trkpt>
      <trkpt lat="42.205863" lon="2.683525">
        <ele>194</ele>
        <time>2019-08-19T03:57:35Z</time>
      </trkpt>
      <trkpt lat="42.20589" lon="2.683502">
        <ele>194</ele>
        <time>2019-08-19T03:57:36Z</time>
      </trkpt>
      <trkpt lat="42.205918" lon="2.683479">
        <ele>194</ele>
        <time>2019-08-19T03:57:37Z</time>
      </trkpt>
      <trkpt lat="42.205945" lon="2.683456">
        <ele>196</ele>
        <time>2019-08-19T03:57:39Z</time>
      </trkpt>
      <trkpt lat="42.206005" lon="2.683404">
        <ele>196</ele>
        <time>2019-08-19T03:57:40Z</time>
      </trkpt>
      <trkpt lat="42.206035" lon="2.683377">
        <ele>196</ele>
        <time>2019-08-19T03:57:41Z</time>
      </trkpt>
      <trkpt lat="42.206066" lon="2.68335">
        <ele>196</ele>
        <time>2019-08-19T03:57:42Z</time>
      </trkpt>
      <trkpt lat="42.206096" lon="2.683323">
        <ele>196</ele>
        <time>2019-08-19T03:57:43Z</time>
      </trkpt>
      <trkpt lat="42.206127" lon="2.683296">
        <ele>196</ele>
        <time>2019-08-19T03:57:44Z</time>
      </trkpt>
      <trkpt lat="42.206157" lon="2.683269">
        <ele>196</ele>
        <time>2019-08-19T03:57:45Z</time>
      </trkpt>
      <trkpt lat="42.206188" lon="2.683242">
        <ele>196</ele>
        <time>2019-08-19T03:57:46Z</time>
      </trkpt>
      <trkpt lat="42.206218" lon="2.683215">
        <ele>196</ele>
        <time>2019-08-19T03:57:47Z</time>
      </trkpt>
      <trkpt lat="42.206249" lon="2.683188">
        <ele>196</ele>
        <time>2019-08-19T03:57:48Z</time>
      </trkpt>
      <trkpt lat="42.206279" lon="2.683161">
        <ele>197</ele>
        <time>2019-08-19T03:57:49Z</time>
      </trkpt>
      <trkpt lat="42.206413" lon="2.683022">
        <ele>197</ele>
        <time>2019-08-19T03:57:51Z</time>
      </trkpt>
      <trkpt lat="42.206451" lon="2.68298">
        <ele>197</ele>
        <time>2019-08-19T03:57:53Z</time>
      </trkpt>
      <trkpt lat="42.206489" lon="2.682937">
        <ele>197</ele>
        <time>2019-08-19T03:57:54Z</time>
      </trkpt>
      <trkpt lat="42.206527" lon="2.682894">
        <ele>197</ele>
        <time>2019-08-19T03:57:55Z</time>
      </trkpt>
      <trkpt lat="42.206565" lon="2.682851">
        <ele>197</ele>
        <time>2019-08-19T03:57:57Z</time>
      </trkpt>
      <trkpt lat="42.206603" lon="2.682809">
        <ele>197</ele>
        <time>2019-08-19T03:57:58Z</time>
      </trkpt>
      <trkpt lat="42.206641" lon="2.682766">
        <ele>196</ele>
        <time>2019-08-19T03:57:59Z</time>
      </trkpt>
      <trkpt lat="42.206724" lon="2.682638">
        <ele>196</ele>
        <time>2019-08-19T03:58:00Z</time>
      </trkpt>
      <trkpt lat="42.206769" lon="2.682559">
        <ele>196</ele>
        <time>2019-08-19T03:58:01Z</time>
      </trkpt>
      <trkpt lat="42.206814" lon="2.682479">
        <ele>196</ele>
        <time>2019-08-19T03:58:02Z</time>
      </trkpt>
      <trkpt lat="42.20686" lon="2.682399">
        <ele>196</ele>
        <time>2019-08-19T03:58:04Z</time>
      </trkpt>
      <trkpt lat="42.206905" lon="2.682319">
        <ele>196</ele>
        <time>2019-08-19T03:58:06Z</time>
      </trkpt>
      <trkpt lat="42.20695" lon="2.68224">
        <ele>196</ele>
        <time>2019-08-19T03:58:07Z</time>
      </trkpt>
      <trkpt lat="42.206995" lon="2.68216">
        <ele>196</ele>
        <time>2019-08-19T03:58:08Z</time>
      </trkpt>
      <trkpt lat="42.20704" lon="2.68208">
        <ele>195</ele>
        <time>2019-08-19T03:58:09Z</time>
      </trkpt>
      <trkpt lat="42.207081" lon="2.681987">
        <ele>195</ele>
        <time>2019-08-19T03:58:10Z</time>
      </trkpt>
      <trkpt lat="42.20716" lon="2.681777">
        <ele>195</ele>
        <time>2019-08-19T03:58:11Z</time>
      </trkpt>
      <trkpt lat="42.207233" lon="2.681547">
        <ele>195</ele>
        <time>2019-08-19T03:58:13Z</time>
      </trkpt>
      <trkpt lat="42.207265" lon="2.681424">
        <ele>195</ele>
        <time>2019-08-19T03:58:15Z</time>
      </trkpt>
      <trkpt lat="42.207318" lon="2.681168">
        <ele>195</ele>
        <time>2019-08-19T03:58:16Z</time>
      </trkpt>
      <trkpt lat="42.207339" lon="2.681035">
        <ele>195</ele>
        <time>2019-08-19T03:58:18Z</time>
      </trkpt>
      <trkpt lat="42.207363" lon="2.680836">
        <ele>189</ele>
        <time>2019-08-19T03:58:19Z</time>
      </trkpt>
      <trkpt lat="42.207405" lon="2.680555">
        <ele>189</ele>
        <time>2019-08-19T03:58:20Z</time>
      </trkpt>
      <trkpt lat="42.207425" lon="2.680475">
        <ele>189</ele>
        <time>2019-08-19T03:58:21Z</time>
      </trkpt>
      <trkpt lat="42.207444" lon="2.680394">
        <ele>189</ele>
        <time>2019-08-19T03:58:22Z</time>
      </trkpt>
      <trkpt lat="42.207464" lon="2.680313">
        <ele>189</ele>
        <time>2019-08-19T03:58:23Z</time>
      </trkpt>
      <trkpt lat="42.207483" lon="2.680233">
        <ele>189</ele>
        <time>2019-08-19T03:58:24Z</time>
      </trkpt>
      <trkpt lat="42.207502" lon="2.680152">
        <ele>189</ele>
        <time>2019-08-19T03:58:25Z</time>
      </trkpt>
      <trkpt lat="42.207522" lon="2.680071">
        <ele>189</ele>
        <time>2019-08-19T03:58:26Z</time>
      </trkpt>
      <trkpt lat="42.207541" lon="2.67999">
        <ele>189</ele>
        <time>2019-08-19T03:58:27Z</time>
      </trkpt>
      <trkpt lat="42.207561" lon="2.67991">
        <ele>189</ele>
        <time>2019-08-19T03:58:28Z</time>
      </trkpt>
      <trkpt lat="42.20758" lon="2.679829">
        <ele>188</ele>
        <time>2019-08-19T03:58:29Z</time>
      </trkpt>
      <trkpt lat="42.207614" lon="2.679727">
        <ele>188</ele>
        <time>2019-08-19T03:58:30Z</time>
      </trkpt>
      <trkpt lat="42.207633" lon="2.67966">
        <ele>188</ele>
        <time>2019-08-19T03:58:31Z</time>
      </trkpt>
      <trkpt lat="42.207652" lon="2.679594">
        <ele>188</ele>
        <time>2019-08-19T03:58:32Z</time>
      </trkpt>
      <trkpt lat="42.207671" lon="2.679527">
        <ele>188</ele>
        <time>2019-08-19T03:58:33Z</time>
      </trkpt>
      <trkpt lat="42.207689" lon="2.679461">
        <ele>188</ele>
        <time>2019-08-19T03:58:35Z</time>
      </trkpt>
      <trkpt lat="42.207708" lon="2.679394">
        <ele>188</ele>
        <time>2019-08-19T03:58:36Z</time>
      </trkpt>
      <trkpt lat="42.207727" lon="2.679328">
        <ele>188</ele>
        <time>2019-08-19T03:58:38Z</time>
      </trkpt>
      <trkpt lat="42.207746" lon="2.679261">
        <ele>189</ele>
        <time>2019-08-19T03:58:39Z</time>
      </trkpt>
      <trkpt lat="42.207808" lon="2.679105">
        <ele>189</ele>
        <time>2019-08-19T03:58:41Z</time>
      </trkpt>
      <trkpt lat="42.207819" lon="2.679069">
        <ele>189</ele>
        <time>2019-08-19T03:58:43Z</time>
      </trkpt>
      <trkpt lat="42.20783" lon="2.679032">
        <ele>189</ele>
        <time>2019-08-19T03:58:44Z</time>
      </trkpt>
      <trkpt lat="42.207841" lon="2.678996">
        <ele>189</ele>
        <time>2019-08-19T03:58:45Z</time>
      </trkpt>
      <trkpt lat="42.207851" lon="2.67896">
        <ele>189</ele>
        <time>2019-08-19T03:58:46Z</time>
      </trkpt>
      <trkpt lat="42.207862" lon="2.678924">
        <ele>189</ele>
        <time>2019-08-19T03:58:47Z</time>
      </trkpt>
      <trkpt lat="42.207873" lon="2.678887">
        <ele>189</ele>
        <time>2019-08-19T03:58:48Z</time>
      </trkpt>
      <trkpt lat="42.207884" lon="2.678851">
        <ele>190</ele>
        <time>2019-08-19T03:58:49Z</time>
      </trkpt>
      <trkpt lat="42.207904" lon="2.678709">
        <ele>190</ele>
        <time>2019-08-19T03:58:51Z</time>
      </trkpt>
      <trkpt lat="42.207906" lon="2.678667">
        <ele>190</ele>
        <time>2019-08-19T03:58:53Z</time>
      </trkpt>
      <trkpt lat="42.207907" lon="2.678625">
        <ele>190</ele>
        <time>2019-08-19T03:58:54Z</time>
      </trkpt>
      <trkpt lat="42.207909" lon="2.678584">
        <ele>190</ele>
        <time>2019-08-19T03:58:56Z</time>
      </trkpt>
      <trkpt lat="42.20791" lon="2.678542">
        <ele>190</ele>
        <time>2019-08-19T03:58:57Z</time>
      </trkpt>
      <trkpt lat="42.207912" lon="2.6785">
        <ele>190</ele>
        <time>2019-08-19T03:58:58Z</time>
      </trkpt>
      <trkpt lat="42.207913" lon="2.678458">
        <ele>192</ele>
        <time>2019-08-19T03:58:59Z</time>
      </trkpt>
      <trkpt lat="42.20791" lon="2.678388">
        <ele>192</ele>
        <time>2019-08-19T03:59:00Z</time>
      </trkpt>
      <trkpt lat="42.207907" lon="2.678336">
        <ele>192</ele>
        <time>2019-08-19T03:59:01Z</time>
      </trkpt>
      <trkpt lat="42.207905" lon="2.678285">
        <ele>192</ele>
        <time>2019-08-19T03:59:02Z</time>
      </trkpt>
      <trkpt lat="42.207903" lon="2.678233">
        <ele>192</ele>
        <time>2019-08-19T03:59:04Z</time>
      </trkpt>
      <trkpt lat="42.207901" lon="2.678182">
        <ele>192</ele>
        <time>2019-08-19T03:59:06Z</time>
      </trkpt>
      <trkpt lat="42.207898" lon="2.67813">
        <ele>192</ele>
        <time>2019-08-19T03:59:07Z</time>
      </trkpt>
      <trkpt lat="42.207896" lon="2.678079">
        <ele>194</ele>
        <time>2019-08-19T03:59:09Z</time>
      </trkpt>
      <trkpt lat="42.207891" lon="2.67795">
        <ele>194</ele>
        <time>2019-08-19T03:59:10Z</time>
      </trkpt>
      <trkpt lat="42.207891" lon="2.677902">
        <ele>194</ele>
        <time>2019-08-19T03:59:12Z</time>
      </trkpt>
      <trkpt lat="42.20789" lon="2.677855">
        <ele>194</ele>
        <time>2019-08-19T03:59:13Z</time>
      </trkpt>
      <trkpt lat="42.20789" lon="2.677807">
        <ele>194</ele>
        <time>2019-08-19T03:59:15Z</time>
      </trkpt>
      <trkpt lat="42.207889" lon="2.677759">
        <ele>194</ele>
        <time>2019-08-19T03:59:16Z</time>
      </trkpt>
      <trkpt lat="42.207888" lon="2.677711">
        <ele>194</ele>
        <time>2019-08-19T03:59:17Z</time>
      </trkpt>
      <trkpt lat="42.207888" lon="2.677664">
        <ele>194</ele>
        <time>2019-08-19T03:59:18Z</time>
      </trkpt>
      <trkpt lat="42.207887" lon="2.677616">
        <ele>195</ele>
        <time>2019-08-19T03:59:19Z</time>
      </trkpt>
      <trkpt lat="42.207893" lon="2.677519">
        <ele>195</ele>
        <time>2019-08-19T03:59:20Z</time>
      </trkpt>
      <trkpt lat="42.2079" lon="2.677468">
        <ele>195</ele>
        <time>2019-08-19T03:59:22Z</time>
      </trkpt>
      <trkpt lat="42.207906" lon="2.677416">
        <ele>195</ele>
        <time>2019-08-19T03:59:23Z</time>
      </trkpt>
      <trkpt lat="42.207913" lon="2.677364">
        <ele>195</ele>
        <time>2019-08-19T03:59:25Z</time>
      </trkpt>
      <trkpt lat="42.207919" lon="2.677312">
        <ele>195</ele>
        <time>2019-08-19T03:59:26Z</time>
      </trkpt>
      <trkpt lat="42.207926" lon="2.677261">
        <ele>195</ele>
        <time>2019-08-19T03:59:28Z</time>
      </trkpt>
      <trkpt lat="42.207932" lon="2.677209">
        <ele>197</ele>
        <time>2019-08-19T03:59:29Z</time>
      </trkpt>
      <trkpt lat="42.20796" lon="2.677053">
        <ele>197</ele>
        <time>2019-08-19T03:59:31Z</time>
      </trkpt>
      <trkpt lat="42.207974" lon="2.676989">
        <ele>197</ele>
        <time>2019-08-19T03:59:32Z</time>
      </trkpt>
      <trkpt lat="42.207989" lon="2.676926">
        <ele>197</ele>
        <time>2019-08-19T03:59:33Z</time>
      </trkpt>
      <trkpt lat="42.208004" lon="2.676862">
        <ele>197</ele>
        <time>2019-08-19T03:59:34Z</time>
      </trkpt>
      <trkpt lat="42.208019" lon="2.676799">
        <ele>197</ele>
        <time>2019-08-19T03:59:36Z</time>
      </trkpt>
      <trkpt lat="42.208033" lon="2.676735">
        <ele>197</ele>
        <time>2019-08-19T03:59:37Z</time>
      </trkpt>
      <trkpt lat="42.208048" lon="2.676672">
        <ele>197</ele>
        <time>2019-08-19T03:59:39Z</time>
      </trkpt>
      <trkpt lat="42.208083" lon="2.676567">
        <ele>197</ele>
        <time>2019-08-19T03:59:41Z</time>
      </trkpt>
      <trkpt lat="42.208102" lon="2.67651">
        <ele>197</ele>
        <time>2019-08-19T03:59:42Z</time>
      </trkpt>
      <trkpt lat="42.208121" lon="2.676453">
        <ele>197</ele>
        <time>2019-08-19T03:59:44Z</time>
      </trkpt>
      <trkpt lat="42.208141" lon="2.676395">
        <ele>197</ele>
        <time>2019-08-19T03:59:45Z</time>
      </trkpt>
      <trkpt lat="42.20816" lon="2.676338">
        <ele>197</ele>
        <time>2019-08-19T03:59:47Z</time>
      </trkpt>
      <trkpt lat="42.208179" lon="2.676281">
        <ele>197</ele>
        <time>2019-08-19T03:59:48Z</time>
      </trkpt>
      <trkpt lat="42.208198" lon="2.676224">
        <ele>197</ele>
        <time>2019-08-19T03:59:49Z</time>
      </trkpt>
      <trkpt lat="42.208252" lon="2.676077">
        <ele>197</ele>
        <time>2019-08-19T03:59:51Z</time>
      </trkpt>
      <trkpt lat="42.20827" lon="2.67603">
        <ele>197</ele>
        <time>2019-08-19T03:59:52Z</time>
      </trkpt>
      <trkpt lat="42.208287" lon="2.675984">
        <ele>197</ele>
        <time>2019-08-19T03:59:53Z</time>
      </trkpt>
      <trkpt lat="42.208304" lon="2.675937">
        <ele>197</ele>
        <time>2019-08-19T03:59:54Z</time>
      </trkpt>
      <trkpt lat="42.208322" lon="2.675891">
        <ele>197</ele>
        <time>2019-08-19T03:59:55Z</time>
      </trkpt>
      <trkpt lat="42.208339" lon="2.675844">
        <ele>197</ele>
        <time>2019-08-19T03:59:56Z</time>
      </trkpt>
      <trkpt lat="42.208356" lon="2.675798">
        <ele>197</ele>
        <time>2019-08-19T03:59:57Z</time>
      </trkpt>
      <trkpt lat="42.208374" lon="2.675751">
        <ele>197</ele>
        <time>2019-08-19T03:59:58Z</time>
      </trkpt>
      <trkpt lat="42.208391" lon="2.675705">
        <ele>197</ele>
        <time>2019-08-19T03:59:59Z</time>
      </trkpt>
      <trkpt lat="42.208434" lon="2.675608">
        <ele>197</ele>
        <time>2019-08-19T04:00:00Z</time>
      </trkpt>
      <trkpt lat="42.208457" lon="2.675559">
        <ele>197</ele>
        <time>2019-08-19T04:00:01Z</time>
      </trkpt>
      <trkpt lat="42.208479" lon="2.67551">
        <ele>197</ele>
        <time>2019-08-19T04:00:02Z</time>
      </trkpt>
      <trkpt lat="42.208502" lon="2.675461">
        <ele>197</ele>
        <time>2019-08-19T04:00:03Z</time>
      </trkpt>
      <trkpt lat="42.208524" lon="2.675411">
        <ele>197</ele>
        <time>2019-08-19T04:00:05Z</time>
      </trkpt>
      <trkpt lat="42.208547" lon="2.675362">
        <ele>197</ele>
        <time>2019-08-19T04:00:06Z</time>
      </trkpt>
      <trkpt lat="42.208569" lon="2.675313">
        <ele>197</ele>
        <time>2019-08-19T04:00:07Z</time>
      </trkpt>
      <trkpt lat="42.208592" lon="2.675264">
        <ele>197</ele>
        <time>2019-08-19T04:00:08Z</time>
      </trkpt>
      <trkpt lat="42.208614" lon="2.675215">
        <ele>197</ele>
        <time>2019-08-19T04:00:09Z</time>
      </trkpt>
      <trkpt lat="42.20866" lon="2.675118">
        <ele>197</ele>
        <time>2019-08-19T04:00:10Z</time>
      </trkpt>
      <trkpt lat="42.208685" lon="2.675069">
        <ele>197</ele>
        <time>2019-08-19T04:00:11Z</time>
      </trkpt>
      <trkpt lat="42.20871" lon="2.675019">
        <ele>197</ele>
        <time>2019-08-19T04:00:12Z</time>
      </trkpt>
      <trkpt lat="42.208735" lon="2.67497">
        <ele>197</ele>
        <time>2019-08-19T04:00:14Z</time>
      </trkpt>
      <trkpt lat="42.20876" lon="2.674921">
        <ele>197</ele>
        <time>2019-08-19T04:00:15Z</time>
      </trkpt>
      <trkpt lat="42.208785" lon="2.674872">
        <ele>197</ele>
        <time>2019-08-19T04:00:16Z</time>
      </trkpt>
      <trkpt lat="42.20881" lon="2.674822">
        <ele>197</ele>
        <time>2019-08-19T04:00:17Z</time>
      </trkpt>
      <trkpt lat="42.208835" lon="2.674773">
        <ele>197</ele>
        <time>2019-08-19T04:00:19Z</time>
      </trkpt>
      <trkpt lat="42.208916" lon="2.674614">
        <ele>197</ele>
        <time>2019-08-19T04:00:20Z</time>
      </trkpt>
      <trkpt lat="42.208947" lon="2.674557">
        <ele>197</ele>
        <time>2019-08-19T04:00:22Z</time>
      </trkpt>
      <trkpt lat="42.208978" lon="2.674499">
        <ele>197</ele>
        <time>2019-08-19T04:00:23Z</time>
      </trkpt>
      <trkpt lat="42.20901" lon="2.674441">
        <ele>197</ele>
        <time>2019-08-19T04:00:24Z</time>
      </trkpt>
      <trkpt lat="42.209041" lon="2.674383">
        <ele>197</ele>
        <time>2019-08-19T04:00:26Z</time>
      </trkpt>
      <trkpt lat="42.209072" lon="2.674326">
        <ele>197</ele>
        <time>2019-08-19T04:00:27Z</time>
      </trkpt>
      <trkpt lat="42.209103" lon="2.674268">
        <ele>197</ele>
        <time>2019-08-19T04:00:28Z</time>
      </trkpt>
      <trkpt lat="42.209134" lon="2.67421">
        <ele>197</ele>
        <time>2019-08-19T04:00:29Z</time>
      </trkpt>
      <trkpt lat="42.209209" lon="2.674066">
        <ele>197</ele>
        <time>2019-08-19T04:00:30Z</time>
      </trkpt>
      <trkpt lat="42.209251" lon="2.673987">
        <ele>197</ele>
        <time>2019-08-19T04:00:31Z</time>
      </trkpt>
      <trkpt lat="42.209292" lon="2.673907">
        <ele>197</ele>
        <time>2019-08-19T04:00:32Z</time>
      </trkpt>
      <trkpt lat="42.209333" lon="2.673828">
        <ele>197</ele>
        <time>2019-08-19T04:00:33Z</time>
      </trkpt>
      <trkpt lat="42.209374" lon="2.673748">
        <ele>197</ele>
        <time>2019-08-19T04:00:34Z</time>
      </trkpt>
      <trkpt lat="42.209416" lon="2.673668">
        <ele>197</ele>
        <time>2019-08-19T04:00:36Z</time>
      </trkpt>
      <trkpt lat="42.209457" lon="2.673589">
        <ele>197</ele>
        <time>2019-08-19T04:00:37Z</time>
      </trkpt>
      <trkpt lat="42.209498" lon="2.673509">
        <ele>196</ele>
        <time>2019-08-19T04:00:39Z</time>
      </trkpt>
      <trkpt lat="42.209575" lon="2.673356">
        <ele>196</ele>
        <time>2019-08-19T04:00:41Z</time>
      </trkpt>
      <trkpt lat="42.209602" lon="2.673302">
        <ele>196</ele>
        <time>2019-08-19T04:00:42Z</time>
      </trkpt>
      <trkpt lat="42.209629" lon="2.673249">
        <ele>196</ele>
        <time>2019-08-19T04:00:43Z</time>
      </trkpt>
      <trkpt lat="42.209656" lon="2.673196">
        <ele>196</ele>
        <time>2019-08-19T04:00:44Z</time>
      </trkpt>
      <trkpt lat="42.209682" lon="2.673142">
        <ele>196</ele>
        <time>2019-08-19T04:00:45Z</time>
      </trkpt>
      <trkpt lat="42.209709" lon="2.673089">
        <ele>196</ele>
        <time>2019-08-19T04:00:46Z</time>
      </trkpt>
      <trkpt lat="42.209736" lon="2.673036">
        <ele>196</ele>
        <time>2019-08-19T04:00:47Z</time>
      </trkpt>
      <trkpt lat="42.209763" lon="2.672982">
        <ele>196</ele>
        <time>2019-08-19T04:00:48Z</time>
      </trkpt>
      <trkpt lat="42.20979" lon="2.672929">
        <ele>196</ele>
        <time>2019-08-19T04:00:49Z</time>
      </trkpt>
      <trkpt lat="42.209849" lon="2.672814">
        <ele>196</ele>
        <time>2019-08-19T04:00:50Z</time>
      </trkpt>
      <trkpt lat="42.20987" lon="2.672774">
        <ele>196</ele>
        <time>2019-08-19T04:00:51Z</time>
      </trkpt>
      <trkpt lat="42.209892" lon="2.672735">
        <ele>196</ele>
        <time>2019-08-19T04:00:53Z</time>
      </trkpt>
      <trkpt lat="42.209913" lon="2.672696">
        <ele>196</ele>
        <time>2019-08-19T04:00:54Z</time>
      </trkpt>
      <trkpt lat="42.209934" lon="2.672656">
        <ele>196</ele>
        <time>2019-08-19T04:00:55Z</time>
      </trkpt>
      <trkpt lat="42.209955" lon="2.672617">
        <ele>196</ele>
        <time>2019-08-19T04:00:56Z</time>
      </trkpt>
      <trkpt lat="42.209977" lon="2.672578">
        <ele>196</ele>
        <time>2019-08-19T04:00:57Z</time>
      </trkpt>
      <trkpt lat="42.209998" lon="2.672538">
        <ele>196</ele>
        <time>2019-08-19T04:00:58Z</time>
      </trkpt>
      <trkpt lat="42.210019" lon="2.672499">
        <ele>198</ele>
        <time>2019-08-19T04:00:59Z</time>
      </trkpt>
      <trkpt lat="42.210067" lon="2.672413">
        <ele>198</ele>
        <time>2019-08-19T04:01:00Z</time>
      </trkpt>
      <trkpt lat="42.21009" lon="2.67237">
        <ele>198</ele>
        <time>2019-08-19T04:01:01Z</time>
      </trkpt>
      <trkpt lat="42.210114" lon="2.672326">
        <ele>198</ele>
        <time>2019-08-19T04:01:02Z</time>
      </trkpt>
      <trkpt lat="42.210138" lon="2.672283">
        <ele>198</ele>
        <time>2019-08-19T04:01:03Z</time>
      </trkpt>
      <trkpt lat="42.210162" lon="2.672239">
        <ele>198</ele>
        <time>2019-08-19T04:01:04Z</time>
      </trkpt>
      <trkpt lat="42.210185" lon="2.672195">
        <ele>198</ele>
        <time>2019-08-19T04:01:05Z</time>
      </trkpt>
      <trkpt lat="42.210209" lon="2.672152">
        <ele>198</ele>
        <time>2019-08-19T04:01:06Z</time>
      </trkpt>
      <trkpt lat="42.210233" lon="2.672108">
        <ele>198</ele>
        <time>2019-08-19T04:01:07Z</time>
      </trkpt>
      <trkpt lat="42.210256" lon="2.672065">
        <ele>198</ele>
        <time>2019-08-19T04:01:08Z</time>
      </trkpt>
      <trkpt lat="42.21028" lon="2.672021">
        <ele>198</ele>
        <time>2019-08-19T04:01:09Z</time>
      </trkpt>
      <trkpt lat="42.210357" lon="2.671874">
        <ele>198</ele>
        <time>2019-08-19T04:01:10Z</time>
      </trkpt>
      <trkpt lat="42.210396" lon="2.671799">
        <ele>198</ele>
        <time>2019-08-19T04:01:12Z</time>
      </trkpt>
      <trkpt lat="42.210436" lon="2.671725">
        <ele>198</ele>
        <time>2019-08-19T04:01:14Z</time>
      </trkpt>
      <trkpt lat="42.210476" lon="2.67165">
        <ele>198</ele>
        <time>2019-08-19T04:01:15Z</time>
      </trkpt>
      <trkpt lat="42.210515" lon="2.671576">
        <ele>198</ele>
        <time>2019-08-19T04:01:17Z</time>
      </trkpt>
      <trkpt lat="42.210555" lon="2.671501">
        <ele>199</ele>
        <time>2019-08-19T04:01:19Z</time>
      </trkpt>
      <trkpt lat="42.210613" lon="2.671372">
        <ele>199</ele>
        <time>2019-08-19T04:01:20Z</time>
      </trkpt>
      <trkpt lat="42.210644" lon="2.671297">
        <ele>199</ele>
        <time>2019-08-19T04:01:22Z</time>
      </trkpt>
      <trkpt lat="42.210674" lon="2.671223">
        <ele>199</ele>
        <time>2019-08-19T04:01:23Z</time>
      </trkpt>
      <trkpt lat="42.210705" lon="2.671148">
        <ele>199</ele>
        <time>2019-08-19T04:01:24Z</time>
      </trkpt>
      <trkpt lat="42.210735" lon="2.671074">
        <ele>199</ele>
        <time>2019-08-19T04:01:26Z</time>
      </trkpt>
      <trkpt lat="42.210765" lon="2.670999">
        <ele>199</ele>
        <time>2019-08-19T04:01:27Z</time>
      </trkpt>
      <trkpt lat="42.210796" lon="2.670925">
        <ele>199</ele>
        <time>2019-08-19T04:01:28Z</time>
      </trkpt>
      <trkpt lat="42.210826" lon="2.67085">
        <ele>199</ele>
        <time>2019-08-19T04:01:30Z</time>
      </trkpt>
      <trkpt lat="42.21087" lon="2.670732">
        <ele>199</ele>
        <time>2019-08-19T04:01:31Z</time>
      </trkpt>
      <trkpt lat="42.210891" lon="2.670675">
        <ele>199</ele>
        <time>2019-08-19T04:01:32Z</time>
      </trkpt>
      <trkpt lat="42.210912" lon="2.670618">
        <ele>199</ele>
        <time>2019-08-19T04:01:33Z</time>
      </trkpt>
      <trkpt lat="42.210933" lon="2.670561">
        <ele>199</ele>
        <time>2019-08-19T04:01:34Z</time>
      </trkpt>
      <trkpt lat="42.210953" lon="2.670503">
        <ele>199</ele>
        <time>2019-08-19T04:01:35Z</time>
      </trkpt>
      <trkpt lat="42.210974" lon="2.670446">
        <ele>199</ele>
        <time>2019-08-19T04:01:36Z</time>
      </trkpt>
      <trkpt lat="42.210995" lon="2.670389">
        <ele>199</ele>
        <time>2019-08-19T04:01:37Z</time>
      </trkpt>
      <trkpt lat="42.211016" lon="2.670332">
        <ele>199</ele>
        <time>2019-08-19T04:01:38Z</time>
      </trkpt>
      <trkpt lat="42.211037" lon="2.670275">
        <ele>199</ele>
        <time>2019-08-19T04:01:39Z</time>
      </trkpt>
      <trkpt lat="42.211107" lon="2.670073">
        <ele>199</ele>
        <time>2019-08-19T04:01:41Z</time>
      </trkpt>
      <trkpt lat="42.21113" lon="2.670004">
        <ele>199</ele>
        <time>2019-08-19T04:01:43Z</time>
      </trkpt>
      <trkpt lat="42.211154" lon="2.669935">
        <ele>199</ele>
        <time>2019-08-19T04:01:44Z</time>
      </trkpt>
      <trkpt lat="42.211178" lon="2.669867">
        <ele>199</ele>
        <time>2019-08-19T04:01:46Z</time>
      </trkpt>
      <trkpt lat="42.211202" lon="2.669798">
        <ele>199</ele>
        <time>2019-08-19T04:01:47Z</time>
      </trkpt>
      <trkpt lat="42.211225" lon="2.669729">
        <ele>199</ele>
        <time>2019-08-19T04:01:48Z</time>
      </trkpt>
      <trkpt lat="42.211249" lon="2.66966">
        <ele>199</ele>
        <time>2019-08-19T04:01:49Z</time>
      </trkpt>
      <trkpt lat="42.211331" lon="2.669415">
        <ele>199</ele>
        <time>2019-08-19T04:01:51Z</time>
      </trkpt>
      <trkpt lat="42.211355" lon="2.669346">
        <ele>199</ele>
        <time>2019-08-19T04:01:52Z</time>
      </trkpt>
      <trkpt lat="42.211378" lon="2.669277">
        <ele>199</ele>
        <time>2019-08-19T04:01:53Z</time>
      </trkpt>
      <trkpt lat="42.211402" lon="2.669208">
        <ele>199</ele>
        <time>2019-08-19T04:01:54Z</time>
      </trkpt>
      <trkpt lat="42.211425" lon="2.669138">
        <ele>199</ele>
        <time>2019-08-19T04:01:55Z</time>
      </trkpt>
      <trkpt lat="42.211448" lon="2.669069">
        <ele>199</ele>
        <time>2019-08-19T04:01:56Z</time>
      </trkpt>
      <trkpt lat="42.211472" lon="2.669">
        <ele>199</ele>
        <time>2019-08-19T04:01:57Z</time>
      </trkpt>
      <trkpt lat="42.211495" lon="2.668931">
        <ele>198</ele>
        <time>2019-08-19T04:01:59Z</time>
      </trkpt>
      <trkpt lat="42.211552" lon="2.66873">
        <ele>198</ele>
        <time>2019-08-19T04:02:01Z</time>
      </trkpt>
      <trkpt lat="42.211572" lon="2.668644">
        <ele>198</ele>
        <time>2019-08-19T04:02:02Z</time>
      </trkpt>
      <trkpt lat="42.211592" lon="2.668557">
        <ele>198</ele>
        <time>2019-08-19T04:02:03Z</time>
      </trkpt>
      <trkpt lat="42.211612" lon="2.668471">
        <ele>198</ele>
        <time>2019-08-19T04:02:04Z</time>
      </trkpt>
      <trkpt lat="42.211631" lon="2.668384">
        <ele>198</ele>
        <time>2019-08-19T04:02:05Z</time>
      </trkpt>
      <trkpt lat="42.211651" lon="2.668297">
        <ele>198</ele>
        <time>2019-08-19T04:02:06Z</time>
      </trkpt>
      <trkpt lat="42.211671" lon="2.668211">
        <ele>198</ele>
        <time>2019-08-19T04:02:08Z</time>
      </trkpt>
      <trkpt lat="42.211691" lon="2.668124">
        <ele>199</ele>
        <time>2019-08-19T04:02:09Z</time>
      </trkpt>
      <trkpt lat="42.211704" lon="2.667953">
        <ele>199</ele>
        <time>2019-08-19T04:02:10Z</time>
      </trkpt>
      <trkpt lat="42.211709" lon="2.667867">
        <ele>199</ele>
        <time>2019-08-19T04:02:12Z</time>
      </trkpt>
      <trkpt lat="42.211714" lon="2.66778">
        <ele>199</ele>
        <time>2019-08-19T04:02:13Z</time>
      </trkpt>
      <trkpt lat="42.211719" lon="2.667693">
        <ele>199</ele>
        <time>2019-08-19T04:02:14Z</time>
      </trkpt>
      <trkpt lat="42.211724" lon="2.667607">
        <ele>199</ele>
        <time>2019-08-19T04:02:15Z</time>
      </trkpt>
      <trkpt lat="42.211729" lon="2.66752">
        <ele>199</ele>
        <time>2019-08-19T04:02:16Z</time>
      </trkpt>
      <trkpt lat="42.211734" lon="2.667433">
        <ele>199</ele>
        <time>2019-08-19T04:02:17Z</time>
      </trkpt>
      <trkpt lat="42.211739" lon="2.667347">
        <ele>199</ele>
        <time>2019-08-19T04:02:18Z</time>
      </trkpt>
      <trkpt lat="42.211744" lon="2.66726">
        <ele>198</ele>
        <time>2019-08-19T04:02:19Z</time>
      </trkpt>
      <trkpt lat="42.211779" lon="2.667016">
        <ele>198</ele>
        <time>2019-08-19T04:02:20Z</time>
      </trkpt>
      <trkpt lat="42.211803" lon="2.666915">
        <ele>198</ele>
        <time>2019-08-19T04:02:22Z</time>
      </trkpt>
      <trkpt lat="42.211827" lon="2.666813">
        <ele>198</ele>
        <time>2019-08-19T04:02:23Z</time>
      </trkpt>
      <trkpt lat="42.211851" lon="2.666711">
        <ele>198</ele>
        <time>2019-08-19T04:02:25Z</time>
      </trkpt>
      <trkpt lat="42.211875" lon="2.666609">
        <ele>198</ele>
        <time>2019-08-19T04:02:26Z</time>
      </trkpt>
      <trkpt lat="42.211899" lon="2.666508">
        <ele>198</ele>
        <time>2019-08-19T04:02:28Z</time>
      </trkpt>
      <trkpt lat="42.211923" lon="2.666406">
        <ele>198</ele>
        <time>2019-08-19T04:02:29Z</time>
      </trkpt>
      <trkpt lat="42.211947" lon="2.666304">
        <ele>197</ele>
        <time>2019-08-19T04:02:30Z</time>
      </trkpt>
      <trkpt lat="42.212015" lon="2.666134">
        <ele>197</ele>
        <time>2019-08-19T04:02:31Z</time>
      </trkpt>
      <trkpt lat="42.212041" lon="2.666076">
        <ele>197</ele>
        <time>2019-08-19T04:02:32Z</time>
      </trkpt>
      <trkpt lat="42.212067" lon="2.666017">
        <ele>197</ele>
        <time>2019-08-19T04:02:33Z</time>
      </trkpt>
      <trkpt lat="42.212093" lon="2.665958">
        <ele>197</ele>
        <time>2019-08-19T04:02:34Z</time>
      </trkpt>
      <trkpt lat="42.212118" lon="2.6659">
        <ele>197</ele>
        <time>2019-08-19T04:02:35Z</time>
      </trkpt>
      <trkpt lat="42.212144" lon="2.665841">
        <ele>197</ele>
        <time>2019-08-19T04:02:36Z</time>
      </trkpt>
      <trkpt lat="42.21217" lon="2.665782">
        <ele>197</ele>
        <time>2019-08-19T04:02:37Z</time>
      </trkpt>
      <trkpt lat="42.212196" lon="2.665724">
        <ele>197</ele>
        <time>2019-08-19T04:02:38Z</time>
      </trkpt>
      <trkpt lat="42.212222" lon="2.665665">
        <ele>197</ele>
        <time>2019-08-19T04:02:39Z</time>
      </trkpt>
      <trkpt lat="42.212281" lon="2.665541">
        <ele>197</ele>
        <time>2019-08-19T04:02:40Z</time>
      </trkpt>
      <trkpt lat="42.212324" lon="2.665453">
        <ele>197</ele>
        <time>2019-08-19T04:02:41Z</time>
      </trkpt>
      <trkpt lat="42.212367" lon="2.665365">
        <ele>197</ele>
        <time>2019-08-19T04:02:42Z</time>
      </trkpt>
      <trkpt lat="42.21241" lon="2.665278">
        <ele>197</ele>
        <time>2019-08-19T04:02:44Z</time>
      </trkpt>
      <trkpt lat="42.212453" lon="2.66519">
        <ele>197</ele>
        <time>2019-08-19T04:02:45Z</time>
      </trkpt>
      <trkpt lat="42.212496" lon="2.665102">
        <ele>197</ele>
        <time>2019-08-19T04:02:46Z</time>
      </trkpt>
      <trkpt lat="42.212539" lon="2.665014">
        <ele>197</ele>
        <time>2019-08-19T04:02:48Z</time>
      </trkpt>
      <trkpt lat="42.212582" lon="2.664926">
        <ele>197</ele>
        <time>2019-08-19T04:02:49Z</time>
      </trkpt>
      <trkpt lat="42.212769" lon="2.664659">
        <ele>197</ele>
        <time>2019-08-19T04:02:51Z</time>
      </trkpt>
      <trkpt lat="42.21284" lon="2.664582">
        <ele>197</ele>
        <time>2019-08-19T04:02:53Z</time>
      </trkpt>
      <trkpt lat="42.212911" lon="2.664504">
        <ele>197</ele>
        <time>2019-08-19T04:02:55Z</time>
      </trkpt>
      <trkpt lat="42.212982" lon="2.664426">
        <ele>197</ele>
        <time>2019-08-19T04:02:56Z</time>
      </trkpt>
      <trkpt lat="42.213053" lon="2.664349">
        <ele>197</ele>
        <time>2019-08-19T04:02:57Z</time>
      </trkpt>
      <trkpt lat="42.213124" lon="2.664271">
        <ele>197</ele>
        <time>2019-08-19T04:02:59Z</time>
      </trkpt>
      <trkpt lat="42.213326" lon="2.664126">
        <ele>197</ele>
        <time>2019-08-19T04:03:01Z</time>
      </trkpt>
      <trkpt lat="42.213408" lon="2.664078">
        <ele>197</ele>
        <time>2019-08-19T04:03:03Z</time>
      </trkpt>
      <trkpt lat="42.21349" lon="2.664031">
        <ele>197</ele>
        <time>2019-08-19T04:03:04Z</time>
      </trkpt>
      <trkpt lat="42.213572" lon="2.663983">
        <ele>197</ele>
        <time>2019-08-19T04:03:05Z</time>
      </trkpt>
      <trkpt lat="42.213654" lon="2.663936">
        <ele>197</ele>
        <time>2019-08-19T04:03:07Z</time>
      </trkpt>
      <trkpt lat="42.213736" lon="2.663888">
        <ele>197</ele>
        <time>2019-08-19T04:03:08Z</time>
      </trkpt>
      <trkpt lat="42.213818" lon="2.663841">
        <ele>196</ele>
        <time>2019-08-19T04:03:09Z</time>
      </trkpt>
      <trkpt lat="42.213986" lon="2.66375">
        <ele>196</ele>
        <time>2019-08-19T04:03:10Z</time>
      </trkpt>
      <trkpt lat="42.214077" lon="2.663701">
        <ele>196</ele>
        <time>2019-08-19T04:03:11Z</time>
      </trkpt>
      <trkpt lat="42.214168" lon="2.663652">
        <ele>196</ele>
        <time>2019-08-19T04:03:13Z</time>
      </trkpt>
      <trkpt lat="42.214259" lon="2.663604">
        <ele>196</ele>
        <time>2019-08-19T04:03:15Z</time>
      </trkpt>
      <trkpt lat="42.21435" lon="2.663555">
        <ele>196</ele>
        <time>2019-08-19T04:03:16Z</time>
      </trkpt>
      <trkpt lat="42.214441" lon="2.663506">
        <ele>196</ele>
        <time>2019-08-19T04:03:17Z</time>
      </trkpt>
      <trkpt lat="42.214532" lon="2.663457">
        <ele>196</ele>
        <time>2019-08-19T04:03:18Z</time>
      </trkpt>
      <trkpt lat="42.214623" lon="2.663408">
        <ele>194</ele>
        <time>2019-08-19T04:03:19Z</time>
      </trkpt>
      <trkpt lat="42.21475" lon="2.66327">
        <ele>194</ele>
        <time>2019-08-19T04:03:20Z</time>
      </trkpt>
      <trkpt lat="42.214796" lon="2.663182">
        <ele>194</ele>
        <time>2019-08-19T04:03:22Z</time>
      </trkpt>
      <trkpt lat="42.214842" lon="2.663094">
        <ele>194</ele>
        <time>2019-08-19T04:03:23Z</time>
      </trkpt>
      <trkpt lat="42.214888" lon="2.663006">
        <ele>194</ele>
        <time>2019-08-19T04:03:24Z</time>
      </trkpt>
      <trkpt lat="42.214934" lon="2.662917">
        <ele>194</ele>
        <time>2019-08-19T04:03:25Z</time>
      </trkpt>
      <trkpt lat="42.21498" lon="2.662829">
        <ele>194</ele>
        <time>2019-08-19T04:03:26Z</time>
      </trkpt>
      <trkpt lat="42.215026" lon="2.662741">
        <ele>194</ele>
        <time>2019-08-19T04:03:28Z</time>
      </trkpt>
      <trkpt lat="42.215072" lon="2.662653">
        <ele>190</ele>
        <time>2019-08-19T04:03:29Z</time>
      </trkpt>
      <trkpt lat="42.215109" lon="2.662465">
        <ele>190</ele>
        <time>2019-08-19T04:03:30Z</time>
      </trkpt>
      <trkpt lat="42.215125" lon="2.662377">
        <ele>190</ele>
        <time>2019-08-19T04:03:31Z</time>
      </trkpt>
      <trkpt lat="42.21514" lon="2.662288">
        <ele>190</ele>
        <time>2019-08-19T04:03:32Z</time>
      </trkpt>
      <trkpt lat="42.215156" lon="2.6622">
        <ele>190</ele>
        <time>2019-08-19T04:03:33Z</time>
      </trkpt>
      <trkpt lat="42.215171" lon="2.662112">
        <ele>190</ele>
        <time>2019-08-19T04:03:34Z</time>
      </trkpt>
      <trkpt lat="42.215187" lon="2.662024">
        <ele>190</ele>
        <time>2019-08-19T04:03:35Z</time>
      </trkpt>
      <trkpt lat="42.215202" lon="2.661936">
        <ele>190</ele>
        <time>2019-08-19T04:03:36Z</time>
      </trkpt>
      <trkpt lat="42.215218" lon="2.661848">
        <ele>190</ele>
        <time>2019-08-19T04:03:37Z</time>
      </trkpt>
      <trkpt lat="42.215233" lon="2.661759">
        <ele>190</ele>
        <time>2019-08-19T04:03:38Z</time>
      </trkpt>
      <trkpt lat="42.215249" lon="2.661671">
        <ele>190</ele>
        <time>2019-08-19T04:03:39Z</time>
      </trkpt>
      <trkpt lat="42.215264" lon="2.661583">
        <ele>191</ele>
        <time>2019-08-19T04:03:40Z</time>
      </trkpt>
      <trkpt lat="42.21523" lon="2.661399">
        <ele>191</ele>
        <time>2019-08-19T04:03:41Z</time>
      </trkpt>
      <trkpt lat="42.2152" lon="2.661311">
        <ele>191</ele>
        <time>2019-08-19T04:03:42Z</time>
      </trkpt>
      <trkpt lat="42.21517" lon="2.661223">
        <ele>191</ele>
        <time>2019-08-19T04:03:43Z</time>
      </trkpt>
      <trkpt lat="42.21514" lon="2.661135">
        <ele>191</ele>
        <time>2019-08-19T04:03:44Z</time>
      </trkpt>
      <trkpt lat="42.215111" lon="2.661048">
        <ele>191</ele>
        <time>2019-08-19T04:03:45Z</time>
      </trkpt>
      <trkpt lat="42.215081" lon="2.66096">
        <ele>191</ele>
        <time>2019-08-19T04:03:46Z</time>
      </trkpt>
      <trkpt lat="42.215051" lon="2.660872">
        <ele>191</ele>
        <time>2019-08-19T04:03:47Z</time>
      </trkpt>
      <trkpt lat="42.215021" lon="2.660784">
        <ele>191</ele>
        <time>2019-08-19T04:03:48Z</time>
      </trkpt>
      <trkpt lat="42.214991" lon="2.660696">
        <ele>190</ele>
        <time>2019-08-19T04:03:49Z</time>
      </trkpt>
      <trkpt lat="42.214933" lon="2.660528">
        <ele>190</ele>
        <time>2019-08-19T04:03:50Z</time>
      </trkpt>
      <trkpt lat="42.214909" lon="2.660444">
        <ele>190</ele>
        <time>2019-08-19T04:03:51Z</time>
      </trkpt>
      <trkpt lat="42.214886" lon="2.660359">
        <ele>190</ele>
        <time>2019-08-19T04:03:52Z</time>
      </trkpt>
      <trkpt lat="42.214862" lon="2.660275">
        <ele>190</ele>
        <time>2019-08-19T04:03:54Z</time>
      </trkpt>
      <trkpt lat="42.214839" lon="2.66019">
        <ele>190</ele>
        <time>2019-08-19T04:03:55Z</time>
      </trkpt>
      <trkpt lat="42.214815" lon="2.660106">
        <ele>190</ele>
        <time>2019-08-19T04:03:56Z</time>
      </trkpt>
      <trkpt lat="42.214792" lon="2.660021">
        <ele>190</ele>
        <time>2019-08-19T04:03:57Z</time>
      </trkpt>
      <trkpt lat="42.214768" lon="2.659937">
        <ele>190</ele>
        <time>2019-08-19T04:03:58Z</time>
      </trkpt>
      <trkpt lat="42.214745" lon="2.659852">
        <ele>191</ele>
        <time>2019-08-19T04:03:59Z</time>
      </trkpt>
      <trkpt lat="42.214748" lon="2.659668">
        <ele>191</ele>
        <time>2019-08-19T04:04:00Z</time>
      </trkpt>
      <trkpt lat="42.214762" lon="2.65957">
        <ele>191</ele>
        <time>2019-08-19T04:04:02Z</time>
      </trkpt>
      <trkpt lat="42.214775" lon="2.659472">
        <ele>191</ele>
        <time>2019-08-19T04:04:03Z</time>
      </trkpt>
      <trkpt lat="42.214789" lon="2.659374">
        <ele>191</ele>
        <time>2019-08-19T04:04:04Z</time>
      </trkpt>
      <trkpt lat="42.214802" lon="2.659275">
        <ele>191</ele>
        <time>2019-08-19T04:04:05Z</time>
      </trkpt>
      <trkpt lat="42.214815" lon="2.659177">
        <ele>191</ele>
        <time>2019-08-19T04:04:06Z</time>
      </trkpt>
      <trkpt lat="42.214829" lon="2.659079">
        <ele>191</ele>
        <time>2019-08-19T04:04:07Z</time>
      </trkpt>
      <trkpt lat="42.214842" lon="2.658981">
        <ele>193</ele>
        <time>2019-08-19T04:04:09Z</time>
      </trkpt>
      <trkpt lat="42.214902" lon="2.658793">
        <ele>193</ele>
        <time>2019-08-19T04:04:10Z</time>
      </trkpt>
      <trkpt lat="42.214937" lon="2.658692">
        <ele>193</ele>
        <time>2019-08-19T04:04:11Z</time>
      </trkpt>
      <trkpt lat="42.214972" lon="2.658592">
        <ele>193</ele>
        <time>2019-08-19T04:04:12Z</time>
      </trkpt>
      <trkpt lat="42.215007" lon="2.658492">
        <ele>193</ele>
        <time>2019-08-19T04:04:13Z</time>
      </trkpt>
      <trkpt lat="42.215043" lon="2.658391">
        <ele>193</ele>
        <time>2019-08-19T04:04:14Z</time>
      </trkpt>
      <trkpt lat="42.215078" lon="2.658291">
        <ele>193</ele>
        <time>2019-08-19T04:04:16Z</time>
      </trkpt>
      <trkpt lat="42.215113" lon="2.658191">
        <ele>193</ele>
        <time>2019-08-19T04:04:17Z</time>
      </trkpt>
      <trkpt lat="42.215148" lon="2.65809">
        <ele>193</ele>
        <time>2019-08-19T04:04:18Z</time>
      </trkpt>
      <trkpt lat="42.215183" lon="2.65799">
        <ele>193</ele>
        <time>2019-08-19T04:04:19Z</time>
      </trkpt>
      <trkpt lat="42.21524" lon="2.657832">
        <ele>193</ele>
        <time>2019-08-19T04:04:21Z</time>
      </trkpt>
      <trkpt lat="42.215325" lon="2.657596">
        <ele>193</ele>
        <time>2019-08-19T04:04:22Z</time>
      </trkpt>
      <trkpt lat="42.215366" lon="2.65748">
        <ele>193</ele>
        <time>2019-08-19T04:04:23Z</time>
      </trkpt>
      <trkpt lat="42.215408" lon="2.657363">
        <ele>193</ele>
        <time>2019-08-19T04:04:24Z</time>
      </trkpt>
      <trkpt lat="42.215451" lon="2.657247">
        <ele>193</ele>
        <time>2019-08-19T04:04:25Z</time>
      </trkpt>
      <trkpt lat="42.215537" lon="2.657014">
        <ele>193</ele>
        <time>2019-08-19T04:04:27Z</time>
      </trkpt>
      <trkpt lat="42.215581" lon="2.656897">
        <ele>193</ele>
        <time>2019-08-19T04:04:28Z</time>
      </trkpt>
      <trkpt lat="42.215623" lon="2.65678">
        <ele>188</ele>
        <time>2019-08-19T04:04:29Z</time>
      </trkpt>
      <trkpt lat="42.215665" lon="2.656662">
        <ele>188</ele>
        <time>2019-08-19T04:04:30Z</time>
      </trkpt>
      <trkpt lat="42.215747" lon="2.656424">
        <ele>188</ele>
        <time>2019-08-19T04:04:32Z</time>
      </trkpt>
      <trkpt lat="42.215787" lon="2.656304">
        <ele>188</ele>
        <time>2019-08-19T04:04:33Z</time>
      </trkpt>
      <trkpt lat="42.215827" lon="2.656184">
        <ele>188</ele>
        <time>2019-08-19T04:04:34Z</time>
      </trkpt>
      <trkpt lat="42.215868" lon="2.656066">
        <ele>188</ele>
        <time>2019-08-19T04:04:35Z</time>
      </trkpt>
      <trkpt lat="42.215909" lon="2.655947">
        <ele>188</ele>
        <time>2019-08-19T04:04:36Z</time>
      </trkpt>
      <trkpt lat="42.215948" lon="2.655825">
        <ele>188</ele>
        <time>2019-08-19T04:04:37Z</time>
      </trkpt>
      <trkpt lat="42.215988" lon="2.655704">
        <ele>188</ele>
        <time>2019-08-19T04:04:38Z</time>
      </trkpt>
      <trkpt lat="42.216028" lon="2.655583">
        <ele>185</ele>
        <time>2019-08-19T04:04:39Z</time>
      </trkpt>
      <trkpt lat="42.216067" lon="2.655461">
        <ele>185</ele>
        <time>2019-08-19T04:04:40Z</time>
      </trkpt>
      <trkpt lat="42.216106" lon="2.655339">
        <ele>185</ele>
        <time>2019-08-19T04:04:41Z</time>
      </trkpt>
      <trkpt lat="42.216145" lon="2.65522">
        <ele>185</ele>
        <time>2019-08-19T04:04:42Z</time>
      </trkpt>
      <trkpt lat="42.216184" lon="2.655099">
        <ele>185</ele>
        <time>2019-08-19T04:04:43Z</time>
      </trkpt>
      <trkpt lat="42.21622" lon="2.654977">
        <ele>185</ele>
        <time>2019-08-19T04:04:44Z</time>
      </trkpt>
      <trkpt lat="42.216253" lon="2.654855">
        <ele>185</ele>
        <time>2019-08-19T04:04:45Z</time>
      </trkpt>
      <trkpt lat="42.216286" lon="2.654732">
        <ele>185</ele>
        <time>2019-08-19T04:04:46Z</time>
      </trkpt>
      <trkpt lat="42.216314" lon="2.654608">
        <ele>185</ele>
        <time>2019-08-19T04:04:47Z</time>
      </trkpt>
      <trkpt lat="42.216337" lon="2.654484">
        <ele>185</ele>
        <time>2019-08-19T04:04:48Z</time>
      </trkpt>
      <trkpt lat="42.216351" lon="2.654357">
        <ele>182</ele>
        <time>2019-08-19T04:04:49Z</time>
      </trkpt>
      <trkpt lat="42.216386" lon="2.654001">
        <ele>182</ele>
        <time>2019-08-19T04:04:51Z</time>
      </trkpt>
      <trkpt lat="42.216393" lon="2.653898">
        <ele>182</ele>
        <time>2019-08-19T04:04:52Z</time>
      </trkpt>
      <trkpt lat="42.216401" lon="2.653795">
        <ele>182</ele>
        <time>2019-08-19T04:04:54Z</time>
      </trkpt>
      <trkpt lat="42.216408" lon="2.653692">
        <ele>182</ele>
        <time>2019-08-19T04:04:55Z</time>
      </trkpt>
      <trkpt lat="42.216416" lon="2.653589">
        <ele>182</ele>
        <time>2019-08-19T04:04:56Z</time>
      </trkpt>
      <trkpt lat="42.216423" lon="2.653486">
        <ele>182</ele>
        <time>2019-08-19T04:04:57Z</time>
      </trkpt>
      <trkpt lat="42.216431" lon="2.653383">
        <ele>182</ele>
        <time>2019-08-19T04:04:58Z</time>
      </trkpt>
      <trkpt lat="42.216438" lon="2.65328">
        <ele>179</ele>
        <time>2019-08-19T04:04:59Z</time>
      </trkpt>
      <trkpt lat="42.216381" lon="2.653083">
        <ele>179</ele>
        <time>2019-08-19T04:05:00Z</time>
      </trkpt>
      <trkpt lat="42.216333" lon="2.652993">
        <ele>179</ele>
        <time>2019-08-19T04:05:01Z</time>
      </trkpt>
      <trkpt lat="42.216286" lon="2.652903">
        <ele>179</ele>
        <time>2019-08-19T04:05:02Z</time>
      </trkpt>
      <trkpt lat="42.216238" lon="2.652813">
        <ele>179</ele>
        <time>2019-08-19T04:05:03Z</time>
      </trkpt>
      <trkpt lat="42.216191" lon="2.652723">
        <ele>179</ele>
        <time>2019-08-19T04:05:04Z</time>
      </trkpt>
      <trkpt lat="42.216143" lon="2.652633">
        <ele>179</ele>
        <time>2019-08-19T04:05:06Z</time>
      </trkpt>
      <trkpt lat="42.216096" lon="2.652543">
        <ele>179</ele>
        <time>2019-08-19T04:05:08Z</time>
      </trkpt>
      <trkpt lat="42.216048" lon="2.652453">
        <ele>179</ele>
        <time>2019-08-19T04:05:09Z</time>
      </trkpt>
      <trkpt lat="42.215944" lon="2.652207">
        <ele>179</ele>
        <time>2019-08-19T04:05:11Z</time>
      </trkpt>
      <trkpt lat="42.215908" lon="2.65212">
        <ele>179</ele>
        <time>2019-08-19T04:05:12Z</time>
      </trkpt>
      <trkpt lat="42.215871" lon="2.652032">
        <ele>179</ele>
        <time>2019-08-19T04:05:13Z</time>
      </trkpt>
      <trkpt lat="42.215835" lon="2.651944">
        <ele>179</ele>
        <time>2019-08-19T04:05:14Z</time>
      </trkpt>
      <trkpt lat="42.215798" lon="2.651856">
        <ele>179</ele>
        <time>2019-08-19T04:05:16Z</time>
      </trkpt>
      <trkpt lat="42.215762" lon="2.651769">
        <ele>179</ele>
        <time>2019-08-19T04:05:18Z</time>
      </trkpt>
      <trkpt lat="42.215725" lon="2.651681">
        <ele>179</ele>
        <time>2019-08-19T04:05:19Z</time>
      </trkpt>
      <trkpt lat="42.215665" lon="2.65148">
        <ele>179</ele>
        <time>2019-08-19T04:05:20Z</time>
      </trkpt>
      <trkpt lat="42.215647" lon="2.65139">
        <ele>179</ele>
        <time>2019-08-19T04:05:22Z</time>
      </trkpt>
      <trkpt lat="42.215628" lon="2.6513">
        <ele>179</ele>
        <time>2019-08-19T04:05:23Z</time>
      </trkpt>
      <trkpt lat="42.215609" lon="2.65121">
        <ele>179</ele>
        <time>2019-08-19T04:05:25Z</time>
      </trkpt>
      <trkpt lat="42.21559" lon="2.65112">
        <ele>179</ele>
        <time>2019-08-19T04:05:27Z</time>
      </trkpt>
      <trkpt lat="42.215572" lon="2.65103">
        <ele>179</ele>
        <time>2019-08-19T04:05:28Z</time>
      </trkpt>
      <trkpt lat="42.215553" lon="2.65094">
        <ele>179</ele>
        <time>2019-08-19T04:05:29Z</time>
      </trkpt>
      <trkpt lat="42.21555" lon="2.650815">
        <ele>179</ele>
        <time>2019-08-19T04:05:30Z</time>
      </trkpt>
      <trkpt lat="42.21555" lon="2.650728">
        <ele>179</ele>
        <time>2019-08-19T04:05:31Z</time>
      </trkpt>
      <trkpt lat="42.215551" lon="2.65064">
        <ele>179</ele>
        <time>2019-08-19T04:05:32Z</time>
      </trkpt>
      <trkpt lat="42.215552" lon="2.650553">
        <ele>179</ele>
        <time>2019-08-19T04:05:33Z</time>
      </trkpt>
      <trkpt lat="42.215552" lon="2.650466">
        <ele>179</ele>
        <time>2019-08-19T04:05:35Z</time>
      </trkpt>
      <trkpt lat="42.215553" lon="2.650379">
        <ele>179</ele>
        <time>2019-08-19T04:05:36Z</time>
      </trkpt>
      <trkpt lat="42.215554" lon="2.650291">
        <ele>179</ele>
        <time>2019-08-19T04:05:37Z</time>
      </trkpt>
      <trkpt lat="42.215554" lon="2.650204">
        <ele>179</ele>
        <time>2019-08-19T04:05:38Z</time>
      </trkpt>
      <trkpt lat="42.215555" lon="2.650117">
        <ele>180</ele>
        <time>2019-08-19T04:05:39Z</time>
      </trkpt>
      <trkpt lat="42.215563" lon="2.649968">
        <ele>180</ele>
        <time>2019-08-19T04:05:40Z</time>
      </trkpt>
      <trkpt lat="42.215567" lon="2.649899">
        <ele>180</ele>
        <time>2019-08-19T04:05:41Z</time>
      </trkpt>
      <trkpt lat="42.215571" lon="2.649829">
        <ele>180</ele>
        <time>2019-08-19T04:05:42Z</time>
      </trkpt>
      <trkpt lat="42.215575" lon="2.649759">
        <ele>180</ele>
        <time>2019-08-19T04:05:43Z</time>
      </trkpt>
      <trkpt lat="42.21558" lon="2.64969">
        <ele>180</ele>
        <time>2019-08-19T04:05:44Z</time>
      </trkpt>
      <trkpt lat="42.215584" lon="2.64962">
        <ele>180</ele>
        <time>2019-08-19T04:05:46Z</time>
      </trkpt>
      <trkpt lat="42.215588" lon="2.64955">
        <ele>180</ele>
        <time>2019-08-19T04:05:47Z</time>
      </trkpt>
      <trkpt lat="42.215592" lon="2.649481">
        <ele>180</ele>
        <time>2019-08-19T04:05:48Z</time>
      </trkpt>
      <trkpt lat="42.215596" lon="2.649411">
        <ele>180</ele>
        <time>2019-08-19T04:05:49Z</time>
      </trkpt>
      <trkpt lat="42.215617" lon="2.64925">
        <ele>180</ele>
        <time>2019-08-19T04:05:50Z</time>
      </trkpt>
      <trkpt lat="42.215633" lon="2.649168">
        <ele>180</ele>
        <time>2019-08-19T04:05:51Z</time>
      </trkpt>
      <trkpt lat="42.21565" lon="2.649085">
        <ele>180</ele>
        <time>2019-08-19T04:05:52Z</time>
      </trkpt>
      <trkpt lat="42.215666" lon="2.649002">
        <ele>180</ele>
        <time>2019-08-19T04:05:53Z</time>
      </trkpt>
      <trkpt lat="42.215683" lon="2.64892">
        <ele>180</ele>
        <time>2019-08-19T04:05:54Z</time>
      </trkpt>
      <trkpt lat="42.215699" lon="2.648837">
        <ele>180</ele>
        <time>2019-08-19T04:05:56Z</time>
      </trkpt>
      <trkpt lat="42.215716" lon="2.648754">
        <ele>180</ele>
        <time>2019-08-19T04:05:57Z</time>
      </trkpt>
      <trkpt lat="42.215732" lon="2.648672">
        <ele>180</ele>
        <time>2019-08-19T04:05:58Z</time>
      </trkpt>
      <trkpt lat="42.215749" lon="2.648589">
        <ele>181</ele>
        <time>2019-08-19T04:05:59Z</time>
      </trkpt>
      <trkpt lat="42.215812" lon="2.648502">
        <ele>181</ele>
        <time>2019-08-19T04:06:00Z</time>
      </trkpt>
      <trkpt lat="42.215838" lon="2.648468">
        <ele>181</ele>
        <time>2019-08-19T04:06:01Z</time>
      </trkpt>
      <trkpt lat="42.215865" lon="2.648434">
        <ele>181</ele>
        <time>2019-08-19T04:06:02Z</time>
      </trkpt>
      <trkpt lat="42.215891" lon="2.6484">
        <ele>181</ele>
        <time>2019-08-19T04:06:04Z</time>
      </trkpt>
      <trkpt lat="42.215918" lon="2.648365">
        <ele>181</ele>
        <time>2019-08-19T04:06:05Z</time>
      </trkpt>
      <trkpt lat="42.215944" lon="2.648331">
        <ele>181</ele>
        <time>2019-08-19T04:06:07Z</time>
      </trkpt>
      <trkpt lat="42.215971" lon="2.648297">
        <ele>181</ele>
        <time>2019-08-19T04:06:08Z</time>
      </trkpt>
      <trkpt lat="42.215997" lon="2.648263">
        <ele>183</ele>
        <time>2019-08-19T04:06:09Z</time>
      </trkpt>
      <trkpt lat="42.21602" lon="2.64821">
        <ele>183</ele>
        <time>2019-08-19T04:06:10Z</time>
      </trkpt>
      <trkpt lat="42.216035" lon="2.64817">
        <ele>183</ele>
        <time>2019-08-19T04:06:11Z</time>
      </trkpt>
      <trkpt lat="42.21605" lon="2.648131">
        <ele>183</ele>
        <time>2019-08-19T04:06:13Z</time>
      </trkpt>
      <trkpt lat="42.216065" lon="2.648091">
        <ele>183</ele>
        <time>2019-08-19T04:06:14Z</time>
      </trkpt>
      <trkpt lat="42.21608" lon="2.648052">
        <ele>183</ele>
        <time>2019-08-19T04:06:15Z</time>
      </trkpt>
      <trkpt lat="42.216095" lon="2.648012">
        <ele>183</ele>
        <time>2019-08-19T04:06:17Z</time>
      </trkpt>
      <trkpt lat="42.21611" lon="2.647973">
        <ele>183</ele>
        <time>2019-08-19T04:06:18Z</time>
      </trkpt>
      <trkpt lat="42.216125" lon="2.647933">
        <ele>184</ele>
        <time>2019-08-19T04:06:19Z</time>
      </trkpt>
      <trkpt lat="42.216122" lon="2.647877">
        <ele>184</ele>
        <time>2019-08-19T04:06:20Z</time>
      </trkpt>
      <trkpt lat="42.216116" lon="2.647839">
        <ele>184</ele>
        <time>2019-08-19T04:06:21Z</time>
      </trkpt>
      <trkpt lat="42.216111" lon="2.647802">
        <ele>184</ele>
        <time>2019-08-19T04:06:22Z</time>
      </trkpt>
      <trkpt lat="42.216106" lon="2.647764">
        <ele>184</ele>
        <time>2019-08-19T04:06:23Z</time>
      </trkpt>
      <trkpt lat="42.216101" lon="2.647727">
        <ele>184</ele>
        <time>2019-08-19T04:06:24Z</time>
      </trkpt>
      <trkpt lat="42.216095" lon="2.64769">
        <ele>184</ele>
        <time>2019-08-19T04:06:25Z</time>
      </trkpt>
      <trkpt lat="42.21609" lon="2.647652">
        <ele>184</ele>
        <time>2019-08-19T04:06:26Z</time>
      </trkpt>
      <trkpt lat="42.216085" lon="2.647615">
        <ele>184</ele>
        <time>2019-08-19T04:06:27Z</time>
      </trkpt>
      <trkpt lat="42.216079" lon="2.647577">
        <ele>184</ele>
        <time>2019-08-19T04:06:28Z</time>
      </trkpt>
      <trkpt lat="42.216074" lon="2.64754">
        <ele>186</ele>
        <time>2019-08-19T04:06:29Z</time>
      </trkpt>
      <trkpt lat="42.216034" lon="2.647436">
        <ele>186</ele>
        <time>2019-08-19T04:06:30Z</time>
      </trkpt>
      <trkpt lat="42.216013" lon="2.647393">
        <ele>186</ele>
        <time>2019-08-19T04:06:31Z</time>
      </trkpt>
      <trkpt lat="42.215993" lon="2.647351">
        <ele>186</ele>
        <time>2019-08-19T04:06:32Z</time>
      </trkpt>
      <trkpt lat="42.215973" lon="2.647308">
        <ele>186</ele>
        <time>2019-08-19T04:06:34Z</time>
      </trkpt>
      <trkpt lat="42.215952" lon="2.647265">
        <ele>186</ele>
        <time>2019-08-19T04:06:35Z</time>
      </trkpt>
      <trkpt lat="42.215932" lon="2.647222">
        <ele>186</ele>
        <time>2019-08-19T04:06:36Z</time>
      </trkpt>
      <trkpt lat="42.215911" lon="2.64718">
        <ele>186</ele>
        <time>2019-08-19T04:06:37Z</time>
      </trkpt>
      <trkpt lat="42.215891" lon="2.647137">
        <ele>187</ele>
        <time>2019-08-19T04:06:39Z</time>
      </trkpt>
      <trkpt lat="42.215851" lon="2.647052">
        <ele>187</ele>
        <time>2019-08-19T04:06:41Z</time>
      </trkpt>
      <trkpt lat="42.215831" lon="2.647007">
        <ele>187</ele>
        <time>2019-08-19T04:06:42Z</time>
      </trkpt>
      <trkpt lat="42.21581" lon="2.646962">
        <ele>187</ele>
        <time>2019-08-19T04:06:43Z</time>
      </trkpt>
      <trkpt lat="42.21579" lon="2.646916">
        <ele>187</ele>
        <time>2019-08-19T04:06:45Z</time>
      </trkpt>
      <trkpt lat="42.21577" lon="2.646871">
        <ele>187</ele>
        <time>2019-08-19T04:06:46Z</time>
      </trkpt>
      <trkpt lat="42.21575" lon="2.646826">
        <ele>187</ele>
        <time>2019-08-19T04:06:47Z</time>
      </trkpt>
      <trkpt lat="42.215729" lon="2.646781">
        <ele>187</ele>
        <time>2019-08-19T04:06:48Z</time>
      </trkpt>
      <trkpt lat="42.215709" lon="2.646736">
        <ele>189</ele>
        <time>2019-08-19T04:06:49Z</time>
      </trkpt>
      <trkpt lat="42.215695" lon="2.646585">
        <ele>189</ele>
        <time>2019-08-19T04:06:50Z</time>
      </trkpt>
      <trkpt lat="42.215696" lon="2.646508">
        <ele>189</ele>
        <time>2019-08-19T04:06:52Z</time>
      </trkpt>
      <trkpt lat="42.215698" lon="2.646431">
        <ele>189</ele>
        <time>2019-08-19T04:06:53Z</time>
      </trkpt>
      <trkpt lat="42.2157" lon="2.646354">
        <ele>189</ele>
        <time>2019-08-19T04:06:54Z</time>
      </trkpt>
      <trkpt lat="42.215701" lon="2.646276">
        <ele>189</ele>
        <time>2019-08-19T04:06:55Z</time>
      </trkpt>
      <trkpt lat="42.215703" lon="2.646199">
        <ele>189</ele>
        <time>2019-08-19T04:06:56Z</time>
      </trkpt>
      <trkpt lat="42.215704" lon="2.646122">
        <ele>189</ele>
        <time>2019-08-19T04:06:58Z</time>
      </trkpt>
      <trkpt lat="42.215706" lon="2.646045">
        <ele>189</ele>
        <time>2019-08-19T04:07:00Z</time>
      </trkpt>
      <trkpt lat="42.215725" lon="2.645916">
        <ele>189</ele>
        <time>2019-08-19T04:07:01Z</time>
      </trkpt>
      <trkpt lat="42.215737" lon="2.645856">
        <ele>189</ele>
        <time>2019-08-19T04:07:02Z</time>
      </trkpt>
      <trkpt lat="42.215748" lon="2.645795">
        <ele>189</ele>
        <time>2019-08-19T04:07:03Z</time>
      </trkpt>
      <trkpt lat="42.21576" lon="2.645735">
        <ele>189</ele>
        <time>2019-08-19T04:07:04Z</time>
      </trkpt>
      <trkpt lat="42.215772" lon="2.645674">
        <ele>189</ele>
        <time>2019-08-19T04:07:05Z</time>
      </trkpt>
      <trkpt lat="42.215784" lon="2.645614">
        <ele>189</ele>
        <time>2019-08-19T04:07:06Z</time>
      </trkpt>
      <trkpt lat="42.215795" lon="2.645553">
        <ele>189</ele>
        <time>2019-08-19T04:07:07Z</time>
      </trkpt>
      <trkpt lat="42.215807" lon="2.645493">
        <ele>189</ele>
        <time>2019-08-19T04:07:08Z</time>
      </trkpt>
      <trkpt lat="42.215819" lon="2.645432">
        <ele>189</ele>
        <time>2019-08-19T04:07:09Z</time>
      </trkpt>
      <trkpt lat="42.215834" lon="2.645313">
        <ele>189</ele>
        <time>2019-08-19T04:07:10Z</time>
      </trkpt>
      <trkpt lat="42.215839" lon="2.645256">
        <ele>189</ele>
        <time>2019-08-19T04:07:12Z</time>
      </trkpt>
      <trkpt lat="42.215845" lon="2.645199">
        <ele>189</ele>
        <time>2019-08-19T04:07:13Z</time>
      </trkpt>
      <trkpt lat="42.21585" lon="2.645142">
        <ele>189</ele>
        <time>2019-08-19T04:07:14Z</time>
      </trkpt>
      <trkpt lat="42.215856" lon="2.645085">
        <ele>189</ele>
        <time>2019-08-19T04:07:15Z</time>
      </trkpt>
      <trkpt lat="42.215861" lon="2.645028">
        <ele>189</ele>
        <time>2019-08-19T04:07:16Z</time>
      </trkpt>
      <trkpt lat="42.215867" lon="2.644971">
        <ele>189</ele>
        <time>2019-08-19T04:07:17Z</time>
      </trkpt>
      <trkpt lat="42.215872" lon="2.644914">
        <ele>189</ele>
        <time>2019-08-19T04:07:18Z</time>
      </trkpt>
      <trkpt lat="42.215878" lon="2.644857">
        <ele>188</ele>
        <time>2019-08-19T04:07:19Z</time>
      </trkpt>
      <trkpt lat="42.215883" lon="2.644776">
        <ele>188</ele>
        <time>2019-08-19T04:07:20Z</time>
      </trkpt>
      <trkpt lat="42.215886" lon="2.644722">
        <ele>188</ele>
        <time>2019-08-19T04:07:21Z</time>
      </trkpt>
      <trkpt lat="42.215889" lon="2.644669">
        <ele>188</ele>
        <time>2019-08-19T04:07:22Z</time>
      </trkpt>
      <trkpt lat="42.215892" lon="2.644615">
        <ele>188</ele>
        <time>2019-08-19T04:07:23Z</time>
      </trkpt>
      <trkpt lat="42.215895" lon="2.644562">
        <ele>188</ele>
        <time>2019-08-19T04:07:24Z</time>
      </trkpt>
      <trkpt lat="42.215898" lon="2.644508">
        <ele>188</ele>
        <time>2019-08-19T04:07:25Z</time>
      </trkpt>
      <trkpt lat="42.215901" lon="2.644455">
        <ele>188</ele>
        <time>2019-08-19T04:07:26Z</time>
      </trkpt>
      <trkpt lat="42.215904" lon="2.644401">
        <ele>188</ele>
        <time>2019-08-19T04:07:27Z</time>
      </trkpt>
      <trkpt lat="42.215907" lon="2.644348">
        <ele>188</ele>
        <time>2019-08-19T04:07:28Z</time>
      </trkpt>
      <trkpt lat="42.21591" lon="2.644294">
        <ele>189</ele>
        <time>2019-08-19T04:07:29Z</time>
      </trkpt>
      <trkpt lat="42.215916" lon="2.64416">
        <ele>189</ele>
        <time>2019-08-19T04:07:30Z</time>
      </trkpt>
      <trkpt lat="42.21592" lon="2.64409">
        <ele>189</ele>
        <time>2019-08-19T04:07:31Z</time>
      </trkpt>
      <trkpt lat="42.215923" lon="2.644019">
        <ele>189</ele>
        <time>2019-08-19T04:07:32Z</time>
      </trkpt>
      <trkpt lat="42.215927" lon="2.643948">
        <ele>189</ele>
        <time>2019-08-19T04:07:34Z</time>
      </trkpt>
      <trkpt lat="42.215931" lon="2.643878">
        <ele>189</ele>
        <time>2019-08-19T04:07:35Z</time>
      </trkpt>
      <trkpt lat="42.215935" lon="2.643807">
        <ele>189</ele>
        <time>2019-08-19T04:07:36Z</time>
      </trkpt>
      <trkpt lat="42.215938" lon="2.643736">
        <ele>189</ele>
        <time>2019-08-19T04:07:37Z</time>
      </trkpt>
      <trkpt lat="42.215942" lon="2.643666">
        <ele>189</ele>
        <time>2019-08-19T04:07:38Z</time>
      </trkpt>
      <trkpt lat="42.215946" lon="2.643595">
        <ele>189</ele>
        <time>2019-08-19T04:07:39Z</time>
      </trkpt>
      <trkpt lat="42.215954" lon="2.64347">
        <ele>189</ele>
        <time>2019-08-19T04:07:40Z</time>
      </trkpt>
      <trkpt lat="42.215958" lon="2.64341">
        <ele>189</ele>
        <time>2019-08-19T04:07:41Z</time>
      </trkpt>
      <trkpt lat="42.215961" lon="2.64335">
        <ele>189</ele>
        <time>2019-08-19T04:07:43Z</time>
      </trkpt>
      <trkpt lat="42.215964" lon="2.64329">
        <ele>189</ele>
        <time>2019-08-19T04:07:44Z</time>
      </trkpt>
      <trkpt lat="42.215968" lon="2.643231">
        <ele>189</ele>
        <time>2019-08-19T04:07:45Z</time>
      </trkpt>
      <trkpt lat="42.215971" lon="2.643171">
        <ele>189</ele>
        <time>2019-08-19T04:07:46Z</time>
      </trkpt>
      <trkpt lat="42.215974" lon="2.643111">
        <ele>189</ele>
        <time>2019-08-19T04:07:47Z</time>
      </trkpt>
      <trkpt lat="42.215978" lon="2.643051">
        <ele>189</ele>
        <time>2019-08-19T04:07:48Z</time>
      </trkpt>
      <trkpt lat="42.215981" lon="2.642991">
        <ele>189</ele>
        <time>2019-08-19T04:07:49Z</time>
      </trkpt>
      <trkpt lat="42.215989" lon="2.642852">
        <ele>189</ele>
        <time>2019-08-19T04:07:50Z</time>
      </trkpt>
      <trkpt lat="42.215993" lon="2.642805">
        <ele>189</ele>
        <time>2019-08-19T04:07:51Z</time>
      </trkpt>
      <trkpt lat="42.215997" lon="2.642758">
        <ele>189</ele>
        <time>2019-08-19T04:07:52Z</time>
      </trkpt>
      <trkpt lat="42.216001" lon="2.642711">
        <ele>189</ele>
        <time>2019-08-19T04:07:53Z</time>
      </trkpt>
      <trkpt lat="42.216005" lon="2.642665">
        <ele>189</ele>
        <time>2019-08-19T04:07:54Z</time>
      </trkpt>
      <trkpt lat="42.216008" lon="2.642618">
        <ele>189</ele>
        <time>2019-08-19T04:07:55Z</time>
      </trkpt>
      <trkpt lat="42.216012" lon="2.642571">
        <ele>189</ele>
        <time>2019-08-19T04:07:56Z</time>
      </trkpt>
      <trkpt lat="42.216016" lon="2.642524">
        <ele>189</ele>
        <time>2019-08-19T04:07:57Z</time>
      </trkpt>
      <trkpt lat="42.21602" lon="2.642477">
        <ele>189</ele>
        <time>2019-08-19T04:07:58Z</time>
      </trkpt>
      <trkpt lat="42.216024" lon="2.64243">
        <ele>189</ele>
        <time>2019-08-19T04:07:59Z</time>
      </trkpt>
      <trkpt lat="42.216031" lon="2.642343">
        <ele>189</ele>
        <time>2019-08-19T04:08:00Z</time>
      </trkpt>
      <trkpt lat="42.216034" lon="2.642282">
        <ele>189</ele>
        <time>2019-08-19T04:08:01Z</time>
      </trkpt>
      <trkpt lat="42.216037" lon="2.642221">
        <ele>189</ele>
        <time>2019-08-19T04:08:02Z</time>
      </trkpt>
      <trkpt lat="42.21604" lon="2.64216">
        <ele>189</ele>
        <time>2019-08-19T04:08:03Z</time>
      </trkpt>
      <trkpt lat="42.216044" lon="2.642098">
        <ele>189</ele>
        <time>2019-08-19T04:08:04Z</time>
      </trkpt>
      <trkpt lat="42.216047" lon="2.642037">
        <ele>189</ele>
        <time>2019-08-19T04:08:05Z</time>
      </trkpt>
      <trkpt lat="42.21605" lon="2.641976">
        <ele>189</ele>
        <time>2019-08-19T04:08:06Z</time>
      </trkpt>
      <trkpt lat="42.216053" lon="2.641915">
        <ele>189</ele>
        <time>2019-08-19T04:08:07Z</time>
      </trkpt>
      <trkpt lat="42.216056" lon="2.641854">
        <ele>190</ele>
        <time>2019-08-19T04:08:09Z</time>
      </trkpt>
      <trkpt lat="42.21608" lon="2.641754">
        <ele>190</ele>
        <time>2019-08-19T04:08:10Z</time>
      </trkpt>
      <trkpt lat="42.216102" lon="2.641715">
        <ele>190</ele>
        <time>2019-08-19T04:08:11Z</time>
      </trkpt>
      <trkpt lat="42.216125" lon="2.641677">
        <ele>190</ele>
        <time>2019-08-19T04:08:13Z</time>
      </trkpt>
      <trkpt lat="42.216148" lon="2.641638">
        <ele>190</ele>
        <time>2019-08-19T04:08:14Z</time>
      </trkpt>
      <trkpt lat="42.21617" lon="2.6416">
        <ele>190</ele>
        <time>2019-08-19T04:08:16Z</time>
      </trkpt>
      <trkpt lat="42.216193" lon="2.641561">
        <ele>190</ele>
        <time>2019-08-19T04:08:17Z</time>
      </trkpt>
      <trkpt lat="42.216215" lon="2.641523">
        <ele>190</ele>
        <time>2019-08-19T04:08:18Z</time>
      </trkpt>
      <trkpt lat="42.216238" lon="2.641484">
        <ele>190</ele>
        <time>2019-08-19T04:08:19Z</time>
      </trkpt>
      <trkpt lat="42.216315" lon="2.641506">
        <ele>190</ele>
        <time>2019-08-19T04:08:21Z</time>
      </trkpt>
      <trkpt lat="42.216336" lon="2.641514">
        <ele>190</ele>
        <time>2019-08-19T04:08:22Z</time>
      </trkpt>
      <trkpt lat="42.216358" lon="2.641521">
        <ele>190</ele>
        <time>2019-08-19T04:08:23Z</time>
      </trkpt>
      <trkpt lat="42.216379" lon="2.641528">
        <ele>190</ele>
        <time>2019-08-19T04:08:24Z</time>
      </trkpt>
      <trkpt lat="42.216401" lon="2.641535">
        <ele>190</ele>
        <time>2019-08-19T04:08:26Z</time>
      </trkpt>
      <trkpt lat="42.216422" lon="2.641543">
        <ele>190</ele>
        <time>2019-08-19T04:08:28Z</time>
      </trkpt>
      <trkpt lat="42.216444" lon="2.64155">
        <ele>192</ele>
        <time>2019-08-19T04:08:29Z</time>
      </trkpt>
      <trkpt lat="42.216496" lon="2.64157">
        <ele>192</ele>
        <time>2019-08-19T04:08:30Z</time>
      </trkpt>
      <trkpt lat="42.216522" lon="2.641575">
        <ele>192</ele>
        <time>2019-08-19T04:08:32Z</time>
      </trkpt>
      <trkpt lat="42.216547" lon="2.64158">
        <ele>192</ele>
        <time>2019-08-19T04:08:34Z</time>
      </trkpt>
      <trkpt lat="42.216572" lon="2.641586">
        <ele>192</ele>
        <time>2019-08-19T04:08:36Z</time>
      </trkpt>
      <trkpt lat="42.216598" lon="2.641591">
        <ele>192</ele>
        <time>2019-08-19T04:08:38Z</time>
      </trkpt>
      <trkpt lat="42.216623" lon="2.641596">
        <ele>194</ele>
        <time>2019-08-19T04:08:39Z</time>
      </trkpt>
      <trkpt lat="42.216669" lon="2.641599">
        <ele>194</ele>
        <time>2019-08-19T04:08:40Z</time>
      </trkpt>
      <trkpt lat="42.216686" lon="2.6416">
        <ele>194</ele>
        <time>2019-08-19T04:08:41Z</time>
      </trkpt>
      <trkpt lat="42.216704" lon="2.6416">
        <ele>194</ele>
        <time>2019-08-19T04:08:42Z</time>
      </trkpt>
      <trkpt lat="42.216721" lon="2.6416">
        <ele>194</ele>
        <time>2019-08-19T04:08:43Z</time>
      </trkpt>
      <trkpt lat="42.216739" lon="2.641601">
        <ele>194</ele>
        <time>2019-08-19T04:08:44Z</time>
      </trkpt>
      <trkpt lat="42.216756" lon="2.641601">
        <ele>194</ele>
        <time>2019-08-19T04:08:45Z</time>
      </trkpt>
      <trkpt lat="42.216774" lon="2.641601">
        <ele>194</ele>
        <time>2019-08-19T04:08:47Z</time>
      </trkpt>
      <trkpt lat="42.216791" lon="2.641602">
        <ele>194</ele>
        <time>2019-08-19T04:08:48Z</time>
      </trkpt>
      <trkpt lat="42.216809" lon="2.641602">
        <ele>196</ele>
        <time>2019-08-19T04:08:49Z</time>
      </trkpt>
      <trkpt lat="42.216856" lon="2.641586">
        <ele>196</ele>
        <time>2019-08-19T04:08:51Z</time>
      </trkpt>
      <trkpt lat="42.216879" lon="2.641579">
        <ele>196</ele>
        <time>2019-08-19T04:08:52Z</time>
      </trkpt>
      <trkpt lat="42.216902" lon="2.641572">
        <ele>196</ele>
        <time>2019-08-19T04:08:53Z</time>
      </trkpt>
      <trkpt lat="42.216924" lon="2.641565">
        <ele>196</ele>
        <time>2019-08-19T04:08:54Z</time>
      </trkpt>
      <trkpt lat="42.216947" lon="2.641558">
        <ele>196</ele>
        <time>2019-08-19T04:08:55Z</time>
      </trkpt>
      <trkpt lat="42.21697" lon="2.641551">
        <ele>196</ele>
        <time>2019-08-19T04:08:57Z</time>
      </trkpt>
      <trkpt lat="42.216993" lon="2.641544">
        <ele>199</ele>
        <time>2019-08-19T04:08:59Z</time>
      </trkpt>
      <trkpt lat="42.217054" lon="2.641521">
        <ele>199</ele>
        <time>2019-08-19T04:09:01Z</time>
      </trkpt>
      <trkpt lat="42.217075" lon="2.641504">
        <ele>199</ele>
        <time>2019-08-19T04:09:03Z</time>
      </trkpt>
      <trkpt lat="42.217097" lon="2.641488">
        <ele>199</ele>
        <time>2019-08-19T04:09:04Z</time>
      </trkpt>
      <trkpt lat="42.217118" lon="2.641472">
        <ele>199</ele>
        <time>2019-08-19T04:09:06Z</time>
      </trkpt>
      <trkpt lat="42.217139" lon="2.641455">
        <ele>199</ele>
        <time>2019-08-19T04:09:07Z</time>
      </trkpt>
      <trkpt lat="42.21716" lon="2.641439">
        <ele>200</ele>
        <time>2019-08-19T04:09:09Z</time>
      </trkpt>
      <trkpt lat="42.217214" lon="2.641373">
        <ele>200</ele>
        <time>2019-08-19T04:09:10Z</time>
      </trkpt>
      <trkpt lat="42.217234" lon="2.641346">
        <ele>200</ele>
        <time>2019-08-19T04:09:12Z</time>
      </trkpt>
      <trkpt lat="42.217253" lon="2.641318">
        <ele>200</ele>
        <time>2019-08-19T04:09:13Z</time>
      </trkpt>
      <trkpt lat="42.217273" lon="2.641291">
        <ele>200</ele>
        <time>2019-08-19T04:09:15Z</time>
      </trkpt>
      <trkpt lat="42.217293" lon="2.641263">
        <ele>200</ele>
        <time>2019-08-19T04:09:16Z</time>
      </trkpt>
      <trkpt lat="42.217313" lon="2.641235">
        <ele>200</ele>
        <time>2019-08-19T04:09:17Z</time>
      </trkpt>
      <trkpt lat="42.217332" lon="2.641208">
        <ele>200</ele>
        <time>2019-08-19T04:09:18Z</time>
      </trkpt>
      <trkpt lat="42.217352" lon="2.64118">
        <ele>200</ele>
        <time>2019-08-19T04:09:19Z</time>
      </trkpt>
      <trkpt lat="42.217383" lon="2.641104">
        <ele>200</ele>
        <time>2019-08-19T04:09:20Z</time>
      </trkpt>
      <trkpt lat="42.217397" lon="2.641062">
        <ele>200</ele>
        <time>2019-08-19T04:09:21Z</time>
      </trkpt>
      <trkpt lat="42.217412" lon="2.64102">
        <ele>200</ele>
        <time>2019-08-19T04:09:22Z</time>
      </trkpt>
      <trkpt lat="42.217427" lon="2.640979">
        <ele>200</ele>
        <time>2019-08-19T04:09:23Z</time>
      </trkpt>
      <trkpt lat="42.217441" lon="2.640937">
        <ele>200</ele>
        <time>2019-08-19T04:09:25Z</time>
      </trkpt>
      <trkpt lat="42.217456" lon="2.640895">
        <ele>200</ele>
        <time>2019-08-19T04:09:26Z</time>
      </trkpt>
      <trkpt lat="42.21747" lon="2.640853">
        <ele>200</ele>
        <time>2019-08-19T04:09:27Z</time>
      </trkpt>
      <trkpt lat="42.217485" lon="2.640811">
        <ele>202</ele>
        <time>2019-08-19T04:09:29Z</time>
      </trkpt>
      <trkpt lat="42.217519" lon="2.640704">
        <ele>202</ele>
        <time>2019-08-19T04:09:30Z</time>
      </trkpt>
      <trkpt lat="42.217543" lon="2.640647">
        <ele>202</ele>
        <time>2019-08-19T04:09:31Z</time>
      </trkpt>
      <trkpt lat="42.217567" lon="2.640589">
        <ele>202</ele>
        <time>2019-08-19T04:09:33Z</time>
      </trkpt>
      <trkpt lat="42.217591" lon="2.640532">
        <ele>202</ele>
        <time>2019-08-19T04:09:34Z</time>
      </trkpt>
      <trkpt lat="42.217615" lon="2.640475">
        <ele>202</ele>
        <time>2019-08-19T04:09:35Z</time>
      </trkpt>
      <trkpt lat="42.217639" lon="2.640418">
        <ele>202</ele>
        <time>2019-08-19T04:09:36Z</time>
      </trkpt>
      <trkpt lat="42.217663" lon="2.64036">
        <ele>202</ele>
        <time>2019-08-19T04:09:37Z</time>
      </trkpt>
      <trkpt lat="42.217687" lon="2.640303">
        <ele>202</ele>
        <time>2019-08-19T04:09:39Z</time>
      </trkpt>
      <trkpt lat="42.217676" lon="2.640131">
        <ele>202</ele>
        <time>2019-08-19T04:09:41Z</time>
      </trkpt>
      <trkpt lat="42.217647" lon="2.640075">
        <ele>202</ele>
        <time>2019-08-19T04:09:43Z</time>
      </trkpt>
      <trkpt lat="42.217617" lon="2.640019">
        <ele>202</ele>
        <time>2019-08-19T04:09:44Z</time>
      </trkpt>
      <trkpt lat="42.217588" lon="2.639962">
        <ele>202</ele>
        <time>2019-08-19T04:09:45Z</time>
      </trkpt>
      <trkpt lat="42.217558" lon="2.639906">
        <ele>202</ele>
        <time>2019-08-19T04:09:46Z</time>
      </trkpt>
      <trkpt lat="42.217528" lon="2.63985">
        <ele>202</ele>
        <time>2019-08-19T04:09:47Z</time>
      </trkpt>
      <trkpt lat="42.217499" lon="2.639794">
        <ele>202</ele>
        <time>2019-08-19T04:09:48Z</time>
      </trkpt>
      <trkpt lat="42.217469" lon="2.639738">
        <ele>201</ele>
        <time>2019-08-19T04:09:49Z</time>
      </trkpt>
      <trkpt lat="42.217395" lon="2.639556">
        <ele>201</ele>
        <time>2019-08-19T04:09:50Z</time>
      </trkpt>
      <trkpt lat="42.217359" lon="2.639454">
        <ele>201</ele>
        <time>2019-08-19T04:09:51Z</time>
      </trkpt>
      <trkpt lat="42.217324" lon="2.639351">
        <ele>201</ele>
        <time>2019-08-19T04:09:52Z</time>
      </trkpt>
      <trkpt lat="42.217288" lon="2.639249">
        <ele>201</ele>
        <time>2019-08-19T04:09:53Z</time>
      </trkpt>
      <trkpt lat="42.217252" lon="2.639146">
        <ele>201</ele>
        <time>2019-08-19T04:09:54Z</time>
      </trkpt>
      <trkpt lat="42.217216" lon="2.639044">
        <ele>201</ele>
        <time>2019-08-19T04:09:55Z</time>
      </trkpt>
      <trkpt lat="42.21718" lon="2.638941">
        <ele>201</ele>
        <time>2019-08-19T04:09:56Z</time>
      </trkpt>
      <trkpt lat="42.217145" lon="2.638839">
        <ele>201</ele>
        <time>2019-08-19T04:09:57Z</time>
      </trkpt>
      <trkpt lat="42.217109" lon="2.638736">
        <ele>201</ele>
        <time>2019-08-19T04:09:59Z</time>
      </trkpt>
      <trkpt lat="42.217073" lon="2.638634">
        <ele>199</ele>
        <time>2019-08-19T04:10:00Z</time>
      </trkpt>
      <trkpt lat="42.21701" lon="2.63834">
        <ele>199</ele>
        <time>2019-08-19T04:10:01Z</time>
      </trkpt>
      <trkpt lat="42.21699" lon="2.638221">
        <ele>199</ele>
        <time>2019-08-19T04:10:02Z</time>
      </trkpt>
      <trkpt lat="42.216969" lon="2.638103">
        <ele>199</ele>
        <time>2019-08-19T04:10:03Z</time>
      </trkpt>
      <trkpt lat="42.216949" lon="2.637984">
        <ele>199</ele>
        <time>2019-08-19T04:10:04Z</time>
      </trkpt>
      <trkpt lat="42.216929" lon="2.637865">
        <ele>199</ele>
        <time>2019-08-19T04:10:05Z</time>
      </trkpt>
      <trkpt lat="42.216909" lon="2.637746">
        <ele>199</ele>
        <time>2019-08-19T04:10:06Z</time>
      </trkpt>
      <trkpt lat="42.216888" lon="2.637628">
        <ele>199</ele>
        <time>2019-08-19T04:10:07Z</time>
      </trkpt>
      <trkpt lat="42.216868" lon="2.637509">
        <ele>199</ele>
        <time>2019-08-19T04:10:08Z</time>
      </trkpt>
      <trkpt lat="42.216848" lon="2.63739">
        <ele>193</ele>
        <time>2019-08-19T04:10:09Z</time>
      </trkpt>
      <trkpt lat="42.216823" lon="2.637119">
        <ele>193</ele>
        <time>2019-08-19T04:10:10Z</time>
      </trkpt>
      <trkpt lat="42.216814" lon="2.636986">
        <ele>193</ele>
        <time>2019-08-19T04:10:12Z</time>
      </trkpt>
      <trkpt lat="42.216805" lon="2.636854">
        <ele>193</ele>
        <time>2019-08-19T04:10:13Z</time>
      </trkpt>
      <trkpt lat="42.216797" lon="2.636721">
        <ele>193</ele>
        <time>2019-08-19T04:10:14Z</time>
      </trkpt>
      <trkpt lat="42.216788" lon="2.636588">
        <ele>193</ele>
        <time>2019-08-19T04:10:15Z</time>
      </trkpt>
      <trkpt lat="42.216779" lon="2.636455">
        <ele>193</ele>
        <time>2019-08-19T04:10:17Z</time>
      </trkpt>
      <trkpt lat="42.21677" lon="2.636323">
        <ele>193</ele>
        <time>2019-08-19T04:10:18Z</time>
      </trkpt>
      <trkpt lat="42.216761" lon="2.63619">
        <ele>192</ele>
        <time>2019-08-19T04:10:19Z</time>
      </trkpt>
      <trkpt lat="42.216759" lon="2.635969">
        <ele>192</ele>
        <time>2019-08-19T04:10:20Z</time>
      </trkpt>
      <trkpt lat="42.216761" lon="2.635869">
        <ele>192</ele>
        <time>2019-08-19T04:10:21Z</time>
      </trkpt>
      <trkpt lat="42.216764" lon="2.63577">
        <ele>192</ele>
        <time>2019-08-19T04:10:22Z</time>
      </trkpt>
      <trkpt lat="42.216766" lon="2.635671">
        <ele>192</ele>
        <time>2019-08-19T04:10:23Z</time>
      </trkpt>
      <trkpt lat="42.216769" lon="2.635572">
        <ele>192</ele>
        <time>2019-08-19T04:10:24Z</time>
      </trkpt>
      <trkpt lat="42.216772" lon="2.635472">
        <ele>192</ele>
        <time>2019-08-19T04:10:25Z</time>
      </trkpt>
      <trkpt lat="42.216774" lon="2.635373">
        <ele>192</ele>
        <time>2019-08-19T04:10:26Z</time>
      </trkpt>
      <trkpt lat="42.216777" lon="2.635274">
        <ele>192</ele>
        <time>2019-08-19T04:10:27Z</time>
      </trkpt>
      <trkpt lat="42.216779" lon="2.635174">
        <ele>192</ele>
        <time>2019-08-19T04:10:28Z</time>
      </trkpt>
      <trkpt lat="42.216782" lon="2.635075">
        <ele>192</ele>
        <time>2019-08-19T04:10:29Z</time>
      </trkpt>
      <trkpt lat="42.216787" lon="2.634923">
        <ele>192</ele>
        <time>2019-08-19T04:10:30Z</time>
      </trkpt>
      <trkpt lat="42.21679" lon="2.634852">
        <ele>192</ele>
        <time>2019-08-19T04:10:31Z</time>
      </trkpt>
      <trkpt lat="42.216792" lon="2.63478">
        <ele>192</ele>
        <time>2019-08-19T04:10:32Z</time>
      </trkpt>
      <trkpt lat="42.216794" lon="2.634709">
        <ele>192</ele>
        <time>2019-08-19T04:10:34Z</time>
      </trkpt>
      <trkpt lat="42.216797" lon="2.634638">
        <ele>192</ele>
        <time>2019-08-19T04:10:35Z</time>
      </trkpt>
      <trkpt lat="42.216799" lon="2.634567">
        <ele>192</ele>
        <time>2019-08-19T04:10:36Z</time>
      </trkpt>
      <trkpt lat="42.216801" lon="2.634495">
        <ele>192</ele>
        <time>2019-08-19T04:10:37Z</time>
      </trkpt>
      <trkpt lat="42.216804" lon="2.634424">
        <ele>192</ele>
        <time>2019-08-19T04:10:38Z</time>
      </trkpt>
      <trkpt lat="42.216806" lon="2.634353">
        <ele>193</ele>
        <time>2019-08-19T04:10:39Z</time>
      </trkpt>
      <trkpt lat="42.216807" lon="2.634221">
        <ele>193</ele>
        <time>2019-08-19T04:10:40Z</time>
      </trkpt>
      <trkpt lat="42.216807" lon="2.634158">
        <ele>193</ele>
        <time>2019-08-19T04:10:42Z</time>
      </trkpt>
      <trkpt lat="42.216806" lon="2.634095">
        <ele>193</ele>
        <time>2019-08-19T04:10:43Z</time>
      </trkpt>
      <trkpt lat="42.216805" lon="2.634032">
        <ele>193</ele>
        <time>2019-08-19T04:10:44Z</time>
      </trkpt>
      <trkpt lat="42.216805" lon="2.63397">
        <ele>193</ele>
        <time>2019-08-19T04:10:45Z</time>
      </trkpt>
      <trkpt lat="42.216804" lon="2.633907">
        <ele>193</ele>
        <time>2019-08-19T04:10:46Z</time>
      </trkpt>
      <trkpt lat="42.216803" lon="2.633844">
        <ele>193</ele>
        <time>2019-08-19T04:10:47Z</time>
      </trkpt>
      <trkpt lat="42.216803" lon="2.633781">
        <ele>193</ele>
        <time>2019-08-19T04:10:48Z</time>
      </trkpt>
      <trkpt lat="42.216802" lon="2.633718">
        <ele>193</ele>
        <time>2019-08-19T04:10:49Z</time>
      </trkpt>
      <trkpt lat="42.216797" lon="2.633556">
        <ele>193</ele>
        <time>2019-08-19T04:10:50Z</time>
      </trkpt>
      <trkpt lat="42.216794" lon="2.633492">
        <ele>193</ele>
        <time>2019-08-19T04:10:51Z</time>
      </trkpt>
      <trkpt lat="42.216791" lon="2.633428">
        <ele>193</ele>
        <time>2019-08-19T04:10:52Z</time>
      </trkpt>
      <trkpt lat="42.216788" lon="2.633364">
        <ele>193</ele>
        <time>2019-08-19T04:10:53Z</time>
      </trkpt>
      <trkpt lat="42.216784" lon="2.633299">
        <ele>193</ele>
        <time>2019-08-19T04:10:55Z</time>
      </trkpt>
      <trkpt lat="42.216781" lon="2.633235">
        <ele>193</ele>
        <time>2019-08-19T04:10:56Z</time>
      </trkpt>
      <trkpt lat="42.216778" lon="2.633171">
        <ele>193</ele>
        <time>2019-08-19T04:10:57Z</time>
      </trkpt>
      <trkpt lat="42.216775" lon="2.633107">
        <ele>193</ele>
        <time>2019-08-19T04:10:58Z</time>
      </trkpt>
      <trkpt lat="42.216772" lon="2.633043">
        <ele>195</ele>
        <time>2019-08-19T04:10:59Z</time>
      </trkpt>
      <trkpt lat="42.21676" lon="2.632927">
        <ele>195</ele>
        <time>2019-08-19T04:11:00Z</time>
      </trkpt>
      <trkpt lat="42.216754" lon="2.632873">
        <ele>195</ele>
        <time>2019-08-19T04:11:01Z</time>
      </trkpt>
      <trkpt lat="42.216748" lon="2.632818">
        <ele>195</ele>
        <time>2019-08-19T04:11:02Z</time>
      </trkpt>
      <trkpt lat="42.216742" lon="2.632764">
        <ele>195</ele>
        <time>2019-08-19T04:11:03Z</time>
      </trkpt>
      <trkpt lat="42.216736" lon="2.63271">
        <ele>195</ele>
        <time>2019-08-19T04:11:04Z</time>
      </trkpt>
      <trkpt lat="42.21673" lon="2.632656">
        <ele>195</ele>
        <time>2019-08-19T04:11:05Z</time>
      </trkpt>
      <trkpt lat="42.216724" lon="2.632602">
        <ele>195</ele>
        <time>2019-08-19T04:11:06Z</time>
      </trkpt>
      <trkpt lat="42.216718" lon="2.632547">
        <ele>195</ele>
        <time>2019-08-19T04:11:07Z</time>
      </trkpt>
      <trkpt lat="42.216712" lon="2.632493">
        <ele>195</ele>
        <time>2019-08-19T04:11:08Z</time>
      </trkpt>
      <trkpt lat="42.216706" lon="2.632439">
        <ele>197</ele>
        <time>2019-08-19T04:11:09Z</time>
      </trkpt>
      <trkpt lat="42.21669" lon="2.632317">
        <ele>197</ele>
        <time>2019-08-19T04:11:10Z</time>
      </trkpt>
      <trkpt lat="42.216683" lon="2.632255">
        <ele>197</ele>
        <time>2019-08-19T04:11:12Z</time>
      </trkpt>
      <trkpt lat="42.216676" lon="2.632192">
        <ele>197</ele>
        <time>2019-08-19T04:11:13Z</time>
      </trkpt>
      <trkpt lat="42.216669" lon="2.632129">
        <ele>197</ele>
        <time>2019-08-19T04:11:14Z</time>
      </trkpt>
      <trkpt lat="42.216661" lon="2.632067">
        <ele>197</ele>
        <time>2019-08-19T04:11:15Z</time>
      </trkpt>
      <trkpt lat="42.216654" lon="2.632004">
        <ele>197</ele>
        <time>2019-08-19T04:11:16Z</time>
      </trkpt>
      <trkpt lat="42.216647" lon="2.631942">
        <ele>197</ele>
        <time>2019-08-19T04:11:18Z</time>
      </trkpt>
      <trkpt lat="42.21664" lon="2.631879">
        <ele>198</ele>
        <time>2019-08-19T04:11:19Z</time>
      </trkpt>
      <trkpt lat="42.216619" lon="2.631733">
        <ele>198</ele>
        <time>2019-08-19T04:11:20Z</time>
      </trkpt>
      <trkpt lat="42.216609" lon="2.631676">
        <ele>198</ele>
        <time>2019-08-19T04:11:22Z</time>
      </trkpt>
      <trkpt lat="42.2166" lon="2.631619">
        <ele>198</ele>
        <time>2019-08-19T04:11:23Z</time>
      </trkpt>
      <trkpt lat="42.21659" lon="2.631562">
        <ele>198</ele>
        <time>2019-08-19T04:11:24Z</time>
      </trkpt>
      <trkpt lat="42.216581" lon="2.631504">
        <ele>198</ele>
        <time>2019-08-19T04:11:25Z</time>
      </trkpt>
      <trkpt lat="42.216571" lon="2.631447">
        <ele>198</ele>
        <time>2019-08-19T04:11:26Z</time>
      </trkpt>
      <trkpt lat="42.216562" lon="2.63139">
        <ele>198</ele>
        <time>2019-08-19T04:11:27Z</time>
      </trkpt>
      <trkpt lat="42.216552" lon="2.631333">
        <ele>198</ele>
        <time>2019-08-19T04:11:28Z</time>
      </trkpt>
      <trkpt lat="42.216543" lon="2.631276">
        <ele>198</ele>
        <time>2019-08-19T04:11:29Z</time>
      </trkpt>
      <trkpt lat="42.216507" lon="2.631115">
        <ele>198</ele>
        <time>2019-08-19T04:11:31Z</time>
      </trkpt>
      <trkpt lat="42.216493" lon="2.631064">
        <ele>198</ele>
        <time>2019-08-19T04:11:32Z</time>
      </trkpt>
      <trkpt lat="42.21648" lon="2.631014">
        <ele>198</ele>
        <time>2019-08-19T04:11:34Z</time>
      </trkpt>
      <trkpt lat="42.216466" lon="2.630963">
        <ele>198</ele>
        <time>2019-08-19T04:11:36Z</time>
      </trkpt>
      <trkpt lat="42.216453" lon="2.630913">
        <ele>198</ele>
        <time>2019-08-19T04:11:37Z</time>
      </trkpt>
      <trkpt lat="42.216439" lon="2.630862">
        <ele>198</ele>
        <time>2019-08-19T04:11:38Z</time>
      </trkpt>
      <trkpt lat="42.216426" lon="2.630812">
        <ele>199</ele>
        <time>2019-08-19T04:11:39Z</time>
      </trkpt>
      <trkpt lat="42.216394" lon="2.630717">
        <ele>199</ele>
        <time>2019-08-19T04:11:40Z</time>
      </trkpt>
      <trkpt lat="42.216377" lon="2.630671">
        <ele>199</ele>
        <time>2019-08-19T04:11:41Z</time>
      </trkpt>
      <trkpt lat="42.216361" lon="2.630624">
        <ele>199</ele>
        <time>2019-08-19T04:11:42Z</time>
      </trkpt>
      <trkpt lat="42.216344" lon="2.630578">
        <ele>199</ele>
        <time>2019-08-19T04:11:43Z</time>
      </trkpt>
      <trkpt lat="42.216327" lon="2.630532">
        <ele>199</ele>
        <time>2019-08-19T04:11:44Z</time>
      </trkpt>
      <trkpt lat="42.21631" lon="2.630486">
        <ele>199</ele>
        <time>2019-08-19T04:11:45Z</time>
      </trkpt>
      <trkpt lat="42.216294" lon="2.630439">
        <ele>199</ele>
        <time>2019-08-19T04:11:47Z</time>
      </trkpt>
      <trkpt lat="42.216277" lon="2.630393">
        <ele>199</ele>
        <time>2019-08-19T04:11:48Z</time>
      </trkpt>
      <trkpt lat="42.21626" lon="2.630347">
        <ele>201</ele>
        <time>2019-08-19T04:11:49Z</time>
      </trkpt>
      <trkpt lat="42.216221" lon="2.630254">
        <ele>201</ele>
        <time>2019-08-19T04:11:50Z</time>
      </trkpt>
      <trkpt lat="42.2162" lon="2.630204">
        <ele>201</ele>
        <time>2019-08-19T04:11:51Z</time>
      </trkpt>
      <trkpt lat="42.216178" lon="2.630155">
        <ele>201</ele>
        <time>2019-08-19T04:11:53Z</time>
      </trkpt>
      <trkpt lat="42.216157" lon="2.630105">
        <ele>201</ele>
        <time>2019-08-19T04:11:54Z</time>
      </trkpt>
      <trkpt lat="42.216135" lon="2.630056">
        <ele>201</ele>
        <time>2019-08-19T04:11:56Z</time>
      </trkpt>
      <trkpt lat="42.216113" lon="2.630007">
        <ele>201</ele>
        <time>2019-08-19T04:11:57Z</time>
      </trkpt>
      <trkpt lat="42.216092" lon="2.629957">
        <ele>201</ele>
        <time>2019-08-19T04:11:58Z</time>
      </trkpt>
      <trkpt lat="42.21607" lon="2.629908">
        <ele>204</ele>
        <time>2019-08-19T04:11:59Z</time>
      </trkpt>
      <trkpt lat="42.216022" lon="2.629803">
        <ele>204</ele>
        <time>2019-08-19T04:12:00Z</time>
      </trkpt>
      <trkpt lat="42.216002" lon="2.62976">
        <ele>204</ele>
        <time>2019-08-19T04:12:02Z</time>
      </trkpt>
      <trkpt lat="42.215982" lon="2.629717">
        <ele>204</ele>
        <time>2019-08-19T04:12:04Z</time>
      </trkpt>
      <trkpt lat="42.215963" lon="2.629673">
        <ele>204</ele>
        <time>2019-08-19T04:12:05Z</time>
      </trkpt>
      <trkpt lat="42.215943" lon="2.62963">
        <ele>204</ele>
        <time>2019-08-19T04:12:06Z</time>
      </trkpt>
      <trkpt lat="42.215923" lon="2.629587">
        <ele>204</ele>
        <time>2019-08-19T04:12:07Z</time>
      </trkpt>
      <trkpt lat="42.215903" lon="2.629544">
        <ele>204</ele>
        <time>2019-08-19T04:12:08Z</time>
      </trkpt>
      <trkpt lat="42.215883" lon="2.629501">
        <ele>205</ele>
        <time>2019-08-19T04:12:09Z</time>
      </trkpt>
      <trkpt lat="42.21585" lon="2.629438">
        <ele>205</ele>
        <time>2019-08-19T04:12:10Z</time>
      </trkpt>
      <trkpt lat="42.215829" lon="2.629394">
        <ele>205</ele>
        <time>2019-08-19T04:12:11Z</time>
      </trkpt>
      <trkpt lat="42.215807" lon="2.629351">
        <ele>205</ele>
        <time>2019-08-19T04:12:12Z</time>
      </trkpt>
      <trkpt lat="42.215785" lon="2.629307">
        <ele>205</ele>
        <time>2019-08-19T04:12:13Z</time>
      </trkpt>
      <trkpt lat="42.215764" lon="2.629264">
        <ele>205</ele>
        <time>2019-08-19T04:12:15Z</time>
      </trkpt>
      <trkpt lat="42.215742" lon="2.62922">
        <ele>205</ele>
        <time>2019-08-19T04:12:16Z</time>
      </trkpt>
      <trkpt lat="42.21572" lon="2.629177">
        <ele>205</ele>
        <time>2019-08-19T04:12:17Z</time>
      </trkpt>
      <trkpt lat="42.215699" lon="2.629133">
        <ele>205</ele>
        <time>2019-08-19T04:12:18Z</time>
      </trkpt>
      <trkpt lat="42.215677" lon="2.62909">
        <ele>205</ele>
        <time>2019-08-19T04:12:19Z</time>
      </trkpt>
      <trkpt lat="42.215623" lon="2.62899">
        <ele>205</ele>
        <time>2019-08-19T04:12:21Z</time>
      </trkpt>
      <trkpt lat="42.215595" lon="2.628944">
        <ele>205</ele>
        <time>2019-08-19T04:12:22Z</time>
      </trkpt>
      <trkpt lat="42.215568" lon="2.628897">
        <ele>205</ele>
        <time>2019-08-19T04:12:24Z</time>
      </trkpt>
      <trkpt lat="42.215541" lon="2.62885">
        <ele>205</ele>
        <time>2019-08-19T04:12:25Z</time>
      </trkpt>
      <trkpt lat="42.215514" lon="2.628803">
        <ele>205</ele>
        <time>2019-08-19T04:12:27Z</time>
      </trkpt>
      <trkpt lat="42.215486" lon="2.628757">
        <ele>205</ele>
        <time>2019-08-19T04:12:28Z</time>
      </trkpt>
      <trkpt lat="42.215459" lon="2.62871">
        <ele>207</ele>
        <time>2019-08-19T04:12:29Z</time>
      </trkpt>
      <trkpt lat="42.215396" lon="2.628608">
        <ele>207</ele>
        <time>2019-08-19T04:12:30Z</time>
      </trkpt>
      <trkpt lat="42.215359" lon="2.628551">
        <ele>207</ele>
        <time>2019-08-19T04:12:31Z</time>
      </trkpt>
      <trkpt lat="42.215322" lon="2.628493">
        <ele>207</ele>
        <time>2019-08-19T04:12:32Z</time>
      </trkpt>
      <trkpt lat="42.215286" lon="2.628436">
        <ele>207</ele>
        <time>2019-08-19T04:12:34Z</time>
      </trkpt>
      <trkpt lat="42.215249" lon="2.628378">
        <ele>207</ele>
        <time>2019-08-19T04:12:35Z</time>
      </trkpt>
      <trkpt lat="42.215212" lon="2.628321">
        <ele>207</ele>
        <time>2019-08-19T04:12:36Z</time>
      </trkpt>
      <trkpt lat="42.215175" lon="2.628263">
        <ele>207</ele>
        <time>2019-08-19T04:12:38Z</time>
      </trkpt>
      <trkpt lat="42.215138" lon="2.628206">
        <ele>207</ele>
        <time>2019-08-19T04:12:39Z</time>
      </trkpt>
      <trkpt lat="42.215059" lon="2.628085">
        <ele>207</ele>
        <time>2019-08-19T04:12:40Z</time>
      </trkpt>
      <trkpt lat="42.215016" lon="2.62802">
        <ele>207</ele>
        <time>2019-08-19T04:12:41Z</time>
      </trkpt>
      <trkpt lat="42.214973" lon="2.627954">
        <ele>207</ele>
        <time>2019-08-19T04:12:43Z</time>
      </trkpt>
      <trkpt lat="42.21493" lon="2.627889">
        <ele>207</ele>
        <time>2019-08-19T04:12:44Z</time>
      </trkpt>
      <trkpt lat="42.214888" lon="2.627824">
        <ele>207</ele>
        <time>2019-08-19T04:12:45Z</time>
      </trkpt>
      <trkpt lat="42.214845" lon="2.627759">
        <ele>207</ele>
        <time>2019-08-19T04:12:46Z</time>
      </trkpt>
      <trkpt lat="42.214802" lon="2.627693">
        <ele>207</ele>
        <time>2019-08-19T04:12:47Z</time>
      </trkpt>
      <trkpt lat="42.214759" lon="2.627628">
        <ele>207</ele>
        <time>2019-08-19T04:12:48Z</time>
      </trkpt>
      <trkpt lat="42.214716" lon="2.627563">
        <ele>206</ele>
        <time>2019-08-19T04:12:49Z</time>
      </trkpt>
      <trkpt lat="42.214618" lon="2.627381">
        <ele>206</ele>
        <time>2019-08-19T04:12:50Z</time>
      </trkpt>
      <trkpt lat="42.214578" lon="2.627299">
        <ele>206</ele>
        <time>2019-08-19T04:12:52Z</time>
      </trkpt>
      <trkpt lat="42.214539" lon="2.627218">
        <ele>206</ele>
        <time>2019-08-19T04:12:53Z</time>
      </trkpt>
      <trkpt lat="42.2145" lon="2.627136">
        <ele>206</ele>
        <time>2019-08-19T04:12:54Z</time>
      </trkpt>
      <trkpt lat="42.214461" lon="2.627055">
        <ele>206</ele>
        <time>2019-08-19T04:12:55Z</time>
      </trkpt>
      <trkpt lat="42.214421" lon="2.626973">
        <ele>206</ele>
        <time>2019-08-19T04:12:57Z</time>
      </trkpt>
      <trkpt lat="42.214382" lon="2.626892">
        <ele>206</ele>
        <time>2019-08-19T04:12:59Z</time>
      </trkpt>
      <trkpt lat="42.214311" lon="2.626719">
        <ele>206</ele>
        <time>2019-08-19T04:13:01Z</time>
      </trkpt>
      <trkpt lat="42.21428" lon="2.626644">
        <ele>206</ele>
        <time>2019-08-19T04:13:02Z</time>
      </trkpt>
      <trkpt lat="42.214249" lon="2.626568">
        <ele>206</ele>
        <time>2019-08-19T04:13:04Z</time>
      </trkpt>
      <trkpt lat="42.214217" lon="2.626492">
        <ele>206</ele>
        <time>2019-08-19T04:13:06Z</time>
      </trkpt>
      <trkpt lat="42.214186" lon="2.626416">
        <ele>206</ele>
        <time>2019-08-19T04:13:07Z</time>
      </trkpt>
      <trkpt lat="42.214155" lon="2.626341">
        <ele>206</ele>
        <time>2019-08-19T04:13:08Z</time>
      </trkpt>
      <trkpt lat="42.214124" lon="2.626265">
        <ele>207</ele>
        <time>2019-08-19T04:13:09Z</time>
      </trkpt>
      <trkpt lat="42.21407" lon="2.626137">
        <ele>207</ele>
        <time>2019-08-19T04:13:10Z</time>
      </trkpt>
      <trkpt lat="42.214044" lon="2.626076">
        <ele>207</ele>
        <time>2019-08-19T04:13:11Z</time>
      </trkpt>
      <trkpt lat="42.214018" lon="2.626015">
        <ele>207</ele>
        <time>2019-08-19T04:13:12Z</time>
      </trkpt>
      <trkpt lat="42.213992" lon="2.625954">
        <ele>207</ele>
        <time>2019-08-19T04:13:13Z</time>
      </trkpt>
      <trkpt lat="42.213967" lon="2.625892">
        <ele>207</ele>
        <time>2019-08-19T04:13:14Z</time>
      </trkpt>
      <trkpt lat="42.213941" lon="2.625831">
        <ele>207</ele>
        <time>2019-08-19T04:13:15Z</time>
      </trkpt>
      <trkpt lat="42.213915" lon="2.62577">
        <ele>207</ele>
        <time>2019-08-19T04:13:16Z</time>
      </trkpt>
      <trkpt lat="42.213889" lon="2.625709">
        <ele>207</ele>
        <time>2019-08-19T04:13:17Z</time>
      </trkpt>
      <trkpt lat="42.213863" lon="2.625648">
        <ele>207</ele>
        <time>2019-08-19T04:13:18Z</time>
      </trkpt>
      <trkpt lat="42.213837" lon="2.625587">
        <ele>207</ele>
        <time>2019-08-19T04:13:19Z</time>
      </trkpt>
      <trkpt lat="42.213783" lon="2.625464">
        <ele>207</ele>
        <time>2019-08-19T04:13:20Z</time>
      </trkpt>
      <trkpt lat="42.213744" lon="2.625375">
        <ele>207</ele>
        <time>2019-08-19T04:13:21Z</time>
      </trkpt>
      <trkpt lat="42.213705" lon="2.625285">
        <ele>207</ele>
        <time>2019-08-19T04:13:22Z</time>
      </trkpt>
      <trkpt lat="42.213666" lon="2.625195">
        <ele>207</ele>
        <time>2019-08-19T04:13:24Z</time>
      </trkpt>
      <trkpt lat="42.213626" lon="2.625106">
        <ele>207</ele>
        <time>2019-08-19T04:13:26Z</time>
      </trkpt>
      <trkpt lat="42.213587" lon="2.625016">
        <ele>207</ele>
        <time>2019-08-19T04:13:27Z</time>
      </trkpt>
      <trkpt lat="42.213548" lon="2.624927">
        <ele>207</ele>
        <time>2019-08-19T04:13:28Z</time>
      </trkpt>
      <trkpt lat="42.213509" lon="2.624837">
        <ele>206</ele>
        <time>2019-08-19T04:13:29Z</time>
      </trkpt>
      <trkpt lat="42.213486" lon="2.624798">
        <ele>206</ele>
        <time>2019-08-19T04:13:30Z</time>
      </trkpt>
      <trkpt lat="42.213437" lon="2.624718">
        <ele>206</ele>
        <time>2019-08-19T04:13:31Z</time>
      </trkpt>
      <trkpt lat="42.213382" lon="2.624637">
        <ele>206</ele>
        <time>2019-08-19T04:13:32Z</time>
      </trkpt>
      <trkpt lat="42.213321" lon="2.624558">
        <ele>206</ele>
        <time>2019-08-19T04:13:33Z</time>
      </trkpt>
      <trkpt lat="42.213253" lon="2.624483">
        <ele>206</ele>
        <time>2019-08-19T04:13:34Z</time>
      </trkpt>
      <trkpt lat="42.213179" lon="2.624414">
        <ele>206</ele>
        <time>2019-08-19T04:13:35Z</time>
      </trkpt>
      <trkpt lat="42.213016" lon="2.62429">
        <ele>206</ele>
        <time>2019-08-19T04:13:36Z</time>
      </trkpt>
      <trkpt lat="42.21293" lon="2.624234">
        <ele>206</ele>
        <time>2019-08-19T04:13:37Z</time>
      </trkpt>
      <trkpt lat="42.212844" lon="2.624178">
        <ele>206</ele>
        <time>2019-08-19T04:13:38Z</time>
      </trkpt>
      <trkpt lat="42.212685" lon="2.624053">
        <ele>203</ele>
        <time>2019-08-19T04:13:40Z</time>
      </trkpt>
      <trkpt lat="42.212511" lon="2.623861">
        <ele>203</ele>
        <time>2019-08-19T04:13:41Z</time>
      </trkpt>
      <trkpt lat="42.212417" lon="2.623731">
        <ele>203</ele>
        <time>2019-08-19T04:13:45Z</time>
      </trkpt>
      <trkpt lat="42.212323" lon="2.623602">
        <ele>203</ele>
        <time>2019-08-19T04:13:47Z</time>
      </trkpt>
      <trkpt lat="42.212229" lon="2.623472">
        <ele>203</ele>
        <time>2019-08-19T04:13:48Z</time>
      </trkpt>
      <trkpt lat="42.212135" lon="2.623343">
        <ele>199</ele>
        <time>2019-08-19T04:13:49Z</time>
      </trkpt>
      <trkpt lat="42.212062" lon="2.623075">
        <ele>199</ele>
        <time>2019-08-19T04:13:51Z</time>
      </trkpt>
      <trkpt lat="42.212043" lon="2.62295">
        <ele>199</ele>
        <time>2019-08-19T04:13:52Z</time>
      </trkpt>
      <trkpt lat="42.212025" lon="2.622825">
        <ele>199</ele>
        <time>2019-08-19T04:13:53Z</time>
      </trkpt>
      <trkpt lat="42.212007" lon="2.6227">
        <ele>199</ele>
        <time>2019-08-19T04:13:55Z</time>
      </trkpt>
      <trkpt lat="42.211988" lon="2.622575">
        <ele>199</ele>
        <time>2019-08-19T04:13:56Z</time>
      </trkpt>
      <trkpt lat="42.21197" lon="2.62245">
        <ele>199</ele>
        <time>2019-08-19T04:13:57Z</time>
      </trkpt>
      <trkpt lat="42.211951" lon="2.622325">
        <ele>199</ele>
        <time>2019-08-19T04:13:58Z</time>
      </trkpt>
      <trkpt lat="42.211933" lon="2.6222">
        <ele>199</ele>
        <time>2019-08-19T04:13:59Z</time>
      </trkpt>
      <trkpt lat="42.211922" lon="2.621865">
        <ele>199</ele>
        <time>2019-08-19T04:14:01Z</time>
      </trkpt>
      <trkpt lat="42.211923" lon="2.621756">
        <ele>199</ele>
        <time>2019-08-19T04:14:03Z</time>
      </trkpt>
      <trkpt lat="42.211925" lon="2.621648">
        <ele>199</ele>
        <time>2019-08-19T04:14:04Z</time>
      </trkpt>
      <trkpt lat="42.211926" lon="2.621539">
        <ele>199</ele>
        <time>2019-08-19T04:14:05Z</time>
      </trkpt>
      <trkpt lat="42.211927" lon="2.62143">
        <ele>199</ele>
        <time>2019-08-19T04:14:06Z</time>
      </trkpt>
      <trkpt lat="42.211928" lon="2.621321">
        <ele>199</ele>
        <time>2019-08-19T04:14:07Z</time>
      </trkpt>
      <trkpt lat="42.21193" lon="2.621213">
        <ele>199</ele>
        <time>2019-08-19T04:14:08Z</time>
      </trkpt>
      <trkpt lat="42.211931" lon="2.621104">
        <ele>199</ele>
        <time>2019-08-19T04:14:09Z</time>
      </trkpt>
      <trkpt lat="42.211932" lon="2.620995">
        <ele>198</ele>
        <time>2019-08-19T04:14:10Z</time>
      </trkpt>
      <trkpt lat="42.211949" lon="2.620722">
        <ele>198</ele>
        <time>2019-08-19T04:14:11Z</time>
      </trkpt>
      <trkpt lat="42.211958" lon="2.620622">
        <ele>198</ele>
        <time>2019-08-19T04:14:12Z</time>
      </trkpt>
      <trkpt lat="42.211968" lon="2.620521">
        <ele>198</ele>
        <time>2019-08-19T04:14:13Z</time>
      </trkpt>
      <trkpt lat="42.211977" lon="2.620421">
        <ele>198</ele>
        <time>2019-08-19T04:14:14Z</time>
      </trkpt>
      <trkpt lat="42.211986" lon="2.620321">
        <ele>198</ele>
        <time>2019-08-19T04:14:15Z</time>
      </trkpt>
      <trkpt lat="42.211995" lon="2.620221">
        <ele>198</ele>
        <time>2019-08-19T04:14:16Z</time>
      </trkpt>
      <trkpt lat="42.212005" lon="2.62012">
        <ele>198</ele>
        <time>2019-08-19T04:14:17Z</time>
      </trkpt>
      <trkpt lat="42.212014" lon="2.62002">
        <ele>198</ele>
        <time>2019-08-19T04:14:18Z</time>
      </trkpt>
      <trkpt lat="42.212023" lon="2.61992">
        <ele>197</ele>
        <time>2019-08-19T04:14:19Z</time>
      </trkpt>
      <trkpt lat="42.212053" lon="2.619711">
        <ele>197</ele>
        <time>2019-08-19T04:14:20Z</time>
      </trkpt>
      <trkpt lat="42.21207" lon="2.619612">
        <ele>197</ele>
        <time>2019-08-19T04:14:21Z</time>
      </trkpt>
      <trkpt lat="42.212086" lon="2.619513">
        <ele>197</ele>
        <time>2019-08-19T04:14:22Z</time>
      </trkpt>
      <trkpt lat="42.212103" lon="2.619414">
        <ele>197</ele>
        <time>2019-08-19T04:14:23Z</time>
      </trkpt>
      <trkpt lat="42.212119" lon="2.619316">
        <ele>197</ele>
        <time>2019-08-19T04:14:24Z</time>
      </trkpt>
      <trkpt lat="42.212136" lon="2.619217">
        <ele>197</ele>
        <time>2019-08-19T04:14:26Z</time>
      </trkpt>
      <trkpt lat="42.212152" lon="2.619118">
        <ele>197</ele>
        <time>2019-08-19T04:14:27Z</time>
      </trkpt>
      <trkpt lat="42.212169" lon="2.619019">
        <ele>197</ele>
        <time>2019-08-19T04:14:28Z</time>
      </trkpt>
      <trkpt lat="42.212185" lon="2.61892">
        <ele>197</ele>
        <time>2019-08-19T04:14:29Z</time>
      </trkpt>
      <trkpt lat="42.212211" lon="2.618775">
        <ele>197</ele>
        <time>2019-08-19T04:14:30Z</time>
      </trkpt>
      <trkpt lat="42.212229" lon="2.618682">
        <ele>197</ele>
        <time>2019-08-19T04:14:31Z</time>
      </trkpt>
      <trkpt lat="42.212246" lon="2.618588">
        <ele>197</ele>
        <time>2019-08-19T04:14:32Z</time>
      </trkpt>
      <trkpt lat="42.212263" lon="2.618494">
        <ele>197</ele>
        <time>2019-08-19T04:14:33Z</time>
      </trkpt>
      <trkpt lat="42.212281" lon="2.618401">
        <ele>197</ele>
        <time>2019-08-19T04:14:34Z</time>
      </trkpt>
      <trkpt lat="42.212298" lon="2.618307">
        <ele>197</ele>
        <time>2019-08-19T04:14:35Z</time>
      </trkpt>
      <trkpt lat="42.212315" lon="2.618213">
        <ele>197</ele>
        <time>2019-08-19T04:14:36Z</time>
      </trkpt>
      <trkpt lat="42.212332" lon="2.618119">
        <ele>197</ele>
        <time>2019-08-19T04:14:37Z</time>
      </trkpt>
      <trkpt lat="42.21235" lon="2.618026">
        <ele>197</ele>
        <time>2019-08-19T04:14:38Z</time>
      </trkpt>
      <trkpt lat="42.212367" lon="2.617932">
        <ele>195</ele>
        <time>2019-08-19T04:14:39Z</time>
      </trkpt>
      <trkpt lat="42.212404" lon="2.617693">
        <ele>195</ele>
        <time>2019-08-19T04:14:40Z</time>
      </trkpt>
      <trkpt lat="42.212418" lon="2.617603">
        <ele>195</ele>
        <time>2019-08-19T04:14:41Z</time>
      </trkpt>
      <trkpt lat="42.212431" lon="2.617512">
        <ele>195</ele>
        <time>2019-08-19T04:14:42Z</time>
      </trkpt>
      <trkpt lat="42.212444" lon="2.617421">
        <ele>195</ele>
        <time>2019-08-19T04:14:43Z</time>
      </trkpt>
      <trkpt lat="42.212458" lon="2.617331">
        <ele>195</ele>
        <time>2019-08-19T04:14:44Z</time>
      </trkpt>
      <trkpt lat="42.212471" lon="2.61724">
        <ele>195</ele>
        <time>2019-08-19T04:14:46Z</time>
      </trkpt>
      <trkpt lat="42.212484" lon="2.617149">
        <ele>195</ele>
        <time>2019-08-19T04:14:47Z</time>
      </trkpt>
      <trkpt lat="42.212498" lon="2.617059">
        <ele>195</ele>
        <time>2019-08-19T04:14:48Z</time>
      </trkpt>
      <trkpt lat="42.212511" lon="2.616968">
        <ele>195</ele>
        <time>2019-08-19T04:14:49Z</time>
      </trkpt>
      <trkpt lat="42.212536" lon="2.61677">
        <ele>195</ele>
        <time>2019-08-19T04:14:50Z</time>
      </trkpt>
      <trkpt lat="42.212547" lon="2.616675">
        <ele>195</ele>
        <time>2019-08-19T04:14:51Z</time>
      </trkpt>
      <trkpt lat="42.212558" lon="2.616581">
        <ele>195</ele>
        <time>2019-08-19T04:14:52Z</time>
      </trkpt>
      <trkpt lat="42.212569" lon="2.616487">
        <ele>195</ele>
        <time>2019-08-19T04:14:53Z</time>
      </trkpt>
      <trkpt lat="42.21258" lon="2.616393">
        <ele>195</ele>
        <time>2019-08-19T04:14:54Z</time>
      </trkpt>
      <trkpt lat="42.21259" lon="2.616298">
        <ele>195</ele>
        <time>2019-08-19T04:14:55Z</time>
      </trkpt>
      <trkpt lat="42.212601" lon="2.616204">
        <ele>195</ele>
        <time>2019-08-19T04:14:56Z</time>
      </trkpt>
      <trkpt lat="42.212612" lon="2.61611">
        <ele>195</ele>
        <time>2019-08-19T04:14:57Z</time>
      </trkpt>
      <trkpt lat="42.212623" lon="2.616015">
        <ele>195</ele>
        <time>2019-08-19T04:14:58Z</time>
      </trkpt>
      <trkpt lat="42.212634" lon="2.615921">
        <ele>194</ele>
        <time>2019-08-19T04:14:59Z</time>
      </trkpt>
      <trkpt lat="42.21263" lon="2.61562">
        <ele>194</ele>
        <time>2019-08-19T04:15:01Z</time>
      </trkpt>
      <trkpt lat="42.212609" lon="2.615522">
        <ele>194</ele>
        <time>2019-08-19T04:15:02Z</time>
      </trkpt>
      <trkpt lat="42.212588" lon="2.615424">
        <ele>194</ele>
        <time>2019-08-19T04:15:03Z</time>
      </trkpt>
      <trkpt lat="42.212567" lon="2.615326">
        <ele>194</ele>
        <time>2019-08-19T04:15:05Z</time>
      </trkpt>
      <trkpt lat="42.212545" lon="2.615228">
        <ele>194</ele>
        <time>2019-08-19T04:15:06Z</time>
      </trkpt>
      <trkpt lat="42.212524" lon="2.61513">
        <ele>194</ele>
        <time>2019-08-19T04:15:07Z</time>
      </trkpt>
      <trkpt lat="42.212503" lon="2.615032">
        <ele>194</ele>
        <time>2019-08-19T04:15:08Z</time>
      </trkpt>
      <trkpt lat="42.212482" lon="2.614934">
        <ele>193</ele>
        <time>2019-08-19T04:15:09Z</time>
      </trkpt>
      <trkpt lat="42.212355" lon="2.614773">
        <ele>193</ele>
        <time>2019-08-19T04:15:10Z</time>
      </trkpt>
      <trkpt lat="42.212296" lon="2.614728">
        <ele>193</ele>
        <time>2019-08-19T04:15:12Z</time>
      </trkpt>
      <trkpt lat="42.212237" lon="2.614683">
        <ele>193</ele>
        <time>2019-08-19T04:15:13Z</time>
      </trkpt>
      <trkpt lat="42.212178" lon="2.614638">
        <ele>193</ele>
        <time>2019-08-19T04:15:14Z</time>
      </trkpt>
      <trkpt lat="42.21212" lon="2.614592">
        <ele>193</ele>
        <time>2019-08-19T04:15:15Z</time>
      </trkpt>
      <trkpt lat="42.212061" lon="2.614547">
        <ele>193</ele>
        <time>2019-08-19T04:15:16Z</time>
      </trkpt>
      <trkpt lat="42.212002" lon="2.614502">
        <ele>193</ele>
        <time>2019-08-19T04:15:17Z</time>
      </trkpt>
      <trkpt lat="42.211943" lon="2.614457">
        <ele>193</ele>
        <time>2019-08-19T04:15:18Z</time>
      </trkpt>
      <trkpt lat="42.211884" lon="2.614412">
        <ele>193</ele>
        <time>2019-08-19T04:15:19Z</time>
      </trkpt>
      <trkpt lat="42.211769" lon="2.614277">
        <ele>193</ele>
        <time>2019-08-19T04:15:20Z</time>
      </trkpt>
      <trkpt lat="42.211727" lon="2.614181">
        <ele>193</ele>
        <time>2019-08-19T04:15:21Z</time>
      </trkpt>
      <trkpt lat="42.211685" lon="2.614085">
        <ele>193</ele>
        <time>2019-08-19T04:15:22Z</time>
      </trkpt>
      <trkpt lat="42.211643" lon="2.613989">
        <ele>193</ele>
        <time>2019-08-19T04:15:23Z</time>
      </trkpt>
      <trkpt lat="42.211602" lon="2.613893">
        <ele>193</ele>
        <time>2019-08-19T04:15:24Z</time>
      </trkpt>
      <trkpt lat="42.21156" lon="2.613797">
        <ele>193</ele>
        <time>2019-08-19T04:15:25Z</time>
      </trkpt>
      <trkpt lat="42.211518" lon="2.613701">
        <ele>193</ele>
        <time>2019-08-19T04:15:26Z</time>
      </trkpt>
      <trkpt lat="42.211476" lon="2.613605">
        <ele>193</ele>
        <time>2019-08-19T04:15:28Z</time>
      </trkpt>
      <trkpt lat="42.211434" lon="2.613509">
        <ele>191</ele>
        <time>2019-08-19T04:15:29Z</time>
      </trkpt>
      <trkpt lat="42.211492" lon="2.613357">
        <ele>191</ele>
        <time>2019-08-19T04:15:30Z</time>
      </trkpt>
      <trkpt lat="42.211536" lon="2.613315">
        <ele>191</ele>
        <time>2019-08-19T04:15:32Z</time>
      </trkpt>
      <trkpt lat="42.21158" lon="2.613273">
        <ele>191</ele>
        <time>2019-08-19T04:15:33Z</time>
      </trkpt>
      <trkpt lat="42.211624" lon="2.613231">
        <ele>191</ele>
        <time>2019-08-19T04:15:34Z</time>
      </trkpt>
      <trkpt lat="42.211667" lon="2.61319">
        <ele>191</ele>
        <time>2019-08-19T04:15:35Z</time>
      </trkpt>
      <trkpt lat="42.211711" lon="2.613148">
        <ele>191</ele>
        <time>2019-08-19T04:15:36Z</time>
      </trkpt>
      <trkpt lat="42.211755" lon="2.613106">
        <ele>191</ele>
        <time>2019-08-19T04:15:37Z</time>
      </trkpt>
      <trkpt lat="42.211799" lon="2.613064">
        <ele>191</ele>
        <time>2019-08-19T04:15:38Z</time>
      </trkpt>
      <trkpt lat="42.211843" lon="2.613022">
        <ele>190</ele>
        <time>2019-08-19T04:15:39Z</time>
      </trkpt>
      <trkpt lat="42.211864" lon="2.613044">
        <ele>190</ele>
        <time>2019-08-19T04:15:40Z</time>
      </trkpt>
      <trkpt lat="42.211875" lon="2.613059">
        <ele>190</ele>
        <time>2019-08-19T04:15:42Z</time>
      </trkpt>
      <trkpt lat="42.211885" lon="2.613075">
        <ele>190</ele>
        <time>2019-08-19T04:15:48Z</time>
      </trkpt>
      <trkpt lat="42.211896" lon="2.61309">
        <ele>190</ele>
        <time>2019-08-19T04:15:49Z</time>
      </trkpt>
      <trkpt lat="42.211981" lon="2.613142">
        <ele>190</ele>
        <time>2019-08-19T04:15:50Z</time>
      </trkpt>
      <trkpt lat="42.212023" lon="2.613145">
        <ele>190</ele>
        <time>2019-08-19T04:15:52Z</time>
      </trkpt>
      <trkpt lat="42.212065" lon="2.613148">
        <ele>190</ele>
        <time>2019-08-19T04:15:53Z</time>
      </trkpt>
      <trkpt lat="42.212106" lon="2.613151">
        <ele>190</ele>
        <time>2019-08-19T04:15:54Z</time>
      </trkpt>
      <trkpt lat="42.212148" lon="2.613154">
        <ele>190</ele>
        <time>2019-08-19T04:15:55Z</time>
      </trkpt>
      <trkpt lat="42.21219" lon="2.613157">
        <ele>190</ele>
        <time>2019-08-19T04:15:57Z</time>
      </trkpt>
      <trkpt lat="42.212232" lon="2.61316">
        <ele>191</ele>
        <time>2019-08-19T04:15:59Z</time>
      </trkpt>
      <trkpt lat="42.212289" lon="2.612974">
        <ele>191</ele>
        <time>2019-08-19T04:16:00Z</time>
      </trkpt>
      <trkpt lat="42.212296" lon="2.612894">
        <ele>191</ele>
        <time>2019-08-19T04:16:02Z</time>
      </trkpt>
      <trkpt lat="42.212303" lon="2.612815">
        <ele>191</ele>
        <time>2019-08-19T04:16:03Z</time>
      </trkpt>
      <trkpt lat="42.212309" lon="2.612736">
        <ele>191</ele>
        <time>2019-08-19T04:16:04Z</time>
      </trkpt>
      <trkpt lat="42.212316" lon="2.612657">
        <ele>191</ele>
        <time>2019-08-19T04:16:06Z</time>
      </trkpt>
      <trkpt lat="42.212323" lon="2.612577">
        <ele>191</ele>
        <time>2019-08-19T04:16:08Z</time>
      </trkpt>
      <trkpt lat="42.21233" lon="2.612498">
        <ele>191</ele>
        <time>2019-08-19T04:16:09Z</time>
      </trkpt>
      <trkpt lat="42.212419" lon="2.612417">
        <ele>191</ele>
        <time>2019-08-19T04:16:10Z</time>
      </trkpt>
      <trkpt lat="42.21246" lon="2.612404">
        <ele>191</ele>
        <time>2019-08-19T04:16:12Z</time>
      </trkpt>
      <trkpt lat="42.212501" lon="2.612392">
        <ele>191</ele>
        <time>2019-08-19T04:16:14Z</time>
      </trkpt>
      <trkpt lat="42.212543" lon="2.612379">
        <ele>191</ele>
        <time>2019-08-19T04:16:15Z</time>
      </trkpt>
      <trkpt lat="42.212584" lon="2.612367">
        <ele>191</ele>
        <time>2019-08-19T04:16:17Z</time>
      </trkpt>
      <trkpt lat="42.212625" lon="2.612354">
        <ele>191</ele>
        <time>2019-08-19T04:16:18Z</time>
      </trkpt>
      <trkpt lat="42.212666" lon="2.612342">
        <ele>191</ele>
        <time>2019-08-19T04:16:19Z</time>
      </trkpt>
      <trkpt lat="42.212773" lon="2.61231">
        <ele>191</ele>
        <time>2019-08-19T04:16:21Z</time>
      </trkpt>
      <trkpt lat="42.212813" lon="2.612289">
        <ele>191</ele>
        <time>2019-08-19T04:16:22Z</time>
      </trkpt>
      <trkpt lat="42.212854" lon="2.612268">
        <ele>191</ele>
        <time>2019-08-19T04:16:23Z</time>
      </trkpt>
      <trkpt lat="42.212895" lon="2.612247">
        <ele>191</ele>
        <time>2019-08-19T04:16:25Z</time>
      </trkpt>
      <trkpt lat="42.212935" lon="2.612226">
        <ele>191</ele>
        <time>2019-08-19T04:16:27Z</time>
      </trkpt>
      <trkpt lat="42.212976" lon="2.612205">
        <ele>193</ele>
        <time>2019-08-19T04:16:29Z</time>
      </trkpt>
      <trkpt lat="42.213016" lon="2.612129">
        <ele>193</ele>
        <time>2019-08-19T04:16:30Z</time>
      </trkpt>
      <trkpt lat="42.213032" lon="2.612083">
        <ele>193</ele>
        <time>2019-08-19T04:16:31Z</time>
      </trkpt>
      <trkpt lat="42.213048" lon="2.612036">
        <ele>193</ele>
        <time>2019-08-19T04:16:32Z</time>
      </trkpt>
      <trkpt lat="42.213064" lon="2.611989">
        <ele>193</ele>
        <time>2019-08-19T04:16:34Z</time>
      </trkpt>
      <trkpt lat="42.21308" lon="2.611942">
        <ele>193</ele>
        <time>2019-08-19T04:16:35Z</time>
      </trkpt>
      <trkpt lat="42.213096" lon="2.611896">
        <ele>193</ele>
        <time>2019-08-19T04:16:36Z</time>
      </trkpt>
      <trkpt lat="42.213112" lon="2.611849">
        <ele>193</ele>
        <time>2019-08-19T04:16:37Z</time>
      </trkpt>
      <trkpt lat="42.213128" lon="2.611802">
        <ele>194</ele>
        <time>2019-08-19T04:16:39Z</time>
      </trkpt>
      <trkpt lat="42.213151" lon="2.61165">
        <ele>194</ele>
        <time>2019-08-19T04:16:40Z</time>
      </trkpt>
      <trkpt lat="42.213157" lon="2.611592">
        <ele>194</ele>
        <time>2019-08-19T04:16:42Z</time>
      </trkpt>
      <trkpt lat="42.213163" lon="2.611534">
        <ele>194</ele>
        <time>2019-08-19T04:16:43Z</time>
      </trkpt>
      <trkpt lat="42.213169" lon="2.611476">
        <ele>194</ele>
        <time>2019-08-19T04:16:44Z</time>
      </trkpt>
      <trkpt lat="42.213174" lon="2.611417">
        <ele>194</ele>
        <time>2019-08-19T04:16:45Z</time>
      </trkpt>
      <trkpt lat="42.21318" lon="2.611359">
        <ele>194</ele>
        <time>2019-08-19T04:16:46Z</time>
      </trkpt>
      <trkpt lat="42.213186" lon="2.611301">
        <ele>194</ele>
        <time>2019-08-19T04:16:47Z</time>
      </trkpt>
      <trkpt lat="42.213192" lon="2.611243">
        <ele>194</ele>
        <time>2019-08-19T04:16:49Z</time>
      </trkpt>
      <trkpt lat="42.2132" lon="2.611153">
        <ele>194</ele>
        <time>2019-08-19T04:16:50Z</time>
      </trkpt>
      <trkpt lat="42.213205" lon="2.611103">
        <ele>194</ele>
        <time>2019-08-19T04:16:51Z</time>
      </trkpt>
      <trkpt lat="42.21321" lon="2.611052">
        <ele>194</ele>
        <time>2019-08-19T04:16:52Z</time>
      </trkpt>
      <trkpt lat="42.213215" lon="2.611001">
        <ele>194</ele>
        <time>2019-08-19T04:16:53Z</time>
      </trkpt>
      <trkpt lat="42.21322" lon="2.610951">
        <ele>194</ele>
        <time>2019-08-19T04:16:54Z</time>
      </trkpt>
      <trkpt lat="42.213225" lon="2.6109">
        <ele>194</ele>
        <time>2019-08-19T04:16:55Z</time>
      </trkpt>
      <trkpt lat="42.21323" lon="2.610849">
        <ele>194</ele>
        <time>2019-08-19T04:16:56Z</time>
      </trkpt>
      <trkpt lat="42.213235" lon="2.610798">
        <ele>194</ele>
        <time>2019-08-19T04:16:57Z</time>
      </trkpt>
      <trkpt lat="42.21324" lon="2.610748">
        <ele>194</ele>
        <time>2019-08-19T04:16:58Z</time>
      </trkpt>
      <trkpt lat="42.213245" lon="2.610697">
        <ele>195</ele>
        <time>2019-08-19T04:16:59Z</time>
      </trkpt>
      <trkpt lat="42.213258" lon="2.610577">
        <ele>195</ele>
        <time>2019-08-19T04:17:00Z</time>
      </trkpt>
      <trkpt lat="42.213265" lon="2.610511">
        <ele>195</ele>
        <time>2019-08-19T04:17:01Z</time>
      </trkpt>
      <trkpt lat="42.213273" lon="2.610446">
        <ele>195</ele>
        <time>2019-08-19T04:17:02Z</time>
      </trkpt>
      <trkpt lat="42.213281" lon="2.610381">
        <ele>195</ele>
        <time>2019-08-19T04:17:04Z</time>
      </trkpt>
      <trkpt lat="42.213288" lon="2.610315">
        <ele>195</ele>
        <time>2019-08-19T04:17:05Z</time>
      </trkpt>
      <trkpt lat="42.213296" lon="2.61025">
        <ele>195</ele>
        <time>2019-08-19T04:17:06Z</time>
      </trkpt>
      <trkpt lat="42.213304" lon="2.610185">
        <ele>195</ele>
        <time>2019-08-19T04:17:07Z</time>
      </trkpt>
      <trkpt lat="42.213311" lon="2.610119">
        <ele>195</ele>
        <time>2019-08-19T04:17:08Z</time>
      </trkpt>
      <trkpt lat="42.213319" lon="2.610054">
        <ele>195</ele>
        <time>2019-08-19T04:17:09Z</time>
      </trkpt>
      <trkpt lat="42.213335" lon="2.609944">
        <ele>195</ele>
        <time>2019-08-19T04:17:10Z</time>
      </trkpt>
      <trkpt lat="42.213345" lon="2.609891">
        <ele>195</ele>
        <time>2019-08-19T04:17:11Z</time>
      </trkpt>
      <trkpt lat="42.213354" lon="2.609839">
        <ele>195</ele>
        <time>2019-08-19T04:17:13Z</time>
      </trkpt>
      <trkpt lat="42.213364" lon="2.609786">
        <ele>195</ele>
        <time>2019-08-19T04:17:14Z</time>
      </trkpt>
      <trkpt lat="42.213373" lon="2.609734">
        <ele>195</ele>
        <time>2019-08-19T04:17:15Z</time>
      </trkpt>
      <trkpt lat="42.213382" lon="2.609682">
        <ele>195</ele>
        <time>2019-08-19T04:17:16Z</time>
      </trkpt>
      <trkpt lat="42.213392" lon="2.609629">
        <ele>195</ele>
        <time>2019-08-19T04:17:17Z</time>
      </trkpt>
      <trkpt lat="42.213401" lon="2.609577">
        <ele>195</ele>
        <time>2019-08-19T04:17:18Z</time>
      </trkpt>
      <trkpt lat="42.213411" lon="2.609524">
        <ele>195</ele>
        <time>2019-08-19T04:17:19Z</time>
      </trkpt>
      <trkpt lat="42.21342" lon="2.609472">
        <ele>195</ele>
        <time>2019-08-19T04:17:20Z</time>
      </trkpt>
      <trkpt lat="42.213433" lon="2.609358">
        <ele>195</ele>
        <time>2019-08-19T04:17:21Z</time>
      </trkpt>
      <trkpt lat="42.213438" lon="2.609316">
        <ele>195</ele>
        <time>2019-08-19T04:17:22Z</time>
      </trkpt>
      <trkpt lat="42.213443" lon="2.609274">
        <ele>195</ele>
        <time>2019-08-19T04:17:23Z</time>
      </trkpt>
      <trkpt lat="42.213448" lon="2.609232">
        <ele>195</ele>
        <time>2019-08-19T04:17:24Z</time>
      </trkpt>
      <trkpt lat="42.213452" lon="2.609189">
        <ele>195</ele>
        <time>2019-08-19T04:17:25Z</time>
      </trkpt>
      <trkpt lat="42.213457" lon="2.609147">
        <ele>195</ele>
        <time>2019-08-19T04:17:26Z</time>
      </trkpt>
      <trkpt lat="42.213462" lon="2.609105">
        <ele>195</ele>
        <time>2019-08-19T04:17:27Z</time>
      </trkpt>
      <trkpt lat="42.213467" lon="2.609063">
        <ele>195</ele>
        <time>2019-08-19T04:17:28Z</time>
      </trkpt>
      <trkpt lat="42.213472" lon="2.609021">
        <ele>195</ele>
        <time>2019-08-19T04:17:30Z</time>
      </trkpt>
      <trkpt lat="42.213479" lon="2.608946">
        <ele>195</ele>
        <time>2019-08-19T04:17:31Z</time>
      </trkpt>
      <trkpt lat="42.213482" lon="2.608914">
        <ele>195</ele>
        <time>2019-08-19T04:17:32Z</time>
      </trkpt>
      <trkpt lat="42.213486" lon="2.608881">
        <ele>195</ele>
        <time>2019-08-19T04:17:33Z</time>
      </trkpt>
      <trkpt lat="42.213489" lon="2.608848">
        <ele>195</ele>
        <time>2019-08-19T04:17:34Z</time>
      </trkpt>
      <trkpt lat="42.213492" lon="2.608816">
        <ele>195</ele>
        <time>2019-08-19T04:17:35Z</time>
      </trkpt>
      <trkpt lat="42.213495" lon="2.608783">
        <ele>195</ele>
        <time>2019-08-19T04:17:36Z</time>
      </trkpt>
      <trkpt lat="42.213499" lon="2.60875">
        <ele>195</ele>
        <time>2019-08-19T04:17:37Z</time>
      </trkpt>
      <trkpt lat="42.213502" lon="2.608718">
        <ele>195</ele>
        <time>2019-08-19T04:17:38Z</time>
      </trkpt>
      <trkpt lat="42.213505" lon="2.608685">
        <ele>196</ele>
        <time>2019-08-19T04:17:39Z</time>
      </trkpt>
      <trkpt lat="42.213512" lon="2.608629">
        <ele>196</ele>
        <time>2019-08-19T04:17:40Z</time>
      </trkpt>
      <trkpt lat="42.213516" lon="2.608593">
        <ele>196</ele>
        <time>2019-08-19T04:17:41Z</time>
      </trkpt>
      <trkpt lat="42.213521" lon="2.608558">
        <ele>196</ele>
        <time>2019-08-19T04:17:43Z</time>
      </trkpt>
      <trkpt lat="42.213525" lon="2.608522">
        <ele>196</ele>
        <time>2019-08-19T04:17:44Z</time>
      </trkpt>
      <trkpt lat="42.21353" lon="2.608486">
        <ele>196</ele>
        <time>2019-08-19T04:17:45Z</time>
      </trkpt>
      <trkpt lat="42.213534" lon="2.60845">
        <ele>196</ele>
        <time>2019-08-19T04:17:46Z</time>
      </trkpt>
      <trkpt lat="42.213539" lon="2.608415">
        <ele>196</ele>
        <time>2019-08-19T04:17:47Z</time>
      </trkpt>
      <trkpt lat="42.213543" lon="2.608379">
        <ele>196</ele>
        <time>2019-08-19T04:17:48Z</time>
      </trkpt>
      <trkpt lat="42.213548" lon="2.608343">
        <ele>197</ele>
        <time>2019-08-19T04:17:49Z</time>
      </trkpt>
      <trkpt lat="42.213558" lon="2.608284">
        <ele>197</ele>
        <time>2019-08-19T04:17:50Z</time>
      </trkpt>
      <trkpt lat="42.213564" lon="2.608255">
        <ele>197</ele>
        <time>2019-08-19T04:17:51Z</time>
      </trkpt>
      <trkpt lat="42.21357" lon="2.608227">
        <ele>197</ele>
        <time>2019-08-19T04:17:53Z</time>
      </trkpt>
      <trkpt lat="42.213577" lon="2.608199">
        <ele>197</ele>
        <time>2019-08-19T04:17:54Z</time>
      </trkpt>
      <trkpt lat="42.213583" lon="2.60817">
        <ele>197</ele>
        <time>2019-08-19T04:17:56Z</time>
      </trkpt>
      <trkpt lat="42.213589" lon="2.608142">
        <ele>197</ele>
        <time>2019-08-19T04:17:57Z</time>
      </trkpt>
      <trkpt lat="42.213595" lon="2.608113">
        <ele>197</ele>
        <time>2019-08-19T04:17:58Z</time>
      </trkpt>
      <trkpt lat="42.213601" lon="2.608085">
        <ele>200</ele>
        <time>2019-08-19T04:17:59Z</time>
      </trkpt>
      <trkpt lat="42.213617" lon="2.608032">
        <ele>200</ele>
        <time>2019-08-19T04:18:00Z</time>
      </trkpt>
      <trkpt lat="42.213627" lon="2.608006">
        <ele>200</ele>
        <time>2019-08-19T04:18:01Z</time>
      </trkpt>
      <trkpt lat="42.213636" lon="2.607979">
        <ele>200</ele>
        <time>2019-08-19T04:18:02Z</time>
      </trkpt>
      <trkpt lat="42.213646" lon="2.607953">
        <ele>200</ele>
        <time>2019-08-19T04:18:04Z</time>
      </trkpt>
      <trkpt lat="42.213655" lon="2.607927">
        <ele>200</ele>
        <time>2019-08-19T04:18:05Z</time>
      </trkpt>
      <trkpt lat="42.213665" lon="2.607901">
        <ele>200</ele>
        <time>2019-08-19T04:18:06Z</time>
      </trkpt>
      <trkpt lat="42.213674" lon="2.607874">
        <ele>200</ele>
        <time>2019-08-19T04:18:07Z</time>
      </trkpt>
      <trkpt lat="42.213684" lon="2.607848">
        <ele>200</ele>
        <time>2019-08-19T04:18:08Z</time>
      </trkpt>
      <trkpt lat="42.213693" lon="2.607822">
        <ele>201</ele>
        <time>2019-08-19T04:18:09Z</time>
      </trkpt>
      <trkpt lat="42.213716" lon="2.607772">
        <ele>201</ele>
        <time>2019-08-19T04:18:10Z</time>
      </trkpt>
      <trkpt lat="42.213728" lon="2.607747">
        <ele>201</ele>
        <time>2019-08-19T04:18:11Z</time>
      </trkpt>
      <trkpt lat="42.21374" lon="2.607723">
        <ele>201</ele>
        <time>2019-08-19T04:18:12Z</time>
      </trkpt>
      <trkpt lat="42.213752" lon="2.607698">
        <ele>201</ele>
        <time>2019-08-19T04:18:13Z</time>
      </trkpt>
      <trkpt lat="42.213765" lon="2.607674">
        <ele>201</ele>
        <time>2019-08-19T04:18:14Z</time>
      </trkpt>
      <trkpt lat="42.213777" lon="2.607649">
        <ele>201</ele>
        <time>2019-08-19T04:18:15Z</time>
      </trkpt>
      <trkpt lat="42.213789" lon="2.607625">
        <ele>201</ele>
        <time>2019-08-19T04:18:16Z</time>
      </trkpt>
      <trkpt lat="42.213801" lon="2.6076">
        <ele>201</ele>
        <time>2019-08-19T04:18:17Z</time>
      </trkpt>
      <trkpt lat="42.213813" lon="2.607576">
        <ele>201</ele>
        <time>2019-08-19T04:18:18Z</time>
      </trkpt>
      <trkpt lat="42.213825" lon="2.607551">
        <ele>203</ele>
        <time>2019-08-19T04:18:19Z</time>
      </trkpt>
      <trkpt lat="42.213853" lon="2.607506">
        <ele>203</ele>
        <time>2019-08-19T04:18:20Z</time>
      </trkpt>
      <trkpt lat="42.213866" lon="2.607484">
        <ele>203</ele>
        <time>2019-08-19T04:18:21Z</time>
      </trkpt>
      <trkpt lat="42.21388" lon="2.607461">
        <ele>203</ele>
        <time>2019-08-19T04:18:22Z</time>
      </trkpt>
      <trkpt lat="42.213894" lon="2.607439">
        <ele>203</ele>
        <time>2019-08-19T04:18:24Z</time>
      </trkpt>
      <trkpt lat="42.213907" lon="2.607417">
        <ele>203</ele>
        <time>2019-08-19T04:18:25Z</time>
      </trkpt>
      <trkpt lat="42.213921" lon="2.607395">
        <ele>203</ele>
        <time>2019-08-19T04:18:26Z</time>
      </trkpt>
      <trkpt lat="42.213934" lon="2.607372">
        <ele>203</ele>
        <time>2019-08-19T04:18:28Z</time>
      </trkpt>
      <trkpt lat="42.213948" lon="2.60735">
        <ele>206</ele>
        <time>2019-08-19T04:18:29Z</time>
      </trkpt>
      <trkpt lat="42.213977" lon="2.607304">
        <ele>206</ele>
        <time>2019-08-19T04:18:30Z</time>
      </trkpt>
      <trkpt lat="42.213992" lon="2.60728">
        <ele>206</ele>
        <time>2019-08-19T04:18:31Z</time>
      </trkpt>
      <trkpt lat="42.214007" lon="2.607255">
        <ele>206</ele>
        <time>2019-08-19T04:18:33Z</time>
      </trkpt>
      <trkpt lat="42.214022" lon="2.60723">
        <ele>206</ele>
        <time>2019-08-19T04:18:34Z</time>
      </trkpt>
      <trkpt lat="42.214036" lon="2.607206">
        <ele>206</ele>
        <time>2019-08-19T04:18:35Z</time>
      </trkpt>
      <trkpt lat="42.214051" lon="2.607181">
        <ele>206</ele>
        <time>2019-08-19T04:18:36Z</time>
      </trkpt>
      <trkpt lat="42.214066" lon="2.607156">
        <ele>206</ele>
        <time>2019-08-19T04:18:37Z</time>
      </trkpt>
      <trkpt lat="42.214081" lon="2.607132">
        <ele>206</ele>
        <time>2019-08-19T04:18:38Z</time>
      </trkpt>
      <trkpt lat="42.214096" lon="2.607107">
        <ele>208</ele>
        <time>2019-08-19T04:18:39Z</time>
      </trkpt>
      <trkpt lat="42.214122" lon="2.607058">
        <ele>208</ele>
        <time>2019-08-19T04:18:40Z</time>
      </trkpt>
      <trkpt lat="42.214136" lon="2.607033">
        <ele>208</ele>
        <time>2019-08-19T04:18:41Z</time>
      </trkpt>
      <trkpt lat="42.214149" lon="2.607007">
        <ele>208</ele>
        <time>2019-08-19T04:18:42Z</time>
      </trkpt>
      <trkpt lat="42.214163" lon="2.606982">
        <ele>208</ele>
        <time>2019-08-19T04:18:44Z</time>
      </trkpt>
      <trkpt lat="42.214176" lon="2.606956">
        <ele>208</ele>
        <time>2019-08-19T04:18:45Z</time>
      </trkpt>
      <trkpt lat="42.214189" lon="2.60693">
        <ele>208</ele>
        <time>2019-08-19T04:18:47Z</time>
      </trkpt>
      <trkpt lat="42.214203" lon="2.606905">
        <ele>208</ele>
        <time>2019-08-19T04:18:48Z</time>
      </trkpt>
      <trkpt lat="42.214216" lon="2.606879">
        <ele>211</ele>
        <time>2019-08-19T04:18:49Z</time>
      </trkpt>
      <trkpt lat="42.214242" lon="2.606815">
        <ele>211</ele>
        <time>2019-08-19T04:18:50Z</time>
      </trkpt>
      <trkpt lat="42.214251" lon="2.606788">
        <ele>211</ele>
        <time>2019-08-19T04:18:52Z</time>
      </trkpt>
      <trkpt lat="42.214261" lon="2.606762">
        <ele>211</ele>
        <time>2019-08-19T04:18:54Z</time>
      </trkpt>
      <trkpt lat="42.214271" lon="2.606736">
        <ele>211</ele>
        <time>2019-08-19T04:18:55Z</time>
      </trkpt>
      <trkpt lat="42.21428" lon="2.606709">
        <ele>211</ele>
        <time>2019-08-19T04:18:56Z</time>
      </trkpt>
      <trkpt lat="42.21429" lon="2.606683">
        <ele>211</ele>
        <time>2019-08-19T04:18:57Z</time>
      </trkpt>
      <trkpt lat="42.214299" lon="2.606656">
        <ele>211</ele>
        <time>2019-08-19T04:18:58Z</time>
      </trkpt>
      <trkpt lat="42.214309" lon="2.60663">
        <ele>213</ele>
        <time>2019-08-19T04:18:59Z</time>
      </trkpt>
      <trkpt lat="42.214323" lon="2.606576">
        <ele>213</ele>
        <time>2019-08-19T04:19:00Z</time>
      </trkpt>
      <trkpt lat="42.21433" lon="2.60655">
        <ele>213</ele>
        <time>2019-08-19T04:19:01Z</time>
      </trkpt>
      <trkpt lat="42.214337" lon="2.606523">
        <ele>213</ele>
        <time>2019-08-19T04:19:02Z</time>
      </trkpt>
      <trkpt lat="42.214344" lon="2.606496">
        <ele>213</ele>
        <time>2019-08-19T04:19:03Z</time>
      </trkpt>
      <trkpt lat="42.214351" lon="2.60647">
        <ele>213</ele>
        <time>2019-08-19T04:19:04Z</time>
      </trkpt>
      <trkpt lat="42.214357" lon="2.606443">
        <ele>213</ele>
        <time>2019-08-19T04:19:05Z</time>
      </trkpt>
      <trkpt lat="42.214364" lon="2.606416">
        <ele>213</ele>
        <time>2019-08-19T04:19:06Z</time>
      </trkpt>
      <trkpt lat="42.214371" lon="2.606389">
        <ele>213</ele>
        <time>2019-08-19T04:19:07Z</time>
      </trkpt>
      <trkpt lat="42.214378" lon="2.606363">
        <ele>213</ele>
        <time>2019-08-19T04:19:08Z</time>
      </trkpt>
      <trkpt lat="42.214385" lon="2.606336">
        <ele>214</ele>
        <time>2019-08-19T04:19:09Z</time>
      </trkpt>
      <trkpt lat="42.214396" lon="2.606293">
        <ele>214</ele>
        <time>2019-08-19T04:19:10Z</time>
      </trkpt>
      <trkpt lat="42.214403" lon="2.606265">
        <ele>214</ele>
        <time>2019-08-19T04:19:11Z</time>
      </trkpt>
      <trkpt lat="42.21441" lon="2.606236">
        <ele>214</ele>
        <time>2019-08-19T04:19:12Z</time>
      </trkpt>
      <trkpt lat="42.214417" lon="2.606208">
        <ele>214</ele>
        <time>2019-08-19T04:19:14Z</time>
      </trkpt>
      <trkpt lat="42.214423" lon="2.606179">
        <ele>214</ele>
        <time>2019-08-19T04:19:15Z</time>
      </trkpt>
      <trkpt lat="42.21443" lon="2.606151">
        <ele>214</ele>
        <time>2019-08-19T04:19:16Z</time>
      </trkpt>
      <trkpt lat="42.214437" lon="2.606122">
        <ele>214</ele>
        <time>2019-08-19T04:19:17Z</time>
      </trkpt>
      <trkpt lat="42.214444" lon="2.606094">
        <ele>214</ele>
        <time>2019-08-19T04:19:18Z</time>
      </trkpt>
      <trkpt lat="42.214451" lon="2.606065">
        <ele>216</ele>
        <time>2019-08-19T04:19:19Z</time>
      </trkpt>
      <trkpt lat="42.214466" lon="2.606011">
        <ele>216</ele>
        <time>2019-08-19T04:19:20Z</time>
      </trkpt>
      <trkpt lat="42.214475" lon="2.605986">
        <ele>216</ele>
        <time>2019-08-19T04:19:21Z</time>
      </trkpt>
      <trkpt lat="42.214483" lon="2.605961">
        <ele>216</ele>
        <time>2019-08-19T04:19:22Z</time>
      </trkpt>
      <trkpt lat="42.214492" lon="2.605936">
        <ele>216</ele>
        <time>2019-08-19T04:19:23Z</time>
      </trkpt>
      <trkpt lat="42.2145" lon="2.605912">
        <ele>216</ele>
        <time>2019-08-19T04:19:24Z</time>
      </trkpt>
      <trkpt lat="42.214508" lon="2.605887">
        <ele>216</ele>
        <time>2019-08-19T04:19:25Z</time>
      </trkpt>
      <trkpt lat="42.214517" lon="2.605862">
        <ele>216</ele>
        <time>2019-08-19T04:19:26Z</time>
      </trkpt>
      <trkpt lat="42.214525" lon="2.605837">
        <ele>216</ele>
        <time>2019-08-19T04:19:27Z</time>
      </trkpt>
      <trkpt lat="42.214534" lon="2.605812">
        <ele>216</ele>
        <time>2019-08-19T04:19:28Z</time>
      </trkpt>
      <trkpt lat="42.214542" lon="2.605787">
        <ele>219</ele>
        <time>2019-08-19T04:19:29Z</time>
      </trkpt>
      <trkpt lat="42.214567" lon="2.605727">
        <ele>219</ele>
        <time>2019-08-19T04:19:30Z</time>
      </trkpt>
      <trkpt lat="42.214582" lon="2.605695">
        <ele>219</ele>
        <time>2019-08-19T04:19:31Z</time>
      </trkpt>
      <trkpt lat="42.214597" lon="2.605662">
        <ele>219</ele>
        <time>2019-08-19T04:19:32Z</time>
      </trkpt>
      <trkpt lat="42.214613" lon="2.60563">
        <ele>219</ele>
        <time>2019-08-19T04:19:33Z</time>
      </trkpt>
      <trkpt lat="42.214628" lon="2.605598">
        <ele>219</ele>
        <time>2019-08-19T04:19:34Z</time>
      </trkpt>
      <trkpt lat="42.214643" lon="2.605566">
        <ele>219</ele>
        <time>2019-08-19T04:19:36Z</time>
      </trkpt>
      <trkpt lat="42.214658" lon="2.605533">
        <ele>219</ele>
        <time>2019-08-19T04:19:38Z</time>
      </trkpt>
      <trkpt lat="42.214673" lon="2.605501">
        <ele>222</ele>
        <time>2019-08-19T04:19:39Z</time>
      </trkpt>
      <trkpt lat="42.214695" lon="2.605461">
        <ele>222</ele>
        <time>2019-08-19T04:19:40Z</time>
      </trkpt>
      <trkpt lat="42.21471" lon="2.605434">
        <ele>222</ele>
        <time>2019-08-19T04:19:41Z</time>
      </trkpt>
      <trkpt lat="42.214725" lon="2.605408">
        <ele>222</ele>
        <time>2019-08-19T04:19:42Z</time>
      </trkpt>
      <trkpt lat="42.21474" lon="2.605381">
        <ele>222</ele>
        <time>2019-08-19T04:19:43Z</time>
      </trkpt>
      <trkpt lat="42.214755" lon="2.605355">
        <ele>222</ele>
        <time>2019-08-19T04:19:44Z</time>
      </trkpt>
      <trkpt lat="42.21477" lon="2.605328">
        <ele>222</ele>
        <time>2019-08-19T04:19:45Z</time>
      </trkpt>
      <trkpt lat="42.214785" lon="2.605302">
        <ele>222</ele>
        <time>2019-08-19T04:19:46Z</time>
      </trkpt>
      <trkpt lat="42.2148" lon="2.605275">
        <ele>222</ele>
        <time>2019-08-19T04:19:48Z</time>
      </trkpt>
      <trkpt lat="42.214815" lon="2.605249">
        <ele>223</ele>
        <time>2019-08-19T04:19:49Z</time>
      </trkpt>
      <trkpt lat="42.21486" lon="2.605156">
        <ele>223</ele>
        <time>2019-08-19T04:19:51Z</time>
      </trkpt>
      <trkpt lat="42.214876" lon="2.605119">
        <ele>223</ele>
        <time>2019-08-19T04:19:52Z</time>
      </trkpt>
      <trkpt lat="42.214893" lon="2.605081">
        <ele>223</ele>
        <time>2019-08-19T04:19:54Z</time>
      </trkpt>
      <trkpt lat="42.21491" lon="2.605043">
        <ele>223</ele>
        <time>2019-08-19T04:19:55Z</time>
      </trkpt>
      <trkpt lat="42.214926" lon="2.605006">
        <ele>223</ele>
        <time>2019-08-19T04:19:57Z</time>
      </trkpt>
      <trkpt lat="42.214943" lon="2.604968">
        <ele>223</ele>
        <time>2019-08-19T04:19:59Z</time>
      </trkpt>
      <trkpt lat="42.214979" lon="2.604872">
        <ele>223</ele>
        <time>2019-08-19T04:20:00Z</time>
      </trkpt>
      <trkpt lat="42.214991" lon="2.604835">
        <ele>223</ele>
        <time>2019-08-19T04:20:02Z</time>
      </trkpt>
      <trkpt lat="42.215003" lon="2.604797">
        <ele>223</ele>
        <time>2019-08-19T04:20:03Z</time>
      </trkpt>
      <trkpt lat="42.215016" lon="2.604759">
        <ele>223</ele>
        <time>2019-08-19T04:20:05Z</time>
      </trkpt>
      <trkpt lat="42.215028" lon="2.604721">
        <ele>223</ele>
        <time>2019-08-19T04:20:06Z</time>
      </trkpt>
      <trkpt lat="42.21504" lon="2.604684">
        <ele>223</ele>
        <time>2019-08-19T04:20:07Z</time>
      </trkpt>
      <trkpt lat="42.215052" lon="2.604646">
        <ele>225</ele>
        <time>2019-08-19T04:20:09Z</time>
      </trkpt>
      <trkpt lat="42.215068" lon="2.604585">
        <ele>225</ele>
        <time>2019-08-19T04:20:11Z</time>
      </trkpt>
      <trkpt lat="42.215076" lon="2.604555">
        <ele>225</ele>
        <time>2019-08-19T04:20:12Z</time>
      </trkpt>
      <trkpt lat="42.215083" lon="2.604524">
        <ele>225</ele>
        <time>2019-08-19T04:20:13Z</time>
      </trkpt>
      <trkpt lat="42.21509" lon="2.604493">
        <ele>225</ele>
        <time>2019-08-19T04:20:14Z</time>
      </trkpt>
      <trkpt lat="42.215097" lon="2.604462">
        <ele>225</ele>
        <time>2019-08-19T04:20:15Z</time>
      </trkpt>
      <trkpt lat="42.215105" lon="2.604432">
        <ele>225</ele>
        <time>2019-08-19T04:20:16Z</time>
      </trkpt>
      <trkpt lat="42.215112" lon="2.604401">
        <ele>225</ele>
        <time>2019-08-19T04:20:18Z</time>
      </trkpt>
      <trkpt lat="42.215119" lon="2.60437">
        <ele>228</ele>
        <time>2019-08-19T04:20:19Z</time>
      </trkpt>
      <trkpt lat="42.215129" lon="2.604301">
        <ele>228</ele>
        <time>2019-08-19T04:20:20Z</time>
      </trkpt>
      <trkpt lat="42.215132" lon="2.604262">
        <ele>228</ele>
        <time>2019-08-19T04:20:21Z</time>
      </trkpt>
      <trkpt lat="42.215136" lon="2.604224">
        <ele>228</ele>
        <time>2019-08-19T04:20:22Z</time>
      </trkpt>
      <trkpt lat="42.215139" lon="2.604185">
        <ele>228</ele>
        <time>2019-08-19T04:20:23Z</time>
      </trkpt>
      <trkpt lat="42.215143" lon="2.604147">
        <ele>228</ele>
        <time>2019-08-19T04:20:24Z</time>
      </trkpt>
      <trkpt lat="42.215146" lon="2.604108">
        <ele>228</ele>
        <time>2019-08-19T04:20:25Z</time>
      </trkpt>
      <trkpt lat="42.21515" lon="2.60407">
        <ele>228</ele>
        <time>2019-08-19T04:20:27Z</time>
      </trkpt>
      <trkpt lat="42.215153" lon="2.604031">
        <ele>228</ele>
        <time>2019-08-19T04:20:29Z</time>
      </trkpt>
      <trkpt lat="42.215157" lon="2.603993">
        <ele>229</ele>
        <time>2019-08-19T04:20:30Z</time>
      </trkpt>
      <trkpt lat="42.21516" lon="2.603913">
        <ele>229</ele>
        <time>2019-08-19T04:20:31Z</time>
      </trkpt>
      <trkpt lat="42.215161" lon="2.603885">
        <ele>229</ele>
        <time>2019-08-19T04:20:32Z</time>
      </trkpt>
      <trkpt lat="42.215161" lon="2.603856">
        <ele>229</ele>
        <time>2019-08-19T04:20:33Z</time>
      </trkpt>
      <trkpt lat="42.215161" lon="2.603827">
        <ele>229</ele>
        <time>2019-08-19T04:20:34Z</time>
      </trkpt>
      <trkpt lat="42.215162" lon="2.603799">
        <ele>229</ele>
        <time>2019-08-19T04:20:35Z</time>
      </trkpt>
      <trkpt lat="42.215162" lon="2.60377">
        <ele>229</ele>
        <time>2019-08-19T04:20:36Z</time>
      </trkpt>
      <trkpt lat="42.215162" lon="2.603741">
        <ele>229</ele>
        <time>2019-08-19T04:20:37Z</time>
      </trkpt>
      <trkpt lat="42.215163" lon="2.603713">
        <ele>229</ele>
        <time>2019-08-19T04:20:38Z</time>
      </trkpt>
      <trkpt lat="42.215163" lon="2.603684">
        <ele>231</ele>
        <time>2019-08-19T04:20:39Z</time>
      </trkpt>
      <trkpt lat="42.21516" lon="2.603603">
        <ele>231</ele>
        <time>2019-08-19T04:20:41Z</time>
      </trkpt>
      <trkpt lat="42.215158" lon="2.603569">
        <ele>231</ele>
        <time>2019-08-19T04:20:42Z</time>
      </trkpt>
      <trkpt lat="42.215157" lon="2.603535">
        <ele>231</ele>
        <time>2019-08-19T04:20:43Z</time>
      </trkpt>
      <trkpt lat="42.215156" lon="2.6035">
        <ele>231</ele>
        <time>2019-08-19T04:20:44Z</time>
      </trkpt>
      <trkpt lat="42.215154" lon="2.603466">
        <ele>231</ele>
        <time>2019-08-19T04:20:45Z</time>
      </trkpt>
      <trkpt lat="42.215153" lon="2.603432">
        <ele>231</ele>
        <time>2019-08-19T04:20:46Z</time>
      </trkpt>
      <trkpt lat="42.215151" lon="2.603398">
        <ele>231</ele>
        <time>2019-08-19T04:20:48Z</time>
      </trkpt>
      <trkpt lat="42.21515" lon="2.603364">
        <ele>232</ele>
        <time>2019-08-19T04:20:49Z</time>
      </trkpt>
      <trkpt lat="42.215147" lon="2.603293">
        <ele>232</ele>
        <time>2019-08-19T04:20:50Z</time>
      </trkpt>
      <trkpt lat="42.215146" lon="2.603255">
        <ele>232</ele>
        <time>2019-08-19T04:20:51Z</time>
      </trkpt>
      <trkpt lat="42.215144" lon="2.603218">
        <ele>232</ele>
        <time>2019-08-19T04:20:53Z</time>
      </trkpt>
      <trkpt lat="42.215143" lon="2.60318">
        <ele>232</ele>
        <time>2019-08-19T04:20:54Z</time>
      </trkpt>
      <trkpt lat="42.215141" lon="2.603142">
        <ele>232</ele>
        <time>2019-08-19T04:20:55Z</time>
      </trkpt>
      <trkpt lat="42.21514" lon="2.603104">
        <ele>232</ele>
        <time>2019-08-19T04:20:56Z</time>
      </trkpt>
      <trkpt lat="42.215138" lon="2.603067">
        <ele>232</ele>
        <time>2019-08-19T04:20:57Z</time>
      </trkpt>
      <trkpt lat="42.215137" lon="2.603029">
        <ele>232</ele>
        <time>2019-08-19T04:20:58Z</time>
      </trkpt>
      <trkpt lat="42.215135" lon="2.602991">
        <ele>235</ele>
        <time>2019-08-19T04:20:59Z</time>
      </trkpt>
      <trkpt lat="42.215134" lon="2.602919">
        <ele>235</ele>
        <time>2019-08-19T04:21:00Z</time>
      </trkpt>
      <trkpt lat="42.215133" lon="2.602882">
        <ele>235</ele>
        <time>2019-08-19T04:21:02Z</time>
      </trkpt>
      <trkpt lat="42.215133" lon="2.602846">
        <ele>235</ele>
        <time>2019-08-19T04:21:03Z</time>
      </trkpt>
      <trkpt lat="42.215133" lon="2.602809">
        <ele>235</ele>
        <time>2019-08-19T04:21:04Z</time>
      </trkpt>
      <trkpt lat="42.215132" lon="2.602772">
        <ele>235</ele>
        <time>2019-08-19T04:21:06Z</time>
      </trkpt>
      <trkpt lat="42.215132" lon="2.602735">
        <ele>235</ele>
        <time>2019-08-19T04:21:07Z</time>
      </trkpt>
      <trkpt lat="42.215131" lon="2.602699">
        <ele>235</ele>
        <time>2019-08-19T04:21:08Z</time>
      </trkpt>
      <trkpt lat="42.215131" lon="2.602662">
        <ele>236</ele>
        <time>2019-08-19T04:21:09Z</time>
      </trkpt>
      <trkpt lat="42.215129" lon="2.602577">
        <ele>236</ele>
        <time>2019-08-19T04:21:10Z</time>
      </trkpt>
      <trkpt lat="42.215128" lon="2.602543">
        <ele>236</ele>
        <time>2019-08-19T04:21:12Z</time>
      </trkpt>
      <trkpt lat="42.215127" lon="2.602509">
        <ele>236</ele>
        <time>2019-08-19T04:21:13Z</time>
      </trkpt>
      <trkpt lat="42.215126" lon="2.602475">
        <ele>236</ele>
        <time>2019-08-19T04:21:14Z</time>
      </trkpt>
      <trkpt lat="42.215124" lon="2.602441">
        <ele>236</ele>
        <time>2019-08-19T04:21:15Z</time>
      </trkpt>
      <trkpt lat="42.215123" lon="2.602407">
        <ele>236</ele>
        <time>2019-08-19T04:21:16Z</time>
      </trkpt>
      <trkpt lat="42.215122" lon="2.602373">
        <ele>236</ele>
        <time>2019-08-19T04:21:18Z</time>
      </trkpt>
      <trkpt lat="42.215121" lon="2.602339">
        <ele>237</ele>
        <time>2019-08-19T04:21:19Z</time>
      </trkpt>
      <trkpt lat="42.215118" lon="2.602271">
        <ele>237</ele>
        <time>2019-08-19T04:21:20Z</time>
      </trkpt>
      <trkpt lat="42.215117" lon="2.602236">
        <ele>237</ele>
        <time>2019-08-19T04:21:21Z</time>
      </trkpt>
      <trkpt lat="42.215117" lon="2.602201">
        <ele>237</ele>
        <time>2019-08-19T04:21:22Z</time>
      </trkpt>
      <trkpt lat="42.215116" lon="2.602166">
        <ele>237</ele>
        <time>2019-08-19T04:21:23Z</time>
      </trkpt>
      <trkpt lat="42.215115" lon="2.602132">
        <ele>237</ele>
        <time>2019-08-19T04:21:24Z</time>
      </trkpt>
      <trkpt lat="42.215114" lon="2.602097">
        <ele>237</ele>
        <time>2019-08-19T04:21:25Z</time>
      </trkpt>
      <trkpt lat="42.215114" lon="2.602062">
        <ele>237</ele>
        <time>2019-08-19T04:21:27Z</time>
      </trkpt>
      <trkpt lat="42.215113" lon="2.602027">
        <ele>237</ele>
        <time>2019-08-19T04:21:28Z</time>
      </trkpt>
      <trkpt lat="42.215112" lon="2.601992">
        <ele>239</ele>
        <time>2019-08-19T04:21:29Z</time>
      </trkpt>
      <trkpt lat="42.21511" lon="2.601907">
        <ele>239</ele>
        <time>2019-08-19T04:21:30Z</time>
      </trkpt>
      <trkpt lat="42.21511" lon="2.601874">
        <ele>239</ele>
        <time>2019-08-19T04:21:32Z</time>
      </trkpt>
      <trkpt lat="42.215109" lon="2.60184">
        <ele>239</ele>
        <time>2019-08-19T04:21:33Z</time>
      </trkpt>
      <trkpt lat="42.215108" lon="2.601806">
        <ele>239</ele>
        <time>2019-08-19T04:21:34Z</time>
      </trkpt>
      <trkpt lat="42.215107" lon="2.601773">
        <ele>239</ele>
        <time>2019-08-19T04:21:35Z</time>
      </trkpt>
      <trkpt lat="42.215107" lon="2.601739">
        <ele>239</ele>
        <time>2019-08-19T04:21:36Z</time>
      </trkpt>
      <trkpt lat="42.215106" lon="2.601706">
        <ele>239</ele>
        <time>2019-08-19T04:21:38Z</time>
      </trkpt>
      <trkpt lat="42.215105" lon="2.601672">
        <ele>241</ele>
        <time>2019-08-19T04:21:39Z</time>
      </trkpt>
      <trkpt lat="42.215107" lon="2.601604">
        <ele>241</ele>
        <time>2019-08-19T04:21:40Z</time>
      </trkpt>
      <trkpt lat="42.21511" lon="2.60157">
        <ele>241</ele>
        <time>2019-08-19T04:21:41Z</time>
      </trkpt>
      <trkpt lat="42.215113" lon="2.601535">
        <ele>241</ele>
        <time>2019-08-19T04:21:42Z</time>
      </trkpt>
      <trkpt lat="42.215116" lon="2.6015">
        <ele>241</ele>
        <time>2019-08-19T04:21:44Z</time>
      </trkpt>
      <trkpt lat="42.215119" lon="2.601466">
        <ele>241</ele>
        <time>2019-08-19T04:21:45Z</time>
      </trkpt>
      <trkpt lat="42.215122" lon="2.601431">
        <ele>241</ele>
        <time>2019-08-19T04:21:46Z</time>
      </trkpt>
      <trkpt lat="42.215125" lon="2.601396">
        <ele>241</ele>
        <time>2019-08-19T04:21:47Z</time>
      </trkpt>
      <trkpt lat="42.215128" lon="2.601362">
        <ele>241</ele>
        <time>2019-08-19T04:21:48Z</time>
      </trkpt>
      <trkpt lat="42.215131" lon="2.601327">
        <ele>243</ele>
        <time>2019-08-19T04:21:49Z</time>
      </trkpt>
      <trkpt lat="42.215152" lon="2.601215">
        <ele>243</ele>
        <time>2019-08-19T04:21:51Z</time>
      </trkpt>
      <trkpt lat="42.215162" lon="2.601173">
        <ele>243</ele>
        <time>2019-08-19T04:21:52Z</time>
      </trkpt>
      <trkpt lat="42.215171" lon="2.601132">
        <ele>243</ele>
        <time>2019-08-19T04:21:53Z</time>
      </trkpt>
      <trkpt lat="42.215181" lon="2.60109">
        <ele>243</ele>
        <time>2019-08-19T04:21:54Z</time>
      </trkpt>
      <trkpt lat="42.215191" lon="2.601049">
        <ele>243</ele>
        <time>2019-08-19T04:21:55Z</time>
      </trkpt>
      <trkpt lat="42.215201" lon="2.601007">
        <ele>243</ele>
        <time>2019-08-19T04:21:57Z</time>
      </trkpt>
      <trkpt lat="42.21521" lon="2.600966">
        <ele>243</ele>
        <time>2019-08-19T04:21:58Z</time>
      </trkpt>
      <trkpt lat="42.21522" lon="2.600924">
        <ele>243</ele>
        <time>2019-08-19T04:21:59Z</time>
      </trkpt>
      <trkpt lat="42.215241" lon="2.60084">
        <ele>243</ele>
        <time>2019-08-19T04:22:00Z</time>
      </trkpt>
      <trkpt lat="42.21525" lon="2.600801">
        <ele>243</ele>
        <time>2019-08-19T04:22:01Z</time>
      </trkpt>
      <trkpt lat="42.21526" lon="2.600762">
        <ele>243</ele>
        <time>2019-08-19T04:22:02Z</time>
      </trkpt>
      <trkpt lat="42.215269" lon="2.600723">
        <ele>243</ele>
        <time>2019-08-19T04:22:03Z</time>
      </trkpt>
      <trkpt lat="42.215278" lon="2.600684">
        <ele>243</ele>
        <time>2019-08-19T04:22:04Z</time>
      </trkpt>
      <trkpt lat="42.215287" lon="2.600645">
        <ele>243</ele>
        <time>2019-08-19T04:22:05Z</time>
      </trkpt>
      <trkpt lat="42.215296" lon="2.600606">
        <ele>243</ele>
        <time>2019-08-19T04:22:06Z</time>
      </trkpt>
      <trkpt lat="42.215306" lon="2.600567">
        <ele>243</ele>
        <time>2019-08-19T04:22:07Z</time>
      </trkpt>
      <trkpt lat="42.215315" lon="2.600528">
        <ele>243</ele>
        <time>2019-08-19T04:22:08Z</time>
      </trkpt>
      <trkpt lat="42.215324" lon="2.600489">
        <ele>243</ele>
        <time>2019-08-19T04:22:09Z</time>
      </trkpt>
      <trkpt lat="42.215342" lon="2.600392">
        <ele>243</ele>
        <time>2019-08-19T04:22:10Z</time>
      </trkpt>
      <trkpt lat="42.215354" lon="2.600341">
        <ele>243</ele>
        <time>2019-08-19T04:22:11Z</time>
      </trkpt>
      <trkpt lat="42.215365" lon="2.60029">
        <ele>243</ele>
        <time>2019-08-19T04:22:12Z</time>
      </trkpt>
      <trkpt lat="42.215376" lon="2.600239">
        <ele>243</ele>
        <time>2019-08-19T04:22:13Z</time>
      </trkpt>
      <trkpt lat="42.215388" lon="2.600189">
        <ele>243</ele>
        <time>2019-08-19T04:22:15Z</time>
      </trkpt>
      <trkpt lat="42.215399" lon="2.600138">
        <ele>243</ele>
        <time>2019-08-19T04:22:16Z</time>
      </trkpt>
      <trkpt lat="42.21541" lon="2.600087">
        <ele>243</ele>
        <time>2019-08-19T04:22:17Z</time>
      </trkpt>
      <trkpt lat="42.215422" lon="2.600036">
        <ele>243</ele>
        <time>2019-08-19T04:22:18Z</time>
      </trkpt>
      <trkpt lat="42.215433" lon="2.599985">
        <ele>243</ele>
        <time>2019-08-19T04:22:19Z</time>
      </trkpt>
      <trkpt lat="42.215455" lon="2.599876">
        <ele>243</ele>
        <time>2019-08-19T04:22:20Z</time>
      </trkpt>
      <trkpt lat="42.215466" lon="2.599821">
        <ele>243</ele>
        <time>2019-08-19T04:22:21Z</time>
      </trkpt>
      <trkpt lat="42.215477" lon="2.599767">
        <ele>243</ele>
        <time>2019-08-19T04:22:22Z</time>
      </trkpt>
      <trkpt lat="42.215488" lon="2.599712">
        <ele>243</ele>
        <time>2019-08-19T04:22:23Z</time>
      </trkpt>
      <trkpt lat="42.215499" lon="2.599658">
        <ele>243</ele>
        <time>2019-08-19T04:22:24Z</time>
      </trkpt>
      <trkpt lat="42.21551" lon="2.599603">
        <ele>243</ele>
        <time>2019-08-19T04:22:25Z</time>
      </trkpt>
      <trkpt lat="42.215521" lon="2.599549">
        <ele>243</ele>
        <time>2019-08-19T04:22:26Z</time>
      </trkpt>
      <trkpt lat="42.215532" lon="2.599494">
        <ele>243</ele>
        <time>2019-08-19T04:22:27Z</time>
      </trkpt>
      <trkpt lat="42.215543" lon="2.59944">
        <ele>243</ele>
        <time>2019-08-19T04:22:28Z</time>
      </trkpt>
      <trkpt lat="42.215554" lon="2.599385">
        <ele>244</ele>
        <time>2019-08-19T04:22:29Z</time>
      </trkpt>
      <trkpt lat="42.215569" lon="2.599302">
        <ele>244</ele>
        <time>2019-08-19T04:22:30Z</time>
      </trkpt>
      <trkpt lat="42.215579" lon="2.59925">
        <ele>244</ele>
        <time>2019-08-19T04:22:31Z</time>
      </trkpt>
      <trkpt lat="42.215588" lon="2.599197">
        <ele>244</ele>
        <time>2019-08-19T04:22:32Z</time>
      </trkpt>
      <trkpt lat="42.215598" lon="2.599145">
        <ele>244</ele>
        <time>2019-08-19T04:22:33Z</time>
      </trkpt>
      <trkpt lat="42.215607" lon="2.599092">
        <ele>244</ele>
        <time>2019-08-19T04:22:34Z</time>
      </trkpt>
      <trkpt lat="42.215616" lon="2.599039">
        <ele>244</ele>
        <time>2019-08-19T04:22:35Z</time>
      </trkpt>
      <trkpt lat="42.215626" lon="2.598987">
        <ele>244</ele>
        <time>2019-08-19T04:22:36Z</time>
      </trkpt>
      <trkpt lat="42.215635" lon="2.598934">
        <ele>244</ele>
        <time>2019-08-19T04:22:37Z</time>
      </trkpt>
      <trkpt lat="42.215645" lon="2.598882">
        <ele>244</ele>
        <time>2019-08-19T04:22:38Z</time>
      </trkpt>
      <trkpt lat="42.215654" lon="2.598829">
        <ele>244</ele>
        <time>2019-08-19T04:22:39Z</time>
      </trkpt>
      <trkpt lat="42.215676" lon="2.598707">
        <ele>244</ele>
        <time>2019-08-19T04:22:40Z</time>
      </trkpt>
      <trkpt lat="42.215688" lon="2.598645">
        <ele>244</ele>
        <time>2019-08-19T04:22:41Z</time>
      </trkpt>
      <trkpt lat="42.215699" lon="2.598584">
        <ele>244</ele>
        <time>2019-08-19T04:22:43Z</time>
      </trkpt>
      <trkpt lat="42.21571" lon="2.598522">
        <ele>244</ele>
        <time>2019-08-19T04:22:44Z</time>
      </trkpt>
      <trkpt lat="42.215722" lon="2.59846">
        <ele>244</ele>
        <time>2019-08-19T04:22:45Z</time>
      </trkpt>
      <trkpt lat="42.215733" lon="2.598398">
        <ele>244</ele>
        <time>2019-08-19T04:22:46Z</time>
      </trkpt>
      <trkpt lat="42.215744" lon="2.598337">
        <ele>244</ele>
        <time>2019-08-19T04:22:47Z</time>
      </trkpt>
      <trkpt lat="42.215756" lon="2.598275">
        <ele>244</ele>
        <time>2019-08-19T04:22:48Z</time>
      </trkpt>
      <trkpt lat="42.215767" lon="2.598213">
        <ele>244</ele>
        <time>2019-08-19T04:22:49Z</time>
      </trkpt>
      <trkpt lat="42.21579" lon="2.598087">
        <ele>244</ele>
        <time>2019-08-19T04:22:50Z</time>
      </trkpt>
      <trkpt lat="42.215803" lon="2.598024">
        <ele>244</ele>
        <time>2019-08-19T04:22:51Z</time>
      </trkpt>
      <trkpt lat="42.215815" lon="2.597961">
        <ele>244</ele>
        <time>2019-08-19T04:22:53Z</time>
      </trkpt>
      <trkpt lat="42.215828" lon="2.597898">
        <ele>244</ele>
        <time>2019-08-19T04:22:54Z</time>
      </trkpt>
      <trkpt lat="42.21584" lon="2.597835">
        <ele>244</ele>
        <time>2019-08-19T04:22:55Z</time>
      </trkpt>
      <trkpt lat="42.215853" lon="2.597772">
        <ele>244</ele>
        <time>2019-08-19T04:22:56Z</time>
      </trkpt>
      <trkpt lat="42.215865" lon="2.597709">
        <ele>244</ele>
        <time>2019-08-19T04:22:57Z</time>
      </trkpt>
      <trkpt lat="42.215878" lon="2.597646">
        <ele>244</ele>
        <time>2019-08-19T04:22:58Z</time>
      </trkpt>
      <trkpt lat="42.21589" lon="2.597583">
        <ele>244</ele>
        <time>2019-08-19T04:22:59Z</time>
      </trkpt>
      <trkpt lat="42.215916" lon="2.597462">
        <ele>244</ele>
        <time>2019-08-19T04:23:00Z</time>
      </trkpt>
      <trkpt lat="42.215929" lon="2.597402">
        <ele>244</ele>
        <time>2019-08-19T04:23:01Z</time>
      </trkpt>
      <trkpt lat="42.215942" lon="2.597342">
        <ele>244</ele>
        <time>2019-08-19T04:23:02Z</time>
      </trkpt>
      <trkpt lat="42.215955" lon="2.597282">
        <ele>244</ele>
        <time>2019-08-19T04:23:03Z</time>
      </trkpt>
      <trkpt lat="42.215968" lon="2.597222">
        <ele>244</ele>
        <time>2019-08-19T04:23:04Z</time>
      </trkpt>
      <trkpt lat="42.21598" lon="2.597161">
        <ele>244</ele>
        <time>2019-08-19T04:23:05Z</time>
      </trkpt>
      <trkpt lat="42.215993" lon="2.597101">
        <ele>244</ele>
        <time>2019-08-19T04:23:06Z</time>
      </trkpt>
      <trkpt lat="42.216006" lon="2.597041">
        <ele>244</ele>
        <time>2019-08-19T04:23:07Z</time>
      </trkpt>
      <trkpt lat="42.216019" lon="2.596981">
        <ele>244</ele>
        <time>2019-08-19T04:23:08Z</time>
      </trkpt>
      <trkpt lat="42.216032" lon="2.596921">
        <ele>244</ele>
        <time>2019-08-19T04:23:09Z</time>
      </trkpt>
      <trkpt lat="42.216057" lon="2.596808">
        <ele>244</ele>
        <time>2019-08-19T04:23:10Z</time>
      </trkpt>
      <trkpt lat="42.216069" lon="2.596753">
        <ele>244</ele>
        <time>2019-08-19T04:23:12Z</time>
      </trkpt>
      <trkpt lat="42.216081" lon="2.596698">
        <ele>244</ele>
        <time>2019-08-19T04:23:13Z</time>
      </trkpt>
      <trkpt lat="42.216094" lon="2.596643">
        <ele>244</ele>
        <time>2019-08-19T04:23:14Z</time>
      </trkpt>
      <trkpt lat="42.216106" lon="2.596587">
        <ele>244</ele>
        <time>2019-08-19T04:23:15Z</time>
      </trkpt>
      <trkpt lat="42.216118" lon="2.596532">
        <ele>244</ele>
        <time>2019-08-19T04:23:16Z</time>
      </trkpt>
      <trkpt lat="42.21613" lon="2.596477">
        <ele>244</ele>
        <time>2019-08-19T04:23:18Z</time>
      </trkpt>
      <trkpt lat="42.216142" lon="2.596422">
        <ele>245</ele>
        <time>2019-08-19T04:23:19Z</time>
      </trkpt>
      <trkpt lat="42.216165" lon="2.596314">
        <ele>245</ele>
        <time>2019-08-19T04:23:20Z</time>
      </trkpt>
      <trkpt lat="42.216177" lon="2.59626">
        <ele>245</ele>
        <time>2019-08-19T04:23:21Z</time>
      </trkpt>
      <trkpt lat="42.216189" lon="2.596205">
        <ele>245</ele>
        <time>2019-08-19T04:23:22Z</time>
      </trkpt>
      <trkpt lat="42.216201" lon="2.59615">
        <ele>245</ele>
        <time>2019-08-19T04:23:23Z</time>
      </trkpt>
      <trkpt lat="42.216213" lon="2.596096">
        <ele>245</ele>
        <time>2019-08-19T04:23:24Z</time>
      </trkpt>
      <trkpt lat="42.216225" lon="2.596041">
        <ele>245</ele>
        <time>2019-08-19T04:23:25Z</time>
      </trkpt>
      <trkpt lat="42.216237" lon="2.595986">
        <ele>245</ele>
        <time>2019-08-19T04:23:27Z</time>
      </trkpt>
      <trkpt lat="42.216249" lon="2.595932">
        <ele>245</ele>
        <time>2019-08-19T04:23:28Z</time>
      </trkpt>
      <trkpt lat="42.216261" lon="2.595877">
        <ele>247</ele>
        <time>2019-08-19T04:23:29Z</time>
      </trkpt>
      <trkpt lat="42.216276" lon="2.5958">
        <ele>247</ele>
        <time>2019-08-19T04:23:30Z</time>
      </trkpt>
      <trkpt lat="42.216288" lon="2.595749">
        <ele>247</ele>
        <time>2019-08-19T04:23:31Z</time>
      </trkpt>
      <trkpt lat="42.216299" lon="2.595697">
        <ele>247</ele>
        <time>2019-08-19T04:23:32Z</time>
      </trkpt>
      <trkpt lat="42.216311" lon="2.595646">
        <ele>247</ele>
        <time>2019-08-19T04:23:33Z</time>
      </trkpt>
      <trkpt lat="42.216322" lon="2.595594">
        <ele>247</ele>
        <time>2019-08-19T04:23:34Z</time>
      </trkpt>
      <trkpt lat="42.216333" lon="2.595542">
        <ele>247</ele>
        <time>2019-08-19T04:23:36Z</time>
      </trkpt>
      <trkpt lat="42.216345" lon="2.595491">
        <ele>247</ele>
        <time>2019-08-19T04:23:38Z</time>
      </trkpt>
      <trkpt lat="42.216356" lon="2.595439">
        <ele>248</ele>
        <time>2019-08-19T04:23:39Z</time>
      </trkpt>
      <trkpt lat="42.216376" lon="2.59533">
        <ele>248</ele>
        <time>2019-08-19T04:23:40Z</time>
      </trkpt>
      <trkpt lat="42.216383" lon="2.595285">
        <ele>248</ele>
        <time>2019-08-19T04:23:41Z</time>
      </trkpt>
      <trkpt lat="42.216391" lon="2.595241">
        <ele>248</ele>
        <time>2019-08-19T04:23:42Z</time>
      </trkpt>
      <trkpt lat="42.216398" lon="2.595196">
        <ele>248</ele>
        <time>2019-08-19T04:23:43Z</time>
      </trkpt>
      <trkpt lat="42.216406" lon="2.595152">
        <ele>248</ele>
        <time>2019-08-19T04:23:44Z</time>
      </trkpt>
      <trkpt lat="42.216414" lon="2.595108">
        <ele>248</ele>
        <time>2019-08-19T04:23:45Z</time>
      </trkpt>
      <trkpt lat="42.216421" lon="2.595063">
        <ele>248</ele>
        <time>2019-08-19T04:23:46Z</time>
      </trkpt>
      <trkpt lat="42.216429" lon="2.595019">
        <ele>248</ele>
        <time>2019-08-19T04:23:47Z</time>
      </trkpt>
      <trkpt lat="42.216436" lon="2.594974">
        <ele>248</ele>
        <time>2019-08-19T04:23:48Z</time>
      </trkpt>
      <trkpt lat="42.216444" lon="2.59493">
        <ele>248</ele>
        <time>2019-08-19T04:23:49Z</time>
      </trkpt>
      <trkpt lat="42.216457" lon="2.594781">
        <ele>248</ele>
        <time>2019-08-19T04:23:50Z</time>
      </trkpt>
      <trkpt lat="42.216467" lon="2.594666">
        <ele>248</ele>
        <time>2019-08-19T04:23:51Z</time>
      </trkpt>
      <trkpt lat="42.216476" lon="2.59455">
        <ele>248</ele>
        <time>2019-08-19T04:23:53Z</time>
      </trkpt>
      <trkpt lat="42.216486" lon="2.594434">
        <ele>248</ele>
        <time>2019-08-19T04:23:54Z</time>
      </trkpt>
      <trkpt lat="42.216495" lon="2.594318">
        <ele>248</ele>
        <time>2019-08-19T04:23:56Z</time>
      </trkpt>
      <trkpt lat="42.216505" lon="2.594203">
        <ele>248</ele>
        <time>2019-08-19T04:23:58Z</time>
      </trkpt>
      <trkpt lat="42.216514" lon="2.594087">
        <ele>245</ele>
        <time>2019-08-19T04:23:59Z</time>
      </trkpt>
      <trkpt lat="42.216564" lon="2.593893">
        <ele>245</ele>
        <time>2019-08-19T04:24:00Z</time>
      </trkpt>
      <trkpt lat="42.216586" lon="2.593798">
        <ele>245</ele>
        <time>2019-08-19T04:24:01Z</time>
      </trkpt>
      <trkpt lat="42.216607" lon="2.593702">
        <ele>245</ele>
        <time>2019-08-19T04:24:02Z</time>
      </trkpt>
      <trkpt lat="42.216629" lon="2.593606">
        <ele>245</ele>
        <time>2019-08-19T04:24:04Z</time>
      </trkpt>
      <trkpt lat="42.21665" lon="2.59351">
        <ele>245</ele>
        <time>2019-08-19T04:24:05Z</time>
      </trkpt>
      <trkpt lat="42.216671" lon="2.593415">
        <ele>245</ele>
        <time>2019-08-19T04:24:06Z</time>
      </trkpt>
      <trkpt lat="42.216693" lon="2.593319">
        <ele>245</ele>
        <time>2019-08-19T04:24:08Z</time>
      </trkpt>
      <trkpt lat="42.216714" lon="2.593223">
        <ele>243</ele>
        <time>2019-08-19T04:24:09Z</time>
      </trkpt>
      <trkpt lat="42.21678" lon="2.593083">
        <ele>243</ele>
        <time>2019-08-19T04:24:11Z</time>
      </trkpt>
      <trkpt lat="42.216794" lon="2.593049">
        <ele>243</ele>
        <time>2019-08-19T04:24:12Z</time>
      </trkpt>
      <trkpt lat="42.216809" lon="2.593016">
        <ele>243</ele>
        <time>2019-08-19T04:24:13Z</time>
      </trkpt>
      <trkpt lat="42.216823" lon="2.592983">
        <ele>243</ele>
        <time>2019-08-19T04:24:14Z</time>
      </trkpt>
      <trkpt lat="42.216837" lon="2.592949">
        <ele>243</ele>
        <time>2019-08-19T04:24:15Z</time>
      </trkpt>
      <trkpt lat="42.216851" lon="2.592916">
        <ele>243</ele>
        <time>2019-08-19T04:24:16Z</time>
      </trkpt>
      <trkpt lat="42.216866" lon="2.592883">
        <ele>243</ele>
        <time>2019-08-19T04:24:17Z</time>
      </trkpt>
      <trkpt lat="42.21688" lon="2.592849">
        <ele>243</ele>
        <time>2019-08-19T04:24:18Z</time>
      </trkpt>
      <trkpt lat="42.216894" lon="2.592816">
        <ele>245</ele>
        <time>2019-08-19T04:24:19Z</time>
      </trkpt>
      <trkpt lat="42.216918" lon="2.592749">
        <ele>245</ele>
        <time>2019-08-19T04:24:20Z</time>
      </trkpt>
      <trkpt lat="42.21693" lon="2.592715">
        <ele>245</ele>
        <time>2019-08-19T04:24:21Z</time>
      </trkpt>
      <trkpt lat="42.216942" lon="2.59268">
        <ele>245</ele>
        <time>2019-08-19T04:24:22Z</time>
      </trkpt>
      <trkpt lat="42.216954" lon="2.592646">
        <ele>245</ele>
        <time>2019-08-19T04:24:23Z</time>
      </trkpt>
      <trkpt lat="42.216967" lon="2.592612">
        <ele>245</ele>
        <time>2019-08-19T04:24:25Z</time>
      </trkpt>
      <trkpt lat="42.216979" lon="2.592578">
        <ele>245</ele>
        <time>2019-08-19T04:24:26Z</time>
      </trkpt>
      <trkpt lat="42.216991" lon="2.592543">
        <ele>245</ele>
        <time>2019-08-19T04:24:27Z</time>
      </trkpt>
      <trkpt lat="42.217003" lon="2.592509">
        <ele>245</ele>
        <time>2019-08-19T04:24:28Z</time>
      </trkpt>
      <trkpt lat="42.217015" lon="2.592475">
        <ele>247</ele>
        <time>2019-08-19T04:24:29Z</time>
      </trkpt>
      <trkpt lat="42.217037" lon="2.592401">
        <ele>247</ele>
        <time>2019-08-19T04:24:30Z</time>
      </trkpt>
      <trkpt lat="42.217049" lon="2.592362">
        <ele>247</ele>
        <time>2019-08-19T04:24:31Z</time>
      </trkpt>
      <trkpt lat="42.21706" lon="2.592324">
        <ele>247</ele>
        <time>2019-08-19T04:24:32Z</time>
      </trkpt>
      <trkpt lat="42.217071" lon="2.592286">
        <ele>247</ele>
        <time>2019-08-19T04:24:33Z</time>
      </trkpt>
      <trkpt lat="42.217083" lon="2.592247">
        <ele>247</ele>
        <time>2019-08-19T04:24:34Z</time>
      </trkpt>
      <trkpt lat="42.217094" lon="2.592209">
        <ele>247</ele>
        <time>2019-08-19T04:24:35Z</time>
      </trkpt>
      <trkpt lat="42.217105" lon="2.592171">
        <ele>247</ele>
        <time>2019-08-19T04:24:36Z</time>
      </trkpt>
      <trkpt lat="42.217117" lon="2.592132">
        <ele>247</ele>
        <time>2019-08-19T04:24:37Z</time>
      </trkpt>
      <trkpt lat="42.217128" lon="2.592094">
        <ele>249</ele>
        <time>2019-08-19T04:24:39Z</time>
      </trkpt>
      <trkpt lat="42.217147" lon="2.592007">
        <ele>249</ele>
        <time>2019-08-19T04:24:40Z</time>
      </trkpt>
      <trkpt lat="42.217158" lon="2.591962">
        <ele>249</ele>
        <time>2019-08-19T04:24:41Z</time>
      </trkpt>
      <trkpt lat="42.217168" lon="2.591917">
        <ele>249</ele>
        <time>2019-08-19T04:24:43Z</time>
      </trkpt>
      <trkpt lat="42.217178" lon="2.591872">
        <ele>249</ele>
        <time>2019-08-19T04:24:44Z</time>
      </trkpt>
      <trkpt lat="42.217189" lon="2.591826">
        <ele>249</ele>
        <time>2019-08-19T04:24:45Z</time>
      </trkpt>
      <trkpt lat="42.217199" lon="2.591781">
        <ele>249</ele>
        <time>2019-08-19T04:24:46Z</time>
      </trkpt>
      <trkpt lat="42.217209" lon="2.591736">
        <ele>249</ele>
        <time>2019-08-19T04:24:47Z</time>
      </trkpt>
      <trkpt lat="42.21722" lon="2.591691">
        <ele>249</ele>
        <time>2019-08-19T04:24:48Z</time>
      </trkpt>
      <trkpt lat="42.21723" lon="2.591646">
        <ele>251</ele>
        <time>2019-08-19T04:24:49Z</time>
      </trkpt>
      <trkpt lat="42.217251" lon="2.591547">
        <ele>251</ele>
        <time>2019-08-19T04:24:50Z</time>
      </trkpt>
      <trkpt lat="42.217262" lon="2.591497">
        <ele>251</ele>
        <time>2019-08-19T04:24:51Z</time>
      </trkpt>
      <trkpt lat="42.217272" lon="2.591448">
        <ele>251</ele>
        <time>2019-08-19T04:24:52Z</time>
      </trkpt>
      <trkpt lat="42.217283" lon="2.591398">
        <ele>251</ele>
        <time>2019-08-19T04:24:53Z</time>
      </trkpt>
      <trkpt lat="42.217293" lon="2.591349">
        <ele>251</ele>
        <time>2019-08-19T04:24:54Z</time>
      </trkpt>
      <trkpt lat="42.217304" lon="2.591299">
        <ele>251</ele>
        <time>2019-08-19T04:24:56Z</time>
      </trkpt>
      <trkpt lat="42.217314" lon="2.59125">
        <ele>251</ele>
        <time>2019-08-19T04:24:57Z</time>
      </trkpt>
      <trkpt lat="42.217325" lon="2.5912">
        <ele>251</ele>
        <time>2019-08-19T04:24:58Z</time>
      </trkpt>
      <trkpt lat="42.217335" lon="2.591151">
        <ele>250</ele>
        <time>2019-08-19T04:24:59Z</time>
      </trkpt>
      <trkpt lat="42.217358" lon="2.591036">
        <ele>250</ele>
        <time>2019-08-19T04:25:00Z</time>
      </trkpt>
      <trkpt lat="42.217367" lon="2.590993">
        <ele>250</ele>
        <time>2019-08-19T04:25:01Z</time>
      </trkpt>
      <trkpt lat="42.217376" lon="2.59095">
        <ele>250</ele>
        <time>2019-08-19T04:25:02Z</time>
      </trkpt>
      <trkpt lat="42.217385" lon="2.590907">
        <ele>250</ele>
        <time>2019-08-19T04:25:03Z</time>
      </trkpt>
      <trkpt lat="42.217395" lon="2.590864">
        <ele>250</ele>
        <time>2019-08-19T04:25:04Z</time>
      </trkpt>
      <trkpt lat="42.217404" lon="2.590821">
        <ele>250</ele>
        <time>2019-08-19T04:25:05Z</time>
      </trkpt>
      <trkpt lat="42.217413" lon="2.590778">
        <ele>250</ele>
        <time>2019-08-19T04:25:06Z</time>
      </trkpt>
      <trkpt lat="42.217422" lon="2.590735">
        <ele>250</ele>
        <time>2019-08-19T04:25:07Z</time>
      </trkpt>
      <trkpt lat="42.217431" lon="2.590692">
        <ele>250</ele>
        <time>2019-08-19T04:25:08Z</time>
      </trkpt>
      <trkpt lat="42.21744" lon="2.590649">
        <ele>251</ele>
        <time>2019-08-19T04:25:09Z</time>
      </trkpt>
      <trkpt lat="42.217454" lon="2.590572">
        <ele>251</ele>
        <time>2019-08-19T04:25:10Z</time>
      </trkpt>
      <trkpt lat="42.217464" lon="2.590521">
        <ele>251</ele>
        <time>2019-08-19T04:25:11Z</time>
      </trkpt>
      <trkpt lat="42.217474" lon="2.590469">
        <ele>251</ele>
        <time>2019-08-19T04:25:12Z</time>
      </trkpt>
      <trkpt lat="42.217484" lon="2.590418">
        <ele>251</ele>
        <time>2019-08-19T04:25:13Z</time>
      </trkpt>
      <trkpt lat="42.217493" lon="2.590366">
        <ele>251</ele>
        <time>2019-08-19T04:25:15Z</time>
      </trkpt>
      <trkpt lat="42.217503" lon="2.590315">
        <ele>251</ele>
        <time>2019-08-19T04:25:16Z</time>
      </trkpt>
      <trkpt lat="42.217513" lon="2.590263">
        <ele>251</ele>
        <time>2019-08-19T04:25:17Z</time>
      </trkpt>
      <trkpt lat="42.217523" lon="2.590212">
        <ele>251</ele>
        <time>2019-08-19T04:25:18Z</time>
      </trkpt>
      <trkpt lat="42.217533" lon="2.59016">
        <ele>251</ele>
        <time>2019-08-19T04:25:19Z</time>
      </trkpt>
      <trkpt lat="42.217562" lon="2.590003">
        <ele>251</ele>
        <time>2019-08-19T04:25:21Z</time>
      </trkpt>
      <trkpt lat="42.217575" lon="2.589947">
        <ele>251</ele>
        <time>2019-08-19T04:25:22Z</time>
      </trkpt>
      <trkpt lat="42.217587" lon="2.589891">
        <ele>251</ele>
        <time>2019-08-19T04:25:24Z</time>
      </trkpt>
      <trkpt lat="42.217599" lon="2.589836">
        <ele>251</ele>
        <time>2019-08-19T04:25:26Z</time>
      </trkpt>
      <trkpt lat="42.217611" lon="2.58978">
        <ele>251</ele>
        <time>2019-08-19T04:25:27Z</time>
      </trkpt>
      <trkpt lat="42.217624" lon="2.589724">
        <ele>251</ele>
        <time>2019-08-19T04:25:28Z</time>
      </trkpt>
      <trkpt lat="42.217636" lon="2.589668">
        <ele>251</ele>
        <time>2019-08-19T04:25:29Z</time>
      </trkpt>
      <trkpt lat="42.217654" lon="2.589557">
        <ele>251</ele>
        <time>2019-08-19T04:25:30Z</time>
      </trkpt>
      <trkpt lat="42.217663" lon="2.589512">
        <ele>251</ele>
        <time>2019-08-19T04:25:32Z</time>
      </trkpt>
      <trkpt lat="42.217673" lon="2.589468">
        <ele>251</ele>
        <time>2019-08-19T04:25:33Z</time>
      </trkpt>
      <trkpt lat="42.217683" lon="2.589423">
        <ele>251</ele>
        <time>2019-08-19T04:25:34Z</time>
      </trkpt>
      <trkpt lat="42.217692" lon="2.589379">
        <ele>251</ele>
        <time>2019-08-19T04:25:35Z</time>
      </trkpt>
      <trkpt lat="42.217702" lon="2.589334">
        <ele>251</ele>
        <time>2019-08-19T04:25:36Z</time>
      </trkpt>
      <trkpt lat="42.217712" lon="2.58929">
        <ele>251</ele>
        <time>2019-08-19T04:25:37Z</time>
      </trkpt>
      <trkpt lat="42.217721" lon="2.589245">
        <ele>251</ele>
        <time>2019-08-19T04:25:38Z</time>
      </trkpt>
      <trkpt lat="42.217731" lon="2.589201">
        <ele>251</ele>
        <time>2019-08-19T04:25:39Z</time>
      </trkpt>
      <trkpt lat="42.217749" lon="2.58911">
        <ele>251</ele>
        <time>2019-08-19T04:25:40Z</time>
      </trkpt>
      <trkpt lat="42.217759" lon="2.589063">
        <ele>251</ele>
        <time>2019-08-19T04:25:42Z</time>
      </trkpt>
      <trkpt lat="42.217769" lon="2.589015">
        <ele>251</ele>
        <time>2019-08-19T04:25:43Z</time>
      </trkpt>
      <trkpt lat="42.21778" lon="2.588967">
        <ele>251</ele>
        <time>2019-08-19T04:25:44Z</time>
      </trkpt>
      <trkpt lat="42.21779" lon="2.588919">
        <ele>251</ele>
        <time>2019-08-19T04:25:45Z</time>
      </trkpt>
      <trkpt lat="42.2178" lon="2.588872">
        <ele>251</ele>
        <time>2019-08-19T04:25:47Z</time>
      </trkpt>
      <trkpt lat="42.21781" lon="2.588824">
        <ele>251</ele>
        <time>2019-08-19T04:25:48Z</time>
      </trkpt>
      <trkpt lat="42.21782" lon="2.588776">
        <ele>251</ele>
        <time>2019-08-19T04:25:49Z</time>
      </trkpt>
      <trkpt lat="42.217844" lon="2.588655">
        <ele>251</ele>
        <time>2019-08-19T04:25:50Z</time>
      </trkpt>
      <trkpt lat="42.217855" lon="2.588604">
        <ele>251</ele>
        <time>2019-08-19T04:25:52Z</time>
      </trkpt>
      <trkpt lat="42.217865" lon="2.588554">
        <ele>251</ele>
        <time>2019-08-19T04:25:53Z</time>
      </trkpt>
      <trkpt lat="42.217876" lon="2.588504">
        <ele>251</ele>
        <time>2019-08-19T04:25:55Z</time>
      </trkpt>
      <trkpt lat="42.217886" lon="2.588453">
        <ele>251</ele>
        <time>2019-08-19T04:25:56Z</time>
      </trkpt>
      <trkpt lat="42.217896" lon="2.588403">
        <ele>251</ele>
        <time>2019-08-19T04:25:57Z</time>
      </trkpt>
      <trkpt lat="42.217907" lon="2.588352">
        <ele>251</ele>
        <time>2019-08-19T04:25:58Z</time>
      </trkpt>
      <trkpt lat="42.217917" lon="2.588302">
        <ele>251</ele>
        <time>2019-08-19T04:25:59Z</time>
      </trkpt>
      <trkpt lat="42.217941" lon="2.588171">
        <ele>251</ele>
        <time>2019-08-19T04:26:00Z</time>
      </trkpt>
      <trkpt lat="42.217953" lon="2.588122">
        <ele>251</ele>
        <time>2019-08-19T04:26:02Z</time>
      </trkpt>
      <trkpt lat="42.217964" lon="2.588073">
        <ele>251</ele>
        <time>2019-08-19T04:26:03Z</time>
      </trkpt>
      <trkpt lat="42.217975" lon="2.588024">
        <ele>251</ele>
        <time>2019-08-19T04:26:04Z</time>
      </trkpt>
      <trkpt lat="42.217987" lon="2.587974">
        <ele>251</ele>
        <time>2019-08-19T04:26:05Z</time>
      </trkpt>
      <trkpt lat="42.217998" lon="2.587925">
        <ele>251</ele>
        <time>2019-08-19T04:26:06Z</time>
      </trkpt>
      <trkpt lat="42.218009" lon="2.587876">
        <ele>251</ele>
        <time>2019-08-19T04:26:07Z</time>
      </trkpt>
      <trkpt lat="42.218021" lon="2.587827">
        <ele>251</ele>
        <time>2019-08-19T04:26:08Z</time>
      </trkpt>
      <trkpt lat="42.218032" lon="2.587778">
        <ele>251</ele>
        <time>2019-08-19T04:26:09Z</time>
      </trkpt>
      <trkpt lat="42.218055" lon="2.587677">
        <ele>251</ele>
        <time>2019-08-19T04:26:10Z</time>
      </trkpt>
      <trkpt lat="42.218067" lon="2.587626">
        <ele>251</ele>
        <time>2019-08-19T04:26:11Z</time>
      </trkpt>
      <trkpt lat="42.218079" lon="2.587576">
        <ele>251</ele>
        <time>2019-08-19T04:26:12Z</time>
      </trkpt>
      <trkpt lat="42.218091" lon="2.587525">
        <ele>251</ele>
        <time>2019-08-19T04:26:14Z</time>
      </trkpt>
      <trkpt lat="42.218102" lon="2.587475">
        <ele>251</ele>
        <time>2019-08-19T04:26:15Z</time>
      </trkpt>
      <trkpt lat="42.218114" lon="2.587424">
        <ele>251</ele>
        <time>2019-08-19T04:26:16Z</time>
      </trkpt>
      <trkpt lat="42.218126" lon="2.587374">
        <ele>251</ele>
        <time>2019-08-19T04:26:17Z</time>
      </trkpt>
      <trkpt lat="42.218138" lon="2.587323">
        <ele>251</ele>
        <time>2019-08-19T04:26:18Z</time>
      </trkpt>
      <trkpt lat="42.21815" lon="2.587273">
        <ele>253</ele>
        <time>2019-08-19T04:26:19Z</time>
      </trkpt>
      <trkpt lat="42.218171" lon="2.587175">
        <ele>253</ele>
        <time>2019-08-19T04:26:20Z</time>
      </trkpt>
      <trkpt lat="42.218182" lon="2.587129">
        <ele>253</ele>
        <time>2019-08-19T04:26:21Z</time>
      </trkpt>
      <trkpt lat="42.218192" lon="2.587084">
        <ele>253</ele>
        <time>2019-08-19T04:26:22Z</time>
      </trkpt>
      <trkpt lat="42.218203" lon="2.587038">
        <ele>253</ele>
        <time>2019-08-19T04:26:23Z</time>
      </trkpt>
      <trkpt lat="42.218213" lon="2.586993">
        <ele>253</ele>
        <time>2019-08-19T04:26:24Z</time>
      </trkpt>
      <trkpt lat="42.218223" lon="2.586948">
        <ele>253</ele>
        <time>2019-08-19T04:26:25Z</time>
      </trkpt>
      <trkpt lat="42.218234" lon="2.586902">
        <ele>253</ele>
        <time>2019-08-19T04:26:26Z</time>
      </trkpt>
      <trkpt lat="42.218244" lon="2.586857">
        <ele>253</ele>
        <time>2019-08-19T04:26:27Z</time>
      </trkpt>
      <trkpt lat="42.218255" lon="2.586811">
        <ele>253</ele>
        <time>2019-08-19T04:26:28Z</time>
      </trkpt>
      <trkpt lat="42.218265" lon="2.586766">
        <ele>253</ele>
        <time>2019-08-19T04:26:29Z</time>
      </trkpt>
      <trkpt lat="42.218288" lon="2.58667">
        <ele>253</ele>
        <time>2019-08-19T04:26:30Z</time>
      </trkpt>
      <trkpt lat="42.218299" lon="2.586623">
        <ele>253</ele>
        <time>2019-08-19T04:26:31Z</time>
      </trkpt>
      <trkpt lat="42.21831" lon="2.586577">
        <ele>253</ele>
        <time>2019-08-19T04:26:32Z</time>
      </trkpt>
      <trkpt lat="42.218321" lon="2.58653">
        <ele>253</ele>
        <time>2019-08-19T04:26:33Z</time>
      </trkpt>
      <trkpt lat="42.218332" lon="2.586484">
        <ele>253</ele>
        <time>2019-08-19T04:26:34Z</time>
      </trkpt>
      <trkpt lat="42.218343" lon="2.586437">
        <ele>253</ele>
        <time>2019-08-19T04:26:35Z</time>
      </trkpt>
      <trkpt lat="42.218354" lon="2.586391">
        <ele>253</ele>
        <time>2019-08-19T04:26:36Z</time>
      </trkpt>
      <trkpt lat="42.218365" lon="2.586344">
        <ele>253</ele>
        <time>2019-08-19T04:26:37Z</time>
      </trkpt>
      <trkpt lat="42.218376" lon="2.586298">
        <ele>253</ele>
        <time>2019-08-19T04:26:38Z</time>
      </trkpt>
      <trkpt lat="42.218387" lon="2.586251">
        <ele>253</ele>
        <time>2019-08-19T04:26:39Z</time>
      </trkpt>
      <trkpt lat="42.218411" lon="2.586156">
        <ele>253</ele>
        <time>2019-08-19T04:26:40Z</time>
      </trkpt>
      <trkpt lat="42.218421" lon="2.58611">
        <ele>253</ele>
        <time>2019-08-19T04:26:41Z</time>
      </trkpt>
      <trkpt lat="42.218432" lon="2.586065">
        <ele>253</ele>
        <time>2019-08-19T04:26:42Z</time>
      </trkpt>
      <trkpt lat="42.218442" lon="2.58602">
        <ele>253</ele>
        <time>2019-08-19T04:26:43Z</time>
      </trkpt>
      <trkpt lat="42.218453" lon="2.585975">
        <ele>253</ele>
        <time>2019-08-19T04:26:44Z</time>
      </trkpt>
      <trkpt lat="42.218464" lon="2.585929">
        <ele>253</ele>
        <time>2019-08-19T04:26:45Z</time>
      </trkpt>
      <trkpt lat="42.218474" lon="2.585884">
        <ele>253</ele>
        <time>2019-08-19T04:26:46Z</time>
      </trkpt>
      <trkpt lat="42.218485" lon="2.585839">
        <ele>253</ele>
        <time>2019-08-19T04:26:47Z</time>
      </trkpt>
      <trkpt lat="42.218495" lon="2.585793">
        <ele>253</ele>
        <time>2019-08-19T04:26:48Z</time>
      </trkpt>
      <trkpt lat="42.218506" lon="2.585748">
        <ele>254</ele>
        <time>2019-08-19T04:26:49Z</time>
      </trkpt>
      <trkpt lat="42.218532" lon="2.585632">
        <ele>254</ele>
        <time>2019-08-19T04:26:50Z</time>
      </trkpt>
      <trkpt lat="42.218541" lon="2.585593">
        <ele>254</ele>
        <time>2019-08-19T04:26:51Z</time>
      </trkpt>
      <trkpt lat="42.218549" lon="2.585555">
        <ele>254</ele>
        <time>2019-08-19T04:26:52Z</time>
      </trkpt>
      <trkpt lat="42.218558" lon="2.585516">
        <ele>254</ele>
        <time>2019-08-19T04:26:53Z</time>
      </trkpt>
      <trkpt lat="42.218566" lon="2.585477">
        <ele>254</ele>
        <time>2019-08-19T04:26:54Z</time>
      </trkpt>
      <trkpt lat="42.218574" lon="2.585438">
        <ele>254</ele>
        <time>2019-08-19T04:26:55Z</time>
      </trkpt>
      <trkpt lat="42.218583" lon="2.585399">
        <ele>254</ele>
        <time>2019-08-19T04:26:56Z</time>
      </trkpt>
      <trkpt lat="42.218591" lon="2.585361">
        <ele>254</ele>
        <time>2019-08-19T04:26:57Z</time>
      </trkpt>
      <trkpt lat="42.2186" lon="2.585322">
        <ele>254</ele>
        <time>2019-08-19T04:26:58Z</time>
      </trkpt>
      <trkpt lat="42.218608" lon="2.585283">
        <ele>254</ele>
        <time>2019-08-19T04:26:59Z</time>
      </trkpt>
      <trkpt lat="42.218623" lon="2.585208">
        <ele>254</ele>
        <time>2019-08-19T04:27:00Z</time>
      </trkpt>
      <trkpt lat="42.218635" lon="2.585159">
        <ele>254</ele>
        <time>2019-08-19T04:27:01Z</time>
      </trkpt>
      <trkpt lat="42.218646" lon="2.585109">
        <ele>254</ele>
        <time>2019-08-19T04:27:02Z</time>
      </trkpt>
      <trkpt lat="42.218657" lon="2.58506">
        <ele>254</ele>
        <time>2019-08-19T04:27:03Z</time>
      </trkpt>
      <trkpt lat="42.218669" lon="2.58501">
        <ele>254</ele>
        <time>2019-08-19T04:27:04Z</time>
      </trkpt>
      <trkpt lat="42.21868" lon="2.584961">
        <ele>254</ele>
        <time>2019-08-19T04:27:05Z</time>
      </trkpt>
      <trkpt lat="42.218691" lon="2.584911">
        <ele>254</ele>
        <time>2019-08-19T04:27:07Z</time>
      </trkpt>
      <trkpt lat="42.218703" lon="2.584862">
        <ele>254</ele>
        <time>2019-08-19T04:27:08Z</time>
      </trkpt>
      <trkpt lat="42.218714" lon="2.584812">
        <ele>254</ele>
        <time>2019-08-19T04:27:09Z</time>
      </trkpt>
      <trkpt lat="42.218733" lon="2.584728">
        <ele>254</ele>
        <time>2019-08-19T04:27:10Z</time>
      </trkpt>
      <trkpt lat="42.218746" lon="2.584669">
        <ele>254</ele>
        <time>2019-08-19T04:27:11Z</time>
      </trkpt>
      <trkpt lat="42.218759" lon="2.58461">
        <ele>254</ele>
        <time>2019-08-19T04:27:13Z</time>
      </trkpt>
      <trkpt lat="42.218772" lon="2.584551">
        <ele>254</ele>
        <time>2019-08-19T04:27:14Z</time>
      </trkpt>
      <trkpt lat="42.218786" lon="2.584491">
        <ele>254</ele>
        <time>2019-08-19T04:27:15Z</time>
      </trkpt>
      <trkpt lat="42.218799" lon="2.584432">
        <ele>254</ele>
        <time>2019-08-19T04:27:16Z</time>
      </trkpt>
      <trkpt lat="42.218812" lon="2.584373">
        <ele>254</ele>
        <time>2019-08-19T04:27:17Z</time>
      </trkpt>
      <trkpt lat="42.218825" lon="2.584314">
        <ele>254</ele>
        <time>2019-08-19T04:27:18Z</time>
      </trkpt>
      <trkpt lat="42.218838" lon="2.584255">
        <ele>254</ele>
        <time>2019-08-19T04:27:19Z</time>
      </trkpt>
      <trkpt lat="42.21886" lon="2.58415">
        <ele>254</ele>
        <time>2019-08-19T04:27:20Z</time>
      </trkpt>
      <trkpt lat="42.21887" lon="2.5841">
        <ele>254</ele>
        <time>2019-08-19T04:27:21Z</time>
      </trkpt>
      <trkpt lat="42.21888" lon="2.584049">
        <ele>254</ele>
        <time>2019-08-19T04:27:22Z</time>
      </trkpt>
      <trkpt lat="42.21889" lon="2.583998">
        <ele>254</ele>
        <time>2019-08-19T04:27:23Z</time>
      </trkpt>
      <trkpt lat="42.218901" lon="2.583948">
        <ele>254</ele>
        <time>2019-08-19T04:27:24Z</time>
      </trkpt>
      <trkpt lat="42.218911" lon="2.583897">
        <ele>254</ele>
        <time>2019-08-19T04:27:25Z</time>
      </trkpt>
      <trkpt lat="42.218921" lon="2.583846">
        <ele>254</ele>
        <time>2019-08-19T04:27:26Z</time>
      </trkpt>
      <trkpt lat="42.218931" lon="2.583795">
        <ele>254</ele>
        <time>2019-08-19T04:27:27Z</time>
      </trkpt>
      <trkpt lat="42.218941" lon="2.583745">
        <ele>254</ele>
        <time>2019-08-19T04:27:29Z</time>
      </trkpt>
      <trkpt lat="42.218951" lon="2.583694">
        <ele>255</ele>
        <time>2019-08-19T04:27:30Z</time>
      </trkpt>
      <trkpt lat="42.218976" lon="2.583568">
        <ele>255</ele>
        <time>2019-08-19T04:27:31Z</time>
      </trkpt>
      <trkpt lat="42.218985" lon="2.583522">
        <ele>255</ele>
        <time>2019-08-19T04:27:32Z</time>
      </trkpt>
      <trkpt lat="42.218993" lon="2.583477">
        <ele>255</ele>
        <time>2019-08-19T04:27:33Z</time>
      </trkpt>
      <trkpt lat="42.219002" lon="2.583431">
        <ele>255</ele>
        <time>2019-08-19T04:27:34Z</time>
      </trkpt>
      <trkpt lat="42.219011" lon="2.583385">
        <ele>255</ele>
        <time>2019-08-19T04:27:35Z</time>
      </trkpt>
      <trkpt lat="42.21902" lon="2.583339">
        <ele>255</ele>
        <time>2019-08-19T04:27:36Z</time>
      </trkpt>
      <trkpt lat="42.219028" lon="2.583294">
        <ele>255</ele>
        <time>2019-08-19T04:27:37Z</time>
      </trkpt>
      <trkpt lat="42.219037" lon="2.583248">
        <ele>255</ele>
        <time>2019-08-19T04:27:38Z</time>
      </trkpt>
      <trkpt lat="42.219046" lon="2.583202">
        <ele>255</ele>
        <time>2019-08-19T04:27:39Z</time>
      </trkpt>
      <trkpt lat="42.219059" lon="2.583125">
        <ele>255</ele>
        <time>2019-08-19T04:27:40Z</time>
      </trkpt>
      <trkpt lat="42.219069" lon="2.583075">
        <ele>255</ele>
        <time>2019-08-19T04:27:41Z</time>
      </trkpt>
      <trkpt lat="42.219078" lon="2.583024">
        <ele>255</ele>
        <time>2019-08-19T04:27:42Z</time>
      </trkpt>
      <trkpt lat="42.219088" lon="2.582974">
        <ele>255</ele>
        <time>2019-08-19T04:27:43Z</time>
      </trkpt>
      <trkpt lat="42.219097" lon="2.582924">
        <ele>255</ele>
        <time>2019-08-19T04:27:44Z</time>
      </trkpt>
      <trkpt lat="42.219106" lon="2.582874">
        <ele>255</ele>
        <time>2019-08-19T04:27:46Z</time>
      </trkpt>
      <trkpt lat="42.219116" lon="2.582823">
        <ele>255</ele>
        <time>2019-08-19T04:27:47Z</time>
      </trkpt>
      <trkpt lat="42.219125" lon="2.582773">
        <ele>256</ele>
        <time>2019-08-19T04:27:49Z</time>
      </trkpt>
      <trkpt lat="42.219137" lon="2.582702">
        <ele>256</ele>
        <time>2019-08-19T04:27:50Z</time>
      </trkpt>
      <trkpt lat="42.219144" lon="2.582669">
        <ele>256</ele>
        <time>2019-08-19T04:27:51Z</time>
      </trkpt>
      <trkpt lat="42.21915" lon="2.582635">
        <ele>256</ele>
        <time>2019-08-19T04:27:52Z</time>
      </trkpt>
      <trkpt lat="42.219156" lon="2.582602">
        <ele>256</ele>
        <time>2019-08-19T04:27:54Z</time>
      </trkpt>
      <trkpt lat="42.219163" lon="2.582568">
        <ele>256</ele>
        <time>2019-08-19T04:27:55Z</time>
      </trkpt>
      <trkpt lat="42.219169" lon="2.582535">
        <ele>256</ele>
        <time>2019-08-19T04:27:56Z</time>
      </trkpt>
      <trkpt lat="42.219175" lon="2.582501">
        <ele>256</ele>
        <time>2019-08-19T04:27:57Z</time>
      </trkpt>
      <trkpt lat="42.219182" lon="2.582468">
        <ele>256</ele>
        <time>2019-08-19T04:27:58Z</time>
      </trkpt>
      <trkpt lat="42.219188" lon="2.582434">
        <ele>258</ele>
        <time>2019-08-19T04:27:59Z</time>
      </trkpt>
      <trkpt lat="42.219207" lon="2.582335">
        <ele>258</ele>
        <time>2019-08-19T04:28:01Z</time>
      </trkpt>
      <trkpt lat="42.219213" lon="2.582298">
        <ele>258</ele>
        <time>2019-08-19T04:28:02Z</time>
      </trkpt>
      <trkpt lat="42.219219" lon="2.582261">
        <ele>258</ele>
        <time>2019-08-19T04:28:03Z</time>
      </trkpt>
      <trkpt lat="42.219225" lon="2.582224">
        <ele>258</ele>
        <time>2019-08-19T04:28:04Z</time>
      </trkpt>
      <trkpt lat="42.219231" lon="2.582187">
        <ele>258</ele>
        <time>2019-08-19T04:28:06Z</time>
      </trkpt>
      <trkpt lat="42.219237" lon="2.58215">
        <ele>258</ele>
        <time>2019-08-19T04:28:08Z</time>
      </trkpt>
      <trkpt lat="42.219243" lon="2.582113">
        <ele>260</ele>
        <time>2019-08-19T04:28:09Z</time>
      </trkpt>
      <trkpt lat="42.219252" lon="2.582039">
        <ele>260</ele>
        <time>2019-08-19T04:28:10Z</time>
      </trkpt>
      <trkpt lat="42.219255" lon="2.582011">
        <ele>260</ele>
        <time>2019-08-19T04:28:11Z</time>
      </trkpt>
      <trkpt lat="42.219258" lon="2.581983">
        <ele>260</ele>
        <time>2019-08-19T04:28:12Z</time>
      </trkpt>
      <trkpt lat="42.219261" lon="2.581956">
        <ele>260</ele>
        <time>2019-08-19T04:28:13Z</time>
      </trkpt>
      <trkpt lat="42.219264" lon="2.581928">
        <ele>260</ele>
        <time>2019-08-19T04:28:15Z</time>
      </trkpt>
      <trkpt lat="42.219267" lon="2.5819">
        <ele>260</ele>
        <time>2019-08-19T04:28:17Z</time>
      </trkpt>
      <trkpt lat="42.21927" lon="2.581872">
        <ele>260</ele>
        <time>2019-08-19T04:28:18Z</time>
      </trkpt>
      <trkpt lat="42.219273" lon="2.581844">
        <ele>262</ele>
        <time>2019-08-19T04:28:19Z</time>
      </trkpt>
      <trkpt lat="42.219292" lon="2.581787">
        <ele>262</ele>
        <time>2019-08-19T04:28:20Z</time>
      </trkpt>
      <trkpt lat="42.219305" lon="2.581757">
        <ele>262</ele>
        <time>2019-08-19T04:28:21Z</time>
      </trkpt>
      <trkpt lat="42.219318" lon="2.581726">
        <ele>262</ele>
        <time>2019-08-19T04:28:23Z</time>
      </trkpt>
      <trkpt lat="42.219331" lon="2.581695">
        <ele>262</ele>
        <time>2019-08-19T04:28:25Z</time>
      </trkpt>
      <trkpt lat="42.219344" lon="2.581664">
        <ele>262</ele>
        <time>2019-08-19T04:28:27Z</time>
      </trkpt>
      <trkpt lat="42.219357" lon="2.581634">
        <ele>262</ele>
        <time>2019-08-19T04:28:28Z</time>
      </trkpt>
      <trkpt lat="42.21937" lon="2.581603">
        <ele>264</ele>
        <time>2019-08-19T04:28:29Z</time>
      </trkpt>
      <trkpt lat="42.219409" lon="2.581565">
        <ele>264</ele>
        <time>2019-08-19T04:28:30Z</time>
      </trkpt>
      <trkpt lat="42.219427" lon="2.581561">
        <ele>264</ele>
        <time>2019-08-19T04:28:32Z</time>
      </trkpt>
      <trkpt lat="42.219444" lon="2.581556">
        <ele>264</ele>
        <time>2019-08-19T04:28:33Z</time>
      </trkpt>
      <trkpt lat="42.219462" lon="2.581552">
        <ele>264</ele>
        <time>2019-08-19T04:28:34Z</time>
      </trkpt>
      <trkpt lat="42.21948" lon="2.581548">
        <ele>264</ele>
        <time>2019-08-19T04:28:35Z</time>
      </trkpt>
      <trkpt lat="42.219498" lon="2.581544">
        <ele>264</ele>
        <time>2019-08-19T04:28:36Z</time>
      </trkpt>
      <trkpt lat="42.219515" lon="2.581539">
        <ele>264</ele>
        <time>2019-08-19T04:28:37Z</time>
      </trkpt>
      <trkpt lat="42.219533" lon="2.581535">
        <ele>264</ele>
        <time>2019-08-19T04:28:38Z</time>
      </trkpt>
      <trkpt lat="42.219551" lon="2.581531">
        <ele>264</ele>
        <time>2019-08-19T04:28:39Z</time>
      </trkpt>
      <trkpt lat="42.219581" lon="2.581594">
        <ele>264</ele>
        <time>2019-08-19T04:28:40Z</time>
      </trkpt>
      <trkpt lat="42.219597" lon="2.581634">
        <ele>264</ele>
        <time>2019-08-19T04:28:42Z</time>
      </trkpt>
      <trkpt lat="42.219612" lon="2.581674">
        <ele>264</ele>
        <time>2019-08-19T04:28:44Z</time>
      </trkpt>
      <trkpt lat="42.219628" lon="2.581714">
        <ele>264</ele>
        <time>2019-08-19T04:28:45Z</time>
      </trkpt>
      <trkpt lat="42.219643" lon="2.581755">
        <ele>264</ele>
        <time>2019-08-19T04:28:46Z</time>
      </trkpt>
      <trkpt lat="42.219658" lon="2.581795">
        <ele>264</ele>
        <time>2019-08-19T04:28:47Z</time>
      </trkpt>
      <trkpt lat="42.219674" lon="2.581835">
        <ele>264</ele>
        <time>2019-08-19T04:28:48Z</time>
      </trkpt>
      <trkpt lat="42.219689" lon="2.581875">
        <ele>264</ele>
        <time>2019-08-19T04:28:49Z</time>
      </trkpt>
      <trkpt lat="42.219763" lon="2.581944">
        <ele>264</ele>
        <time>2019-08-19T04:28:50Z</time>
      </trkpt>
      <trkpt lat="42.219817" lon="2.581974">
        <ele>264</ele>
        <time>2019-08-19T04:28:52Z</time>
      </trkpt>
      <trkpt lat="42.219872" lon="2.582003">
        <ele>264</ele>
        <time>2019-08-19T04:28:54Z</time>
      </trkpt>
      <trkpt lat="42.219926" lon="2.582033">
        <ele>264</ele>
        <time>2019-08-19T04:28:55Z</time>
      </trkpt>
      <trkpt lat="42.219981" lon="2.582063">
        <ele>264</ele>
        <time>2019-08-19T04:28:57Z</time>
      </trkpt>
      <trkpt lat="42.220035" lon="2.582093">
        <ele>263</ele>
        <time>2019-08-19T04:28:59Z</time>
      </trkpt>
      <trkpt lat="42.220141" lon="2.582039">
        <ele>263</ele>
        <time>2019-08-19T04:29:01Z</time>
      </trkpt>
      <trkpt lat="42.220201" lon="2.582001">
        <ele>263</ele>
        <time>2019-08-19T04:29:02Z</time>
      </trkpt>
      <trkpt lat="42.22026" lon="2.581963">
        <ele>263</ele>
        <time>2019-08-19T04:29:04Z</time>
      </trkpt>
      <trkpt lat="42.220319" lon="2.581925">
        <ele>263</ele>
        <time>2019-08-19T04:29:05Z</time>
      </trkpt>
      <trkpt lat="42.220378" lon="2.581887">
        <ele>263</ele>
        <time>2019-08-19T04:29:06Z</time>
      </trkpt>
      <trkpt lat="42.220438" lon="2.581849">
        <ele>263</ele>
        <time>2019-08-19T04:29:07Z</time>
      </trkpt>
      <trkpt lat="42.220497" lon="2.581811">
        <ele>263</ele>
        <time>2019-08-19T04:29:09Z</time>
      </trkpt>
      <trkpt lat="42.22059" lon="2.581765">
        <ele>263</ele>
        <time>2019-08-19T04:29:10Z</time>
      </trkpt>
      <trkpt lat="42.220635" lon="2.58174">
        <ele>263</ele>
        <time>2019-08-19T04:29:11Z</time>
      </trkpt>
      <trkpt lat="42.220679" lon="2.581714">
        <ele>263</ele>
        <time>2019-08-19T04:29:12Z</time>
      </trkpt>
      <trkpt lat="42.220723" lon="2.581689">
        <ele>263</ele>
        <time>2019-08-19T04:29:13Z</time>
      </trkpt>
      <trkpt lat="42.220767" lon="2.581664">
        <ele>263</ele>
        <time>2019-08-19T04:29:14Z</time>
      </trkpt>
      <trkpt lat="42.220812" lon="2.581639">
        <ele>263</ele>
        <time>2019-08-19T04:29:16Z</time>
      </trkpt>
      <trkpt lat="42.220856" lon="2.581613">
        <ele>263</ele>
        <time>2019-08-19T04:29:17Z</time>
      </trkpt>
      <trkpt lat="42.2209" lon="2.581588">
        <ele>262</ele>
        <time>2019-08-19T04:29:19Z</time>
      </trkpt>
      <trkpt lat="42.220994" lon="2.581523">
        <ele>262</ele>
        <time>2019-08-19T04:29:21Z</time>
      </trkpt>
      <trkpt lat="42.221025" lon="2.581503">
        <ele>262</ele>
        <time>2019-08-19T04:29:23Z</time>
      </trkpt>
      <trkpt lat="42.221055" lon="2.581483">
        <ele>262</ele>
        <time>2019-08-19T04:29:24Z</time>
      </trkpt>
      <trkpt lat="42.221086" lon="2.581464">
        <ele>262</ele>
        <time>2019-08-19T04:29:25Z</time>
      </trkpt>
      <trkpt lat="42.221117" lon="2.581444">
        <ele>262</ele>
        <time>2019-08-19T04:29:26Z</time>
      </trkpt>
      <trkpt lat="42.221148" lon="2.581424">
        <ele>262</ele>
        <time>2019-08-19T04:29:27Z</time>
      </trkpt>
      <trkpt lat="42.221178" lon="2.581404">
        <ele>262</ele>
        <time>2019-08-19T04:29:28Z</time>
      </trkpt>
      <trkpt lat="42.221209" lon="2.581384">
        <ele>263</ele>
        <time>2019-08-19T04:29:29Z</time>
      </trkpt>
      <trkpt lat="42.221199" lon="2.581287">
        <ele>263</ele>
        <time>2019-08-19T04:29:30Z</time>
      </trkpt>
      <trkpt lat="42.221171" lon="2.58123">
        <ele>263</ele>
        <time>2019-08-19T04:29:32Z</time>
      </trkpt>
      <trkpt lat="42.221142" lon="2.581172">
        <ele>263</ele>
        <time>2019-08-19T04:29:33Z</time>
      </trkpt>
      <trkpt lat="42.221114" lon="2.581114">
        <ele>263</ele>
        <time>2019-08-19T04:29:35Z</time>
      </trkpt>
      <trkpt lat="42.221085" lon="2.581056">
        <ele>263</ele>
        <time>2019-08-19T04:29:37Z</time>
      </trkpt>
      <trkpt lat="42.221057" lon="2.580999">
        <ele>263</ele>
        <time>2019-08-19T04:29:38Z</time>
      </trkpt>
      <trkpt lat="42.221028" lon="2.580941">
        <ele>264</ele>
        <time>2019-08-19T04:29:39Z</time>
      </trkpt>
      <trkpt lat="42.221013" lon="2.580795">
        <ele>264</ele>
        <time>2019-08-19T04:29:40Z</time>
      </trkpt>
      <trkpt lat="42.221018" lon="2.580675">
        <ele>264</ele>
        <time>2019-08-19T04:29:41Z</time>
      </trkpt>
      <trkpt lat="42.221023" lon="2.580554">
        <ele>264</ele>
        <time>2019-08-19T04:29:42Z</time>
      </trkpt>
      <trkpt lat="42.221028" lon="2.580433">
        <ele>264</ele>
        <time>2019-08-19T04:29:43Z</time>
      </trkpt>
      <trkpt lat="42.221033" lon="2.580312">
        <ele>264</ele>
        <time>2019-08-19T04:29:45Z</time>
      </trkpt>
      <trkpt lat="42.221038" lon="2.580192">
        <ele>264</ele>
        <time>2019-08-19T04:29:47Z</time>
      </trkpt>
      <trkpt lat="42.221043" lon="2.580071">
        <ele>263</ele>
        <time>2019-08-19T04:29:49Z</time>
      </trkpt>
      <trkpt lat="42.221081" lon="2.579914">
        <ele>263</ele>
        <time>2019-08-19T04:29:50Z</time>
      </trkpt>
      <trkpt lat="42.221107" lon="2.57982">
        <ele>263</ele>
        <time>2019-08-19T04:29:51Z</time>
      </trkpt>
      <trkpt lat="42.221132" lon="2.579727">
        <ele>263</ele>
        <time>2019-08-19T04:29:52Z</time>
      </trkpt>
      <trkpt lat="42.221157" lon="2.579633">
        <ele>263</ele>
        <time>2019-08-19T04:29:54Z</time>
      </trkpt>
      <trkpt lat="42.221182" lon="2.57954">
        <ele>263</ele>
        <time>2019-08-19T04:29:56Z</time>
      </trkpt>
      <trkpt lat="42.221208" lon="2.579446">
        <ele>263</ele>
        <time>2019-08-19T04:29:57Z</time>
      </trkpt>
      <trkpt lat="42.221233" lon="2.579353">
        <ele>263</ele>
        <time>2019-08-19T04:29:58Z</time>
      </trkpt>
      <trkpt lat="42.221258" lon="2.579259">
        <ele>261</ele>
        <time>2019-08-19T04:29:59Z</time>
      </trkpt>
      <trkpt lat="42.221308" lon="2.579097">
        <ele>261</ele>
        <time>2019-08-19T04:30:00Z</time>
      </trkpt>
      <trkpt lat="42.221326" lon="2.579041">
        <ele>261</ele>
        <time>2019-08-19T04:30:01Z</time>
      </trkpt>
      <trkpt lat="42.221345" lon="2.578984">
        <ele>261</ele>
        <time>2019-08-19T04:30:02Z</time>
      </trkpt>
      <trkpt lat="42.221364" lon="2.578928">
        <ele>261</ele>
        <time>2019-08-19T04:30:03Z</time>
      </trkpt>
      <trkpt lat="42.221383" lon="2.578872">
        <ele>261</ele>
        <time>2019-08-19T04:30:04Z</time>
      </trkpt>
      <trkpt lat="42.221401" lon="2.578816">
        <ele>261</ele>
        <time>2019-08-19T04:30:05Z</time>
      </trkpt>
      <trkpt lat="42.22142" lon="2.57876">
        <ele>261</ele>
        <time>2019-08-19T04:30:06Z</time>
      </trkpt>
      <trkpt lat="42.221439" lon="2.578703">
        <ele>261</ele>
        <time>2019-08-19T04:30:07Z</time>
      </trkpt>
      <trkpt lat="42.221457" lon="2.578647">
        <ele>261</ele>
        <time>2019-08-19T04:30:08Z</time>
      </trkpt>
      <trkpt lat="42.221476" lon="2.578591">
        <ele>262</ele>
        <time>2019-08-19T04:30:09Z</time>
      </trkpt>
      <trkpt lat="42.221511" lon="2.578492">
        <ele>262</ele>
        <time>2019-08-19T04:30:10Z</time>
      </trkpt>
      <trkpt lat="42.221535" lon="2.578426">
        <ele>262</ele>
        <time>2019-08-19T04:30:11Z</time>
      </trkpt>
      <trkpt lat="42.221559" lon="2.578359">
        <ele>262</ele>
        <time>2019-08-19T04:30:12Z</time>
      </trkpt>
      <trkpt lat="42.221583" lon="2.578293">
        <ele>262</ele>
        <time>2019-08-19T04:30:13Z</time>
      </trkpt>
      <trkpt lat="42.221607" lon="2.578227">
        <ele>262</ele>
        <time>2019-08-19T04:30:14Z</time>
      </trkpt>
      <trkpt lat="42.22163" lon="2.578161">
        <ele>262</ele>
        <time>2019-08-19T04:30:15Z</time>
      </trkpt>
      <trkpt lat="42.221654" lon="2.578095">
        <ele>262</ele>
        <time>2019-08-19T04:30:16Z</time>
      </trkpt>
      <trkpt lat="42.221678" lon="2.578028">
        <ele>262</ele>
        <time>2019-08-19T04:30:17Z</time>
      </trkpt>
      <trkpt lat="42.221702" lon="2.577962">
        <ele>262</ele>
        <time>2019-08-19T04:30:18Z</time>
      </trkpt>
      <trkpt lat="42.221726" lon="2.577896">
        <ele>263</ele>
        <time>2019-08-19T04:30:19Z</time>
      </trkpt>
      <trkpt lat="42.22179" lon="2.577702">
        <ele>263</ele>
        <time>2019-08-19T04:30:20Z</time>
      </trkpt>
      <trkpt lat="42.221814" lon="2.57762">
        <ele>263</ele>
        <time>2019-08-19T04:30:21Z</time>
      </trkpt>
      <trkpt lat="42.221838" lon="2.577537">
        <ele>263</ele>
        <time>2019-08-19T04:30:22Z</time>
      </trkpt>
      <trkpt lat="42.221862" lon="2.577454">
        <ele>263</ele>
        <time>2019-08-19T04:30:23Z</time>
      </trkpt>
      <trkpt lat="42.221887" lon="2.577372">
        <ele>263</ele>
        <time>2019-08-19T04:30:25Z</time>
      </trkpt>
      <trkpt lat="42.221911" lon="2.577289">
        <ele>263</ele>
        <time>2019-08-19T04:30:26Z</time>
      </trkpt>
      <trkpt lat="42.221935" lon="2.577206">
        <ele>263</ele>
        <time>2019-08-19T04:30:27Z</time>
      </trkpt>
      <trkpt lat="42.221959" lon="2.577124">
        <ele>263</ele>
        <time>2019-08-19T04:30:28Z</time>
      </trkpt>
      <trkpt lat="42.221983" lon="2.577041">
        <ele>263</ele>
        <time>2019-08-19T04:30:29Z</time>
      </trkpt>
      <trkpt lat="42.222016" lon="2.576856">
        <ele>263</ele>
        <time>2019-08-19T04:30:30Z</time>
      </trkpt>
      <trkpt lat="42.22203" lon="2.57676">
        <ele>263</ele>
        <time>2019-08-19T04:30:32Z</time>
      </trkpt>
      <trkpt lat="42.222045" lon="2.576665">
        <ele>263</ele>
        <time>2019-08-19T04:30:33Z</time>
      </trkpt>
      <trkpt lat="42.222059" lon="2.576569">
        <ele>263</ele>
        <time>2019-08-19T04:30:34Z</time>
      </trkpt>
      <trkpt lat="42.222073" lon="2.576473">
        <ele>263</ele>
        <time>2019-08-19T04:30:35Z</time>
      </trkpt>
      <trkpt lat="42.222087" lon="2.576377">
        <ele>263</ele>
        <time>2019-08-19T04:30:36Z</time>
      </trkpt>
      <trkpt lat="42.222102" lon="2.576282">
        <ele>263</ele>
        <time>2019-08-19T04:30:37Z</time>
      </trkpt>
      <trkpt lat="42.222116" lon="2.576186">
        <ele>263</ele>
        <time>2019-08-19T04:30:38Z</time>
      </trkpt>
      <trkpt lat="42.22213" lon="2.57609">
        <ele>262</ele>
        <time>2019-08-19T04:30:40Z</time>
      </trkpt>
      <trkpt lat="42.222139" lon="2.575925">
        <ele>262</ele>
        <time>2019-08-19T04:30:41Z</time>
      </trkpt>
      <trkpt lat="42.222142" lon="2.575824">
        <ele>262</ele>
        <time>2019-08-19T04:30:42Z</time>
      </trkpt>
      <trkpt lat="42.222145" lon="2.575723">
        <ele>262</ele>
        <time>2019-08-19T04:30:43Z</time>
      </trkpt>
      <trkpt lat="42.222148" lon="2.575622">
        <ele>262</ele>
        <time>2019-08-19T04:30:44Z</time>
      </trkpt>
      <trkpt lat="42.22215" lon="2.575522">
        <ele>262</ele>
        <time>2019-08-19T04:30:45Z</time>
      </trkpt>
      <trkpt lat="42.222153" lon="2.575421">
        <ele>262</ele>
        <time>2019-08-19T04:30:46Z</time>
      </trkpt>
      <trkpt lat="42.222156" lon="2.57532">
        <ele>262</ele>
        <time>2019-08-19T04:30:47Z</time>
      </trkpt>
      <trkpt lat="42.222159" lon="2.575219">
        <ele>262</ele>
        <time>2019-08-19T04:30:48Z</time>
      </trkpt>
      <trkpt lat="42.222162" lon="2.575118">
        <ele>260</ele>
        <time>2019-08-19T04:30:49Z</time>
      </trkpt>
      <trkpt lat="42.222156" lon="2.574916">
        <ele>260</ele>
        <time>2019-08-19T04:30:50Z</time>
      </trkpt>
      <trkpt lat="42.22215" lon="2.574817">
        <ele>260</ele>
        <time>2019-08-19T04:30:51Z</time>
      </trkpt>
      <trkpt lat="42.222145" lon="2.574718">
        <ele>260</ele>
        <time>2019-08-19T04:30:52Z</time>
      </trkpt>
      <trkpt lat="42.222139" lon="2.574619">
        <ele>260</ele>
        <time>2019-08-19T04:30:53Z</time>
      </trkpt>
      <trkpt lat="42.222134" lon="2.57452">
        <ele>260</ele>
        <time>2019-08-19T04:30:54Z</time>
      </trkpt>
      <trkpt lat="42.222128" lon="2.574421">
        <ele>260</ele>
        <time>2019-08-19T04:30:55Z</time>
      </trkpt>
      <trkpt lat="42.222123" lon="2.574322">
        <ele>260</ele>
        <time>2019-08-19T04:30:57Z</time>
      </trkpt>
      <trkpt lat="42.222117" lon="2.574223">
        <ele>260</ele>
        <time>2019-08-19T04:30:58Z</time>
      </trkpt>
      <trkpt lat="42.222112" lon="2.574124">
        <ele>259</ele>
        <time>2019-08-19T04:30:59Z</time>
      </trkpt>
      <trkpt lat="42.222093" lon="2.573956">
        <ele>259</ele>
        <time>2019-08-19T04:31:00Z</time>
      </trkpt>
      <trkpt lat="42.222082" lon="2.573881">
        <ele>259</ele>
        <time>2019-08-19T04:31:01Z</time>
      </trkpt>
      <trkpt lat="42.222072" lon="2.573805">
        <ele>259</ele>
        <time>2019-08-19T04:31:02Z</time>
      </trkpt>
      <trkpt lat="42.222062" lon="2.57373">
        <ele>259</ele>
        <time>2019-08-19T04:31:03Z</time>
      </trkpt>
      <trkpt lat="42.222052" lon="2.573654">
        <ele>259</ele>
        <time>2019-08-19T04:31:04Z</time>
      </trkpt>
      <trkpt lat="42.222041" lon="2.573578">
        <ele>259</ele>
        <time>2019-08-19T04:31:05Z</time>
      </trkpt>
      <trkpt lat="42.222031" lon="2.573503">
        <ele>259</ele>
        <time>2019-08-19T04:31:06Z</time>
      </trkpt>
      <trkpt lat="42.222021" lon="2.573427">
        <ele>259</ele>
        <time>2019-08-19T04:31:07Z</time>
      </trkpt>
      <trkpt lat="42.22201" lon="2.573352">
        <ele>259</ele>
        <time>2019-08-19T04:31:08Z</time>
      </trkpt>
      <trkpt lat="42.222" lon="2.573276">
        <ele>259</ele>
        <time>2019-08-19T04:31:09Z</time>
      </trkpt>
      <trkpt lat="42.221969" lon="2.573123">
        <ele>259</ele>
        <time>2019-08-19T04:31:10Z</time>
      </trkpt>
      <trkpt lat="42.221953" lon="2.57305">
        <ele>259</ele>
        <time>2019-08-19T04:31:11Z</time>
      </trkpt>
      <trkpt lat="42.221937" lon="2.572978">
        <ele>259</ele>
        <time>2019-08-19T04:31:12Z</time>
      </trkpt>
      <trkpt lat="42.221921" lon="2.572905">
        <ele>259</ele>
        <time>2019-08-19T04:31:13Z</time>
      </trkpt>
      <trkpt lat="42.221906" lon="2.572832">
        <ele>259</ele>
        <time>2019-08-19T04:31:14Z</time>
      </trkpt>
      <trkpt lat="42.22189" lon="2.572759">
        <ele>259</ele>
        <time>2019-08-19T04:31:16Z</time>
      </trkpt>
      <trkpt lat="42.221874" lon="2.572687">
        <ele>259</ele>
        <time>2019-08-19T04:31:17Z</time>
      </trkpt>
      <trkpt lat="42.221858" lon="2.572614">
        <ele>259</ele>
        <time>2019-08-19T04:31:18Z</time>
      </trkpt>
      <trkpt lat="42.221842" lon="2.572541">
        <ele>260</ele>
        <time>2019-08-19T04:31:19Z</time>
      </trkpt>
      <trkpt lat="42.221808" lon="2.572414">
        <ele>260</ele>
        <time>2019-08-19T04:31:20Z</time>
      </trkpt>
      <trkpt lat="42.221791" lon="2.572354">
        <ele>260</ele>
        <time>2019-08-19T04:31:21Z</time>
      </trkpt>
      <trkpt lat="42.221774" lon="2.572293">
        <ele>260</ele>
        <time>2019-08-19T04:31:22Z</time>
      </trkpt>
      <trkpt lat="42.221757" lon="2.572233">
        <ele>260</ele>
        <time>2019-08-19T04:31:23Z</time>
      </trkpt>
      <trkpt lat="42.221741" lon="2.572173">
        <ele>260</ele>
        <time>2019-08-19T04:31:24Z</time>
      </trkpt>
      <trkpt lat="42.221724" lon="2.572113">
        <ele>260</ele>
        <time>2019-08-19T04:31:26Z</time>
      </trkpt>
      <trkpt lat="42.221707" lon="2.572052">
        <ele>260</ele>
        <time>2019-08-19T04:31:27Z</time>
      </trkpt>
      <trkpt lat="42.22169" lon="2.571992">
        <ele>260</ele>
        <time>2019-08-19T04:31:28Z</time>
      </trkpt>
      <trkpt lat="42.221673" lon="2.571932">
        <ele>261</ele>
        <time>2019-08-19T04:31:29Z</time>
      </trkpt>
      <trkpt lat="42.221637" lon="2.571824">
        <ele>261</ele>
        <time>2019-08-19T04:31:30Z</time>
      </trkpt>
      <trkpt lat="42.221619" lon="2.571771">
        <ele>261</ele>
        <time>2019-08-19T04:31:32Z</time>
      </trkpt>
      <trkpt lat="42.2216" lon="2.571718">
        <ele>261</ele>
        <time>2019-08-19T04:31:33Z</time>
      </trkpt>
      <trkpt lat="42.221582" lon="2.571665">
        <ele>261</ele>
        <time>2019-08-19T04:31:34Z</time>
      </trkpt>
      <trkpt lat="42.221564" lon="2.571612">
        <ele>261</ele>
        <time>2019-08-19T04:31:36Z</time>
      </trkpt>
      <trkpt lat="42.221546" lon="2.571559">
        <ele>261</ele>
        <time>2019-08-19T04:31:37Z</time>
      </trkpt>
      <trkpt lat="42.221527" lon="2.571506">
        <ele>261</ele>
        <time>2019-08-19T04:31:38Z</time>
      </trkpt>
      <trkpt lat="42.221509" lon="2.571453">
        <ele>262</ele>
        <time>2019-08-19T04:31:39Z</time>
      </trkpt>
      <trkpt lat="42.221447" lon="2.571293">
        <ele>262</ele>
        <time>2019-08-19T04:31:41Z</time>
      </trkpt>
      <trkpt lat="42.221423" lon="2.571237">
        <ele>262</ele>
        <time>2019-08-19T04:31:42Z</time>
      </trkpt>
      <trkpt lat="42.2214" lon="2.57118">
        <ele>262</ele>
        <time>2019-08-19T04:31:43Z</time>
      </trkpt>
      <trkpt lat="42.221377" lon="2.571124">
        <ele>262</ele>
        <time>2019-08-19T04:31:44Z</time>
      </trkpt>
      <trkpt lat="42.221353" lon="2.571067">
        <ele>262</ele>
        <time>2019-08-19T04:31:45Z</time>
      </trkpt>
      <trkpt lat="42.22133" lon="2.571011">
        <ele>262</ele>
        <time>2019-08-19T04:31:47Z</time>
      </trkpt>
      <trkpt lat="42.221306" lon="2.570954">
        <ele>262</ele>
        <time>2019-08-19T04:31:48Z</time>
      </trkpt>
      <trkpt lat="42.221283" lon="2.570898">
        <ele>264</ele>
        <time>2019-08-19T04:31:49Z</time>
      </trkpt>
      <trkpt lat="42.221241" lon="2.570806">
        <ele>264</ele>
        <time>2019-08-19T04:31:50Z</time>
      </trkpt>
      <trkpt lat="42.221221" lon="2.570763">
        <ele>264</ele>
        <time>2019-08-19T04:31:51Z</time>
      </trkpt>
      <trkpt lat="42.221201" lon="2.570719">
        <ele>264</ele>
        <time>2019-08-19T04:31:52Z</time>
      </trkpt>
      <trkpt lat="42.221181" lon="2.570676">
        <ele>264</ele>
        <time>2019-08-19T04:31:53Z</time>
      </trkpt>
      <trkpt lat="42.221162" lon="2.570633">
        <ele>264</ele>
        <time>2019-08-19T04:31:55Z</time>
      </trkpt>
      <trkpt lat="42.221142" lon="2.57059">
        <ele>264</ele>
        <time>2019-08-19T04:31:56Z</time>
      </trkpt>
      <trkpt lat="42.221122" lon="2.570546">
        <ele>264</ele>
        <time>2019-08-19T04:31:57Z</time>
      </trkpt>
      <trkpt lat="42.221102" lon="2.570503">
        <ele>264</ele>
        <time>2019-08-19T04:31:58Z</time>
      </trkpt>
      <trkpt lat="42.221082" lon="2.57046">
        <ele>265</ele>
        <time>2019-08-19T04:31:59Z</time>
      </trkpt>
      <trkpt lat="42.221039" lon="2.570373">
        <ele>265</ele>
        <time>2019-08-19T04:32:00Z</time>
      </trkpt>
      <trkpt lat="42.221021" lon="2.570333">
        <ele>265</ele>
        <time>2019-08-19T04:32:01Z</time>
      </trkpt>
      <trkpt lat="42.221003" lon="2.570292">
        <ele>265</ele>
        <time>2019-08-19T04:32:02Z</time>
      </trkpt>
      <trkpt lat="42.220985" lon="2.570251">
        <ele>265</ele>
        <time>2019-08-19T04:32:03Z</time>
      </trkpt>
      <trkpt lat="42.220967" lon="2.57021">
        <ele>265</ele>
        <time>2019-08-19T04:32:04Z</time>
      </trkpt>
      <trkpt lat="42.220949" lon="2.57017">
        <ele>265</ele>
        <time>2019-08-19T04:32:05Z</time>
      </trkpt>
      <trkpt lat="42.220931" lon="2.570129">
        <ele>265</ele>
        <time>2019-08-19T04:32:06Z</time>
      </trkpt>
      <trkpt lat="42.220913" lon="2.570088">
        <ele>265</ele>
        <time>2019-08-19T04:32:07Z</time>
      </trkpt>
      <trkpt lat="42.220895" lon="2.570048">
        <ele>265</ele>
        <time>2019-08-19T04:32:08Z</time>
      </trkpt>
      <trkpt lat="42.220877" lon="2.570007">
        <ele>266</ele>
        <time>2019-08-19T04:32:09Z</time>
      </trkpt>
      <trkpt lat="42.220831" lon="2.569903">
        <ele>266</ele>
        <time>2019-08-19T04:32:10Z</time>
      </trkpt>
      <trkpt lat="42.220802" lon="2.569841">
        <ele>266</ele>
        <time>2019-08-19T04:32:11Z</time>
      </trkpt>
      <trkpt lat="42.220772" lon="2.569779">
        <ele>266</ele>
        <time>2019-08-19T04:32:12Z</time>
      </trkpt>
      <trkpt lat="42.220742" lon="2.569717">
        <ele>266</ele>
        <time>2019-08-19T04:32:13Z</time>
      </trkpt>
      <trkpt lat="42.220713" lon="2.569655">
        <ele>266</ele>
        <time>2019-08-19T04:32:14Z</time>
      </trkpt>
      <trkpt lat="42.220683" lon="2.569593">
        <ele>266</ele>
        <time>2019-08-19T04:32:15Z</time>
      </trkpt>
      <trkpt lat="42.220653" lon="2.569531">
        <ele>266</ele>
        <time>2019-08-19T04:32:16Z</time>
      </trkpt>
      <trkpt lat="42.220624" lon="2.569469">
        <ele>266</ele>
        <time>2019-08-19T04:32:18Z</time>
      </trkpt>
      <trkpt lat="42.220594" lon="2.569407">
        <ele>266</ele>
        <time>2019-08-19T04:32:19Z</time>
      </trkpt>
      <trkpt lat="42.220536" lon="2.569249">
        <ele>266</ele>
        <time>2019-08-19T04:32:20Z</time>
      </trkpt>
      <trkpt lat="42.220508" lon="2.569157">
        <ele>266</ele>
        <time>2019-08-19T04:32:22Z</time>
      </trkpt>
      <trkpt lat="42.22048" lon="2.569065">
        <ele>266</ele>
        <time>2019-08-19T04:32:23Z</time>
      </trkpt>
      <trkpt lat="42.220452" lon="2.568972">
        <ele>266</ele>
        <time>2019-08-19T04:32:24Z</time>
      </trkpt>
      <trkpt lat="42.220424" lon="2.56888">
        <ele>266</ele>
        <time>2019-08-19T04:32:25Z</time>
      </trkpt>
      <trkpt lat="42.220396" lon="2.568788">
        <ele>266</ele>
        <time>2019-08-19T04:32:26Z</time>
      </trkpt>
      <trkpt lat="42.220368" lon="2.568696">
        <ele>266</ele>
        <time>2019-08-19T04:32:28Z</time>
      </trkpt>
      <trkpt lat="42.22034" lon="2.568604">
        <ele>265</ele>
        <time>2019-08-19T04:32:30Z</time>
      </trkpt>
      <trkpt lat="42.220332" lon="2.568468">
        <ele>265</ele>
        <time>2019-08-19T04:32:31Z</time>
      </trkpt>
      <trkpt lat="42.220334" lon="2.568402">
        <ele>265</ele>
        <time>2019-08-19T04:32:33Z</time>
      </trkpt>
      <trkpt lat="42.220336" lon="2.568336">
        <ele>265</ele>
        <time>2019-08-19T04:32:34Z</time>
      </trkpt>
      <trkpt lat="42.220339" lon="2.56827">
        <ele>265</ele>
        <time>2019-08-19T04:32:35Z</time>
      </trkpt>
      <trkpt lat="42.220341" lon="2.568203">
        <ele>265</ele>
        <time>2019-08-19T04:32:36Z</time>
      </trkpt>
      <trkpt lat="42.220343" lon="2.568137">
        <ele>265</ele>
        <time>2019-08-19T04:32:38Z</time>
      </trkpt>
      <trkpt lat="42.220345" lon="2.568071">
        <ele>265</ele>
        <time>2019-08-19T04:32:39Z</time>
      </trkpt>
      <trkpt lat="42.220347" lon="2.568005">
        <ele>264</ele>
        <time>2019-08-19T04:32:40Z</time>
      </trkpt>
      <trkpt lat="42.220375" lon="2.567765">
        <ele>264</ele>
        <time>2019-08-19T04:32:42Z</time>
      </trkpt>
      <trkpt lat="42.220389" lon="2.567695">
        <ele>264</ele>
        <time>2019-08-19T04:32:44Z</time>
      </trkpt>
      <trkpt lat="42.220402" lon="2.567626">
        <ele>264</ele>
        <time>2019-08-19T04:32:45Z</time>
      </trkpt>
      <trkpt lat="42.220415" lon="2.567557">
        <ele>264</ele>
        <time>2019-08-19T04:32:47Z</time>
      </trkpt>
      <trkpt lat="42.220429" lon="2.567487">
        <ele>264</ele>
        <time>2019-08-19T04:32:48Z</time>
      </trkpt>
      <trkpt lat="42.220442" lon="2.567418">
        <ele>266</ele>
        <time>2019-08-19T04:32:49Z</time>
      </trkpt>
      <trkpt lat="42.220479" lon="2.567323">
        <ele>266</ele>
        <time>2019-08-19T04:32:50Z</time>
      </trkpt>
      <trkpt lat="42.220507" lon="2.56726">
        <ele>266</ele>
        <time>2019-08-19T04:32:51Z</time>
      </trkpt>
      <trkpt lat="42.220535" lon="2.567197">
        <ele>266</ele>
        <time>2019-08-19T04:32:53Z</time>
      </trkpt>
      <trkpt lat="42.220563" lon="2.567134">
        <ele>266</ele>
        <time>2019-08-19T04:32:54Z</time>
      </trkpt>
      <trkpt lat="42.220591" lon="2.56707">
        <ele>266</ele>
        <time>2019-08-19T04:32:55Z</time>
      </trkpt>
      <trkpt lat="42.220619" lon="2.567007">
        <ele>266</ele>
        <time>2019-08-19T04:32:57Z</time>
      </trkpt>
      <trkpt lat="42.220647" lon="2.566944">
        <ele>266</ele>
        <time>2019-08-19T04:32:58Z</time>
      </trkpt>
      <trkpt lat="42.220675" lon="2.566881">
        <ele>266</ele>
        <time>2019-08-19T04:32:59Z</time>
      </trkpt>
      <trkpt lat="42.220716" lon="2.566799">
        <ele>266</ele>
        <time>2019-08-19T04:33:00Z</time>
      </trkpt>
      <trkpt lat="42.220745" lon="2.56674">
        <ele>266</ele>
        <time>2019-08-19T04:33:01Z</time>
      </trkpt>
      <trkpt lat="42.220774" lon="2.56668">
        <ele>266</ele>
        <time>2019-08-19T04:33:02Z</time>
      </trkpt>
      <trkpt lat="42.220804" lon="2.566621">
        <ele>266</ele>
        <time>2019-08-19T04:33:04Z</time>
      </trkpt>
      <trkpt lat="42.220833" lon="2.566562">
        <ele>266</ele>
        <time>2019-08-19T04:33:06Z</time>
      </trkpt>
      <trkpt lat="42.220862" lon="2.566503">
        <ele>266</ele>
        <time>2019-08-19T04:33:07Z</time>
      </trkpt>
      <trkpt lat="42.220891" lon="2.566443">
        <ele>266</ele>
        <time>2019-08-19T04:33:09Z</time>
      </trkpt>
      <trkpt lat="42.22092" lon="2.566384">
        <ele>266</ele>
        <time>2019-08-19T04:33:10Z</time>
      </trkpt>
      <trkpt lat="42.22096" lon="2.566268">
        <ele>266</ele>
        <time>2019-08-19T04:33:11Z</time>
      </trkpt>
      <trkpt lat="42.220971" lon="2.566223">
        <ele>266</ele>
        <time>2019-08-19T04:33:12Z</time>
      </trkpt>
      <trkpt lat="42.220983" lon="2.566177">
        <ele>266</ele>
        <time>2019-08-19T04:33:13Z</time>
      </trkpt>
      <trkpt lat="42.220994" lon="2.566132">
        <ele>266</ele>
        <time>2019-08-19T04:33:14Z</time>
      </trkpt>
      <trkpt lat="42.221005" lon="2.566087">
        <ele>266</ele>
        <time>2019-08-19T04:33:15Z</time>
      </trkpt>
      <trkpt lat="42.221016" lon="2.566042">
        <ele>266</ele>
        <time>2019-08-19T04:33:16Z</time>
      </trkpt>
      <trkpt lat="42.221028" lon="2.565996">
        <ele>266</ele>
        <time>2019-08-19T04:33:17Z</time>
      </trkpt>
      <trkpt lat="42.221039" lon="2.565951">
        <ele>266</ele>
        <time>2019-08-19T04:33:18Z</time>
      </trkpt>
      <trkpt lat="42.22105" lon="2.565906">
        <ele>266</ele>
        <time>2019-08-19T04:33:19Z</time>
      </trkpt>
      <trkpt lat="42.221057" lon="2.565762">
        <ele>266</ele>
        <time>2019-08-19T04:33:20Z</time>
      </trkpt>
      <trkpt lat="42.221057" lon="2.565674">
        <ele>266</ele>
        <time>2019-08-19T04:33:22Z</time>
      </trkpt>
      <trkpt lat="42.221058" lon="2.565586">
        <ele>266</ele>
        <time>2019-08-19T04:33:23Z</time>
      </trkpt>
      <trkpt lat="42.221058" lon="2.565497">
        <ele>266</ele>
        <time>2019-08-19T04:33:25Z</time>
      </trkpt>
      <trkpt lat="42.221059" lon="2.565409">
        <ele>266</ele>
        <time>2019-08-19T04:33:27Z</time>
      </trkpt>
      <trkpt lat="42.221059" lon="2.565321">
        <ele>267</ele>
        <time>2019-08-19T04:33:29Z</time>
      </trkpt>
      <trkpt lat="42.221051" lon="2.56514">
        <ele>267</ele>
        <time>2019-08-19T04:33:31Z</time>
      </trkpt>
      <trkpt lat="42.221048" lon="2.56508">
        <ele>267</ele>
        <time>2019-08-19T04:33:33Z</time>
      </trkpt>
      <trkpt lat="42.221045" lon="2.565021">
        <ele>267</ele>
        <time>2019-08-19T04:33:35Z</time>
      </trkpt>
      <trkpt lat="42.221041" lon="2.564962">
        <ele>267</ele>
        <time>2019-08-19T04:33:36Z</time>
      </trkpt>
      <trkpt lat="42.221038" lon="2.564903">
        <ele>267</ele>
        <time>2019-08-19T04:33:37Z</time>
      </trkpt>
      <trkpt lat="42.221035" lon="2.564843">
        <ele>267</ele>
        <time>2019-08-19T04:33:38Z</time>
      </trkpt>
      <trkpt lat="42.221032" lon="2.564784">
        <ele>267</ele>
        <time>2019-08-19T04:33:39Z</time>
      </trkpt>
      <trkpt lat="42.221026" lon="2.564668">
        <ele>267</ele>
        <time>2019-08-19T04:33:40Z</time>
      </trkpt>
      <trkpt lat="42.221022" lon="2.564605">
        <ele>267</ele>
        <time>2019-08-19T04:33:41Z</time>
      </trkpt>
      <trkpt lat="42.221019" lon="2.564541">
        <ele>267</ele>
        <time>2019-08-19T04:33:42Z</time>
      </trkpt>
      <trkpt lat="42.221016" lon="2.564477">
        <ele>267</ele>
        <time>2019-08-19T04:33:43Z</time>
      </trkpt>
      <trkpt lat="42.221012" lon="2.564414">
        <ele>267</ele>
        <time>2019-08-19T04:33:44Z</time>
      </trkpt>
      <trkpt lat="42.221009" lon="2.56435">
        <ele>267</ele>
        <time>2019-08-19T04:33:45Z</time>
      </trkpt>
      <trkpt lat="42.221005" lon="2.564287">
        <ele>267</ele>
        <time>2019-08-19T04:33:47Z</time>
      </trkpt>
      <trkpt lat="42.221002" lon="2.564223">
        <ele>268</ele>
        <time>2019-08-19T04:33:49Z</time>
      </trkpt>
      <trkpt lat="42.220991" lon="2.564114">
        <ele>268</ele>
        <time>2019-08-19T04:33:51Z</time>
      </trkpt>
      <trkpt lat="42.220984" lon="2.564058">
        <ele>268</ele>
        <time>2019-08-19T04:33:52Z</time>
      </trkpt>
      <trkpt lat="42.220978" lon="2.564002">
        <ele>268</ele>
        <time>2019-08-19T04:33:53Z</time>
      </trkpt>
      <trkpt lat="42.220971" lon="2.563946">
        <ele>268</ele>
        <time>2019-08-19T04:33:54Z</time>
      </trkpt>
      <trkpt lat="42.220964" lon="2.56389">
        <ele>268</ele>
        <time>2019-08-19T04:33:55Z</time>
      </trkpt>
      <trkpt lat="42.220957" lon="2.563834">
        <ele>268</ele>
        <time>2019-08-19T04:33:56Z</time>
      </trkpt>
      <trkpt lat="42.220951" lon="2.563778">
        <ele>268</ele>
        <time>2019-08-19T04:33:57Z</time>
      </trkpt>
      <trkpt lat="42.220944" lon="2.563722">
        <ele>268</ele>
        <time>2019-08-19T04:33:58Z</time>
      </trkpt>
      <trkpt lat="42.220937" lon="2.563666">
        <ele>268</ele>
        <time>2019-08-19T04:33:59Z</time>
      </trkpt>
      <trkpt lat="42.220922" lon="2.563551">
        <ele>268</ele>
        <time>2019-08-19T04:34:00Z</time>
      </trkpt>
      <trkpt lat="42.220915" lon="2.563492">
        <ele>268</ele>
        <time>2019-08-19T04:34:02Z</time>
      </trkpt>
      <trkpt lat="42.220908" lon="2.563433">
        <ele>268</ele>
        <time>2019-08-19T04:34:03Z</time>
      </trkpt>
      <trkpt lat="42.220901" lon="2.563375">
        <ele>268</ele>
        <time>2019-08-19T04:34:05Z</time>
      </trkpt>
      <trkpt lat="42.220894" lon="2.563316">
        <ele>268</ele>
        <time>2019-08-19T04:34:06Z</time>
      </trkpt>
      <trkpt lat="42.220887" lon="2.563257">
        <ele>268</ele>
        <time>2019-08-19T04:34:08Z</time>
      </trkpt>
      <trkpt lat="42.22088" lon="2.563198">
        <ele>269</ele>
        <time>2019-08-19T04:34:09Z</time>
      </trkpt>
      <trkpt lat="42.220868" lon="2.563093">
        <ele>269</ele>
        <time>2019-08-19T04:34:10Z</time>
      </trkpt>
      <trkpt lat="42.220862" lon="2.563043">
        <ele>269</ele>
        <time>2019-08-19T04:34:11Z</time>
      </trkpt>
      <trkpt lat="42.220857" lon="2.562992">
        <ele>269</ele>
        <time>2019-08-19T04:34:12Z</time>
      </trkpt>
      <trkpt lat="42.220851" lon="2.562941">
        <ele>269</ele>
        <time>2019-08-19T04:34:13Z</time>
      </trkpt>
      <trkpt lat="42.220845" lon="2.56289">
        <ele>269</ele>
        <time>2019-08-19T04:34:14Z</time>
      </trkpt>
      <trkpt lat="42.220839" lon="2.56284">
        <ele>269</ele>
        <time>2019-08-19T04:34:15Z</time>
      </trkpt>
      <trkpt lat="42.220833" lon="2.562789">
        <ele>269</ele>
        <time>2019-08-19T04:34:16Z</time>
      </trkpt>
      <trkpt lat="42.220828" lon="2.562738">
        <ele>269</ele>
        <time>2019-08-19T04:34:17Z</time>
      </trkpt>
      <trkpt lat="42.220822" lon="2.562688">
        <ele>269</ele>
        <time>2019-08-19T04:34:18Z</time>
      </trkpt>
      <trkpt lat="42.220816" lon="2.562637">
        <ele>269</ele>
        <time>2019-08-19T04:34:19Z</time>
      </trkpt>
      <trkpt lat="42.2208" lon="2.562508">
        <ele>269</ele>
        <time>2019-08-19T04:34:20Z</time>
      </trkpt>
      <trkpt lat="42.220791" lon="2.56244">
        <ele>269</ele>
        <time>2019-08-19T04:34:21Z</time>
      </trkpt>
      <trkpt lat="42.220782" lon="2.562371">
        <ele>269</ele>
        <time>2019-08-19T04:34:22Z</time>
      </trkpt>
      <trkpt lat="42.220773" lon="2.562303">
        <ele>269</ele>
        <time>2019-08-19T04:34:23Z</time>
      </trkpt>
      <trkpt lat="42.220764" lon="2.562234">
        <ele>269</ele>
        <time>2019-08-19T04:34:24Z</time>
      </trkpt>
      <trkpt lat="42.220755" lon="2.562166">
        <ele>269</ele>
        <time>2019-08-19T04:34:25Z</time>
      </trkpt>
      <trkpt lat="42.220746" lon="2.562097">
        <ele>269</ele>
        <time>2019-08-19T04:34:26Z</time>
      </trkpt>
      <trkpt lat="42.220737" lon="2.562029">
        <ele>269</ele>
        <time>2019-08-19T04:34:27Z</time>
      </trkpt>
      <trkpt lat="42.220728" lon="2.56196">
        <ele>269</ele>
        <time>2019-08-19T04:34:28Z</time>
      </trkpt>
      <trkpt lat="42.220719" lon="2.561892">
        <ele>269</ele>
        <time>2019-08-19T04:34:29Z</time>
      </trkpt>
      <trkpt lat="42.220697" lon="2.561746">
        <ele>269</ele>
        <time>2019-08-19T04:34:30Z</time>
      </trkpt>
      <trkpt lat="42.220688" lon="2.561675">
        <ele>269</ele>
        <time>2019-08-19T04:34:31Z</time>
      </trkpt>
      <trkpt lat="42.220679" lon="2.561604">
        <ele>269</ele>
        <time>2019-08-19T04:34:32Z</time>
      </trkpt>
      <trkpt lat="42.22067" lon="2.561533">
        <ele>269</ele>
        <time>2019-08-19T04:34:33Z</time>
      </trkpt>
      <trkpt lat="42.22066" lon="2.561462">
        <ele>269</ele>
        <time>2019-08-19T04:34:35Z</time>
      </trkpt>
      <trkpt lat="42.220651" lon="2.561391">
        <ele>269</ele>
        <time>2019-08-19T04:34:36Z</time>
      </trkpt>
      <trkpt lat="42.220642" lon="2.56132">
        <ele>269</ele>
        <time>2019-08-19T04:34:37Z</time>
      </trkpt>
      <trkpt lat="42.220633" lon="2.561249">
        <ele>269</ele>
        <time>2019-08-19T04:34:38Z</time>
      </trkpt>
      <trkpt lat="42.220624" lon="2.561178">
        <ele>268</ele>
        <time>2019-08-19T04:34:39Z</time>
      </trkpt>
      <trkpt lat="42.220607" lon="2.560996">
        <ele>268</ele>
        <time>2019-08-19T04:34:40Z</time>
      </trkpt>
      <trkpt lat="42.220601" lon="2.560898">
        <ele>268</ele>
        <time>2019-08-19T04:34:41Z</time>
      </trkpt>
      <trkpt lat="42.220596" lon="2.560799">
        <ele>268</ele>
        <time>2019-08-19T04:34:42Z</time>
      </trkpt>
      <trkpt lat="42.22059" lon="2.560701">
        <ele>268</ele>
        <time>2019-08-19T04:34:43Z</time>
      </trkpt>
      <trkpt lat="42.220585" lon="2.560603">
        <ele>268</ele>
        <time>2019-08-19T04:34:44Z</time>
      </trkpt>
      <trkpt lat="42.220579" lon="2.560505">
        <ele>268</ele>
        <time>2019-08-19T04:34:46Z</time>
      </trkpt>
      <trkpt lat="42.220574" lon="2.560406">
        <ele>268</ele>
        <time>2019-08-19T04:34:47Z</time>
      </trkpt>
      <trkpt lat="42.220568" lon="2.560308">
        <ele>268</ele>
        <time>2019-08-19T04:34:48Z</time>
      </trkpt>
      <trkpt lat="42.220563" lon="2.56021">
        <ele>266</ele>
        <time>2019-08-19T04:34:49Z</time>
      </trkpt>
      <trkpt lat="42.220565" lon="2.559962">
        <ele>266</ele>
        <time>2019-08-19T04:34:50Z</time>
      </trkpt>
      <trkpt lat="42.220567" lon="2.559865">
        <ele>266</ele>
        <time>2019-08-19T04:34:51Z</time>
      </trkpt>
      <trkpt lat="42.220568" lon="2.559768">
        <ele>266</ele>
        <time>2019-08-19T04:34:52Z</time>
      </trkpt>
      <trkpt lat="42.22057" lon="2.559671">
        <ele>266</ele>
        <time>2019-08-19T04:34:53Z</time>
      </trkpt>
      <trkpt lat="42.220572" lon="2.559573">
        <ele>266</ele>
        <time>2019-08-19T04:34:54Z</time>
      </trkpt>
      <trkpt lat="42.220574" lon="2.559476">
        <ele>266</ele>
        <time>2019-08-19T04:34:55Z</time>
      </trkpt>
      <trkpt lat="42.220575" lon="2.559379">
        <ele>266</ele>
        <time>2019-08-19T04:34:56Z</time>
      </trkpt>
      <trkpt lat="42.220577" lon="2.559282">
        <ele>266</ele>
        <time>2019-08-19T04:34:58Z</time>
      </trkpt>
      <trkpt lat="42.220579" lon="2.559185">
        <ele>265</ele>
        <time>2019-08-19T04:34:59Z</time>
      </trkpt>
      <trkpt lat="42.220584" lon="2.558935">
        <ele>265</ele>
        <time>2019-08-19T04:35:00Z</time>
      </trkpt>
      <trkpt lat="42.220587" lon="2.5588">
        <ele>265</ele>
        <time>2019-08-19T04:35:01Z</time>
      </trkpt>
      <trkpt lat="42.22059" lon="2.558666">
        <ele>265</ele>
        <time>2019-08-19T04:35:02Z</time>
      </trkpt>
      <trkpt lat="42.220594" lon="2.558532">
        <ele>265</ele>
        <time>2019-08-19T04:35:03Z</time>
      </trkpt>
      <trkpt lat="42.220597" lon="2.558397">
        <ele>265</ele>
        <time>2019-08-19T04:35:04Z</time>
      </trkpt>
      <trkpt lat="42.2206" lon="2.558263">
        <ele>265</ele>
        <time>2019-08-19T04:35:06Z</time>
      </trkpt>
      <trkpt lat="42.220603" lon="2.558128">
        <ele>265</ele>
        <time>2019-08-19T04:35:08Z</time>
      </trkpt>
      <trkpt lat="42.220606" lon="2.557994">
        <ele>262</ele>
        <time>2019-08-19T04:35:09Z</time>
      </trkpt>
      <trkpt lat="42.220608" lon="2.557875">
        <ele>262</ele>
        <time>2019-08-19T04:35:10Z</time>
      </trkpt>
      <trkpt lat="42.22061" lon="2.557756">
        <ele>262</ele>
        <time>2019-08-19T04:35:11Z</time>
      </trkpt>
      <trkpt lat="42.220613" lon="2.557638">
        <ele>262</ele>
        <time>2019-08-19T04:35:12Z</time>
      </trkpt>
      <trkpt lat="42.220615" lon="2.55752">
        <ele>262</ele>
        <time>2019-08-19T04:35:13Z</time>
      </trkpt>
      <trkpt lat="42.220623" lon="2.557287">
        <ele>262</ele>
        <time>2019-08-19T04:35:14Z</time>
      </trkpt>
      <trkpt lat="42.220626" lon="2.557171">
        <ele>262</ele>
        <time>2019-08-19T04:35:15Z</time>
      </trkpt>
      <trkpt lat="42.220632" lon="2.55694">
        <ele>262</ele>
        <time>2019-08-19T04:35:17Z</time>
      </trkpt>
      <trkpt lat="42.220633" lon="2.556826">
        <ele>262</ele>
        <time>2019-08-19T04:35:18Z</time>
      </trkpt>
      <trkpt lat="42.220636" lon="2.556714">
        <ele>260</ele>
        <time>2019-08-19T04:35:19Z</time>
      </trkpt>
      <trkpt lat="42.22064" lon="2.556504">
        <ele>260</ele>
        <time>2019-08-19T04:35:20Z</time>
      </trkpt>
      <trkpt lat="42.220642" lon="2.556406">
        <ele>260</ele>
        <time>2019-08-19T04:35:21Z</time>
      </trkpt>
      <trkpt lat="42.220644" lon="2.556308">
        <ele>260</ele>
        <time>2019-08-19T04:35:22Z</time>
      </trkpt>
      <trkpt lat="42.220646" lon="2.55621">
        <ele>260</ele>
        <time>2019-08-19T04:35:23Z</time>
      </trkpt>
      <trkpt lat="42.220647" lon="2.556113">
        <ele>260</ele>
        <time>2019-08-19T04:35:24Z</time>
      </trkpt>
      <trkpt lat="42.220649" lon="2.556015">
        <ele>260</ele>
        <time>2019-08-19T04:35:25Z</time>
      </trkpt>
      <trkpt lat="42.220651" lon="2.555917">
        <ele>260</ele>
        <time>2019-08-19T04:35:27Z</time>
      </trkpt>
      <trkpt lat="42.220653" lon="2.555819">
        <ele>260</ele>
        <time>2019-08-19T04:35:28Z</time>
      </trkpt>
      <trkpt lat="42.220655" lon="2.555721">
        <ele>259</ele>
        <time>2019-08-19T04:35:29Z</time>
      </trkpt>
      <trkpt lat="42.22066" lon="2.555522">
        <ele>259</ele>
        <time>2019-08-19T04:35:30Z</time>
      </trkpt>
      <trkpt lat="42.220663" lon="2.555434">
        <ele>259</ele>
        <time>2019-08-19T04:35:31Z</time>
      </trkpt>
      <trkpt lat="42.220667" lon="2.555346">
        <ele>259</ele>
        <time>2019-08-19T04:35:32Z</time>
      </trkpt>
      <trkpt lat="42.22067" lon="2.555258">
        <ele>259</ele>
        <time>2019-08-19T04:35:33Z</time>
      </trkpt>
      <trkpt lat="42.220674" lon="2.55517">
        <ele>259</ele>
        <time>2019-08-19T04:35:34Z</time>
      </trkpt>
      <trkpt lat="42.220677" lon="2.555082">
        <ele>259</ele>
        <time>2019-08-19T04:35:35Z</time>
      </trkpt>
      <trkpt lat="42.220681" lon="2.554994">
        <ele>259</ele>
        <time>2019-08-19T04:35:36Z</time>
      </trkpt>
      <trkpt lat="42.220684" lon="2.554906">
        <ele>259</ele>
        <time>2019-08-19T04:35:37Z</time>
      </trkpt>
      <trkpt lat="42.220688" lon="2.554818">
        <ele>258</ele>
        <time>2019-08-19T04:35:39Z</time>
      </trkpt>
      <trkpt lat="42.22069" lon="2.554752">
        <ele>258</ele>
        <time>2019-08-19T04:35:46Z</time>
      </trkpt>
      <trkpt lat="42.220691" lon="2.554712">
        <ele>258</ele>
        <time>2019-08-19T04:38:20Z</time>
      </trkpt>
      <trkpt lat="42.220691" lon="2.554672">
        <ele>258</ele>
        <time>2019-08-19T04:38:21Z</time>
      </trkpt>
      <trkpt lat="42.220692" lon="2.554632">
        <ele>258</ele>
        <time>2019-08-19T04:38:22Z</time>
      </trkpt>
      <trkpt lat="42.220692" lon="2.554592">
        <ele>258</ele>
        <time>2019-08-19T04:38:23Z</time>
      </trkpt>
      <trkpt lat="42.220693" lon="2.554553">
        <ele>258</ele>
        <time>2019-08-19T04:38:24Z</time>
      </trkpt>
      <trkpt lat="42.220693" lon="2.554513">
        <ele>258</ele>
        <time>2019-08-19T04:38:25Z</time>
      </trkpt>
      <trkpt lat="42.220694" lon="2.554473">
        <ele>258</ele>
        <time>2019-08-19T04:38:26Z</time>
      </trkpt>
      <trkpt lat="42.220694" lon="2.554433">
        <ele>258</ele>
        <time>2019-08-19T04:38:27Z</time>
      </trkpt>
      <trkpt lat="42.220695" lon="2.554393">
        <ele>258</ele>
        <time>2019-08-19T04:38:28Z</time>
      </trkpt>
      <trkpt lat="42.220695" lon="2.554353">
        <ele>258</ele>
        <time>2019-08-19T04:38:29Z</time>
      </trkpt>
      <trkpt lat="42.220701" lon="2.55425">
        <ele>258</ele>
        <time>2019-08-19T04:38:31Z</time>
      </trkpt>
      <trkpt lat="42.220705" lon="2.554206">
        <ele>258</ele>
        <time>2019-08-19T04:38:32Z</time>
      </trkpt>
      <trkpt lat="42.220708" lon="2.554162">
        <ele>258</ele>
        <time>2019-08-19T04:38:33Z</time>
      </trkpt>
      <trkpt lat="42.220712" lon="2.554119">
        <ele>258</ele>
        <time>2019-08-19T04:38:34Z</time>
      </trkpt>
      <trkpt lat="42.220715" lon="2.554075">
        <ele>258</ele>
        <time>2019-08-19T04:38:36Z</time>
      </trkpt>
      <trkpt lat="42.220718" lon="2.554031">
        <ele>258</ele>
        <time>2019-08-19T04:38:37Z</time>
      </trkpt>
      <trkpt lat="42.220722" lon="2.553987">
        <ele>258</ele>
        <time>2019-08-19T04:38:38Z</time>
      </trkpt>
      <trkpt lat="42.220725" lon="2.553943">
        <ele>258</ele>
        <time>2019-08-19T04:38:39Z</time>
      </trkpt>
      <trkpt lat="42.220738" lon="2.55387">
        <ele>258</ele>
        <time>2019-08-19T04:38:40Z</time>
      </trkpt>
      <trkpt lat="42.220746" lon="2.553834">
        <ele>258</ele>
        <time>2019-08-19T04:38:41Z</time>
      </trkpt>
      <trkpt lat="42.220754" lon="2.553799">
        <ele>258</ele>
        <time>2019-08-19T04:38:42Z</time>
      </trkpt>
      <trkpt lat="42.220762" lon="2.553763">
        <ele>258</ele>
        <time>2019-08-19T04:38:43Z</time>
      </trkpt>
      <trkpt lat="42.220771" lon="2.553728">
        <ele>258</ele>
        <time>2019-08-19T04:38:44Z</time>
      </trkpt>
      <trkpt lat="42.220779" lon="2.553693">
        <ele>258</ele>
        <time>2019-08-19T04:38:45Z</time>
      </trkpt>
      <trkpt lat="42.220787" lon="2.553657">
        <ele>258</ele>
        <time>2019-08-19T04:38:46Z</time>
      </trkpt>
      <trkpt lat="42.220795" lon="2.553622">
        <ele>258</ele>
        <time>2019-08-19T04:38:47Z</time>
      </trkpt>
      <trkpt lat="42.220803" lon="2.553586">
        <ele>258</ele>
        <time>2019-08-19T04:38:48Z</time>
      </trkpt>
      <trkpt lat="42.220811" lon="2.553551">
        <ele>259</ele>
        <time>2019-08-19T04:38:49Z</time>
      </trkpt>
      <trkpt lat="42.220837" lon="2.553465">
        <ele>259</ele>
        <time>2019-08-19T04:38:50Z</time>
      </trkpt>
      <trkpt lat="42.220852" lon="2.553422">
        <ele>259</ele>
        <time>2019-08-19T04:38:52Z</time>
      </trkpt>
      <trkpt lat="42.220868" lon="2.553378">
        <ele>259</ele>
        <time>2019-08-19T04:38:53Z</time>
      </trkpt>
      <trkpt lat="42.220883" lon="2.553335">
        <ele>259</ele>
        <time>2019-08-19T04:38:54Z</time>
      </trkpt>
      <trkpt lat="42.220899" lon="2.553291">
        <ele>259</ele>
        <time>2019-08-19T04:38:55Z</time>
      </trkpt>
      <trkpt lat="42.220914" lon="2.553247">
        <ele>259</ele>
        <time>2019-08-19T04:38:56Z</time>
      </trkpt>
      <trkpt lat="42.22093" lon="2.553204">
        <ele>259</ele>
        <time>2019-08-19T04:38:57Z</time>
      </trkpt>
      <trkpt lat="42.220945" lon="2.55316">
        <ele>261</ele>
        <time>2019-08-19T04:38:59Z</time>
      </trkpt>
      <trkpt lat="42.220987" lon="2.553104">
        <ele>261</ele>
        <time>2019-08-19T04:39:01Z</time>
      </trkpt>
      <trkpt lat="42.22101" lon="2.553079">
        <ele>261</ele>
        <time>2019-08-19T04:39:02Z</time>
      </trkpt>
      <trkpt lat="42.221032" lon="2.553054">
        <ele>261</ele>
        <time>2019-08-19T04:39:03Z</time>
      </trkpt>
      <trkpt lat="42.221055" lon="2.553029">
        <ele>261</ele>
        <time>2019-08-19T04:39:04Z</time>
      </trkpt>
      <trkpt lat="42.221078" lon="2.553003">
        <ele>261</ele>
        <time>2019-08-19T04:39:06Z</time>
      </trkpt>
      <trkpt lat="42.221101" lon="2.552978">
        <ele>261</ele>
        <time>2019-08-19T04:39:07Z</time>
      </trkpt>
      <trkpt lat="42.221123" lon="2.552953">
        <ele>261</ele>
        <time>2019-08-19T04:39:08Z</time>
      </trkpt>
      <trkpt lat="42.221146" lon="2.552928">
        <ele>262</ele>
        <time>2019-08-19T04:39:09Z</time>
      </trkpt>
      <trkpt lat="42.221178" lon="2.552882">
        <ele>262</ele>
        <time>2019-08-19T04:39:10Z</time>
      </trkpt>
      <trkpt lat="42.221202" lon="2.552848">
        <ele>262</ele>
        <time>2019-08-19T04:39:11Z</time>
      </trkpt>
      <trkpt lat="42.221225" lon="2.552814">
        <ele>262</ele>
        <time>2019-08-19T04:39:12Z</time>
      </trkpt>
      <trkpt lat="42.221248" lon="2.552781">
        <ele>262</ele>
        <time>2019-08-19T04:39:14Z</time>
      </trkpt>
      <trkpt lat="42.221271" lon="2.552747">
        <ele>262</ele>
        <time>2019-08-19T04:39:16Z</time>
      </trkpt>
      <trkpt lat="42.221295" lon="2.552713">
        <ele>262</ele>
        <time>2019-08-19T04:39:17Z</time>
      </trkpt>
      <trkpt lat="42.221318" lon="2.552679">
        <ele>262</ele>
        <time>2019-08-19T04:39:18Z</time>
      </trkpt>
      <trkpt lat="42.221341" lon="2.552645">
        <ele>264</ele>
        <time>2019-08-19T04:39:19Z</time>
      </trkpt>
      <trkpt lat="42.22137" lon="2.552565">
        <ele>264</ele>
        <time>2019-08-19T04:39:20Z</time>
      </trkpt>
      <trkpt lat="42.221385" lon="2.552517">
        <ele>264</ele>
        <time>2019-08-19T04:39:22Z</time>
      </trkpt>
      <trkpt lat="42.221399" lon="2.552469">
        <ele>264</ele>
        <time>2019-08-19T04:39:23Z</time>
      </trkpt>
      <trkpt lat="42.221414" lon="2.552422">
        <ele>264</ele>
        <time>2019-08-19T04:39:25Z</time>
      </trkpt>
      <trkpt lat="42.221428" lon="2.552374">
        <ele>264</ele>
        <time>2019-08-19T04:39:26Z</time>
      </trkpt>
      <trkpt lat="42.221443" lon="2.552326">
        <ele>264</ele>
        <time>2019-08-19T04:39:28Z</time>
      </trkpt>
      <trkpt lat="42.221457" lon="2.552278">
        <ele>265</ele>
        <time>2019-08-19T04:39:29Z</time>
      </trkpt>
      <trkpt lat="42.221458" lon="2.552181">
        <ele>265</ele>
        <time>2019-08-19T04:39:30Z</time>
      </trkpt>
      <trkpt lat="42.221456" lon="2.552126">
        <ele>265</ele>
        <time>2019-08-19T04:39:32Z</time>
      </trkpt>
      <trkpt lat="42.221454" lon="2.55207">
        <ele>265</ele>
        <time>2019-08-19T04:39:34Z</time>
      </trkpt>
      <trkpt lat="42.221453" lon="2.552014">
        <ele>265</ele>
        <time>2019-08-19T04:39:36Z</time>
      </trkpt>
      <trkpt lat="42.221451" lon="2.551958">
        <ele>265</ele>
        <time>2019-08-19T04:39:37Z</time>
      </trkpt>
      <trkpt lat="42.221449" lon="2.551903">
        <ele>265</ele>
        <time>2019-08-19T04:39:38Z</time>
      </trkpt>
      <trkpt lat="42.221447" lon="2.551847">
        <ele>265</ele>
        <time>2019-08-19T04:39:39Z</time>
      </trkpt>
      <trkpt lat="42.221441" lon="2.551734">
        <ele>265</ele>
        <time>2019-08-19T04:39:40Z</time>
      </trkpt>
      <trkpt lat="42.221439" lon="2.551663">
        <ele>265</ele>
        <time>2019-08-19T04:39:41Z</time>
      </trkpt>
      <trkpt lat="42.221436" lon="2.551593">
        <ele>265</ele>
        <time>2019-08-19T04:39:43Z</time>
      </trkpt>
      <trkpt lat="42.221433" lon="2.551523">
        <ele>265</ele>
        <time>2019-08-19T04:39:45Z</time>
      </trkpt>
      <trkpt lat="42.221431" lon="2.551452">
        <ele>265</ele>
        <time>2019-08-19T04:39:47Z</time>
      </trkpt>
      <trkpt lat="42.221428" lon="2.551382">
        <ele>265</ele>
        <time>2019-08-19T04:39:49Z</time>
      </trkpt>
      <trkpt lat="42.221425" lon="2.551287">
        <ele>265</ele>
        <time>2019-08-19T04:39:51Z</time>
      </trkpt>
      <trkpt lat="42.221423" lon="2.55124">
        <ele>265</ele>
        <time>2019-08-19T04:39:52Z</time>
      </trkpt>
      <trkpt lat="42.22142" lon="2.551193">
        <ele>265</ele>
        <time>2019-08-19T04:39:53Z</time>
      </trkpt>
      <trkpt lat="42.221418" lon="2.551146">
        <ele>265</ele>
        <time>2019-08-19T04:39:54Z</time>
      </trkpt>
      <trkpt lat="42.221416" lon="2.551099">
        <ele>265</ele>
        <time>2019-08-19T04:39:55Z</time>
      </trkpt>
      <trkpt lat="42.221414" lon="2.551052">
        <ele>265</ele>
        <time>2019-08-19T04:39:56Z</time>
      </trkpt>
      <trkpt lat="42.221411" lon="2.551005">
        <ele>265</ele>
        <time>2019-08-19T04:39:57Z</time>
      </trkpt>
      <trkpt lat="42.221409" lon="2.550958">
        <ele>265</ele>
        <time>2019-08-19T04:39:58Z</time>
      </trkpt>
      <trkpt lat="42.221407" lon="2.550911">
        <ele>265</ele>
        <time>2019-08-19T04:39:59Z</time>
      </trkpt>
      <trkpt lat="42.221401" lon="2.550822">
        <ele>265</ele>
        <time>2019-08-19T04:40:00Z</time>
      </trkpt>
      <trkpt lat="42.221399" lon="2.550781">
        <ele>265</ele>
        <time>2019-08-19T04:40:01Z</time>
      </trkpt>
      <trkpt lat="42.221398" lon="2.550741">
        <ele>265</ele>
        <time>2019-08-19T04:40:02Z</time>
      </trkpt>
      <trkpt lat="42.221396" lon="2.5507">
        <ele>265</ele>
        <time>2019-08-19T04:40:03Z</time>
      </trkpt>
      <trkpt lat="42.221394" lon="2.550659">
        <ele>265</ele>
        <time>2019-08-19T04:40:04Z</time>
      </trkpt>
      <trkpt lat="42.221392" lon="2.550618">
        <ele>265</ele>
        <time>2019-08-19T04:40:05Z</time>
      </trkpt>
      <trkpt lat="42.22139" lon="2.550577">
        <ele>265</ele>
        <time>2019-08-19T04:40:06Z</time>
      </trkpt>
      <trkpt lat="42.221389" lon="2.550537">
        <ele>265</ele>
        <time>2019-08-19T04:40:07Z</time>
      </trkpt>
      <trkpt lat="42.221387" lon="2.550496">
        <ele>265</ele>
        <time>2019-08-19T04:40:08Z</time>
      </trkpt>
      <trkpt lat="42.221385" lon="2.550455">
        <ele>266</ele>
        <time>2019-08-19T04:40:09Z</time>
      </trkpt>
      <trkpt lat="42.221382" lon="2.55039">
        <ele>266</ele>
        <time>2019-08-19T04:40:10Z</time>
      </trkpt>
      <trkpt lat="42.221381" lon="2.550349">
        <ele>266</ele>
        <time>2019-08-19T04:40:11Z</time>
      </trkpt>
      <trkpt lat="42.221379" lon="2.550309">
        <ele>266</ele>
        <time>2019-08-19T04:40:12Z</time>
      </trkpt>
      <trkpt lat="42.221378" lon="2.550268">
        <ele>266</ele>
        <time>2019-08-19T04:40:13Z</time>
      </trkpt>
      <trkpt lat="42.221376" lon="2.550227">
        <ele>266</ele>
        <time>2019-08-19T04:40:14Z</time>
      </trkpt>
      <trkpt lat="42.221374" lon="2.550186">
        <ele>266</ele>
        <time>2019-08-19T04:40:15Z</time>
      </trkpt>
      <trkpt lat="42.221373" lon="2.550145">
        <ele>266</ele>
        <time>2019-08-19T04:40:16Z</time>
      </trkpt>
      <trkpt lat="42.221371" lon="2.550105">
        <ele>266</ele>
        <time>2019-08-19T04:40:17Z</time>
      </trkpt>
      <trkpt lat="42.22137" lon="2.550064">
        <ele>266</ele>
        <time>2019-08-19T04:40:18Z</time>
      </trkpt>
      <trkpt lat="42.221368" lon="2.550023">
        <ele>267</ele>
        <time>2019-08-19T04:40:19Z</time>
      </trkpt>
      <trkpt lat="42.221369" lon="2.549949">
        <ele>267</ele>
        <time>2019-08-19T04:40:20Z</time>
      </trkpt>
      <trkpt lat="42.221372" lon="2.549914">
        <ele>267</ele>
        <time>2019-08-19T04:40:21Z</time>
      </trkpt>
      <trkpt lat="42.221374" lon="2.54988">
        <ele>267</ele>
        <time>2019-08-19T04:40:22Z</time>
      </trkpt>
      <trkpt lat="42.221377" lon="2.549845">
        <ele>267</ele>
        <time>2019-08-19T04:40:23Z</time>
      </trkpt>
      <trkpt lat="42.221379" lon="2.549811">
        <ele>267</ele>
        <time>2019-08-19T04:40:24Z</time>
      </trkpt>
      <trkpt lat="42.221381" lon="2.549776">
        <ele>267</ele>
        <time>2019-08-19T04:40:25Z</time>
      </trkpt>
      <trkpt lat="42.221384" lon="2.549742">
        <ele>267</ele>
        <time>2019-08-19T04:40:26Z</time>
      </trkpt>
      <trkpt lat="42.221386" lon="2.549707">
        <ele>267</ele>
        <time>2019-08-19T04:40:27Z</time>
      </trkpt>
      <trkpt lat="42.221389" lon="2.549673">
        <ele>267</ele>
        <time>2019-08-19T04:40:28Z</time>
      </trkpt>
      <trkpt lat="42.221391" lon="2.549638">
        <ele>269</ele>
        <time>2019-08-19T04:40:29Z</time>
      </trkpt>
      <trkpt lat="42.221401" lon="2.54957">
        <ele>269</ele>
        <time>2019-08-19T04:40:30Z</time>
      </trkpt>
      <trkpt lat="42.221409" lon="2.549539">
        <ele>269</ele>
        <time>2019-08-19T04:40:31Z</time>
      </trkpt>
      <trkpt lat="42.221416" lon="2.549507">
        <ele>269</ele>
        <time>2019-08-19T04:40:32Z</time>
      </trkpt>
      <trkpt lat="42.221424" lon="2.549476">
        <ele>269</ele>
        <time>2019-08-19T04:40:33Z</time>
      </trkpt>
      <trkpt lat="42.221432" lon="2.549444">
        <ele>269</ele>
        <time>2019-08-19T04:40:34Z</time>
      </trkpt>
      <trkpt lat="42.22144" lon="2.549412">
        <ele>269</ele>
        <time>2019-08-19T04:40:35Z</time>
      </trkpt>
      <trkpt lat="42.221448" lon="2.549381">
        <ele>269</ele>
        <time>2019-08-19T04:40:36Z</time>
      </trkpt>
      <trkpt lat="42.221455" lon="2.549349">
        <ele>269</ele>
        <time>2019-08-19T04:40:37Z</time>
      </trkpt>
      <trkpt lat="42.221463" lon="2.549318">
        <ele>269</ele>
        <time>2019-08-19T04:40:38Z</time>
      </trkpt>
      <trkpt lat="42.221471" lon="2.549286">
        <ele>270</ele>
        <time>2019-08-19T04:40:39Z</time>
      </trkpt>
      <trkpt lat="42.221492" lon="2.549222">
        <ele>270</ele>
        <time>2019-08-19T04:40:40Z</time>
      </trkpt>
      <trkpt lat="42.221504" lon="2.549188">
        <ele>270</ele>
        <time>2019-08-19T04:40:41Z</time>
      </trkpt>
      <trkpt lat="42.221515" lon="2.549155">
        <ele>270</ele>
        <time>2019-08-19T04:40:42Z</time>
      </trkpt>
      <trkpt lat="42.221527" lon="2.549122">
        <ele>270</ele>
        <time>2019-08-19T04:40:43Z</time>
      </trkpt>
      <trkpt lat="42.221538" lon="2.549088">
        <ele>270</ele>
        <time>2019-08-19T04:40:44Z</time>
      </trkpt>
      <trkpt lat="42.221549" lon="2.549055">
        <ele>270</ele>
        <time>2019-08-19T04:40:46Z</time>
      </trkpt>
      <trkpt lat="42.221561" lon="2.549021">
        <ele>270</ele>
        <time>2019-08-19T04:40:48Z</time>
      </trkpt>
      <trkpt lat="42.221572" lon="2.548988">
        <ele>272</ele>
        <time>2019-08-19T04:40:49Z</time>
      </trkpt>
      <trkpt lat="42.221591" lon="2.548927">
        <ele>272</ele>
        <time>2019-08-19T04:40:50Z</time>
      </trkpt>
      <trkpt lat="42.221598" lon="2.548896">
        <ele>272</ele>
        <time>2019-08-19T04:40:51Z</time>
      </trkpt>
      <trkpt lat="42.221606" lon="2.548865">
        <ele>272</ele>
        <time>2019-08-19T04:40:53Z</time>
      </trkpt>
      <trkpt lat="42.221614" lon="2.548834">
        <ele>272</ele>
        <time>2019-08-19T04:40:54Z</time>
      </trkpt>
      <trkpt lat="42.221621" lon="2.548803">
        <ele>272</ele>
        <time>2019-08-19T04:40:55Z</time>
      </trkpt>
      <trkpt lat="42.221629" lon="2.548772">
        <ele>272</ele>
        <time>2019-08-19T04:40:56Z</time>
      </trkpt>
      <trkpt lat="42.221637" lon="2.548741">
        <ele>272</ele>
        <time>2019-08-19T04:40:57Z</time>
      </trkpt>
      <trkpt lat="42.221644" lon="2.54871">
        <ele>272</ele>
        <time>2019-08-19T04:40:58Z</time>
      </trkpt>
      <trkpt lat="42.221652" lon="2.548679">
        <ele>274</ele>
        <time>2019-08-19T04:40:59Z</time>
      </trkpt>
      <trkpt lat="42.22166" lon="2.548583">
        <ele>274</ele>
        <time>2019-08-19T04:41:00Z</time>
      </trkpt>
      <trkpt lat="42.221662" lon="2.54854">
        <ele>274</ele>
        <time>2019-08-19T04:41:01Z</time>
      </trkpt>
      <trkpt lat="42.221663" lon="2.548496">
        <ele>274</ele>
        <time>2019-08-19T04:41:03Z</time>
      </trkpt>
      <trkpt lat="42.221665" lon="2.548452">
        <ele>274</ele>
        <time>2019-08-19T04:41:04Z</time>
      </trkpt>
      <trkpt lat="42.221666" lon="2.548408">
        <ele>274</ele>
        <time>2019-08-19T04:41:06Z</time>
      </trkpt>
      <trkpt lat="42.221668" lon="2.548365">
        <ele>274</ele>
        <time>2019-08-19T04:41:08Z</time>
      </trkpt>
      <trkpt lat="42.221669" lon="2.548321">
        <ele>275</ele>
        <time>2019-08-19T04:41:09Z</time>
      </trkpt>
      <trkpt lat="42.221668" lon="2.548257">
        <ele>275</ele>
        <time>2019-08-19T04:41:10Z</time>
      </trkpt>
      <trkpt lat="42.221667" lon="2.54821">
        <ele>275</ele>
        <time>2019-08-19T04:41:11Z</time>
      </trkpt>
      <trkpt lat="42.221667" lon="2.548163">
        <ele>275</ele>
        <time>2019-08-19T04:41:13Z</time>
      </trkpt>
      <trkpt lat="42.221666" lon="2.548116">
        <ele>275</ele>
        <time>2019-08-19T04:41:14Z</time>
      </trkpt>
      <trkpt lat="42.221666" lon="2.548069">
        <ele>275</ele>
        <time>2019-08-19T04:41:16Z</time>
      </trkpt>
      <trkpt lat="42.221665" lon="2.548022">
        <ele>275</ele>
        <time>2019-08-19T04:41:17Z</time>
      </trkpt>
      <trkpt lat="42.221665" lon="2.547975">
        <ele>276</ele>
        <time>2019-08-19T04:41:19Z</time>
      </trkpt>
      <trkpt lat="42.221657" lon="2.54791">
        <ele>276</ele>
        <time>2019-08-19T04:41:20Z</time>
      </trkpt>
      <trkpt lat="42.22165" lon="2.547877">
        <ele>276</ele>
        <time>2019-08-19T04:41:22Z</time>
      </trkpt>
      <trkpt lat="42.221643" lon="2.547844">
        <ele>276</ele>
        <time>2019-08-19T04:41:23Z</time>
      </trkpt>
      <trkpt lat="42.221637" lon="2.547811">
        <ele>276</ele>
        <time>2019-08-19T04:41:24Z</time>
      </trkpt>
      <trkpt lat="42.22163" lon="2.547778">
        <ele>276</ele>
        <time>2019-08-19T04:41:25Z</time>
      </trkpt>
      <trkpt lat="42.221623" lon="2.547745">
        <ele>276</ele>
        <time>2019-08-19T04:41:27Z</time>
      </trkpt>
      <trkpt lat="42.221616" lon="2.547712">
        <ele>276</ele>
        <time>2019-08-19T04:41:28Z</time>
      </trkpt>
      <trkpt lat="42.221609" lon="2.547679">
        <ele>278</ele>
        <time>2019-08-19T04:41:29Z</time>
      </trkpt>
      <trkpt lat="42.221569" lon="2.547653">
        <ele>278</ele>
        <time>2019-08-19T04:41:30Z</time>
      </trkpt>
      <trkpt lat="42.221538" lon="2.547641">
        <ele>278</ele>
        <time>2019-08-19T04:41:31Z</time>
      </trkpt>
      <trkpt lat="42.221506" lon="2.547629">
        <ele>278</ele>
        <time>2019-08-19T04:41:33Z</time>
      </trkpt>
      <trkpt lat="42.221475" lon="2.547616">
        <ele>278</ele>
        <time>2019-08-19T04:41:35Z</time>
      </trkpt>
      <trkpt lat="42.221443" lon="2.547604">
        <ele>278</ele>
        <time>2019-08-19T04:41:36Z</time>
      </trkpt>
      <trkpt lat="42.221412" lon="2.547592">
        <ele>278</ele>
        <time>2019-08-19T04:41:37Z</time>
      </trkpt>
      <trkpt lat="42.22138" lon="2.54758">
        <ele>280</ele>
        <time>2019-08-19T04:41:39Z</time>
      </trkpt>
      <trkpt lat="42.221343" lon="2.547624">
        <ele>280</ele>
        <time>2019-08-19T04:41:41Z</time>
      </trkpt>
      <trkpt lat="42.221327" lon="2.547654">
        <ele>280</ele>
        <time>2019-08-19T04:41:42Z</time>
      </trkpt>
      <trkpt lat="42.221312" lon="2.547684">
        <ele>280</ele>
        <time>2019-08-19T04:41:43Z</time>
      </trkpt>
      <trkpt lat="42.221296" lon="2.547714">
        <ele>280</ele>
        <time>2019-08-19T04:41:44Z</time>
      </trkpt>
      <trkpt lat="42.221281" lon="2.547743">
        <ele>280</ele>
        <time>2019-08-19T04:41:46Z</time>
      </trkpt>
      <trkpt lat="42.221265" lon="2.547773">
        <ele>280</ele>
        <time>2019-08-19T04:41:48Z</time>
      </trkpt>
      <trkpt lat="42.22125" lon="2.547803">
        <ele>280</ele>
        <time>2019-08-19T04:41:49Z</time>
      </trkpt>
      <trkpt lat="42.221234" lon="2.547833">
        <ele>281</ele>
        <time>2019-08-19T04:41:50Z</time>
      </trkpt>
      <trkpt lat="42.221219" lon="2.547901">
        <ele>281</ele>
        <time>2019-08-19T04:41:51Z</time>
      </trkpt>
      <trkpt lat="42.221214" lon="2.547926">
        <ele>281</ele>
        <time>2019-08-19T04:41:52Z</time>
      </trkpt>
      <trkpt lat="42.221208" lon="2.547951">
        <ele>281</ele>
        <time>2019-08-19T04:41:53Z</time>
      </trkpt>
      <trkpt lat="42.221203" lon="2.547976">
        <ele>281</ele>
        <time>2019-08-19T04:41:54Z</time>
      </trkpt>
      <trkpt lat="42.221198" lon="2.548001">
        <ele>281</ele>
        <time>2019-08-19T04:41:55Z</time>
      </trkpt>
      <trkpt lat="42.221193" lon="2.548026">
        <ele>281</ele>
        <time>2019-08-19T04:41:56Z</time>
      </trkpt>
      <trkpt lat="42.221187" lon="2.548051">
        <ele>281</ele>
        <time>2019-08-19T04:41:57Z</time>
      </trkpt>
      <trkpt lat="42.221182" lon="2.548076">
        <ele>281</ele>
        <time>2019-08-19T04:41:58Z</time>
      </trkpt>
      <trkpt lat="42.221177" lon="2.548101">
        <ele>283</ele>
        <time>2019-08-19T04:41:59Z</time>
      </trkpt>
      <trkpt lat="42.221168" lon="2.548149">
        <ele>283</ele>
        <time>2019-08-19T04:42:00Z</time>
      </trkpt>
      <trkpt lat="42.221162" lon="2.548183">
        <ele>283</ele>
        <time>2019-08-19T04:42:01Z</time>
      </trkpt>
      <trkpt lat="42.221156" lon="2.548216">
        <ele>283</ele>
        <time>2019-08-19T04:42:02Z</time>
      </trkpt>
      <trkpt lat="42.22115" lon="2.548249">
        <ele>283</ele>
        <time>2019-08-19T04:42:03Z</time>
      </trkpt>
      <trkpt lat="42.221144" lon="2.548282">
        <ele>283</ele>
        <time>2019-08-19T04:42:04Z</time>
      </trkpt>
      <trkpt lat="42.221138" lon="2.548316">
        <ele>283</ele>
        <time>2019-08-19T04:42:06Z</time>
      </trkpt>
      <trkpt lat="42.221132" lon="2.548349">
        <ele>283</ele>
        <time>2019-08-19T04:42:07Z</time>
      </trkpt>
      <trkpt lat="42.221126" lon="2.548382">
        <ele>284</ele>
        <time>2019-08-19T04:42:09Z</time>
      </trkpt>
      <trkpt lat="42.221117" lon="2.54844">
        <ele>284</ele>
        <time>2019-08-19T04:42:10Z</time>
      </trkpt>
      <trkpt lat="42.221112" lon="2.548467">
        <ele>284</ele>
        <time>2019-08-19T04:42:11Z</time>
      </trkpt>
      <trkpt lat="42.221107" lon="2.548495">
        <ele>284</ele>
        <time>2019-08-19T04:42:12Z</time>
      </trkpt>
      <trkpt lat="42.221102" lon="2.548522">
        <ele>284</ele>
        <time>2019-08-19T04:42:13Z</time>
      </trkpt>
      <trkpt lat="42.221097" lon="2.54855">
        <ele>284</ele>
        <time>2019-08-19T04:42:14Z</time>
      </trkpt>
      <trkpt lat="42.221092" lon="2.548577">
        <ele>284</ele>
        <time>2019-08-19T04:42:15Z</time>
      </trkpt>
      <trkpt lat="42.221087" lon="2.548605">
        <ele>284</ele>
        <time>2019-08-19T04:42:16Z</time>
      </trkpt>
      <trkpt lat="42.221082" lon="2.548632">
        <ele>284</ele>
        <time>2019-08-19T04:42:17Z</time>
      </trkpt>
      <trkpt lat="42.221077" lon="2.54866">
        <ele>284</ele>
        <time>2019-08-19T04:42:18Z</time>
      </trkpt>
      <trkpt lat="42.221072" lon="2.548687">
        <ele>285</ele>
        <time>2019-08-19T04:42:19Z</time>
      </trkpt>
      <trkpt lat="42.221058" lon="2.548746">
        <ele>285</ele>
        <time>2019-08-19T04:42:20Z</time>
      </trkpt>
      <trkpt lat="42.221052" lon="2.548774">
        <ele>285</ele>
        <time>2019-08-19T04:42:21Z</time>
      </trkpt>
      <trkpt lat="42.221046" lon="2.548803">
        <ele>285</ele>
        <time>2019-08-19T04:42:22Z</time>
      </trkpt>
      <trkpt lat="42.22104" lon="2.548831">
        <ele>285</ele>
        <time>2019-08-19T04:42:23Z</time>
      </trkpt>
      <trkpt lat="42.221035" lon="2.548859">
        <ele>285</ele>
        <time>2019-08-19T04:42:24Z</time>
      </trkpt>
      <trkpt lat="42.221029" lon="2.548887">
        <ele>285</ele>
        <time>2019-08-19T04:42:25Z</time>
      </trkpt>
      <trkpt lat="42.221023" lon="2.548915">
        <ele>285</ele>
        <time>2019-08-19T04:42:26Z</time>
      </trkpt>
      <trkpt lat="42.221017" lon="2.548944">
        <ele>285</ele>
        <time>2019-08-19T04:42:27Z</time>
      </trkpt>
      <trkpt lat="42.221011" lon="2.548972">
        <ele>285</ele>
        <time>2019-08-19T04:42:28Z</time>
      </trkpt>
      <trkpt lat="42.221005" lon="2.549">
        <ele>286</ele>
        <time>2019-08-19T04:42:29Z</time>
      </trkpt>
      <trkpt lat="42.220994" lon="2.54906">
        <ele>286</ele>
        <time>2019-08-19T04:42:30Z</time>
      </trkpt>
      <trkpt lat="42.220988" lon="2.54909">
        <ele>286</ele>
        <time>2019-08-19T04:42:31Z</time>
      </trkpt>
      <trkpt lat="42.220983" lon="2.549119">
        <ele>286</ele>
        <time>2019-08-19T04:42:32Z</time>
      </trkpt>
      <trkpt lat="42.220978" lon="2.549149">
        <ele>286</ele>
        <time>2019-08-19T04:42:33Z</time>
      </trkpt>
      <trkpt lat="42.220973" lon="2.549178">
        <ele>286</ele>
        <time>2019-08-19T04:42:34Z</time>
      </trkpt>
      <trkpt lat="42.220967" lon="2.549207">
        <ele>286</ele>
        <time>2019-08-19T04:42:35Z</time>
      </trkpt>
      <trkpt lat="42.220962" lon="2.549237">
        <ele>286</ele>
        <time>2019-08-19T04:42:36Z</time>
      </trkpt>
      <trkpt lat="42.220957" lon="2.549266">
        <ele>286</ele>
        <time>2019-08-19T04:42:37Z</time>
      </trkpt>
      <trkpt lat="42.220951" lon="2.549296">
        <ele>286</ele>
        <time>2019-08-19T04:42:38Z</time>
      </trkpt>
      <trkpt lat="42.220946" lon="2.549325">
        <ele>287</ele>
        <time>2019-08-19T04:42:39Z</time>
      </trkpt>
      <trkpt lat="42.220932" lon="2.549389">
        <ele>287</ele>
        <time>2019-08-19T04:42:40Z</time>
      </trkpt>
      <trkpt lat="42.220927" lon="2.549421">
        <ele>287</ele>
        <time>2019-08-19T04:42:41Z</time>
      </trkpt>
      <trkpt lat="42.220921" lon="2.549452">
        <ele>287</ele>
        <time>2019-08-19T04:42:42Z</time>
      </trkpt>
      <trkpt lat="42.220915" lon="2.549484">
        <ele>287</ele>
        <time>2019-08-19T04:42:43Z</time>
      </trkpt>
      <trkpt lat="42.22091" lon="2.549515">
        <ele>287</ele>
        <time>2019-08-19T04:42:44Z</time>
      </trkpt>
      <trkpt lat="42.220904" lon="2.549546">
        <ele>287</ele>
        <time>2019-08-19T04:42:45Z</time>
      </trkpt>
      <trkpt lat="42.220898" lon="2.549578">
        <ele>287</ele>
        <time>2019-08-19T04:42:46Z</time>
      </trkpt>
      <trkpt lat="42.220892" lon="2.549609">
        <ele>287</ele>
        <time>2019-08-19T04:42:47Z</time>
      </trkpt>
      <trkpt lat="42.220887" lon="2.549641">
        <ele>287</ele>
        <time>2019-08-19T04:42:48Z</time>
      </trkpt>
      <trkpt lat="42.220881" lon="2.549672">
        <ele>289</ele>
        <time>2019-08-19T04:42:49Z</time>
      </trkpt>
      <trkpt lat="42.220865" lon="2.549764">
        <ele>289</ele>
        <time>2019-08-19T04:42:50Z</time>
      </trkpt>
      <trkpt lat="42.220857" lon="2.549806">
        <ele>289</ele>
        <time>2019-08-19T04:42:51Z</time>
      </trkpt>
      <trkpt lat="42.220848" lon="2.549848">
        <ele>289</ele>
        <time>2019-08-19T04:42:53Z</time>
      </trkpt>
      <trkpt lat="42.22084" lon="2.549891">
        <ele>289</ele>
        <time>2019-08-19T04:42:55Z</time>
      </trkpt>
      <trkpt lat="42.220831" lon="2.549933">
        <ele>289</ele>
        <time>2019-08-19T04:42:57Z</time>
      </trkpt>
      <trkpt lat="42.220823" lon="2.549975">
        <ele>289</ele>
        <time>2019-08-19T04:42:58Z</time>
      </trkpt>
      <trkpt lat="42.220814" lon="2.550017">
        <ele>291</ele>
        <time>2019-08-19T04:42:59Z</time>
      </trkpt>
      <trkpt lat="42.22079" lon="2.550081">
        <ele>291</ele>
        <time>2019-08-19T04:43:00Z</time>
      </trkpt>
      <trkpt lat="42.220776" lon="2.550114">
        <ele>291</ele>
        <time>2019-08-19T04:43:02Z</time>
      </trkpt>
      <trkpt lat="42.220761" lon="2.550146">
        <ele>291</ele>
        <time>2019-08-19T04:43:03Z</time>
      </trkpt>
      <trkpt lat="42.220747" lon="2.550178">
        <ele>291</ele>
        <time>2019-08-19T04:43:05Z</time>
      </trkpt>
      <trkpt lat="42.220732" lon="2.55021">
        <ele>291</ele>
        <time>2019-08-19T04:43:07Z</time>
      </trkpt>
      <trkpt lat="42.220718" lon="2.550243">
        <ele>291</ele>
        <time>2019-08-19T04:43:08Z</time>
      </trkpt>
      <trkpt lat="42.220703" lon="2.550275">
        <ele>292</ele>
        <time>2019-08-19T04:43:09Z</time>
      </trkpt>
      <trkpt lat="42.220663" lon="2.55031">
        <ele>292</ele>
        <time>2019-08-19T04:43:10Z</time>
      </trkpt>
      <trkpt lat="42.220636" lon="2.55032">
        <ele>292</ele>
        <time>2019-08-19T04:43:11Z</time>
      </trkpt>
      <trkpt lat="42.220609" lon="2.55033">
        <ele>292</ele>
        <time>2019-08-19T04:43:12Z</time>
      </trkpt>
      <trkpt lat="42.220582" lon="2.55034">
        <ele>292</ele>
        <time>2019-08-19T04:43:13Z</time>
      </trkpt>
      <trkpt lat="42.220556" lon="2.550351">
        <ele>292</ele>
        <time>2019-08-19T04:43:14Z</time>
      </trkpt>
      <trkpt lat="42.220529" lon="2.550361">
        <ele>292</ele>
        <time>2019-08-19T04:43:15Z</time>
      </trkpt>
      <trkpt lat="42.220502" lon="2.550371">
        <ele>292</ele>
        <time>2019-08-19T04:43:16Z</time>
      </trkpt>
      <trkpt lat="42.220475" lon="2.550381">
        <ele>292</ele>
        <time>2019-08-19T04:43:17Z</time>
      </trkpt>
      <trkpt lat="42.220448" lon="2.550391">
        <ele>292</ele>
        <time>2019-08-19T04:43:18Z</time>
      </trkpt>
      <trkpt lat="42.220421" lon="2.550401">
        <ele>293</ele>
        <time>2019-08-19T04:43:19Z</time>
      </trkpt>
      <trkpt lat="42.220362" lon="2.550404">
        <ele>293</ele>
        <time>2019-08-19T04:43:20Z</time>
      </trkpt>
      <trkpt lat="42.220336" lon="2.550401">
        <ele>293</ele>
        <time>2019-08-19T04:43:21Z</time>
      </trkpt>
      <trkpt lat="42.22031" lon="2.550399">
        <ele>293</ele>
        <time>2019-08-19T04:43:22Z</time>
      </trkpt>
      <trkpt lat="42.220284" lon="2.550397">
        <ele>293</ele>
        <time>2019-08-19T04:43:23Z</time>
      </trkpt>
      <trkpt lat="42.220258" lon="2.550394">
        <ele>293</ele>
        <time>2019-08-19T04:43:24Z</time>
      </trkpt>
      <trkpt lat="42.220232" lon="2.550392">
        <ele>293</ele>
        <time>2019-08-19T04:43:25Z</time>
      </trkpt>
      <trkpt lat="42.220206" lon="2.55039">
        <ele>293</ele>
        <time>2019-08-19T04:43:26Z</time>
      </trkpt>
      <trkpt lat="42.22018" lon="2.550388">
        <ele>293</ele>
        <time>2019-08-19T04:43:27Z</time>
      </trkpt>
      <trkpt lat="42.220154" lon="2.550385">
        <ele>293</ele>
        <time>2019-08-19T04:43:28Z</time>
      </trkpt>
      <trkpt lat="42.220128" lon="2.550383">
        <ele>294</ele>
        <time>2019-08-19T04:43:29Z</time>
      </trkpt>
      <trkpt lat="42.220075" lon="2.550371">
        <ele>294</ele>
        <time>2019-08-19T04:43:30Z</time>
      </trkpt>
      <trkpt lat="42.220048" lon="2.550365">
        <ele>294</ele>
        <time>2019-08-19T04:43:31Z</time>
      </trkpt>
      <trkpt lat="42.220021" lon="2.55036">
        <ele>294</ele>
        <time>2019-08-19T04:43:33Z</time>
      </trkpt>
      <trkpt lat="42.219994" lon="2.550354">
        <ele>294</ele>
        <time>2019-08-19T04:43:34Z</time>
      </trkpt>
      <trkpt lat="42.219967" lon="2.550348">
        <ele>294</ele>
        <time>2019-08-19T04:43:35Z</time>
      </trkpt>
      <trkpt lat="42.21994" lon="2.550342">
        <ele>294</ele>
        <time>2019-08-19T04:43:36Z</time>
      </trkpt>
      <trkpt lat="42.219913" lon="2.550337">
        <ele>294</ele>
        <time>2019-08-19T04:43:37Z</time>
      </trkpt>
      <trkpt lat="42.219886" lon="2.550331">
        <ele>294</ele>
        <time>2019-08-19T04:43:38Z</time>
      </trkpt>
      <trkpt lat="42.219859" lon="2.550325">
        <ele>295</ele>
        <time>2019-08-19T04:43:39Z</time>
      </trkpt>
      <trkpt lat="42.219804" lon="2.550308">
        <ele>295</ele>
        <time>2019-08-19T04:43:40Z</time>
      </trkpt>
      <trkpt lat="42.219775" lon="2.550296">
        <ele>295</ele>
        <time>2019-08-19T04:43:41Z</time>
      </trkpt>
      <trkpt lat="42.219747" lon="2.550285">
        <ele>295</ele>
        <time>2019-08-19T04:43:42Z</time>
      </trkpt>
      <trkpt lat="42.219719" lon="2.550273">
        <ele>295</ele>
        <time>2019-08-19T04:43:43Z</time>
      </trkpt>
      <trkpt lat="42.21969" lon="2.550262">
        <ele>295</ele>
        <time>2019-08-19T04:43:44Z</time>
      </trkpt>
      <trkpt lat="42.219662" lon="2.550251">
        <ele>295</ele>
        <time>2019-08-19T04:43:46Z</time>
      </trkpt>
      <trkpt lat="42.219633" lon="2.550239">
        <ele>295</ele>
        <time>2019-08-19T04:43:48Z</time>
      </trkpt>
      <trkpt lat="42.219605" lon="2.550228">
        <ele>296</ele>
        <time>2019-08-19T04:43:49Z</time>
      </trkpt>
      <trkpt lat="42.21952" lon="2.550212">
        <ele>296</ele>
        <time>2019-08-19T04:43:51Z</time>
      </trkpt>
      <trkpt lat="42.219488" lon="2.550207">
        <ele>296</ele>
        <time>2019-08-19T04:43:52Z</time>
      </trkpt>
      <trkpt lat="42.219456" lon="2.550202">
        <ele>296</ele>
        <time>2019-08-19T04:43:54Z</time>
      </trkpt>
      <trkpt lat="42.219425" lon="2.550197">
        <ele>296</ele>
        <time>2019-08-19T04:43:55Z</time>
      </trkpt>
      <trkpt lat="42.219393" lon="2.550192">
        <ele>296</ele>
        <time>2019-08-19T04:43:57Z</time>
      </trkpt>
      <trkpt lat="42.219361" lon="2.550187">
        <ele>296</ele>
        <time>2019-08-19T04:43:58Z</time>
      </trkpt>
      <trkpt lat="42.219329" lon="2.550182">
        <ele>298</ele>
        <time>2019-08-19T04:43:59Z</time>
      </trkpt>
      <trkpt lat="42.219308" lon="2.550126">
        <ele>298</ele>
        <time>2019-08-19T04:44:00Z</time>
      </trkpt>
      <trkpt lat="42.2193" lon="2.550073">
        <ele>298</ele>
        <time>2019-08-19T04:44:01Z</time>
      </trkpt>
      <trkpt lat="42.219291" lon="2.550019">
        <ele>298</ele>
        <time>2019-08-19T04:44:03Z</time>
      </trkpt>
      <trkpt lat="42.219283" lon="2.549965">
        <ele>298</ele>
        <time>2019-08-19T04:44:04Z</time>
      </trkpt>
      <trkpt lat="42.219275" lon="2.549912">
        <ele>298</ele>
        <time>2019-08-19T04:44:05Z</time>
      </trkpt>
      <trkpt lat="42.219267" lon="2.549858">
        <ele>298</ele>
        <time>2019-08-19T04:44:06Z</time>
      </trkpt>
      <trkpt lat="42.219258" lon="2.549805">
        <ele>298</ele>
        <time>2019-08-19T04:44:07Z</time>
      </trkpt>
      <trkpt lat="42.21925" lon="2.549751">
        <ele>300</ele>
        <time>2019-08-19T04:44:09Z</time>
      </trkpt>
      <trkpt lat="42.219251" lon="2.549658">
        <ele>300</ele>
        <time>2019-08-19T04:44:11Z</time>
      </trkpt>
      <trkpt lat="42.219253" lon="2.549607">
        <ele>300</ele>
        <time>2019-08-19T04:44:12Z</time>
      </trkpt>
      <trkpt lat="42.219255" lon="2.549556">
        <ele>300</ele>
        <time>2019-08-19T04:44:13Z</time>
      </trkpt>
      <trkpt lat="42.219256" lon="2.549506">
        <ele>300</ele>
        <time>2019-08-19T04:44:14Z</time>
      </trkpt>
      <trkpt lat="42.219258" lon="2.549455">
        <ele>300</ele>
        <time>2019-08-19T04:44:15Z</time>
      </trkpt>
      <trkpt lat="42.21926" lon="2.549404">
        <ele>300</ele>
        <time>2019-08-19T04:44:17Z</time>
      </trkpt>
      <trkpt lat="42.219262" lon="2.549353">
        <ele>300</ele>
        <time>2019-08-19T04:44:19Z</time>
      </trkpt>
      <trkpt lat="42.219268" lon="2.549274">
        <ele>300</ele>
        <time>2019-08-19T04:44:21Z</time>
      </trkpt>
      <trkpt lat="42.219269" lon="2.549235">
        <ele>300</ele>
        <time>2019-08-19T04:44:22Z</time>
      </trkpt>
      <trkpt lat="42.219271" lon="2.549196">
        <ele>300</ele>
        <time>2019-08-19T04:44:23Z</time>
      </trkpt>
      <trkpt lat="42.219273" lon="2.549157">
        <ele>300</ele>
        <time>2019-08-19T04:44:25Z</time>
      </trkpt>
      <trkpt lat="42.219274" lon="2.549118">
        <ele>300</ele>
        <time>2019-08-19T04:44:26Z</time>
      </trkpt>
      <trkpt lat="42.219276" lon="2.549079">
        <ele>300</ele>
        <time>2019-08-19T04:44:27Z</time>
      </trkpt>
      <trkpt lat="42.219277" lon="2.54904">
        <ele>300</ele>
        <time>2019-08-19T04:44:28Z</time>
      </trkpt>
      <trkpt lat="42.219279" lon="2.549001">
        <ele>300</ele>
        <time>2019-08-19T04:44:29Z</time>
      </trkpt>
      <trkpt lat="42.219281" lon="2.548923">
        <ele>300</ele>
        <time>2019-08-19T04:44:30Z</time>
      </trkpt>
      <trkpt lat="42.219281" lon="2.548884">
        <ele>300</ele>
        <time>2019-08-19T04:44:31Z</time>
      </trkpt>
      <trkpt lat="42.21928" lon="2.548846">
        <ele>300</ele>
        <time>2019-08-19T04:44:32Z</time>
      </trkpt>
      <trkpt lat="42.21928" lon="2.548808">
        <ele>300</ele>
        <time>2019-08-19T04:44:33Z</time>
      </trkpt>
      <trkpt lat="42.219279" lon="2.548769">
        <ele>300</ele>
        <time>2019-08-19T04:44:34Z</time>
      </trkpt>
      <trkpt lat="42.219279" lon="2.548731">
        <ele>300</ele>
        <time>2019-08-19T04:44:35Z</time>
      </trkpt>
      <trkpt lat="42.219278" lon="2.548693">
        <ele>300</ele>
        <time>2019-08-19T04:44:36Z</time>
      </trkpt>
      <trkpt lat="42.219278" lon="2.548654">
        <ele>300</ele>
        <time>2019-08-19T04:44:38Z</time>
      </trkpt>
      <trkpt lat="42.219277" lon="2.548616">
        <ele>303</ele>
        <time>2019-08-19T04:44:39Z</time>
      </trkpt>
      <trkpt lat="42.219275" lon="2.548566">
        <ele>303</ele>
        <time>2019-08-19T04:44:40Z</time>
      </trkpt>
      <trkpt lat="42.219274" lon="2.548534">
        <ele>303</ele>
        <time>2019-08-19T04:44:41Z</time>
      </trkpt>
      <trkpt lat="42.219274" lon="2.548502">
        <ele>303</ele>
        <time>2019-08-19T04:44:42Z</time>
      </trkpt>
      <trkpt lat="42.219274" lon="2.54847">
        <ele>303</ele>
        <time>2019-08-19T04:44:43Z</time>
      </trkpt>
      <trkpt lat="42.219274" lon="2.548438">
        <ele>303</ele>
        <time>2019-08-19T04:44:44Z</time>
      </trkpt>
      <trkpt lat="42.219273" lon="2.548407">
        <ele>303</ele>
        <time>2019-08-19T04:44:45Z</time>
      </trkpt>
      <trkpt lat="42.219273" lon="2.548375">
        <ele>303</ele>
        <time>2019-08-19T04:44:46Z</time>
      </trkpt>
      <trkpt lat="42.219273" lon="2.548343">
        <ele>303</ele>
        <time>2019-08-19T04:44:47Z</time>
      </trkpt>
      <trkpt lat="42.219272" lon="2.548311">
        <ele>303</ele>
        <time>2019-08-19T04:44:48Z</time>
      </trkpt>
      <trkpt lat="42.219272" lon="2.548279">
        <ele>304</ele>
        <time>2019-08-19T04:44:49Z</time>
      </trkpt>
      <trkpt lat="42.21927" lon="2.548209">
        <ele>304</ele>
        <time>2019-08-19T04:44:50Z</time>
      </trkpt>
      <trkpt lat="42.219269" lon="2.548175">
        <ele>304</ele>
        <time>2019-08-19T04:44:51Z</time>
      </trkpt>
      <trkpt lat="42.219267" lon="2.548142">
        <ele>304</ele>
        <time>2019-08-19T04:44:52Z</time>
      </trkpt>
      <trkpt lat="42.219266" lon="2.548108">
        <ele>304</ele>
        <time>2019-08-19T04:44:53Z</time>
      </trkpt>
      <trkpt lat="42.219265" lon="2.548074">
        <ele>304</ele>
        <time>2019-08-19T04:44:54Z</time>
      </trkpt>
      <trkpt lat="42.219264" lon="2.54804">
        <ele>304</ele>
        <time>2019-08-19T04:44:55Z</time>
      </trkpt>
      <trkpt lat="42.219263" lon="2.548006">
        <ele>304</ele>
        <time>2019-08-19T04:44:56Z</time>
      </trkpt>
      <trkpt lat="42.219262" lon="2.547972">
        <ele>304</ele>
        <time>2019-08-19T04:44:57Z</time>
      </trkpt>
      <trkpt lat="42.21926" lon="2.547939">
        <ele>304</ele>
        <time>2019-08-19T04:44:58Z</time>
      </trkpt>
      <trkpt lat="42.219259" lon="2.547905">
        <ele>304</ele>
        <time>2019-08-19T04:44:59Z</time>
      </trkpt>
      <trkpt lat="42.219258" lon="2.547871">
        <ele>305</ele>
        <time>2019-08-19T04:45:00Z</time>
      </trkpt>
      <trkpt lat="42.219256" lon="2.547788">
        <ele>305</ele>
        <time>2019-08-19T04:45:01Z</time>
      </trkpt>
      <trkpt lat="42.219254" lon="2.547758">
        <ele>305</ele>
        <time>2019-08-19T04:45:02Z</time>
      </trkpt>
      <trkpt lat="42.219253" lon="2.547728">
        <ele>305</ele>
        <time>2019-08-19T04:45:03Z</time>
      </trkpt>
      <trkpt lat="42.219252" lon="2.547698">
        <ele>305</ele>
        <time>2019-08-19T04:45:04Z</time>
      </trkpt>
      <trkpt lat="42.21925" lon="2.547668">
        <ele>305</ele>
        <time>2019-08-19T04:45:05Z</time>
      </trkpt>
      <trkpt lat="42.219249" lon="2.547638">
        <ele>305</ele>
        <time>2019-08-19T04:45:06Z</time>
      </trkpt>
      <trkpt lat="42.219248" lon="2.547608">
        <ele>305</ele>
        <time>2019-08-19T04:45:07Z</time>
      </trkpt>
      <trkpt lat="42.219246" lon="2.547578">
        <ele>305</ele>
        <time>2019-08-19T04:45:08Z</time>
      </trkpt>
      <trkpt lat="42.219245" lon="2.547548">
        <ele>306</ele>
        <time>2019-08-19T04:45:09Z</time>
      </trkpt>
      <trkpt lat="42.219243" lon="2.547497">
        <ele>306</ele>
        <time>2019-08-19T04:45:10Z</time>
      </trkpt>
      <trkpt lat="42.219242" lon="2.547465">
        <ele>306</ele>
        <time>2019-08-19T04:45:11Z</time>
      </trkpt>
      <trkpt lat="42.219242" lon="2.547432">
        <ele>306</ele>
        <time>2019-08-19T04:45:12Z</time>
      </trkpt>
      <trkpt lat="42.219241" lon="2.5474">
        <ele>306</ele>
        <time>2019-08-19T04:45:13Z</time>
      </trkpt>
      <trkpt lat="42.21924" lon="2.547367">
        <ele>306</ele>
        <time>2019-08-19T04:45:14Z</time>
      </trkpt>
      <trkpt lat="42.219239" lon="2.547335">
        <ele>306</ele>
        <time>2019-08-19T04:45:15Z</time>
      </trkpt>
      <trkpt lat="42.219238" lon="2.547302">
        <ele>306</ele>
        <time>2019-08-19T04:45:16Z</time>
      </trkpt>
      <trkpt lat="42.219238" lon="2.54727">
        <ele>306</ele>
        <time>2019-08-19T04:45:17Z</time>
      </trkpt>
      <trkpt lat="42.219237" lon="2.547237">
        <ele>306</ele>
        <time>2019-08-19T04:45:18Z</time>
      </trkpt>
      <trkpt lat="42.219236" lon="2.547205">
        <ele>306</ele>
        <time>2019-08-19T04:45:19Z</time>
      </trkpt>
      <trkpt lat="42.219231" lon="2.547139">
        <ele>306</ele>
        <time>2019-08-19T04:45:20Z</time>
      </trkpt>
      <trkpt lat="42.219229" lon="2.547107">
        <ele>306</ele>
        <time>2019-08-19T04:45:21Z</time>
      </trkpt>
      <trkpt lat="42.219226" lon="2.547074">
        <ele>306</ele>
        <time>2019-08-19T04:45:22Z</time>
      </trkpt>
      <trkpt lat="42.219224" lon="2.547042">
        <ele>306</ele>
        <time>2019-08-19T04:45:23Z</time>
      </trkpt>
      <trkpt lat="42.219221" lon="2.54701">
        <ele>306</ele>
        <time>2019-08-19T04:45:24Z</time>
      </trkpt>
      <trkpt lat="42.219218" lon="2.546978">
        <ele>306</ele>
        <time>2019-08-19T04:45:25Z</time>
      </trkpt>
      <trkpt lat="42.219216" lon="2.546946">
        <ele>306</ele>
        <time>2019-08-19T04:45:26Z</time>
      </trkpt>
      <trkpt lat="42.219213" lon="2.546913">
        <ele>306</ele>
        <time>2019-08-19T04:45:27Z</time>
      </trkpt>
      <trkpt lat="42.219211" lon="2.546881">
        <ele>306</ele>
        <time>2019-08-19T04:45:28Z</time>
      </trkpt>
      <trkpt lat="42.219208" lon="2.546849">
        <ele>308</ele>
        <time>2019-08-19T04:45:29Z</time>
      </trkpt>
      <trkpt lat="42.219203" lon="2.54678">
        <ele>308</ele>
        <time>2019-08-19T04:45:30Z</time>
      </trkpt>
      <trkpt lat="42.219202" lon="2.546748">
        <ele>308</ele>
        <time>2019-08-19T04:45:31Z</time>
      </trkpt>
      <trkpt lat="42.219202" lon="2.546715">
        <ele>308</ele>
        <time>2019-08-19T04:45:32Z</time>
      </trkpt>
      <trkpt lat="42.219201" lon="2.546683">
        <ele>308</ele>
        <time>2019-08-19T04:45:33Z</time>
      </trkpt>
      <trkpt lat="42.219201" lon="2.54665">
        <ele>308</ele>
        <time>2019-08-19T04:45:34Z</time>
      </trkpt>
      <trkpt lat="42.219201" lon="2.546617">
        <ele>308</ele>
        <time>2019-08-19T04:45:35Z</time>
      </trkpt>
      <trkpt lat="42.2192" lon="2.546585">
        <ele>308</ele>
        <time>2019-08-19T04:45:36Z</time>
      </trkpt>
      <trkpt lat="42.2192" lon="2.546552">
        <ele>308</ele>
        <time>2019-08-19T04:45:37Z</time>
      </trkpt>
      <trkpt lat="42.219199" lon="2.54652">
        <ele>308</ele>
        <time>2019-08-19T04:45:38Z</time>
      </trkpt>
      <trkpt lat="42.219199" lon="2.546487">
        <ele>309</ele>
        <time>2019-08-19T04:45:39Z</time>
      </trkpt>
      <trkpt lat="42.219197" lon="2.546418">
        <ele>309</ele>
        <time>2019-08-19T04:45:40Z</time>
      </trkpt>
      <trkpt lat="42.219196" lon="2.546384">
        <ele>309</ele>
        <time>2019-08-19T04:45:41Z</time>
      </trkpt>
      <trkpt lat="42.219195" lon="2.546351">
        <ele>309</ele>
        <time>2019-08-19T04:45:42Z</time>
      </trkpt>
      <trkpt lat="42.219194" lon="2.546318">
        <ele>309</ele>
        <time>2019-08-19T04:45:43Z</time>
      </trkpt>
      <trkpt lat="42.219193" lon="2.546284">
        <ele>309</ele>
        <time>2019-08-19T04:45:44Z</time>
      </trkpt>
      <trkpt lat="42.219191" lon="2.546251">
        <ele>309</ele>
        <time>2019-08-19T04:45:45Z</time>
      </trkpt>
      <trkpt lat="42.21919" lon="2.546218">
        <ele>309</ele>
        <time>2019-08-19T04:45:46Z</time>
      </trkpt>
      <trkpt lat="42.219189" lon="2.546185">
        <ele>309</ele>
        <time>2019-08-19T04:45:47Z</time>
      </trkpt>
      <trkpt lat="42.219188" lon="2.546151">
        <ele>309</ele>
        <time>2019-08-19T04:45:48Z</time>
      </trkpt>
      <trkpt lat="42.219187" lon="2.546118">
        <ele>310</ele>
        <time>2019-08-19T04:45:49Z</time>
      </trkpt>
      <trkpt lat="42.219184" lon="2.54605">
        <ele>310</ele>
        <time>2019-08-19T04:45:50Z</time>
      </trkpt>
      <trkpt lat="42.219183" lon="2.546017">
        <ele>310</ele>
        <time>2019-08-19T04:45:51Z</time>
      </trkpt>
      <trkpt lat="42.219182" lon="2.545984">
        <ele>310</ele>
        <time>2019-08-19T04:45:52Z</time>
      </trkpt>
      <trkpt lat="42.219181" lon="2.545951">
        <ele>310</ele>
        <time>2019-08-19T04:45:53Z</time>
      </trkpt>
      <trkpt lat="42.21918" lon="2.545917">
        <ele>310</ele>
        <time>2019-08-19T04:45:54Z</time>
      </trkpt>
      <trkpt lat="42.219178" lon="2.545884">
        <ele>310</ele>
        <time>2019-08-19T04:45:55Z</time>
      </trkpt>
      <trkpt lat="42.219177" lon="2.545851">
        <ele>310</ele>
        <time>2019-08-19T04:45:56Z</time>
      </trkpt>
      <trkpt lat="42.219176" lon="2.545818">
        <ele>310</ele>
        <time>2019-08-19T04:45:57Z</time>
      </trkpt>
      <trkpt lat="42.219175" lon="2.545785">
        <ele>310</ele>
        <time>2019-08-19T04:45:58Z</time>
      </trkpt>
      <trkpt lat="42.219174" lon="2.545752">
        <ele>311</ele>
        <time>2019-08-19T04:45:59Z</time>
      </trkpt>
      <trkpt lat="42.219171" lon="2.54568">
        <ele>311</ele>
        <time>2019-08-19T04:46:00Z</time>
      </trkpt>
      <trkpt lat="42.21917" lon="2.545647">
        <ele>311</ele>
        <time>2019-08-19T04:46:01Z</time>
      </trkpt>
      <trkpt lat="42.219169" lon="2.545613">
        <ele>311</ele>
        <time>2019-08-19T04:46:02Z</time>
      </trkpt>
      <trkpt lat="42.219168" lon="2.545579">
        <ele>311</ele>
        <time>2019-08-19T04:46:03Z</time>
      </trkpt>
      <trkpt lat="42.219168" lon="2.545545">
        <ele>311</ele>
        <time>2019-08-19T04:46:04Z</time>
      </trkpt>
      <trkpt lat="42.219167" lon="2.545512">
        <ele>311</ele>
        <time>2019-08-19T04:46:05Z</time>
      </trkpt>
      <trkpt lat="42.219166" lon="2.545478">
        <ele>311</ele>
        <time>2019-08-19T04:46:06Z</time>
      </trkpt>
      <trkpt lat="42.219165" lon="2.545444">
        <ele>311</ele>
        <time>2019-08-19T04:46:07Z</time>
      </trkpt>
      <trkpt lat="42.219164" lon="2.545411">
        <ele>311</ele>
        <time>2019-08-19T04:46:08Z</time>
      </trkpt>
      <trkpt lat="42.219163" lon="2.545377">
        <ele>312</ele>
        <time>2019-08-19T04:46:09Z</time>
      </trkpt>
      <trkpt lat="42.219159" lon="2.54531">
        <ele>312</ele>
        <time>2019-08-19T04:46:10Z</time>
      </trkpt>
      <trkpt lat="42.219157" lon="2.54528">
        <ele>312</ele>
        <time>2019-08-19T04:46:11Z</time>
      </trkpt>
      <trkpt lat="42.219156" lon="2.545249">
        <ele>312</ele>
        <time>2019-08-19T04:46:12Z</time>
      </trkpt>
      <trkpt lat="42.219154" lon="2.545219">
        <ele>312</ele>
        <time>2019-08-19T04:46:13Z</time>
      </trkpt>
      <trkpt lat="42.219153" lon="2.545189">
        <ele>312</ele>
        <time>2019-08-19T04:46:14Z</time>
      </trkpt>
      <trkpt lat="42.219151" lon="2.545159">
        <ele>312</ele>
        <time>2019-08-19T04:46:15Z</time>
      </trkpt>
      <trkpt lat="42.21915" lon="2.545129">
        <ele>312</ele>
        <time>2019-08-19T04:46:16Z</time>
      </trkpt>
      <trkpt lat="42.219148" lon="2.545098">
        <ele>312</ele>
        <time>2019-08-19T04:46:17Z</time>
      </trkpt>
      <trkpt lat="42.219147" lon="2.545068">
        <ele>312</ele>
        <time>2019-08-19T04:46:18Z</time>
      </trkpt>
      <trkpt lat="42.219145" lon="2.545038">
        <ele>313</ele>
        <time>2019-08-19T04:46:19Z</time>
      </trkpt>
      <trkpt lat="42.219141" lon="2.544981">
        <ele>313</ele>
        <time>2019-08-19T04:46:20Z</time>
      </trkpt>
      <trkpt lat="42.219139" lon="2.544951">
        <ele>313</ele>
        <time>2019-08-19T04:46:21Z</time>
      </trkpt>
      <trkpt lat="42.219137" lon="2.544921">
        <ele>313</ele>
        <time>2019-08-19T04:46:22Z</time>
      </trkpt>
      <trkpt lat="42.219135" lon="2.544891">
        <ele>313</ele>
        <time>2019-08-19T04:46:23Z</time>
      </trkpt>
      <trkpt lat="42.219134" lon="2.54486">
        <ele>313</ele>
        <time>2019-08-19T04:46:24Z</time>
      </trkpt>
      <trkpt lat="42.219132" lon="2.54483">
        <ele>313</ele>
        <time>2019-08-19T04:46:25Z</time>
      </trkpt>
      <trkpt lat="42.21913" lon="2.5448">
        <ele>313</ele>
        <time>2019-08-19T04:46:26Z</time>
      </trkpt>
      <trkpt lat="42.219128" lon="2.54477">
        <ele>313</ele>
        <time>2019-08-19T04:46:27Z</time>
      </trkpt>
      <trkpt lat="42.219126" lon="2.54474">
        <ele>313</ele>
        <time>2019-08-19T04:46:28Z</time>
      </trkpt>
      <trkpt lat="42.219124" lon="2.54471">
        <ele>315</ele>
        <time>2019-08-19T04:46:29Z</time>
      </trkpt>
      <trkpt lat="42.219122" lon="2.544644">
        <ele>315</ele>
        <time>2019-08-19T04:46:30Z</time>
      </trkpt>
      <trkpt lat="42.219121" lon="2.544613">
        <ele>315</ele>
        <time>2019-08-19T04:46:31Z</time>
      </trkpt>
      <trkpt lat="42.219121" lon="2.544581">
        <ele>315</ele>
        <time>2019-08-19T04:46:32Z</time>
      </trkpt>
      <trkpt lat="42.219121" lon="2.54455">
        <ele>315</ele>
        <time>2019-08-19T04:46:33Z</time>
      </trkpt>
      <trkpt lat="42.219121" lon="2.544519">
        <ele>315</ele>
        <time>2019-08-19T04:46:34Z</time>
      </trkpt>
      <trkpt lat="42.21912" lon="2.544488">
        <ele>315</ele>
        <time>2019-08-19T04:46:35Z</time>
      </trkpt>
      <trkpt lat="42.21912" lon="2.544457">
        <ele>315</ele>
        <time>2019-08-19T04:46:36Z</time>
      </trkpt>
      <trkpt lat="42.21912" lon="2.544425">
        <ele>315</ele>
        <time>2019-08-19T04:46:37Z</time>
      </trkpt>
      <trkpt lat="42.219119" lon="2.544394">
        <ele>315</ele>
        <time>2019-08-19T04:46:38Z</time>
      </trkpt>
      <trkpt lat="42.219119" lon="2.544363">
        <ele>316</ele>
        <time>2019-08-19T04:46:39Z</time>
      </trkpt>
      <trkpt lat="42.219118" lon="2.544297">
        <ele>316</ele>
        <time>2019-08-19T04:46:40Z</time>
      </trkpt>
      <trkpt lat="42.219117" lon="2.544265">
        <ele>316</ele>
        <time>2019-08-19T04:46:41Z</time>
      </trkpt>
      <trkpt lat="42.219116" lon="2.544232">
        <ele>316</ele>
        <time>2019-08-19T04:46:42Z</time>
      </trkpt>
      <trkpt lat="42.219115" lon="2.5442">
        <ele>316</ele>
        <time>2019-08-19T04:46:43Z</time>
      </trkpt>
      <trkpt lat="42.219114" lon="2.544168">
        <ele>316</ele>
        <time>2019-08-19T04:46:44Z</time>
      </trkpt>
      <trkpt lat="42.219112" lon="2.544136">
        <ele>316</ele>
        <time>2019-08-19T04:46:45Z</time>
      </trkpt>
      <trkpt lat="42.219111" lon="2.544104">
        <ele>316</ele>
        <time>2019-08-19T04:46:46Z</time>
      </trkpt>
      <trkpt lat="42.21911" lon="2.544071">
        <ele>316</ele>
        <time>2019-08-19T04:46:47Z</time>
      </trkpt>
      <trkpt lat="42.219109" lon="2.544039">
        <ele>316</ele>
        <time>2019-08-19T04:46:48Z</time>
      </trkpt>
      <trkpt lat="42.219108" lon="2.544007">
        <ele>318</ele>
        <time>2019-08-19T04:46:49Z</time>
      </trkpt>
      <trkpt lat="42.219105" lon="2.543937">
        <ele>318</ele>
        <time>2019-08-19T04:46:50Z</time>
      </trkpt>
      <trkpt lat="42.219104" lon="2.543901">
        <ele>318</ele>
        <time>2019-08-19T04:46:51Z</time>
      </trkpt>
      <trkpt lat="42.219102" lon="2.543866">
        <ele>318</ele>
        <time>2019-08-19T04:46:53Z</time>
      </trkpt>
      <trkpt lat="42.219101" lon="2.543831">
        <ele>318</ele>
        <time>2019-08-19T04:46:54Z</time>
      </trkpt>
      <trkpt lat="42.219099" lon="2.543795">
        <ele>318</ele>
        <time>2019-08-19T04:46:55Z</time>
      </trkpt>
      <trkpt lat="42.219098" lon="2.54376">
        <ele>318</ele>
        <time>2019-08-19T04:46:56Z</time>
      </trkpt>
      <trkpt lat="42.219096" lon="2.543725">
        <ele>318</ele>
        <time>2019-08-19T04:46:57Z</time>
      </trkpt>
      <trkpt lat="42.219095" lon="2.543689">
        <ele>318</ele>
        <time>2019-08-19T04:46:58Z</time>
      </trkpt>
      <trkpt lat="42.219093" lon="2.543654">
        <ele>318</ele>
        <time>2019-08-19T04:46:59Z</time>
      </trkpt>
      <trkpt lat="42.219083" lon="2.543588">
        <ele>318</ele>
        <time>2019-08-19T04:47:00Z</time>
      </trkpt>
      <trkpt lat="42.219077" lon="2.543558">
        <ele>318</ele>
        <time>2019-08-19T04:47:01Z</time>
      </trkpt>
      <trkpt lat="42.219071" lon="2.543528">
        <ele>318</ele>
        <time>2019-08-19T04:47:02Z</time>
      </trkpt>
      <trkpt lat="42.219065" lon="2.543498">
        <ele>318</ele>
        <time>2019-08-19T04:47:03Z</time>
      </trkpt>
      <trkpt lat="42.219059" lon="2.543467">
        <ele>318</ele>
        <time>2019-08-19T04:47:04Z</time>
      </trkpt>
      <trkpt lat="42.219052" lon="2.543437">
        <ele>318</ele>
        <time>2019-08-19T04:47:05Z</time>
      </trkpt>
      <trkpt lat="42.219046" lon="2.543407">
        <ele>318</ele>
        <time>2019-08-19T04:47:06Z</time>
      </trkpt>
      <trkpt lat="42.21904" lon="2.543377">
        <ele>318</ele>
        <time>2019-08-19T04:47:07Z</time>
      </trkpt>
      <trkpt lat="42.219034" lon="2.543347">
        <ele>318</ele>
        <time>2019-08-19T04:47:08Z</time>
      </trkpt>
      <trkpt lat="42.219028" lon="2.543317">
        <ele>319</ele>
        <time>2019-08-19T04:47:09Z</time>
      </trkpt>
      <trkpt lat="42.218996" lon="2.543249">
        <ele>319</ele>
        <time>2019-08-19T04:47:10Z</time>
      </trkpt>
      <trkpt lat="42.218977" lon="2.543213">
        <ele>319</ele>
        <time>2019-08-19T04:47:11Z</time>
      </trkpt>
      <trkpt lat="42.218957" lon="2.543177">
        <ele>319</ele>
        <time>2019-08-19T04:47:13Z</time>
      </trkpt>
      <trkpt lat="42.218938" lon="2.543141">
        <ele>319</ele>
        <time>2019-08-19T04:47:14Z</time>
      </trkpt>
      <trkpt lat="42.218919" lon="2.543106">
        <ele>319</ele>
        <time>2019-08-19T04:47:15Z</time>
      </trkpt>
      <trkpt lat="42.2189" lon="2.54307">
        <ele>319</ele>
        <time>2019-08-19T04:47:16Z</time>
      </trkpt>
      <trkpt lat="42.21888" lon="2.543034">
        <ele>319</ele>
        <time>2019-08-19T04:47:18Z</time>
      </trkpt>
      <trkpt lat="42.218861" lon="2.542998">
        <ele>320</ele>
        <time>2019-08-19T04:47:19Z</time>
      </trkpt>
      <trkpt lat="42.218804" lon="2.542899">
        <ele>320</ele>
        <time>2019-08-19T04:47:21Z</time>
      </trkpt>
      <trkpt lat="42.218784" lon="2.542867">
        <ele>320</ele>
        <time>2019-08-19T04:47:22Z</time>
      </trkpt>
      <trkpt lat="42.218764" lon="2.542836">
        <ele>320</ele>
        <time>2019-08-19T04:47:23Z</time>
      </trkpt>
      <trkpt lat="42.218744" lon="2.542804">
        <ele>320</ele>
        <time>2019-08-19T04:47:24Z</time>
      </trkpt>
      <trkpt lat="42.218724" lon="2.542772">
        <ele>320</ele>
        <time>2019-08-19T04:47:25Z</time>
      </trkpt>
      <trkpt lat="42.218704" lon="2.54274">
        <ele>320</ele>
        <time>2019-08-19T04:47:27Z</time>
      </trkpt>
      <trkpt lat="42.218684" lon="2.542709">
        <ele>320</ele>
        <time>2019-08-19T04:47:28Z</time>
      </trkpt>
      <trkpt lat="42.218664" lon="2.542677">
        <ele>322</ele>
        <time>2019-08-19T04:47:29Z</time>
      </trkpt>
      <trkpt lat="42.218621" lon="2.542607">
        <ele>322</ele>
        <time>2019-08-19T04:47:30Z</time>
      </trkpt>
      <trkpt lat="42.218605" lon="2.542581">
        <ele>322</ele>
        <time>2019-08-19T04:47:31Z</time>
      </trkpt>
      <trkpt lat="42.21859" lon="2.542554">
        <ele>322</ele>
        <time>2019-08-19T04:47:32Z</time>
      </trkpt>
      <trkpt lat="42.218574" lon="2.542528">
        <ele>322</ele>
        <time>2019-08-19T04:47:33Z</time>
      </trkpt>
      <trkpt lat="42.218559" lon="2.542501">
        <ele>322</ele>
        <time>2019-08-19T04:47:34Z</time>
      </trkpt>
      <trkpt lat="42.218544" lon="2.542475">
        <ele>322</ele>
        <time>2019-08-19T04:47:35Z</time>
      </trkpt>
      <trkpt lat="42.218528" lon="2.542448">
        <ele>322</ele>
        <time>2019-08-19T04:47:36Z</time>
      </trkpt>
      <trkpt lat="42.218513" lon="2.542422">
        <ele>322</ele>
        <time>2019-08-19T04:47:37Z</time>
      </trkpt>
      <trkpt lat="42.218497" lon="2.542395">
        <ele>322</ele>
        <time>2019-08-19T04:47:38Z</time>
      </trkpt>
      <trkpt lat="42.218482" lon="2.542369">
        <ele>323</ele>
        <time>2019-08-19T04:47:39Z</time>
      </trkpt>
      <trkpt lat="42.218456" lon="2.542324">
        <ele>323</ele>
        <time>2019-08-19T04:47:40Z</time>
      </trkpt>
      <trkpt lat="42.218439" lon="2.542294">
        <ele>323</ele>
        <time>2019-08-19T04:47:41Z</time>
      </trkpt>
      <trkpt lat="42.218422" lon="2.542264">
        <ele>323</ele>
        <time>2019-08-19T04:47:42Z</time>
      </trkpt>
      <trkpt lat="42.218405" lon="2.542234">
        <ele>323</ele>
        <time>2019-08-19T04:47:43Z</time>
      </trkpt>
      <trkpt lat="42.218388" lon="2.542204">
        <ele>323</ele>
        <time>2019-08-19T04:47:44Z</time>
      </trkpt>
      <trkpt lat="42.21837" lon="2.542174">
        <ele>323</ele>
        <time>2019-08-19T04:47:45Z</time>
      </trkpt>
      <trkpt lat="42.218353" lon="2.542144">
        <ele>323</ele>
        <time>2019-08-19T04:47:46Z</time>
      </trkpt>
      <trkpt lat="42.218336" lon="2.542114">
        <ele>323</ele>
        <time>2019-08-19T04:47:47Z</time>
      </trkpt>
      <trkpt lat="42.218319" lon="2.542084">
        <ele>323</ele>
        <time>2019-08-19T04:47:48Z</time>
      </trkpt>
      <trkpt lat="42.218302" lon="2.542054">
        <ele>324</ele>
        <time>2019-08-19T04:47:49Z</time>
      </trkpt>
      <trkpt lat="42.218258" lon="2.54198">
        <ele>324</ele>
        <time>2019-08-19T04:47:50Z</time>
      </trkpt>
      <trkpt lat="42.218242" lon="2.541952">
        <ele>324</ele>
        <time>2019-08-19T04:47:52Z</time>
      </trkpt>
      <trkpt lat="42.218225" lon="2.541924">
        <ele>324</ele>
        <time>2019-08-19T04:47:53Z</time>
      </trkpt>
      <trkpt lat="42.218209" lon="2.541896">
        <ele>324</ele>
        <time>2019-08-19T04:47:54Z</time>
      </trkpt>
      <trkpt lat="42.218192" lon="2.541868">
        <ele>324</ele>
        <time>2019-08-19T04:47:55Z</time>
      </trkpt>
      <trkpt lat="42.218176" lon="2.54184">
        <ele>324</ele>
        <time>2019-08-19T04:47:56Z</time>
      </trkpt>
      <trkpt lat="42.218159" lon="2.541812">
        <ele>324</ele>
        <time>2019-08-19T04:47:57Z</time>
      </trkpt>
      <trkpt lat="42.218143" lon="2.541784">
        <ele>324</ele>
        <time>2019-08-19T04:47:58Z</time>
      </trkpt>
      <trkpt lat="42.218126" lon="2.541756">
        <ele>325</ele>
        <time>2019-08-19T04:47:59Z</time>
      </trkpt>
      <trkpt lat="42.218088" lon="2.541693">
        <ele>325</ele>
        <time>2019-08-19T04:48:00Z</time>
      </trkpt>
      <trkpt lat="42.218069" lon="2.54166">
        <ele>325</ele>
        <time>2019-08-19T04:48:01Z</time>
      </trkpt>
      <trkpt lat="42.218049" lon="2.541628">
        <ele>325</ele>
        <time>2019-08-19T04:48:02Z</time>
      </trkpt>
      <trkpt lat="42.218029" lon="2.541596">
        <ele>325</ele>
        <time>2019-08-19T04:48:04Z</time>
      </trkpt>
      <trkpt lat="42.21801" lon="2.541563">
        <ele>325</ele>
        <time>2019-08-19T04:48:05Z</time>
      </trkpt>
      <trkpt lat="42.21799" lon="2.541531">
        <ele>325</ele>
        <time>2019-08-19T04:48:06Z</time>
      </trkpt>
      <trkpt lat="42.21797" lon="2.541499">
        <ele>325</ele>
        <time>2019-08-19T04:48:07Z</time>
      </trkpt>
      <trkpt lat="42.217951" lon="2.541466">
        <ele>325</ele>
        <time>2019-08-19T04:48:08Z</time>
      </trkpt>
      <trkpt lat="42.217931" lon="2.541434">
        <ele>327</ele>
        <time>2019-08-19T04:48:09Z</time>
      </trkpt>
      <trkpt lat="42.217885" lon="2.541367">
        <ele>327</ele>
        <time>2019-08-19T04:48:10Z</time>
      </trkpt>
      <trkpt lat="42.217866" lon="2.541345">
        <ele>327</ele>
        <time>2019-08-19T04:48:11Z</time>
      </trkpt>
      <trkpt lat="42.217848" lon="2.541322">
        <ele>327</ele>
        <time>2019-08-19T04:48:12Z</time>
      </trkpt>
      <trkpt lat="42.217829" lon="2.5413">
        <ele>327</ele>
        <time>2019-08-19T04:48:13Z</time>
      </trkpt>
      <trkpt lat="42.217811" lon="2.541278">
        <ele>327</ele>
        <time>2019-08-19T04:48:14Z</time>
      </trkpt>
      <trkpt lat="42.217793" lon="2.541256">
        <ele>327</ele>
        <time>2019-08-19T04:48:15Z</time>
      </trkpt>
      <trkpt lat="42.217774" lon="2.541234">
        <ele>327</ele>
        <time>2019-08-19T04:48:16Z</time>
      </trkpt>
      <trkpt lat="42.217756" lon="2.541211">
        <ele>327</ele>
        <time>2019-08-19T04:48:17Z</time>
      </trkpt>
      <trkpt lat="42.217737" lon="2.541189">
        <ele>327</ele>
        <time>2019-08-19T04:48:18Z</time>
      </trkpt>
      <trkpt lat="42.217719" lon="2.541167">
        <ele>328</ele>
        <time>2019-08-19T04:48:19Z</time>
      </trkpt>
      <trkpt lat="42.217684" lon="2.54114">
        <ele>328</ele>
        <time>2019-08-19T04:48:20Z</time>
      </trkpt>
      <trkpt lat="42.217661" lon="2.541124">
        <ele>328</ele>
        <time>2019-08-19T04:48:21Z</time>
      </trkpt>
      <trkpt lat="42.217637" lon="2.541109">
        <ele>328</ele>
        <time>2019-08-19T04:48:22Z</time>
      </trkpt>
      <trkpt lat="42.217614" lon="2.541093">
        <ele>328</ele>
        <time>2019-08-19T04:48:23Z</time>
      </trkpt>
      <trkpt lat="42.217591" lon="2.541078">
        <ele>328</ele>
        <time>2019-08-19T04:48:24Z</time>
      </trkpt>
      <trkpt lat="42.217568" lon="2.541063">
        <ele>328</ele>
        <time>2019-08-19T04:48:25Z</time>
      </trkpt>
      <trkpt lat="42.217545" lon="2.541047">
        <ele>328</ele>
        <time>2019-08-19T04:48:26Z</time>
      </trkpt>
      <trkpt lat="42.217521" lon="2.541032">
        <ele>328</ele>
        <time>2019-08-19T04:48:27Z</time>
      </trkpt>
      <trkpt lat="42.217498" lon="2.541016">
        <ele>328</ele>
        <time>2019-08-19T04:48:28Z</time>
      </trkpt>
      <trkpt lat="42.217475" lon="2.541001">
        <ele>330</ele>
        <time>2019-08-19T04:48:29Z</time>
      </trkpt>
      <trkpt lat="42.217431" lon="2.540978">
        <ele>330</ele>
        <time>2019-08-19T04:48:30Z</time>
      </trkpt>
      <trkpt lat="42.217414" lon="2.540967">
        <ele>330</ele>
        <time>2019-08-19T04:48:31Z</time>
      </trkpt>
      <trkpt lat="42.217396" lon="2.540957">
        <ele>330</ele>
        <time>2019-08-19T04:48:32Z</time>
      </trkpt>
      <trkpt lat="42.217378" lon="2.540946">
        <ele>330</ele>
        <time>2019-08-19T04:48:33Z</time>
      </trkpt>
      <trkpt lat="42.21736" lon="2.540936">
        <ele>330</ele>
        <time>2019-08-19T04:48:34Z</time>
      </trkpt>
      <trkpt lat="42.217343" lon="2.540925">
        <ele>330</ele>
        <time>2019-08-19T04:48:37Z</time>
      </trkpt>
      <trkpt lat="42.217325" lon="2.540915">
        <ele>330</ele>
        <time>2019-08-19T04:48:39Z</time>
      </trkpt>
      <trkpt lat="42.217315" lon="2.540884">
        <ele>330</ele>
        <time>2019-08-19T04:48:42Z</time>
      </trkpt>
      <trkpt lat="42.217305" lon="2.540853">
        <ele>330</ele>
        <time>2019-08-19T04:52:24Z</time>
      </trkpt>
      <trkpt lat="42.217296" lon="2.540821">
        <ele>330</ele>
        <time>2019-08-19T04:52:25Z</time>
      </trkpt>
      <trkpt lat="42.217286" lon="2.54079">
        <ele>330</ele>
        <time>2019-08-19T04:52:27Z</time>
      </trkpt>
      <trkpt lat="42.217277" lon="2.540758">
        <ele>330</ele>
        <time>2019-08-19T04:52:28Z</time>
      </trkpt>
      <trkpt lat="42.217267" lon="2.540726">
        <ele>330</ele>
        <time>2019-08-19T04:52:29Z</time>
      </trkpt>
      <trkpt lat="42.217258" lon="2.540695">
        <ele>330</ele>
        <time>2019-08-19T04:52:30Z</time>
      </trkpt>
      <trkpt lat="42.217248" lon="2.540663">
        <ele>330</ele>
        <time>2019-08-19T04:52:31Z</time>
      </trkpt>
      <trkpt lat="42.217239" lon="2.540632">
        <ele>330</ele>
        <time>2019-08-19T04:52:32Z</time>
      </trkpt>
      <trkpt lat="42.217229" lon="2.5406">
        <ele>330</ele>
        <time>2019-08-19T04:52:33Z</time>
      </trkpt>
      <trkpt lat="42.217224" lon="2.540531">
        <ele>330</ele>
        <time>2019-08-19T04:52:34Z</time>
      </trkpt>
      <trkpt lat="42.217221" lon="2.540497">
        <ele>330</ele>
        <time>2019-08-19T04:52:35Z</time>
      </trkpt>
      <trkpt lat="42.217219" lon="2.540462">
        <ele>330</ele>
        <time>2019-08-19T04:52:36Z</time>
      </trkpt>
      <trkpt lat="42.217216" lon="2.540428">
        <ele>330</ele>
        <time>2019-08-19T04:52:37Z</time>
      </trkpt>
      <trkpt lat="42.217214" lon="2.540393">
        <ele>330</ele>
        <time>2019-08-19T04:52:38Z</time>
      </trkpt>
      <trkpt lat="42.217211" lon="2.540359">
        <ele>330</ele>
        <time>2019-08-19T04:52:39Z</time>
      </trkpt>
      <trkpt lat="42.217209" lon="2.540324">
        <ele>330</ele>
        <time>2019-08-19T04:52:40Z</time>
      </trkpt>
      <trkpt lat="42.217206" lon="2.54029">
        <ele>330</ele>
        <time>2019-08-19T04:52:41Z</time>
      </trkpt>
      <trkpt lat="42.217204" lon="2.540255">
        <ele>330</ele>
        <time>2019-08-19T04:52:43Z</time>
      </trkpt>
      <trkpt lat="42.217201" lon="2.540221">
        <ele>332</ele>
        <time>2019-08-19T04:52:44Z</time>
      </trkpt>
      <trkpt lat="42.217199" lon="2.540143">
        <ele>332</ele>
        <time>2019-08-19T04:52:45Z</time>
      </trkpt>
      <trkpt lat="42.217198" lon="2.540116">
        <ele>332</ele>
        <time>2019-08-19T04:52:46Z</time>
      </trkpt>
      <trkpt lat="42.217196" lon="2.540088">
        <ele>332</ele>
        <time>2019-08-19T04:52:47Z</time>
      </trkpt>
      <trkpt lat="42.217195" lon="2.54006">
        <ele>332</ele>
        <time>2019-08-19T04:52:48Z</time>
      </trkpt>
      <trkpt lat="42.217193" lon="2.540033">
        <ele>332</ele>
        <time>2019-08-19T04:52:49Z</time>
      </trkpt>
      <trkpt lat="42.217192" lon="2.540005">
        <ele>332</ele>
        <time>2019-08-19T04:52:50Z</time>
      </trkpt>
      <trkpt lat="42.21719" lon="2.539977">
        <ele>332</ele>
        <time>2019-08-19T04:52:51Z</time>
      </trkpt>
      <trkpt lat="42.217189" lon="2.53995">
        <ele>332</ele>
        <time>2019-08-19T04:52:52Z</time>
      </trkpt>
      <trkpt lat="42.217187" lon="2.539922">
        <ele>332</ele>
        <time>2019-08-19T04:52:53Z</time>
      </trkpt>
      <trkpt lat="42.217186" lon="2.539875">
        <ele>332</ele>
        <time>2019-08-19T04:52:54Z</time>
      </trkpt>
      <trkpt lat="42.217184" lon="2.539845">
        <ele>332</ele>
        <time>2019-08-19T04:52:55Z</time>
      </trkpt>
      <trkpt lat="42.217183" lon="2.539814">
        <ele>332</ele>
        <time>2019-08-19T04:52:56Z</time>
      </trkpt>
      <trkpt lat="42.217181" lon="2.539784">
        <ele>332</ele>
        <time>2019-08-19T04:52:57Z</time>
      </trkpt>
      <trkpt lat="42.21718" lon="2.539753">
        <ele>332</ele>
        <time>2019-08-19T04:52:58Z</time>
      </trkpt>
      <trkpt lat="42.217178" lon="2.539722">
        <ele>332</ele>
        <time>2019-08-19T04:52:59Z</time>
      </trkpt>
      <trkpt lat="42.217177" lon="2.539692">
        <ele>332</ele>
        <time>2019-08-19T04:53:00Z</time>
      </trkpt>
      <trkpt lat="42.217175" lon="2.539661">
        <ele>332</ele>
        <time>2019-08-19T04:53:01Z</time>
      </trkpt>
      <trkpt lat="42.217174" lon="2.539631">
        <ele>332</ele>
        <time>2019-08-19T04:53:02Z</time>
      </trkpt>
      <trkpt lat="42.217172" lon="2.5396">
        <ele>332</ele>
        <time>2019-08-19T04:53:03Z</time>
      </trkpt>
      <trkpt lat="42.217168" lon="2.539522">
        <ele>332</ele>
        <time>2019-08-19T04:53:04Z</time>
      </trkpt>
      <trkpt lat="42.217166" lon="2.539483">
        <ele>332</ele>
        <time>2019-08-19T04:53:05Z</time>
      </trkpt>
      <trkpt lat="42.217163" lon="2.539444">
        <ele>332</ele>
        <time>2019-08-19T04:53:06Z</time>
      </trkpt>
      <trkpt lat="42.217161" lon="2.539405">
        <ele>332</ele>
        <time>2019-08-19T04:53:07Z</time>
      </trkpt>
      <trkpt lat="42.217159" lon="2.539365">
        <ele>332</ele>
        <time>2019-08-19T04:53:08Z</time>
      </trkpt>
      <trkpt lat="42.217157" lon="2.539326">
        <ele>332</ele>
        <time>2019-08-19T04:53:09Z</time>
      </trkpt>
      <trkpt lat="42.217155" lon="2.539287">
        <ele>332</ele>
        <time>2019-08-19T04:53:10Z</time>
      </trkpt>
      <trkpt lat="42.217152" lon="2.539248">
        <ele>332</ele>
        <time>2019-08-19T04:53:11Z</time>
      </trkpt>
      <trkpt lat="42.21715" lon="2.539209">
        <ele>332</ele>
        <time>2019-08-19T04:53:12Z</time>
      </trkpt>
      <trkpt lat="42.217148" lon="2.53917">
        <ele>334</ele>
        <time>2019-08-19T04:53:13Z</time>
      </trkpt>
      <trkpt lat="42.217143" lon="2.539078">
        <ele>334</ele>
        <time>2019-08-19T04:53:14Z</time>
      </trkpt>
      <trkpt lat="42.21714" lon="2.539035">
        <ele>334</ele>
        <time>2019-08-19T04:53:15Z</time>
      </trkpt>
      <trkpt lat="42.217136" lon="2.538991">
        <ele>334</ele>
        <time>2019-08-19T04:53:16Z</time>
      </trkpt>
      <trkpt lat="42.217133" lon="2.538947">
        <ele>334</ele>
        <time>2019-08-19T04:53:17Z</time>
      </trkpt>
      <trkpt lat="42.21713" lon="2.538903">
        <ele>334</ele>
        <time>2019-08-19T04:53:18Z</time>
      </trkpt>
      <trkpt lat="42.217127" lon="2.53886">
        <ele>334</ele>
        <time>2019-08-19T04:53:19Z</time>
      </trkpt>
      <trkpt lat="42.217124" lon="2.538816">
        <ele>334</ele>
        <time>2019-08-19T04:53:20Z</time>
      </trkpt>
      <trkpt lat="42.21712" lon="2.538772">
        <ele>334</ele>
        <time>2019-08-19T04:53:21Z</time>
      </trkpt>
      <trkpt lat="42.217117" lon="2.538729">
        <ele>334</ele>
        <time>2019-08-19T04:53:22Z</time>
      </trkpt>
      <trkpt lat="42.217114" lon="2.538685">
        <ele>334</ele>
        <time>2019-08-19T04:53:23Z</time>
      </trkpt>
      <trkpt lat="42.217107" lon="2.538587">
        <ele>334</ele>
        <time>2019-08-19T04:53:24Z</time>
      </trkpt>
      <trkpt lat="42.217104" lon="2.538539">
        <ele>334</ele>
        <time>2019-08-19T04:53:25Z</time>
      </trkpt>
      <trkpt lat="42.217101" lon="2.53849">
        <ele>334</ele>
        <time>2019-08-19T04:53:26Z</time>
      </trkpt>
      <trkpt lat="42.217098" lon="2.538442">
        <ele>334</ele>
        <time>2019-08-19T04:53:27Z</time>
      </trkpt>
      <trkpt lat="42.217095" lon="2.538394">
        <ele>334</ele>
        <time>2019-08-19T04:53:28Z</time>
      </trkpt>
      <trkpt lat="42.217092" lon="2.538346">
        <ele>334</ele>
        <time>2019-08-19T04:53:29Z</time>
      </trkpt>
      <trkpt lat="42.217089" lon="2.538298">
        <ele>334</ele>
        <time>2019-08-19T04:53:30Z</time>
      </trkpt>
      <trkpt lat="42.217086" lon="2.538249">
        <ele>334</ele>
        <time>2019-08-19T04:53:31Z</time>
      </trkpt>
      <trkpt lat="42.217083" lon="2.538201">
        <ele>334</ele>
        <time>2019-08-19T04:53:32Z</time>
      </trkpt>
      <trkpt lat="42.21708" lon="2.538153">
        <ele>334</ele>
        <time>2019-08-19T04:53:33Z</time>
      </trkpt>
      <trkpt lat="42.217071" lon="2.538028">
        <ele>334</ele>
        <time>2019-08-19T04:53:34Z</time>
      </trkpt>
      <trkpt lat="42.217066" lon="2.537962">
        <ele>334</ele>
        <time>2019-08-19T04:53:35Z</time>
      </trkpt>
      <trkpt lat="42.21706" lon="2.537895">
        <ele>334</ele>
        <time>2019-08-19T04:53:36Z</time>
      </trkpt>
      <trkpt lat="42.217055" lon="2.537829">
        <ele>334</ele>
        <time>2019-08-19T04:53:37Z</time>
      </trkpt>
      <trkpt lat="42.21705" lon="2.537763">
        <ele>334</ele>
        <time>2019-08-19T04:53:38Z</time>
      </trkpt>
      <trkpt lat="42.217045" lon="2.537697">
        <ele>334</ele>
        <time>2019-08-19T04:53:39Z</time>
      </trkpt>
      <trkpt lat="42.217039" lon="2.53763">
        <ele>334</ele>
        <time>2019-08-19T04:53:40Z</time>
      </trkpt>
      <trkpt lat="42.217034" lon="2.537564">
        <ele>334</ele>
        <time>2019-08-19T04:53:41Z</time>
      </trkpt>
      <trkpt lat="42.217029" lon="2.537498">
        <ele>334</ele>
        <time>2019-08-19T04:53:43Z</time>
      </trkpt>
      <trkpt lat="42.217021" lon="2.537397">
        <ele>334</ele>
        <time>2019-08-19T04:53:44Z</time>
      </trkpt>
      <trkpt lat="42.217017" lon="2.53734">
        <ele>334</ele>
        <time>2019-08-19T04:53:45Z</time>
      </trkpt>
      <trkpt lat="42.217014" lon="2.537282">
        <ele>334</ele>
        <time>2019-08-19T04:53:46Z</time>
      </trkpt>
      <trkpt lat="42.21701" lon="2.537224">
        <ele>334</ele>
        <time>2019-08-19T04:53:47Z</time>
      </trkpt>
      <trkpt lat="42.217007" lon="2.537166">
        <ele>334</ele>
        <time>2019-08-19T04:53:48Z</time>
      </trkpt>
      <trkpt lat="42.217003" lon="2.537109">
        <ele>334</ele>
        <time>2019-08-19T04:53:49Z</time>
      </trkpt>
      <trkpt lat="42.217" lon="2.537051">
        <ele>334</ele>
        <time>2019-08-19T04:53:50Z</time>
      </trkpt>
      <trkpt lat="42.216996" lon="2.536993">
        <ele>334</ele>
        <time>2019-08-19T04:53:51Z</time>
      </trkpt>
      <trkpt lat="42.216993" lon="2.536936">
        <ele>334</ele>
        <time>2019-08-19T04:53:52Z</time>
      </trkpt>
      <trkpt lat="42.216989" lon="2.536878">
        <ele>334</ele>
        <time>2019-08-19T04:53:53Z</time>
      </trkpt>
      <trkpt lat="42.216981" lon="2.536749">
        <ele>334</ele>
        <time>2019-08-19T04:53:54Z</time>
      </trkpt>
      <trkpt lat="42.216977" lon="2.536685">
        <ele>334</ele>
        <time>2019-08-19T04:53:55Z</time>
      </trkpt>
      <trkpt lat="42.216973" lon="2.536622">
        <ele>334</ele>
        <time>2019-08-19T04:53:56Z</time>
      </trkpt>
      <trkpt lat="42.216969" lon="2.536559">
        <ele>334</ele>
        <time>2019-08-19T04:53:57Z</time>
      </trkpt>
      <trkpt lat="42.216965" lon="2.536495">
        <ele>334</ele>
        <time>2019-08-19T04:53:58Z</time>
      </trkpt>
      <trkpt lat="42.21696" lon="2.536432">
        <ele>334</ele>
        <time>2019-08-19T04:53:59Z</time>
      </trkpt>
      <trkpt lat="42.216956" lon="2.536369">
        <ele>334</ele>
        <time>2019-08-19T04:54:00Z</time>
      </trkpt>
      <trkpt lat="42.216952" lon="2.536306">
        <ele>334</ele>
        <time>2019-08-19T04:54:01Z</time>
      </trkpt>
      <trkpt lat="42.216948" lon="2.536242">
        <ele>334</ele>
        <time>2019-08-19T04:54:02Z</time>
      </trkpt>
      <trkpt lat="42.216944" lon="2.536179">
        <ele>334</ele>
        <time>2019-08-19T04:54:03Z</time>
      </trkpt>
      <trkpt lat="42.216934" lon="2.536044">
        <ele>334</ele>
        <time>2019-08-19T04:54:04Z</time>
      </trkpt>
      <trkpt lat="42.216929" lon="2.535981">
        <ele>334</ele>
        <time>2019-08-19T04:54:05Z</time>
      </trkpt>
      <trkpt lat="42.216925" lon="2.535918">
        <ele>334</ele>
        <time>2019-08-19T04:54:06Z</time>
      </trkpt>
      <trkpt lat="42.21692" lon="2.535855">
        <ele>334</ele>
        <time>2019-08-19T04:54:07Z</time>
      </trkpt>
      <trkpt lat="42.216915" lon="2.535792">
        <ele>334</ele>
        <time>2019-08-19T04:54:08Z</time>
      </trkpt>
      <trkpt lat="42.21691" lon="2.53573">
        <ele>334</ele>
        <time>2019-08-19T04:54:09Z</time>
      </trkpt>
      <trkpt lat="42.216905" lon="2.535667">
        <ele>334</ele>
        <time>2019-08-19T04:54:10Z</time>
      </trkpt>
      <trkpt lat="42.216901" lon="2.535604">
        <ele>334</ele>
        <time>2019-08-19T04:54:11Z</time>
      </trkpt>
      <trkpt lat="42.216896" lon="2.535541">
        <ele>334</ele>
        <time>2019-08-19T04:54:12Z</time>
      </trkpt>
      <trkpt lat="42.216891" lon="2.535478">
        <ele>335</ele>
        <time>2019-08-19T04:54:13Z</time>
      </trkpt>
      <trkpt lat="42.21688" lon="2.535332">
        <ele>335</ele>
        <time>2019-08-19T04:54:14Z</time>
      </trkpt>
      <trkpt lat="42.216874" lon="2.535256">
        <ele>335</ele>
        <time>2019-08-19T04:54:15Z</time>
      </trkpt>
      <trkpt lat="42.216867" lon="2.535179">
        <ele>335</ele>
        <time>2019-08-19T04:54:16Z</time>
      </trkpt>
      <trkpt lat="42.216861" lon="2.535102">
        <ele>335</ele>
        <time>2019-08-19T04:54:17Z</time>
      </trkpt>
      <trkpt lat="42.216855" lon="2.535026">
        <ele>335</ele>
        <time>2019-08-19T04:54:18Z</time>
      </trkpt>
      <trkpt lat="42.216849" lon="2.534949">
        <ele>335</ele>
        <time>2019-08-19T04:54:19Z</time>
      </trkpt>
      <trkpt lat="42.216842" lon="2.534873">
        <ele>335</ele>
        <time>2019-08-19T04:54:21Z</time>
      </trkpt>
      <trkpt lat="42.216836" lon="2.534796">
        <ele>335</ele>
        <time>2019-08-19T04:54:23Z</time>
      </trkpt>
      <trkpt lat="42.216827" lon="2.534695">
        <ele>335</ele>
        <time>2019-08-19T04:54:24Z</time>
      </trkpt>
      <trkpt lat="42.216821" lon="2.534638">
        <ele>335</ele>
        <time>2019-08-19T04:54:25Z</time>
      </trkpt>
      <trkpt lat="42.216816" lon="2.534581">
        <ele>335</ele>
        <time>2019-08-19T04:54:26Z</time>
      </trkpt>
      <trkpt lat="42.21681" lon="2.534524">
        <ele>335</ele>
        <time>2019-08-19T04:54:27Z</time>
      </trkpt>
      <trkpt lat="42.216804" lon="2.534466">
        <ele>335</ele>
        <time>2019-08-19T04:54:28Z</time>
      </trkpt>
      <trkpt lat="42.216798" lon="2.534409">
        <ele>335</ele>
        <time>2019-08-19T04:54:29Z</time>
      </trkpt>
      <trkpt lat="42.216792" lon="2.534352">
        <ele>335</ele>
        <time>2019-08-19T04:54:30Z</time>
      </trkpt>
      <trkpt lat="42.216787" lon="2.534295">
        <ele>335</ele>
        <time>2019-08-19T04:54:31Z</time>
      </trkpt>
      <trkpt lat="42.216781" lon="2.534238">
        <ele>335</ele>
        <time>2019-08-19T04:54:32Z</time>
      </trkpt>
      <trkpt lat="42.216775" lon="2.534181">
        <ele>335</ele>
        <time>2019-08-19T04:54:33Z</time>
      </trkpt>
      <trkpt lat="42.216765" lon="2.53406">
        <ele>335</ele>
        <time>2019-08-19T04:54:34Z</time>
      </trkpt>
      <trkpt lat="42.216756" lon="2.533997">
        <ele>335</ele>
        <time>2019-08-19T04:54:35Z</time>
      </trkpt>
      <trkpt lat="42.216748" lon="2.533934">
        <ele>335</ele>
        <time>2019-08-19T04:54:36Z</time>
      </trkpt>
      <trkpt lat="42.216739" lon="2.533871">
        <ele>335</ele>
        <time>2019-08-19T04:54:37Z</time>
      </trkpt>
      <trkpt lat="42.216731" lon="2.533808">
        <ele>335</ele>
        <time>2019-08-19T04:54:38Z</time>
      </trkpt>
      <trkpt lat="42.216723" lon="2.533746">
        <ele>335</ele>
        <time>2019-08-19T04:54:39Z</time>
      </trkpt>
      <trkpt lat="42.216714" lon="2.533683">
        <ele>335</ele>
        <time>2019-08-19T04:54:40Z</time>
      </trkpt>
      <trkpt lat="42.216706" lon="2.53362">
        <ele>335</ele>
        <time>2019-08-19T04:54:41Z</time>
      </trkpt>
      <trkpt lat="42.216697" lon="2.533557">
        <ele>335</ele>
        <time>2019-08-19T04:54:42Z</time>
      </trkpt>
      <trkpt lat="42.216689" lon="2.533494">
        <ele>335</ele>
        <time>2019-08-19T04:54:43Z</time>
      </trkpt>
      <trkpt lat="42.216642" lon="2.533341">
        <ele>335</ele>
        <time>2019-08-19T04:54:44Z</time>
      </trkpt>
      <trkpt lat="42.216609" lon="2.533261">
        <ele>335</ele>
        <time>2019-08-19T04:54:45Z</time>
      </trkpt>
      <trkpt lat="42.216575" lon="2.533181">
        <ele>335</ele>
        <time>2019-08-19T04:54:46Z</time>
      </trkpt>
      <trkpt lat="42.216542" lon="2.533101">
        <ele>335</ele>
        <time>2019-08-19T04:54:47Z</time>
      </trkpt>
      <trkpt lat="42.216509" lon="2.53302">
        <ele>335</ele>
        <time>2019-08-19T04:54:48Z</time>
      </trkpt>
      <trkpt lat="42.216476" lon="2.53294">
        <ele>335</ele>
        <time>2019-08-19T04:54:49Z</time>
      </trkpt>
      <trkpt lat="42.216442" lon="2.53286">
        <ele>335</ele>
        <time>2019-08-19T04:54:51Z</time>
      </trkpt>
      <trkpt lat="42.216409" lon="2.53278">
        <ele>335</ele>
        <time>2019-08-19T04:54:52Z</time>
      </trkpt>
      <trkpt lat="42.216376" lon="2.5327">
        <ele>335</ele>
        <time>2019-08-19T04:54:53Z</time>
      </trkpt>
      <trkpt lat="42.216326" lon="2.532616">
        <ele>335</ele>
        <time>2019-08-19T04:54:54Z</time>
      </trkpt>
      <trkpt lat="42.216269" lon="2.532526">
        <ele>335</ele>
        <time>2019-08-19T04:54:55Z</time>
      </trkpt>
      <trkpt lat="42.216206" lon="2.532435">
        <ele>335</ele>
        <time>2019-08-19T04:54:56Z</time>
      </trkpt>
      <trkpt lat="42.216062" lon="2.53225">
        <ele>335</ele>
        <time>2019-08-19T04:54:57Z</time>
      </trkpt>
      <trkpt lat="42.215984" lon="2.532155">
        <ele>335</ele>
        <time>2019-08-19T04:54:58Z</time>
      </trkpt>
      <trkpt lat="42.215905" lon="2.53206">
        <ele>335</ele>
        <time>2019-08-19T04:54:59Z</time>
      </trkpt>
      <trkpt lat="42.21582" lon="2.531965">
        <ele>335</ele>
        <time>2019-08-19T04:55:01Z</time>
      </trkpt>
      <trkpt lat="42.215729" lon="2.531872">
        <ele>335</ele>
        <time>2019-08-19T04:55:02Z</time>
      </trkpt>
      <trkpt lat="42.215588" lon="2.531729">
        <ele>329</ele>
        <time>2019-08-19T04:55:03Z</time>
      </trkpt>
      <trkpt lat="42.215446" lon="2.531586">
        <ele>329</ele>
        <time>2019-08-19T04:55:04Z</time>
      </trkpt>
      <trkpt lat="42.215347" lon="2.531485">
        <ele>329</ele>
        <time>2019-08-19T04:55:06Z</time>
      </trkpt>
      <trkpt lat="42.215143" lon="2.531281">
        <ele>329</ele>
        <time>2019-08-19T04:55:07Z</time>
      </trkpt>
      <trkpt lat="42.215037" lon="2.531179">
        <ele>329</ele>
        <time>2019-08-19T04:55:09Z</time>
      </trkpt>
      <trkpt lat="42.214932" lon="2.531076">
        <ele>329</ele>
        <time>2019-08-19T04:55:10Z</time>
      </trkpt>
      <trkpt lat="42.214826" lon="2.530971">
        <ele>329</ele>
        <time>2019-08-19T04:55:11Z</time>
      </trkpt>
      <trkpt lat="42.214663" lon="2.530814">
        <ele>329</ele>
        <time>2019-08-19T04:55:12Z</time>
      </trkpt>
      <trkpt lat="42.214609" lon="2.530761">
        <ele>319</ele>
        <time>2019-08-19T04:55:13Z</time>
      </trkpt>
      <trkpt lat="42.214502" lon="2.530654">
        <ele>319</ele>
        <time>2019-08-19T04:55:14Z</time>
      </trkpt>
      <trkpt lat="42.2144" lon="2.530542">
        <ele>319</ele>
        <time>2019-08-19T04:55:15Z</time>
      </trkpt>
      <trkpt lat="42.214303" lon="2.530428">
        <ele>319</ele>
        <time>2019-08-19T04:55:16Z</time>
      </trkpt>
      <trkpt lat="42.214213" lon="2.530309">
        <ele>319</ele>
        <time>2019-08-19T04:55:17Z</time>
      </trkpt>
      <trkpt lat="42.21406" lon="2.530059">
        <ele>319</ele>
        <time>2019-08-19T04:55:18Z</time>
      </trkpt>
      <trkpt lat="42.213943" lon="2.529809">
        <ele>319</ele>
        <time>2019-08-19T04:55:20Z</time>
      </trkpt>
      <trkpt lat="42.213884" lon="2.529598">
        <ele>319</ele>
        <time>2019-08-19T04:55:21Z</time>
      </trkpt>
      <trkpt lat="42.213866" lon="2.529515">
        <ele>320</ele>
        <time>2019-08-19T04:55:23Z</time>
      </trkpt>
      <trkpt lat="42.213848" lon="2.529317">
        <ele>320</ele>
        <time>2019-08-19T04:55:24Z</time>
      </trkpt>
      <trkpt lat="42.213847" lon="2.529202">
        <ele>320</ele>
        <time>2019-08-19T04:55:25Z</time>
      </trkpt>
      <trkpt lat="42.213845" lon="2.529088">
        <ele>320</ele>
        <time>2019-08-19T04:55:26Z</time>
      </trkpt>
      <trkpt lat="42.213844" lon="2.528973">
        <ele>320</ele>
        <time>2019-08-19T04:55:27Z</time>
      </trkpt>
      <trkpt lat="42.213843" lon="2.528859">
        <ele>320</ele>
        <time>2019-08-19T04:55:29Z</time>
      </trkpt>
      <trkpt lat="42.213842" lon="2.528744">
        <ele>320</ele>
        <time>2019-08-19T04:55:31Z</time>
      </trkpt>
      <trkpt lat="42.21384" lon="2.52863">
        <ele>320</ele>
        <time>2019-08-19T04:55:32Z</time>
      </trkpt>
      <trkpt lat="42.213839" lon="2.528515">
        <ele>320</ele>
        <time>2019-08-19T04:55:33Z</time>
      </trkpt>
      <trkpt lat="42.213838" lon="2.528401">
        <ele>320</ele>
        <time>2019-08-19T04:55:34Z</time>
      </trkpt>
      <trkpt lat="42.21387" lon="2.528128">
        <ele>320</ele>
        <time>2019-08-19T04:55:36Z</time>
      </trkpt>
      <trkpt lat="42.213879" lon="2.528049">
        <ele>320</ele>
        <time>2019-08-19T04:55:38Z</time>
      </trkpt>
      <trkpt lat="42.213889" lon="2.527969">
        <ele>320</ele>
        <time>2019-08-19T04:55:40Z</time>
      </trkpt>
      <trkpt lat="42.213898" lon="2.52789">
        <ele>320</ele>
        <time>2019-08-19T04:55:41Z</time>
      </trkpt>
      <trkpt lat="42.213908" lon="2.527811">
        <ele>322</ele>
        <time>2019-08-19T04:55:43Z</time>
      </trkpt>
      <trkpt lat="42.213921" lon="2.527715">
        <ele>322</ele>
        <time>2019-08-19T04:55:44Z</time>
      </trkpt>
      <trkpt lat="42.213927" lon="2.527659">
        <ele>322</ele>
        <time>2019-08-19T04:55:45Z</time>
      </trkpt>
      <trkpt lat="42.213934" lon="2.527602">
        <ele>322</ele>
        <time>2019-08-19T04:55:46Z</time>
      </trkpt>
      <trkpt lat="42.21394" lon="2.527545">
        <ele>322</ele>
        <time>2019-08-19T04:55:47Z</time>
      </trkpt>
      <trkpt lat="42.213947" lon="2.527489">
        <ele>322</ele>
        <time>2019-08-19T04:55:48Z</time>
      </trkpt>
      <trkpt lat="42.213953" lon="2.527432">
        <ele>322</ele>
        <time>2019-08-19T04:55:49Z</time>
      </trkpt>
      <trkpt lat="42.21396" lon="2.527376">
        <ele>322</ele>
        <time>2019-08-19T04:55:50Z</time>
      </trkpt>
      <trkpt lat="42.213966" lon="2.527319">
        <ele>322</ele>
        <time>2019-08-19T04:55:51Z</time>
      </trkpt>
      <trkpt lat="42.213973" lon="2.527262">
        <ele>322</ele>
        <time>2019-08-19T04:55:52Z</time>
      </trkpt>
      <trkpt lat="42.213979" lon="2.527206">
        <ele>322</ele>
        <time>2019-08-19T04:55:53Z</time>
      </trkpt>
      <trkpt lat="42.213986" lon="2.527149">
        <ele>322</ele>
        <time>2019-08-19T04:55:54Z</time>
      </trkpt>
      <trkpt lat="42.213997" lon="2.526988">
        <ele>322</ele>
        <time>2019-08-19T04:55:55Z</time>
      </trkpt>
      <trkpt lat="42.214" lon="2.526916">
        <ele>322</ele>
        <time>2019-08-19T04:55:57Z</time>
      </trkpt>
      <trkpt lat="42.214004" lon="2.526845">
        <ele>322</ele>
        <time>2019-08-19T04:55:59Z</time>
      </trkpt>
      <trkpt lat="42.214008" lon="2.526773">
        <ele>322</ele>
        <time>2019-08-19T04:56:01Z</time>
      </trkpt>
      <trkpt lat="42.214011" lon="2.526702">
        <ele>322</ele>
        <time>2019-08-19T04:56:02Z</time>
      </trkpt>
      <trkpt lat="42.214015" lon="2.52663">
        <ele>323</ele>
        <time>2019-08-19T04:56:03Z</time>
      </trkpt>
      <trkpt lat="42.214006" lon="2.526548">
        <ele>323</ele>
        <time>2019-08-19T04:56:04Z</time>
      </trkpt>
      <trkpt lat="42.213997" lon="2.526492">
        <ele>323</ele>
        <time>2019-08-19T04:56:05Z</time>
      </trkpt>
      <trkpt lat="42.213989" lon="2.526435">
        <ele>323</ele>
        <time>2019-08-19T04:56:06Z</time>
      </trkpt>
      <trkpt lat="42.21398" lon="2.526379">
        <ele>323</ele>
        <time>2019-08-19T04:56:07Z</time>
      </trkpt>
      <trkpt lat="42.213972" lon="2.526323">
        <ele>323</ele>
        <time>2019-08-19T04:56:08Z</time>
      </trkpt>
      <trkpt lat="42.213963" lon="2.526267">
        <ele>323</ele>
        <time>2019-08-19T04:56:09Z</time>
      </trkpt>
      <trkpt lat="42.213955" lon="2.52621">
        <ele>323</ele>
        <time>2019-08-19T04:56:11Z</time>
      </trkpt>
      <trkpt lat="42.213946" lon="2.526154">
        <ele>323</ele>
        <time>2019-08-19T04:56:12Z</time>
      </trkpt>
      <trkpt lat="42.213938" lon="2.526098">
        <ele>325</ele>
        <time>2019-08-19T04:56:13Z</time>
      </trkpt>
      <trkpt lat="42.213915" lon="2.525988">
        <ele>325</ele>
        <time>2019-08-19T04:56:14Z</time>
      </trkpt>
      <trkpt lat="42.213904" lon="2.525933">
        <ele>325</ele>
        <time>2019-08-19T04:56:15Z</time>
      </trkpt>
      <trkpt lat="42.213893" lon="2.525879">
        <ele>325</ele>
        <time>2019-08-19T04:56:16Z</time>
      </trkpt>
      <trkpt lat="42.213882" lon="2.525824">
        <ele>325</ele>
        <time>2019-08-19T04:56:17Z</time>
      </trkpt>
      <trkpt lat="42.213872" lon="2.525769">
        <ele>325</ele>
        <time>2019-08-19T04:56:18Z</time>
      </trkpt>
      <trkpt lat="42.213861" lon="2.525714">
        <ele>325</ele>
        <time>2019-08-19T04:56:20Z</time>
      </trkpt>
      <trkpt lat="42.21385" lon="2.52566">
        <ele>325</ele>
        <time>2019-08-19T04:56:21Z</time>
      </trkpt>
      <trkpt lat="42.213839" lon="2.525605">
        <ele>325</ele>
        <time>2019-08-19T04:56:22Z</time>
      </trkpt>
      <trkpt lat="42.213828" lon="2.52555">
        <ele>326</ele>
        <time>2019-08-19T04:56:23Z</time>
      </trkpt>
      <trkpt lat="42.213807" lon="2.525445">
        <ele>326</ele>
        <time>2019-08-19T04:56:24Z</time>
      </trkpt>
      <trkpt lat="42.213797" lon="2.525394">
        <ele>326</ele>
        <time>2019-08-19T04:56:25Z</time>
      </trkpt>
      <trkpt lat="42.213787" lon="2.525342">
        <ele>326</ele>
        <time>2019-08-19T04:56:26Z</time>
      </trkpt>
      <trkpt lat="42.213777" lon="2.52529">
        <ele>326</ele>
        <time>2019-08-19T04:56:27Z</time>
      </trkpt>
      <trkpt lat="42.213767" lon="2.525238">
        <ele>326</ele>
        <time>2019-08-19T04:56:28Z</time>
      </trkpt>
      <trkpt lat="42.213756" lon="2.525187">
        <ele>326</ele>
        <time>2019-08-19T04:56:29Z</time>
      </trkpt>
      <trkpt lat="42.213746" lon="2.525135">
        <ele>326</ele>
        <time>2019-08-19T04:56:30Z</time>
      </trkpt>
      <trkpt lat="42.213736" lon="2.525083">
        <ele>326</ele>
        <time>2019-08-19T04:56:31Z</time>
      </trkpt>
      <trkpt lat="42.213726" lon="2.525032">
        <ele>326</ele>
        <time>2019-08-19T04:56:32Z</time>
      </trkpt>
      <trkpt lat="42.213716" lon="2.52498">
        <ele>327</ele>
        <time>2019-08-19T04:56:33Z</time>
      </trkpt>
      <trkpt lat="42.213694" lon="2.524854">
        <ele>327</ele>
        <time>2019-08-19T04:56:34Z</time>
      </trkpt>
      <trkpt lat="42.213682" lon="2.524789">
        <ele>327</ele>
        <time>2019-08-19T04:56:35Z</time>
      </trkpt>
      <trkpt lat="42.21367" lon="2.524723">
        <ele>327</ele>
        <time>2019-08-19T04:56:37Z</time>
      </trkpt>
      <trkpt lat="42.213658" lon="2.524657">
        <ele>327</ele>
        <time>2019-08-19T04:56:38Z</time>
      </trkpt>
      <trkpt lat="42.213647" lon="2.524592">
        <ele>327</ele>
        <time>2019-08-19T04:56:39Z</time>
      </trkpt>
      <trkpt lat="42.213635" lon="2.524526">
        <ele>327</ele>
        <time>2019-08-19T04:56:40Z</time>
      </trkpt>
      <trkpt lat="42.213623" lon="2.52446">
        <ele>327</ele>
        <time>2019-08-19T04:56:41Z</time>
      </trkpt>
      <trkpt lat="42.213611" lon="2.524395">
        <ele>327</ele>
        <time>2019-08-19T04:56:42Z</time>
      </trkpt>
      <trkpt lat="42.213599" lon="2.524329">
        <ele>327</ele>
        <time>2019-08-19T04:56:43Z</time>
      </trkpt>
      <trkpt lat="42.213575" lon="2.524199">
        <ele>327</ele>
        <time>2019-08-19T04:56:44Z</time>
      </trkpt>
      <trkpt lat="42.213564" lon="2.524137">
        <ele>327</ele>
        <time>2019-08-19T04:56:45Z</time>
      </trkpt>
      <trkpt lat="42.213554" lon="2.524076">
        <ele>327</ele>
        <time>2019-08-19T04:56:46Z</time>
      </trkpt>
      <trkpt lat="42.213543" lon="2.524015">
        <ele>327</ele>
        <time>2019-08-19T04:56:47Z</time>
      </trkpt>
      <trkpt lat="42.213533" lon="2.523953">
        <ele>327</ele>
        <time>2019-08-19T04:56:48Z</time>
      </trkpt>
      <trkpt lat="42.213523" lon="2.523892">
        <ele>327</ele>
        <time>2019-08-19T04:56:49Z</time>
      </trkpt>
      <trkpt lat="42.213512" lon="2.523831">
        <ele>327</ele>
        <time>2019-08-19T04:56:50Z</time>
      </trkpt>
      <trkpt lat="42.213502" lon="2.52377">
        <ele>327</ele>
        <time>2019-08-19T04:56:51Z</time>
      </trkpt>
      <trkpt lat="42.213491" lon="2.523708">
        <ele>327</ele>
        <time>2019-08-19T04:56:52Z</time>
      </trkpt>
      <trkpt lat="42.213481" lon="2.523647">
        <ele>327</ele>
        <time>2019-08-19T04:56:53Z</time>
      </trkpt>
      <trkpt lat="42.21346" lon="2.523515">
        <ele>327</ele>
        <time>2019-08-19T04:56:54Z</time>
      </trkpt>
      <trkpt lat="42.213449" lon="2.523451">
        <ele>327</ele>
        <time>2019-08-19T04:56:55Z</time>
      </trkpt>
      <trkpt lat="42.213439" lon="2.523386">
        <ele>327</ele>
        <time>2019-08-19T04:56:56Z</time>
      </trkpt>
      <trkpt lat="42.213428" lon="2.523322">
        <ele>327</ele>
        <time>2019-08-19T04:56:57Z</time>
      </trkpt>
      <trkpt lat="42.213418" lon="2.523257">
        <ele>327</ele>
        <time>2019-08-19T04:56:58Z</time>
      </trkpt>
      <trkpt lat="42.213407" lon="2.523192">
        <ele>327</ele>
        <time>2019-08-19T04:56:59Z</time>
      </trkpt>
      <trkpt lat="42.213397" lon="2.523128">
        <ele>327</ele>
        <time>2019-08-19T04:57:00Z</time>
      </trkpt>
      <trkpt lat="42.213386" lon="2.523063">
        <ele>327</ele>
        <time>2019-08-19T04:57:01Z</time>
      </trkpt>
      <trkpt lat="42.213376" lon="2.522999">
        <ele>327</ele>
        <time>2019-08-19T04:57:02Z</time>
      </trkpt>
      <trkpt lat="42.213365" lon="2.522934">
        <ele>328</ele>
        <time>2019-08-19T04:57:03Z</time>
      </trkpt>
      <trkpt lat="42.213337" lon="2.522759">
        <ele>328</ele>
        <time>2019-08-19T04:57:04Z</time>
      </trkpt>
      <trkpt lat="42.213323" lon="2.522692">
        <ele>328</ele>
        <time>2019-08-19T04:57:06Z</time>
      </trkpt>
      <trkpt lat="42.21331" lon="2.522624">
        <ele>328</ele>
        <time>2019-08-19T04:57:07Z</time>
      </trkpt>
      <trkpt lat="42.213297" lon="2.522556">
        <ele>328</ele>
        <time>2019-08-19T04:57:08Z</time>
      </trkpt>
      <trkpt lat="42.213283" lon="2.522489">
        <ele>328</ele>
        <time>2019-08-19T04:57:09Z</time>
      </trkpt>
      <trkpt lat="42.21327" lon="2.522421">
        <ele>328</ele>
        <time>2019-08-19T04:57:10Z</time>
      </trkpt>
      <trkpt lat="42.213257" lon="2.522353">
        <ele>328</ele>
        <time>2019-08-19T04:57:11Z</time>
      </trkpt>
      <trkpt lat="42.213243" lon="2.522286">
        <ele>328</ele>
        <time>2019-08-19T04:57:12Z</time>
      </trkpt>
      <trkpt lat="42.21323" lon="2.522218">
        <ele>329</ele>
        <time>2019-08-19T04:57:13Z</time>
      </trkpt>
      <trkpt lat="42.213195" lon="2.522057">
        <ele>329</ele>
        <time>2019-08-19T04:57:14Z</time>
      </trkpt>
      <trkpt lat="42.213179" lon="2.521977">
        <ele>329</ele>
        <time>2019-08-19T04:57:15Z</time>
      </trkpt>
      <trkpt lat="42.213163" lon="2.521896">
        <ele>329</ele>
        <time>2019-08-19T04:57:16Z</time>
      </trkpt>
      <trkpt lat="42.213147" lon="2.521816">
        <ele>329</ele>
        <time>2019-08-19T04:57:17Z</time>
      </trkpt>
      <trkpt lat="42.213132" lon="2.521735">
        <ele>329</ele>
        <time>2019-08-19T04:57:18Z</time>
      </trkpt>
      <trkpt lat="42.213116" lon="2.521655">
        <ele>329</ele>
        <time>2019-08-19T04:57:20Z</time>
      </trkpt>
      <trkpt lat="42.2131" lon="2.521574">
        <ele>329</ele>
        <time>2019-08-19T04:57:21Z</time>
      </trkpt>
      <trkpt lat="42.213084" lon="2.521494">
        <ele>329</ele>
        <time>2019-08-19T04:57:22Z</time>
      </trkpt>
      <trkpt lat="42.213068" lon="2.521413">
        <ele>329</ele>
        <time>2019-08-19T04:57:23Z</time>
      </trkpt>
      <trkpt lat="42.213048" lon="2.521299">
        <ele>329</ele>
        <time>2019-08-19T04:57:24Z</time>
      </trkpt>
      <trkpt lat="42.213033" lon="2.521223">
        <ele>329</ele>
        <time>2019-08-19T04:57:25Z</time>
      </trkpt>
      <trkpt lat="42.213019" lon="2.521148">
        <ele>329</ele>
        <time>2019-08-19T04:57:26Z</time>
      </trkpt>
      <trkpt lat="42.213004" lon="2.521072">
        <ele>329</ele>
        <time>2019-08-19T04:57:27Z</time>
      </trkpt>
      <trkpt lat="42.21299" lon="2.520996">
        <ele>329</ele>
        <time>2019-08-19T04:57:28Z</time>
      </trkpt>
      <trkpt lat="42.212975" lon="2.52092">
        <ele>329</ele>
        <time>2019-08-19T04:57:29Z</time>
      </trkpt>
      <trkpt lat="42.212961" lon="2.520844">
        <ele>329</ele>
        <time>2019-08-19T04:57:30Z</time>
      </trkpt>
      <trkpt lat="42.212946" lon="2.520768">
        <ele>329</ele>
        <time>2019-08-19T04:57:31Z</time>
      </trkpt>
      <trkpt lat="42.212932" lon="2.520693">
        <ele>329</ele>
        <time>2019-08-19T04:57:32Z</time>
      </trkpt>
      <trkpt lat="42.212917" lon="2.520617">
        <ele>329</ele>
        <time>2019-08-19T04:57:33Z</time>
      </trkpt>
      <trkpt lat="42.212903" lon="2.520541">
        <ele>328</ele>
        <time>2019-08-19T04:57:34Z</time>
      </trkpt>
      <trkpt lat="42.212867" lon="2.520348">
        <ele>328</ele>
        <time>2019-08-19T04:57:35Z</time>
      </trkpt>
      <trkpt lat="42.212853" lon="2.520275">
        <ele>328</ele>
        <time>2019-08-19T04:57:36Z</time>
      </trkpt>
      <trkpt lat="42.212839" lon="2.520203">
        <ele>328</ele>
        <time>2019-08-19T04:57:37Z</time>
      </trkpt>
      <trkpt lat="42.212825" lon="2.52013">
        <ele>328</ele>
        <time>2019-08-19T04:57:38Z</time>
      </trkpt>
      <trkpt lat="42.21281" lon="2.520058">
        <ele>328</ele>
        <time>2019-08-19T04:57:39Z</time>
      </trkpt>
      <trkpt lat="42.212796" lon="2.519986">
        <ele>328</ele>
        <time>2019-08-19T04:57:40Z</time>
      </trkpt>
      <trkpt lat="42.212782" lon="2.519913">
        <ele>328</ele>
        <time>2019-08-19T04:57:41Z</time>
      </trkpt>
      <trkpt lat="42.212768" lon="2.519841">
        <ele>327</ele>
        <time>2019-08-19T04:57:43Z</time>
      </trkpt>
      <trkpt lat="42.212746" lon="2.51972">
        <ele>327</ele>
        <time>2019-08-19T04:57:44Z</time>
      </trkpt>
      <trkpt lat="42.212735" lon="2.51965">
        <ele>327</ele>
        <time>2019-08-19T04:57:45Z</time>
      </trkpt>
      <trkpt lat="42.212723" lon="2.519581">
        <ele>327</ele>
        <time>2019-08-19T04:57:46Z</time>
      </trkpt>
      <trkpt lat="42.212711" lon="2.519512">
        <ele>327</ele>
        <time>2019-08-19T04:57:47Z</time>
      </trkpt>
      <trkpt lat="42.2127" lon="2.519442">
        <ele>327</ele>
        <time>2019-08-19T04:57:48Z</time>
      </trkpt>
      <trkpt lat="42.212688" lon="2.519373">
        <ele>327</ele>
        <time>2019-08-19T04:57:49Z</time>
      </trkpt>
      <trkpt lat="42.212676" lon="2.519304">
        <ele>327</ele>
        <time>2019-08-19T04:57:50Z</time>
      </trkpt>
      <trkpt lat="42.212664" lon="2.519235">
        <ele>327</ele>
        <time>2019-08-19T04:57:51Z</time>
      </trkpt>
      <trkpt lat="42.212653" lon="2.519165">
        <ele>327</ele>
        <time>2019-08-19T04:57:52Z</time>
      </trkpt>
      <trkpt lat="42.212641" lon="2.519096">
        <ele>326</ele>
        <time>2019-08-19T04:57:53Z</time>
      </trkpt>
      <trkpt lat="42.212616" lon="2.518932">
        <ele>326</ele>
        <time>2019-08-19T04:57:54Z</time>
      </trkpt>
      <trkpt lat="42.212606" lon="2.518849">
        <ele>326</ele>
        <time>2019-08-19T04:57:55Z</time>
      </trkpt>
      <trkpt lat="42.212595" lon="2.518765">
        <ele>326</ele>
        <time>2019-08-19T04:57:56Z</time>
      </trkpt>
      <trkpt lat="42.212585" lon="2.518682">
        <ele>326</ele>
        <time>2019-08-19T04:57:57Z</time>
      </trkpt>
      <trkpt lat="42.212574" lon="2.518598">
        <ele>326</ele>
        <time>2019-08-19T04:57:58Z</time>
      </trkpt>
      <trkpt lat="42.212563" lon="2.518515">
        <ele>326</ele>
        <time>2019-08-19T04:57:59Z</time>
      </trkpt>
      <trkpt lat="42.212553" lon="2.518431">
        <ele>326</ele>
        <time>2019-08-19T04:58:00Z</time>
      </trkpt>
      <trkpt lat="42.212542" lon="2.518348">
        <ele>326</ele>
        <time>2019-08-19T04:58:01Z</time>
      </trkpt>
      <trkpt lat="42.212532" lon="2.518264">
        <ele>326</ele>
        <time>2019-08-19T04:58:02Z</time>
      </trkpt>
      <trkpt lat="42.212521" lon="2.518181">
        <ele>327</ele>
        <time>2019-08-19T04:58:03Z</time>
      </trkpt>
      <trkpt lat="42.212513" lon="2.518026">
        <ele>327</ele>
        <time>2019-08-19T04:58:04Z</time>
      </trkpt>
      <trkpt lat="42.212511" lon="2.517957">
        <ele>327</ele>
        <time>2019-08-19T04:58:06Z</time>
      </trkpt>
      <trkpt lat="42.212509" lon="2.517887">
        <ele>327</ele>
        <time>2019-08-19T04:58:07Z</time>
      </trkpt>
      <trkpt lat="42.212507" lon="2.517818">
        <ele>327</ele>
        <time>2019-08-19T04:58:08Z</time>
      </trkpt>
      <trkpt lat="42.212505" lon="2.517748">
        <ele>327</ele>
        <time>2019-08-19T04:58:09Z</time>
      </trkpt>
      <trkpt lat="42.212503" lon="2.517679">
        <ele>327</ele>
        <time>2019-08-19T04:58:10Z</time>
      </trkpt>
      <trkpt lat="42.212501" lon="2.517609">
        <ele>327</ele>
        <time>2019-08-19T04:58:11Z</time>
      </trkpt>
      <trkpt lat="42.212499" lon="2.51754">
        <ele>327</ele>
        <time>2019-08-19T04:58:12Z</time>
      </trkpt>
      <trkpt lat="42.212497" lon="2.51747">
        <ele>327</ele>
        <time>2019-08-19T04:58:13Z</time>
      </trkpt>
      <trkpt lat="42.212497" lon="2.517267">
        <ele>327</ele>
        <time>2019-08-19T04:58:15Z</time>
      </trkpt>
      <trkpt lat="42.212498" lon="2.517209">
        <ele>327</ele>
        <time>2019-08-19T04:58:16Z</time>
      </trkpt>
      <trkpt lat="42.212498" lon="2.517151">
        <ele>327</ele>
        <time>2019-08-19T04:58:18Z</time>
      </trkpt>
      <trkpt lat="42.212499" lon="2.517094">
        <ele>327</ele>
        <time>2019-08-19T04:58:19Z</time>
      </trkpt>
      <trkpt lat="42.212499" lon="2.517036">
        <ele>327</ele>
        <time>2019-08-19T04:58:20Z</time>
      </trkpt>
      <trkpt lat="42.212499" lon="2.516978">
        <ele>327</ele>
        <time>2019-08-19T04:58:21Z</time>
      </trkpt>
      <trkpt lat="42.2125" lon="2.51692">
        <ele>327</ele>
        <time>2019-08-19T04:58:22Z</time>
      </trkpt>
      <trkpt lat="42.2125" lon="2.516862">
        <ele>327</ele>
        <time>2019-08-19T04:58:23Z</time>
      </trkpt>
      <trkpt lat="42.212499" lon="2.516772">
        <ele>327</ele>
        <time>2019-08-19T04:58:24Z</time>
      </trkpt>
      <trkpt lat="42.212498" lon="2.516732">
        <ele>327</ele>
        <time>2019-08-19T04:58:25Z</time>
      </trkpt>
      <trkpt lat="42.212498" lon="2.516692">
        <ele>327</ele>
        <time>2019-08-19T04:58:26Z</time>
      </trkpt>
      <trkpt lat="42.212497" lon="2.516652">
        <ele>327</ele>
        <time>2019-08-19T04:58:27Z</time>
      </trkpt>
      <trkpt lat="42.212497" lon="2.516612">
        <ele>327</ele>
        <time>2019-08-19T04:58:28Z</time>
      </trkpt>
      <trkpt lat="42.212497" lon="2.516572">
        <ele>327</ele>
        <time>2019-08-19T04:58:29Z</time>
      </trkpt>
      <trkpt lat="42.212496" lon="2.516532">
        <ele>327</ele>
        <time>2019-08-19T04:58:30Z</time>
      </trkpt>
      <trkpt lat="42.212496" lon="2.516492">
        <ele>327</ele>
        <time>2019-08-19T04:58:31Z</time>
      </trkpt>
      <trkpt lat="42.212495" lon="2.516452">
        <ele>327</ele>
        <time>2019-08-19T04:58:32Z</time>
      </trkpt>
      <trkpt lat="42.212495" lon="2.516412">
        <ele>329</ele>
        <time>2019-08-19T04:58:33Z</time>
      </trkpt>
      <trkpt lat="42.212495" lon="2.516331">
        <ele>329</ele>
        <time>2019-08-19T04:58:34Z</time>
      </trkpt>
      <trkpt lat="42.212496" lon="2.516294">
        <ele>329</ele>
        <time>2019-08-19T04:58:35Z</time>
      </trkpt>
      <trkpt lat="42.212496" lon="2.516257">
        <ele>329</ele>
        <time>2019-08-19T04:58:36Z</time>
      </trkpt>
      <trkpt lat="42.212497" lon="2.51622">
        <ele>329</ele>
        <time>2019-08-19T04:58:37Z</time>
      </trkpt>
      <trkpt lat="42.212497" lon="2.516183">
        <ele>329</ele>
        <time>2019-08-19T04:58:38Z</time>
      </trkpt>
      <trkpt lat="42.212497" lon="2.516145">
        <ele>329</ele>
        <time>2019-08-19T04:58:39Z</time>
      </trkpt>
      <trkpt lat="42.212498" lon="2.516108">
        <ele>329</ele>
        <time>2019-08-19T04:58:40Z</time>
      </trkpt>
      <trkpt lat="42.212498" lon="2.516071">
        <ele>329</ele>
        <time>2019-08-19T04:58:41Z</time>
      </trkpt>
      <trkpt lat="42.212499" lon="2.516034">
        <ele>329</ele>
        <time>2019-08-19T04:58:42Z</time>
      </trkpt>
      <trkpt lat="42.212499" lon="2.515997">
        <ele>331</ele>
        <time>2019-08-19T04:58:43Z</time>
      </trkpt>
      <trkpt lat="42.212496" lon="2.515913">
        <ele>331</ele>
        <time>2019-08-19T04:58:44Z</time>
      </trkpt>
      <trkpt lat="42.212494" lon="2.51587">
        <ele>331</ele>
        <time>2019-08-19T04:58:45Z</time>
      </trkpt>
      <trkpt lat="42.212493" lon="2.515828">
        <ele>331</ele>
        <time>2019-08-19T04:58:46Z</time>
      </trkpt>
      <trkpt lat="42.212491" lon="2.515785">
        <ele>331</ele>
        <time>2019-08-19T04:58:47Z</time>
      </trkpt>
      <trkpt lat="42.21249" lon="2.515742">
        <ele>331</ele>
        <time>2019-08-19T04:58:49Z</time>
      </trkpt>
      <trkpt lat="42.212488" lon="2.515699">
        <ele>331</ele>
        <time>2019-08-19T04:58:50Z</time>
      </trkpt>
      <trkpt lat="42.212487" lon="2.515657">
        <ele>331</ele>
        <time>2019-08-19T04:58:51Z</time>
      </trkpt>
      <trkpt lat="42.212485" lon="2.515614">
        <ele>331</ele>
        <time>2019-08-19T04:58:52Z</time>
      </trkpt>
      <trkpt lat="42.212484" lon="2.515571">
        <ele>334</ele>
        <time>2019-08-19T04:58:53Z</time>
      </trkpt>
      <trkpt lat="42.212483" lon="2.515485">
        <ele>334</ele>
        <time>2019-08-19T04:58:54Z</time>
      </trkpt>
      <trkpt lat="42.212483" lon="2.515442">
        <ele>334</ele>
        <time>2019-08-19T04:58:55Z</time>
      </trkpt>
      <trkpt lat="42.212483" lon="2.515399">
        <ele>334</ele>
        <time>2019-08-19T04:58:56Z</time>
      </trkpt>
      <trkpt lat="42.212483" lon="2.515356">
        <ele>334</ele>
        <time>2019-08-19T04:58:57Z</time>
      </trkpt>
      <trkpt lat="42.212483" lon="2.515313">
        <ele>334</ele>
        <time>2019-08-19T04:58:58Z</time>
      </trkpt>
      <trkpt lat="42.212484" lon="2.515271">
        <ele>334</ele>
        <time>2019-08-19T04:58:59Z</time>
      </trkpt>
      <trkpt lat="42.212484" lon="2.515228">
        <ele>334</ele>
        <time>2019-08-19T04:59:00Z</time>
      </trkpt>
      <trkpt lat="42.212484" lon="2.515185">
        <ele>334</ele>
        <time>2019-08-19T04:59:01Z</time>
      </trkpt>
      <trkpt lat="42.212484" lon="2.515142">
        <ele>334</ele>
        <time>2019-08-19T04:59:02Z</time>
      </trkpt>
      <trkpt lat="42.212484" lon="2.515099">
        <ele>334</ele>
        <time>2019-08-19T04:59:03Z</time>
      </trkpt>
      <trkpt lat="42.212484" lon="2.515056">
        <ele>334</ele>
        <time>2019-08-19T04:59:04Z</time>
      </trkpt>
      <trkpt lat="42.212485" lon="2.514948">
        <ele>334</ele>
        <time>2019-08-19T04:59:05Z</time>
      </trkpt>
      <trkpt lat="42.212484" lon="2.514907">
        <ele>334</ele>
        <time>2019-08-19T04:59:06Z</time>
      </trkpt>
      <trkpt lat="42.212484" lon="2.514866">
        <ele>334</ele>
        <time>2019-08-19T04:59:07Z</time>
      </trkpt>
      <trkpt lat="42.212484" lon="2.514825">
        <ele>334</ele>
        <time>2019-08-19T04:59:08Z</time>
      </trkpt>
      <trkpt lat="42.212483" lon="2.514785">
        <ele>334</ele>
        <time>2019-08-19T04:59:09Z</time>
      </trkpt>
      <trkpt lat="42.212483" lon="2.514744">
        <ele>334</ele>
        <time>2019-08-19T04:59:10Z</time>
      </trkpt>
      <trkpt lat="42.212483" lon="2.514703">
        <ele>334</ele>
        <time>2019-08-19T04:59:11Z</time>
      </trkpt>
      <trkpt lat="42.212482" lon="2.514662">
        <ele>334</ele>
        <time>2019-08-19T04:59:12Z</time>
      </trkpt>
      <trkpt lat="42.212482" lon="2.514621">
        <ele>335</ele>
        <time>2019-08-19T04:59:13Z</time>
      </trkpt>
      <trkpt lat="42.21248" lon="2.514524">
        <ele>335</ele>
        <time>2019-08-19T04:59:14Z</time>
      </trkpt>
      <trkpt lat="42.21248" lon="2.514472">
        <ele>335</ele>
        <time>2019-08-19T04:59:15Z</time>
      </trkpt>
      <trkpt lat="42.212479" lon="2.514421">
        <ele>335</ele>
        <time>2019-08-19T04:59:16Z</time>
      </trkpt>
      <trkpt lat="42.212479" lon="2.51437">
        <ele>335</ele>
        <time>2019-08-19T04:59:18Z</time>
      </trkpt>
      <trkpt lat="42.212478" lon="2.514319">
        <ele>335</ele>
        <time>2019-08-19T04:59:20Z</time>
      </trkpt>
      <trkpt lat="42.212478" lon="2.514267">
        <ele>335</ele>
        <time>2019-08-19T04:59:22Z</time>
      </trkpt>
      <trkpt lat="42.212477" lon="2.514216">
        <ele>336</ele>
        <time>2019-08-19T04:59:23Z</time>
      </trkpt>
      <trkpt lat="42.212478" lon="2.514131">
        <ele>336</ele>
        <time>2019-08-19T04:59:24Z</time>
      </trkpt>
      <trkpt lat="42.212479" lon="2.514091">
        <ele>336</ele>
        <time>2019-08-19T04:59:25Z</time>
      </trkpt>
      <trkpt lat="42.212479" lon="2.514051">
        <ele>336</ele>
        <time>2019-08-19T04:59:26Z</time>
      </trkpt>
      <trkpt lat="42.21248" lon="2.514011">
        <ele>336</ele>
        <time>2019-08-19T04:59:27Z</time>
      </trkpt>
      <trkpt lat="42.21248" lon="2.513972">
        <ele>336</ele>
        <time>2019-08-19T04:59:28Z</time>
      </trkpt>
      <trkpt lat="42.21248" lon="2.513932">
        <ele>336</ele>
        <time>2019-08-19T04:59:29Z</time>
      </trkpt>
      <trkpt lat="42.212481" lon="2.513892">
        <ele>336</ele>
        <time>2019-08-19T04:59:30Z</time>
      </trkpt>
      <trkpt lat="42.212481" lon="2.513852">
        <ele>336</ele>
        <time>2019-08-19T04:59:31Z</time>
      </trkpt>
      <trkpt lat="42.212482" lon="2.513812">
        <ele>336</ele>
        <time>2019-08-19T04:59:32Z</time>
      </trkpt>
      <trkpt lat="42.212482" lon="2.513772">
        <ele>337</ele>
        <time>2019-08-19T04:59:33Z</time>
      </trkpt>
      <trkpt lat="42.212481" lon="2.513685">
        <ele>337</ele>
        <time>2019-08-19T04:59:34Z</time>
      </trkpt>
      <trkpt lat="42.212482" lon="2.513643">
        <ele>337</ele>
        <time>2019-08-19T04:59:35Z</time>
      </trkpt>
      <trkpt lat="42.212482" lon="2.5136">
        <ele>337</ele>
        <time>2019-08-19T04:59:36Z</time>
      </trkpt>
      <trkpt lat="42.212482" lon="2.513557">
        <ele>337</ele>
        <time>2019-08-19T04:59:37Z</time>
      </trkpt>
      <trkpt lat="42.212483" lon="2.513515">
        <ele>337</ele>
        <time>2019-08-19T04:59:38Z</time>
      </trkpt>
      <trkpt lat="42.212483" lon="2.513472">
        <ele>337</ele>
        <time>2019-08-19T04:59:39Z</time>
      </trkpt>
      <trkpt lat="42.212484" lon="2.51343">
        <ele>337</ele>
        <time>2019-08-19T04:59:40Z</time>
      </trkpt>
      <trkpt lat="42.212484" lon="2.513387">
        <ele>337</ele>
        <time>2019-08-19T04:59:41Z</time>
      </trkpt>
      <trkpt lat="42.212484" lon="2.513344">
        <ele>337</ele>
        <time>2019-08-19T04:59:42Z</time>
      </trkpt>
      <trkpt lat="42.212485" lon="2.513302">
        <ele>337</ele>
        <time>2019-08-19T04:59:43Z</time>
      </trkpt>
      <trkpt lat="42.212485" lon="2.513259">
        <ele>338</ele>
        <time>2019-08-19T04:59:44Z</time>
      </trkpt>
      <trkpt lat="42.212481" lon="2.513143">
        <ele>338</ele>
        <time>2019-08-19T04:59:45Z</time>
      </trkpt>
      <trkpt lat="42.212479" lon="2.513094">
        <ele>338</ele>
        <time>2019-08-19T04:59:46Z</time>
      </trkpt>
      <trkpt lat="42.212477" lon="2.513045">
        <ele>338</ele>
        <time>2019-08-19T04:59:47Z</time>
      </trkpt>
      <trkpt lat="42.212476" lon="2.512996">
        <ele>338</ele>
        <time>2019-08-19T04:59:49Z</time>
      </trkpt>
      <trkpt lat="42.212474" lon="2.512947">
        <ele>338</ele>
        <time>2019-08-19T04:59:51Z</time>
      </trkpt>
      <trkpt lat="42.212472" lon="2.512898">
        <ele>338</ele>
        <time>2019-08-19T04:59:52Z</time>
      </trkpt>
      <trkpt lat="42.21247" lon="2.512849">
        <ele>339</ele>
        <time>2019-08-19T04:59:53Z</time>
      </trkpt>
      <trkpt lat="42.212467" lon="2.512783">
        <ele>339</ele>
        <time>2019-08-19T04:59:54Z</time>
      </trkpt>
      <trkpt lat="42.212467" lon="2.512741">
        <ele>339</ele>
        <time>2019-08-19T04:59:55Z</time>
      </trkpt>
      <trkpt lat="42.212466" lon="2.512698">
        <ele>339</ele>
        <time>2019-08-19T04:59:56Z</time>
      </trkpt>
      <trkpt lat="42.212465" lon="2.512656">
        <ele>339</ele>
        <time>2019-08-19T04:59:57Z</time>
      </trkpt>
      <trkpt lat="42.212465" lon="2.512613">
        <ele>339</ele>
        <time>2019-08-19T04:59:58Z</time>
      </trkpt>
      <trkpt lat="42.212464" lon="2.51257">
        <ele>339</ele>
        <time>2019-08-19T04:59:59Z</time>
      </trkpt>
      <trkpt lat="42.212463" lon="2.512528">
        <ele>339</ele>
        <time>2019-08-19T05:00:00Z</time>
      </trkpt>
      <trkpt lat="42.212462" lon="2.512485">
        <ele>339</ele>
        <time>2019-08-19T05:00:01Z</time>
      </trkpt>
      <trkpt lat="42.212462" lon="2.512443">
        <ele>339</ele>
        <time>2019-08-19T05:00:02Z</time>
      </trkpt>
      <trkpt lat="42.212461" lon="2.5124">
        <ele>339</ele>
        <time>2019-08-19T05:00:03Z</time>
      </trkpt>
      <trkpt lat="42.212462" lon="2.512301">
        <ele>339</ele>
        <time>2019-08-19T05:00:04Z</time>
      </trkpt>
      <trkpt lat="42.212461" lon="2.51225">
        <ele>339</ele>
        <time>2019-08-19T05:00:05Z</time>
      </trkpt>
      <trkpt lat="42.212461" lon="2.512198">
        <ele>339</ele>
        <time>2019-08-19T05:00:06Z</time>
      </trkpt>
      <trkpt lat="42.21246" lon="2.512146">
        <ele>339</ele>
        <time>2019-08-19T05:00:07Z</time>
      </trkpt>
      <trkpt lat="42.21246" lon="2.512095">
        <ele>339</ele>
        <time>2019-08-19T05:00:08Z</time>
      </trkpt>
      <trkpt lat="42.212459" lon="2.512043">
        <ele>339</ele>
        <time>2019-08-19T05:00:09Z</time>
      </trkpt>
      <trkpt lat="42.212459" lon="2.511991">
        <ele>339</ele>
        <time>2019-08-19T05:00:10Z</time>
      </trkpt>
      <trkpt lat="42.212458" lon="2.51194">
        <ele>339</ele>
        <time>2019-08-19T05:00:11Z</time>
      </trkpt>
      <trkpt lat="42.212458" lon="2.511888">
        <ele>340</ele>
        <time>2019-08-19T05:00:13Z</time>
      </trkpt>
      <trkpt lat="42.212452" lon="2.511729">
        <ele>340</ele>
        <time>2019-08-19T05:00:14Z</time>
      </trkpt>
      <trkpt lat="42.212447" lon="2.51168">
        <ele>340</ele>
        <time>2019-08-19T05:00:16Z</time>
      </trkpt>
      <trkpt lat="42.212443" lon="2.51163">
        <ele>340</ele>
        <time>2019-08-19T05:00:17Z</time>
      </trkpt>
      <trkpt lat="42.212439" lon="2.511581">
        <ele>340</ele>
        <time>2019-08-19T05:00:18Z</time>
      </trkpt>
      <trkpt lat="42.212434" lon="2.511532">
        <ele>340</ele>
        <time>2019-08-19T05:00:19Z</time>
      </trkpt>
      <trkpt lat="42.21243" lon="2.511483">
        <ele>340</ele>
        <time>2019-08-19T05:00:20Z</time>
      </trkpt>
      <trkpt lat="42.212426" lon="2.511433">
        <ele>340</ele>
        <time>2019-08-19T05:00:21Z</time>
      </trkpt>
      <trkpt lat="42.212421" lon="2.511384">
        <ele>340</ele>
        <time>2019-08-19T05:00:22Z</time>
      </trkpt>
      <trkpt lat="42.212417" lon="2.511335">
        <ele>341</ele>
        <time>2019-08-19T05:00:23Z</time>
      </trkpt>
      <trkpt lat="42.212368" lon="2.511212">
        <ele>341</ele>
        <time>2019-08-19T05:00:24Z</time>
      </trkpt>
      <trkpt lat="42.212338" lon="2.511146">
        <ele>341</ele>
        <time>2019-08-19T05:00:25Z</time>
      </trkpt>
      <trkpt lat="42.212309" lon="2.51108">
        <ele>341</ele>
        <time>2019-08-19T05:00:26Z</time>
      </trkpt>
      <trkpt lat="42.212279" lon="2.511014">
        <ele>341</ele>
        <time>2019-08-19T05:00:27Z</time>
      </trkpt>
      <trkpt lat="42.212249" lon="2.510949">
        <ele>341</ele>
        <time>2019-08-19T05:00:28Z</time>
      </trkpt>
      <trkpt lat="42.212219" lon="2.510883">
        <ele>341</ele>
        <time>2019-08-19T05:00:30Z</time>
      </trkpt>
      <trkpt lat="42.21219" lon="2.510817">
        <ele>341</ele>
        <time>2019-08-19T05:00:31Z</time>
      </trkpt>
      <trkpt lat="42.21216" lon="2.510751">
        <ele>341</ele>
        <time>2019-08-19T05:00:32Z</time>
      </trkpt>
      <trkpt lat="42.21213" lon="2.510685">
        <ele>341</ele>
        <time>2019-08-19T05:00:33Z</time>
      </trkpt>
      <trkpt lat="42.212055" lon="2.510531">
        <ele>341</ele>
        <time>2019-08-19T05:00:34Z</time>
      </trkpt>
      <trkpt lat="42.212028" lon="2.510472">
        <ele>341</ele>
        <time>2019-08-19T05:00:35Z</time>
      </trkpt>
      <trkpt lat="42.212001" lon="2.510414">
        <ele>341</ele>
        <time>2019-08-19T05:00:36Z</time>
      </trkpt>
      <trkpt lat="42.211974" lon="2.510355">
        <ele>341</ele>
        <time>2019-08-19T05:00:37Z</time>
      </trkpt>
      <trkpt lat="42.211946" lon="2.510297">
        <ele>341</ele>
        <time>2019-08-19T05:00:38Z</time>
      </trkpt>
      <trkpt lat="42.211919" lon="2.510239">
        <ele>341</ele>
        <time>2019-08-19T05:00:40Z</time>
      </trkpt>
      <trkpt lat="42.211892" lon="2.51018">
        <ele>341</ele>
        <time>2019-08-19T05:00:42Z</time>
      </trkpt>
      <trkpt lat="42.211865" lon="2.510122">
        <ele>339</ele>
        <time>2019-08-19T05:00:43Z</time>
      </trkpt>
      <trkpt lat="42.21182" lon="2.510022">
        <ele>339</ele>
        <time>2019-08-19T05:00:44Z</time>
      </trkpt>
      <trkpt lat="42.2118" lon="2.509977">
        <ele>339</ele>
        <time>2019-08-19T05:00:45Z</time>
      </trkpt>
      <trkpt lat="42.21178" lon="2.509931">
        <ele>339</ele>
        <time>2019-08-19T05:00:46Z</time>
      </trkpt>
      <trkpt lat="42.21176" lon="2.509886">
        <ele>339</ele>
        <time>2019-08-19T05:00:47Z</time>
      </trkpt>
      <trkpt lat="42.211741" lon="2.509841">
        <ele>339</ele>
        <time>2019-08-19T05:00:48Z</time>
      </trkpt>
      <trkpt lat="42.211721" lon="2.509796">
        <ele>339</ele>
        <time>2019-08-19T05:00:49Z</time>
      </trkpt>
      <trkpt lat="42.211701" lon="2.509751">
        <ele>339</ele>
        <time>2019-08-19T05:00:50Z</time>
      </trkpt>
      <trkpt lat="42.211681" lon="2.509705">
        <ele>339</ele>
        <time>2019-08-19T05:00:51Z</time>
      </trkpt>
      <trkpt lat="42.211661" lon="2.50966">
        <ele>339</ele>
        <time>2019-08-19T05:00:52Z</time>
      </trkpt>
      <trkpt lat="42.211641" lon="2.509615">
        <ele>339</ele>
        <time>2019-08-19T05:00:53Z</time>
      </trkpt>
      <trkpt lat="42.211593" lon="2.509514">
        <ele>339</ele>
        <time>2019-08-19T05:00:54Z</time>
      </trkpt>
      <trkpt lat="42.211569" lon="2.509461">
        <ele>339</ele>
        <time>2019-08-19T05:00:55Z</time>
      </trkpt>
      <trkpt lat="42.211544" lon="2.509407">
        <ele>339</ele>
        <time>2019-08-19T05:00:56Z</time>
      </trkpt>
      <trkpt lat="42.211519" lon="2.509353">
        <ele>339</ele>
        <time>2019-08-19T05:00:57Z</time>
      </trkpt>
      <trkpt lat="42.211495" lon="2.5093">
        <ele>339</ele>
        <time>2019-08-19T05:00:58Z</time>
      </trkpt>
      <trkpt lat="42.21147" lon="2.509246">
        <ele>339</ele>
        <time>2019-08-19T05:00:59Z</time>
      </trkpt>
      <trkpt lat="42.211445" lon="2.509192">
        <ele>339</ele>
        <time>2019-08-19T05:01:00Z</time>
      </trkpt>
      <trkpt lat="42.211421" lon="2.509139">
        <ele>339</ele>
        <time>2019-08-19T05:01:01Z</time>
      </trkpt>
      <trkpt lat="42.211396" lon="2.509085">
        <ele>339</ele>
        <time>2019-08-19T05:01:03Z</time>
      </trkpt>
      <trkpt lat="42.211355" lon="2.509">
        <ele>339</ele>
        <time>2019-08-19T05:01:04Z</time>
      </trkpt>
      <trkpt lat="42.211332" lon="2.508951">
        <ele>339</ele>
        <time>2019-08-19T05:01:05Z</time>
      </trkpt>
      <trkpt lat="42.211308" lon="2.508902">
        <ele>339</ele>
        <time>2019-08-19T05:01:06Z</time>
      </trkpt>
      <trkpt lat="42.211284" lon="2.508853">
        <ele>339</ele>
        <time>2019-08-19T05:01:07Z</time>
      </trkpt>
      <trkpt lat="42.211261" lon="2.508804">
        <ele>339</ele>
        <time>2019-08-19T05:01:08Z</time>
      </trkpt>
      <trkpt lat="42.211237" lon="2.508755">
        <ele>339</ele>
        <time>2019-08-19T05:01:09Z</time>
      </trkpt>
      <trkpt lat="42.211213" lon="2.508706">
        <ele>339</ele>
        <time>2019-08-19T05:01:10Z</time>
      </trkpt>
      <trkpt lat="42.211189" lon="2.508657">
        <ele>339</ele>
        <time>2019-08-19T05:01:11Z</time>
      </trkpt>
      <trkpt lat="42.211166" lon="2.508608">
        <ele>339</ele>
        <time>2019-08-19T05:01:12Z</time>
      </trkpt>
      <trkpt lat="42.211142" lon="2.508559">
        <ele>339</ele>
        <time>2019-08-19T05:01:13Z</time>
      </trkpt>
      <trkpt lat="42.211053" lon="2.508452">
        <ele>339</ele>
        <time>2019-08-19T05:01:14Z</time>
      </trkpt>
      <trkpt lat="42.210997" lon="2.5084">
        <ele>339</ele>
        <time>2019-08-19T05:01:15Z</time>
      </trkpt>
      <trkpt lat="42.210941" lon="2.508349">
        <ele>339</ele>
        <time>2019-08-19T05:01:16Z</time>
      </trkpt>
      <trkpt lat="42.210885" lon="2.508297">
        <ele>339</ele>
        <time>2019-08-19T05:01:17Z</time>
      </trkpt>
      <trkpt lat="42.210829" lon="2.508245">
        <ele>339</ele>
        <time>2019-08-19T05:01:18Z</time>
      </trkpt>
      <trkpt lat="42.210772" lon="2.508193">
        <ele>339</ele>
        <time>2019-08-19T05:01:19Z</time>
      </trkpt>
      <trkpt lat="42.210716" lon="2.508141">
        <ele>339</ele>
        <time>2019-08-19T05:01:20Z</time>
      </trkpt>
      <trkpt lat="42.21066" lon="2.50809">
        <ele>339</ele>
        <time>2019-08-19T05:01:21Z</time>
      </trkpt>
      <trkpt lat="42.210604" lon="2.508038">
        <ele>339</ele>
        <time>2019-08-19T05:01:22Z</time>
      </trkpt>
      <trkpt lat="42.210548" lon="2.507986">
        <ele>339</ele>
        <time>2019-08-19T05:01:24Z</time>
      </trkpt>
      <trkpt lat="42.210382" lon="2.507857">
        <ele>339</ele>
        <time>2019-08-19T05:01:26Z</time>
      </trkpt>
      <trkpt lat="42.210325" lon="2.507811">
        <ele>339</ele>
        <time>2019-08-19T05:01:27Z</time>
      </trkpt>
      <trkpt lat="42.210269" lon="2.507765">
        <ele>339</ele>
        <time>2019-08-19T05:01:28Z</time>
      </trkpt>
      <trkpt lat="42.210213" lon="2.507719">
        <ele>339</ele>
        <time>2019-08-19T05:01:30Z</time>
      </trkpt>
      <trkpt lat="42.210156" lon="2.507673">
        <ele>339</ele>
        <time>2019-08-19T05:01:32Z</time>
      </trkpt>
      <trkpt lat="42.2101" lon="2.507627">
        <ele>339</ele>
        <time>2019-08-19T05:01:33Z</time>
      </trkpt>
      <trkpt lat="42.210025" lon="2.507511">
        <ele>339</ele>
        <time>2019-08-19T05:01:35Z</time>
      </trkpt>
      <trkpt lat="42.210008" lon="2.507454">
        <ele>339</ele>
        <time>2019-08-19T05:01:36Z</time>
      </trkpt>
      <trkpt lat="42.209991" lon="2.507397">
        <ele>339</ele>
        <time>2019-08-19T05:01:37Z</time>
      </trkpt>
      <trkpt lat="42.209974" lon="2.50734">
        <ele>339</ele>
        <time>2019-08-19T05:01:38Z</time>
      </trkpt>
      <trkpt lat="42.209957" lon="2.507283">
        <ele>339</ele>
        <time>2019-08-19T05:01:39Z</time>
      </trkpt>
      <trkpt lat="42.20994" lon="2.507226">
        <ele>339</ele>
        <time>2019-08-19T05:01:40Z</time>
      </trkpt>
      <trkpt lat="42.209923" lon="2.507169">
        <ele>339</ele>
        <time>2019-08-19T05:01:41Z</time>
      </trkpt>
      <trkpt lat="42.209906" lon="2.507112">
        <ele>339</ele>
        <time>2019-08-19T05:01:42Z</time>
      </trkpt>
      <trkpt lat="42.209889" lon="2.507055">
        <ele>338</ele>
        <time>2019-08-19T05:01:43Z</time>
      </trkpt>
      <trkpt lat="42.209882" lon="2.50694">
        <ele>338</ele>
        <time>2019-08-19T05:01:44Z</time>
      </trkpt>
      <trkpt lat="42.209879" lon="2.50688">
        <ele>338</ele>
        <time>2019-08-19T05:01:46Z</time>
      </trkpt>
      <trkpt lat="42.209877" lon="2.506821">
        <ele>338</ele>
        <time>2019-08-19T05:01:47Z</time>
      </trkpt>
      <trkpt lat="42.209874" lon="2.506762">
        <ele>338</ele>
        <time>2019-08-19T05:01:48Z</time>
      </trkpt>
      <trkpt lat="42.209871" lon="2.506702">
        <ele>338</ele>
        <time>2019-08-19T05:01:49Z</time>
      </trkpt>
      <trkpt lat="42.209868" lon="2.506643">
        <ele>338</ele>
        <time>2019-08-19T05:01:50Z</time>
      </trkpt>
      <trkpt lat="42.209866" lon="2.506584">
        <ele>338</ele>
        <time>2019-08-19T05:01:51Z</time>
      </trkpt>
      <trkpt lat="42.209863" lon="2.506524">
        <ele>338</ele>
        <time>2019-08-19T05:01:52Z</time>
      </trkpt>
      <trkpt lat="42.20986" lon="2.506465">
        <ele>338</ele>
        <time>2019-08-19T05:01:54Z</time>
      </trkpt>
      <trkpt lat="42.209862" lon="2.506271">
        <ele>338</ele>
        <time>2019-08-19T05:01:56Z</time>
      </trkpt>
      <trkpt lat="42.20986" lon="2.506196">
        <ele>338</ele>
        <time>2019-08-19T05:01:58Z</time>
      </trkpt>
      <trkpt lat="42.209858" lon="2.506122">
        <ele>338</ele>
        <time>2019-08-19T05:02:00Z</time>
      </trkpt>
      <trkpt lat="42.209856" lon="2.506047">
        <ele>338</ele>
        <time>2019-08-19T05:02:02Z</time>
      </trkpt>
      <trkpt lat="42.209854" lon="2.505972">
        <ele>338</ele>
        <time>2019-08-19T05:02:03Z</time>
      </trkpt>
      <trkpt lat="42.20985" lon="2.505907">
        <ele>338</ele>
        <time>2019-08-19T05:02:04Z</time>
      </trkpt>
      <trkpt lat="42.209848" lon="2.505867">
        <ele>338</ele>
        <time>2019-08-19T05:02:05Z</time>
      </trkpt>
      <trkpt lat="42.209845" lon="2.505828">
        <ele>338</ele>
        <time>2019-08-19T05:02:06Z</time>
      </trkpt>
      <trkpt lat="42.209843" lon="2.505789">
        <ele>338</ele>
        <time>2019-08-19T05:02:07Z</time>
      </trkpt>
      <trkpt lat="42.209841" lon="2.505749">
        <ele>338</ele>
        <time>2019-08-19T05:02:08Z</time>
      </trkpt>
      <trkpt lat="42.209839" lon="2.50571">
        <ele>338</ele>
        <time>2019-08-19T05:02:09Z</time>
      </trkpt>
      <trkpt lat="42.209837" lon="2.505671">
        <ele>338</ele>
        <time>2019-08-19T05:02:10Z</time>
      </trkpt>
      <trkpt lat="42.209834" lon="2.505632">
        <ele>338</ele>
        <time>2019-08-19T05:02:11Z</time>
      </trkpt>
      <trkpt lat="42.209832" lon="2.505592">
        <ele>338</ele>
        <time>2019-08-19T05:02:12Z</time>
      </trkpt>
      <trkpt lat="42.20983" lon="2.505553">
        <ele>339</ele>
        <time>2019-08-19T05:02:13Z</time>
      </trkpt>
      <trkpt lat="42.209829" lon="2.505469">
        <ele>339</ele>
        <time>2019-08-19T05:02:14Z</time>
      </trkpt>
      <trkpt lat="42.209829" lon="2.505438">
        <ele>339</ele>
        <time>2019-08-19T05:02:15Z</time>
      </trkpt>
      <trkpt lat="42.209828" lon="2.505408">
        <ele>339</ele>
        <time>2019-08-19T05:02:16Z</time>
      </trkpt>
      <trkpt lat="42.209827" lon="2.505377">
        <ele>339</ele>
        <time>2019-08-19T05:02:17Z</time>
      </trkpt>
      <trkpt lat="42.209827" lon="2.505347">
        <ele>339</ele>
        <time>2019-08-19T05:02:18Z</time>
      </trkpt>
      <trkpt lat="42.209826" lon="2.505317">
        <ele>339</ele>
        <time>2019-08-19T05:02:19Z</time>
      </trkpt>
      <trkpt lat="42.209825" lon="2.505286">
        <ele>339</ele>
        <time>2019-08-19T05:02:20Z</time>
      </trkpt>
      <trkpt lat="42.209824" lon="2.505256">
        <ele>339</ele>
        <time>2019-08-19T05:02:21Z</time>
      </trkpt>
      <trkpt lat="42.209824" lon="2.505225">
        <ele>339</ele>
        <time>2019-08-19T05:02:22Z</time>
      </trkpt>
      <trkpt lat="42.209823" lon="2.505195">
        <ele>340</ele>
        <time>2019-08-19T05:02:23Z</time>
      </trkpt>
      <trkpt lat="42.209818" lon="2.505146">
        <ele>340</ele>
        <time>2019-08-19T05:02:24Z</time>
      </trkpt>
      <trkpt lat="42.209815" lon="2.505115">
        <ele>340</ele>
        <time>2019-08-19T05:02:25Z</time>
      </trkpt>
      <trkpt lat="42.209811" lon="2.505083">
        <ele>340</ele>
        <time>2019-08-19T05:02:26Z</time>
      </trkpt>
      <trkpt lat="42.209808" lon="2.505052">
        <ele>340</ele>
        <time>2019-08-19T05:02:27Z</time>
      </trkpt>
      <trkpt lat="42.209804" lon="2.50502">
        <ele>340</ele>
        <time>2019-08-19T05:02:28Z</time>
      </trkpt>
      <trkpt lat="42.2098" lon="2.504988">
        <ele>340</ele>
        <time>2019-08-19T05:02:29Z</time>
      </trkpt>
      <trkpt lat="42.209797" lon="2.504957">
        <ele>340</ele>
        <time>2019-08-19T05:02:30Z</time>
      </trkpt>
      <trkpt lat="42.209793" lon="2.504925">
        <ele>340</ele>
        <time>2019-08-19T05:02:31Z</time>
      </trkpt>
      <trkpt lat="42.20979" lon="2.504894">
        <ele>340</ele>
        <time>2019-08-19T05:02:32Z</time>
      </trkpt>
      <trkpt lat="42.209786" lon="2.504862">
        <ele>342</ele>
        <time>2019-08-19T05:02:33Z</time>
      </trkpt>
      <trkpt lat="42.209765" lon="2.504797">
        <ele>342</ele>
        <time>2019-08-19T05:02:34Z</time>
      </trkpt>
      <trkpt lat="42.209752" lon="2.504768">
        <ele>342</ele>
        <time>2019-08-19T05:02:35Z</time>
      </trkpt>
      <trkpt lat="42.20974" lon="2.504738">
        <ele>342</ele>
        <time>2019-08-19T05:02:36Z</time>
      </trkpt>
      <trkpt lat="42.209728" lon="2.504709">
        <ele>342</ele>
        <time>2019-08-19T05:02:37Z</time>
      </trkpt>
      <trkpt lat="42.209716" lon="2.504679">
        <ele>342</ele>
        <time>2019-08-19T05:02:38Z</time>
      </trkpt>
      <trkpt lat="42.209703" lon="2.504649">
        <ele>342</ele>
        <time>2019-08-19T05:02:39Z</time>
      </trkpt>
      <trkpt lat="42.209691" lon="2.50462">
        <ele>342</ele>
        <time>2019-08-19T05:02:40Z</time>
      </trkpt>
      <trkpt lat="42.209679" lon="2.50459">
        <ele>342</ele>
        <time>2019-08-19T05:02:41Z</time>
      </trkpt>
      <trkpt lat="42.209666" lon="2.504561">
        <ele>342</ele>
        <time>2019-08-19T05:02:42Z</time>
      </trkpt>
      <trkpt lat="42.209654" lon="2.504531">
        <ele>344</ele>
        <time>2019-08-19T05:02:43Z</time>
      </trkpt>
      <trkpt lat="42.209631" lon="2.504462">
        <ele>344</ele>
        <time>2019-08-19T05:02:44Z</time>
      </trkpt>
      <trkpt lat="42.209626" lon="2.504425">
        <ele>344</ele>
        <time>2019-08-19T05:02:45Z</time>
      </trkpt>
      <trkpt lat="42.209621" lon="2.504388">
        <ele>344</ele>
        <time>2019-08-19T05:02:46Z</time>
      </trkpt>
      <trkpt lat="42.209616" lon="2.504351">
        <ele>344</ele>
        <time>2019-08-19T05:02:48Z</time>
      </trkpt>
      <trkpt lat="42.20961" lon="2.504313">
        <ele>344</ele>
        <time>2019-08-19T05:02:49Z</time>
      </trkpt>
      <trkpt lat="42.209605" lon="2.504276">
        <ele>344</ele>
        <time>2019-08-19T05:02:50Z</time>
      </trkpt>
      <trkpt lat="42.2096" lon="2.504239">
        <ele>344</ele>
        <time>2019-08-19T05:02:51Z</time>
      </trkpt>
      <trkpt lat="42.209595" lon="2.504202">
        <ele>344</ele>
        <time>2019-08-19T05:02:52Z</time>
      </trkpt>
      <trkpt lat="42.20959" lon="2.504165">
        <ele>346</ele>
        <time>2019-08-19T05:02:53Z</time>
      </trkpt>
      <trkpt lat="42.209573" lon="2.504092">
        <ele>346</ele>
        <time>2019-08-19T05:02:54Z</time>
      </trkpt>
      <trkpt lat="42.209557" lon="2.50406">
        <ele>346</ele>
        <time>2019-08-19T05:02:55Z</time>
      </trkpt>
      <trkpt lat="42.209541" lon="2.504027">
        <ele>346</ele>
        <time>2019-08-19T05:02:57Z</time>
      </trkpt>
      <trkpt lat="42.209525" lon="2.503995">
        <ele>346</ele>
        <time>2019-08-19T05:02:58Z</time>
      </trkpt>
      <trkpt lat="42.20951" lon="2.503962">
        <ele>346</ele>
        <time>2019-08-19T05:02:59Z</time>
      </trkpt>
      <trkpt lat="42.209494" lon="2.50393">
        <ele>346</ele>
        <time>2019-08-19T05:03:00Z</time>
      </trkpt>
      <trkpt lat="42.209478" lon="2.503897">
        <ele>346</ele>
        <time>2019-08-19T05:03:01Z</time>
      </trkpt>
      <trkpt lat="42.209462" lon="2.503865">
        <ele>346</ele>
        <time>2019-08-19T05:03:02Z</time>
      </trkpt>
      <trkpt lat="42.209446" lon="2.503832">
        <ele>348</ele>
        <time>2019-08-19T05:03:03Z</time>
      </trkpt>
      <trkpt lat="42.209396" lon="2.503802">
        <ele>348</ele>
        <time>2019-08-19T05:03:04Z</time>
      </trkpt>
      <trkpt lat="42.209373" lon="2.503788">
        <ele>348</ele>
        <time>2019-08-19T05:03:05Z</time>
      </trkpt>
      <trkpt lat="42.209349" lon="2.503773">
        <ele>348</ele>
        <time>2019-08-19T05:03:06Z</time>
      </trkpt>
      <trkpt lat="42.209326" lon="2.503759">
        <ele>348</ele>
        <time>2019-08-19T05:03:07Z</time>
      </trkpt>
      <trkpt lat="42.209303" lon="2.503744">
        <ele>348</ele>
        <time>2019-08-19T05:03:08Z</time>
      </trkpt>
      <trkpt lat="42.20928" lon="2.503729">
        <ele>348</ele>
        <time>2019-08-19T05:03:09Z</time>
      </trkpt>
      <trkpt lat="42.209257" lon="2.503715">
        <ele>348</ele>
        <time>2019-08-19T05:03:10Z</time>
      </trkpt>
      <trkpt lat="42.209233" lon="2.5037">
        <ele>348</ele>
        <time>2019-08-19T05:03:11Z</time>
      </trkpt>
      <trkpt lat="42.20921" lon="2.503686">
        <ele>348</ele>
        <time>2019-08-19T05:03:12Z</time>
      </trkpt>
      <trkpt lat="42.209187" lon="2.503671">
        <ele>348</ele>
        <time>2019-08-19T05:03:13Z</time>
      </trkpt>
      <trkpt lat="42.209139" lon="2.503613">
        <ele>348</ele>
        <time>2019-08-19T05:03:14Z</time>
      </trkpt>
      <trkpt lat="42.209123" lon="2.503588">
        <ele>348</ele>
        <time>2019-08-19T05:03:16Z</time>
      </trkpt>
      <trkpt lat="42.209107" lon="2.503563">
        <ele>348</ele>
        <time>2019-08-19T05:03:17Z</time>
      </trkpt>
      <trkpt lat="42.209091" lon="2.503538">
        <ele>348</ele>
        <time>2019-08-19T05:03:18Z</time>
      </trkpt>
      <trkpt lat="42.209076" lon="2.503514">
        <ele>348</ele>
        <time>2019-08-19T05:03:19Z</time>
      </trkpt>
      <trkpt lat="42.20906" lon="2.503489">
        <ele>348</ele>
        <time>2019-08-19T05:03:20Z</time>
      </trkpt>
      <trkpt lat="42.209044" lon="2.503464">
        <ele>348</ele>
        <time>2019-08-19T05:03:21Z</time>
      </trkpt>
      <trkpt lat="42.209028" lon="2.503439">
        <ele>348</ele>
        <time>2019-08-19T05:03:22Z</time>
      </trkpt>
      <trkpt lat="42.209012" lon="2.503414">
        <ele>350</ele>
        <time>2019-08-19T05:03:23Z</time>
      </trkpt>
      <trkpt lat="42.208976" lon="2.503355">
        <ele>350</ele>
        <time>2019-08-19T05:03:24Z</time>
      </trkpt>
      <trkpt lat="42.208959" lon="2.503326">
        <ele>350</ele>
        <time>2019-08-19T05:03:25Z</time>
      </trkpt>
      <trkpt lat="42.208942" lon="2.503296">
        <ele>350</ele>
        <time>2019-08-19T05:03:26Z</time>
      </trkpt>
      <trkpt lat="42.208925" lon="2.503266">
        <ele>350</ele>
        <time>2019-08-19T05:03:27Z</time>
      </trkpt>
      <trkpt lat="42.208908" lon="2.503236">
        <ele>350</ele>
        <time>2019-08-19T05:03:28Z</time>
      </trkpt>
      <trkpt lat="42.208891" lon="2.503207">
        <ele>350</ele>
        <time>2019-08-19T05:03:29Z</time>
      </trkpt>
      <trkpt lat="42.208874" lon="2.503177">
        <ele>350</ele>
        <time>2019-08-19T05:03:30Z</time>
      </trkpt>
      <trkpt lat="42.208857" lon="2.503147">
        <ele>350</ele>
        <time>2019-08-19T05:03:31Z</time>
      </trkpt>
      <trkpt lat="42.20884" lon="2.503117">
        <ele>350</ele>
        <time>2019-08-19T05:03:32Z</time>
      </trkpt>
      <trkpt lat="42.208823" lon="2.503088">
        <ele>350</ele>
        <time>2019-08-19T05:03:33Z</time>
      </trkpt>
      <trkpt lat="42.208806" lon="2.503058">
        <ele>351</ele>
        <time>2019-08-19T05:03:34Z</time>
      </trkpt>
      <trkpt lat="42.208765" lon="2.502983">
        <ele>351</ele>
        <time>2019-08-19T05:03:35Z</time>
      </trkpt>
      <trkpt lat="42.208749" lon="2.502955">
        <ele>351</ele>
        <time>2019-08-19T05:03:37Z</time>
      </trkpt>
      <trkpt lat="42.208732" lon="2.502927">
        <ele>351</ele>
        <time>2019-08-19T05:03:38Z</time>
      </trkpt>
      <trkpt lat="42.208716" lon="2.502898">
        <ele>351</ele>
        <time>2019-08-19T05:03:39Z</time>
      </trkpt>
      <trkpt lat="42.2087" lon="2.50287">
        <ele>351</ele>
        <time>2019-08-19T05:03:40Z</time>
      </trkpt>
      <trkpt lat="42.208684" lon="2.502842">
        <ele>351</ele>
        <time>2019-08-19T05:03:41Z</time>
      </trkpt>
      <trkpt lat="42.208667" lon="2.502814">
        <ele>351</ele>
        <time>2019-08-19T05:03:42Z</time>
      </trkpt>
      <trkpt lat="42.208651" lon="2.502786">
        <ele>352</ele>
        <time>2019-08-19T05:03:43Z</time>
      </trkpt>
      <trkpt lat="42.208628" lon="2.502743">
        <ele>352</ele>
        <time>2019-08-19T05:03:44Z</time>
      </trkpt>
      <trkpt lat="42.208613" lon="2.502716">
        <ele>352</ele>
        <time>2019-08-19T05:03:45Z</time>
      </trkpt>
      <trkpt lat="42.208598" lon="2.502688">
        <ele>352</ele>
        <time>2019-08-19T05:03:46Z</time>
      </trkpt>
      <trkpt lat="42.208583" lon="2.502661">
        <ele>352</ele>
        <time>2019-08-19T05:03:47Z</time>
      </trkpt>
      <trkpt lat="42.208569" lon="2.502633">
        <ele>352</ele>
        <time>2019-08-19T05:03:48Z</time>
      </trkpt>
      <trkpt lat="42.208554" lon="2.502606">
        <ele>352</ele>
        <time>2019-08-19T05:03:49Z</time>
      </trkpt>
      <trkpt lat="42.208539" lon="2.502578">
        <ele>352</ele>
        <time>2019-08-19T05:03:50Z</time>
      </trkpt>
      <trkpt lat="42.208524" lon="2.502551">
        <ele>352</ele>
        <time>2019-08-19T05:03:51Z</time>
      </trkpt>
      <trkpt lat="42.208509" lon="2.502523">
        <ele>352</ele>
        <time>2019-08-19T05:03:52Z</time>
      </trkpt>
      <trkpt lat="42.208494" lon="2.502496">
        <ele>354</ele>
        <time>2019-08-19T05:03:53Z</time>
      </trkpt>
      <trkpt lat="42.208461" lon="2.502439">
        <ele>354</ele>
        <time>2019-08-19T05:03:54Z</time>
      </trkpt>
      <trkpt lat="42.208446" lon="2.502412">
        <ele>354</ele>
        <time>2019-08-19T05:03:55Z</time>
      </trkpt>
      <trkpt lat="42.20843" lon="2.502385">
        <ele>354</ele>
        <time>2019-08-19T05:03:56Z</time>
      </trkpt>
      <trkpt lat="42.208414" lon="2.502358">
        <ele>354</ele>
        <time>2019-08-19T05:03:57Z</time>
      </trkpt>
      <trkpt lat="42.208399" lon="2.502331">
        <ele>354</ele>
        <time>2019-08-19T05:03:58Z</time>
      </trkpt>
      <trkpt lat="42.208383" lon="2.502304">
        <ele>354</ele>
        <time>2019-08-19T05:03:59Z</time>
      </trkpt>
      <trkpt lat="42.208367" lon="2.502277">
        <ele>354</ele>
        <time>2019-08-19T05:04:00Z</time>
      </trkpt>
      <trkpt lat="42.208351" lon="2.50225">
        <ele>354</ele>
        <time>2019-08-19T05:04:01Z</time>
      </trkpt>
      <trkpt lat="42.208336" lon="2.502223">
        <ele>354</ele>
        <time>2019-08-19T05:04:02Z</time>
      </trkpt>
      <trkpt lat="42.20832" lon="2.502196">
        <ele>355</ele>
        <time>2019-08-19T05:04:03Z</time>
      </trkpt>
      <trkpt lat="42.208287" lon="2.502137">
        <ele>355</ele>
        <time>2019-08-19T05:04:04Z</time>
      </trkpt>
      <trkpt lat="42.208272" lon="2.502108">
        <ele>355</ele>
        <time>2019-08-19T05:04:05Z</time>
      </trkpt>
      <trkpt lat="42.208258" lon="2.502079">
        <ele>355</ele>
        <time>2019-08-19T05:04:06Z</time>
      </trkpt>
      <trkpt lat="42.208243" lon="2.50205">
        <ele>355</ele>
        <time>2019-08-19T05:04:07Z</time>
      </trkpt>
      <trkpt lat="42.208228" lon="2.502021">
        <ele>355</ele>
        <time>2019-08-19T05:04:08Z</time>
      </trkpt>
      <trkpt lat="42.208213" lon="2.501993">
        <ele>355</ele>
        <time>2019-08-19T05:04:09Z</time>
      </trkpt>
      <trkpt lat="42.208198" lon="2.501964">
        <ele>355</ele>
        <time>2019-08-19T05:04:10Z</time>
      </trkpt>
      <trkpt lat="42.208184" lon="2.501935">
        <ele>355</ele>
        <time>2019-08-19T05:04:11Z</time>
      </trkpt>
      <trkpt lat="42.208169" lon="2.501906">
        <ele>355</ele>
        <time>2019-08-19T05:04:12Z</time>
      </trkpt>
      <trkpt lat="42.208154" lon="2.501877">
        <ele>357</ele>
        <time>2019-08-19T05:04:13Z</time>
      </trkpt>
      <trkpt lat="42.20813" lon="2.501804">
        <ele>357</ele>
        <time>2019-08-19T05:04:14Z</time>
      </trkpt>
      <trkpt lat="42.208121" lon="2.501765">
        <ele>357</ele>
        <time>2019-08-19T05:04:15Z</time>
      </trkpt>
      <trkpt lat="42.208112" lon="2.501727">
        <ele>357</ele>
        <time>2019-08-19T05:04:16Z</time>
      </trkpt>
      <trkpt lat="42.208103" lon="2.501689">
        <ele>357</ele>
        <time>2019-08-19T05:04:17Z</time>
      </trkpt>
      <trkpt lat="42.208094" lon="2.50165">
        <ele>357</ele>
        <time>2019-08-19T05:04:18Z</time>
      </trkpt>
      <trkpt lat="42.208085" lon="2.501612">
        <ele>357</ele>
        <time>2019-08-19T05:04:19Z</time>
      </trkpt>
      <trkpt lat="42.208076" lon="2.501574">
        <ele>357</ele>
        <time>2019-08-19T05:04:21Z</time>
      </trkpt>
      <trkpt lat="42.208067" lon="2.501535">
        <ele>357</ele>
        <time>2019-08-19T05:04:22Z</time>
      </trkpt>
      <trkpt lat="42.208058" lon="2.501497">
        <ele>357</ele>
        <time>2019-08-19T05:04:23Z</time>
      </trkpt>
      <trkpt lat="42.208049" lon="2.501417">
        <ele>357</ele>
        <time>2019-08-19T05:04:24Z</time>
      </trkpt>
      <trkpt lat="42.208045" lon="2.501375">
        <ele>357</ele>
        <time>2019-08-19T05:04:25Z</time>
      </trkpt>
      <trkpt lat="42.208041" lon="2.501334">
        <ele>357</ele>
        <time>2019-08-19T05:04:26Z</time>
      </trkpt>
      <trkpt lat="42.208037" lon="2.501292">
        <ele>357</ele>
        <time>2019-08-19T05:04:27Z</time>
      </trkpt>
      <trkpt lat="42.208033" lon="2.50125">
        <ele>357</ele>
        <time>2019-08-19T05:04:28Z</time>
      </trkpt>
      <trkpt lat="42.208028" lon="2.501208">
        <ele>357</ele>
        <time>2019-08-19T05:04:29Z</time>
      </trkpt>
      <trkpt lat="42.208024" lon="2.501166">
        <ele>357</ele>
        <time>2019-08-19T05:04:30Z</time>
      </trkpt>
      <trkpt lat="42.20802" lon="2.501125">
        <ele>357</ele>
        <time>2019-08-19T05:04:31Z</time>
      </trkpt>
      <trkpt lat="42.208016" lon="2.501083">
        <ele>357</ele>
        <time>2019-08-19T05:04:32Z</time>
      </trkpt>
      <trkpt lat="42.208012" lon="2.501041">
        <ele>357</ele>
        <time>2019-08-19T05:04:33Z</time>
      </trkpt>
      <trkpt lat="42.208004" lon="2.500949">
        <ele>357</ele>
        <time>2019-08-19T05:04:34Z</time>
      </trkpt>
      <trkpt lat="42.208" lon="2.500905">
        <ele>357</ele>
        <time>2019-08-19T05:04:35Z</time>
      </trkpt>
      <trkpt lat="42.207995" lon="2.500861">
        <ele>357</ele>
        <time>2019-08-19T05:04:36Z</time>
      </trkpt>
      <trkpt lat="42.207991" lon="2.500817">
        <ele>357</ele>
        <time>2019-08-19T05:04:37Z</time>
      </trkpt>
      <trkpt lat="42.207987" lon="2.500773">
        <ele>357</ele>
        <time>2019-08-19T05:04:38Z</time>
      </trkpt>
      <trkpt lat="42.207983" lon="2.50073">
        <ele>357</ele>
        <time>2019-08-19T05:04:39Z</time>
      </trkpt>
      <trkpt lat="42.207979" lon="2.500686">
        <ele>357</ele>
        <time>2019-08-19T05:04:40Z</time>
      </trkpt>
      <trkpt lat="42.207974" lon="2.500642">
        <ele>357</ele>
        <time>2019-08-19T05:04:41Z</time>
      </trkpt>
      <trkpt lat="42.20797" lon="2.500598">
        <ele>357</ele>
        <time>2019-08-19T05:04:42Z</time>
      </trkpt>
      <trkpt lat="42.207966" lon="2.500554">
        <ele>357</ele>
        <time>2019-08-19T05:04:43Z</time>
      </trkpt>
      <trkpt lat="42.207956" lon="2.500468">
        <ele>357</ele>
        <time>2019-08-19T05:04:44Z</time>
      </trkpt>
      <trkpt lat="42.207953" lon="2.50043">
        <ele>357</ele>
        <time>2019-08-19T05:04:45Z</time>
      </trkpt>
      <trkpt lat="42.207949" lon="2.500391">
        <ele>357</ele>
        <time>2019-08-19T05:04:46Z</time>
      </trkpt>
      <trkpt lat="42.207945" lon="2.500352">
        <ele>357</ele>
        <time>2019-08-19T05:04:47Z</time>
      </trkpt>
      <trkpt lat="42.207942" lon="2.500313">
        <ele>357</ele>
        <time>2019-08-19T05:04:48Z</time>
      </trkpt>
      <trkpt lat="42.207938" lon="2.500275">
        <ele>357</ele>
        <time>2019-08-19T05:04:49Z</time>
      </trkpt>
      <trkpt lat="42.207934" lon="2.500236">
        <ele>357</ele>
        <time>2019-08-19T05:04:50Z</time>
      </trkpt>
      <trkpt lat="42.20793" lon="2.500197">
        <ele>357</ele>
        <time>2019-08-19T05:04:51Z</time>
      </trkpt>
      <trkpt lat="42.207927" lon="2.500159">
        <ele>357</ele>
        <time>2019-08-19T05:04:52Z</time>
      </trkpt>
      <trkpt lat="42.207923" lon="2.50012">
        <ele>358</ele>
        <time>2019-08-19T05:04:53Z</time>
      </trkpt>
      <trkpt lat="42.207916" lon="2.500048">
        <ele>358</ele>
        <time>2019-08-19T05:04:54Z</time>
      </trkpt>
      <trkpt lat="42.207914" lon="2.500017">
        <ele>358</ele>
        <time>2019-08-19T05:04:55Z</time>
      </trkpt>
      <trkpt lat="42.207911" lon="2.499985">
        <ele>358</ele>
        <time>2019-08-19T05:04:56Z</time>
      </trkpt>
      <trkpt lat="42.207909" lon="2.499954">
        <ele>358</ele>
        <time>2019-08-19T05:04:57Z</time>
      </trkpt>
      <trkpt lat="42.207906" lon="2.499922">
        <ele>358</ele>
        <time>2019-08-19T05:04:58Z</time>
      </trkpt>
      <trkpt lat="42.207903" lon="2.49989">
        <ele>358</ele>
        <time>2019-08-19T05:04:59Z</time>
      </trkpt>
      <trkpt lat="42.207901" lon="2.499859">
        <ele>358</ele>
        <time>2019-08-19T05:05:00Z</time>
      </trkpt>
      <trkpt lat="42.207898" lon="2.499827">
        <ele>358</ele>
        <time>2019-08-19T05:05:01Z</time>
      </trkpt>
      <trkpt lat="42.207896" lon="2.499796">
        <ele>358</ele>
        <time>2019-08-19T05:05:02Z</time>
      </trkpt>
      <trkpt lat="42.207893" lon="2.499764">
        <ele>359</ele>
        <time>2019-08-19T05:05:03Z</time>
      </trkpt>
      <trkpt lat="42.207888" lon="2.499698">
        <ele>359</ele>
        <time>2019-08-19T05:05:04Z</time>
      </trkpt>
      <trkpt lat="42.207885" lon="2.499665">
        <ele>359</ele>
        <time>2019-08-19T05:05:05Z</time>
      </trkpt>
      <trkpt lat="42.207881" lon="2.499631">
        <ele>359</ele>
        <time>2019-08-19T05:05:06Z</time>
      </trkpt>
      <trkpt lat="42.207878" lon="2.499598">
        <ele>359</ele>
        <time>2019-08-19T05:05:07Z</time>
      </trkpt>
      <trkpt lat="42.207875" lon="2.499565">
        <ele>359</ele>
        <time>2019-08-19T05:05:08Z</time>
      </trkpt>
      <trkpt lat="42.207872" lon="2.499532">
        <ele>359</ele>
        <time>2019-08-19T05:05:09Z</time>
      </trkpt>
      <trkpt lat="42.207869" lon="2.499499">
        <ele>359</ele>
        <time>2019-08-19T05:05:10Z</time>
      </trkpt>
      <trkpt lat="42.207866" lon="2.499466">
        <ele>359</ele>
        <time>2019-08-19T05:05:11Z</time>
      </trkpt>
      <trkpt lat="42.207862" lon="2.499432">
        <ele>359</ele>
        <time>2019-08-19T05:05:12Z</time>
      </trkpt>
      <trkpt lat="42.207859" lon="2.499399">
        <ele>359</ele>
        <time>2019-08-19T05:05:13Z</time>
      </trkpt>
      <trkpt lat="42.207856" lon="2.499366">
        <ele>361</ele>
        <time>2019-08-19T05:05:14Z</time>
      </trkpt>
      <trkpt lat="42.207848" lon="2.499284">
        <ele>361</ele>
        <time>2019-08-19T05:05:15Z</time>
      </trkpt>
      <trkpt lat="42.207844" lon="2.499252">
        <ele>361</ele>
        <time>2019-08-19T05:05:16Z</time>
      </trkpt>
      <trkpt lat="42.207841" lon="2.499221">
        <ele>361</ele>
        <time>2019-08-19T05:05:17Z</time>
      </trkpt>
      <trkpt lat="42.207837" lon="2.49919">
        <ele>361</ele>
        <time>2019-08-19T05:05:18Z</time>
      </trkpt>
      <trkpt lat="42.207833" lon="2.499158">
        <ele>361</ele>
        <time>2019-08-19T05:05:19Z</time>
      </trkpt>
      <trkpt lat="42.207829" lon="2.499127">
        <ele>361</ele>
        <time>2019-08-19T05:05:20Z</time>
      </trkpt>
      <trkpt lat="42.207826" lon="2.499096">
        <ele>361</ele>
        <time>2019-08-19T05:05:21Z</time>
      </trkpt>
      <trkpt lat="42.207822" lon="2.499064">
        <ele>361</ele>
        <time>2019-08-19T05:05:22Z</time>
      </trkpt>
      <trkpt lat="42.207818" lon="2.499033">
        <ele>363</ele>
        <time>2019-08-19T05:05:23Z</time>
      </trkpt>
      <trkpt lat="42.207813" lon="2.498969">
        <ele>363</ele>
        <time>2019-08-19T05:05:24Z</time>
      </trkpt>
      <trkpt lat="42.207811" lon="2.49894">
        <ele>363</ele>
        <time>2019-08-19T05:05:25Z</time>
      </trkpt>
      <trkpt lat="42.207809" lon="2.49891">
        <ele>363</ele>
        <time>2019-08-19T05:05:26Z</time>
      </trkpt>
      <trkpt lat="42.207807" lon="2.498881">
        <ele>363</ele>
        <time>2019-08-19T05:05:27Z</time>
      </trkpt>
      <trkpt lat="42.207806" lon="2.498851">
        <ele>363</ele>
        <time>2019-08-19T05:05:28Z</time>
      </trkpt>
      <trkpt lat="42.207804" lon="2.498821">
        <ele>363</ele>
        <time>2019-08-19T05:05:29Z</time>
      </trkpt>
      <trkpt lat="42.207802" lon="2.498792">
        <ele>363</ele>
        <time>2019-08-19T05:05:30Z</time>
      </trkpt>
      <trkpt lat="42.2078" lon="2.498762">
        <ele>363</ele>
        <time>2019-08-19T05:05:31Z</time>
      </trkpt>
      <trkpt lat="42.207798" lon="2.498733">
        <ele>363</ele>
        <time>2019-08-19T05:05:32Z</time>
      </trkpt>
      <trkpt lat="42.207796" lon="2.498703">
        <ele>364</ele>
        <time>2019-08-19T05:05:33Z</time>
      </trkpt>
      <trkpt lat="42.207792" lon="2.498651">
        <ele>364</ele>
        <time>2019-08-19T05:05:34Z</time>
      </trkpt>
      <trkpt lat="42.207791" lon="2.498617">
        <ele>364</ele>
        <time>2019-08-19T05:05:35Z</time>
      </trkpt>
      <trkpt lat="42.20779" lon="2.498582">
        <ele>364</ele>
        <time>2019-08-19T05:05:36Z</time>
      </trkpt>
      <trkpt lat="42.207789" lon="2.498548">
        <ele>364</ele>
        <time>2019-08-19T05:05:37Z</time>
      </trkpt>
      <trkpt lat="42.207788" lon="2.498513">
        <ele>364</ele>
        <time>2019-08-19T05:05:39Z</time>
      </trkpt>
      <trkpt lat="42.207787" lon="2.498479">
        <ele>364</ele>
        <time>2019-08-19T05:05:40Z</time>
      </trkpt>
      <trkpt lat="42.207786" lon="2.498444">
        <ele>364</ele>
        <time>2019-08-19T05:05:41Z</time>
      </trkpt>
      <trkpt lat="42.207785" lon="2.49841">
        <ele>364</ele>
        <time>2019-08-19T05:05:42Z</time>
      </trkpt>
      <trkpt lat="42.207784" lon="2.498375">
        <ele>367</ele>
        <time>2019-08-19T05:05:43Z</time>
      </trkpt>
      <trkpt lat="42.207791" lon="2.498316">
        <ele>367</ele>
        <time>2019-08-19T05:05:44Z</time>
      </trkpt>
      <trkpt lat="42.207801" lon="2.49829">
        <ele>367</ele>
        <time>2019-08-19T05:05:45Z</time>
      </trkpt>
      <trkpt lat="42.207811" lon="2.498265">
        <ele>367</ele>
        <time>2019-08-19T05:05:46Z</time>
      </trkpt>
      <trkpt lat="42.207821" lon="2.49824">
        <ele>367</ele>
        <time>2019-08-19T05:05:47Z</time>
      </trkpt>
      <trkpt lat="42.207832" lon="2.498215">
        <ele>367</ele>
        <time>2019-08-19T05:05:48Z</time>
      </trkpt>
      <trkpt lat="42.207842" lon="2.498189">
        <ele>367</ele>
        <time>2019-08-19T05:05:49Z</time>
      </trkpt>
      <trkpt lat="42.207852" lon="2.498164">
        <ele>367</ele>
        <time>2019-08-19T05:05:50Z</time>
      </trkpt>
      <trkpt lat="42.207862" lon="2.498139">
        <ele>367</ele>
        <time>2019-08-19T05:05:51Z</time>
      </trkpt>
      <trkpt lat="42.207872" lon="2.498113">
        <ele>367</ele>
        <time>2019-08-19T05:05:52Z</time>
      </trkpt>
      <trkpt lat="42.207882" lon="2.498088">
        <ele>369</ele>
        <time>2019-08-19T05:05:53Z</time>
      </trkpt>
      <trkpt lat="42.20792" lon="2.498038">
        <ele>369</ele>
        <time>2019-08-19T05:05:54Z</time>
      </trkpt>
      <trkpt lat="42.207934" lon="2.498005">
        <ele>369</ele>
        <time>2019-08-19T05:05:55Z</time>
      </trkpt>
      <trkpt lat="42.207948" lon="2.497971">
        <ele>369</ele>
        <time>2019-08-19T05:05:56Z</time>
      </trkpt>
      <trkpt lat="42.207962" lon="2.497938">
        <ele>369</ele>
        <time>2019-08-19T05:05:58Z</time>
      </trkpt>
      <trkpt lat="42.207976" lon="2.497904">
        <ele>369</ele>
        <time>2019-08-19T05:05:59Z</time>
      </trkpt>
      <trkpt lat="42.20799" lon="2.497871">
        <ele>369</ele>
        <time>2019-08-19T05:06:00Z</time>
      </trkpt>
      <trkpt lat="42.208004" lon="2.497837">
        <ele>369</ele>
        <time>2019-08-19T05:06:01Z</time>
      </trkpt>
      <trkpt lat="42.208018" lon="2.497804">
        <ele>369</ele>
        <time>2019-08-19T05:06:02Z</time>
      </trkpt>
      <trkpt lat="42.208032" lon="2.49777">
        <ele>369</ele>
        <time>2019-08-19T05:06:03Z</time>
      </trkpt>
      <trkpt lat="42.20803" lon="2.497731">
        <ele>369</ele>
        <time>2019-08-19T05:06:04Z</time>
      </trkpt>
      <trkpt lat="42.208023" lon="2.497693">
        <ele>369</ele>
        <time>2019-08-19T05:06:05Z</time>
      </trkpt>
      <trkpt lat="42.208014" lon="2.497655">
        <ele>369</ele>
        <time>2019-08-19T05:06:06Z</time>
      </trkpt>
      <trkpt lat="42.208007" lon="2.497621">
        <ele>369</ele>
        <time>2019-08-19T05:06:07Z</time>
      </trkpt>
      <trkpt lat="42.208005" lon="2.497594">
        <ele>369</ele>
        <time>2019-08-19T05:06:08Z</time>
      </trkpt>
      <trkpt lat="42.208009" lon="2.497565">
        <ele>369</ele>
        <time>2019-08-19T05:06:10Z</time>
      </trkpt>
      <trkpt lat="42.208009" lon="2.497565">
        <ele>369</ele>
        <time>2019-08-19T05:06:13Z</time>
      </trkpt>
      <trkpt lat="42.207977" lon="2.497562">
        <ele>369</ele>
        <time>2019-08-19T05:06:16Z</time>
      </trkpt>
      <trkpt lat="42.207944" lon="2.497559">
        <ele>369</ele>
        <time>2019-08-19T05:15:14Z</time>
      </trkpt>
      <trkpt lat="42.207912" lon="2.497556">
        <ele>369</ele>
        <time>2019-08-19T05:15:16Z</time>
      </trkpt>
      <trkpt lat="42.207879" lon="2.497553">
        <ele>369</ele>
        <time>2019-08-19T05:15:17Z</time>
      </trkpt>
      <trkpt lat="42.207847" lon="2.49755">
        <ele>369</ele>
        <time>2019-08-19T05:15:18Z</time>
      </trkpt>
      <trkpt lat="42.207815" lon="2.497548">
        <ele>369</ele>
        <time>2019-08-19T05:15:19Z</time>
      </trkpt>
      <trkpt lat="42.207782" lon="2.497545">
        <ele>369</ele>
        <time>2019-08-19T05:15:20Z</time>
      </trkpt>
      <trkpt lat="42.20775" lon="2.497542">
        <ele>369</ele>
        <time>2019-08-19T05:15:21Z</time>
      </trkpt>
      <trkpt lat="42.207717" lon="2.497539">
        <ele>369</ele>
        <time>2019-08-19T05:15:22Z</time>
      </trkpt>
      <trkpt lat="42.207685" lon="2.497536">
        <ele>370</ele>
        <time>2019-08-19T05:15:23Z</time>
      </trkpt>
      <trkpt lat="42.207639" lon="2.49753">
        <ele>370</ele>
        <time>2019-08-19T05:15:24Z</time>
      </trkpt>
      <trkpt lat="42.207623" lon="2.497519">
        <ele>370</ele>
        <time>2019-08-19T05:15:25Z</time>
      </trkpt>
      <trkpt lat="42.207608" lon="2.497508">
        <ele>370</ele>
        <time>2019-08-19T05:15:26Z</time>
      </trkpt>
      <trkpt lat="42.207593" lon="2.497497">
        <ele>370</ele>
        <time>2019-08-19T05:15:27Z</time>
      </trkpt>
      <trkpt lat="42.207577" lon="2.497487">
        <ele>370</ele>
        <time>2019-08-19T05:15:28Z</time>
      </trkpt>
      <trkpt lat="42.207562" lon="2.497476">
        <ele>370</ele>
        <time>2019-08-19T05:15:29Z</time>
      </trkpt>
      <trkpt lat="42.207547" lon="2.497465">
        <ele>370</ele>
        <time>2019-08-19T05:15:30Z</time>
      </trkpt>
      <trkpt lat="42.207531" lon="2.497454">
        <ele>370</ele>
        <time>2019-08-19T05:15:32Z</time>
      </trkpt>
      <trkpt lat="42.207516" lon="2.497443">
        <ele>371</ele>
        <time>2019-08-19T05:15:33Z</time>
      </trkpt>
      <trkpt lat="42.207535" lon="2.497439">
        <ele>371</ele>
        <time>2019-08-19T05:15:36Z</time>
      </trkpt>
      <trkpt lat="42.207553" lon="2.497432">
        <ele>374</ele>
        <time>2019-08-19T05:19:20Z</time>
      </trkpt>
      <trkpt lat="42.20757" lon="2.497426">
        <ele>374</ele>
        <time>2019-08-19T05:19:23Z</time>
      </trkpt>
      <trkpt lat="42.207588" lon="2.497419">
        <ele>377</ele>
        <time>2019-08-19T05:25:34Z</time>
      </trkpt>
      <trkpt lat="42.207606" lon="2.497413">
        <ele>377</ele>
        <time>2019-08-19T05:25:37Z</time>
      </trkpt>
      <trkpt lat="42.207624" lon="2.497406">
        <ele>377</ele>
        <time>2019-08-19T05:25:42Z</time>
      </trkpt>
      <trkpt lat="42.207642" lon="2.4974">
        <ele>378</ele>
        <time>2019-08-19T05:26:39Z</time>
      </trkpt>
      <trkpt lat="42.207659" lon="2.497393">
        <ele>378</ele>
        <time>2019-08-19T05:26:41Z</time>
      </trkpt>
      <trkpt lat="42.207677" lon="2.497387">
        <ele>378</ele>
        <time>2019-08-19T05:26:43Z</time>
      </trkpt>
      <trkpt lat="42.207695" lon="2.49738">
        <ele>378</ele>
        <time>2019-08-19T05:26:44Z</time>
      </trkpt>
      <trkpt lat="42.207713" lon="2.497374">
        <ele>378</ele>
        <time>2019-08-19T05:26:45Z</time>
      </trkpt>
      <trkpt lat="42.207731" lon="2.497367">
        <ele>378</ele>
        <time>2019-08-19T05:26:46Z</time>
      </trkpt>
      <trkpt lat="42.207748" lon="2.497361">
        <ele>378</ele>
        <time>2019-08-19T05:26:47Z</time>
      </trkpt>
      <trkpt lat="42.207766" lon="2.497354">
        <ele>378</ele>
        <time>2019-08-19T05:26:48Z</time>
      </trkpt>
      <trkpt lat="42.207784" lon="2.497348">
        <ele>379</ele>
        <time>2019-08-19T05:26:49Z</time>
      </trkpt>
      <trkpt lat="42.207823" lon="2.497302">
        <ele>379</ele>
        <time>2019-08-19T05:26:50Z</time>
      </trkpt>
      <trkpt lat="42.207842" lon="2.497285">
        <ele>379</ele>
        <time>2019-08-19T05:26:51Z</time>
      </trkpt>
      <trkpt lat="42.20786" lon="2.497268">
        <ele>379</ele>
        <time>2019-08-19T05:26:52Z</time>
      </trkpt>
      <trkpt lat="42.207879" lon="2.497251">
        <ele>379</ele>
        <time>2019-08-19T05:26:53Z</time>
      </trkpt>
      <trkpt lat="42.207898" lon="2.497233">
        <ele>379</ele>
        <time>2019-08-19T05:26:54Z</time>
      </trkpt>
      <trkpt lat="42.207917" lon="2.497216">
        <ele>379</ele>
        <time>2019-08-19T05:26:55Z</time>
      </trkpt>
      <trkpt lat="42.207935" lon="2.497199">
        <ele>379</ele>
        <time>2019-08-19T05:26:57Z</time>
      </trkpt>
      <trkpt lat="42.207954" lon="2.497182">
        <ele>378</ele>
        <time>2019-08-19T05:26:59Z</time>
      </trkpt>
      <trkpt lat="42.207998" lon="2.497114">
        <ele>378</ele>
        <time>2019-08-19T05:27:00Z</time>
      </trkpt>
      <trkpt lat="42.208005" lon="2.497082">
        <ele>378</ele>
        <time>2019-08-19T05:27:01Z</time>
      </trkpt>
      <trkpt lat="42.208013" lon="2.49705">
        <ele>378</ele>
        <time>2019-08-19T05:27:02Z</time>
      </trkpt>
      <trkpt lat="42.20802" lon="2.497018">
        <ele>378</ele>
        <time>2019-08-19T05:27:03Z</time>
      </trkpt>
      <trkpt lat="42.208028" lon="2.496986">
        <ele>378</ele>
        <time>2019-08-19T05:27:04Z</time>
      </trkpt>
      <trkpt lat="42.208036" lon="2.496953">
        <ele>378</ele>
        <time>2019-08-19T05:27:05Z</time>
      </trkpt>
      <trkpt lat="42.208043" lon="2.496921">
        <ele>378</ele>
        <time>2019-08-19T05:27:06Z</time>
      </trkpt>
      <trkpt lat="42.208051" lon="2.496889">
        <ele>378</ele>
        <time>2019-08-19T05:27:07Z</time>
      </trkpt>
      <trkpt lat="42.208058" lon="2.496857">
        <ele>378</ele>
        <time>2019-08-19T05:27:08Z</time>
      </trkpt>
      <trkpt lat="42.208066" lon="2.496825">
        <ele>377</ele>
        <time>2019-08-19T05:27:09Z</time>
      </trkpt>
      <trkpt lat="42.208071" lon="2.496752">
        <ele>377</ele>
        <time>2019-08-19T05:27:10Z</time>
      </trkpt>
      <trkpt lat="42.208074" lon="2.496702">
        <ele>377</ele>
        <time>2019-08-19T05:27:11Z</time>
      </trkpt>
      <trkpt lat="42.208078" lon="2.496652">
        <ele>377</ele>
        <time>2019-08-19T05:27:12Z</time>
      </trkpt>
      <trkpt lat="42.208081" lon="2.496602">
        <ele>377</ele>
        <time>2019-08-19T05:27:13Z</time>
      </trkpt>
      <trkpt lat="42.208084" lon="2.496553">
        <ele>377</ele>
        <time>2019-08-19T05:27:14Z</time>
      </trkpt>
      <trkpt lat="42.208087" lon="2.496503">
        <ele>377</ele>
        <time>2019-08-19T05:27:15Z</time>
      </trkpt>
      <trkpt lat="42.208091" lon="2.496453">
        <ele>377</ele>
        <time>2019-08-19T05:27:16Z</time>
      </trkpt>
      <trkpt lat="42.208094" lon="2.496403">
        <ele>377</ele>
        <time>2019-08-19T05:27:18Z</time>
      </trkpt>
      <trkpt lat="42.208097" lon="2.496353">
        <ele>377</ele>
        <time>2019-08-19T05:27:19Z</time>
      </trkpt>
      <trkpt lat="42.208101" lon="2.496249">
        <ele>377</ele>
        <time>2019-08-19T05:27:20Z</time>
      </trkpt>
      <trkpt lat="42.208103" lon="2.496196">
        <ele>377</ele>
        <time>2019-08-19T05:27:21Z</time>
      </trkpt>
      <trkpt lat="42.208105" lon="2.496144">
        <ele>377</ele>
        <time>2019-08-19T05:27:22Z</time>
      </trkpt>
      <trkpt lat="42.208107" lon="2.496091">
        <ele>377</ele>
        <time>2019-08-19T05:27:23Z</time>
      </trkpt>
      <trkpt lat="42.208109" lon="2.496039">
        <ele>377</ele>
        <time>2019-08-19T05:27:24Z</time>
      </trkpt>
      <trkpt lat="42.20811" lon="2.495987">
        <ele>377</ele>
        <time>2019-08-19T05:27:25Z</time>
      </trkpt>
      <trkpt lat="42.208112" lon="2.495934">
        <ele>377</ele>
        <time>2019-08-19T05:27:26Z</time>
      </trkpt>
      <trkpt lat="42.208114" lon="2.495882">
        <ele>377</ele>
        <time>2019-08-19T05:27:27Z</time>
      </trkpt>
      <trkpt lat="42.208116" lon="2.495829">
        <ele>377</ele>
        <time>2019-08-19T05:27:28Z</time>
      </trkpt>
      <trkpt lat="42.208118" lon="2.495777">
        <ele>377</ele>
        <time>2019-08-19T05:27:29Z</time>
      </trkpt>
      <trkpt lat="42.208121" lon="2.495629">
        <ele>377</ele>
        <time>2019-08-19T05:27:30Z</time>
      </trkpt>
      <trkpt lat="42.208122" lon="2.495571">
        <ele>377</ele>
        <time>2019-08-19T05:27:31Z</time>
      </trkpt>
      <trkpt lat="42.208123" lon="2.495513">
        <ele>377</ele>
        <time>2019-08-19T05:27:32Z</time>
      </trkpt>
      <trkpt lat="42.208124" lon="2.495455">
        <ele>377</ele>
        <time>2019-08-19T05:27:33Z</time>
      </trkpt>
      <trkpt lat="42.208125" lon="2.495396">
        <ele>377</ele>
        <time>2019-08-19T05:27:34Z</time>
      </trkpt>
      <trkpt lat="42.208126" lon="2.495338">
        <ele>377</ele>
        <time>2019-08-19T05:27:35Z</time>
      </trkpt>
      <trkpt lat="42.208127" lon="2.49528">
        <ele>377</ele>
        <time>2019-08-19T05:27:36Z</time>
      </trkpt>
      <trkpt lat="42.208128" lon="2.495222">
        <ele>377</ele>
        <time>2019-08-19T05:27:37Z</time>
      </trkpt>
      <trkpt lat="42.208129" lon="2.495164">
        <ele>378</ele>
        <time>2019-08-19T05:27:39Z</time>
      </trkpt>
      <trkpt lat="42.208131" lon="2.495063">
        <ele>378</ele>
        <time>2019-08-19T05:27:40Z</time>
      </trkpt>
      <trkpt lat="42.208132" lon="2.495004">
        <ele>378</ele>
        <time>2019-08-19T05:27:41Z</time>
      </trkpt>
      <trkpt lat="42.208133" lon="2.494944">
        <ele>378</ele>
        <time>2019-08-19T05:27:42Z</time>
      </trkpt>
      <trkpt lat="42.208134" lon="2.494885">
        <ele>378</ele>
        <time>2019-08-19T05:27:43Z</time>
      </trkpt>
      <trkpt lat="42.208135" lon="2.494826">
        <ele>378</ele>
        <time>2019-08-19T05:27:44Z</time>
      </trkpt>
      <trkpt lat="42.208136" lon="2.494767">
        <ele>378</ele>
        <time>2019-08-19T05:27:45Z</time>
      </trkpt>
      <trkpt lat="42.208137" lon="2.494708">
        <ele>378</ele>
        <time>2019-08-19T05:27:46Z</time>
      </trkpt>
      <trkpt lat="42.208138" lon="2.494648">
        <ele>378</ele>
        <time>2019-08-19T05:27:47Z</time>
      </trkpt>
      <trkpt lat="42.208139" lon="2.494589">
        <ele>378</ele>
        <time>2019-08-19T05:27:48Z</time>
      </trkpt>
      <trkpt lat="42.20814" lon="2.49453">
        <ele>378</ele>
        <time>2019-08-19T05:27:49Z</time>
      </trkpt>
      <trkpt lat="42.208143" lon="2.494394">
        <ele>378</ele>
        <time>2019-08-19T05:27:50Z</time>
      </trkpt>
      <trkpt lat="42.208144" lon="2.494327">
        <ele>378</ele>
        <time>2019-08-19T05:27:51Z</time>
      </trkpt>
      <trkpt lat="42.208146" lon="2.494259">
        <ele>378</ele>
        <time>2019-08-19T05:27:52Z</time>
      </trkpt>
      <trkpt lat="42.208147" lon="2.494191">
        <ele>378</ele>
        <time>2019-08-19T05:27:53Z</time>
      </trkpt>
      <trkpt lat="42.208149" lon="2.494124">
        <ele>378</ele>
        <time>2019-08-19T05:27:54Z</time>
      </trkpt>
      <trkpt lat="42.208151" lon="2.494056">
        <ele>378</ele>
        <time>2019-08-19T05:27:55Z</time>
      </trkpt>
      <trkpt lat="42.208152" lon="2.493988">
        <ele>378</ele>
        <time>2019-08-19T05:27:56Z</time>
      </trkpt>
      <trkpt lat="42.208154" lon="2.49392">
        <ele>378</ele>
        <time>2019-08-19T05:27:57Z</time>
      </trkpt>
      <trkpt lat="42.208155" lon="2.493853">
        <ele>378</ele>
        <time>2019-08-19T05:27:58Z</time>
      </trkpt>
      <trkpt lat="42.208157" lon="2.493785">
        <ele>379</ele>
        <time>2019-08-19T05:27:59Z</time>
      </trkpt>
      <trkpt lat="42.208165" lon="2.493622">
        <ele>379</ele>
        <time>2019-08-19T05:28:01Z</time>
      </trkpt>
      <trkpt lat="42.20817" lon="2.493553">
        <ele>379</ele>
        <time>2019-08-19T05:28:02Z</time>
      </trkpt>
      <trkpt lat="42.208174" lon="2.493483">
        <ele>379</ele>
        <time>2019-08-19T05:28:03Z</time>
      </trkpt>
      <trkpt lat="42.208178" lon="2.493414">
        <ele>379</ele>
        <time>2019-08-19T05:28:04Z</time>
      </trkpt>
      <trkpt lat="42.208182" lon="2.493344">
        <ele>379</ele>
        <time>2019-08-19T05:28:05Z</time>
      </trkpt>
      <trkpt lat="42.208187" lon="2.493274">
        <ele>379</ele>
        <time>2019-08-19T05:28:06Z</time>
      </trkpt>
      <trkpt lat="42.208191" lon="2.493205">
        <ele>379</ele>
        <time>2019-08-19T05:28:08Z</time>
      </trkpt>
      <trkpt lat="42.208195" lon="2.493135">
        <ele>379</ele>
        <time>2019-08-19T05:28:09Z</time>
      </trkpt>
      <trkpt lat="42.208207" lon="2.492978">
        <ele>379</ele>
        <time>2019-08-19T05:28:10Z</time>
      </trkpt>
      <trkpt lat="42.208212" lon="2.492916">
        <ele>379</ele>
        <time>2019-08-19T05:28:12Z</time>
      </trkpt>
      <trkpt lat="42.208216" lon="2.492853">
        <ele>379</ele>
        <time>2019-08-19T05:28:13Z</time>
      </trkpt>
      <trkpt lat="42.208221" lon="2.49279">
        <ele>379</ele>
        <time>2019-08-19T05:28:14Z</time>
      </trkpt>
      <trkpt lat="42.208226" lon="2.492727">
        <ele>379</ele>
        <time>2019-08-19T05:28:15Z</time>
      </trkpt>
      <trkpt lat="42.208231" lon="2.492665">
        <ele>379</ele>
        <time>2019-08-19T05:28:17Z</time>
      </trkpt>
      <trkpt lat="42.208235" lon="2.492602">
        <ele>379</ele>
        <time>2019-08-19T05:28:18Z</time>
      </trkpt>
      <trkpt lat="42.20824" lon="2.492539">
        <ele>379</ele>
        <time>2019-08-19T05:28:19Z</time>
      </trkpt>
      <trkpt lat="42.208253" lon="2.492359">
        <ele>379</ele>
        <time>2019-08-19T05:28:20Z</time>
      </trkpt>
      <trkpt lat="42.208261" lon="2.492245">
        <ele>379</ele>
        <time>2019-08-19T05:28:21Z</time>
      </trkpt>
      <trkpt lat="42.20827" lon="2.492132">
        <ele>379</ele>
        <time>2019-08-19T05:28:23Z</time>
      </trkpt>
      <trkpt lat="42.208278" lon="2.492018">
        <ele>379</ele>
        <time>2019-08-19T05:28:25Z</time>
      </trkpt>
      <trkpt lat="42.208286" lon="2.491905">
        <ele>379</ele>
        <time>2019-08-19T05:28:27Z</time>
      </trkpt>
      <trkpt lat="42.208294" lon="2.491791">
        <ele>379</ele>
        <time>2019-08-19T05:28:29Z</time>
      </trkpt>
      <trkpt lat="42.208309" lon="2.491591">
        <ele>379</ele>
        <time>2019-08-19T05:28:31Z</time>
      </trkpt>
      <trkpt lat="42.208315" lon="2.4915">
        <ele>379</ele>
        <time>2019-08-19T05:28:32Z</time>
      </trkpt>
      <trkpt lat="42.208322" lon="2.49141">
        <ele>379</ele>
        <time>2019-08-19T05:28:34Z</time>
      </trkpt>
      <trkpt lat="42.208329" lon="2.491319">
        <ele>379</ele>
        <time>2019-08-19T05:28:35Z</time>
      </trkpt>
      <trkpt lat="42.208336" lon="2.491229">
        <ele>379</ele>
        <time>2019-08-19T05:28:37Z</time>
      </trkpt>
      <trkpt lat="42.208342" lon="2.491138">
        <ele>379</ele>
        <time>2019-08-19T05:28:38Z</time>
      </trkpt>
      <trkpt lat="42.208349" lon="2.491048">
        <ele>379</ele>
        <time>2019-08-19T05:28:39Z</time>
      </trkpt>
      <trkpt lat="42.208357" lon="2.490919">
        <ele>379</ele>
        <time>2019-08-19T05:28:40Z</time>
      </trkpt>
      <trkpt lat="42.208364" lon="2.490829">
        <ele>379</ele>
        <time>2019-08-19T05:28:41Z</time>
      </trkpt>
      <trkpt lat="42.20837" lon="2.490739">
        <ele>379</ele>
        <time>2019-08-19T05:28:42Z</time>
      </trkpt>
      <trkpt lat="42.208376" lon="2.490649">
        <ele>379</ele>
        <time>2019-08-19T05:28:44Z</time>
      </trkpt>
      <trkpt lat="42.208382" lon="2.490558">
        <ele>379</ele>
        <time>2019-08-19T05:28:45Z</time>
      </trkpt>
      <trkpt lat="42.208389" lon="2.490468">
        <ele>379</ele>
        <time>2019-08-19T05:28:47Z</time>
      </trkpt>
      <trkpt lat="42.208395" lon="2.490378">
        <ele>379</ele>
        <time>2019-08-19T05:28:48Z</time>
      </trkpt>
      <trkpt lat="42.208401" lon="2.490288">
        <ele>379</ele>
        <time>2019-08-19T05:28:49Z</time>
      </trkpt>
      <trkpt lat="42.208424" lon="2.489955">
        <ele>379</ele>
        <time>2019-08-19T05:28:51Z</time>
      </trkpt>
      <trkpt lat="42.208431" lon="2.489855">
        <ele>379</ele>
        <time>2019-08-19T05:28:53Z</time>
      </trkpt>
      <trkpt lat="42.208439" lon="2.489755">
        <ele>379</ele>
        <time>2019-08-19T05:28:54Z</time>
      </trkpt>
      <trkpt lat="42.208447" lon="2.489655">
        <ele>379</ele>
        <time>2019-08-19T05:28:55Z</time>
      </trkpt>
      <trkpt lat="42.208455" lon="2.489555">
        <ele>379</ele>
        <time>2019-08-19T05:28:56Z</time>
      </trkpt>
      <trkpt lat="42.208462" lon="2.489455">
        <ele>379</ele>
        <time>2019-08-19T05:28:58Z</time>
      </trkpt>
      <trkpt lat="42.20847" lon="2.489355">
        <ele>378</ele>
        <time>2019-08-19T05:28:59Z</time>
      </trkpt>
      <trkpt lat="42.208495" lon="2.489016">
        <ele>378</ele>
        <time>2019-08-19T05:29:01Z</time>
      </trkpt>
      <trkpt lat="42.208505" lon="2.48889">
        <ele>378</ele>
        <time>2019-08-19T05:29:02Z</time>
      </trkpt>
      <trkpt lat="42.208514" lon="2.488764">
        <ele>378</ele>
        <time>2019-08-19T05:29:03Z</time>
      </trkpt>
      <trkpt lat="42.208524" lon="2.488639">
        <ele>378</ele>
        <time>2019-08-19T05:29:04Z</time>
      </trkpt>
      <trkpt lat="42.208534" lon="2.488513">
        <ele>378</ele>
        <time>2019-08-19T05:29:05Z</time>
      </trkpt>
      <trkpt lat="42.208544" lon="2.488387">
        <ele>378</ele>
        <time>2019-08-19T05:29:06Z</time>
      </trkpt>
      <trkpt lat="42.208553" lon="2.488261">
        <ele>378</ele>
        <time>2019-08-19T05:29:07Z</time>
      </trkpt>
      <trkpt lat="42.208563" lon="2.488135">
        <ele>376</ele>
        <time>2019-08-19T05:29:09Z</time>
      </trkpt>
      <trkpt lat="42.208593" lon="2.487745">
        <ele>376</ele>
        <time>2019-08-19T05:29:11Z</time>
      </trkpt>
      <trkpt lat="42.208604" lon="2.487585">
        <ele>376</ele>
        <time>2019-08-19T05:29:12Z</time>
      </trkpt>
      <trkpt lat="42.208616" lon="2.487424">
        <ele>376</ele>
        <time>2019-08-19T05:29:14Z</time>
      </trkpt>
      <trkpt lat="42.208628" lon="2.487263">
        <ele>376</ele>
        <time>2019-08-19T05:29:15Z</time>
      </trkpt>
      <trkpt lat="42.208639" lon="2.487103">
        <ele>376</ele>
        <time>2019-08-19T05:29:17Z</time>
      </trkpt>
      <trkpt lat="42.208651" lon="2.486942">
        <ele>374</ele>
        <time>2019-08-19T05:29:19Z</time>
      </trkpt>
      <trkpt lat="42.20866" lon="2.486814">
        <ele>374</ele>
        <time>2019-08-19T05:29:20Z</time>
      </trkpt>
      <trkpt lat="42.208669" lon="2.48668">
        <ele>374</ele>
        <time>2019-08-19T05:29:21Z</time>
      </trkpt>
      <trkpt lat="42.208677" lon="2.486543">
        <ele>374</ele>
        <time>2019-08-19T05:29:22Z</time>
      </trkpt>
      <trkpt lat="42.208687" lon="2.486403">
        <ele>374</ele>
        <time>2019-08-19T05:29:23Z</time>
      </trkpt>
      <trkpt lat="42.208694" lon="2.48626">
        <ele>374</ele>
        <time>2019-08-19T05:29:24Z</time>
      </trkpt>
      <trkpt lat="42.208703" lon="2.486114">
        <ele>374</ele>
        <time>2019-08-19T05:29:26Z</time>
      </trkpt>
      <trkpt lat="42.208716" lon="2.485968">
        <ele>374</ele>
        <time>2019-08-19T05:29:27Z</time>
      </trkpt>
      <trkpt lat="42.208728" lon="2.485821">
        <ele>374</ele>
        <time>2019-08-19T05:29:28Z</time>
      </trkpt>
      <trkpt lat="42.208745" lon="2.485568">
        <ele>374</ele>
        <time>2019-08-19T05:29:29Z</time>
      </trkpt>
      <trkpt lat="42.208751" lon="2.485461">
        <ele>370</ele>
        <time>2019-08-19T05:29:30Z</time>
      </trkpt>
      <trkpt lat="42.208773" lon="2.485124">
        <ele>370</ele>
        <time>2019-08-19T05:29:31Z</time>
      </trkpt>
      <trkpt lat="42.208782" lon="2.485001">
        <ele>370</ele>
        <time>2019-08-19T05:29:33Z</time>
      </trkpt>
      <trkpt lat="42.208791" lon="2.484878">
        <ele>370</ele>
        <time>2019-08-19T05:29:34Z</time>
      </trkpt>
      <trkpt lat="42.2088" lon="2.484755">
        <ele>370</ele>
        <time>2019-08-19T05:29:35Z</time>
      </trkpt>
      <trkpt lat="42.208809" lon="2.484632">
        <ele>370</ele>
        <time>2019-08-19T05:29:36Z</time>
      </trkpt>
      <trkpt lat="42.208818" lon="2.484509">
        <ele>370</ele>
        <time>2019-08-19T05:29:37Z</time>
      </trkpt>
      <trkpt lat="42.208827" lon="2.484386">
        <ele>370</ele>
        <time>2019-08-19T05:29:38Z</time>
      </trkpt>
      <trkpt lat="42.208836" lon="2.484263">
        <ele>368</ele>
        <time>2019-08-19T05:29:39Z</time>
      </trkpt>
      <trkpt lat="42.208861" lon="2.483984">
        <ele>368</ele>
        <time>2019-08-19T05:29:40Z</time>
      </trkpt>
      <trkpt lat="42.208869" lon="2.48389">
        <ele>368</ele>
        <time>2019-08-19T05:29:41Z</time>
      </trkpt>
      <trkpt lat="42.208876" lon="2.483795">
        <ele>368</ele>
        <time>2019-08-19T05:29:42Z</time>
      </trkpt>
      <trkpt lat="42.208884" lon="2.483701">
        <ele>368</ele>
        <time>2019-08-19T05:29:43Z</time>
      </trkpt>
      <trkpt lat="42.208891" lon="2.483606">
        <ele>368</ele>
        <time>2019-08-19T05:29:44Z</time>
      </trkpt>
      <trkpt lat="42.208899" lon="2.483512">
        <ele>368</ele>
        <time>2019-08-19T05:29:45Z</time>
      </trkpt>
      <trkpt lat="42.208906" lon="2.483417">
        <ele>368</ele>
        <time>2019-08-19T05:29:47Z</time>
      </trkpt>
      <trkpt lat="42.208914" lon="2.483323">
        <ele>368</ele>
        <time>2019-08-19T05:29:48Z</time>
      </trkpt>
      <trkpt lat="42.208921" lon="2.483228">
        <ele>368</ele>
        <time>2019-08-19T05:29:49Z</time>
      </trkpt>
      <trkpt lat="42.208934" lon="2.483049">
        <ele>368</ele>
        <time>2019-08-19T05:29:50Z</time>
      </trkpt>
      <trkpt lat="42.208939" lon="2.482968">
        <ele>368</ele>
        <time>2019-08-19T05:29:51Z</time>
      </trkpt>
      <trkpt lat="42.208945" lon="2.482886">
        <ele>368</ele>
        <time>2019-08-19T05:29:52Z</time>
      </trkpt>
      <trkpt lat="42.208951" lon="2.482805">
        <ele>368</ele>
        <time>2019-08-19T05:29:53Z</time>
      </trkpt>
      <trkpt lat="42.208956" lon="2.482724">
        <ele>368</ele>
        <time>2019-08-19T05:29:54Z</time>
      </trkpt>
      <trkpt lat="42.208962" lon="2.482643">
        <ele>368</ele>
        <time>2019-08-19T05:29:55Z</time>
      </trkpt>
      <trkpt lat="42.208967" lon="2.482562">
        <ele>368</ele>
        <time>2019-08-19T05:29:56Z</time>
      </trkpt>
      <trkpt lat="42.208973" lon="2.482481">
        <ele>368</ele>
        <time>2019-08-19T05:29:57Z</time>
      </trkpt>
      <trkpt lat="42.208979" lon="2.482399">
        <ele>368</ele>
        <time>2019-08-19T05:29:58Z</time>
      </trkpt>
      <trkpt lat="42.208984" lon="2.482318">
        <ele>368</ele>
        <time>2019-08-19T05:29:59Z</time>
      </trkpt>
      <trkpt lat="42.20899" lon="2.482237">
        <ele>368</ele>
        <time>2019-08-19T05:30:00Z</time>
      </trkpt>
      <trkpt lat="42.209011" lon="2.481963">
        <ele>368</ele>
        <time>2019-08-19T05:30:02Z</time>
      </trkpt>
      <trkpt lat="42.20902" lon="2.481862">
        <ele>368</ele>
        <time>2019-08-19T05:30:03Z</time>
      </trkpt>
      <trkpt lat="42.209028" lon="2.481761">
        <ele>368</ele>
        <time>2019-08-19T05:30:04Z</time>
      </trkpt>
      <trkpt lat="42.209037" lon="2.48166">
        <ele>368</ele>
        <time>2019-08-19T05:30:05Z</time>
      </trkpt>
      <trkpt lat="42.209045" lon="2.481558">
        <ele>368</ele>
        <time>2019-08-19T05:30:06Z</time>
      </trkpt>
      <trkpt lat="42.209053" lon="2.481457">
        <ele>368</ele>
        <time>2019-08-19T05:30:07Z</time>
      </trkpt>
      <trkpt lat="42.209062" lon="2.481356">
        <ele>368</ele>
        <time>2019-08-19T05:30:08Z</time>
      </trkpt>
      <trkpt lat="42.20907" lon="2.481255">
        <ele>368</ele>
        <time>2019-08-19T05:30:10Z</time>
      </trkpt>
      <trkpt lat="42.209084" lon="2.481084">
        <ele>368</ele>
        <time>2019-08-19T05:30:11Z</time>
      </trkpt>
      <trkpt lat="42.20909" lon="2.481005">
        <ele>368</ele>
        <time>2019-08-19T05:30:12Z</time>
      </trkpt>
      <trkpt lat="42.209096" lon="2.480925">
        <ele>368</ele>
        <time>2019-08-19T05:30:13Z</time>
      </trkpt>
      <trkpt lat="42.209102" lon="2.480845">
        <ele>368</ele>
        <time>2019-08-19T05:30:14Z</time>
      </trkpt>
      <trkpt lat="42.209107" lon="2.480766">
        <ele>368</ele>
        <time>2019-08-19T05:30:15Z</time>
      </trkpt>
      <trkpt lat="42.209113" lon="2.480686">
        <ele>368</ele>
        <time>2019-08-19T05:30:16Z</time>
      </trkpt>
      <trkpt lat="42.209119" lon="2.480606">
        <ele>368</ele>
        <time>2019-08-19T05:30:17Z</time>
      </trkpt>
      <trkpt lat="42.209125" lon="2.480527">
        <ele>368</ele>
        <time>2019-08-19T05:30:18Z</time>
      </trkpt>
      <trkpt lat="42.209131" lon="2.480447">
        <ele>368</ele>
        <time>2019-08-19T05:30:19Z</time>
      </trkpt>
      <trkpt lat="42.209142" lon="2.480302">
        <ele>368</ele>
        <time>2019-08-19T05:30:20Z</time>
      </trkpt>
      <trkpt lat="42.209149" lon="2.480207">
        <ele>368</ele>
        <time>2019-08-19T05:30:21Z</time>
      </trkpt>
      <trkpt lat="42.209155" lon="2.480113">
        <ele>368</ele>
        <time>2019-08-19T05:30:22Z</time>
      </trkpt>
      <trkpt lat="42.209162" lon="2.480018">
        <ele>368</ele>
        <time>2019-08-19T05:30:23Z</time>
      </trkpt>
      <trkpt lat="42.209169" lon="2.479923">
        <ele>368</ele>
        <time>2019-08-19T05:30:24Z</time>
      </trkpt>
      <trkpt lat="42.209176" lon="2.479828">
        <ele>368</ele>
        <time>2019-08-19T05:30:25Z</time>
      </trkpt>
      <trkpt lat="42.209183" lon="2.479733">
        <ele>368</ele>
        <time>2019-08-19T05:30:26Z</time>
      </trkpt>
      <trkpt lat="42.209189" lon="2.479639">
        <ele>368</ele>
        <time>2019-08-19T05:30:27Z</time>
      </trkpt>
      <trkpt lat="42.209196" lon="2.479544">
        <ele>368</ele>
        <time>2019-08-19T05:30:28Z</time>
      </trkpt>
      <trkpt lat="42.209203" lon="2.479449">
        <ele>367</ele>
        <time>2019-08-19T05:30:29Z</time>
      </trkpt>
      <trkpt lat="42.209221" lon="2.479202">
        <ele>367</ele>
        <time>2019-08-19T05:30:30Z</time>
      </trkpt>
      <trkpt lat="42.209229" lon="2.479102">
        <ele>367</ele>
        <time>2019-08-19T05:30:32Z</time>
      </trkpt>
      <trkpt lat="42.209236" lon="2.479003">
        <ele>367</ele>
        <time>2019-08-19T05:30:34Z</time>
      </trkpt>
      <trkpt lat="42.209244" lon="2.478904">
        <ele>367</ele>
        <time>2019-08-19T05:30:35Z</time>
      </trkpt>
      <trkpt lat="42.209252" lon="2.478804">
        <ele>367</ele>
        <time>2019-08-19T05:30:36Z</time>
      </trkpt>
      <trkpt lat="42.20926" lon="2.478705">
        <ele>367</ele>
        <time>2019-08-19T05:30:37Z</time>
      </trkpt>
      <trkpt lat="42.209267" lon="2.478605">
        <ele>367</ele>
        <time>2019-08-19T05:30:38Z</time>
      </trkpt>
      <trkpt lat="42.209275" lon="2.478506">
        <ele>365</ele>
        <time>2019-08-19T05:30:39Z</time>
      </trkpt>
      <trkpt lat="42.209289" lon="2.478303">
        <ele>365</ele>
        <time>2019-08-19T05:30:40Z</time>
      </trkpt>
      <trkpt lat="42.209298" lon="2.478196">
        <ele>365</ele>
        <time>2019-08-19T05:30:41Z</time>
      </trkpt>
      <trkpt lat="42.209306" lon="2.47809">
        <ele>365</ele>
        <time>2019-08-19T05:30:42Z</time>
      </trkpt>
      <trkpt lat="42.209314" lon="2.477983">
        <ele>365</ele>
        <time>2019-08-19T05:30:44Z</time>
      </trkpt>
      <trkpt lat="42.209322" lon="2.477877">
        <ele>365</ele>
        <time>2019-08-19T05:30:46Z</time>
      </trkpt>
      <trkpt lat="42.209331" lon="2.47777">
        <ele>365</ele>
        <time>2019-08-19T05:30:47Z</time>
      </trkpt>
      <trkpt lat="42.209339" lon="2.477664">
        <ele>365</ele>
        <time>2019-08-19T05:30:48Z</time>
      </trkpt>
      <trkpt lat="42.209347" lon="2.477557">
        <ele>365</ele>
        <time>2019-08-19T05:30:49Z</time>
      </trkpt>
      <trkpt lat="42.209363" lon="2.477338">
        <ele>365</ele>
        <time>2019-08-19T05:30:50Z</time>
      </trkpt>
      <trkpt lat="42.20937" lon="2.477244">
        <ele>365</ele>
        <time>2019-08-19T05:30:51Z</time>
      </trkpt>
      <trkpt lat="42.209377" lon="2.47715">
        <ele>365</ele>
        <time>2019-08-19T05:30:52Z</time>
      </trkpt>
      <trkpt lat="42.209383" lon="2.477057">
        <ele>365</ele>
        <time>2019-08-19T05:30:54Z</time>
      </trkpt>
      <trkpt lat="42.20939" lon="2.476963">
        <ele>365</ele>
        <time>2019-08-19T05:30:56Z</time>
      </trkpt>
      <trkpt lat="42.209397" lon="2.476869">
        <ele>365</ele>
        <time>2019-08-19T05:30:58Z</time>
      </trkpt>
      <trkpt lat="42.209404" lon="2.476775">
        <ele>364</ele>
        <time>2019-08-19T05:30:59Z</time>
      </trkpt>
      <trkpt lat="42.209417" lon="2.476593">
        <ele>364</ele>
        <time>2019-08-19T05:31:00Z</time>
      </trkpt>
      <trkpt lat="42.209424" lon="2.476495">
        <ele>364</ele>
        <time>2019-08-19T05:31:01Z</time>
      </trkpt>
      <trkpt lat="42.209432" lon="2.476397">
        <ele>364</ele>
        <time>2019-08-19T05:31:02Z</time>
      </trkpt>
      <trkpt lat="42.209439" lon="2.4763">
        <ele>364</ele>
        <time>2019-08-19T05:31:03Z</time>
      </trkpt>
      <trkpt lat="42.209447" lon="2.476202">
        <ele>364</ele>
        <time>2019-08-19T05:31:04Z</time>
      </trkpt>
      <trkpt lat="42.209454" lon="2.476104">
        <ele>364</ele>
        <time>2019-08-19T05:31:06Z</time>
      </trkpt>
      <trkpt lat="42.209462" lon="2.476006">
        <ele>364</ele>
        <time>2019-08-19T05:31:08Z</time>
      </trkpt>
      <trkpt lat="42.209469" lon="2.475908">
        <ele>364</ele>
        <time>2019-08-19T05:31:09Z</time>
      </trkpt>
      <trkpt lat="42.209482" lon="2.47573">
        <ele>364</ele>
        <time>2019-08-19T05:31:10Z</time>
      </trkpt>
      <trkpt lat="42.209489" lon="2.47564">
        <ele>364</ele>
        <time>2019-08-19T05:31:11Z</time>
      </trkpt>
      <trkpt lat="42.209495" lon="2.475551">
        <ele>364</ele>
        <time>2019-08-19T05:31:12Z</time>
      </trkpt>
      <trkpt lat="42.209501" lon="2.475461">
        <ele>364</ele>
        <time>2019-08-19T05:31:14Z</time>
      </trkpt>
      <trkpt lat="42.209508" lon="2.475372">
        <ele>364</ele>
        <time>2019-08-19T05:31:15Z</time>
      </trkpt>
      <trkpt lat="42.209514" lon="2.475282">
        <ele>364</ele>
        <time>2019-08-19T05:31:16Z</time>
      </trkpt>
      <trkpt lat="42.20952" lon="2.475193">
        <ele>364</ele>
        <time>2019-08-19T05:31:17Z</time>
      </trkpt>
      <trkpt lat="42.209527" lon="2.475103">
        <ele>364</ele>
        <time>2019-08-19T05:31:18Z</time>
      </trkpt>
      <trkpt lat="42.209533" lon="2.475014">
        <ele>364</ele>
        <time>2019-08-19T05:31:19Z</time>
      </trkpt>
      <trkpt lat="42.209555" lon="2.474727">
        <ele>364</ele>
        <time>2019-08-19T05:31:21Z</time>
      </trkpt>
      <trkpt lat="42.209562" lon="2.474619">
        <ele>364</ele>
        <time>2019-08-19T05:31:22Z</time>
      </trkpt>
      <trkpt lat="42.20957" lon="2.474512">
        <ele>364</ele>
        <time>2019-08-19T05:31:23Z</time>
      </trkpt>
      <trkpt lat="42.209578" lon="2.474404">
        <ele>364</ele>
        <time>2019-08-19T05:31:24Z</time>
      </trkpt>
      <trkpt lat="42.209586" lon="2.474297">
        <ele>364</ele>
        <time>2019-08-19T05:31:25Z</time>
      </trkpt>
      <trkpt lat="42.209593" lon="2.474189">
        <ele>364</ele>
        <time>2019-08-19T05:31:27Z</time>
      </trkpt>
      <trkpt lat="42.209601" lon="2.474082">
        <ele>364</ele>
        <time>2019-08-19T05:31:29Z</time>
      </trkpt>
      <trkpt lat="42.209614" lon="2.473918">
        <ele>364</ele>
        <time>2019-08-19T05:31:30Z</time>
      </trkpt>
      <trkpt lat="42.209622" lon="2.473816">
        <ele>364</ele>
        <time>2019-08-19T05:31:31Z</time>
      </trkpt>
      <trkpt lat="42.20963" lon="2.473713">
        <ele>364</ele>
        <time>2019-08-19T05:31:33Z</time>
      </trkpt>
      <trkpt lat="42.209638" lon="2.47361">
        <ele>364</ele>
        <time>2019-08-19T05:31:34Z</time>
      </trkpt>
      <trkpt lat="42.209645" lon="2.473507">
        <ele>364</ele>
        <time>2019-08-19T05:31:36Z</time>
      </trkpt>
      <trkpt lat="42.209653" lon="2.473405">
        <ele>364</ele>
        <time>2019-08-19T05:31:37Z</time>
      </trkpt>
      <trkpt lat="42.209661" lon="2.473302">
        <ele>364</ele>
        <time>2019-08-19T05:31:38Z</time>
      </trkpt>
      <trkpt lat="42.209669" lon="2.473199">
        <ele>363</ele>
        <time>2019-08-19T05:31:39Z</time>
      </trkpt>
      <trkpt lat="42.209684" lon="2.473004">
        <ele>363</ele>
        <time>2019-08-19T05:31:40Z</time>
      </trkpt>
      <trkpt lat="42.209691" lon="2.472901">
        <ele>363</ele>
        <time>2019-08-19T05:31:41Z</time>
      </trkpt>
      <trkpt lat="42.209699" lon="2.472798">
        <ele>363</ele>
        <time>2019-08-19T05:31:42Z</time>
      </trkpt>
      <trkpt lat="42.209706" lon="2.472695">
        <ele>363</ele>
        <time>2019-08-19T05:31:44Z</time>
      </trkpt>
      <trkpt lat="42.209714" lon="2.472591">
        <ele>363</ele>
        <time>2019-08-19T05:31:46Z</time>
      </trkpt>
      <trkpt lat="42.209721" lon="2.472488">
        <ele>363</ele>
        <time>2019-08-19T05:31:47Z</time>
      </trkpt>
      <trkpt lat="42.209729" lon="2.472385">
        <ele>363</ele>
        <time>2019-08-19T05:31:48Z</time>
      </trkpt>
      <trkpt lat="42.209736" lon="2.472282">
        <ele>363</ele>
        <time>2019-08-19T05:31:49Z</time>
      </trkpt>
      <trkpt lat="42.209744" lon="2.472179">
        <ele>363</ele>
        <time>2019-08-19T05:31:50Z</time>
      </trkpt>
      <trkpt lat="42.209766" lon="2.471899">
        <ele>363</ele>
        <time>2019-08-19T05:31:52Z</time>
      </trkpt>
      <trkpt lat="42.209776" lon="2.471807">
        <ele>363</ele>
        <time>2019-08-19T05:31:53Z</time>
      </trkpt>
      <trkpt lat="42.209787" lon="2.471715">
        <ele>363</ele>
        <time>2019-08-19T05:31:54Z</time>
      </trkpt>
      <trkpt lat="42.209797" lon="2.471622">
        <ele>363</ele>
        <time>2019-08-19T05:31:55Z</time>
      </trkpt>
      <trkpt lat="42.209808" lon="2.47153">
        <ele>363</ele>
        <time>2019-08-19T05:31:56Z</time>
      </trkpt>
      <trkpt lat="42.209818" lon="2.471438">
        <ele>363</ele>
        <time>2019-08-19T05:31:58Z</time>
      </trkpt>
      <trkpt lat="42.209829" lon="2.471346">
        <ele>363</ele>
        <time>2019-08-19T05:31:59Z</time>
      </trkpt>
      <trkpt lat="42.209855" lon="2.471171">
        <ele>363</ele>
        <time>2019-08-19T05:32:00Z</time>
      </trkpt>
      <trkpt lat="42.209858" lon="2.471084">
        <ele>363</ele>
        <time>2019-08-19T05:32:01Z</time>
      </trkpt>
      <trkpt lat="42.20986" lon="2.470996">
        <ele>363</ele>
        <time>2019-08-19T05:32:02Z</time>
      </trkpt>
      <trkpt lat="42.209862" lon="2.470909">
        <ele>363</ele>
        <time>2019-08-19T05:32:03Z</time>
      </trkpt>
      <trkpt lat="42.209865" lon="2.470822">
        <ele>363</ele>
        <time>2019-08-19T05:32:04Z</time>
      </trkpt>
      <trkpt lat="42.209867" lon="2.470735">
        <ele>363</ele>
        <time>2019-08-19T05:32:05Z</time>
      </trkpt>
      <trkpt lat="42.209869" lon="2.470648">
        <ele>363</ele>
        <time>2019-08-19T05:32:06Z</time>
      </trkpt>
      <trkpt lat="42.209871" lon="2.47056">
        <ele>363</ele>
        <time>2019-08-19T05:32:07Z</time>
      </trkpt>
      <trkpt lat="42.209874" lon="2.470473">
        <ele>363</ele>
        <time>2019-08-19T05:32:08Z</time>
      </trkpt>
      <trkpt lat="42.209876" lon="2.470386">
        <ele>363</ele>
        <time>2019-08-19T05:32:09Z</time>
      </trkpt>
      <trkpt lat="42.209889" lon="2.470207">
        <ele>363</ele>
        <time>2019-08-19T05:32:10Z</time>
      </trkpt>
      <trkpt lat="42.209896" lon="2.470112">
        <ele>363</ele>
        <time>2019-08-19T05:32:12Z</time>
      </trkpt>
      <trkpt lat="42.209903" lon="2.470017">
        <ele>363</ele>
        <time>2019-08-19T05:32:13Z</time>
      </trkpt>
      <trkpt lat="42.20991" lon="2.469922">
        <ele>363</ele>
        <time>2019-08-19T05:32:14Z</time>
      </trkpt>
      <trkpt lat="42.209916" lon="2.469827">
        <ele>363</ele>
        <time>2019-08-19T05:32:15Z</time>
      </trkpt>
      <trkpt lat="42.209923" lon="2.469732">
        <ele>363</ele>
        <time>2019-08-19T05:32:16Z</time>
      </trkpt>
      <trkpt lat="42.20993" lon="2.469637">
        <ele>363</ele>
        <time>2019-08-19T05:32:17Z</time>
      </trkpt>
      <trkpt lat="42.209937" lon="2.469542">
        <ele>363</ele>
        <time>2019-08-19T05:32:18Z</time>
      </trkpt>
      <trkpt lat="42.209944" lon="2.469447">
        <ele>363</ele>
        <time>2019-08-19T05:32:20Z</time>
      </trkpt>
      <trkpt lat="42.209959" lon="2.469245">
        <ele>363</ele>
        <time>2019-08-19T05:32:21Z</time>
      </trkpt>
      <trkpt lat="42.209967" lon="2.469129">
        <ele>363</ele>
        <time>2019-08-19T05:32:23Z</time>
      </trkpt>
      <trkpt lat="42.209976" lon="2.469014">
        <ele>363</ele>
        <time>2019-08-19T05:32:25Z</time>
      </trkpt>
      <trkpt lat="42.209984" lon="2.468898">
        <ele>363</ele>
        <time>2019-08-19T05:32:26Z</time>
      </trkpt>
      <trkpt lat="42.209993" lon="2.468783">
        <ele>363</ele>
        <time>2019-08-19T05:32:27Z</time>
      </trkpt>
      <trkpt lat="42.210001" lon="2.468667">
        <ele>363</ele>
        <time>2019-08-19T05:32:29Z</time>
      </trkpt>
      <trkpt lat="42.210013" lon="2.468515">
        <ele>363</ele>
        <time>2019-08-19T05:32:30Z</time>
      </trkpt>
      <trkpt lat="42.210018" lon="2.468447">
        <ele>363</ele>
        <time>2019-08-19T05:32:31Z</time>
      </trkpt>
      <trkpt lat="42.210024" lon="2.46838">
        <ele>363</ele>
        <time>2019-08-19T05:32:32Z</time>
      </trkpt>
      <trkpt lat="42.210029" lon="2.468312">
        <ele>363</ele>
        <time>2019-08-19T05:32:33Z</time>
      </trkpt>
      <trkpt lat="42.210034" lon="2.468244">
        <ele>363</ele>
        <time>2019-08-19T05:32:34Z</time>
      </trkpt>
      <trkpt lat="42.210039" lon="2.468176">
        <ele>363</ele>
        <time>2019-08-19T05:32:35Z</time>
      </trkpt>
      <trkpt lat="42.210044" lon="2.468108">
        <ele>363</ele>
        <time>2019-08-19T05:32:36Z</time>
      </trkpt>
      <trkpt lat="42.21005" lon="2.468041">
        <ele>363</ele>
        <time>2019-08-19T05:32:37Z</time>
      </trkpt>
      <trkpt lat="42.210055" lon="2.467973">
        <ele>363</ele>
        <time>2019-08-19T05:32:38Z</time>
      </trkpt>
      <trkpt lat="42.21006" lon="2.467905">
        <ele>363</ele>
        <time>2019-08-19T05:32:39Z</time>
      </trkpt>
      <trkpt lat="42.210068" lon="2.467787">
        <ele>363</ele>
        <time>2019-08-19T05:32:40Z</time>
      </trkpt>
      <trkpt lat="42.210074" lon="2.467708">
        <ele>363</ele>
        <time>2019-08-19T05:32:41Z</time>
      </trkpt>
      <trkpt lat="42.210079" lon="2.467629">
        <ele>363</ele>
        <time>2019-08-19T05:32:42Z</time>
      </trkpt>
      <trkpt lat="42.210085" lon="2.46755">
        <ele>363</ele>
        <time>2019-08-19T05:32:43Z</time>
      </trkpt>
      <trkpt lat="42.210091" lon="2.467471">
        <ele>363</ele>
        <time>2019-08-19T05:32:45Z</time>
      </trkpt>
      <trkpt lat="42.210097" lon="2.467392">
        <ele>363</ele>
        <time>2019-08-19T05:32:46Z</time>
      </trkpt>
      <trkpt lat="42.210102" lon="2.467313">
        <ele>363</ele>
        <time>2019-08-19T05:32:47Z</time>
      </trkpt>
      <trkpt lat="42.210108" lon="2.467234">
        <ele>363</ele>
        <time>2019-08-19T05:32:48Z</time>
      </trkpt>
      <trkpt lat="42.210114" lon="2.467155">
        <ele>364</ele>
        <time>2019-08-19T05:32:49Z</time>
      </trkpt>
      <trkpt lat="42.210123" lon="2.467038">
        <ele>364</ele>
        <time>2019-08-19T05:32:50Z</time>
      </trkpt>
      <trkpt lat="42.210128" lon="2.466958">
        <ele>364</ele>
        <time>2019-08-19T05:32:51Z</time>
      </trkpt>
      <trkpt lat="42.210134" lon="2.466878">
        <ele>364</ele>
        <time>2019-08-19T05:32:52Z</time>
      </trkpt>
      <trkpt lat="42.210139" lon="2.466798">
        <ele>364</ele>
        <time>2019-08-19T05:32:54Z</time>
      </trkpt>
      <trkpt lat="42.210145" lon="2.466717">
        <ele>364</ele>
        <time>2019-08-19T05:32:55Z</time>
      </trkpt>
      <trkpt lat="42.21015" lon="2.466637">
        <ele>364</ele>
        <time>2019-08-19T05:32:56Z</time>
      </trkpt>
      <trkpt lat="42.210156" lon="2.466557">
        <ele>364</ele>
        <time>2019-08-19T05:32:57Z</time>
      </trkpt>
      <trkpt lat="42.210161" lon="2.466477">
        <ele>364</ele>
        <time>2019-08-19T05:32:58Z</time>
      </trkpt>
      <trkpt lat="42.210167" lon="2.466397">
        <ele>364</ele>
        <time>2019-08-19T05:32:59Z</time>
      </trkpt>
      <trkpt lat="42.21018" lon="2.466209">
        <ele>364</ele>
        <time>2019-08-19T05:33:00Z</time>
      </trkpt>
      <trkpt lat="42.210185" lon="2.466138">
        <ele>364</ele>
        <time>2019-08-19T05:33:02Z</time>
      </trkpt>
      <trkpt lat="42.21019" lon="2.466066">
        <ele>364</ele>
        <time>2019-08-19T05:33:03Z</time>
      </trkpt>
      <trkpt lat="42.210195" lon="2.465995">
        <ele>364</ele>
        <time>2019-08-19T05:33:04Z</time>
      </trkpt>
      <trkpt lat="42.2102" lon="2.465924">
        <ele>364</ele>
        <time>2019-08-19T05:33:05Z</time>
      </trkpt>
      <trkpt lat="42.210205" lon="2.465853">
        <ele>364</ele>
        <time>2019-08-19T05:33:06Z</time>
      </trkpt>
      <trkpt lat="42.21021" lon="2.465781">
        <ele>364</ele>
        <time>2019-08-19T05:33:07Z</time>
      </trkpt>
      <trkpt lat="42.210215" lon="2.46571">
        <ele>364</ele>
        <time>2019-08-19T05:33:08Z</time>
      </trkpt>
      <trkpt lat="42.21022" lon="2.465639">
        <ele>365</ele>
        <time>2019-08-19T05:33:09Z</time>
      </trkpt>
      <trkpt lat="42.21024" lon="2.465379">
        <ele>365</ele>
        <time>2019-08-19T05:33:11Z</time>
      </trkpt>
      <trkpt lat="42.210247" lon="2.465283">
        <ele>365</ele>
        <time>2019-08-19T05:33:12Z</time>
      </trkpt>
      <trkpt lat="42.210254" lon="2.465187">
        <ele>365</ele>
        <time>2019-08-19T05:33:13Z</time>
      </trkpt>
      <trkpt lat="42.210261" lon="2.465091">
        <ele>365</ele>
        <time>2019-08-19T05:33:14Z</time>
      </trkpt>
      <trkpt lat="42.210268" lon="2.464995">
        <ele>365</ele>
        <time>2019-08-19T05:33:15Z</time>
      </trkpt>
      <trkpt lat="42.210275" lon="2.464899">
        <ele>365</ele>
        <time>2019-08-19T05:33:16Z</time>
      </trkpt>
      <trkpt lat="42.210282" lon="2.464803">
        <ele>365</ele>
        <time>2019-08-19T05:33:17Z</time>
      </trkpt>
      <trkpt lat="42.210289" lon="2.464707">
        <ele>364</ele>
        <time>2019-08-19T05:33:19Z</time>
      </trkpt>
      <trkpt lat="42.2103" lon="2.464549">
        <ele>364</ele>
        <time>2019-08-19T05:33:20Z</time>
      </trkpt>
      <trkpt lat="42.210306" lon="2.464478">
        <ele>364</ele>
        <time>2019-08-19T05:33:21Z</time>
      </trkpt>
      <trkpt lat="42.210311" lon="2.464407">
        <ele>364</ele>
        <time>2019-08-19T05:33:22Z</time>
      </trkpt>
      <trkpt lat="42.210316" lon="2.464336">
        <ele>364</ele>
        <time>2019-08-19T05:33:23Z</time>
      </trkpt>
      <trkpt lat="42.210322" lon="2.464266">
        <ele>364</ele>
        <time>2019-08-19T05:33:24Z</time>
      </trkpt>
      <trkpt lat="42.210327" lon="2.464195">
        <ele>364</ele>
        <time>2019-08-19T05:33:25Z</time>
      </trkpt>
      <trkpt lat="42.210332" lon="2.464124">
        <ele>364</ele>
        <time>2019-08-19T05:33:26Z</time>
      </trkpt>
      <trkpt lat="42.210337" lon="2.464053">
        <ele>364</ele>
        <time>2019-08-19T05:33:27Z</time>
      </trkpt>
      <trkpt lat="42.210343" lon="2.463982">
        <ele>364</ele>
        <time>2019-08-19T05:33:28Z</time>
      </trkpt>
      <trkpt lat="42.210348" lon="2.463911">
        <ele>364</ele>
        <time>2019-08-19T05:33:29Z</time>
      </trkpt>
      <trkpt lat="42.210357" lon="2.463785">
        <ele>364</ele>
        <time>2019-08-19T05:33:30Z</time>
      </trkpt>
      <trkpt lat="42.210363" lon="2.463698">
        <ele>364</ele>
        <time>2019-08-19T05:33:31Z</time>
      </trkpt>
      <trkpt lat="42.21037" lon="2.46361">
        <ele>364</ele>
        <time>2019-08-19T05:33:32Z</time>
      </trkpt>
      <trkpt lat="42.210376" lon="2.463523">
        <ele>364</ele>
        <time>2019-08-19T05:33:33Z</time>
      </trkpt>
      <trkpt lat="42.210383" lon="2.463436">
        <ele>364</ele>
        <time>2019-08-19T05:33:35Z</time>
      </trkpt>
      <trkpt lat="42.210389" lon="2.463349">
        <ele>364</ele>
        <time>2019-08-19T05:33:37Z</time>
      </trkpt>
      <trkpt lat="42.210396" lon="2.463261">
        <ele>364</ele>
        <time>2019-08-19T05:33:38Z</time>
      </trkpt>
      <trkpt lat="42.210402" lon="2.463174">
        <ele>365</ele>
        <time>2019-08-19T05:33:39Z</time>
      </trkpt>
      <trkpt lat="42.21041" lon="2.463048">
        <ele>365</ele>
        <time>2019-08-19T05:33:40Z</time>
      </trkpt>
      <trkpt lat="42.210417" lon="2.462959">
        <ele>365</ele>
        <time>2019-08-19T05:33:41Z</time>
      </trkpt>
      <trkpt lat="42.210423" lon="2.46287">
        <ele>365</ele>
        <time>2019-08-19T05:33:42Z</time>
      </trkpt>
      <trkpt lat="42.21043" lon="2.462781">
        <ele>365</ele>
        <time>2019-08-19T05:33:43Z</time>
      </trkpt>
      <trkpt lat="42.210436" lon="2.462691">
        <ele>365</ele>
        <time>2019-08-19T05:33:45Z</time>
      </trkpt>
      <trkpt lat="42.210442" lon="2.462602">
        <ele>365</ele>
        <time>2019-08-19T05:33:46Z</time>
      </trkpt>
      <trkpt lat="42.210449" lon="2.462513">
        <ele>365</ele>
        <time>2019-08-19T05:33:48Z</time>
      </trkpt>
      <trkpt lat="42.210455" lon="2.462424">
        <ele>366</ele>
        <time>2019-08-19T05:33:49Z</time>
      </trkpt>
      <trkpt lat="42.210465" lon="2.462286">
        <ele>366</ele>
        <time>2019-08-19T05:33:50Z</time>
      </trkpt>
      <trkpt lat="42.210472" lon="2.462185">
        <ele>366</ele>
        <time>2019-08-19T05:33:51Z</time>
      </trkpt>
      <trkpt lat="42.210479" lon="2.462085">
        <ele>366</ele>
        <time>2019-08-19T05:33:52Z</time>
      </trkpt>
      <trkpt lat="42.210487" lon="2.461985">
        <ele>366</ele>
        <time>2019-08-19T05:33:54Z</time>
      </trkpt>
      <trkpt lat="42.210494" lon="2.461884">
        <ele>366</ele>
        <time>2019-08-19T05:33:55Z</time>
      </trkpt>
      <trkpt lat="42.210501" lon="2.461784">
        <ele>366</ele>
        <time>2019-08-19T05:33:57Z</time>
      </trkpt>
      <trkpt lat="42.210508" lon="2.461683">
        <ele>366</ele>
        <time>2019-08-19T05:33:58Z</time>
      </trkpt>
      <trkpt lat="42.210515" lon="2.461583">
        <ele>366</ele>
        <time>2019-08-19T05:33:59Z</time>
      </trkpt>
      <trkpt lat="42.210528" lon="2.461392">
        <ele>366</ele>
        <time>2019-08-19T05:34:00Z</time>
      </trkpt>
      <trkpt lat="42.210535" lon="2.461286">
        <ele>366</ele>
        <time>2019-08-19T05:34:02Z</time>
      </trkpt>
      <trkpt lat="42.210542" lon="2.461179">
        <ele>366</ele>
        <time>2019-08-19T05:34:03Z</time>
      </trkpt>
      <trkpt lat="42.210548" lon="2.461073">
        <ele>366</ele>
        <time>2019-08-19T05:34:05Z</time>
      </trkpt>
      <trkpt lat="42.210555" lon="2.460966">
        <ele>366</ele>
        <time>2019-08-19T05:34:07Z</time>
      </trkpt>
      <trkpt lat="42.210562" lon="2.46086">
        <ele>366</ele>
        <time>2019-08-19T05:34:08Z</time>
      </trkpt>
      <trkpt lat="42.210569" lon="2.460753">
        <ele>366</ele>
        <time>2019-08-19T05:34:09Z</time>
      </trkpt>
      <trkpt lat="42.210578" lon="2.460625">
        <ele>366</ele>
        <time>2019-08-19T05:34:10Z</time>
      </trkpt>
      <trkpt lat="42.210583" lon="2.460542">
        <ele>366</ele>
        <time>2019-08-19T05:34:11Z</time>
      </trkpt>
      <trkpt lat="42.210589" lon="2.46046">
        <ele>366</ele>
        <time>2019-08-19T05:34:12Z</time>
      </trkpt>
      <trkpt lat="42.210595" lon="2.460377">
        <ele>366</ele>
        <time>2019-08-19T05:34:13Z</time>
      </trkpt>
      <trkpt lat="42.210601" lon="2.460295">
        <ele>366</ele>
        <time>2019-08-19T05:34:14Z</time>
      </trkpt>
      <trkpt lat="42.210606" lon="2.460212">
        <ele>366</ele>
        <time>2019-08-19T05:34:15Z</time>
      </trkpt>
      <trkpt lat="42.210612" lon="2.46013">
        <ele>366</ele>
        <time>2019-08-19T05:34:16Z</time>
      </trkpt>
      <trkpt lat="42.210618" lon="2.460047">
        <ele>366</ele>
        <time>2019-08-19T05:34:17Z</time>
      </trkpt>
      <trkpt lat="42.210623" lon="2.459965">
        <ele>366</ele>
        <time>2019-08-19T05:34:18Z</time>
      </trkpt>
      <trkpt lat="42.210629" lon="2.459882">
        <ele>365</ele>
        <time>2019-08-19T05:34:19Z</time>
      </trkpt>
      <trkpt lat="42.210643" lon="2.459693">
        <ele>365</ele>
        <time>2019-08-19T05:34:20Z</time>
      </trkpt>
      <trkpt lat="42.21065" lon="2.4596">
        <ele>365</ele>
        <time>2019-08-19T05:34:21Z</time>
      </trkpt>
      <trkpt lat="42.210657" lon="2.459507">
        <ele>365</ele>
        <time>2019-08-19T05:34:22Z</time>
      </trkpt>
      <trkpt lat="42.210664" lon="2.459414">
        <ele>365</ele>
        <time>2019-08-19T05:34:23Z</time>
      </trkpt>
      <trkpt lat="42.210671" lon="2.459321">
        <ele>365</ele>
        <time>2019-08-19T05:34:24Z</time>
      </trkpt>
      <trkpt lat="42.210678" lon="2.459227">
        <ele>365</ele>
        <time>2019-08-19T05:34:25Z</time>
      </trkpt>
      <trkpt lat="42.210685" lon="2.459134">
        <ele>365</ele>
        <time>2019-08-19T05:34:26Z</time>
      </trkpt>
      <trkpt lat="42.210692" lon="2.459041">
        <ele>365</ele>
        <time>2019-08-19T05:34:27Z</time>
      </trkpt>
      <trkpt lat="42.210699" lon="2.458948">
        <ele>365</ele>
        <time>2019-08-19T05:34:28Z</time>
      </trkpt>
      <trkpt lat="42.210706" lon="2.458855">
        <ele>363</ele>
        <time>2019-08-19T05:34:29Z</time>
      </trkpt>
      <trkpt lat="42.210721" lon="2.458656">
        <ele>363</ele>
        <time>2019-08-19T05:34:30Z</time>
      </trkpt>
      <trkpt lat="42.210729" lon="2.45856">
        <ele>363</ele>
        <time>2019-08-19T05:34:31Z</time>
      </trkpt>
      <trkpt lat="42.210736" lon="2.458464">
        <ele>363</ele>
        <time>2019-08-19T05:34:32Z</time>
      </trkpt>
      <trkpt lat="42.210744" lon="2.458368">
        <ele>363</ele>
        <time>2019-08-19T05:34:34Z</time>
      </trkpt>
      <trkpt lat="42.210751" lon="2.458273">
        <ele>363</ele>
        <time>2019-08-19T05:34:35Z</time>
      </trkpt>
      <trkpt lat="42.210759" lon="2.458177">
        <ele>363</ele>
        <time>2019-08-19T05:34:36Z</time>
      </trkpt>
      <trkpt lat="42.210766" lon="2.458081">
        <ele>363</ele>
        <time>2019-08-19T05:34:37Z</time>
      </trkpt>
      <trkpt lat="42.210774" lon="2.457985">
        <ele>363</ele>
        <time>2019-08-19T05:34:38Z</time>
      </trkpt>
      <trkpt lat="42.210781" lon="2.457889">
        <ele>362</ele>
        <time>2019-08-19T05:34:39Z</time>
      </trkpt>
      <trkpt lat="42.210792" lon="2.457719">
        <ele>362</ele>
        <time>2019-08-19T05:34:40Z</time>
      </trkpt>
      <trkpt lat="42.210797" lon="2.457642">
        <ele>362</ele>
        <time>2019-08-19T05:34:41Z</time>
      </trkpt>
      <trkpt lat="42.210802" lon="2.457564">
        <ele>362</ele>
        <time>2019-08-19T05:34:42Z</time>
      </trkpt>
      <trkpt lat="42.210807" lon="2.457486">
        <ele>362</ele>
        <time>2019-08-19T05:34:43Z</time>
      </trkpt>
      <trkpt lat="42.210812" lon="2.457409">
        <ele>362</ele>
        <time>2019-08-19T05:34:44Z</time>
      </trkpt>
      <trkpt lat="42.210817" lon="2.457331">
        <ele>362</ele>
        <time>2019-08-19T05:34:45Z</time>
      </trkpt>
      <trkpt lat="42.210822" lon="2.457253">
        <ele>362</ele>
        <time>2019-08-19T05:34:46Z</time>
      </trkpt>
      <trkpt lat="42.210827" lon="2.457175">
        <ele>362</ele>
        <time>2019-08-19T05:34:47Z</time>
      </trkpt>
      <trkpt lat="42.210832" lon="2.457098">
        <ele>362</ele>
        <time>2019-08-19T05:34:48Z</time>
      </trkpt>
      <trkpt lat="42.210837" lon="2.45702">
        <ele>362</ele>
        <time>2019-08-19T05:34:49Z</time>
      </trkpt>
      <trkpt lat="42.210846" lon="2.456889">
        <ele>362</ele>
        <time>2019-08-19T05:34:50Z</time>
      </trkpt>
      <trkpt lat="42.210851" lon="2.456832">
        <ele>362</ele>
        <time>2019-08-19T05:34:51Z</time>
      </trkpt>
      <trkpt lat="42.210856" lon="2.456776">
        <ele>362</ele>
        <time>2019-08-19T05:34:52Z</time>
      </trkpt>
      <trkpt lat="42.210861" lon="2.456719">
        <ele>362</ele>
        <time>2019-08-19T05:34:53Z</time>
      </trkpt>
      <trkpt lat="42.210866" lon="2.456662">
        <ele>362</ele>
        <time>2019-08-19T05:34:54Z</time>
      </trkpt>
      <trkpt lat="42.21087" lon="2.456605">
        <ele>362</ele>
        <time>2019-08-19T05:34:55Z</time>
      </trkpt>
      <trkpt lat="42.210875" lon="2.456548">
        <ele>362</ele>
        <time>2019-08-19T05:34:56Z</time>
      </trkpt>
      <trkpt lat="42.21088" lon="2.456492">
        <ele>362</ele>
        <time>2019-08-19T05:34:57Z</time>
      </trkpt>
      <trkpt lat="42.210885" lon="2.456435">
        <ele>362</ele>
        <time>2019-08-19T05:34:58Z</time>
      </trkpt>
      <trkpt lat="42.21089" lon="2.456378">
        <ele>362</ele>
        <time>2019-08-19T05:34:59Z</time>
      </trkpt>
      <trkpt lat="42.210898" lon="2.45627">
        <ele>362</ele>
        <time>2019-08-19T05:35:00Z</time>
      </trkpt>
      <trkpt lat="42.210903" lon="2.45622">
        <ele>362</ele>
        <time>2019-08-19T05:35:01Z</time>
      </trkpt>
      <trkpt lat="42.210907" lon="2.456171">
        <ele>362</ele>
        <time>2019-08-19T05:35:02Z</time>
      </trkpt>
      <trkpt lat="42.210911" lon="2.456121">
        <ele>362</ele>
        <time>2019-08-19T05:35:03Z</time>
      </trkpt>
      <trkpt lat="42.210916" lon="2.456071">
        <ele>362</ele>
        <time>2019-08-19T05:35:04Z</time>
      </trkpt>
      <trkpt lat="42.21092" lon="2.456021">
        <ele>362</ele>
        <time>2019-08-19T05:35:05Z</time>
      </trkpt>
      <trkpt lat="42.210924" lon="2.455971">
        <ele>362</ele>
        <time>2019-08-19T05:35:06Z</time>
      </trkpt>
      <trkpt lat="42.210928" lon="2.455922">
        <ele>362</ele>
        <time>2019-08-19T05:35:07Z</time>
      </trkpt>
      <trkpt lat="42.210933" lon="2.455872">
        <ele>362</ele>
        <time>2019-08-19T05:35:08Z</time>
      </trkpt>
      <trkpt lat="42.210937" lon="2.455822">
        <ele>363</ele>
        <time>2019-08-19T05:35:09Z</time>
      </trkpt>
      <trkpt lat="42.210945" lon="2.455716">
        <ele>363</ele>
        <time>2019-08-19T05:35:10Z</time>
      </trkpt>
      <trkpt lat="42.210949" lon="2.455666">
        <ele>363</ele>
        <time>2019-08-19T05:35:11Z</time>
      </trkpt>
      <trkpt lat="42.210954" lon="2.455616">
        <ele>363</ele>
        <time>2019-08-19T05:35:12Z</time>
      </trkpt>
      <trkpt lat="42.210958" lon="2.455566">
        <ele>363</ele>
        <time>2019-08-19T05:35:13Z</time>
      </trkpt>
      <trkpt lat="42.210962" lon="2.455517">
        <ele>363</ele>
        <time>2019-08-19T05:35:14Z</time>
      </trkpt>
      <trkpt lat="42.210966" lon="2.455467">
        <ele>363</ele>
        <time>2019-08-19T05:35:15Z</time>
      </trkpt>
      <trkpt lat="42.21097" lon="2.455417">
        <ele>363</ele>
        <time>2019-08-19T05:35:16Z</time>
      </trkpt>
      <trkpt lat="42.210975" lon="2.455367">
        <ele>363</ele>
        <time>2019-08-19T05:35:17Z</time>
      </trkpt>
      <trkpt lat="42.210979" lon="2.455317">
        <ele>363</ele>
        <time>2019-08-19T05:35:18Z</time>
      </trkpt>
      <trkpt lat="42.210983" lon="2.455267">
        <ele>364</ele>
        <time>2019-08-19T05:35:19Z</time>
      </trkpt>
      <trkpt lat="42.210991" lon="2.455165">
        <ele>364</ele>
        <time>2019-08-19T05:35:20Z</time>
      </trkpt>
      <trkpt lat="42.210995" lon="2.455118">
        <ele>364</ele>
        <time>2019-08-19T05:35:21Z</time>
      </trkpt>
      <trkpt lat="42.210998" lon="2.455072">
        <ele>364</ele>
        <time>2019-08-19T05:35:22Z</time>
      </trkpt>
      <trkpt lat="42.211001" lon="2.455025">
        <ele>364</ele>
        <time>2019-08-19T05:35:23Z</time>
      </trkpt>
      <trkpt lat="42.211005" lon="2.454979">
        <ele>364</ele>
        <time>2019-08-19T05:35:24Z</time>
      </trkpt>
      <trkpt lat="42.211008" lon="2.454932">
        <ele>364</ele>
        <time>2019-08-19T05:35:25Z</time>
      </trkpt>
      <trkpt lat="42.211011" lon="2.454886">
        <ele>364</ele>
        <time>2019-08-19T05:35:26Z</time>
      </trkpt>
      <trkpt lat="42.211014" lon="2.454839">
        <ele>364</ele>
        <time>2019-08-19T05:35:27Z</time>
      </trkpt>
      <trkpt lat="42.211018" lon="2.454793">
        <ele>364</ele>
        <time>2019-08-19T05:35:28Z</time>
      </trkpt>
      <trkpt lat="42.211021" lon="2.454746">
        <ele>366</ele>
        <time>2019-08-19T05:35:29Z</time>
      </trkpt>
      <trkpt lat="42.211029" lon="2.45466">
        <ele>366</ele>
        <time>2019-08-19T05:35:30Z</time>
      </trkpt>
      <trkpt lat="42.211033" lon="2.45462">
        <ele>366</ele>
        <time>2019-08-19T05:35:31Z</time>
      </trkpt>
      <trkpt lat="42.211036" lon="2.454579">
        <ele>366</ele>
        <time>2019-08-19T05:35:32Z</time>
      </trkpt>
      <trkpt lat="42.21104" lon="2.454538">
        <ele>366</ele>
        <time>2019-08-19T05:35:33Z</time>
      </trkpt>
      <trkpt lat="42.211043" lon="2.454498">
        <ele>366</ele>
        <time>2019-08-19T05:35:34Z</time>
      </trkpt>
      <trkpt lat="42.211046" lon="2.454457">
        <ele>366</ele>
        <time>2019-08-19T05:35:35Z</time>
      </trkpt>
      <trkpt lat="42.21105" lon="2.454416">
        <ele>366</ele>
        <time>2019-08-19T05:35:36Z</time>
      </trkpt>
      <trkpt lat="42.211053" lon="2.454375">
        <ele>366</ele>
        <time>2019-08-19T05:35:37Z</time>
      </trkpt>
      <trkpt lat="42.211057" lon="2.454335">
        <ele>366</ele>
        <time>2019-08-19T05:35:38Z</time>
      </trkpt>
      <trkpt lat="42.21106" lon="2.454294">
        <ele>368</ele>
        <time>2019-08-19T05:35:39Z</time>
      </trkpt>
      <trkpt lat="42.211061" lon="2.454204">
        <ele>368</ele>
        <time>2019-08-19T05:35:40Z</time>
      </trkpt>
      <trkpt lat="42.211064" lon="2.454163">
        <ele>368</ele>
        <time>2019-08-19T05:35:41Z</time>
      </trkpt>
      <trkpt lat="42.211068" lon="2.454121">
        <ele>368</ele>
        <time>2019-08-19T05:35:42Z</time>
      </trkpt>
      <trkpt lat="42.211071" lon="2.454079">
        <ele>368</ele>
        <time>2019-08-19T05:35:43Z</time>
      </trkpt>
      <trkpt lat="42.211074" lon="2.454038">
        <ele>368</ele>
        <time>2019-08-19T05:35:44Z</time>
      </trkpt>
      <trkpt lat="42.211077" lon="2.453996">
        <ele>368</ele>
        <time>2019-08-19T05:35:45Z</time>
      </trkpt>
      <trkpt lat="42.21108" lon="2.453954">
        <ele>368</ele>
        <time>2019-08-19T05:35:46Z</time>
      </trkpt>
      <trkpt lat="42.211084" lon="2.453912">
        <ele>368</ele>
        <time>2019-08-19T05:35:47Z</time>
      </trkpt>
      <trkpt lat="42.211087" lon="2.453871">
        <ele>368</ele>
        <time>2019-08-19T05:35:48Z</time>
      </trkpt>
      <trkpt lat="42.21109" lon="2.453829">
        <ele>369</ele>
        <time>2019-08-19T05:35:49Z</time>
      </trkpt>
      <trkpt lat="42.2111" lon="2.453741">
        <ele>369</ele>
        <time>2019-08-19T05:35:50Z</time>
      </trkpt>
      <trkpt lat="42.211105" lon="2.453699">
        <ele>369</ele>
        <time>2019-08-19T05:35:51Z</time>
      </trkpt>
      <trkpt lat="42.211111" lon="2.453658">
        <ele>369</ele>
        <time>2019-08-19T05:35:52Z</time>
      </trkpt>
      <trkpt lat="42.211116" lon="2.453616">
        <ele>369</ele>
        <time>2019-08-19T05:35:53Z</time>
      </trkpt>
      <trkpt lat="42.211121" lon="2.453575">
        <ele>369</ele>
        <time>2019-08-19T05:35:54Z</time>
      </trkpt>
      <trkpt lat="42.211126" lon="2.453533">
        <ele>369</ele>
        <time>2019-08-19T05:35:55Z</time>
      </trkpt>
      <trkpt lat="42.211131" lon="2.453492">
        <ele>369</ele>
        <time>2019-08-19T05:35:56Z</time>
      </trkpt>
      <trkpt lat="42.211137" lon="2.45345">
        <ele>369</ele>
        <time>2019-08-19T05:35:57Z</time>
      </trkpt>
      <trkpt lat="42.211142" lon="2.453409">
        <ele>369</ele>
        <time>2019-08-19T05:35:58Z</time>
      </trkpt>
      <trkpt lat="42.211147" lon="2.453367">
        <ele>370</ele>
        <time>2019-08-19T05:35:59Z</time>
      </trkpt>
      <trkpt lat="42.211166" lon="2.453275">
        <ele>370</ele>
        <time>2019-08-19T05:36:00Z</time>
      </trkpt>
      <trkpt lat="42.211174" lon="2.453229">
        <ele>370</ele>
        <time>2019-08-19T05:36:01Z</time>
      </trkpt>
      <trkpt lat="42.211183" lon="2.453184">
        <ele>370</ele>
        <time>2019-08-19T05:36:02Z</time>
      </trkpt>
      <trkpt lat="42.211192" lon="2.453138">
        <ele>370</ele>
        <time>2019-08-19T05:36:03Z</time>
      </trkpt>
      <trkpt lat="42.211201" lon="2.453092">
        <ele>370</ele>
        <time>2019-08-19T05:36:04Z</time>
      </trkpt>
      <trkpt lat="42.211209" lon="2.453046">
        <ele>370</ele>
        <time>2019-08-19T05:36:05Z</time>
      </trkpt>
      <trkpt lat="42.211218" lon="2.453">
        <ele>370</ele>
        <time>2019-08-19T05:36:06Z</time>
      </trkpt>
      <trkpt lat="42.211227" lon="2.452955">
        <ele>370</ele>
        <time>2019-08-19T05:36:07Z</time>
      </trkpt>
      <trkpt lat="42.211235" lon="2.452909">
        <ele>370</ele>
        <time>2019-08-19T05:36:08Z</time>
      </trkpt>
      <trkpt lat="42.211244" lon="2.452863">
        <ele>370</ele>
        <time>2019-08-19T05:36:09Z</time>
      </trkpt>
      <trkpt lat="42.211264" lon="2.452758">
        <ele>370</ele>
        <time>2019-08-19T05:36:10Z</time>
      </trkpt>
      <trkpt lat="42.211274" lon="2.452708">
        <ele>370</ele>
        <time>2019-08-19T05:36:11Z</time>
      </trkpt>
      <trkpt lat="42.211285" lon="2.452657">
        <ele>370</ele>
        <time>2019-08-19T05:36:12Z</time>
      </trkpt>
      <trkpt lat="42.211295" lon="2.452607">
        <ele>370</ele>
        <time>2019-08-19T05:36:13Z</time>
      </trkpt>
      <trkpt lat="42.211305" lon="2.452557">
        <ele>370</ele>
        <time>2019-08-19T05:36:14Z</time>
      </trkpt>
      <trkpt lat="42.211315" lon="2.452507">
        <ele>370</ele>
        <time>2019-08-19T05:36:15Z</time>
      </trkpt>
      <trkpt lat="42.211325" lon="2.452457">
        <ele>370</ele>
        <time>2019-08-19T05:36:16Z</time>
      </trkpt>
      <trkpt lat="42.211336" lon="2.452406">
        <ele>370</ele>
        <time>2019-08-19T05:36:17Z</time>
      </trkpt>
      <trkpt lat="42.211346" lon="2.452356">
        <ele>370</ele>
        <time>2019-08-19T05:36:18Z</time>
      </trkpt>
      <trkpt lat="42.211356" lon="2.452306">
        <ele>372</ele>
        <time>2019-08-19T05:36:19Z</time>
      </trkpt>
      <trkpt lat="42.211376" lon="2.452196">
        <ele>372</ele>
        <time>2019-08-19T05:36:20Z</time>
      </trkpt>
      <trkpt lat="42.211387" lon="2.452143">
        <ele>372</ele>
        <time>2019-08-19T05:36:21Z</time>
      </trkpt>
      <trkpt lat="42.211398" lon="2.45209">
        <ele>372</ele>
        <time>2019-08-19T05:36:22Z</time>
      </trkpt>
      <trkpt lat="42.211409" lon="2.452037">
        <ele>372</ele>
        <time>2019-08-19T05:36:23Z</time>
      </trkpt>
      <trkpt lat="42.21142" lon="2.451984">
        <ele>372</ele>
        <time>2019-08-19T05:36:24Z</time>
      </trkpt>
      <trkpt lat="42.21143" lon="2.45193">
        <ele>372</ele>
        <time>2019-08-19T05:36:25Z</time>
      </trkpt>
      <trkpt lat="42.211441" lon="2.451877">
        <ele>372</ele>
        <time>2019-08-19T05:36:26Z</time>
      </trkpt>
      <trkpt lat="42.211452" lon="2.451824">
        <ele>372</ele>
        <time>2019-08-19T05:36:27Z</time>
      </trkpt>
      <trkpt lat="42.211463" lon="2.451771">
        <ele>372</ele>
        <time>2019-08-19T05:36:28Z</time>
      </trkpt>
      <trkpt lat="42.211474" lon="2.451718">
        <ele>372</ele>
        <time>2019-08-19T05:36:29Z</time>
      </trkpt>
      <trkpt lat="42.211501" lon="2.451604">
        <ele>372</ele>
        <time>2019-08-19T05:36:30Z</time>
      </trkpt>
      <trkpt lat="42.211509" lon="2.451565">
        <ele>372</ele>
        <time>2019-08-19T05:36:31Z</time>
      </trkpt>
      <trkpt lat="42.211518" lon="2.451527">
        <ele>372</ele>
        <time>2019-08-19T05:36:32Z</time>
      </trkpt>
      <trkpt lat="42.211526" lon="2.451489">
        <ele>372</ele>
        <time>2019-08-19T05:36:33Z</time>
      </trkpt>
      <trkpt lat="42.211534" lon="2.451451">
        <ele>372</ele>
        <time>2019-08-19T05:36:34Z</time>
      </trkpt>
      <trkpt lat="42.211542" lon="2.451412">
        <ele>372</ele>
        <time>2019-08-19T05:36:35Z</time>
      </trkpt>
      <trkpt lat="42.21155" lon="2.451374">
        <ele>372</ele>
        <time>2019-08-19T05:36:36Z</time>
      </trkpt>
      <trkpt lat="42.211559" lon="2.451336">
        <ele>372</ele>
        <time>2019-08-19T05:36:37Z</time>
      </trkpt>
      <trkpt lat="42.211567" lon="2.451297">
        <ele>372</ele>
        <time>2019-08-19T05:36:38Z</time>
      </trkpt>
      <trkpt lat="42.211575" lon="2.451259">
        <ele>372</ele>
        <time>2019-08-19T05:36:39Z</time>
      </trkpt>
      <trkpt lat="42.211591" lon="2.451184">
        <ele>372</ele>
        <time>2019-08-19T05:36:40Z</time>
      </trkpt>
      <trkpt lat="42.211602" lon="2.451133">
        <ele>372</ele>
        <time>2019-08-19T05:36:41Z</time>
      </trkpt>
      <trkpt lat="42.211612" lon="2.451081">
        <ele>372</ele>
        <time>2019-08-19T05:36:42Z</time>
      </trkpt>
      <trkpt lat="42.211622" lon="2.45103">
        <ele>372</ele>
        <time>2019-08-19T05:36:43Z</time>
      </trkpt>
      <trkpt lat="42.211633" lon="2.450979">
        <ele>372</ele>
        <time>2019-08-19T05:36:44Z</time>
      </trkpt>
      <trkpt lat="42.211643" lon="2.450928">
        <ele>372</ele>
        <time>2019-08-19T05:36:45Z</time>
      </trkpt>
      <trkpt lat="42.211653" lon="2.450877">
        <ele>372</ele>
        <time>2019-08-19T05:36:46Z</time>
      </trkpt>
      <trkpt lat="42.211663" lon="2.450825">
        <ele>372</ele>
        <time>2019-08-19T05:36:47Z</time>
      </trkpt>
      <trkpt lat="42.211674" lon="2.450774">
        <ele>372</ele>
        <time>2019-08-19T05:36:48Z</time>
      </trkpt>
      <trkpt lat="42.211684" lon="2.450723">
        <ele>372</ele>
        <time>2019-08-19T05:36:49Z</time>
      </trkpt>
      <trkpt lat="42.2117" lon="2.450603">
        <ele>372</ele>
        <time>2019-08-19T05:36:50Z</time>
      </trkpt>
      <trkpt lat="42.211706" lon="2.450546">
        <ele>372</ele>
        <time>2019-08-19T05:36:51Z</time>
      </trkpt>
      <trkpt lat="42.211713" lon="2.450489">
        <ele>372</ele>
        <time>2019-08-19T05:36:52Z</time>
      </trkpt>
      <trkpt lat="42.211719" lon="2.450432">
        <ele>372</ele>
        <time>2019-08-19T05:36:53Z</time>
      </trkpt>
      <trkpt lat="42.211725" lon="2.450375">
        <ele>372</ele>
        <time>2019-08-19T05:36:54Z</time>
      </trkpt>
      <trkpt lat="42.211731" lon="2.450317">
        <ele>372</ele>
        <time>2019-08-19T05:36:55Z</time>
      </trkpt>
      <trkpt lat="42.211737" lon="2.45026">
        <ele>372</ele>
        <time>2019-08-19T05:36:56Z</time>
      </trkpt>
      <trkpt lat="42.211744" lon="2.450203">
        <ele>372</ele>
        <time>2019-08-19T05:36:57Z</time>
      </trkpt>
      <trkpt lat="42.21175" lon="2.450146">
        <ele>372</ele>
        <time>2019-08-19T05:36:58Z</time>
      </trkpt>
      <trkpt lat="42.211756" lon="2.450089">
        <ele>373</ele>
        <time>2019-08-19T05:36:59Z</time>
      </trkpt>
      <trkpt lat="42.211745" lon="2.449979">
        <ele>373</ele>
        <time>2019-08-19T05:37:00Z</time>
      </trkpt>
      <trkpt lat="42.211738" lon="2.449931">
        <ele>373</ele>
        <time>2019-08-19T05:37:01Z</time>
      </trkpt>
      <trkpt lat="42.211731" lon="2.449882">
        <ele>373</ele>
        <time>2019-08-19T05:37:02Z</time>
      </trkpt>
      <trkpt lat="42.211724" lon="2.449834">
        <ele>373</ele>
        <time>2019-08-19T05:37:03Z</time>
      </trkpt>
      <trkpt lat="42.211717" lon="2.449785">
        <ele>373</ele>
        <time>2019-08-19T05:37:04Z</time>
      </trkpt>
      <trkpt lat="42.211709" lon="2.449736">
        <ele>373</ele>
        <time>2019-08-19T05:37:05Z</time>
      </trkpt>
      <trkpt lat="42.211702" lon="2.449688">
        <ele>373</ele>
        <time>2019-08-19T05:37:06Z</time>
      </trkpt>
      <trkpt lat="42.211695" lon="2.449639">
        <ele>373</ele>
        <time>2019-08-19T05:37:07Z</time>
      </trkpt>
      <trkpt lat="42.211688" lon="2.449591">
        <ele>373</ele>
        <time>2019-08-19T05:37:08Z</time>
      </trkpt>
      <trkpt lat="42.211681" lon="2.449542">
        <ele>373</ele>
        <time>2019-08-19T05:37:09Z</time>
      </trkpt>
      <trkpt lat="42.211674" lon="2.449461">
        <ele>373</ele>
        <time>2019-08-19T05:37:10Z</time>
      </trkpt>
      <trkpt lat="42.211673" lon="2.449426">
        <ele>373</ele>
        <time>2019-08-19T05:37:11Z</time>
      </trkpt>
      <trkpt lat="42.211671" lon="2.449392">
        <ele>373</ele>
        <time>2019-08-19T05:37:12Z</time>
      </trkpt>
      <trkpt lat="42.21167" lon="2.449358">
        <ele>373</ele>
        <time>2019-08-19T05:37:13Z</time>
      </trkpt>
      <trkpt lat="42.211669" lon="2.449323">
        <ele>373</ele>
        <time>2019-08-19T05:37:14Z</time>
      </trkpt>
      <trkpt lat="42.211668" lon="2.449289">
        <ele>373</ele>
        <time>2019-08-19T05:37:15Z</time>
      </trkpt>
      <trkpt lat="42.211667" lon="2.449255">
        <ele>373</ele>
        <time>2019-08-19T05:37:16Z</time>
      </trkpt>
      <trkpt lat="42.211665" lon="2.449221">
        <ele>373</ele>
        <time>2019-08-19T05:37:17Z</time>
      </trkpt>
      <trkpt lat="42.211664" lon="2.449186">
        <ele>373</ele>
        <time>2019-08-19T05:37:18Z</time>
      </trkpt>
      <trkpt lat="42.211663" lon="2.449152">
        <ele>374</ele>
        <time>2019-08-19T05:37:19Z</time>
      </trkpt>
      <trkpt lat="42.21166" lon="2.449094">
        <ele>374</ele>
        <time>2019-08-19T05:37:20Z</time>
      </trkpt>
      <trkpt lat="42.211659" lon="2.449066">
        <ele>374</ele>
        <time>2019-08-19T05:37:21Z</time>
      </trkpt>
      <trkpt lat="42.211658" lon="2.449038">
        <ele>374</ele>
        <time>2019-08-19T05:37:22Z</time>
      </trkpt>
      <trkpt lat="42.211657" lon="2.44901">
        <ele>374</ele>
        <time>2019-08-19T05:37:23Z</time>
      </trkpt>
      <trkpt lat="42.211656" lon="2.448982">
        <ele>374</ele>
        <time>2019-08-19T05:37:24Z</time>
      </trkpt>
      <trkpt lat="42.211654" lon="2.448954">
        <ele>374</ele>
        <time>2019-08-19T05:37:25Z</time>
      </trkpt>
      <trkpt lat="42.211653" lon="2.448926">
        <ele>374</ele>
        <time>2019-08-19T05:37:26Z</time>
      </trkpt>
      <trkpt lat="42.211652" lon="2.448898">
        <ele>374</ele>
        <time>2019-08-19T05:37:27Z</time>
      </trkpt>
      <trkpt lat="42.211651" lon="2.44887">
        <ele>374</ele>
        <time>2019-08-19T05:37:28Z</time>
      </trkpt>
      <trkpt lat="42.21165" lon="2.448842">
        <ele>375</ele>
        <time>2019-08-19T05:37:29Z</time>
      </trkpt>
      <trkpt lat="42.211643" lon="2.448767">
        <ele>375</ele>
        <time>2019-08-19T05:37:31Z</time>
      </trkpt>
      <trkpt lat="42.211641" lon="2.448737">
        <ele>375</ele>
        <time>2019-08-19T05:37:33Z</time>
      </trkpt>
      <trkpt lat="42.21164" lon="2.448708">
        <ele>375</ele>
        <time>2019-08-19T05:37:35Z</time>
      </trkpt>
      <trkpt lat="42.211638" lon="2.448679">
        <ele>375</ele>
        <time>2019-08-19T05:37:36Z</time>
      </trkpt>
      <trkpt lat="42.211637" lon="2.44865">
        <ele>375</ele>
        <time>2019-08-19T05:37:37Z</time>
      </trkpt>
      <trkpt lat="42.211635" lon="2.44862">
        <ele>375</ele>
        <time>2019-08-19T05:37:38Z</time>
      </trkpt>
      <trkpt lat="42.211634" lon="2.448591">
        <ele>376</ele>
        <time>2019-08-19T05:37:39Z</time>
      </trkpt>
      <trkpt lat="42.211632" lon="2.448536">
        <ele>376</ele>
        <time>2019-08-19T05:37:40Z</time>
      </trkpt>
      <trkpt lat="42.211629" lon="2.448509">
        <ele>376</ele>
        <time>2019-08-19T05:37:41Z</time>
      </trkpt>
      <trkpt lat="42.211626" lon="2.448483">
        <ele>376</ele>
        <time>2019-08-19T05:37:42Z</time>
      </trkpt>
      <trkpt lat="42.211623" lon="2.448457">
        <ele>376</ele>
        <time>2019-08-19T05:37:43Z</time>
      </trkpt>
      <trkpt lat="42.21162" lon="2.44843">
        <ele>376</ele>
        <time>2019-08-19T05:37:44Z</time>
      </trkpt>
      <trkpt lat="42.211617" lon="2.448404">
        <ele>376</ele>
        <time>2019-08-19T05:37:45Z</time>
      </trkpt>
      <trkpt lat="42.211614" lon="2.448378">
        <ele>376</ele>
        <time>2019-08-19T05:37:46Z</time>
      </trkpt>
      <trkpt lat="42.211611" lon="2.448352">
        <ele>376</ele>
        <time>2019-08-19T05:37:47Z</time>
      </trkpt>
      <trkpt lat="42.211608" lon="2.448325">
        <ele>376</ele>
        <time>2019-08-19T05:37:48Z</time>
      </trkpt>
      <trkpt lat="42.211605" lon="2.448299">
        <ele>375</ele>
        <time>2019-08-19T05:37:49Z</time>
      </trkpt>
      <trkpt lat="42.211575" lon="2.448181">
        <ele>375</ele>
        <time>2019-08-19T05:37:51Z</time>
      </trkpt>
      <trkpt lat="42.211562" lon="2.448143">
        <ele>375</ele>
        <time>2019-08-19T05:37:53Z</time>
      </trkpt>
      <trkpt lat="42.211549" lon="2.448104">
        <ele>375</ele>
        <time>2019-08-19T05:37:54Z</time>
      </trkpt>
      <trkpt lat="42.211537" lon="2.448065">
        <ele>375</ele>
        <time>2019-08-19T05:37:56Z</time>
      </trkpt>
      <trkpt lat="42.211524" lon="2.448026">
        <ele>375</ele>
        <time>2019-08-19T05:37:57Z</time>
      </trkpt>
      <trkpt lat="42.211511" lon="2.447988">
        <ele>375</ele>
        <time>2019-08-19T05:37:58Z</time>
      </trkpt>
      <trkpt lat="42.211498" lon="2.447949">
        <ele>375</ele>
        <time>2019-08-19T05:37:59Z</time>
      </trkpt>
      <trkpt lat="42.211478" lon="2.447894">
        <ele>375</ele>
        <time>2019-08-19T05:38:00Z</time>
      </trkpt>
      <trkpt lat="42.211466" lon="2.447858">
        <ele>375</ele>
        <time>2019-08-19T05:38:01Z</time>
      </trkpt>
      <trkpt lat="42.211454" lon="2.447822">
        <ele>375</ele>
        <time>2019-08-19T05:38:02Z</time>
      </trkpt>
      <trkpt lat="42.211442" lon="2.447786">
        <ele>375</ele>
        <time>2019-08-19T05:38:03Z</time>
      </trkpt>
      <trkpt lat="42.211431" lon="2.447749">
        <ele>375</ele>
        <time>2019-08-19T05:38:04Z</time>
      </trkpt>
      <trkpt lat="42.211419" lon="2.447713">
        <ele>375</ele>
        <time>2019-08-19T05:38:05Z</time>
      </trkpt>
      <trkpt lat="42.211407" lon="2.447677">
        <ele>375</ele>
        <time>2019-08-19T05:38:06Z</time>
      </trkpt>
      <trkpt lat="42.211395" lon="2.447641">
        <ele>375</ele>
        <time>2019-08-19T05:38:07Z</time>
      </trkpt>
      <trkpt lat="42.211383" lon="2.447605">
        <ele>375</ele>
        <time>2019-08-19T05:38:08Z</time>
      </trkpt>
      <trkpt lat="42.211371" lon="2.447569">
        <ele>377</ele>
        <time>2019-08-19T05:38:09Z</time>
      </trkpt>
      <trkpt lat="42.211351" lon="2.447488">
        <ele>377</ele>
        <time>2019-08-19T05:38:10Z</time>
      </trkpt>
      <trkpt lat="42.211342" lon="2.447449">
        <ele>377</ele>
        <time>2019-08-19T05:38:11Z</time>
      </trkpt>
      <trkpt lat="42.211333" lon="2.447411">
        <ele>377</ele>
        <time>2019-08-19T05:38:12Z</time>
      </trkpt>
      <trkpt lat="42.211324" lon="2.447372">
        <ele>377</ele>
        <time>2019-08-19T05:38:13Z</time>
      </trkpt>
      <trkpt lat="42.211315" lon="2.447333">
        <ele>377</ele>
        <time>2019-08-19T05:38:14Z</time>
      </trkpt>
      <trkpt lat="42.211306" lon="2.447294">
        <ele>377</ele>
        <time>2019-08-19T05:38:15Z</time>
      </trkpt>
      <trkpt lat="42.211297" lon="2.447255">
        <ele>377</ele>
        <time>2019-08-19T05:38:16Z</time>
      </trkpt>
      <trkpt lat="42.211288" lon="2.447217">
        <ele>377</ele>
        <time>2019-08-19T05:38:17Z</time>
      </trkpt>
      <trkpt lat="42.211279" lon="2.447178">
        <ele>377</ele>
        <time>2019-08-19T05:38:18Z</time>
      </trkpt>
      <trkpt lat="42.21127" lon="2.447139">
        <ele>378</ele>
        <time>2019-08-19T05:38:19Z</time>
      </trkpt>
      <trkpt lat="42.211252" lon="2.447054">
        <ele>378</ele>
        <time>2019-08-19T05:38:20Z</time>
      </trkpt>
      <trkpt lat="42.211242" lon="2.447014">
        <ele>378</ele>
        <time>2019-08-19T05:38:21Z</time>
      </trkpt>
      <trkpt lat="42.211233" lon="2.446973">
        <ele>378</ele>
        <time>2019-08-19T05:38:22Z</time>
      </trkpt>
      <trkpt lat="42.211223" lon="2.446933">
        <ele>378</ele>
        <time>2019-08-19T05:38:23Z</time>
      </trkpt>
      <trkpt lat="42.211214" lon="2.446892">
        <ele>378</ele>
        <time>2019-08-19T05:38:24Z</time>
      </trkpt>
      <trkpt lat="42.211205" lon="2.446852">
        <ele>378</ele>
        <time>2019-08-19T05:38:25Z</time>
      </trkpt>
      <trkpt lat="42.211195" lon="2.446811">
        <ele>378</ele>
        <time>2019-08-19T05:38:26Z</time>
      </trkpt>
      <trkpt lat="42.211186" lon="2.446771">
        <ele>378</ele>
        <time>2019-08-19T05:38:27Z</time>
      </trkpt>
      <trkpt lat="42.211176" lon="2.44673">
        <ele>378</ele>
        <time>2019-08-19T05:38:28Z</time>
      </trkpt>
      <trkpt lat="42.211167" lon="2.44669">
        <ele>379</ele>
        <time>2019-08-19T05:38:29Z</time>
      </trkpt>
      <trkpt lat="42.211146" lon="2.446604">
        <ele>379</ele>
        <time>2019-08-19T05:38:30Z</time>
      </trkpt>
      <trkpt lat="42.211136" lon="2.446565">
        <ele>379</ele>
        <time>2019-08-19T05:38:31Z</time>
      </trkpt>
      <trkpt lat="42.211126" lon="2.446525">
        <ele>379</ele>
        <time>2019-08-19T05:38:32Z</time>
      </trkpt>
      <trkpt lat="42.211116" lon="2.446486">
        <ele>379</ele>
        <time>2019-08-19T05:38:33Z</time>
      </trkpt>
      <trkpt lat="42.211106" lon="2.446446">
        <ele>379</ele>
        <time>2019-08-19T05:38:34Z</time>
      </trkpt>
      <trkpt lat="42.211095" lon="2.446406">
        <ele>379</ele>
        <time>2019-08-19T05:38:35Z</time>
      </trkpt>
      <trkpt lat="42.211085" lon="2.446367">
        <ele>379</ele>
        <time>2019-08-19T05:38:36Z</time>
      </trkpt>
      <trkpt lat="42.211075" lon="2.446327">
        <ele>379</ele>
        <time>2019-08-19T05:38:37Z</time>
      </trkpt>
      <trkpt lat="42.211065" lon="2.446288">
        <ele>379</ele>
        <time>2019-08-19T05:38:38Z</time>
      </trkpt>
      <trkpt lat="42.211055" lon="2.446248">
        <ele>380</ele>
        <time>2019-08-19T05:38:39Z</time>
      </trkpt>
      <trkpt lat="42.211036" lon="2.446165">
        <ele>380</ele>
        <time>2019-08-19T05:38:40Z</time>
      </trkpt>
      <trkpt lat="42.211027" lon="2.446122">
        <ele>380</ele>
        <time>2019-08-19T05:38:41Z</time>
      </trkpt>
      <trkpt lat="42.211018" lon="2.446078">
        <ele>380</ele>
        <time>2019-08-19T05:38:42Z</time>
      </trkpt>
      <trkpt lat="42.211009" lon="2.446035">
        <ele>380</ele>
        <time>2019-08-19T05:38:43Z</time>
      </trkpt>
      <trkpt lat="42.211" lon="2.445992">
        <ele>380</ele>
        <time>2019-08-19T05:38:44Z</time>
      </trkpt>
      <trkpt lat="42.21099" lon="2.445949">
        <ele>380</ele>
        <time>2019-08-19T05:38:45Z</time>
      </trkpt>
      <trkpt lat="42.210981" lon="2.445906">
        <ele>380</ele>
        <time>2019-08-19T05:38:46Z</time>
      </trkpt>
      <trkpt lat="42.210972" lon="2.445862">
        <ele>380</ele>
        <time>2019-08-19T05:38:47Z</time>
      </trkpt>
      <trkpt lat="42.210963" lon="2.445819">
        <ele>380</ele>
        <time>2019-08-19T05:38:48Z</time>
      </trkpt>
      <trkpt lat="42.210954" lon="2.445776">
        <ele>380</ele>
        <time>2019-08-19T05:38:49Z</time>
      </trkpt>
      <trkpt lat="42.210918" lon="2.445629">
        <ele>380</ele>
        <time>2019-08-19T05:38:50Z</time>
      </trkpt>
      <trkpt lat="42.210899" lon="2.445556">
        <ele>380</ele>
        <time>2019-08-19T05:38:52Z</time>
      </trkpt>
      <trkpt lat="42.210881" lon="2.445484">
        <ele>380</ele>
        <time>2019-08-19T05:38:54Z</time>
      </trkpt>
      <trkpt lat="42.210863" lon="2.445412">
        <ele>380</ele>
        <time>2019-08-19T05:38:56Z</time>
      </trkpt>
      <trkpt lat="42.210844" lon="2.445339">
        <ele>380</ele>
        <time>2019-08-19T05:38:57Z</time>
      </trkpt>
      <trkpt lat="42.210826" lon="2.445267">
        <ele>381</ele>
        <time>2019-08-19T05:38:59Z</time>
      </trkpt>
      <trkpt lat="42.210797" lon="2.44514">
        <ele>381</ele>
        <time>2019-08-19T05:39:01Z</time>
      </trkpt>
      <trkpt lat="42.210786" lon="2.445083">
        <ele>381</ele>
        <time>2019-08-19T05:39:02Z</time>
      </trkpt>
      <trkpt lat="42.210776" lon="2.445026">
        <ele>381</ele>
        <time>2019-08-19T05:39:03Z</time>
      </trkpt>
      <trkpt lat="42.210766" lon="2.44497">
        <ele>381</ele>
        <time>2019-08-19T05:39:05Z</time>
      </trkpt>
      <trkpt lat="42.210756" lon="2.444913">
        <ele>381</ele>
        <time>2019-08-19T05:39:06Z</time>
      </trkpt>
      <trkpt lat="42.210745" lon="2.444856">
        <ele>381</ele>
        <time>2019-08-19T05:39:07Z</time>
      </trkpt>
      <trkpt lat="42.210735" lon="2.444799">
        <ele>381</ele>
        <time>2019-08-19T05:39:09Z</time>
      </trkpt>
      <trkpt lat="42.210732" lon="2.444635">
        <ele>381</ele>
        <time>2019-08-19T05:39:10Z</time>
      </trkpt>
      <trkpt lat="42.210734" lon="2.444578">
        <ele>381</ele>
        <time>2019-08-19T05:39:12Z</time>
      </trkpt>
      <trkpt lat="42.210736" lon="2.444521">
        <ele>381</ele>
        <time>2019-08-19T05:39:13Z</time>
      </trkpt>
      <trkpt lat="42.210738" lon="2.444464">
        <ele>381</ele>
        <time>2019-08-19T05:39:15Z</time>
      </trkpt>
      <trkpt lat="42.21074" lon="2.444406">
        <ele>381</ele>
        <time>2019-08-19T05:39:16Z</time>
      </trkpt>
      <trkpt lat="42.210742" lon="2.444349">
        <ele>381</ele>
        <time>2019-08-19T05:39:17Z</time>
      </trkpt>
      <trkpt lat="42.210744" lon="2.444292">
        <ele>381</ele>
        <time>2019-08-19T05:39:18Z</time>
      </trkpt>
      <trkpt lat="42.210746" lon="2.444235">
        <ele>382</ele>
        <time>2019-08-19T05:39:19Z</time>
      </trkpt>
      <trkpt lat="42.210756" lon="2.444109">
        <ele>382</ele>
        <time>2019-08-19T05:39:20Z</time>
      </trkpt>
      <trkpt lat="42.210761" lon="2.444043">
        <ele>382</ele>
        <time>2019-08-19T05:39:21Z</time>
      </trkpt>
      <trkpt lat="42.210766" lon="2.443976">
        <ele>382</ele>
        <time>2019-08-19T05:39:22Z</time>
      </trkpt>
      <trkpt lat="42.210771" lon="2.44391">
        <ele>382</ele>
        <time>2019-08-19T05:39:23Z</time>
      </trkpt>
      <trkpt lat="42.210776" lon="2.443843">
        <ele>382</ele>
        <time>2019-08-19T05:39:24Z</time>
      </trkpt>
      <trkpt lat="42.210781" lon="2.443777">
        <ele>382</ele>
        <time>2019-08-19T05:39:25Z</time>
      </trkpt>
      <trkpt lat="42.210786" lon="2.44371">
        <ele>382</ele>
        <time>2019-08-19T05:39:26Z</time>
      </trkpt>
      <trkpt lat="42.210791" lon="2.443644">
        <ele>382</ele>
        <time>2019-08-19T05:39:27Z</time>
      </trkpt>
      <trkpt lat="42.210796" lon="2.443577">
        <ele>383</ele>
        <time>2019-08-19T05:39:29Z</time>
      </trkpt>
      <trkpt lat="42.210806" lon="2.443458">
        <ele>383</ele>
        <time>2019-08-19T05:39:30Z</time>
      </trkpt>
      <trkpt lat="42.210811" lon="2.4434">
        <ele>383</ele>
        <time>2019-08-19T05:39:31Z</time>
      </trkpt>
      <trkpt lat="42.210815" lon="2.443341">
        <ele>383</ele>
        <time>2019-08-19T05:39:32Z</time>
      </trkpt>
      <trkpt lat="42.21082" lon="2.443282">
        <ele>383</ele>
        <time>2019-08-19T05:39:33Z</time>
      </trkpt>
      <trkpt lat="42.210825" lon="2.443224">
        <ele>383</ele>
        <time>2019-08-19T05:39:34Z</time>
      </trkpt>
      <trkpt lat="42.21083" lon="2.443165">
        <ele>383</ele>
        <time>2019-08-19T05:39:36Z</time>
      </trkpt>
      <trkpt lat="42.210834" lon="2.443106">
        <ele>383</ele>
        <time>2019-08-19T05:39:37Z</time>
      </trkpt>
      <trkpt lat="42.210839" lon="2.443048">
        <ele>383</ele>
        <time>2019-08-19T05:39:38Z</time>
      </trkpt>
      <trkpt lat="42.210844" lon="2.442989">
        <ele>383</ele>
        <time>2019-08-19T05:39:39Z</time>
      </trkpt>
      <trkpt lat="42.210851" lon="2.442878">
        <ele>383</ele>
        <time>2019-08-19T05:39:40Z</time>
      </trkpt>
      <trkpt lat="42.210855" lon="2.442824">
        <ele>383</ele>
        <time>2019-08-19T05:39:41Z</time>
      </trkpt>
      <trkpt lat="42.210859" lon="2.442771">
        <ele>383</ele>
        <time>2019-08-19T05:39:42Z</time>
      </trkpt>
      <trkpt lat="42.210863" lon="2.442718">
        <ele>383</ele>
        <time>2019-08-19T05:39:43Z</time>
      </trkpt>
      <trkpt lat="42.210867" lon="2.442665">
        <ele>383</ele>
        <time>2019-08-19T05:39:44Z</time>
      </trkpt>
      <trkpt lat="42.210871" lon="2.442611">
        <ele>383</ele>
        <time>2019-08-19T05:39:45Z</time>
      </trkpt>
      <trkpt lat="42.210875" lon="2.442558">
        <ele>383</ele>
        <time>2019-08-19T05:39:46Z</time>
      </trkpt>
      <trkpt lat="42.210879" lon="2.442505">
        <ele>383</ele>
        <time>2019-08-19T05:39:47Z</time>
      </trkpt>
      <trkpt lat="42.210883" lon="2.442451">
        <ele>383</ele>
        <time>2019-08-19T05:39:48Z</time>
      </trkpt>
      <trkpt lat="42.210887" lon="2.442398">
        <ele>385</ele>
        <time>2019-08-19T05:39:49Z</time>
      </trkpt>
      <trkpt lat="42.2109" lon="2.442206">
        <ele>385</ele>
        <time>2019-08-19T05:39:51Z</time>
      </trkpt>
      <trkpt lat="42.210905" lon="2.442133">
        <ele>385</ele>
        <time>2019-08-19T05:39:52Z</time>
      </trkpt>
      <trkpt lat="42.210909" lon="2.442061">
        <ele>385</ele>
        <time>2019-08-19T05:39:53Z</time>
      </trkpt>
      <trkpt lat="42.210913" lon="2.441989">
        <ele>385</ele>
        <time>2019-08-19T05:39:55Z</time>
      </trkpt>
      <trkpt lat="42.210917" lon="2.441917">
        <ele>385</ele>
        <time>2019-08-19T05:39:56Z</time>
      </trkpt>
      <trkpt lat="42.210922" lon="2.441844">
        <ele>385</ele>
        <time>2019-08-19T05:39:57Z</time>
      </trkpt>
      <trkpt lat="42.210926" lon="2.441772">
        <ele>386</ele>
        <time>2019-08-19T05:39:59Z</time>
      </trkpt>
      <trkpt lat="42.21093" lon="2.441652">
        <ele>386</ele>
        <time>2019-08-19T05:40:00Z</time>
      </trkpt>
      <trkpt lat="42.210931" lon="2.441597">
        <ele>386</ele>
        <time>2019-08-19T05:40:01Z</time>
      </trkpt>
      <trkpt lat="42.210931" lon="2.441541">
        <ele>386</ele>
        <time>2019-08-19T05:40:02Z</time>
      </trkpt>
      <trkpt lat="42.210932" lon="2.441486">
        <ele>386</ele>
        <time>2019-08-19T05:40:03Z</time>
      </trkpt>
      <trkpt lat="42.210933" lon="2.441431">
        <ele>386</ele>
        <time>2019-08-19T05:40:04Z</time>
      </trkpt>
      <trkpt lat="42.210934" lon="2.441376">
        <ele>386</ele>
        <time>2019-08-19T05:40:05Z</time>
      </trkpt>
      <trkpt lat="42.210935" lon="2.441321">
        <ele>386</ele>
        <time>2019-08-19T05:40:06Z</time>
      </trkpt>
      <trkpt lat="42.210935" lon="2.441265">
        <ele>386</ele>
        <time>2019-08-19T05:40:07Z</time>
      </trkpt>
      <trkpt lat="42.210936" lon="2.44121">
        <ele>386</ele>
        <time>2019-08-19T05:40:08Z</time>
      </trkpt>
      <trkpt lat="42.210937" lon="2.441155">
        <ele>386</ele>
        <time>2019-08-19T05:40:09Z</time>
      </trkpt>
      <trkpt lat="42.210921" lon="2.44105">
        <ele>386</ele>
        <time>2019-08-19T05:40:10Z</time>
      </trkpt>
      <trkpt lat="42.210906" lon="2.440976">
        <ele>386</ele>
        <time>2019-08-19T05:40:11Z</time>
      </trkpt>
      <trkpt lat="42.210891" lon="2.440903">
        <ele>386</ele>
        <time>2019-08-19T05:40:13Z</time>
      </trkpt>
      <trkpt lat="42.210877" lon="2.440829">
        <ele>386</ele>
        <time>2019-08-19T05:40:14Z</time>
      </trkpt>
      <trkpt lat="42.210862" lon="2.440755">
        <ele>386</ele>
        <time>2019-08-19T05:40:15Z</time>
      </trkpt>
      <trkpt lat="42.210847" lon="2.440681">
        <ele>386</ele>
        <time>2019-08-19T05:40:16Z</time>
      </trkpt>
      <trkpt lat="42.210832" lon="2.440608">
        <ele>386</ele>
        <time>2019-08-19T05:40:17Z</time>
      </trkpt>
      <trkpt lat="42.210817" lon="2.440534">
        <ele>385</ele>
        <time>2019-08-19T05:40:19Z</time>
      </trkpt>
      <trkpt lat="42.210781" lon="2.440419">
        <ele>385</ele>
        <time>2019-08-19T05:40:20Z</time>
      </trkpt>
      <trkpt lat="42.210758" lon="2.440349">
        <ele>385</ele>
        <time>2019-08-19T05:40:21Z</time>
      </trkpt>
      <trkpt lat="42.210736" lon="2.440278">
        <ele>385</ele>
        <time>2019-08-19T05:40:23Z</time>
      </trkpt>
      <trkpt lat="42.210713" lon="2.440207">
        <ele>385</ele>
        <time>2019-08-19T05:40:24Z</time>
      </trkpt>
      <trkpt lat="42.210691" lon="2.440137">
        <ele>385</ele>
        <time>2019-08-19T05:40:25Z</time>
      </trkpt>
      <trkpt lat="42.210668" lon="2.440066">
        <ele>385</ele>
        <time>2019-08-19T05:40:26Z</time>
      </trkpt>
      <trkpt lat="42.210646" lon="2.439995">
        <ele>385</ele>
        <time>2019-08-19T05:40:27Z</time>
      </trkpt>
      <trkpt lat="42.210623" lon="2.439925">
        <ele>385</ele>
        <time>2019-08-19T05:40:28Z</time>
      </trkpt>
      <trkpt lat="42.210601" lon="2.439854">
        <ele>385</ele>
        <time>2019-08-19T05:40:29Z</time>
      </trkpt>
      <trkpt lat="42.210565" lon="2.439691">
        <ele>385</ele>
        <time>2019-08-19T05:40:30Z</time>
      </trkpt>
      <trkpt lat="42.210557" lon="2.439633">
        <ele>385</ele>
        <time>2019-08-19T05:40:32Z</time>
      </trkpt>
      <trkpt lat="42.210548" lon="2.439574">
        <ele>385</ele>
        <time>2019-08-19T05:40:33Z</time>
      </trkpt>
      <trkpt lat="42.210539" lon="2.439516">
        <ele>385</ele>
        <time>2019-08-19T05:40:34Z</time>
      </trkpt>
      <trkpt lat="42.210531" lon="2.439457">
        <ele>385</ele>
        <time>2019-08-19T05:40:35Z</time>
      </trkpt>
      <trkpt lat="42.210522" lon="2.439399">
        <ele>385</ele>
        <time>2019-08-19T05:40:36Z</time>
      </trkpt>
      <trkpt lat="42.210513" lon="2.43934">
        <ele>385</ele>
        <time>2019-08-19T05:40:37Z</time>
      </trkpt>
      <trkpt lat="42.210505" lon="2.439282">
        <ele>385</ele>
        <time>2019-08-19T05:40:38Z</time>
      </trkpt>
      <trkpt lat="42.210496" lon="2.439223">
        <ele>385</ele>
        <time>2019-08-19T05:40:39Z</time>
      </trkpt>
      <trkpt lat="42.210493" lon="2.439111">
        <ele>385</ele>
        <time>2019-08-19T05:40:40Z</time>
      </trkpt>
      <trkpt lat="42.210494" lon="2.43906">
        <ele>385</ele>
        <time>2019-08-19T05:40:41Z</time>
      </trkpt>
      <trkpt lat="42.210496" lon="2.439009">
        <ele>385</ele>
        <time>2019-08-19T05:40:42Z</time>
      </trkpt>
      <trkpt lat="42.210497" lon="2.438958">
        <ele>385</ele>
        <time>2019-08-19T05:40:43Z</time>
      </trkpt>
      <trkpt lat="42.210498" lon="2.438907">
        <ele>385</ele>
        <time>2019-08-19T05:40:44Z</time>
      </trkpt>
      <trkpt lat="42.210499" lon="2.438855">
        <ele>385</ele>
        <time>2019-08-19T05:40:45Z</time>
      </trkpt>
      <trkpt lat="42.2105" lon="2.438804">
        <ele>385</ele>
        <time>2019-08-19T05:40:46Z</time>
      </trkpt>
      <trkpt lat="42.210502" lon="2.438753">
        <ele>385</ele>
        <time>2019-08-19T05:40:47Z</time>
      </trkpt>
      <trkpt lat="42.210503" lon="2.438702">
        <ele>385</ele>
        <time>2019-08-19T05:40:48Z</time>
      </trkpt>
      <trkpt lat="42.210504" lon="2.438651">
        <ele>386</ele>
        <time>2019-08-19T05:40:49Z</time>
      </trkpt>
      <trkpt lat="42.210509" lon="2.438546">
        <ele>386</ele>
        <time>2019-08-19T05:40:50Z</time>
      </trkpt>
      <trkpt lat="42.210511" lon="2.4385">
        <ele>386</ele>
        <time>2019-08-19T05:40:51Z</time>
      </trkpt>
      <trkpt lat="42.210514" lon="2.438453">
        <ele>386</ele>
        <time>2019-08-19T05:40:52Z</time>
      </trkpt>
      <trkpt lat="42.210516" lon="2.438407">
        <ele>386</ele>
        <time>2019-08-19T05:40:53Z</time>
      </trkpt>
      <trkpt lat="42.210519" lon="2.43836">
        <ele>386</ele>
        <time>2019-08-19T05:40:54Z</time>
      </trkpt>
      <trkpt lat="42.210522" lon="2.438313">
        <ele>386</ele>
        <time>2019-08-19T05:40:55Z</time>
      </trkpt>
      <trkpt lat="42.210524" lon="2.438267">
        <ele>386</ele>
        <time>2019-08-19T05:40:56Z</time>
      </trkpt>
      <trkpt lat="42.210527" lon="2.43822">
        <ele>386</ele>
        <time>2019-08-19T05:40:57Z</time>
      </trkpt>
      <trkpt lat="42.210529" lon="2.438174">
        <ele>386</ele>
        <time>2019-08-19T05:40:58Z</time>
      </trkpt>
      <trkpt lat="42.210532" lon="2.438127">
        <ele>386</ele>
        <time>2019-08-19T05:40:59Z</time>
      </trkpt>
      <trkpt lat="42.210543" lon="2.438038">
        <ele>386</ele>
        <time>2019-08-19T05:41:00Z</time>
      </trkpt>
      <trkpt lat="42.210552" lon="2.437996">
        <ele>386</ele>
        <time>2019-08-19T05:41:01Z</time>
      </trkpt>
      <trkpt lat="42.210562" lon="2.437953">
        <ele>386</ele>
        <time>2019-08-19T05:41:02Z</time>
      </trkpt>
      <trkpt lat="42.210571" lon="2.437911">
        <ele>386</ele>
        <time>2019-08-19T05:41:03Z</time>
      </trkpt>
      <trkpt lat="42.21058" lon="2.437869">
        <ele>386</ele>
        <time>2019-08-19T05:41:04Z</time>
      </trkpt>
      <trkpt lat="42.210589" lon="2.437827">
        <ele>386</ele>
        <time>2019-08-19T05:41:05Z</time>
      </trkpt>
      <trkpt lat="42.210598" lon="2.437785">
        <ele>386</ele>
        <time>2019-08-19T05:41:06Z</time>
      </trkpt>
      <trkpt lat="42.210608" lon="2.437742">
        <ele>386</ele>
        <time>2019-08-19T05:41:07Z</time>
      </trkpt>
      <trkpt lat="42.210617" lon="2.4377">
        <ele>386</ele>
        <time>2019-08-19T05:41:08Z</time>
      </trkpt>
      <trkpt lat="42.210626" lon="2.437658">
        <ele>388</ele>
        <time>2019-08-19T05:41:09Z</time>
      </trkpt>
      <trkpt lat="42.210662" lon="2.437573">
        <ele>388</ele>
        <time>2019-08-19T05:41:10Z</time>
      </trkpt>
      <trkpt lat="42.210679" lon="2.437532">
        <ele>388</ele>
        <time>2019-08-19T05:41:11Z</time>
      </trkpt>
      <trkpt lat="42.210697" lon="2.437492">
        <ele>388</ele>
        <time>2019-08-19T05:41:12Z</time>
      </trkpt>
      <trkpt lat="42.210714" lon="2.437451">
        <ele>388</ele>
        <time>2019-08-19T05:41:13Z</time>
      </trkpt>
      <trkpt lat="42.210732" lon="2.437411">
        <ele>388</ele>
        <time>2019-08-19T05:41:14Z</time>
      </trkpt>
      <trkpt lat="42.210749" lon="2.43737">
        <ele>388</ele>
        <time>2019-08-19T05:41:15Z</time>
      </trkpt>
      <trkpt lat="42.210767" lon="2.43733">
        <ele>388</ele>
        <time>2019-08-19T05:41:16Z</time>
      </trkpt>
      <trkpt lat="42.210784" lon="2.437289">
        <ele>388</ele>
        <time>2019-08-19T05:41:17Z</time>
      </trkpt>
      <trkpt lat="42.210802" lon="2.437249">
        <ele>388</ele>
        <time>2019-08-19T05:41:18Z</time>
      </trkpt>
      <trkpt lat="42.210819" lon="2.437208">
        <ele>388</ele>
        <time>2019-08-19T05:41:19Z</time>
      </trkpt>
      <trkpt lat="42.210837" lon="2.437168">
        <ele>389</ele>
        <time>2019-08-19T05:41:20Z</time>
      </trkpt>
      <trkpt lat="42.210883" lon="2.437089">
        <ele>389</ele>
        <time>2019-08-19T05:41:21Z</time>
      </trkpt>
      <trkpt lat="42.210908" lon="2.437055">
        <ele>389</ele>
        <time>2019-08-19T05:41:22Z</time>
      </trkpt>
      <trkpt lat="42.210933" lon="2.43702">
        <ele>389</ele>
        <time>2019-08-19T05:41:23Z</time>
      </trkpt>
      <trkpt lat="42.210958" lon="2.436986">
        <ele>389</ele>
        <time>2019-08-19T05:41:24Z</time>
      </trkpt>
      <trkpt lat="42.210982" lon="2.436952">
        <ele>389</ele>
        <time>2019-08-19T05:41:25Z</time>
      </trkpt>
      <trkpt lat="42.211007" lon="2.436918">
        <ele>389</ele>
        <time>2019-08-19T05:41:26Z</time>
      </trkpt>
      <trkpt lat="42.211032" lon="2.436883">
        <ele>389</ele>
        <time>2019-08-19T05:41:27Z</time>
      </trkpt>
      <trkpt lat="42.211057" lon="2.436849">
        <ele>389</ele>
        <time>2019-08-19T05:41:28Z</time>
      </trkpt>
      <trkpt lat="42.211082" lon="2.436815">
        <ele>389</ele>
        <time>2019-08-19T05:41:29Z</time>
      </trkpt>
      <trkpt lat="42.211151" lon="2.436771">
        <ele>389</ele>
        <time>2019-08-19T05:41:30Z</time>
      </trkpt>
      <trkpt lat="42.211185" lon="2.436753">
        <ele>389</ele>
        <time>2019-08-19T05:41:31Z</time>
      </trkpt>
      <trkpt lat="42.211218" lon="2.436736">
        <ele>389</ele>
        <time>2019-08-19T05:41:32Z</time>
      </trkpt>
      <trkpt lat="42.211252" lon="2.436719">
        <ele>389</ele>
        <time>2019-08-19T05:41:33Z</time>
      </trkpt>
      <trkpt lat="42.211286" lon="2.436702">
        <ele>389</ele>
        <time>2019-08-19T05:41:34Z</time>
      </trkpt>
      <trkpt lat="42.21132" lon="2.436684">
        <ele>389</ele>
        <time>2019-08-19T05:41:35Z</time>
      </trkpt>
      <trkpt lat="42.211354" lon="2.436667">
        <ele>389</ele>
        <time>2019-08-19T05:41:36Z</time>
      </trkpt>
      <trkpt lat="42.211387" lon="2.43665">
        <ele>389</ele>
        <time>2019-08-19T05:41:37Z</time>
      </trkpt>
      <trkpt lat="42.211421" lon="2.436632">
        <ele>389</ele>
        <time>2019-08-19T05:41:38Z</time>
      </trkpt>
      <trkpt lat="42.211455" lon="2.436615">
        <ele>390</ele>
        <time>2019-08-19T05:41:39Z</time>
      </trkpt>
      <trkpt lat="42.211529" lon="2.436579">
        <ele>390</ele>
        <time>2019-08-19T05:41:40Z</time>
      </trkpt>
      <trkpt lat="42.211565" lon="2.436563">
        <ele>390</ele>
        <time>2019-08-19T05:41:41Z</time>
      </trkpt>
      <trkpt lat="42.2116" lon="2.436546">
        <ele>390</ele>
        <time>2019-08-19T05:41:42Z</time>
      </trkpt>
      <trkpt lat="42.211636" lon="2.436529">
        <ele>390</ele>
        <time>2019-08-19T05:41:43Z</time>
      </trkpt>
      <trkpt lat="42.211671" lon="2.436513">
        <ele>390</ele>
        <time>2019-08-19T05:41:44Z</time>
      </trkpt>
      <trkpt lat="42.211706" lon="2.436496">
        <ele>390</ele>
        <time>2019-08-19T05:41:45Z</time>
      </trkpt>
      <trkpt lat="42.211742" lon="2.436479">
        <ele>390</ele>
        <time>2019-08-19T05:41:46Z</time>
      </trkpt>
      <trkpt lat="42.211777" lon="2.436462">
        <ele>390</ele>
        <time>2019-08-19T05:41:47Z</time>
      </trkpt>
      <trkpt lat="42.211813" lon="2.436446">
        <ele>390</ele>
        <time>2019-08-19T05:41:48Z</time>
      </trkpt>
      <trkpt lat="42.211848" lon="2.436429">
        <ele>390</ele>
        <time>2019-08-19T05:41:49Z</time>
      </trkpt>
      <trkpt lat="42.211921" lon="2.436396">
        <ele>390</ele>
        <time>2019-08-19T05:41:50Z</time>
      </trkpt>
      <trkpt lat="42.211956" lon="2.436378">
        <ele>390</ele>
        <time>2019-08-19T05:41:51Z</time>
      </trkpt>
      <trkpt lat="42.21199" lon="2.436361">
        <ele>390</ele>
        <time>2019-08-19T05:41:52Z</time>
      </trkpt>
      <trkpt lat="42.212024" lon="2.436343">
        <ele>390</ele>
        <time>2019-08-19T05:41:53Z</time>
      </trkpt>
      <trkpt lat="42.212059" lon="2.436326">
        <ele>390</ele>
        <time>2019-08-19T05:41:54Z</time>
      </trkpt>
      <trkpt lat="42.212093" lon="2.436309">
        <ele>390</ele>
        <time>2019-08-19T05:41:55Z</time>
      </trkpt>
      <trkpt lat="42.212127" lon="2.436291">
        <ele>390</ele>
        <time>2019-08-19T05:41:56Z</time>
      </trkpt>
      <trkpt lat="42.212161" lon="2.436274">
        <ele>390</ele>
        <time>2019-08-19T05:41:57Z</time>
      </trkpt>
      <trkpt lat="42.212196" lon="2.436256">
        <ele>390</ele>
        <time>2019-08-19T05:41:58Z</time>
      </trkpt>
      <trkpt lat="42.21223" lon="2.436239">
        <ele>392</ele>
        <time>2019-08-19T05:41:59Z</time>
      </trkpt>
      <trkpt lat="42.212291" lon="2.436188">
        <ele>392</ele>
        <time>2019-08-19T05:42:00Z</time>
      </trkpt>
      <trkpt lat="42.212314" lon="2.436159">
        <ele>392</ele>
        <time>2019-08-19T05:42:01Z</time>
      </trkpt>
      <trkpt lat="42.212338" lon="2.43613">
        <ele>392</ele>
        <time>2019-08-19T05:42:02Z</time>
      </trkpt>
      <trkpt lat="42.212361" lon="2.436101">
        <ele>392</ele>
        <time>2019-08-19T05:42:03Z</time>
      </trkpt>
      <trkpt lat="42.212385" lon="2.436072">
        <ele>392</ele>
        <time>2019-08-19T05:42:04Z</time>
      </trkpt>
      <trkpt lat="42.212408" lon="2.436043">
        <ele>392</ele>
        <time>2019-08-19T05:42:05Z</time>
      </trkpt>
      <trkpt lat="42.212432" lon="2.436014">
        <ele>392</ele>
        <time>2019-08-19T05:42:06Z</time>
      </trkpt>
      <trkpt lat="42.212455" lon="2.435985">
        <ele>392</ele>
        <time>2019-08-19T05:42:07Z</time>
      </trkpt>
      <trkpt lat="42.212479" lon="2.435956">
        <ele>392</ele>
        <time>2019-08-19T05:42:08Z</time>
      </trkpt>
      <trkpt lat="42.212502" lon="2.435927">
        <ele>392</ele>
        <time>2019-08-19T05:42:09Z</time>
      </trkpt>
      <trkpt lat="42.212513" lon="2.435839">
        <ele>392</ele>
        <time>2019-08-19T05:42:10Z</time>
      </trkpt>
      <trkpt lat="42.212512" lon="2.435794">
        <ele>392</ele>
        <time>2019-08-19T05:42:11Z</time>
      </trkpt>
      <trkpt lat="42.212512" lon="2.435748">
        <ele>392</ele>
        <time>2019-08-19T05:42:13Z</time>
      </trkpt>
      <trkpt lat="42.212511" lon="2.435703">
        <ele>392</ele>
        <time>2019-08-19T05:42:14Z</time>
      </trkpt>
      <trkpt lat="42.21251" lon="2.435658">
        <ele>392</ele>
        <time>2019-08-19T05:42:15Z</time>
      </trkpt>
      <trkpt lat="42.212509" lon="2.435613">
        <ele>392</ele>
        <time>2019-08-19T05:42:16Z</time>
      </trkpt>
      <trkpt lat="42.212509" lon="2.435567">
        <ele>392</ele>
        <time>2019-08-19T05:42:17Z</time>
      </trkpt>
      <trkpt lat="42.212508" lon="2.435522">
        <ele>392</ele>
        <time>2019-08-19T05:42:18Z</time>
      </trkpt>
      <trkpt lat="42.212507" lon="2.435477">
        <ele>393</ele>
        <time>2019-08-19T05:42:19Z</time>
      </trkpt>
      <trkpt lat="42.212509" lon="2.435379">
        <ele>393</ele>
        <time>2019-08-19T05:42:20Z</time>
      </trkpt>
      <trkpt lat="42.212513" lon="2.435331">
        <ele>393</ele>
        <time>2019-08-19T05:42:21Z</time>
      </trkpt>
      <trkpt lat="42.212517" lon="2.435283">
        <ele>393</ele>
        <time>2019-08-19T05:42:22Z</time>
      </trkpt>
      <trkpt lat="42.212521" lon="2.435235">
        <ele>393</ele>
        <time>2019-08-19T05:42:23Z</time>
      </trkpt>
      <trkpt lat="42.212526" lon="2.435188">
        <ele>393</ele>
        <time>2019-08-19T05:42:25Z</time>
      </trkpt>
      <trkpt lat="42.21253" lon="2.43514">
        <ele>393</ele>
        <time>2019-08-19T05:42:26Z</time>
      </trkpt>
      <trkpt lat="42.212534" lon="2.435092">
        <ele>393</ele>
        <time>2019-08-19T05:42:27Z</time>
      </trkpt>
      <trkpt lat="42.212538" lon="2.435044">
        <ele>393</ele>
        <time>2019-08-19T05:42:28Z</time>
      </trkpt>
      <trkpt lat="42.212542" lon="2.434996">
        <ele>394</ele>
        <time>2019-08-19T05:42:29Z</time>
      </trkpt>
      <trkpt lat="42.212566" lon="2.434898">
        <ele>394</ele>
        <time>2019-08-19T05:42:30Z</time>
      </trkpt>
      <trkpt lat="42.212575" lon="2.43486">
        <ele>394</ele>
        <time>2019-08-19T05:42:32Z</time>
      </trkpt>
      <trkpt lat="42.212584" lon="2.434822">
        <ele>394</ele>
        <time>2019-08-19T05:42:33Z</time>
      </trkpt>
      <trkpt lat="42.212593" lon="2.434784">
        <ele>394</ele>
        <time>2019-08-19T05:42:34Z</time>
      </trkpt>
      <trkpt lat="42.212601" lon="2.434745">
        <ele>394</ele>
        <time>2019-08-19T05:42:35Z</time>
      </trkpt>
      <trkpt lat="42.21261" lon="2.434707">
        <ele>394</ele>
        <time>2019-08-19T05:42:36Z</time>
      </trkpt>
      <trkpt lat="42.212619" lon="2.434669">
        <ele>394</ele>
        <time>2019-08-19T05:42:37Z</time>
      </trkpt>
      <trkpt lat="42.212628" lon="2.434631">
        <ele>394</ele>
        <time>2019-08-19T05:42:38Z</time>
      </trkpt>
      <trkpt lat="42.212637" lon="2.434593">
        <ele>396</ele>
        <time>2019-08-19T05:42:39Z</time>
      </trkpt>
      <trkpt lat="42.212651" lon="2.434543">
        <ele>396</ele>
        <time>2019-08-19T05:42:40Z</time>
      </trkpt>
      <trkpt lat="42.212659" lon="2.434512">
        <ele>396</ele>
        <time>2019-08-19T05:42:41Z</time>
      </trkpt>
      <trkpt lat="42.212668" lon="2.434481">
        <ele>396</ele>
        <time>2019-08-19T05:42:42Z</time>
      </trkpt>
      <trkpt lat="42.212676" lon="2.43445">
        <ele>396</ele>
        <time>2019-08-19T05:42:43Z</time>
      </trkpt>
      <trkpt lat="42.212685" lon="2.434419">
        <ele>396</ele>
        <time>2019-08-19T05:42:44Z</time>
      </trkpt>
      <trkpt lat="42.212693" lon="2.434388">
        <ele>396</ele>
        <time>2019-08-19T05:42:45Z</time>
      </trkpt>
      <trkpt lat="42.212702" lon="2.434357">
        <ele>396</ele>
        <time>2019-08-19T05:42:46Z</time>
      </trkpt>
      <trkpt lat="42.21271" lon="2.434326">
        <ele>396</ele>
        <time>2019-08-19T05:42:47Z</time>
      </trkpt>
      <trkpt lat="42.212719" lon="2.434295">
        <ele>396</ele>
        <time>2019-08-19T05:42:48Z</time>
      </trkpt>
      <trkpt lat="42.212727" lon="2.434264">
        <ele>398</ele>
        <time>2019-08-19T05:42:49Z</time>
      </trkpt>
      <trkpt lat="42.212756" lon="2.4342">
        <ele>398</ele>
        <time>2019-08-19T05:42:50Z</time>
      </trkpt>
      <trkpt lat="42.212765" lon="2.434176">
        <ele>398</ele>
        <time>2019-08-19T05:42:51Z</time>
      </trkpt>
      <trkpt lat="42.212775" lon="2.434153">
        <ele>398</ele>
        <time>2019-08-19T05:42:52Z</time>
      </trkpt>
      <trkpt lat="42.212784" lon="2.434129">
        <ele>398</ele>
        <time>2019-08-19T05:42:53Z</time>
      </trkpt>
      <trkpt lat="42.212794" lon="2.434106">
        <ele>398</ele>
        <time>2019-08-19T05:42:54Z</time>
      </trkpt>
      <trkpt lat="42.212804" lon="2.434082">
        <ele>398</ele>
        <time>2019-08-19T05:42:55Z</time>
      </trkpt>
      <trkpt lat="42.212813" lon="2.434059">
        <ele>398</ele>
        <time>2019-08-19T05:42:56Z</time>
      </trkpt>
      <trkpt lat="42.212823" lon="2.434035">
        <ele>398</ele>
        <time>2019-08-19T05:42:57Z</time>
      </trkpt>
      <trkpt lat="42.212832" lon="2.434012">
        <ele>398</ele>
        <time>2019-08-19T05:42:58Z</time>
      </trkpt>
      <trkpt lat="42.212842" lon="2.433988">
        <ele>398</ele>
        <time>2019-08-19T05:42:59Z</time>
      </trkpt>
      <trkpt lat="42.212852" lon="2.433943">
        <ele>398</ele>
        <time>2019-08-19T05:43:00Z</time>
      </trkpt>
      <trkpt lat="42.212857" lon="2.433913">
        <ele>398</ele>
        <time>2019-08-19T05:43:01Z</time>
      </trkpt>
      <trkpt lat="42.212862" lon="2.433883">
        <ele>398</ele>
        <time>2019-08-19T05:43:02Z</time>
      </trkpt>
      <trkpt lat="42.212867" lon="2.433853">
        <ele>398</ele>
        <time>2019-08-19T05:43:03Z</time>
      </trkpt>
      <trkpt lat="42.212872" lon="2.433824">
        <ele>398</ele>
        <time>2019-08-19T05:43:04Z</time>
      </trkpt>
      <trkpt lat="42.212877" lon="2.433794">
        <ele>398</ele>
        <time>2019-08-19T05:43:05Z</time>
      </trkpt>
      <trkpt lat="42.212882" lon="2.433764">
        <ele>398</ele>
        <time>2019-08-19T05:43:06Z</time>
      </trkpt>
      <trkpt lat="42.212887" lon="2.433734">
        <ele>398</ele>
        <time>2019-08-19T05:43:07Z</time>
      </trkpt>
      <trkpt lat="42.212892" lon="2.433704">
        <ele>398</ele>
        <time>2019-08-19T05:43:08Z</time>
      </trkpt>
      <trkpt lat="42.212897" lon="2.433674">
        <ele>400</ele>
        <time>2019-08-19T05:43:09Z</time>
      </trkpt>
      <trkpt lat="42.212902" lon="2.433607">
        <ele>400</ele>
        <time>2019-08-19T05:43:10Z</time>
      </trkpt>
      <trkpt lat="42.212903" lon="2.433575">
        <ele>400</ele>
        <time>2019-08-19T05:43:11Z</time>
      </trkpt>
      <trkpt lat="42.212903" lon="2.433542">
        <ele>400</ele>
        <time>2019-08-19T05:43:12Z</time>
      </trkpt>
      <trkpt lat="42.212903" lon="2.433509">
        <ele>400</ele>
        <time>2019-08-19T05:43:13Z</time>
      </trkpt>
      <trkpt lat="42.212904" lon="2.433477">
        <ele>400</ele>
        <time>2019-08-19T05:43:14Z</time>
      </trkpt>
      <trkpt lat="42.212904" lon="2.433444">
        <ele>400</ele>
        <time>2019-08-19T05:43:15Z</time>
      </trkpt>
      <trkpt lat="42.212904" lon="2.433411">
        <ele>400</ele>
        <time>2019-08-19T05:43:16Z</time>
      </trkpt>
      <trkpt lat="42.212904" lon="2.433378">
        <ele>400</ele>
        <time>2019-08-19T05:43:17Z</time>
      </trkpt>
      <trkpt lat="42.212905" lon="2.433346">
        <ele>400</ele>
        <time>2019-08-19T05:43:18Z</time>
      </trkpt>
      <trkpt lat="42.212905" lon="2.433313">
        <ele>401</ele>
        <time>2019-08-19T05:43:19Z</time>
      </trkpt>
      <trkpt lat="42.212904" lon="2.433266">
        <ele>401</ele>
        <time>2019-08-19T05:43:20Z</time>
      </trkpt>
      <trkpt lat="42.212903" lon="2.433237">
        <ele>401</ele>
        <time>2019-08-19T05:43:21Z</time>
      </trkpt>
      <trkpt lat="42.212903" lon="2.433207">
        <ele>401</ele>
        <time>2019-08-19T05:43:22Z</time>
      </trkpt>
      <trkpt lat="42.212902" lon="2.433177">
        <ele>401</ele>
        <time>2019-08-19T05:43:23Z</time>
      </trkpt>
      <trkpt lat="42.212902" lon="2.433147">
        <ele>401</ele>
        <time>2019-08-19T05:43:24Z</time>
      </trkpt>
      <trkpt lat="42.212902" lon="2.433118">
        <ele>401</ele>
        <time>2019-08-19T05:43:25Z</time>
      </trkpt>
      <trkpt lat="42.212901" lon="2.433088">
        <ele>401</ele>
        <time>2019-08-19T05:43:26Z</time>
      </trkpt>
      <trkpt lat="42.212901" lon="2.433058">
        <ele>401</ele>
        <time>2019-08-19T05:43:27Z</time>
      </trkpt>
      <trkpt lat="42.2129" lon="2.433029">
        <ele>401</ele>
        <time>2019-08-19T05:43:28Z</time>
      </trkpt>
      <trkpt lat="42.2129" lon="2.432999">
        <ele>403</ele>
        <time>2019-08-19T05:43:29Z</time>
      </trkpt>
      <trkpt lat="42.212911" lon="2.432943">
        <ele>403</ele>
        <time>2019-08-19T05:43:30Z</time>
      </trkpt>
      <trkpt lat="42.212922" lon="2.432918">
        <ele>403</ele>
        <time>2019-08-19T05:43:31Z</time>
      </trkpt>
      <trkpt lat="42.212933" lon="2.432893">
        <ele>403</ele>
        <time>2019-08-19T05:43:32Z</time>
      </trkpt>
      <trkpt lat="42.212944" lon="2.432868">
        <ele>403</ele>
        <time>2019-08-19T05:43:33Z</time>
      </trkpt>
      <trkpt lat="42.212955" lon="2.432843">
        <ele>403</ele>
        <time>2019-08-19T05:43:34Z</time>
      </trkpt>
      <trkpt lat="42.212965" lon="2.432817">
        <ele>403</ele>
        <time>2019-08-19T05:43:35Z</time>
      </trkpt>
      <trkpt lat="42.212976" lon="2.432792">
        <ele>403</ele>
        <time>2019-08-19T05:43:36Z</time>
      </trkpt>
      <trkpt lat="42.212987" lon="2.432767">
        <ele>403</ele>
        <time>2019-08-19T05:43:37Z</time>
      </trkpt>
      <trkpt lat="42.212998" lon="2.432742">
        <ele>403</ele>
        <time>2019-08-19T05:43:38Z</time>
      </trkpt>
      <trkpt lat="42.213009" lon="2.432717">
        <ele>404</ele>
        <time>2019-08-19T05:43:39Z</time>
      </trkpt>
      <trkpt lat="42.213064" lon="2.432669">
        <ele>404</ele>
        <time>2019-08-19T05:43:40Z</time>
      </trkpt>
      <trkpt lat="42.213087" lon="2.43265">
        <ele>404</ele>
        <time>2019-08-19T05:43:41Z</time>
      </trkpt>
      <trkpt lat="42.213109" lon="2.432632">
        <ele>404</ele>
        <time>2019-08-19T05:43:42Z</time>
      </trkpt>
      <trkpt lat="42.213132" lon="2.432614">
        <ele>404</ele>
        <time>2019-08-19T05:43:43Z</time>
      </trkpt>
      <trkpt lat="42.213155" lon="2.432595">
        <ele>404</ele>
        <time>2019-08-19T05:43:44Z</time>
      </trkpt>
      <trkpt lat="42.213178" lon="2.432577">
        <ele>404</ele>
        <time>2019-08-19T05:43:45Z</time>
      </trkpt>
      <trkpt lat="42.2132" lon="2.432559">
        <ele>404</ele>
        <time>2019-08-19T05:43:46Z</time>
      </trkpt>
      <trkpt lat="42.213223" lon="2.43254">
        <ele>404</ele>
        <time>2019-08-19T05:43:48Z</time>
      </trkpt>
      <trkpt lat="42.213246" lon="2.432522">
        <ele>405</ele>
        <time>2019-08-19T05:43:49Z</time>
      </trkpt>
      <trkpt lat="42.213291" lon="2.432443">
        <ele>405</ele>
        <time>2019-08-19T05:43:50Z</time>
      </trkpt>
      <trkpt lat="42.21331" lon="2.432393">
        <ele>405</ele>
        <time>2019-08-19T05:43:51Z</time>
      </trkpt>
      <trkpt lat="42.213328" lon="2.432342">
        <ele>405</ele>
        <time>2019-08-19T05:43:52Z</time>
      </trkpt>
      <trkpt lat="42.213346" lon="2.432292">
        <ele>405</ele>
        <time>2019-08-19T05:43:53Z</time>
      </trkpt>
      <trkpt lat="42.213365" lon="2.432241">
        <ele>405</ele>
        <time>2019-08-19T05:43:54Z</time>
      </trkpt>
      <trkpt lat="42.213383" lon="2.432191">
        <ele>405</ele>
        <time>2019-08-19T05:43:56Z</time>
      </trkpt>
      <trkpt lat="42.213401" lon="2.43214">
        <ele>405</ele>
        <time>2019-08-19T05:43:57Z</time>
      </trkpt>
      <trkpt lat="42.21342" lon="2.43209">
        <ele>405</ele>
        <time>2019-08-19T05:43:58Z</time>
      </trkpt>
      <trkpt lat="42.213438" lon="2.432039">
        <ele>405</ele>
        <time>2019-08-19T05:43:59Z</time>
      </trkpt>
      <trkpt lat="42.213431" lon="2.431932">
        <ele>405</ele>
        <time>2019-08-19T05:44:00Z</time>
      </trkpt>
      <trkpt lat="42.213424" lon="2.431887">
        <ele>405</ele>
        <time>2019-08-19T05:44:01Z</time>
      </trkpt>
      <trkpt lat="42.213416" lon="2.431841">
        <ele>405</ele>
        <time>2019-08-19T05:44:02Z</time>
      </trkpt>
      <trkpt lat="42.213409" lon="2.431796">
        <ele>405</ele>
        <time>2019-08-19T05:44:03Z</time>
      </trkpt>
      <trkpt lat="42.213401" lon="2.431751">
        <ele>405</ele>
        <time>2019-08-19T05:44:04Z</time>
      </trkpt>
      <trkpt lat="42.213393" lon="2.431706">
        <ele>405</ele>
        <time>2019-08-19T05:44:05Z</time>
      </trkpt>
      <trkpt lat="42.213386" lon="2.431661">
        <ele>405</ele>
        <time>2019-08-19T05:44:06Z</time>
      </trkpt>
      <trkpt lat="42.213378" lon="2.431615">
        <ele>405</ele>
        <time>2019-08-19T05:44:07Z</time>
      </trkpt>
      <trkpt lat="42.213371" lon="2.43157">
        <ele>405</ele>
        <time>2019-08-19T05:44:08Z</time>
      </trkpt>
      <trkpt lat="42.213363" lon="2.431525">
        <ele>404</ele>
        <time>2019-08-19T05:44:09Z</time>
      </trkpt>
      <trkpt lat="42.213349" lon="2.431449">
        <ele>404</ele>
        <time>2019-08-19T05:44:10Z</time>
      </trkpt>
      <trkpt lat="42.213344" lon="2.431418">
        <ele>404</ele>
        <time>2019-08-19T05:44:11Z</time>
      </trkpt>
      <trkpt lat="42.213339" lon="2.431386">
        <ele>404</ele>
        <time>2019-08-19T05:44:12Z</time>
      </trkpt>
      <trkpt lat="42.213334" lon="2.431354">
        <ele>404</ele>
        <time>2019-08-19T05:44:13Z</time>
      </trkpt>
      <trkpt lat="42.213328" lon="2.431323">
        <ele>404</ele>
        <time>2019-08-19T05:44:14Z</time>
      </trkpt>
      <trkpt lat="42.213323" lon="2.431291">
        <ele>404</ele>
        <time>2019-08-19T05:44:15Z</time>
      </trkpt>
      <trkpt lat="42.213318" lon="2.431259">
        <ele>404</ele>
        <time>2019-08-19T05:44:16Z</time>
      </trkpt>
      <trkpt lat="42.213313" lon="2.431228">
        <ele>404</ele>
        <time>2019-08-19T05:44:17Z</time>
      </trkpt>
      <trkpt lat="42.213308" lon="2.431196">
        <ele>405</ele>
        <time>2019-08-19T05:44:19Z</time>
      </trkpt>
      <trkpt lat="42.213289" lon="2.431114">
        <ele>405</ele>
        <time>2019-08-19T05:44:21Z</time>
      </trkpt>
      <trkpt lat="42.213277" lon="2.431075">
        <ele>405</ele>
        <time>2019-08-19T05:44:23Z</time>
      </trkpt>
      <trkpt lat="42.213266" lon="2.431035">
        <ele>405</ele>
        <time>2019-08-19T05:44:24Z</time>
      </trkpt>
      <trkpt lat="42.213254" lon="2.430996">
        <ele>405</ele>
        <time>2019-08-19T05:44:27Z</time>
      </trkpt>
      <trkpt lat="42.213243" lon="2.430956">
        <ele>405</ele>
        <time>2019-08-19T05:44:29Z</time>
      </trkpt>
      <trkpt lat="42.213214" lon="2.430886">
        <ele>405</ele>
        <time>2019-08-19T05:44:30Z</time>
      </trkpt>
      <trkpt lat="42.213195" lon="2.430852">
        <ele>405</ele>
        <time>2019-08-19T05:44:31Z</time>
      </trkpt>
      <trkpt lat="42.213177" lon="2.430818">
        <ele>405</ele>
        <time>2019-08-19T05:44:32Z</time>
      </trkpt>
      <trkpt lat="42.213159" lon="2.430784">
        <ele>405</ele>
        <time>2019-08-19T05:44:33Z</time>
      </trkpt>
      <trkpt lat="42.213141" lon="2.430749">
        <ele>405</ele>
        <time>2019-08-19T05:44:34Z</time>
      </trkpt>
      <trkpt lat="42.213122" lon="2.430715">
        <ele>405</ele>
        <time>2019-08-19T05:44:35Z</time>
      </trkpt>
      <trkpt lat="42.213104" lon="2.430681">
        <ele>405</ele>
        <time>2019-08-19T05:44:36Z</time>
      </trkpt>
      <trkpt lat="42.213086" lon="2.430647">
        <ele>405</ele>
        <time>2019-08-19T05:44:37Z</time>
      </trkpt>
      <trkpt lat="42.213067" lon="2.430613">
        <ele>405</ele>
        <time>2019-08-19T05:44:38Z</time>
      </trkpt>
      <trkpt lat="42.213049" lon="2.430579">
        <ele>405</ele>
        <time>2019-08-19T05:44:39Z</time>
      </trkpt>
      <trkpt lat="42.213" lon="2.4305">
        <ele>405</ele>
        <time>2019-08-19T05:44:40Z</time>
      </trkpt>
      <trkpt lat="42.212976" lon="2.430461">
        <ele>405</ele>
        <time>2019-08-19T05:44:41Z</time>
      </trkpt>
      <trkpt lat="42.212953" lon="2.430422">
        <ele>405</ele>
        <time>2019-08-19T05:44:42Z</time>
      </trkpt>
      <trkpt lat="42.212929" lon="2.430383">
        <ele>405</ele>
        <time>2019-08-19T05:44:43Z</time>
      </trkpt>
      <trkpt lat="42.212906" lon="2.430344">
        <ele>405</ele>
        <time>2019-08-19T05:44:44Z</time>
      </trkpt>
      <trkpt lat="42.212882" lon="2.430305">
        <ele>405</ele>
        <time>2019-08-19T05:44:45Z</time>
      </trkpt>
      <trkpt lat="42.212859" lon="2.430266">
        <ele>405</ele>
        <time>2019-08-19T05:44:46Z</time>
      </trkpt>
      <trkpt lat="42.212835" lon="2.430227">
        <ele>405</ele>
        <time>2019-08-19T05:44:47Z</time>
      </trkpt>
      <trkpt lat="42.212812" lon="2.430188">
        <ele>405</ele>
        <time>2019-08-19T05:44:48Z</time>
      </trkpt>
      <trkpt lat="42.212788" lon="2.430149">
        <ele>405</ele>
        <time>2019-08-19T05:44:49Z</time>
      </trkpt>
      <trkpt lat="42.212733" lon="2.430041">
        <ele>405</ele>
        <time>2019-08-19T05:44:50Z</time>
      </trkpt>
      <trkpt lat="42.212705" lon="2.429983">
        <ele>405</ele>
        <time>2019-08-19T05:44:51Z</time>
      </trkpt>
      <trkpt lat="42.212677" lon="2.429924">
        <ele>405</ele>
        <time>2019-08-19T05:44:52Z</time>
      </trkpt>
      <trkpt lat="42.212649" lon="2.429866">
        <ele>405</ele>
        <time>2019-08-19T05:44:53Z</time>
      </trkpt>
      <trkpt lat="42.212621" lon="2.429807">
        <ele>405</ele>
        <time>2019-08-19T05:44:55Z</time>
      </trkpt>
      <trkpt lat="42.212593" lon="2.429749">
        <ele>405</ele>
        <time>2019-08-19T05:44:56Z</time>
      </trkpt>
      <trkpt lat="42.212565" lon="2.42969">
        <ele>405</ele>
        <time>2019-08-19T05:44:57Z</time>
      </trkpt>
      <trkpt lat="42.212537" lon="2.429632">
        <ele>405</ele>
        <time>2019-08-19T05:44:58Z</time>
      </trkpt>
      <trkpt lat="42.212509" lon="2.429573">
        <ele>406</ele>
        <time>2019-08-19T05:44:59Z</time>
      </trkpt>
      <trkpt lat="42.212491" lon="2.42944">
        <ele>406</ele>
        <time>2019-08-19T05:45:00Z</time>
      </trkpt>
      <trkpt lat="42.212491" lon="2.429375">
        <ele>406</ele>
        <time>2019-08-19T05:45:01Z</time>
      </trkpt>
      <trkpt lat="42.212491" lon="2.429311">
        <ele>406</ele>
        <time>2019-08-19T05:45:02Z</time>
      </trkpt>
      <trkpt lat="42.212491" lon="2.429246">
        <ele>406</ele>
        <time>2019-08-19T05:45:03Z</time>
      </trkpt>
      <trkpt lat="42.212491" lon="2.429182">
        <ele>406</ele>
        <time>2019-08-19T05:45:04Z</time>
      </trkpt>
      <trkpt lat="42.21249" lon="2.429118">
        <ele>406</ele>
        <time>2019-08-19T05:45:05Z</time>
      </trkpt>
      <trkpt lat="42.21249" lon="2.429053">
        <ele>406</ele>
        <time>2019-08-19T05:45:06Z</time>
      </trkpt>
      <trkpt lat="42.21249" lon="2.428989">
        <ele>406</ele>
        <time>2019-08-19T05:45:07Z</time>
      </trkpt>
      <trkpt lat="42.21249" lon="2.428924">
        <ele>406</ele>
        <time>2019-08-19T05:45:08Z</time>
      </trkpt>
      <trkpt lat="42.21249" lon="2.42886">
        <ele>406</ele>
        <time>2019-08-19T05:45:09Z</time>
      </trkpt>
      <trkpt lat="42.212503" lon="2.428728">
        <ele>406</ele>
        <time>2019-08-19T05:45:10Z</time>
      </trkpt>
      <trkpt lat="42.212506" lon="2.428664">
        <ele>406</ele>
        <time>2019-08-19T05:45:11Z</time>
      </trkpt>
      <trkpt lat="42.21251" lon="2.4286">
        <ele>406</ele>
        <time>2019-08-19T05:45:12Z</time>
      </trkpt>
      <trkpt lat="42.212513" lon="2.428536">
        <ele>406</ele>
        <time>2019-08-19T05:45:14Z</time>
      </trkpt>
      <trkpt lat="42.212517" lon="2.428473">
        <ele>406</ele>
        <time>2019-08-19T05:45:15Z</time>
      </trkpt>
      <trkpt lat="42.21252" lon="2.428409">
        <ele>406</ele>
        <time>2019-08-19T05:45:16Z</time>
      </trkpt>
      <trkpt lat="42.212524" lon="2.428345">
        <ele>406</ele>
        <time>2019-08-19T05:45:17Z</time>
      </trkpt>
      <trkpt lat="42.212527" lon="2.428281">
        <ele>406</ele>
        <time>2019-08-19T05:45:18Z</time>
      </trkpt>
      <trkpt lat="42.212531" lon="2.428217">
        <ele>406</ele>
        <time>2019-08-19T05:45:19Z</time>
      </trkpt>
      <trkpt lat="42.212537" lon="2.428095">
        <ele>406</ele>
        <time>2019-08-19T05:45:20Z</time>
      </trkpt>
      <trkpt lat="42.212541" lon="2.428036">
        <ele>406</ele>
        <time>2019-08-19T05:45:21Z</time>
      </trkpt>
      <trkpt lat="42.212544" lon="2.427976">
        <ele>406</ele>
        <time>2019-08-19T05:45:22Z</time>
      </trkpt>
      <trkpt lat="42.212548" lon="2.427917">
        <ele>406</ele>
        <time>2019-08-19T05:45:24Z</time>
      </trkpt>
      <trkpt lat="42.212551" lon="2.427857">
        <ele>406</ele>
        <time>2019-08-19T05:45:25Z</time>
      </trkpt>
      <trkpt lat="42.212555" lon="2.427798">
        <ele>406</ele>
        <time>2019-08-19T05:45:26Z</time>
      </trkpt>
      <trkpt lat="42.212558" lon="2.427738">
        <ele>406</ele>
        <time>2019-08-19T05:45:27Z</time>
      </trkpt>
      <trkpt lat="42.212562" lon="2.427679">
        <ele>406</ele>
        <time>2019-08-19T05:45:28Z</time>
      </trkpt>
      <trkpt lat="42.212565" lon="2.427619">
        <ele>407</ele>
        <time>2019-08-19T05:45:29Z</time>
      </trkpt>
      <trkpt lat="42.212542" lon="2.427515">
        <ele>407</ele>
        <time>2019-08-19T05:45:30Z</time>
      </trkpt>
      <trkpt lat="42.212522" lon="2.427468">
        <ele>407</ele>
        <time>2019-08-19T05:45:31Z</time>
      </trkpt>
      <trkpt lat="42.212503" lon="2.427422">
        <ele>407</ele>
        <time>2019-08-19T05:45:32Z</time>
      </trkpt>
      <trkpt lat="42.212483" lon="2.427375">
        <ele>407</ele>
        <time>2019-08-19T05:45:33Z</time>
      </trkpt>
      <trkpt lat="42.212464" lon="2.427329">
        <ele>407</ele>
        <time>2019-08-19T05:45:34Z</time>
      </trkpt>
      <trkpt lat="42.212445" lon="2.427283">
        <ele>407</ele>
        <time>2019-08-19T05:45:35Z</time>
      </trkpt>
      <trkpt lat="42.212425" lon="2.427236">
        <ele>407</ele>
        <time>2019-08-19T05:45:36Z</time>
      </trkpt>
      <trkpt lat="42.212406" lon="2.42719">
        <ele>407</ele>
        <time>2019-08-19T05:45:37Z</time>
      </trkpt>
      <trkpt lat="42.212386" lon="2.427143">
        <ele>407</ele>
        <time>2019-08-19T05:45:38Z</time>
      </trkpt>
      <trkpt lat="42.212367" lon="2.427097">
        <ele>407</ele>
        <time>2019-08-19T05:45:39Z</time>
      </trkpt>
      <trkpt lat="42.212337" lon="2.426995">
        <ele>407</ele>
        <time>2019-08-19T05:45:40Z</time>
      </trkpt>
      <trkpt lat="42.212331" lon="2.426944">
        <ele>407</ele>
        <time>2019-08-19T05:45:41Z</time>
      </trkpt>
      <trkpt lat="42.212324" lon="2.426894">
        <ele>407</ele>
        <time>2019-08-19T05:45:42Z</time>
      </trkpt>
      <trkpt lat="42.212318" lon="2.426844">
        <ele>407</ele>
        <time>2019-08-19T05:45:43Z</time>
      </trkpt>
      <trkpt lat="42.212311" lon="2.426793">
        <ele>407</ele>
        <time>2019-08-19T05:45:44Z</time>
      </trkpt>
      <trkpt lat="42.212305" lon="2.426743">
        <ele>407</ele>
        <time>2019-08-19T05:45:45Z</time>
      </trkpt>
      <trkpt lat="42.212298" lon="2.426693">
        <ele>407</ele>
        <time>2019-08-19T05:45:47Z</time>
      </trkpt>
      <trkpt lat="42.212292" lon="2.426642">
        <ele>407</ele>
        <time>2019-08-19T05:45:48Z</time>
      </trkpt>
      <trkpt lat="42.212285" lon="2.426592">
        <ele>408</ele>
        <time>2019-08-19T05:45:49Z</time>
      </trkpt>
      <trkpt lat="42.212284" lon="2.426533">
        <ele>408</ele>
        <time>2019-08-19T05:45:50Z</time>
      </trkpt>
      <trkpt lat="42.212284" lon="2.42651">
        <ele>408</ele>
        <time>2019-08-19T05:45:51Z</time>
      </trkpt>
      <trkpt lat="42.212284" lon="2.426486">
        <ele>408</ele>
        <time>2019-08-19T05:45:52Z</time>
      </trkpt>
      <trkpt lat="42.212285" lon="2.426463">
        <ele>408</ele>
        <time>2019-08-19T05:45:54Z</time>
      </trkpt>
      <trkpt lat="42.212285" lon="2.426439">
        <ele>408</ele>
        <time>2019-08-19T05:45:56Z</time>
      </trkpt>
      <trkpt lat="42.212285" lon="2.426416">
        <ele>408</ele>
        <time>2019-08-19T05:45:58Z</time>
      </trkpt>
      <trkpt lat="42.212285" lon="2.426392">
        <ele>409</ele>
        <time>2019-08-19T05:45:59Z</time>
      </trkpt>
      <trkpt lat="42.21229" lon="2.426356">
        <ele>409</ele>
        <time>2019-08-19T05:46:02Z</time>
      </trkpt>
      <trkpt lat="42.212295" lon="2.426326">
        <ele>410</ele>
        <time>2019-08-19T05:46:23Z</time>
      </trkpt>
      <trkpt lat="42.212299" lon="2.426297">
        <ele>410</ele>
        <time>2019-08-19T05:46:24Z</time>
      </trkpt>
      <trkpt lat="42.212304" lon="2.426268">
        <ele>410</ele>
        <time>2019-08-19T05:46:27Z</time>
      </trkpt>
      <trkpt lat="42.212308" lon="2.426239">
        <ele>410</ele>
        <time>2019-08-19T05:46:28Z</time>
      </trkpt>
      <trkpt lat="42.212312" lon="2.426209">
        <ele>410</ele>
        <time>2019-08-19T05:46:29Z</time>
      </trkpt>
      <trkpt lat="42.212317" lon="2.42618">
        <ele>410</ele>
        <time>2019-08-19T05:46:30Z</time>
      </trkpt>
      <trkpt lat="42.212321" lon="2.426151">
        <ele>410</ele>
        <time>2019-08-19T05:46:31Z</time>
      </trkpt>
      <trkpt lat="42.212326" lon="2.426121">
        <ele>410</ele>
        <time>2019-08-19T05:46:32Z</time>
      </trkpt>
      <trkpt lat="42.21233" lon="2.426092">
        <ele>409</ele>
        <time>2019-08-19T05:46:33Z</time>
      </trkpt>
      <trkpt lat="42.212339" lon="2.42604">
        <ele>409</ele>
        <time>2019-08-19T05:46:34Z</time>
      </trkpt>
      <trkpt lat="42.212344" lon="2.42601">
        <ele>409</ele>
        <time>2019-08-19T05:46:36Z</time>
      </trkpt>
      <trkpt lat="42.212349" lon="2.425979">
        <ele>409</ele>
        <time>2019-08-19T05:46:38Z</time>
      </trkpt>
      <trkpt lat="42.212353" lon="2.425948">
        <ele>409</ele>
        <time>2019-08-19T05:46:40Z</time>
      </trkpt>
      <trkpt lat="42.212358" lon="2.425918">
        <ele>409</ele>
        <time>2019-08-19T05:46:42Z</time>
      </trkpt>
      <trkpt lat="42.212363" lon="2.425887">
        <ele>411</ele>
        <time>2019-08-19T05:46:43Z</time>
      </trkpt>
      <trkpt lat="42.212379" lon="2.425813">
        <ele>411</ele>
        <time>2019-08-19T05:46:45Z</time>
      </trkpt>
      <trkpt lat="42.212384" lon="2.425789">
        <ele>411</ele>
        <time>2019-08-19T05:46:47Z</time>
      </trkpt>
      <trkpt lat="42.21239" lon="2.425766">
        <ele>411</ele>
        <time>2019-08-19T05:46:49Z</time>
      </trkpt>
      <trkpt lat="42.212395" lon="2.425742">
        <ele>411</ele>
        <time>2019-08-19T05:46:51Z</time>
      </trkpt>
      <trkpt lat="42.2124" lon="2.425719">
        <ele>413</ele>
        <time>2019-08-19T05:46:53Z</time>
      </trkpt>
      <trkpt lat="42.212416" lon="2.425651">
        <ele>413</ele>
        <time>2019-08-19T05:46:54Z</time>
      </trkpt>
      <trkpt lat="42.21242" lon="2.425619">
        <ele>413</ele>
        <time>2019-08-19T05:46:56Z</time>
      </trkpt>
      <trkpt lat="42.212425" lon="2.425587">
        <ele>413</ele>
        <time>2019-08-19T05:46:58Z</time>
      </trkpt>
      <trkpt lat="42.21243" lon="2.425554">
        <ele>413</ele>
        <time>2019-08-19T05:47:00Z</time>
      </trkpt>
      <trkpt lat="42.212435" lon="2.425522">
        <ele>413</ele>
        <time>2019-08-19T05:47:01Z</time>
      </trkpt>
      <trkpt lat="42.212439" lon="2.42549">
        <ele>413</ele>
        <time>2019-08-19T05:47:02Z</time>
      </trkpt>
      <trkpt lat="42.212444" lon="2.425458">
        <ele>414</ele>
        <time>2019-08-19T05:47:03Z</time>
      </trkpt>
      <trkpt lat="42.212451" lon="2.425413">
        <ele>414</ele>
        <time>2019-08-19T05:47:04Z</time>
      </trkpt>
      <trkpt lat="42.212457" lon="2.425381">
        <ele>414</ele>
        <time>2019-08-19T05:47:05Z</time>
      </trkpt>
      <trkpt lat="42.212464" lon="2.425349">
        <ele>414</ele>
        <time>2019-08-19T05:47:07Z</time>
      </trkpt>
      <trkpt lat="42.21247" lon="2.425317">
        <ele>414</ele>
        <time>2019-08-19T05:47:09Z</time>
      </trkpt>
      <trkpt lat="42.212476" lon="2.425285">
        <ele>414</ele>
        <time>2019-08-19T05:47:11Z</time>
      </trkpt>
      <trkpt lat="42.212482" lon="2.425253">
        <ele>416</ele>
        <time>2019-08-19T05:47:13Z</time>
      </trkpt>
      <trkpt lat="42.212495" lon="2.42518">
        <ele>416</ele>
        <time>2019-08-19T05:47:15Z</time>
      </trkpt>
      <trkpt lat="42.212505" lon="2.425155">
        <ele>416</ele>
        <time>2019-08-19T05:47:16Z</time>
      </trkpt>
      <trkpt lat="42.212514" lon="2.425129">
        <ele>416</ele>
        <time>2019-08-19T05:47:17Z</time>
      </trkpt>
      <trkpt lat="42.212523" lon="2.425104">
        <ele>416</ele>
        <time>2019-08-19T05:47:19Z</time>
      </trkpt>
      <trkpt lat="42.212532" lon="2.425078">
        <ele>416</ele>
        <time>2019-08-19T05:47:20Z</time>
      </trkpt>
      <trkpt lat="42.212542" lon="2.425053">
        <ele>416</ele>
        <time>2019-08-19T05:47:21Z</time>
      </trkpt>
      <trkpt lat="42.212551" lon="2.425027">
        <ele>417</ele>
        <time>2019-08-19T05:47:23Z</time>
      </trkpt>
      <trkpt lat="42.212583" lon="2.424961">
        <ele>417</ele>
        <time>2019-08-19T05:47:25Z</time>
      </trkpt>
      <trkpt lat="42.212596" lon="2.424937">
        <ele>417</ele>
        <time>2019-08-19T05:47:26Z</time>
      </trkpt>
      <trkpt lat="42.212608" lon="2.424912">
        <ele>417</ele>
        <time>2019-08-19T05:47:27Z</time>
      </trkpt>
      <trkpt lat="42.21262" lon="2.424888">
        <ele>417</ele>
        <time>2019-08-19T05:47:28Z</time>
      </trkpt>
      <trkpt lat="42.212632" lon="2.424863">
        <ele>417</ele>
        <time>2019-08-19T05:47:29Z</time>
      </trkpt>
      <trkpt lat="42.212645" lon="2.424839">
        <ele>417</ele>
        <time>2019-08-19T05:47:31Z</time>
      </trkpt>
      <trkpt lat="42.212657" lon="2.424814">
        <ele>420</ele>
        <time>2019-08-19T05:47:33Z</time>
      </trkpt>
      <trkpt lat="42.212679" lon="2.424772">
        <ele>420</ele>
        <time>2019-08-19T05:47:34Z</time>
      </trkpt>
      <trkpt lat="42.212691" lon="2.424749">
        <ele>420</ele>
        <time>2019-08-19T05:47:35Z</time>
      </trkpt>
      <trkpt lat="42.212703" lon="2.424727">
        <ele>420</ele>
        <time>2019-08-19T05:47:37Z</time>
      </trkpt>
      <trkpt lat="42.212715" lon="2.424705">
        <ele>420</ele>
        <time>2019-08-19T05:47:38Z</time>
      </trkpt>
      <trkpt lat="42.212728" lon="2.424682">
        <ele>420</ele>
        <time>2019-08-19T05:47:39Z</time>
      </trkpt>
      <trkpt lat="42.21274" lon="2.42466">
        <ele>420</ele>
        <time>2019-08-19T05:47:40Z</time>
      </trkpt>
      <trkpt lat="42.212752" lon="2.424638">
        <ele>420</ele>
        <time>2019-08-19T05:47:41Z</time>
      </trkpt>
      <trkpt lat="42.212764" lon="2.424615">
        <ele>420</ele>
        <time>2019-08-19T05:47:42Z</time>
      </trkpt>
      <trkpt lat="42.212776" lon="2.424593">
        <ele>420</ele>
        <time>2019-08-19T05:47:43Z</time>
      </trkpt>
      <trkpt lat="42.212797" lon="2.424548">
        <ele>420</ele>
        <time>2019-08-19T05:47:44Z</time>
      </trkpt>
      <trkpt lat="42.212805" lon="2.424525">
        <ele>420</ele>
        <time>2019-08-19T05:47:45Z</time>
      </trkpt>
      <trkpt lat="42.212814" lon="2.424503">
        <ele>420</ele>
        <time>2019-08-19T05:47:46Z</time>
      </trkpt>
      <trkpt lat="42.212823" lon="2.42448">
        <ele>420</ele>
        <time>2019-08-19T05:47:47Z</time>
      </trkpt>
      <trkpt lat="42.212832" lon="2.424457">
        <ele>420</ele>
        <time>2019-08-19T05:47:48Z</time>
      </trkpt>
      <trkpt lat="42.21284" lon="2.424434">
        <ele>420</ele>
        <time>2019-08-19T05:47:49Z</time>
      </trkpt>
      <trkpt lat="42.212849" lon="2.424411">
        <ele>420</ele>
        <time>2019-08-19T05:47:50Z</time>
      </trkpt>
      <trkpt lat="42.212858" lon="2.424389">
        <ele>420</ele>
        <time>2019-08-19T05:47:51Z</time>
      </trkpt>
      <trkpt lat="42.212866" lon="2.424366">
        <ele>420</ele>
        <time>2019-08-19T05:47:52Z</time>
      </trkpt>
      <trkpt lat="42.212875" lon="2.424343">
        <ele>420</ele>
        <time>2019-08-19T05:47:53Z</time>
      </trkpt>
      <trkpt lat="42.21288" lon="2.424249">
        <ele>420</ele>
        <time>2019-08-19T05:47:54Z</time>
      </trkpt>
      <trkpt lat="42.212882" lon="2.424199">
        <ele>420</ele>
        <time>2019-08-19T05:47:55Z</time>
      </trkpt>
      <trkpt lat="42.212884" lon="2.424148">
        <ele>420</ele>
        <time>2019-08-19T05:47:56Z</time>
      </trkpt>
      <trkpt lat="42.212886" lon="2.424097">
        <ele>420</ele>
        <time>2019-08-19T05:47:58Z</time>
      </trkpt>
      <trkpt lat="42.212887" lon="2.424047">
        <ele>420</ele>
        <time>2019-08-19T05:47:59Z</time>
      </trkpt>
      <trkpt lat="42.212889" lon="2.423996">
        <ele>420</ele>
        <time>2019-08-19T05:48:00Z</time>
      </trkpt>
      <trkpt lat="42.212891" lon="2.423945">
        <ele>420</ele>
        <time>2019-08-19T05:48:01Z</time>
      </trkpt>
      <trkpt lat="42.212893" lon="2.423895">
        <ele>420</ele>
        <time>2019-08-19T05:48:02Z</time>
      </trkpt>
      <trkpt lat="42.212895" lon="2.423844">
        <ele>419</ele>
        <time>2019-08-19T05:48:03Z</time>
      </trkpt>
      <trkpt lat="42.21292" lon="2.423777">
        <ele>419</ele>
        <time>2019-08-19T05:48:04Z</time>
      </trkpt>
      <trkpt lat="42.212931" lon="2.42375">
        <ele>419</ele>
        <time>2019-08-19T05:48:05Z</time>
      </trkpt>
      <trkpt lat="42.212943" lon="2.423723">
        <ele>419</ele>
        <time>2019-08-19T05:48:06Z</time>
      </trkpt>
      <trkpt lat="42.212954" lon="2.423696">
        <ele>419</ele>
        <time>2019-08-19T05:48:07Z</time>
      </trkpt>
      <trkpt lat="42.212966" lon="2.423669">
        <ele>419</ele>
        <time>2019-08-19T05:48:08Z</time>
      </trkpt>
      <trkpt lat="42.212977" lon="2.423642">
        <ele>419</ele>
        <time>2019-08-19T05:48:09Z</time>
      </trkpt>
      <trkpt lat="42.212989" lon="2.423615">
        <ele>419</ele>
        <time>2019-08-19T05:48:10Z</time>
      </trkpt>
      <trkpt lat="42.213" lon="2.423588">
        <ele>419</ele>
        <time>2019-08-19T05:48:11Z</time>
      </trkpt>
      <trkpt lat="42.213012" lon="2.423561">
        <ele>419</ele>
        <time>2019-08-19T05:48:12Z</time>
      </trkpt>
      <trkpt lat="42.213023" lon="2.423534">
        <ele>420</ele>
        <time>2019-08-19T05:48:13Z</time>
      </trkpt>
      <trkpt lat="42.213034" lon="2.423507">
        <ele>420</ele>
        <time>2019-08-19T05:48:15Z</time>
      </trkpt>
      <trkpt lat="42.213041" lon="2.423466">
        <ele>420</ele>
        <time>2019-08-19T05:48:17Z</time>
      </trkpt>
      <trkpt lat="42.21305" lon="2.423435">
        <ele>420</ele>
        <time>2019-08-19T05:48:19Z</time>
      </trkpt>
      <trkpt lat="42.21305" lon="2.423435">
        <ele>420</ele>
        <time>2019-08-19T05:48:22Z</time>
      </trkpt>
      <trkpt lat="42.213057" lon="2.423337">
        <ele>420</ele>
        <time>2019-08-19T05:48:39Z</time>
      </trkpt>
      <trkpt lat="42.213053" lon="2.423284">
        <ele>420</ele>
        <time>2019-08-19T05:48:40Z</time>
      </trkpt>
      <trkpt lat="42.21305" lon="2.423232">
        <ele>420</ele>
        <time>2019-08-19T05:48:42Z</time>
      </trkpt>
      <trkpt lat="42.213046" lon="2.42318">
        <ele>420</ele>
        <time>2019-08-19T05:48:43Z</time>
      </trkpt>
      <trkpt lat="42.213043" lon="2.423127">
        <ele>420</ele>
        <time>2019-08-19T05:48:44Z</time>
      </trkpt>
      <trkpt lat="42.213039" lon="2.423075">
        <ele>420</ele>
        <time>2019-08-19T05:48:45Z</time>
      </trkpt>
      <trkpt lat="42.213036" lon="2.423023">
        <ele>420</ele>
        <time>2019-08-19T05:48:46Z</time>
      </trkpt>
      <trkpt lat="42.213032" lon="2.422971">
        <ele>420</ele>
        <time>2019-08-19T05:48:47Z</time>
      </trkpt>
      <trkpt lat="42.213029" lon="2.422918">
        <ele>420</ele>
        <time>2019-08-19T05:48:48Z</time>
      </trkpt>
      <trkpt lat="42.213025" lon="2.422866">
        <ele>419</ele>
        <time>2019-08-19T05:48:49Z</time>
      </trkpt>
      <trkpt lat="42.212989" lon="2.422756">
        <ele>419</ele>
        <time>2019-08-19T05:48:50Z</time>
      </trkpt>
      <trkpt lat="42.212967" lon="2.422704">
        <ele>419</ele>
        <time>2019-08-19T05:48:51Z</time>
      </trkpt>
      <trkpt lat="42.212946" lon="2.422653">
        <ele>419</ele>
        <time>2019-08-19T05:48:52Z</time>
      </trkpt>
      <trkpt lat="42.212924" lon="2.422601">
        <ele>419</ele>
        <time>2019-08-19T05:48:53Z</time>
      </trkpt>
      <trkpt lat="42.212903" lon="2.42255">
        <ele>419</ele>
        <time>2019-08-19T05:48:54Z</time>
      </trkpt>
      <trkpt lat="42.212881" lon="2.422499">
        <ele>419</ele>
        <time>2019-08-19T05:48:55Z</time>
      </trkpt>
      <trkpt lat="42.21286" lon="2.422447">
        <ele>419</ele>
        <time>2019-08-19T05:48:56Z</time>
      </trkpt>
      <trkpt lat="42.212838" lon="2.422396">
        <ele>419</ele>
        <time>2019-08-19T05:48:57Z</time>
      </trkpt>
      <trkpt lat="42.212817" lon="2.422344">
        <ele>419</ele>
        <time>2019-08-19T05:48:58Z</time>
      </trkpt>
      <trkpt lat="42.212795" lon="2.422293">
        <ele>418</ele>
        <time>2019-08-19T05:48:59Z</time>
      </trkpt>
      <trkpt lat="42.21275" lon="2.422101">
        <ele>418</ele>
        <time>2019-08-19T05:49:00Z</time>
      </trkpt>
      <trkpt lat="42.212753" lon="2.422021">
        <ele>418</ele>
        <time>2019-08-19T05:49:01Z</time>
      </trkpt>
      <trkpt lat="42.212756" lon="2.421942">
        <ele>418</ele>
        <time>2019-08-19T05:49:02Z</time>
      </trkpt>
      <trkpt lat="42.212759" lon="2.421862">
        <ele>418</ele>
        <time>2019-08-19T05:49:03Z</time>
      </trkpt>
      <trkpt lat="42.212763" lon="2.421783">
        <ele>418</ele>
        <time>2019-08-19T05:49:04Z</time>
      </trkpt>
      <trkpt lat="42.212766" lon="2.421704">
        <ele>418</ele>
        <time>2019-08-19T05:49:05Z</time>
      </trkpt>
      <trkpt lat="42.212769" lon="2.421624">
        <ele>418</ele>
        <time>2019-08-19T05:49:06Z</time>
      </trkpt>
      <trkpt lat="42.212772" lon="2.421545">
        <ele>418</ele>
        <time>2019-08-19T05:49:07Z</time>
      </trkpt>
      <trkpt lat="42.212775" lon="2.421465">
        <ele>418</ele>
        <time>2019-08-19T05:49:08Z</time>
      </trkpt>
      <trkpt lat="42.212778" lon="2.421386">
        <ele>416</ele>
        <time>2019-08-19T05:49:09Z</time>
      </trkpt>
      <trkpt lat="42.212801" lon="2.421275">
        <ele>416</ele>
        <time>2019-08-19T05:49:10Z</time>
      </trkpt>
      <trkpt lat="42.212815" lon="2.421206">
        <ele>416</ele>
        <time>2019-08-19T05:49:11Z</time>
      </trkpt>
      <trkpt lat="42.21283" lon="2.421138">
        <ele>416</ele>
        <time>2019-08-19T05:49:12Z</time>
      </trkpt>
      <trkpt lat="42.212845" lon="2.421069">
        <ele>416</ele>
        <time>2019-08-19T05:49:13Z</time>
      </trkpt>
      <trkpt lat="42.21286" lon="2.421001">
        <ele>416</ele>
        <time>2019-08-19T05:49:14Z</time>
      </trkpt>
      <trkpt lat="42.212874" lon="2.420933">
        <ele>416</ele>
        <time>2019-08-19T05:49:15Z</time>
      </trkpt>
      <trkpt lat="42.212889" lon="2.420864">
        <ele>416</ele>
        <time>2019-08-19T05:49:16Z</time>
      </trkpt>
      <trkpt lat="42.212904" lon="2.420796">
        <ele>416</ele>
        <time>2019-08-19T05:49:17Z</time>
      </trkpt>
      <trkpt lat="42.212918" lon="2.420727">
        <ele>416</ele>
        <time>2019-08-19T05:49:18Z</time>
      </trkpt>
      <trkpt lat="42.212933" lon="2.420659">
        <ele>416</ele>
        <time>2019-08-19T05:49:19Z</time>
      </trkpt>
      <trkpt lat="42.212959" lon="2.42053">
        <ele>416</ele>
        <time>2019-08-19T05:49:20Z</time>
      </trkpt>
      <trkpt lat="42.212973" lon="2.420468">
        <ele>416</ele>
        <time>2019-08-19T05:49:21Z</time>
      </trkpt>
      <trkpt lat="42.212988" lon="2.420407">
        <ele>416</ele>
        <time>2019-08-19T05:49:22Z</time>
      </trkpt>
      <trkpt lat="42.213002" lon="2.420346">
        <ele>416</ele>
        <time>2019-08-19T05:49:23Z</time>
      </trkpt>
      <trkpt lat="42.213016" lon="2.420284">
        <ele>416</ele>
        <time>2019-08-19T05:49:24Z</time>
      </trkpt>
      <trkpt lat="42.21303" lon="2.420223">
        <ele>416</ele>
        <time>2019-08-19T05:49:25Z</time>
      </trkpt>
      <trkpt lat="42.213045" lon="2.420162">
        <ele>416</ele>
        <time>2019-08-19T05:49:27Z</time>
      </trkpt>
      <trkpt lat="42.213059" lon="2.4201">
        <ele>416</ele>
        <time>2019-08-19T05:49:28Z</time>
      </trkpt>
      <trkpt lat="42.213073" lon="2.420039">
        <ele>416</ele>
        <time>2019-08-19T05:49:29Z</time>
      </trkpt>
      <trkpt lat="42.213107" lon="2.419936">
        <ele>416</ele>
        <time>2019-08-19T05:49:30Z</time>
      </trkpt>
      <trkpt lat="42.213127" lon="2.419893">
        <ele>416</ele>
        <time>2019-08-19T05:49:31Z</time>
      </trkpt>
      <trkpt lat="42.213146" lon="2.419849">
        <ele>416</ele>
        <time>2019-08-19T05:49:32Z</time>
      </trkpt>
      <trkpt lat="42.213165" lon="2.419806">
        <ele>416</ele>
        <time>2019-08-19T05:49:33Z</time>
      </trkpt>
      <trkpt lat="42.213185" lon="2.419762">
        <ele>416</ele>
        <time>2019-08-19T05:49:34Z</time>
      </trkpt>
      <trkpt lat="42.213204" lon="2.419718">
        <ele>416</ele>
        <time>2019-08-19T05:49:35Z</time>
      </trkpt>
      <trkpt lat="42.213223" lon="2.419675">
        <ele>416</ele>
        <time>2019-08-19T05:49:36Z</time>
      </trkpt>
      <trkpt lat="42.213242" lon="2.419631">
        <ele>416</ele>
        <time>2019-08-19T05:49:37Z</time>
      </trkpt>
      <trkpt lat="42.213262" lon="2.419588">
        <ele>416</ele>
        <time>2019-08-19T05:49:38Z</time>
      </trkpt>
      <trkpt lat="42.213281" lon="2.419544">
        <ele>417</ele>
        <time>2019-08-19T05:49:39Z</time>
      </trkpt>
      <trkpt lat="42.213326" lon="2.419459">
        <ele>417</ele>
        <time>2019-08-19T05:49:40Z</time>
      </trkpt>
      <trkpt lat="42.213346" lon="2.419418">
        <ele>417</ele>
        <time>2019-08-19T05:49:41Z</time>
      </trkpt>
      <trkpt lat="42.213367" lon="2.419378">
        <ele>417</ele>
        <time>2019-08-19T05:49:42Z</time>
      </trkpt>
      <trkpt lat="42.213387" lon="2.419337">
        <ele>417</ele>
        <time>2019-08-19T05:49:43Z</time>
      </trkpt>
      <trkpt lat="42.213408" lon="2.419296">
        <ele>417</ele>
        <time>2019-08-19T05:49:44Z</time>
      </trkpt>
      <trkpt lat="42.213428" lon="2.419255">
        <ele>417</ele>
        <time>2019-08-19T05:49:45Z</time>
      </trkpt>
      <trkpt lat="42.213449" lon="2.419214">
        <ele>417</ele>
        <time>2019-08-19T05:49:46Z</time>
      </trkpt>
      <trkpt lat="42.213469" lon="2.419174">
        <ele>417</ele>
        <time>2019-08-19T05:49:47Z</time>
      </trkpt>
      <trkpt lat="42.21349" lon="2.419133">
        <ele>417</ele>
        <time>2019-08-19T05:49:48Z</time>
      </trkpt>
      <trkpt lat="42.21351" lon="2.419092">
        <ele>418</ele>
        <time>2019-08-19T05:49:49Z</time>
      </trkpt>
      <trkpt lat="42.213549" lon="2.418976">
        <ele>418</ele>
        <time>2019-08-19T05:49:50Z</time>
      </trkpt>
      <trkpt lat="42.213556" lon="2.418926">
        <ele>418</ele>
        <time>2019-08-19T05:49:51Z</time>
      </trkpt>
      <trkpt lat="42.213562" lon="2.418875">
        <ele>418</ele>
        <time>2019-08-19T05:49:52Z</time>
      </trkpt>
      <trkpt lat="42.213569" lon="2.418825">
        <ele>418</ele>
        <time>2019-08-19T05:49:53Z</time>
      </trkpt>
      <trkpt lat="42.213576" lon="2.418774">
        <ele>418</ele>
        <time>2019-08-19T05:49:54Z</time>
      </trkpt>
      <trkpt lat="42.213583" lon="2.418724">
        <ele>418</ele>
        <time>2019-08-19T05:49:55Z</time>
      </trkpt>
      <trkpt lat="42.213589" lon="2.418673">
        <ele>418</ele>
        <time>2019-08-19T05:49:57Z</time>
      </trkpt>
      <trkpt lat="42.213596" lon="2.418623">
        <ele>418</ele>
        <time>2019-08-19T05:49:58Z</time>
      </trkpt>
      <trkpt lat="42.213603" lon="2.418572">
        <ele>419</ele>
        <time>2019-08-19T05:49:59Z</time>
      </trkpt>
      <trkpt lat="42.213611" lon="2.418496">
        <ele>419</ele>
        <time>2019-08-19T05:50:00Z</time>
      </trkpt>
      <trkpt lat="42.213619" lon="2.418448">
        <ele>419</ele>
        <time>2019-08-19T05:50:01Z</time>
      </trkpt>
      <trkpt lat="42.213628" lon="2.418401">
        <ele>419</ele>
        <time>2019-08-19T05:50:02Z</time>
      </trkpt>
      <trkpt lat="42.213636" lon="2.418353">
        <ele>419</ele>
        <time>2019-08-19T05:50:03Z</time>
      </trkpt>
      <trkpt lat="42.213644" lon="2.418306">
        <ele>419</ele>
        <time>2019-08-19T05:50:04Z</time>
      </trkpt>
      <trkpt lat="42.213652" lon="2.418258">
        <ele>419</ele>
        <time>2019-08-19T05:50:05Z</time>
      </trkpt>
      <trkpt lat="42.21366" lon="2.418211">
        <ele>419</ele>
        <time>2019-08-19T05:50:06Z</time>
      </trkpt>
      <trkpt lat="42.213669" lon="2.418163">
        <ele>419</ele>
        <time>2019-08-19T05:50:07Z</time>
      </trkpt>
      <trkpt lat="42.213677" lon="2.418116">
        <ele>419</ele>
        <time>2019-08-19T05:50:08Z</time>
      </trkpt>
      <trkpt lat="42.213685" lon="2.418068">
        <ele>418</ele>
        <time>2019-08-19T05:50:09Z</time>
      </trkpt>
      <trkpt lat="42.213717" lon="2.417989">
        <ele>418</ele>
        <time>2019-08-19T05:50:10Z</time>
      </trkpt>
      <trkpt lat="42.213732" lon="2.417955">
        <ele>418</ele>
        <time>2019-08-19T05:50:11Z</time>
      </trkpt>
      <trkpt lat="42.213748" lon="2.417921">
        <ele>418</ele>
        <time>2019-08-19T05:50:12Z</time>
      </trkpt>
      <trkpt lat="42.213763" lon="2.417887">
        <ele>418</ele>
        <time>2019-08-19T05:50:13Z</time>
      </trkpt>
      <trkpt lat="42.213778" lon="2.417853">
        <ele>418</ele>
        <time>2019-08-19T05:50:14Z</time>
      </trkpt>
      <trkpt lat="42.213793" lon="2.417818">
        <ele>418</ele>
        <time>2019-08-19T05:50:15Z</time>
      </trkpt>
      <trkpt lat="42.213808" lon="2.417784">
        <ele>418</ele>
        <time>2019-08-19T05:50:16Z</time>
      </trkpt>
      <trkpt lat="42.213824" lon="2.41775">
        <ele>418</ele>
        <time>2019-08-19T05:50:17Z</time>
      </trkpt>
      <trkpt lat="42.213839" lon="2.417716">
        <ele>418</ele>
        <time>2019-08-19T05:50:18Z</time>
      </trkpt>
      <trkpt lat="42.213854" lon="2.417682">
        <ele>418</ele>
        <time>2019-08-19T05:50:19Z</time>
      </trkpt>
      <trkpt lat="42.213894" lon="2.417612">
        <ele>418</ele>
        <time>2019-08-19T05:50:20Z</time>
      </trkpt>
      <trkpt lat="42.213914" lon="2.417581">
        <ele>418</ele>
        <time>2019-08-19T05:50:21Z</time>
      </trkpt>
      <trkpt lat="42.213935" lon="2.41755">
        <ele>418</ele>
        <time>2019-08-19T05:50:22Z</time>
      </trkpt>
      <trkpt lat="42.213956" lon="2.417519">
        <ele>418</ele>
        <time>2019-08-19T05:50:23Z</time>
      </trkpt>
      <trkpt lat="42.213977" lon="2.417488">
        <ele>418</ele>
        <time>2019-08-19T05:50:24Z</time>
      </trkpt>
      <trkpt lat="42.213997" lon="2.417457">
        <ele>418</ele>
        <time>2019-08-19T05:50:25Z</time>
      </trkpt>
      <trkpt lat="42.214018" lon="2.417426">
        <ele>418</ele>
        <time>2019-08-19T05:50:26Z</time>
      </trkpt>
      <trkpt lat="42.214039" lon="2.417395">
        <ele>418</ele>
        <time>2019-08-19T05:50:27Z</time>
      </trkpt>
      <trkpt lat="42.214059" lon="2.417364">
        <ele>418</ele>
        <time>2019-08-19T05:50:28Z</time>
      </trkpt>
      <trkpt lat="42.21408" lon="2.417333">
        <ele>418</ele>
        <time>2019-08-19T05:50:29Z</time>
      </trkpt>
      <trkpt lat="42.214148" lon="2.417272">
        <ele>418</ele>
        <time>2019-08-19T05:50:30Z</time>
      </trkpt>
      <trkpt lat="42.214174" lon="2.417249">
        <ele>418</ele>
        <time>2019-08-19T05:50:31Z</time>
      </trkpt>
      <trkpt lat="42.214199" lon="2.417227">
        <ele>418</ele>
        <time>2019-08-19T05:50:32Z</time>
      </trkpt>
      <trkpt lat="42.214225" lon="2.417204">
        <ele>418</ele>
        <time>2019-08-19T05:50:33Z</time>
      </trkpt>
      <trkpt lat="42.214251" lon="2.417181">
        <ele>418</ele>
        <time>2019-08-19T05:50:35Z</time>
      </trkpt>
      <trkpt lat="42.214277" lon="2.417158">
        <ele>418</ele>
        <time>2019-08-19T05:50:36Z</time>
      </trkpt>
      <trkpt lat="42.214302" lon="2.417136">
        <ele>418</ele>
        <time>2019-08-19T05:50:37Z</time>
      </trkpt>
      <trkpt lat="42.214328" lon="2.417113">
        <ele>418</ele>
        <time>2019-08-19T05:50:38Z</time>
      </trkpt>
      <trkpt lat="42.214354" lon="2.41709">
        <ele>419</ele>
        <time>2019-08-19T05:50:39Z</time>
      </trkpt>
      <trkpt lat="42.214377" lon="2.417004">
        <ele>419</ele>
        <time>2019-08-19T05:50:40Z</time>
      </trkpt>
      <trkpt lat="42.214382" lon="2.416956">
        <ele>419</ele>
        <time>2019-08-19T05:50:41Z</time>
      </trkpt>
      <trkpt lat="42.214387" lon="2.416908">
        <ele>419</ele>
        <time>2019-08-19T05:50:42Z</time>
      </trkpt>
      <trkpt lat="42.214392" lon="2.41686">
        <ele>419</ele>
        <time>2019-08-19T05:50:43Z</time>
      </trkpt>
      <trkpt lat="42.214397" lon="2.416813">
        <ele>419</ele>
        <time>2019-08-19T05:50:44Z</time>
      </trkpt>
      <trkpt lat="42.214402" lon="2.416765">
        <ele>419</ele>
        <time>2019-08-19T05:50:46Z</time>
      </trkpt>
      <trkpt lat="42.214407" lon="2.416717">
        <ele>419</ele>
        <time>2019-08-19T05:50:47Z</time>
      </trkpt>
      <trkpt lat="42.214412" lon="2.416669">
        <ele>419</ele>
        <time>2019-08-19T05:50:48Z</time>
      </trkpt>
      <trkpt lat="42.214417" lon="2.416621">
        <ele>419</ele>
        <time>2019-08-19T05:50:49Z</time>
      </trkpt>
      <trkpt lat="42.214401" lon="2.41652">
        <ele>419</ele>
        <time>2019-08-19T05:50:50Z</time>
      </trkpt>
      <trkpt lat="42.214386" lon="2.416467">
        <ele>419</ele>
        <time>2019-08-19T05:50:51Z</time>
      </trkpt>
      <trkpt lat="42.214372" lon="2.416413">
        <ele>419</ele>
        <time>2019-08-19T05:50:52Z</time>
      </trkpt>
      <trkpt lat="42.214358" lon="2.416359">
        <ele>419</ele>
        <time>2019-08-19T05:50:53Z</time>
      </trkpt>
      <trkpt lat="42.214343" lon="2.416306">
        <ele>419</ele>
        <time>2019-08-19T05:50:55Z</time>
      </trkpt>
      <trkpt lat="42.214329" lon="2.416252">
        <ele>419</ele>
        <time>2019-08-19T05:50:56Z</time>
      </trkpt>
      <trkpt lat="42.214314" lon="2.416199">
        <ele>419</ele>
        <time>2019-08-19T05:50:57Z</time>
      </trkpt>
      <trkpt lat="42.2143" lon="2.416145">
        <ele>420</ele>
        <time>2019-08-19T05:50:59Z</time>
      </trkpt>
      <trkpt lat="42.214278" lon="2.416063">
        <ele>420</ele>
        <time>2019-08-19T05:51:00Z</time>
      </trkpt>
      <trkpt lat="42.214267" lon="2.41602">
        <ele>420</ele>
        <time>2019-08-19T05:51:01Z</time>
      </trkpt>
      <trkpt lat="42.214257" lon="2.415977">
        <ele>420</ele>
        <time>2019-08-19T05:51:02Z</time>
      </trkpt>
      <trkpt lat="42.214246" lon="2.415934">
        <ele>420</ele>
        <time>2019-08-19T05:51:03Z</time>
      </trkpt>
      <trkpt lat="42.214236" lon="2.41589">
        <ele>420</ele>
        <time>2019-08-19T05:51:04Z</time>
      </trkpt>
      <trkpt lat="42.214226" lon="2.415847">
        <ele>420</ele>
        <time>2019-08-19T05:51:05Z</time>
      </trkpt>
      <trkpt lat="42.214215" lon="2.415804">
        <ele>420</ele>
        <time>2019-08-19T05:51:06Z</time>
      </trkpt>
      <trkpt lat="42.214205" lon="2.415761">
        <ele>420</ele>
        <time>2019-08-19T05:51:07Z</time>
      </trkpt>
      <trkpt lat="42.214194" lon="2.415718">
        <ele>420</ele>
        <time>2019-08-19T05:51:08Z</time>
      </trkpt>
      <trkpt lat="42.214184" lon="2.415675">
        <ele>420</ele>
        <time>2019-08-19T05:51:09Z</time>
      </trkpt>
      <trkpt lat="42.214166" lon="2.415584">
        <ele>420</ele>
        <time>2019-08-19T05:51:10Z</time>
      </trkpt>
      <trkpt lat="42.214154" lon="2.415542">
        <ele>420</ele>
        <time>2019-08-19T05:51:11Z</time>
      </trkpt>
      <trkpt lat="42.214142" lon="2.415501">
        <ele>420</ele>
        <time>2019-08-19T05:51:12Z</time>
      </trkpt>
      <trkpt lat="42.21413" lon="2.41546">
        <ele>420</ele>
        <time>2019-08-19T05:51:13Z</time>
      </trkpt>
      <trkpt lat="42.214118" lon="2.415418">
        <ele>420</ele>
        <time>2019-08-19T05:51:14Z</time>
      </trkpt>
      <trkpt lat="42.214106" lon="2.415377">
        <ele>420</ele>
        <time>2019-08-19T05:51:15Z</time>
      </trkpt>
      <trkpt lat="42.214094" lon="2.415336">
        <ele>420</ele>
        <time>2019-08-19T05:51:16Z</time>
      </trkpt>
      <trkpt lat="42.214082" lon="2.415295">
        <ele>420</ele>
        <time>2019-08-19T05:51:17Z</time>
      </trkpt>
      <trkpt lat="42.21407" lon="2.415253">
        <ele>420</ele>
        <time>2019-08-19T05:51:18Z</time>
      </trkpt>
      <trkpt lat="42.214058" lon="2.415212">
        <ele>422</ele>
        <time>2019-08-19T05:51:19Z</time>
      </trkpt>
      <trkpt lat="42.214035" lon="2.415142">
        <ele>422</ele>
        <time>2019-08-19T05:51:20Z</time>
      </trkpt>
      <trkpt lat="42.214029" lon="2.415104">
        <ele>422</ele>
        <time>2019-08-19T05:51:21Z</time>
      </trkpt>
      <trkpt lat="42.214023" lon="2.415067">
        <ele>422</ele>
        <time>2019-08-19T05:51:22Z</time>
      </trkpt>
      <trkpt lat="42.214017" lon="2.415029">
        <ele>422</ele>
        <time>2019-08-19T05:51:23Z</time>
      </trkpt>
      <trkpt lat="42.214011" lon="2.414991">
        <ele>422</ele>
        <time>2019-08-19T05:51:24Z</time>
      </trkpt>
      <trkpt lat="42.214005" lon="2.414953">
        <ele>422</ele>
        <time>2019-08-19T05:51:25Z</time>
      </trkpt>
      <trkpt lat="42.213999" lon="2.414916">
        <ele>422</ele>
        <time>2019-08-19T05:51:27Z</time>
      </trkpt>
      <trkpt lat="42.213993" lon="2.414878">
        <ele>422</ele>
        <time>2019-08-19T05:51:28Z</time>
      </trkpt>
      <trkpt lat="42.213987" lon="2.41484">
        <ele>424</ele>
        <time>2019-08-19T05:51:29Z</time>
      </trkpt>
      <trkpt lat="42.21399" lon="2.41478">
        <ele>424</ele>
        <time>2019-08-19T05:51:30Z</time>
      </trkpt>
      <trkpt lat="42.213993" lon="2.414754">
        <ele>424</ele>
        <time>2019-08-19T05:51:31Z</time>
      </trkpt>
      <trkpt lat="42.213997" lon="2.414727">
        <ele>424</ele>
        <time>2019-08-19T05:51:32Z</time>
      </trkpt>
      <trkpt lat="42.214001" lon="2.4147">
        <ele>424</ele>
        <time>2019-08-19T05:51:33Z</time>
      </trkpt>
      <trkpt lat="42.214005" lon="2.414673">
        <ele>424</ele>
        <time>2019-08-19T05:51:35Z</time>
      </trkpt>
      <trkpt lat="42.214008" lon="2.414647">
        <ele>424</ele>
        <time>2019-08-19T05:51:37Z</time>
      </trkpt>
      <trkpt lat="42.214012" lon="2.41462">
        <ele>424</ele>
        <time>2019-08-19T05:51:39Z</time>
      </trkpt>
      <trkpt lat="42.214023" lon="2.414584">
        <ele>424</ele>
        <time>2019-08-19T05:51:41Z</time>
      </trkpt>
      <trkpt lat="42.214037" lon="2.414547">
        <ele>424</ele>
        <time>2019-08-19T05:51:43Z</time>
      </trkpt>
      <trkpt lat="42.21405" lon="2.414513">
        <ele>424</ele>
        <time>2019-08-19T05:51:45Z</time>
      </trkpt>
      <trkpt lat="42.21406" lon="2.414481">
        <ele>424</ele>
        <time>2019-08-19T05:51:47Z</time>
      </trkpt>
      <trkpt lat="42.214074" lon="2.414456">
        <ele>424</ele>
        <time>2019-08-19T05:51:49Z</time>
      </trkpt>
      <trkpt lat="42.214091" lon="2.414428">
        <ele>424</ele>
        <time>2019-08-19T05:51:51Z</time>
      </trkpt>
      <trkpt lat="42.214099" lon="2.41439">
        <ele>424</ele>
        <time>2019-08-19T05:51:53Z</time>
      </trkpt>
      <trkpt lat="42.214106" lon="2.414353">
        <ele>424</ele>
        <time>2019-08-19T05:51:55Z</time>
      </trkpt>
      <trkpt lat="42.214116" lon="2.414316">
        <ele>424</ele>
        <time>2019-08-19T05:51:57Z</time>
      </trkpt>
      <trkpt lat="42.214129" lon="2.414281">
        <ele>424</ele>
        <time>2019-08-19T05:51:59Z</time>
      </trkpt>
      <trkpt lat="42.214142" lon="2.414247">
        <ele>424</ele>
        <time>2019-08-19T05:52:01Z</time>
      </trkpt>
      <trkpt lat="42.214152" lon="2.414212">
        <ele>424</ele>
        <time>2019-08-19T05:52:03Z</time>
      </trkpt>
      <trkpt lat="42.214167" lon="2.414184">
        <ele>424</ele>
        <time>2019-08-19T05:52:05Z</time>
      </trkpt>
      <trkpt lat="42.214183" lon="2.414151">
        <ele>424</ele>
        <time>2019-08-19T05:52:07Z</time>
      </trkpt>
      <trkpt lat="42.214191" lon="2.41412">
        <ele>425</ele>
        <time>2019-08-19T05:52:09Z</time>
      </trkpt>
      <trkpt lat="42.214204" lon="2.414052">
        <ele>425</ele>
        <time>2019-08-19T05:52:10Z</time>
      </trkpt>
      <trkpt lat="42.21421" lon="2.414023">
        <ele>425</ele>
        <time>2019-08-19T05:52:12Z</time>
      </trkpt>
      <trkpt lat="42.214215" lon="2.413994">
        <ele>425</ele>
        <time>2019-08-19T05:52:14Z</time>
      </trkpt>
      <trkpt lat="42.21422" lon="2.413966">
        <ele>425</ele>
        <time>2019-08-19T05:52:16Z</time>
      </trkpt>
      <trkpt lat="42.214225" lon="2.413937">
        <ele>425</ele>
        <time>2019-08-19T05:52:17Z</time>
      </trkpt>
      <trkpt lat="42.214231" lon="2.413908">
        <ele>425</ele>
        <time>2019-08-19T05:52:18Z</time>
      </trkpt>
      <trkpt lat="42.214236" lon="2.413879">
        <ele>425</ele>
        <time>2019-08-19T05:52:19Z</time>
      </trkpt>
      <trkpt lat="42.21424" lon="2.413839">
        <ele>425</ele>
        <time>2019-08-19T05:52:20Z</time>
      </trkpt>
      <trkpt lat="42.214241" lon="2.413814">
        <ele>425</ele>
        <time>2019-08-19T05:52:21Z</time>
      </trkpt>
      <trkpt lat="42.214243" lon="2.413788">
        <ele>425</ele>
        <time>2019-08-19T05:52:22Z</time>
      </trkpt>
      <trkpt lat="42.214245" lon="2.413763">
        <ele>425</ele>
        <time>2019-08-19T05:52:23Z</time>
      </trkpt>
      <trkpt lat="42.214246" lon="2.413738">
        <ele>425</ele>
        <time>2019-08-19T05:52:24Z</time>
      </trkpt>
      <trkpt lat="42.214248" lon="2.413713">
        <ele>425</ele>
        <time>2019-08-19T05:52:25Z</time>
      </trkpt>
      <trkpt lat="42.21425" lon="2.413687">
        <ele>425</ele>
        <time>2019-08-19T05:52:27Z</time>
      </trkpt>
      <trkpt lat="42.214251" lon="2.413662">
        <ele>425</ele>
        <time>2019-08-19T05:52:28Z</time>
      </trkpt>
      <trkpt lat="42.214253" lon="2.413637">
        <ele>426</ele>
        <time>2019-08-19T05:52:29Z</time>
      </trkpt>
      <trkpt lat="42.214253" lon="2.41363">
        <ele>427</ele>
        <time>2019-08-19T05:52:34Z</time>
      </trkpt>
      <trkpt lat="42.223249" lon="2.438597">
        <ele>392.1</ele>
        <time>2019-08-18T23:21:43Z</time>
      </trkpt>
      <trkpt lat="42.223284" lon="2.438569">
        <ele>392.4</ele>
        <time>2019-08-18T23:21:44Z</time>
      </trkpt>
      <trkpt lat="42.223325" lon="2.438545">
        <ele>392.9</ele>
        <time>2019-08-18T23:21:46Z</time>
      </trkpt>
      <trkpt lat="42.223359" lon="2.438514">
        <ele>393</ele>
        <time>2019-08-18T23:21:48Z</time>
      </trkpt>
      <trkpt lat="42.223389" lon="2.438492">
        <ele>393.2</ele>
        <time>2019-08-18T23:21:50Z</time>
      </trkpt>
      <trkpt lat="42.223422" lon="2.438458">
        <ele>393.3</ele>
        <time>2019-08-18T23:21:52Z</time>
      </trkpt>
      <trkpt lat="42.223446" lon="2.438433">
        <ele>393.4</ele>
        <time>2019-08-18T23:21:53Z</time>
      </trkpt>
      <trkpt lat="42.223469" lon="2.43841">
        <ele>393.6</ele>
        <time>2019-08-18T23:21:54Z</time>
      </trkpt>
      <trkpt lat="42.223491" lon="2.438388">
        <ele>393.7</ele>
        <time>2019-08-18T23:21:55Z</time>
      </trkpt>
      <trkpt lat="42.223513" lon="2.438364">
        <ele>393.8</ele>
        <time>2019-08-18T23:21:56Z</time>
      </trkpt>
      <trkpt lat="42.223534" lon="2.438342">
        <ele>393.9</ele>
        <time>2019-08-18T23:21:57Z</time>
      </trkpt>
      <trkpt lat="42.223555" lon="2.438319">
        <ele>394</ele>
        <time>2019-08-18T23:21:58Z</time>
      </trkpt>
      <trkpt lat="42.223597" lon="2.438275">
        <ele>394.2</ele>
        <time>2019-08-18T23:22:00Z</time>
      </trkpt>
      <trkpt lat="42.223631" lon="2.438237">
        <ele>394.4</ele>
        <time>2019-08-18T23:22:02Z</time>
      </trkpt>
      <trkpt lat="42.223671" lon="2.4382">
        <ele>394.6</ele>
        <time>2019-08-18T23:22:04Z</time>
      </trkpt>
      <trkpt lat="42.223712" lon="2.438165">
        <ele>394.8</ele>
        <time>2019-08-18T23:22:06Z</time>
      </trkpt>
      <trkpt lat="42.223748" lon="2.438124">
        <ele>395</ele>
        <time>2019-08-18T23:22:08Z</time>
      </trkpt>
      <trkpt lat="42.22378" lon="2.438087">
        <ele>395.2</ele>
        <time>2019-08-18T23:22:10Z</time>
      </trkpt>
      <trkpt lat="42.223812" lon="2.438046">
        <ele>395.4</ele>
        <time>2019-08-18T23:22:12Z</time>
      </trkpt>
      <trkpt lat="42.223848" lon="2.438003">
        <ele>395.6</ele>
        <time>2019-08-18T23:22:14Z</time>
      </trkpt>
      <trkpt lat="42.223884" lon="2.437963">
        <ele>395.8</ele>
        <time>2019-08-18T23:22:16Z</time>
      </trkpt>
      <trkpt lat="42.223921" lon="2.437925">
        <ele>395.9</ele>
        <time>2019-08-18T23:22:18Z</time>
      </trkpt>
      <trkpt lat="42.223959" lon="2.43789">
        <ele>396.1</ele>
        <time>2019-08-18T23:22:20Z</time>
      </trkpt>
      <trkpt lat="42.223997" lon="2.437852">
        <ele>396.3</ele>
        <time>2019-08-18T23:22:22Z</time>
      </trkpt>
      <trkpt lat="42.224036" lon="2.437816">
        <ele>396.5</ele>
        <time>2019-08-18T23:22:24Z</time>
      </trkpt>
      <trkpt lat="42.224071" lon="2.437784">
        <ele>396.7</ele>
        <time>2019-08-18T23:22:26Z</time>
      </trkpt>
      <trkpt lat="42.224107" lon="2.437755">
        <ele>396.9</ele>
        <time>2019-08-18T23:22:28Z</time>
      </trkpt>
      <trkpt lat="42.224144" lon="2.437726">
        <ele>397.1</ele>
        <time>2019-08-18T23:22:30Z</time>
      </trkpt>
      <trkpt lat="42.224177" lon="2.437701">
        <ele>397.3</ele>
        <time>2019-08-18T23:22:32Z</time>
      </trkpt>
      <trkpt lat="42.224214" lon="2.437681">
        <ele>397.4</ele>
        <time>2019-08-18T23:22:34Z</time>
      </trkpt>
      <trkpt lat="42.224248" lon="2.437664">
        <ele>397.6</ele>
        <time>2019-08-18T23:22:36Z</time>
      </trkpt>
      <trkpt lat="42.224286" lon="2.437643">
        <ele>397.8</ele>
        <time>2019-08-18T23:22:38Z</time>
      </trkpt>
      <trkpt lat="42.224325" lon="2.437623">
        <ele>398</ele>
        <time>2019-08-18T23:22:40Z</time>
      </trkpt>
      <trkpt lat="42.224363" lon="2.437602">
        <ele>398.2</ele>
        <time>2019-08-18T23:22:42Z</time>
      </trkpt>
      <trkpt lat="42.224402" lon="2.43758">
        <ele>398.3</ele>
        <time>2019-08-18T23:22:44Z</time>
      </trkpt>
      <trkpt lat="42.22444" lon="2.437562">
        <ele>398.5</ele>
        <time>2019-08-18T23:22:46Z</time>
      </trkpt>
      <trkpt lat="42.224485" lon="2.437542">
        <ele>398.7</ele>
        <time>2019-08-18T23:22:48Z</time>
      </trkpt>
      <trkpt lat="42.224534" lon="2.437524">
        <ele>398.9</ele>
        <time>2019-08-18T23:22:50Z</time>
      </trkpt>
      <trkpt lat="42.224584" lon="2.43751">
        <ele>399.1</ele>
        <time>2019-08-18T23:22:52Z</time>
      </trkpt>
      <trkpt lat="42.224629" lon="2.4375">
        <ele>399.3</ele>
        <time>2019-08-18T23:22:54Z</time>
      </trkpt>
      <trkpt lat="42.224676" lon="2.437487">
        <ele>399.4</ele>
        <time>2019-08-18T23:22:56Z</time>
      </trkpt>
      <trkpt lat="42.224722" lon="2.437471">
        <ele>399.6</ele>
        <time>2019-08-18T23:22:58Z</time>
      </trkpt>
      <trkpt lat="42.224767" lon="2.437451">
        <ele>399.7</ele>
        <time>2019-08-18T23:23:00Z</time>
      </trkpt>
      <trkpt lat="42.224812" lon="2.437433">
        <ele>399.9</ele>
        <time>2019-08-18T23:23:02Z</time>
      </trkpt>
      <trkpt lat="42.224862" lon="2.437419">
        <ele>400</ele>
        <time>2019-08-18T23:23:04Z</time>
      </trkpt>
      <trkpt lat="42.224913" lon="2.437406">
        <ele>400.1</ele>
        <time>2019-08-18T23:23:06Z</time>
      </trkpt>
      <trkpt lat="42.224941" lon="2.437399">
        <ele>400.2</ele>
        <time>2019-08-18T23:23:07Z</time>
      </trkpt>
      <trkpt lat="42.224968" lon="2.437393">
        <ele>400.2</ele>
        <time>2019-08-18T23:23:08Z</time>
      </trkpt>
      <trkpt lat="42.224995" lon="2.437386">
        <ele>400.3</ele>
        <time>2019-08-18T23:23:09Z</time>
      </trkpt>
      <trkpt lat="42.225049" lon="2.437375">
        <ele>400.3</ele>
        <time>2019-08-18T23:23:11Z</time>
      </trkpt>
      <trkpt lat="42.225076" lon="2.437367">
        <ele>400.4</ele>
        <time>2019-08-18T23:23:12Z</time>
      </trkpt>
      <trkpt lat="42.225127" lon="2.437351">
        <ele>400.4</ele>
        <time>2019-08-18T23:23:14Z</time>
      </trkpt>
      <trkpt lat="42.225181" lon="2.437339">
        <ele>400.5</ele>
        <time>2019-08-18T23:23:16Z</time>
      </trkpt>
      <trkpt lat="42.225209" lon="2.437335">
        <ele>400.6</ele>
        <time>2019-08-18T23:23:17Z</time>
      </trkpt>
      <trkpt lat="42.225262" lon="2.437326">
        <ele>400.7</ele>
        <time>2019-08-18T23:23:19Z</time>
      </trkpt>
      <trkpt lat="42.225288" lon="2.437317">
        <ele>400.7</ele>
        <time>2019-08-18T23:23:20Z</time>
      </trkpt>
      <trkpt lat="42.225315" lon="2.437307">
        <ele>400.7</ele>
        <time>2019-08-18T23:23:21Z</time>
      </trkpt>
      <trkpt lat="42.225343" lon="2.437297">
        <ele>400.8</ele>
        <time>2019-08-18T23:23:22Z</time>
      </trkpt>
      <trkpt lat="42.225371" lon="2.437287">
        <ele>400.8</ele>
        <time>2019-08-18T23:23:23Z</time>
      </trkpt>
      <trkpt lat="42.225399" lon="2.437278">
        <ele>400.8</ele>
        <time>2019-08-18T23:23:24Z</time>
      </trkpt>
      <trkpt lat="42.225427" lon="2.437268">
        <ele>400.9</ele>
        <time>2019-08-18T23:23:25Z</time>
      </trkpt>
      <trkpt lat="42.225455" lon="2.43726">
        <ele>400.9</ele>
        <time>2019-08-18T23:23:26Z</time>
      </trkpt>
      <trkpt lat="42.225483" lon="2.437253">
        <ele>400.9</ele>
        <time>2019-08-18T23:23:27Z</time>
      </trkpt>
      <trkpt lat="42.225542" lon="2.437236">
        <ele>400.9</ele>
        <time>2019-08-18T23:23:29Z</time>
      </trkpt>
      <trkpt lat="42.225571" lon="2.437228">
        <ele>401</ele>
        <time>2019-08-18T23:23:30Z</time>
      </trkpt>
      <trkpt lat="42.225602" lon="2.437217">
        <ele>401</ele>
        <time>2019-08-18T23:23:31Z</time>
      </trkpt>
      <trkpt lat="42.22563" lon="2.43721">
        <ele>401</ele>
        <time>2019-08-18T23:23:32Z</time>
      </trkpt>
      <trkpt lat="42.225662" lon="2.437191">
        <ele>401</ele>
        <time>2019-08-18T23:23:33Z</time>
      </trkpt>
      <trkpt lat="42.225694" lon="2.437176">
        <ele>401</ele>
        <time>2019-08-18T23:23:34Z</time>
      </trkpt>
      <trkpt lat="42.225723" lon="2.437178">
        <ele>401</ele>
        <time>2019-08-18T23:23:35Z</time>
      </trkpt>
      <trkpt lat="42.225784" lon="2.437165">
        <ele>401.1</ele>
        <time>2019-08-18T23:23:37Z</time>
      </trkpt>
      <trkpt lat="42.225818" lon="2.437154">
        <ele>401.1</ele>
        <time>2019-08-18T23:23:38Z</time>
      </trkpt>
      <trkpt lat="42.225853" lon="2.437147">
        <ele>401.2</ele>
        <time>2019-08-18T23:23:39Z</time>
      </trkpt>
      <trkpt lat="42.225887" lon="2.437139">
        <ele>401.2</ele>
        <time>2019-08-18T23:23:40Z</time>
      </trkpt>
      <trkpt lat="42.22592" lon="2.437129">
        <ele>401.3</ele>
        <time>2019-08-18T23:23:41Z</time>
      </trkpt>
      <trkpt lat="42.225953" lon="2.437118">
        <ele>401.3</ele>
        <time>2019-08-18T23:23:42Z</time>
      </trkpt>
      <trkpt lat="42.225986" lon="2.437108">
        <ele>401.4</ele>
        <time>2019-08-18T23:23:43Z</time>
      </trkpt>
      <trkpt lat="42.22602" lon="2.437098">
        <ele>401.5</ele>
        <time>2019-08-18T23:23:44Z</time>
      </trkpt>
      <trkpt lat="42.226056" lon="2.437088">
        <ele>401.6</ele>
        <time>2019-08-18T23:23:45Z</time>
      </trkpt>
      <trkpt lat="42.226093" lon="2.437077">
        <ele>401.7</ele>
        <time>2019-08-18T23:23:46Z</time>
      </trkpt>
      <trkpt lat="42.226129" lon="2.437065">
        <ele>401.9</ele>
        <time>2019-08-18T23:23:47Z</time>
      </trkpt>
      <trkpt lat="42.226165" lon="2.437051">
        <ele>402</ele>
        <time>2019-08-18T23:23:48Z</time>
      </trkpt>
      <trkpt lat="42.226201" lon="2.437038">
        <ele>402.1</ele>
        <time>2019-08-18T23:23:49Z</time>
      </trkpt>
      <trkpt lat="42.226237" lon="2.437025">
        <ele>402.2</ele>
        <time>2019-08-18T23:23:50Z</time>
      </trkpt>
      <trkpt lat="42.226271" lon="2.437012">
        <ele>402.3</ele>
        <time>2019-08-18T23:23:51Z</time>
      </trkpt>
      <trkpt lat="42.226307" lon="2.436998">
        <ele>402.4</ele>
        <time>2019-08-18T23:23:52Z</time>
      </trkpt>
      <trkpt lat="42.226345" lon="2.436984">
        <ele>402.5</ele>
        <time>2019-08-18T23:23:53Z</time>
      </trkpt>
      <trkpt lat="42.226383" lon="2.436971">
        <ele>402.6</ele>
        <time>2019-08-18T23:23:54Z</time>
      </trkpt>
      <trkpt lat="42.226422" lon="2.436957">
        <ele>402.7</ele>
        <time>2019-08-18T23:23:55Z</time>
      </trkpt>
      <trkpt lat="42.22646" lon="2.436943">
        <ele>402.7</ele>
        <time>2019-08-18T23:23:56Z</time>
      </trkpt>
      <trkpt lat="42.226498" lon="2.436931">
        <ele>402.8</ele>
        <time>2019-08-18T23:23:57Z</time>
      </trkpt>
      <trkpt lat="42.226536" lon="2.436926">
        <ele>402.8</ele>
        <time>2019-08-18T23:23:58Z</time>
      </trkpt>
      <trkpt lat="42.226577" lon="2.436919">
        <ele>402.8</ele>
        <time>2019-08-18T23:23:59Z</time>
      </trkpt>
      <trkpt lat="42.226615" lon="2.436911">
        <ele>402.9</ele>
        <time>2019-08-18T23:24:00Z</time>
      </trkpt>
      <trkpt lat="42.226653" lon="2.4369">
        <ele>402.9</ele>
        <time>2019-08-18T23:24:01Z</time>
      </trkpt>
      <trkpt lat="42.226691" lon="2.436889">
        <ele>402.9</ele>
        <time>2019-08-18T23:24:02Z</time>
      </trkpt>
      <trkpt lat="42.22673" lon="2.436879">
        <ele>403</ele>
        <time>2019-08-18T23:24:03Z</time>
      </trkpt>
      <trkpt lat="42.226769" lon="2.43687">
        <ele>403.1</ele>
        <time>2019-08-18T23:24:04Z</time>
      </trkpt>
      <trkpt lat="42.226807" lon="2.436857">
        <ele>403.1</ele>
        <time>2019-08-18T23:24:05Z</time>
      </trkpt>
      <trkpt lat="42.226846" lon="2.436844">
        <ele>403.2</ele>
        <time>2019-08-18T23:24:06Z</time>
      </trkpt>
      <trkpt lat="42.226885" lon="2.436833">
        <ele>403.3</ele>
        <time>2019-08-18T23:24:07Z</time>
      </trkpt>
      <trkpt lat="42.226925" lon="2.436822">
        <ele>403.4</ele>
        <time>2019-08-18T23:24:08Z</time>
      </trkpt>
      <trkpt lat="42.226964" lon="2.436813">
        <ele>403.5</ele>
        <time>2019-08-18T23:24:09Z</time>
      </trkpt>
      <trkpt lat="42.227005" lon="2.436802">
        <ele>403.7</ele>
        <time>2019-08-18T23:24:10Z</time>
      </trkpt>
      <trkpt lat="42.227045" lon="2.436787">
        <ele>403.8</ele>
        <time>2019-08-18T23:24:11Z</time>
      </trkpt>
      <trkpt lat="42.227083" lon="2.436773">
        <ele>403.9</ele>
        <time>2019-08-18T23:24:12Z</time>
      </trkpt>
      <trkpt lat="42.227121" lon="2.436761">
        <ele>404.1</ele>
        <time>2019-08-18T23:24:13Z</time>
      </trkpt>
      <trkpt lat="42.22716" lon="2.43675">
        <ele>404.2</ele>
        <time>2019-08-18T23:24:14Z</time>
      </trkpt>
      <trkpt lat="42.227197" lon="2.436737">
        <ele>404.3</ele>
        <time>2019-08-18T23:24:15Z</time>
      </trkpt>
      <trkpt lat="42.227234" lon="2.436721">
        <ele>404.4</ele>
        <time>2019-08-18T23:24:16Z</time>
      </trkpt>
      <trkpt lat="42.227272" lon="2.436705">
        <ele>404.5</ele>
        <time>2019-08-18T23:24:17Z</time>
      </trkpt>
      <trkpt lat="42.227312" lon="2.436688">
        <ele>404.6</ele>
        <time>2019-08-18T23:24:18Z</time>
      </trkpt>
      <trkpt lat="42.227352" lon="2.436673">
        <ele>404.7</ele>
        <time>2019-08-18T23:24:19Z</time>
      </trkpt>
      <trkpt lat="42.227392" lon="2.436658">
        <ele>404.9</ele>
        <time>2019-08-18T23:24:20Z</time>
      </trkpt>
      <trkpt lat="42.227432" lon="2.436642">
        <ele>405</ele>
        <time>2019-08-18T23:24:21Z</time>
      </trkpt>
      <trkpt lat="42.227472" lon="2.43663">
        <ele>405.1</ele>
        <time>2019-08-18T23:24:22Z</time>
      </trkpt>
      <trkpt lat="42.227512" lon="2.436617">
        <ele>405.2</ele>
        <time>2019-08-18T23:24:23Z</time>
      </trkpt>
      <trkpt lat="42.22755" lon="2.436608">
        <ele>405.4</ele>
        <time>2019-08-18T23:24:24Z</time>
      </trkpt>
      <trkpt lat="42.22759" lon="2.436596">
        <ele>405.5</ele>
        <time>2019-08-18T23:24:25Z</time>
      </trkpt>
      <trkpt lat="42.227629" lon="2.436583">
        <ele>405.8</ele>
        <time>2019-08-18T23:24:26Z</time>
      </trkpt>
      <trkpt lat="42.227667" lon="2.436572">
        <ele>406</ele>
        <time>2019-08-18T23:24:27Z</time>
      </trkpt>
      <trkpt lat="42.227705" lon="2.43656">
        <ele>406.2</ele>
        <time>2019-08-18T23:24:28Z</time>
      </trkpt>
      <trkpt lat="42.227742" lon="2.436549">
        <ele>406.4</ele>
        <time>2019-08-18T23:24:29Z</time>
      </trkpt>
      <trkpt lat="42.227777" lon="2.436535">
        <ele>406.6</ele>
        <time>2019-08-18T23:24:30Z</time>
      </trkpt>
      <trkpt lat="42.227813" lon="2.436518">
        <ele>406.9</ele>
        <time>2019-08-18T23:24:31Z</time>
      </trkpt>
      <trkpt lat="42.227847" lon="2.436506">
        <ele>407.1</ele>
        <time>2019-08-18T23:24:32Z</time>
      </trkpt>
      <trkpt lat="42.227883" lon="2.436499">
        <ele>407.4</ele>
        <time>2019-08-18T23:24:33Z</time>
      </trkpt>
      <trkpt lat="42.227922" lon="2.436491">
        <ele>407.6</ele>
        <time>2019-08-18T23:24:34Z</time>
      </trkpt>
      <trkpt lat="42.227961" lon="2.43648">
        <ele>407.9</ele>
        <time>2019-08-18T23:24:35Z</time>
      </trkpt>
      <trkpt lat="42.228" lon="2.436467">
        <ele>408.2</ele>
        <time>2019-08-18T23:24:36Z</time>
      </trkpt>
      <trkpt lat="42.228039" lon="2.436454">
        <ele>408.4</ele>
        <time>2019-08-18T23:24:37Z</time>
      </trkpt>
      <trkpt lat="42.228078" lon="2.436441">
        <ele>408.7</ele>
        <time>2019-08-18T23:24:38Z</time>
      </trkpt>
      <trkpt lat="42.228116" lon="2.436429">
        <ele>408.9</ele>
        <time>2019-08-18T23:24:39Z</time>
      </trkpt>
      <trkpt lat="42.228153" lon="2.436416">
        <ele>409.2</ele>
        <time>2019-08-18T23:24:40Z</time>
      </trkpt>
      <trkpt lat="42.228188" lon="2.436402">
        <ele>409.4</ele>
        <time>2019-08-18T23:24:41Z</time>
      </trkpt>
      <trkpt lat="42.228224" lon="2.43639">
        <ele>409.6</ele>
        <time>2019-08-18T23:24:42Z</time>
      </trkpt>
      <trkpt lat="42.228261" lon="2.436375">
        <ele>409.8</ele>
        <time>2019-08-18T23:24:43Z</time>
      </trkpt>
      <trkpt lat="42.228296" lon="2.436362">
        <ele>409.9</ele>
        <time>2019-08-18T23:24:44Z</time>
      </trkpt>
      <trkpt lat="42.228331" lon="2.436352">
        <ele>410.1</ele>
        <time>2019-08-18T23:24:45Z</time>
      </trkpt>
      <trkpt lat="42.228365" lon="2.436341">
        <ele>410.2</ele>
        <time>2019-08-18T23:24:46Z</time>
      </trkpt>
      <trkpt lat="42.228399" lon="2.436333">
        <ele>410.4</ele>
        <time>2019-08-18T23:24:47Z</time>
      </trkpt>
      <trkpt lat="42.228433" lon="2.436326">
        <ele>410.5</ele>
        <time>2019-08-18T23:24:48Z</time>
      </trkpt>
      <trkpt lat="42.228466" lon="2.436317">
        <ele>410.6</ele>
        <time>2019-08-18T23:24:49Z</time>
      </trkpt>
      <trkpt lat="42.228497" lon="2.436301">
        <ele>410.7</ele>
        <time>2019-08-18T23:24:50Z</time>
      </trkpt>
      <trkpt lat="42.22853" lon="2.436288">
        <ele>410.9</ele>
        <time>2019-08-18T23:24:51Z</time>
      </trkpt>
      <trkpt lat="42.228564" lon="2.436276">
        <ele>411</ele>
        <time>2019-08-18T23:24:52Z</time>
      </trkpt>
      <trkpt lat="42.228597" lon="2.436266">
        <ele>411.1</ele>
        <time>2019-08-18T23:24:53Z</time>
      </trkpt>
      <trkpt lat="42.228628" lon="2.436256">
        <ele>411.2</ele>
        <time>2019-08-18T23:24:54Z</time>
      </trkpt>
      <trkpt lat="42.228659" lon="2.43625">
        <ele>411.3</ele>
        <time>2019-08-18T23:24:55Z</time>
      </trkpt>
      <trkpt lat="42.228691" lon="2.436242">
        <ele>411.5</ele>
        <time>2019-08-18T23:24:56Z</time>
      </trkpt>
      <trkpt lat="42.228722" lon="2.436235">
        <ele>411.6</ele>
        <time>2019-08-18T23:24:57Z</time>
      </trkpt>
      <trkpt lat="42.228755" lon="2.436229">
        <ele>411.7</ele>
        <time>2019-08-18T23:24:58Z</time>
      </trkpt>
      <trkpt lat="42.228788" lon="2.436224">
        <ele>411.8</ele>
        <time>2019-08-18T23:24:59Z</time>
      </trkpt>
      <trkpt lat="42.228819" lon="2.436217">
        <ele>412</ele>
        <time>2019-08-18T23:25:00Z</time>
      </trkpt>
      <trkpt lat="42.228852" lon="2.436208">
        <ele>412.1</ele>
        <time>2019-08-18T23:25:01Z</time>
      </trkpt>
      <trkpt lat="42.228883" lon="2.436197">
        <ele>412.2</ele>
        <time>2019-08-18T23:25:02Z</time>
      </trkpt>
      <trkpt lat="42.228915" lon="2.436186">
        <ele>412.3</ele>
        <time>2019-08-18T23:25:03Z</time>
      </trkpt>
      <trkpt lat="42.228948" lon="2.436178">
        <ele>412.4</ele>
        <time>2019-08-18T23:25:04Z</time>
      </trkpt>
      <trkpt lat="42.228982" lon="2.436171">
        <ele>412.5</ele>
        <time>2019-08-18T23:25:05Z</time>
      </trkpt>
      <trkpt lat="42.229016" lon="2.436165">
        <ele>412.6</ele>
        <time>2019-08-18T23:25:06Z</time>
      </trkpt>
      <trkpt lat="42.229049" lon="2.43616">
        <ele>412.7</ele>
        <time>2019-08-18T23:25:07Z</time>
      </trkpt>
      <trkpt lat="42.229084" lon="2.436152">
        <ele>412.9</ele>
        <time>2019-08-18T23:25:08Z</time>
      </trkpt>
      <trkpt lat="42.229119" lon="2.436146">
        <ele>413.1</ele>
        <time>2019-08-18T23:25:09Z</time>
      </trkpt>
      <trkpt lat="42.229151" lon="2.436139">
        <ele>413.2</ele>
        <time>2019-08-18T23:25:10Z</time>
      </trkpt>
      <trkpt lat="42.229183" lon="2.436133">
        <ele>413.4</ele>
        <time>2019-08-18T23:25:11Z</time>
      </trkpt>
      <trkpt lat="42.229216" lon="2.436133">
        <ele>413.6</ele>
        <time>2019-08-18T23:25:12Z</time>
      </trkpt>
      <trkpt lat="42.229248" lon="2.436136">
        <ele>413.8</ele>
        <time>2019-08-18T23:25:13Z</time>
      </trkpt>
      <trkpt lat="42.229281" lon="2.436138">
        <ele>414</ele>
        <time>2019-08-18T23:25:14Z</time>
      </trkpt>
      <trkpt lat="42.229311" lon="2.436142">
        <ele>414.2</ele>
        <time>2019-08-18T23:25:15Z</time>
      </trkpt>
      <trkpt lat="42.229342" lon="2.436144">
        <ele>414.3</ele>
        <time>2019-08-18T23:25:16Z</time>
      </trkpt>
      <trkpt lat="42.229375" lon="2.436154">
        <ele>414.3</ele>
        <time>2019-08-18T23:25:17Z</time>
      </trkpt>
      <trkpt lat="42.229407" lon="2.436167">
        <ele>414.4</ele>
        <time>2019-08-18T23:25:18Z</time>
      </trkpt>
      <trkpt lat="42.22944" lon="2.436176">
        <ele>414.4</ele>
        <time>2019-08-18T23:25:19Z</time>
      </trkpt>
      <trkpt lat="42.229472" lon="2.436189">
        <ele>414.5</ele>
        <time>2019-08-18T23:25:20Z</time>
      </trkpt>
      <trkpt lat="42.229502" lon="2.436204">
        <ele>414.6</ele>
        <time>2019-08-18T23:25:21Z</time>
      </trkpt>
      <trkpt lat="42.229531" lon="2.436217">
        <ele>414.7</ele>
        <time>2019-08-18T23:25:22Z</time>
      </trkpt>
      <trkpt lat="42.22956" lon="2.43623">
        <ele>414.8</ele>
        <time>2019-08-18T23:25:23Z</time>
      </trkpt>
      <trkpt lat="42.22959" lon="2.436243">
        <ele>415</ele>
        <time>2019-08-18T23:25:24Z</time>
      </trkpt>
      <trkpt lat="42.22962" lon="2.436257">
        <ele>415.2</ele>
        <time>2019-08-18T23:25:25Z</time>
      </trkpt>
      <trkpt lat="42.229648" lon="2.43627">
        <ele>415.3</ele>
        <time>2019-08-18T23:25:26Z</time>
      </trkpt>
      <trkpt lat="42.229676" lon="2.436282">
        <ele>415.5</ele>
        <time>2019-08-18T23:25:27Z</time>
      </trkpt>
      <trkpt lat="42.229702" lon="2.436292">
        <ele>415.6</ele>
        <time>2019-08-18T23:25:28Z</time>
      </trkpt>
      <trkpt lat="42.229755" lon="2.436306">
        <ele>415.8</ele>
        <time>2019-08-18T23:25:30Z</time>
      </trkpt>
      <trkpt lat="42.229782" lon="2.436316">
        <ele>415.9</ele>
        <time>2019-08-18T23:25:31Z</time>
      </trkpt>
      <trkpt lat="42.229829" lon="2.436325">
        <ele>416.1</ele>
        <time>2019-08-18T23:25:33Z</time>
      </trkpt>
      <trkpt lat="42.22988" lon="2.436335">
        <ele>416.2</ele>
        <time>2019-08-18T23:25:35Z</time>
      </trkpt>
      <trkpt lat="42.229907" lon="2.43634">
        <ele>416.2</ele>
        <time>2019-08-18T23:25:36Z</time>
      </trkpt>
      <trkpt lat="42.229935" lon="2.436346">
        <ele>416.3</ele>
        <time>2019-08-18T23:25:37Z</time>
      </trkpt>
      <trkpt lat="42.229963" lon="2.436351">
        <ele>416.3</ele>
        <time>2019-08-18T23:25:38Z</time>
      </trkpt>
      <trkpt lat="42.229991" lon="2.436357">
        <ele>416.4</ele>
        <time>2019-08-18T23:25:39Z</time>
      </trkpt>
      <trkpt lat="42.23002" lon="2.436364">
        <ele>416.4</ele>
        <time>2019-08-18T23:25:40Z</time>
      </trkpt>
      <trkpt lat="42.23005" lon="2.43637">
        <ele>416.5</ele>
        <time>2019-08-18T23:25:41Z</time>
      </trkpt>
      <trkpt lat="42.230079" lon="2.436374">
        <ele>416.6</ele>
        <time>2019-08-18T23:25:42Z</time>
      </trkpt>
      <trkpt lat="42.230108" lon="2.436378">
        <ele>416.7</ele>
        <time>2019-08-18T23:25:43Z</time>
      </trkpt>
      <trkpt lat="42.230157" lon="2.436379">
        <ele>416.9</ele>
        <time>2019-08-18T23:25:45Z</time>
      </trkpt>
      <trkpt lat="42.230184" lon="2.436374">
        <ele>417</ele>
        <time>2019-08-18T23:25:46Z</time>
      </trkpt>
      <trkpt lat="42.230214" lon="2.436365">
        <ele>417.2</ele>
        <time>2019-08-18T23:25:47Z</time>
      </trkpt>
      <trkpt lat="42.230243" lon="2.436355">
        <ele>417.4</ele>
        <time>2019-08-18T23:25:48Z</time>
      </trkpt>
      <trkpt lat="42.23027" lon="2.436343">
        <ele>417.6</ele>
        <time>2019-08-18T23:25:49Z</time>
      </trkpt>
      <trkpt lat="42.230297" lon="2.436327">
        <ele>417.8</ele>
        <time>2019-08-18T23:25:50Z</time>
      </trkpt>
      <trkpt lat="42.230327" lon="2.436311">
        <ele>418</ele>
        <time>2019-08-18T23:25:51Z</time>
      </trkpt>
      <trkpt lat="42.230357" lon="2.436293">
        <ele>418.1</ele>
        <time>2019-08-18T23:25:52Z</time>
      </trkpt>
      <trkpt lat="42.230387" lon="2.436272">
        <ele>418.3</ele>
        <time>2019-08-18T23:25:53Z</time>
      </trkpt>
      <trkpt lat="42.230418" lon="2.436251">
        <ele>418.4</ele>
        <time>2019-08-18T23:25:54Z</time>
      </trkpt>
      <trkpt lat="42.230448" lon="2.43623">
        <ele>418.5</ele>
        <time>2019-08-18T23:25:55Z</time>
      </trkpt>
      <trkpt lat="42.230478" lon="2.436207">
        <ele>418.6</ele>
        <time>2019-08-18T23:25:56Z</time>
      </trkpt>
      <trkpt lat="42.230504" lon="2.436187">
        <ele>418.8</ele>
        <time>2019-08-18T23:25:57Z</time>
      </trkpt>
      <trkpt lat="42.230529" lon="2.436161">
        <ele>418.9</ele>
        <time>2019-08-18T23:25:58Z</time>
      </trkpt>
      <trkpt lat="42.230557" lon="2.436128">
        <ele>419</ele>
        <time>2019-08-18T23:25:59Z</time>
      </trkpt>
      <trkpt lat="42.230586" lon="2.436092">
        <ele>419.1</ele>
        <time>2019-08-18T23:26:00Z</time>
      </trkpt>
      <trkpt lat="42.230613" lon="2.436053">
        <ele>419.1</ele>
        <time>2019-08-18T23:26:01Z</time>
      </trkpt>
      <trkpt lat="42.230649" lon="2.436">
        <ele>419.2</ele>
        <time>2019-08-18T23:26:02Z</time>
      </trkpt>
      <trkpt lat="42.230679" lon="2.435954">
        <ele>419.3</ele>
        <time>2019-08-18T23:26:03Z</time>
      </trkpt>
      <trkpt lat="42.230706" lon="2.435924">
        <ele>419.3</ele>
        <time>2019-08-18T23:26:04Z</time>
      </trkpt>
      <trkpt lat="42.230739" lon="2.435879">
        <ele>419.3</ele>
        <time>2019-08-18T23:26:05Z</time>
      </trkpt>
      <trkpt lat="42.230768" lon="2.435838">
        <ele>419.3</ele>
        <time>2019-08-18T23:26:06Z</time>
      </trkpt>
      <trkpt lat="42.230799" lon="2.435788">
        <ele>419.3</ele>
        <time>2019-08-18T23:26:07Z</time>
      </trkpt>
      <trkpt lat="42.230823" lon="2.435752">
        <ele>419.3</ele>
        <time>2019-08-18T23:26:08Z</time>
      </trkpt>
      <trkpt lat="42.230853" lon="2.435707">
        <ele>419.3</ele>
        <time>2019-08-18T23:26:09Z</time>
      </trkpt>
      <trkpt lat="42.230878" lon="2.435668">
        <ele>419.3</ele>
        <time>2019-08-18T23:26:10Z</time>
      </trkpt>
      <trkpt lat="42.230914" lon="2.435619">
        <ele>419.3</ele>
        <time>2019-08-18T23:26:11Z</time>
      </trkpt>
      <trkpt lat="42.230949" lon="2.435575">
        <ele>419.3</ele>
        <time>2019-08-18T23:26:12Z</time>
      </trkpt>
      <trkpt lat="42.230982" lon="2.435534">
        <ele>419.3</ele>
        <time>2019-08-18T23:26:13Z</time>
      </trkpt>
      <trkpt lat="42.231019" lon="2.435483">
        <ele>419.3</ele>
        <time>2019-08-18T23:26:14Z</time>
      </trkpt>
      <trkpt lat="42.231051" lon="2.435429">
        <ele>419.3</ele>
        <time>2019-08-18T23:26:15Z</time>
      </trkpt>
      <trkpt lat="42.231088" lon="2.43538">
        <ele>419.3</ele>
        <time>2019-08-18T23:26:16Z</time>
      </trkpt>
      <trkpt lat="42.231123" lon="2.43534">
        <ele>419.3</ele>
        <time>2019-08-18T23:26:17Z</time>
      </trkpt>
      <trkpt lat="42.231156" lon="2.435291">
        <ele>419.3</ele>
        <time>2019-08-18T23:26:18Z</time>
      </trkpt>
      <trkpt lat="42.231206" lon="2.435246">
        <ele>419.3</ele>
        <time>2019-08-18T23:26:19Z</time>
      </trkpt>
      <trkpt lat="42.231255" lon="2.435217">
        <ele>419.3</ele>
        <time>2019-08-18T23:26:20Z</time>
      </trkpt>
      <trkpt lat="42.231283" lon="2.435179">
        <ele>419.3</ele>
        <time>2019-08-18T23:26:21Z</time>
      </trkpt>
      <trkpt lat="42.231331" lon="2.435138">
        <ele>419.3</ele>
        <time>2019-08-18T23:26:22Z</time>
      </trkpt>
      <trkpt lat="42.231373" lon="2.435062">
        <ele>419.3</ele>
        <time>2019-08-18T23:26:23Z</time>
      </trkpt>
      <trkpt lat="42.231411" lon="2.435005">
        <ele>419.3</ele>
        <time>2019-08-18T23:26:24Z</time>
      </trkpt>
      <trkpt lat="42.231449" lon="2.434953">
        <ele>419.3</ele>
        <time>2019-08-18T23:26:25Z</time>
      </trkpt>
      <trkpt lat="42.231486" lon="2.434877">
        <ele>419.3</ele>
        <time>2019-08-18T23:26:26Z</time>
      </trkpt>
      <trkpt lat="42.231521" lon="2.434825">
        <ele>419.3</ele>
        <time>2019-08-18T23:26:27Z</time>
      </trkpt>
      <trkpt lat="42.231558" lon="2.434773">
        <ele>419.3</ele>
        <time>2019-08-18T23:26:28Z</time>
      </trkpt>
      <trkpt lat="42.231586" lon="2.434708">
        <ele>419.3</ele>
        <time>2019-08-18T23:26:29Z</time>
      </trkpt>
      <trkpt lat="42.231642" lon="2.434655">
        <ele>419.3</ele>
        <time>2019-08-18T23:26:30Z</time>
      </trkpt>
      <trkpt lat="42.231676" lon="2.434614">
        <ele>419.3</ele>
        <time>2019-08-18T23:26:31Z</time>
      </trkpt>
      <trkpt lat="42.231707" lon="2.434561">
        <ele>419.3</ele>
        <time>2019-08-18T23:26:32Z</time>
      </trkpt>
      <trkpt lat="42.231735" lon="2.434512">
        <ele>419.3</ele>
        <time>2019-08-18T23:26:33Z</time>
      </trkpt>
      <trkpt lat="42.231767" lon="2.434458">
        <ele>419.3</ele>
        <time>2019-08-18T23:26:34Z</time>
      </trkpt>
      <trkpt lat="42.231801" lon="2.434415">
        <ele>419.3</ele>
        <time>2019-08-18T23:26:35Z</time>
      </trkpt>
      <trkpt lat="42.231833" lon="2.434361">
        <ele>419.3</ele>
        <time>2019-08-18T23:26:36Z</time>
      </trkpt>
      <trkpt lat="42.231862" lon="2.434301">
        <ele>419.3</ele>
        <time>2019-08-18T23:26:37Z</time>
      </trkpt>
      <trkpt lat="42.23188" lon="2.434219">
        <ele>419.3</ele>
        <time>2019-08-18T23:26:38Z</time>
      </trkpt>
      <trkpt lat="42.231923" lon="2.434164">
        <ele>419.3</ele>
        <time>2019-08-18T23:26:39Z</time>
      </trkpt>
      <trkpt lat="42.23195" lon="2.434105">
        <ele>419.3</ele>
        <time>2019-08-18T23:26:40Z</time>
      </trkpt>
      <trkpt lat="42.231981" lon="2.434033">
        <ele>419.3</ele>
        <time>2019-08-18T23:26:41Z</time>
      </trkpt>
      <trkpt lat="42.232003" lon="2.433966">
        <ele>419.3</ele>
        <time>2019-08-18T23:26:42Z</time>
      </trkpt>
      <trkpt lat="42.232028" lon="2.433894">
        <ele>419.3</ele>
        <time>2019-08-18T23:26:43Z</time>
      </trkpt>
      <trkpt lat="42.232047" lon="2.433815">
        <ele>419.3</ele>
        <time>2019-08-18T23:26:44Z</time>
      </trkpt>
      <trkpt lat="42.232063" lon="2.433748">
        <ele>419.3</ele>
        <time>2019-08-18T23:26:45Z</time>
      </trkpt>
      <trkpt lat="42.232088" lon="2.433676">
        <ele>419.3</ele>
        <time>2019-08-18T23:26:46Z</time>
      </trkpt>
      <trkpt lat="42.232107" lon="2.433593">
        <ele>419.3</ele>
        <time>2019-08-18T23:26:47Z</time>
      </trkpt>
      <trkpt lat="42.232119" lon="2.433525">
        <ele>419.3</ele>
        <time>2019-08-18T23:26:48Z</time>
      </trkpt>
      <trkpt lat="42.232134" lon="2.433445">
        <ele>419.3</ele>
        <time>2019-08-18T23:26:49Z</time>
      </trkpt>
      <trkpt lat="42.23215" lon="2.43338">
        <ele>419.3</ele>
        <time>2019-08-18T23:26:50Z</time>
      </trkpt>
      <trkpt lat="42.232164" lon="2.433316">
        <ele>419.3</ele>
        <time>2019-08-18T23:26:51Z</time>
      </trkpt>
      <trkpt lat="42.232182" lon="2.433251">
        <ele>419.3</ele>
        <time>2019-08-18T23:26:52Z</time>
      </trkpt>
      <trkpt lat="42.232189" lon="2.43318">
        <ele>419.3</ele>
        <time>2019-08-18T23:26:53Z</time>
      </trkpt>
      <trkpt lat="42.232206" lon="2.433114">
        <ele>419.3</ele>
        <time>2019-08-18T23:26:54Z</time>
      </trkpt>
      <trkpt lat="42.23222" lon="2.433049">
        <ele>419.3</ele>
        <time>2019-08-18T23:26:55Z</time>
      </trkpt>
      <trkpt lat="42.232232" lon="2.432982">
        <ele>419.3</ele>
        <time>2019-08-18T23:26:56Z</time>
      </trkpt>
      <trkpt lat="42.232253" lon="2.432913">
        <ele>419.3</ele>
        <time>2019-08-18T23:26:57Z</time>
      </trkpt>
      <trkpt lat="42.232265" lon="2.432848">
        <ele>419.3</ele>
        <time>2019-08-18T23:26:58Z</time>
      </trkpt>
      <trkpt lat="42.232279" lon="2.43278">
        <ele>419.3</ele>
        <time>2019-08-18T23:26:59Z</time>
      </trkpt>
      <trkpt lat="42.232296" lon="2.432708">
        <ele>419.3</ele>
        <time>2019-08-18T23:27:00Z</time>
      </trkpt>
      <trkpt lat="42.232299" lon="2.432634">
        <ele>419.3</ele>
        <time>2019-08-18T23:27:01Z</time>
      </trkpt>
      <trkpt lat="42.232314" lon="2.432562">
        <ele>419.3</ele>
        <time>2019-08-18T23:27:02Z</time>
      </trkpt>
      <trkpt lat="42.232319" lon="2.432452">
        <ele>419.4</ele>
        <time>2019-08-18T23:27:03Z</time>
      </trkpt>
      <trkpt lat="42.232335" lon="2.43238">
        <ele>419.4</ele>
        <time>2019-08-18T23:27:04Z</time>
      </trkpt>
      <trkpt lat="42.232371" lon="2.432319">
        <ele>419.4</ele>
        <time>2019-08-18T23:27:05Z</time>
      </trkpt>
      <trkpt lat="42.232385" lon="2.432235">
        <ele>419.4</ele>
        <time>2019-08-18T23:27:06Z</time>
      </trkpt>
      <trkpt lat="42.232417" lon="2.432173">
        <ele>419.4</ele>
        <time>2019-08-18T23:27:07Z</time>
      </trkpt>
      <trkpt lat="42.232438" lon="2.432101">
        <ele>419.4</ele>
        <time>2019-08-18T23:27:08Z</time>
      </trkpt>
      <trkpt lat="42.232483" lon="2.432035">
        <ele>419.4</ele>
        <time>2019-08-18T23:27:09Z</time>
      </trkpt>
      <trkpt lat="42.232516" lon="2.431974">
        <ele>419.4</ele>
        <time>2019-08-18T23:27:10Z</time>
      </trkpt>
      <trkpt lat="42.232569" lon="2.431938">
        <ele>419.4</ele>
        <time>2019-08-18T23:27:11Z</time>
      </trkpt>
      <trkpt lat="42.232608" lon="2.431865">
        <ele>419.4</ele>
        <time>2019-08-18T23:27:12Z</time>
      </trkpt>
      <trkpt lat="42.232646" lon="2.431813">
        <ele>419.4</ele>
        <time>2019-08-18T23:27:13Z</time>
      </trkpt>
      <trkpt lat="42.232656" lon="2.431759">
        <ele>419.4</ele>
        <time>2019-08-18T23:27:14Z</time>
      </trkpt>
      <trkpt lat="42.232708" lon="2.431705">
        <ele>419.4</ele>
        <time>2019-08-18T23:27:15Z</time>
      </trkpt>
      <trkpt lat="42.232723" lon="2.431647">
        <ele>419.4</ele>
        <time>2019-08-18T23:27:16Z</time>
      </trkpt>
      <trkpt lat="42.23275" lon="2.4316">
        <ele>419.4</ele>
        <time>2019-08-18T23:27:17Z</time>
      </trkpt>
      <trkpt lat="42.232803" lon="2.431538">
        <ele>419.4</ele>
        <time>2019-08-18T23:27:18Z</time>
      </trkpt>
      <trkpt lat="42.232844" lon="2.431495">
        <ele>419.4</ele>
        <time>2019-08-18T23:27:19Z</time>
      </trkpt>
      <trkpt lat="42.232886" lon="2.431456">
        <ele>419.4</ele>
        <time>2019-08-18T23:27:20Z</time>
      </trkpt>
      <trkpt lat="42.232925" lon="2.431405">
        <ele>419.4</ele>
        <time>2019-08-18T23:27:21Z</time>
      </trkpt>
      <trkpt lat="42.232963" lon="2.431367">
        <ele>419.4</ele>
        <time>2019-08-18T23:27:22Z</time>
      </trkpt>
      <trkpt lat="42.233002" lon="2.431321">
        <ele>419.4</ele>
        <time>2019-08-18T23:27:23Z</time>
      </trkpt>
      <trkpt lat="42.233041" lon="2.431286">
        <ele>419.4</ele>
        <time>2019-08-18T23:27:24Z</time>
      </trkpt>
      <trkpt lat="42.233086" lon="2.431227">
        <ele>419.4</ele>
        <time>2019-08-18T23:27:25Z</time>
      </trkpt>
      <trkpt lat="42.233136" lon="2.431184">
        <ele>419.4</ele>
        <time>2019-08-18T23:27:26Z</time>
      </trkpt>
      <trkpt lat="42.23318" lon="2.431137">
        <ele>419.4</ele>
        <time>2019-08-18T23:27:27Z</time>
      </trkpt>
      <trkpt lat="42.233226" lon="2.431115">
        <ele>419.4</ele>
        <time>2019-08-18T23:27:28Z</time>
      </trkpt>
      <trkpt lat="42.233272" lon="2.431072">
        <ele>419.4</ele>
        <time>2019-08-18T23:27:29Z</time>
      </trkpt>
      <trkpt lat="42.233319" lon="2.431029">
        <ele>419.4</ele>
        <time>2019-08-18T23:27:30Z</time>
      </trkpt>
      <trkpt lat="42.233366" lon="2.430989">
        <ele>419.4</ele>
        <time>2019-08-18T23:27:31Z</time>
      </trkpt>
      <trkpt lat="42.233413" lon="2.430952">
        <ele>419.4</ele>
        <time>2019-08-18T23:27:32Z</time>
      </trkpt>
      <trkpt lat="42.233461" lon="2.430916">
        <ele>419.4</ele>
        <time>2019-08-18T23:27:33Z</time>
      </trkpt>
      <trkpt lat="42.233509" lon="2.430878">
        <ele>419.4</ele>
        <time>2019-08-18T23:27:34Z</time>
      </trkpt>
      <trkpt lat="42.233559" lon="2.430851">
        <ele>419.4</ele>
        <time>2019-08-18T23:27:35Z</time>
      </trkpt>
      <trkpt lat="42.23361" lon="2.430754">
        <ele>419.4</ele>
        <time>2019-08-18T23:27:36Z</time>
      </trkpt>
      <trkpt lat="42.233658" lon="2.430711">
        <ele>419.4</ele>
        <time>2019-08-18T23:27:37Z</time>
      </trkpt>
      <trkpt lat="42.233709" lon="2.430672">
        <ele>419.4</ele>
        <time>2019-08-18T23:27:38Z</time>
      </trkpt>
      <trkpt lat="42.23376" lon="2.430619">
        <ele>419.4</ele>
        <time>2019-08-18T23:27:39Z</time>
      </trkpt>
      <trkpt lat="42.233805" lon="2.430599">
        <ele>419.4</ele>
        <time>2019-08-18T23:27:40Z</time>
      </trkpt>
      <trkpt lat="42.233865" lon="2.430555">
        <ele>419.4</ele>
        <time>2019-08-18T23:27:41Z</time>
      </trkpt>
      <trkpt lat="42.23391" lon="2.430515">
        <ele>419.4</ele>
        <time>2019-08-18T23:27:42Z</time>
      </trkpt>
      <trkpt lat="42.233962" lon="2.430504">
        <ele>419.4</ele>
        <time>2019-08-18T23:27:43Z</time>
      </trkpt>
      <trkpt lat="42.234015" lon="2.430483">
        <ele>419.4</ele>
        <time>2019-08-18T23:27:44Z</time>
      </trkpt>
      <trkpt lat="42.234083" lon="2.430455">
        <ele>419.4</ele>
        <time>2019-08-18T23:27:45Z</time>
      </trkpt>
      <trkpt lat="42.23415" lon="2.430456">
        <ele>419.4</ele>
        <time>2019-08-18T23:27:46Z</time>
      </trkpt>
      <trkpt lat="42.234209" lon="2.43045">
        <ele>419.4</ele>
        <time>2019-08-18T23:27:47Z</time>
      </trkpt>
      <trkpt lat="42.234264" lon="2.430448">
        <ele>419.4</ele>
        <time>2019-08-18T23:27:48Z</time>
      </trkpt>
      <trkpt lat="42.234325" lon="2.430461">
        <ele>419.4</ele>
        <time>2019-08-18T23:27:49Z</time>
      </trkpt>
      <trkpt lat="42.234386" lon="2.430466">
        <ele>419.4</ele>
        <time>2019-08-18T23:27:50Z</time>
      </trkpt>
      <trkpt lat="42.234444" lon="2.430478">
        <ele>419.4</ele>
        <time>2019-08-18T23:27:51Z</time>
      </trkpt>
      <trkpt lat="42.234499" lon="2.430501">
        <ele>419.4</ele>
        <time>2019-08-18T23:27:52Z</time>
      </trkpt>
      <trkpt lat="42.234557" lon="2.430524">
        <ele>419.4</ele>
        <time>2019-08-18T23:27:53Z</time>
      </trkpt>
      <trkpt lat="42.23462" lon="2.430549">
        <ele>419.4</ele>
        <time>2019-08-18T23:27:54Z</time>
      </trkpt>
      <trkpt lat="42.234678" lon="2.430562">
        <ele>419.4</ele>
        <time>2019-08-18T23:27:55Z</time>
      </trkpt>
      <trkpt lat="42.234734" lon="2.430563">
        <ele>419.4</ele>
        <time>2019-08-18T23:27:56Z</time>
      </trkpt>
      <trkpt lat="42.234791" lon="2.430576">
        <ele>419.4</ele>
        <time>2019-08-18T23:27:57Z</time>
      </trkpt>
      <trkpt lat="42.234842" lon="2.430588">
        <ele>419.4</ele>
        <time>2019-08-18T23:27:58Z</time>
      </trkpt>
      <trkpt lat="42.234895" lon="2.4306">
        <ele>419.4</ele>
        <time>2019-08-18T23:27:59Z</time>
      </trkpt>
      <trkpt lat="42.234941" lon="2.430584">
        <ele>419.4</ele>
        <time>2019-08-18T23:28:00Z</time>
      </trkpt>
      <trkpt lat="42.234991" lon="2.430589">
        <ele>419.5</ele>
        <time>2019-08-18T23:28:01Z</time>
      </trkpt>
      <trkpt lat="42.235055" lon="2.430614">
        <ele>419.6</ele>
        <time>2019-08-18T23:28:02Z</time>
      </trkpt>
      <trkpt lat="42.235111" lon="2.430609">
        <ele>419.7</ele>
        <time>2019-08-18T23:28:03Z</time>
      </trkpt>
      <trkpt lat="42.235164" lon="2.430585">
        <ele>419.8</ele>
        <time>2019-08-18T23:28:04Z</time>
      </trkpt>
      <trkpt lat="42.235233" lon="2.430578">
        <ele>420</ele>
        <time>2019-08-18T23:28:05Z</time>
      </trkpt>
      <trkpt lat="42.235289" lon="2.430558">
        <ele>420.1</ele>
        <time>2019-08-18T23:28:06Z</time>
      </trkpt>
      <trkpt lat="42.235342" lon="2.430527">
        <ele>420.2</ele>
        <time>2019-08-18T23:28:07Z</time>
      </trkpt>
      <trkpt lat="42.235387" lon="2.430487">
        <ele>420.3</ele>
        <time>2019-08-18T23:28:08Z</time>
      </trkpt>
      <trkpt lat="42.235437" lon="2.430445">
        <ele>420.4</ele>
        <time>2019-08-18T23:28:09Z</time>
      </trkpt>
      <trkpt lat="42.235487" lon="2.430403">
        <ele>420.4</ele>
        <time>2019-08-18T23:28:10Z</time>
      </trkpt>
      <trkpt lat="42.235541" lon="2.430363">
        <ele>420.4</ele>
        <time>2019-08-18T23:28:11Z</time>
      </trkpt>
      <trkpt lat="42.23559" lon="2.430313">
        <ele>420.4</ele>
        <time>2019-08-18T23:28:12Z</time>
      </trkpt>
      <trkpt lat="42.235647" lon="2.43026">
        <ele>420.5</ele>
        <time>2019-08-18T23:28:13Z</time>
      </trkpt>
      <trkpt lat="42.2357" lon="2.430218">
        <ele>420.5</ele>
        <time>2019-08-18T23:28:14Z</time>
      </trkpt>
      <trkpt lat="42.235751" lon="2.430169">
        <ele>420.6</ele>
        <time>2019-08-18T23:28:15Z</time>
      </trkpt>
      <trkpt lat="42.235805" lon="2.430128">
        <ele>420.7</ele>
        <time>2019-08-18T23:28:16Z</time>
      </trkpt>
      <trkpt lat="42.235867" lon="2.430074">
        <ele>420.9</ele>
        <time>2019-08-18T23:28:17Z</time>
      </trkpt>
      <trkpt lat="42.235925" lon="2.430027">
        <ele>421.1</ele>
        <time>2019-08-18T23:28:18Z</time>
      </trkpt>
      <trkpt lat="42.235981" lon="2.429982">
        <ele>421.4</ele>
        <time>2019-08-18T23:28:19Z</time>
      </trkpt>
      <trkpt lat="42.236031" lon="2.429936">
        <ele>421.3</ele>
        <time>2019-08-18T23:28:20Z</time>
      </trkpt>
      <trkpt lat="42.236083" lon="2.429905">
        <ele>421.3</ele>
        <time>2019-08-18T23:28:21Z</time>
      </trkpt>
      <trkpt lat="42.236135" lon="2.429882">
        <ele>421.3</ele>
        <time>2019-08-18T23:28:22Z</time>
      </trkpt>
      <trkpt lat="42.236189" lon="2.429842">
        <ele>421.2</ele>
        <time>2019-08-18T23:28:23Z</time>
      </trkpt>
      <trkpt lat="42.236242" lon="2.4298">
        <ele>421.1</ele>
        <time>2019-08-18T23:28:24Z</time>
      </trkpt>
      <trkpt lat="42.236294" lon="2.429757">
        <ele>421</ele>
        <time>2019-08-18T23:28:25Z</time>
      </trkpt>
      <trkpt lat="42.236345" lon="2.42971">
        <ele>420.9</ele>
        <time>2019-08-18T23:28:26Z</time>
      </trkpt>
      <trkpt lat="42.236392" lon="2.429671">
        <ele>420.8</ele>
        <time>2019-08-18T23:28:27Z</time>
      </trkpt>
      <trkpt lat="42.236445" lon="2.429632">
        <ele>420.7</ele>
        <time>2019-08-18T23:28:28Z</time>
      </trkpt>
      <trkpt lat="42.236493" lon="2.42959">
        <ele>420.6</ele>
        <time>2019-08-18T23:28:29Z</time>
      </trkpt>
      <trkpt lat="42.236551" lon="2.429558">
        <ele>420.4</ele>
        <time>2019-08-18T23:28:30Z</time>
      </trkpt>
      <trkpt lat="42.236599" lon="2.429518">
        <ele>420.3</ele>
        <time>2019-08-18T23:28:31Z</time>
      </trkpt>
      <trkpt lat="42.236656" lon="2.429469">
        <ele>420.1</ele>
        <time>2019-08-18T23:28:32Z</time>
      </trkpt>
      <trkpt lat="42.236706" lon="2.429421">
        <ele>419.9</ele>
        <time>2019-08-18T23:28:33Z</time>
      </trkpt>
      <trkpt lat="42.236759" lon="2.429385">
        <ele>419.8</ele>
        <time>2019-08-18T23:28:34Z</time>
      </trkpt>
      <trkpt lat="42.236806" lon="2.429346">
        <ele>419.7</ele>
        <time>2019-08-18T23:28:35Z</time>
      </trkpt>
      <trkpt lat="42.236855" lon="2.4293">
        <ele>419.9</ele>
        <time>2019-08-18T23:28:36Z</time>
      </trkpt>
      <trkpt lat="42.2369" lon="2.429271">
        <ele>420.1</ele>
        <time>2019-08-18T23:28:37Z</time>
      </trkpt>
      <trkpt lat="42.236944" lon="2.429239">
        <ele>420.4</ele>
        <time>2019-08-18T23:28:38Z</time>
      </trkpt>
      <trkpt lat="42.236991" lon="2.429207">
        <ele>420.6</ele>
        <time>2019-08-18T23:28:39Z</time>
      </trkpt>
      <trkpt lat="42.237035" lon="2.429155">
        <ele>420.9</ele>
        <time>2019-08-18T23:28:40Z</time>
      </trkpt>
      <trkpt lat="42.237068" lon="2.429129">
        <ele>421.1</ele>
        <time>2019-08-18T23:28:41Z</time>
      </trkpt>
      <trkpt lat="42.237104" lon="2.429097">
        <ele>421.3</ele>
        <time>2019-08-18T23:28:42Z</time>
      </trkpt>
      <trkpt lat="42.237139" lon="2.429071">
        <ele>421.4</ele>
        <time>2019-08-18T23:28:43Z</time>
      </trkpt>
      <trkpt lat="42.237176" lon="2.429036">
        <ele>421.5</ele>
        <time>2019-08-18T23:28:44Z</time>
      </trkpt>
      <trkpt lat="42.237214" lon="2.429">
        <ele>421.7</ele>
        <time>2019-08-18T23:28:45Z</time>
      </trkpt>
      <trkpt lat="42.237249" lon="2.428973">
        <ele>421.8</ele>
        <time>2019-08-18T23:28:46Z</time>
      </trkpt>
      <trkpt lat="42.237274" lon="2.428949">
        <ele>421.9</ele>
        <time>2019-08-18T23:28:47Z</time>
      </trkpt>
      <trkpt lat="42.237315" lon="2.428915">
        <ele>422.1</ele>
        <time>2019-08-18T23:28:48Z</time>
      </trkpt>
      <trkpt lat="42.237351" lon="2.428883">
        <ele>422.4</ele>
        <time>2019-08-18T23:28:49Z</time>
      </trkpt>
      <trkpt lat="42.237377" lon="2.428862">
        <ele>422.5</ele>
        <time>2019-08-18T23:28:50Z</time>
      </trkpt>
      <trkpt lat="42.237409" lon="2.428837">
        <ele>422.6</ele>
        <time>2019-08-18T23:28:51Z</time>
      </trkpt>
      <trkpt lat="42.237441" lon="2.428812">
        <ele>422.7</ele>
        <time>2019-08-18T23:28:52Z</time>
      </trkpt>
      <trkpt lat="42.237467" lon="2.428787">
        <ele>422.8</ele>
        <time>2019-08-18T23:28:53Z</time>
      </trkpt>
      <trkpt lat="42.237494" lon="2.428761">
        <ele>423</ele>
        <time>2019-08-18T23:28:54Z</time>
      </trkpt>
      <trkpt lat="42.237521" lon="2.428739">
        <ele>423.1</ele>
        <time>2019-08-18T23:28:55Z</time>
      </trkpt>
      <trkpt lat="42.237549" lon="2.428716">
        <ele>423.2</ele>
        <time>2019-08-18T23:28:56Z</time>
      </trkpt>
      <trkpt lat="42.237578" lon="2.428693">
        <ele>423.3</ele>
        <time>2019-08-18T23:28:57Z</time>
      </trkpt>
      <trkpt lat="42.237607" lon="2.42867">
        <ele>423.4</ele>
        <time>2019-08-18T23:28:58Z</time>
      </trkpt>
      <trkpt lat="42.237637" lon="2.428647">
        <ele>423.5</ele>
        <time>2019-08-18T23:28:59Z</time>
      </trkpt>
      <trkpt lat="42.237663" lon="2.428622">
        <ele>423.6</ele>
        <time>2019-08-18T23:29:00Z</time>
      </trkpt>
      <trkpt lat="42.237687" lon="2.428598">
        <ele>423.7</ele>
        <time>2019-08-18T23:29:01Z</time>
      </trkpt>
      <trkpt lat="42.237712" lon="2.428576">
        <ele>423.8</ele>
        <time>2019-08-18T23:29:02Z</time>
      </trkpt>
      <trkpt lat="42.237734" lon="2.428551">
        <ele>423.9</ele>
        <time>2019-08-18T23:29:03Z</time>
      </trkpt>
      <trkpt lat="42.237757" lon="2.428527">
        <ele>424</ele>
        <time>2019-08-18T23:29:04Z</time>
      </trkpt>
      <trkpt lat="42.237781" lon="2.428503">
        <ele>424.1</ele>
        <time>2019-08-18T23:29:05Z</time>
      </trkpt>
      <trkpt lat="42.237804" lon="2.428479">
        <ele>424.2</ele>
        <time>2019-08-18T23:29:06Z</time>
      </trkpt>
      <trkpt lat="42.237827" lon="2.428454">
        <ele>424.3</ele>
        <time>2019-08-18T23:29:07Z</time>
      </trkpt>
      <trkpt lat="42.23785" lon="2.428433">
        <ele>424.5</ele>
        <time>2019-08-18T23:29:08Z</time>
      </trkpt>
      <trkpt lat="42.237874" lon="2.428413">
        <ele>424.6</ele>
        <time>2019-08-18T23:29:09Z</time>
      </trkpt>
      <trkpt lat="42.237897" lon="2.428393">
        <ele>424.7</ele>
        <time>2019-08-18T23:29:10Z</time>
      </trkpt>
      <trkpt lat="42.23792" lon="2.428369">
        <ele>424.8</ele>
        <time>2019-08-18T23:29:11Z</time>
      </trkpt>
      <trkpt lat="42.237941" lon="2.428346">
        <ele>424.9</ele>
        <time>2019-08-18T23:29:12Z</time>
      </trkpt>
      <trkpt lat="42.237982" lon="2.4283">
        <ele>425.1</ele>
        <time>2019-08-18T23:29:14Z</time>
      </trkpt>
      <trkpt lat="42.238003" lon="2.428275">
        <ele>425.2</ele>
        <time>2019-08-18T23:29:15Z</time>
      </trkpt>
      <trkpt lat="42.23804" lon="2.428227">
        <ele>425.5</ele>
        <time>2019-08-18T23:29:17Z</time>
      </trkpt>
      <trkpt lat="42.238071" lon="2.428174">
        <ele>425.8</ele>
        <time>2019-08-18T23:29:19Z</time>
      </trkpt>
      <trkpt lat="42.238109" lon="2.428123">
        <ele>426</ele>
        <time>2019-08-18T23:29:21Z</time>
      </trkpt>
      <trkpt lat="42.23814" lon="2.428082">
        <ele>426.2</ele>
        <time>2019-08-18T23:29:23Z</time>
      </trkpt>
      <trkpt lat="42.238164" lon="2.428037">
        <ele>426.4</ele>
        <time>2019-08-18T23:29:25Z</time>
      </trkpt>
      <trkpt lat="42.238189" lon="2.427991">
        <ele>426.6</ele>
        <time>2019-08-18T23:29:27Z</time>
      </trkpt>
      <trkpt lat="42.238211" lon="2.427937">
        <ele>426.9</ele>
        <time>2019-08-18T23:29:29Z</time>
      </trkpt>
      <trkpt lat="42.238235" lon="2.427874">
        <ele>427.2</ele>
        <time>2019-08-18T23:29:31Z</time>
      </trkpt>
      <trkpt lat="42.238252" lon="2.427804">
        <ele>427.5</ele>
        <time>2019-08-18T23:29:33Z</time>
      </trkpt>
      <trkpt lat="42.238263" lon="2.427769">
        <ele>427.6</ele>
        <time>2019-08-18T23:29:34Z</time>
      </trkpt>
      <trkpt lat="42.23828" lon="2.427705">
        <ele>427.9</ele>
        <time>2019-08-18T23:29:36Z</time>
      </trkpt>
      <trkpt lat="42.238289" lon="2.427646">
        <ele>428.2</ele>
        <time>2019-08-18T23:29:38Z</time>
      </trkpt>
      <trkpt lat="42.238303" lon="2.427576">
        <ele>428.7</ele>
        <time>2019-08-18T23:29:40Z</time>
      </trkpt>
      <trkpt lat="42.238308" lon="2.427515">
        <ele>429</ele>
        <time>2019-08-18T23:29:42Z</time>
      </trkpt>
      <trkpt lat="42.238312" lon="2.427449">
        <ele>429.3</ele>
        <time>2019-08-18T23:29:44Z</time>
      </trkpt>
      <trkpt lat="42.23831" lon="2.427384">
        <ele>429.7</ele>
        <time>2019-08-18T23:29:46Z</time>
      </trkpt>
      <trkpt lat="42.238309" lon="2.427314">
        <ele>430.1</ele>
        <time>2019-08-18T23:29:48Z</time>
      </trkpt>
      <trkpt lat="42.238307" lon="2.427277">
        <ele>430.4</ele>
        <time>2019-08-18T23:29:49Z</time>
      </trkpt>
      <trkpt lat="42.238308" lon="2.427237">
        <ele>430.7</ele>
        <time>2019-08-18T23:29:50Z</time>
      </trkpt>
      <trkpt lat="42.238311" lon="2.4272">
        <ele>430.9</ele>
        <time>2019-08-18T23:29:51Z</time>
      </trkpt>
      <trkpt lat="42.238312" lon="2.427138">
        <ele>431.3</ele>
        <time>2019-08-18T23:29:53Z</time>
      </trkpt>
      <trkpt lat="42.238315" lon="2.427074">
        <ele>431.6</ele>
        <time>2019-08-18T23:29:55Z</time>
      </trkpt>
      <trkpt lat="42.238315" lon="2.427005">
        <ele>431.9</ele>
        <time>2019-08-18T23:29:57Z</time>
      </trkpt>
      <trkpt lat="42.238317" lon="2.426935">
        <ele>432.3</ele>
        <time>2019-08-18T23:29:59Z</time>
      </trkpt>
      <trkpt lat="42.238327" lon="2.426869">
        <ele>432.5</ele>
        <time>2019-08-18T23:30:01Z</time>
      </trkpt>
      <trkpt lat="42.238335" lon="2.426807">
        <ele>432.7</ele>
        <time>2019-08-18T23:30:03Z</time>
      </trkpt>
      <trkpt lat="42.238336" lon="2.426744">
        <ele>432.9</ele>
        <time>2019-08-18T23:30:05Z</time>
      </trkpt>
      <trkpt lat="42.238338" lon="2.42668">
        <ele>433.1</ele>
        <time>2019-08-18T23:30:07Z</time>
      </trkpt>
      <trkpt lat="42.23835" lon="2.42661">
        <ele>433.3</ele>
        <time>2019-08-18T23:30:09Z</time>
      </trkpt>
      <trkpt lat="42.238354" lon="2.426573">
        <ele>433.4</ele>
        <time>2019-08-18T23:30:10Z</time>
      </trkpt>
      <trkpt lat="42.238362" lon="2.426505">
        <ele>433.7</ele>
        <time>2019-08-18T23:30:12Z</time>
      </trkpt>
      <trkpt lat="42.238376" lon="2.42644">
        <ele>434</ele>
        <time>2019-08-18T23:30:14Z</time>
      </trkpt>
      <trkpt lat="42.238395" lon="2.426382">
        <ele>434.2</ele>
        <time>2019-08-18T23:30:16Z</time>
      </trkpt>
      <trkpt lat="42.238417" lon="2.426332">
        <ele>434.5</ele>
        <time>2019-08-18T23:30:18Z</time>
      </trkpt>
      <trkpt lat="42.238434" lon="2.426281">
        <ele>434.7</ele>
        <time>2019-08-18T23:30:20Z</time>
      </trkpt>
      <trkpt lat="42.238463" lon="2.426224">
        <ele>435</ele>
        <time>2019-08-18T23:30:22Z</time>
      </trkpt>
      <trkpt lat="42.238477" lon="2.426193">
        <ele>435.2</ele>
        <time>2019-08-18T23:30:23Z</time>
      </trkpt>
      <trkpt lat="42.238499" lon="2.42613">
        <ele>435.6</ele>
        <time>2019-08-18T23:30:25Z</time>
      </trkpt>
      <trkpt lat="42.238512" lon="2.426074">
        <ele>436.1</ele>
        <time>2019-08-18T23:30:27Z</time>
      </trkpt>
      <trkpt lat="42.23853" lon="2.42602">
        <ele>436.4</ele>
        <time>2019-08-18T23:30:29Z</time>
      </trkpt>
      <trkpt lat="42.238552" lon="2.425963">
        <ele>436.8</ele>
        <time>2019-08-18T23:30:31Z</time>
      </trkpt>
      <trkpt lat="42.238578" lon="2.425906">
        <ele>437.2</ele>
        <time>2019-08-18T23:30:33Z</time>
      </trkpt>
      <trkpt lat="42.2386" lon="2.425853">
        <ele>437.5</ele>
        <time>2019-08-18T23:30:35Z</time>
      </trkpt>
      <trkpt lat="42.238618" lon="2.425796">
        <ele>437.9</ele>
        <time>2019-08-18T23:30:37Z</time>
      </trkpt>
      <trkpt lat="42.238635" lon="2.425745">
        <ele>438.2</ele>
        <time>2019-08-18T23:30:39Z</time>
      </trkpt>
      <trkpt lat="42.238653" lon="2.425697">
        <ele>438.5</ele>
        <time>2019-08-18T23:30:41Z</time>
      </trkpt>
      <trkpt lat="42.238665" lon="2.425633">
        <ele>438.9</ele>
        <time>2019-08-18T23:30:43Z</time>
      </trkpt>
      <trkpt lat="42.238679" lon="2.425588">
        <ele>439.2</ele>
        <time>2019-08-18T23:30:45Z</time>
      </trkpt>
      <trkpt lat="42.238697" lon="2.425533">
        <ele>439.5</ele>
        <time>2019-08-18T23:30:47Z</time>
      </trkpt>
      <trkpt lat="42.23872" lon="2.425481">
        <ele>439.9</ele>
        <time>2019-08-18T23:30:49Z</time>
      </trkpt>
      <trkpt lat="42.238741" lon="2.42543">
        <ele>440.3</ele>
        <time>2019-08-18T23:30:51Z</time>
      </trkpt>
      <trkpt lat="42.238766" lon="2.42538">
        <ele>440.7</ele>
        <time>2019-08-18T23:30:53Z</time>
      </trkpt>
      <trkpt lat="42.238793" lon="2.42532">
        <ele>441.1</ele>
        <time>2019-08-18T23:30:55Z</time>
      </trkpt>
      <trkpt lat="42.238814" lon="2.42527">
        <ele>441.6</ele>
        <time>2019-08-18T23:30:57Z</time>
      </trkpt>
      <trkpt lat="42.238832" lon="2.425218">
        <ele>441.9</ele>
        <time>2019-08-18T23:30:59Z</time>
      </trkpt>
      <trkpt lat="42.238853" lon="2.425169">
        <ele>442.2</ele>
        <time>2019-08-18T23:31:01Z</time>
      </trkpt>
      <trkpt lat="42.238879" lon="2.425106">
        <ele>442.6</ele>
        <time>2019-08-18T23:31:03Z</time>
      </trkpt>
      <trkpt lat="42.238894" lon="2.425059">
        <ele>442.9</ele>
        <time>2019-08-18T23:31:05Z</time>
      </trkpt>
      <trkpt lat="42.238912" lon="2.425013">
        <ele>443.3</ele>
        <time>2019-08-18T23:31:07Z</time>
      </trkpt>
      <trkpt lat="42.238928" lon="2.424969">
        <ele>443.7</ele>
        <time>2019-08-18T23:31:09Z</time>
      </trkpt>
      <trkpt lat="42.238951" lon="2.424917">
        <ele>444.1</ele>
        <time>2019-08-18T23:31:11Z</time>
      </trkpt>
      <trkpt lat="42.23898" lon="2.424869">
        <ele>444.6</ele>
        <time>2019-08-18T23:31:13Z</time>
      </trkpt>
      <trkpt lat="42.239008" lon="2.424821">
        <ele>444.9</ele>
        <time>2019-08-18T23:31:15Z</time>
      </trkpt>
      <trkpt lat="42.239038" lon="2.424771">
        <ele>445.3</ele>
        <time>2019-08-18T23:31:17Z</time>
      </trkpt>
      <trkpt lat="42.239061" lon="2.424726">
        <ele>445.6</ele>
        <time>2019-08-18T23:31:19Z</time>
      </trkpt>
      <trkpt lat="42.239084" lon="2.424676">
        <ele>445.8</ele>
        <time>2019-08-18T23:31:21Z</time>
      </trkpt>
      <trkpt lat="42.239107" lon="2.424626">
        <ele>446.1</ele>
        <time>2019-08-18T23:31:23Z</time>
      </trkpt>
      <trkpt lat="42.239123" lon="2.424566">
        <ele>446.4</ele>
        <time>2019-08-18T23:31:25Z</time>
      </trkpt>
      <trkpt lat="42.239135" lon="2.424504">
        <ele>446.7</ele>
        <time>2019-08-18T23:31:27Z</time>
      </trkpt>
      <trkpt lat="42.239146" lon="2.424442">
        <ele>447.1</ele>
        <time>2019-08-18T23:31:29Z</time>
      </trkpt>
      <trkpt lat="42.239162" lon="2.424384">
        <ele>447.5</ele>
        <time>2019-08-18T23:31:31Z</time>
      </trkpt>
      <trkpt lat="42.239174" lon="2.424328">
        <ele>447.8</ele>
        <time>2019-08-18T23:31:33Z</time>
      </trkpt>
      <trkpt lat="42.239183" lon="2.424282">
        <ele>448.1</ele>
        <time>2019-08-18T23:31:35Z</time>
      </trkpt>
      <trkpt lat="42.23919" lon="2.424219">
        <ele>448.6</ele>
        <time>2019-08-18T23:31:37Z</time>
      </trkpt>
      <trkpt lat="42.239195" lon="2.424158">
        <ele>449</ele>
        <time>2019-08-18T23:31:39Z</time>
      </trkpt>
      <trkpt lat="42.239196" lon="2.424089">
        <ele>449.4</ele>
        <time>2019-08-18T23:31:41Z</time>
      </trkpt>
      <trkpt lat="42.239208" lon="2.424028">
        <ele>449.7</ele>
        <time>2019-08-18T23:31:43Z</time>
      </trkpt>
      <trkpt lat="42.239217" lon="2.423964">
        <ele>449.9</ele>
        <time>2019-08-18T23:31:45Z</time>
      </trkpt>
      <trkpt lat="42.239217" lon="2.423904">
        <ele>450.2</ele>
        <time>2019-08-18T23:31:47Z</time>
      </trkpt>
      <trkpt lat="42.239222" lon="2.423846">
        <ele>450.4</ele>
        <time>2019-08-18T23:31:49Z</time>
      </trkpt>
      <trkpt lat="42.239239" lon="2.423789">
        <ele>450.7</ele>
        <time>2019-08-18T23:31:51Z</time>
      </trkpt>
      <trkpt lat="42.239255" lon="2.423732">
        <ele>450.9</ele>
        <time>2019-08-18T23:31:53Z</time>
      </trkpt>
      <trkpt lat="42.239267" lon="2.423675">
        <ele>451.2</ele>
        <time>2019-08-18T23:31:55Z</time>
      </trkpt>
      <trkpt lat="42.239271" lon="2.423623">
        <ele>451.5</ele>
        <time>2019-08-18T23:31:57Z</time>
      </trkpt>
      <trkpt lat="42.239275" lon="2.423568">
        <ele>451.9</ele>
        <time>2019-08-18T23:31:59Z</time>
      </trkpt>
      <trkpt lat="42.23928" lon="2.423513">
        <ele>452.2</ele>
        <time>2019-08-18T23:32:01Z</time>
      </trkpt>
      <trkpt lat="42.239281" lon="2.423452">
        <ele>452.5</ele>
        <time>2019-08-18T23:32:03Z</time>
      </trkpt>
      <trkpt lat="42.239279" lon="2.42339">
        <ele>452.7</ele>
        <time>2019-08-18T23:32:05Z</time>
      </trkpt>
      <trkpt lat="42.23928" lon="2.42333">
        <ele>453</ele>
        <time>2019-08-18T23:32:07Z</time>
      </trkpt>
      <trkpt lat="42.239281" lon="2.423272">
        <ele>453.3</ele>
        <time>2019-08-18T23:32:09Z</time>
      </trkpt>
      <trkpt lat="42.239289" lon="2.423215">
        <ele>453.6</ele>
        <time>2019-08-18T23:32:11Z</time>
      </trkpt>
      <trkpt lat="42.239297" lon="2.423159">
        <ele>453.7</ele>
        <time>2019-08-18T23:32:13Z</time>
      </trkpt>
      <trkpt lat="42.239302" lon="2.423102">
        <ele>453.9</ele>
        <time>2019-08-18T23:32:15Z</time>
      </trkpt>
      <trkpt lat="42.239303" lon="2.423046">
        <ele>454.1</ele>
        <time>2019-08-18T23:32:17Z</time>
      </trkpt>
      <trkpt lat="42.239303" lon="2.422985">
        <ele>454.3</ele>
        <time>2019-08-18T23:32:19Z</time>
      </trkpt>
      <trkpt lat="42.239302" lon="2.422949">
        <ele>454.4</ele>
        <time>2019-08-18T23:32:20Z</time>
      </trkpt>
      <trkpt lat="42.239311" lon="2.422888">
        <ele>454.6</ele>
        <time>2019-08-18T23:32:22Z</time>
      </trkpt>
      <trkpt lat="42.239336" lon="2.422834">
        <ele>454.8</ele>
        <time>2019-08-18T23:32:24Z</time>
      </trkpt>
      <trkpt lat="42.239363" lon="2.422776">
        <ele>455.1</ele>
        <time>2019-08-18T23:32:26Z</time>
      </trkpt>
      <trkpt lat="42.23937" lon="2.422716">
        <ele>455.3</ele>
        <time>2019-08-18T23:32:28Z</time>
      </trkpt>
      <trkpt lat="42.239373" lon="2.422652">
        <ele>455.5</ele>
        <time>2019-08-18T23:32:30Z</time>
      </trkpt>
      <trkpt lat="42.239377" lon="2.422588">
        <ele>455.8</ele>
        <time>2019-08-18T23:32:32Z</time>
      </trkpt>
      <trkpt lat="42.239378" lon="2.422524">
        <ele>456</ele>
        <time>2019-08-18T23:32:34Z</time>
      </trkpt>
      <trkpt lat="42.239377" lon="2.422487">
        <ele>456.1</ele>
        <time>2019-08-18T23:32:35Z</time>
      </trkpt>
      <trkpt lat="42.239377" lon="2.422444">
        <ele>456.3</ele>
        <time>2019-08-18T23:32:36Z</time>
      </trkpt>
      <trkpt lat="42.239378" lon="2.422393">
        <ele>456.5</ele>
        <time>2019-08-18T23:32:37Z</time>
      </trkpt>
      <trkpt lat="42.239382" lon="2.42234">
        <ele>456.7</ele>
        <time>2019-08-18T23:32:38Z</time>
      </trkpt>
      <trkpt lat="42.239388" lon="2.422288">
        <ele>456.9</ele>
        <time>2019-08-18T23:32:39Z</time>
      </trkpt>
      <trkpt lat="42.239396" lon="2.422251">
        <ele>457</ele>
        <time>2019-08-18T23:32:40Z</time>
      </trkpt>
      <trkpt lat="42.23941" lon="2.422205">
        <ele>457.2</ele>
        <time>2019-08-18T23:32:42Z</time>
      </trkpt>
      <trkpt lat="42.239428" lon="2.422146">
        <ele>457.5</ele>
        <time>2019-08-18T23:32:44Z</time>
      </trkpt>
      <trkpt lat="42.239438" lon="2.422081">
        <ele>457.7</ele>
        <time>2019-08-18T23:32:46Z</time>
      </trkpt>
      <trkpt lat="42.239439" lon="2.422009">
        <ele>458</ele>
        <time>2019-08-18T23:32:48Z</time>
      </trkpt>
      <trkpt lat="42.239439" lon="2.421971">
        <ele>458.1</ele>
        <time>2019-08-18T23:32:49Z</time>
      </trkpt>
      <trkpt lat="42.239436" lon="2.421934">
        <ele>458.2</ele>
        <time>2019-08-18T23:32:50Z</time>
      </trkpt>
      <trkpt lat="42.239434" lon="2.421865">
        <ele>458.5</ele>
        <time>2019-08-18T23:32:52Z</time>
      </trkpt>
      <trkpt lat="42.239442" lon="2.4218">
        <ele>458.7</ele>
        <time>2019-08-18T23:32:54Z</time>
      </trkpt>
      <trkpt lat="42.239452" lon="2.421735">
        <ele>459</ele>
        <time>2019-08-18T23:32:56Z</time>
      </trkpt>
      <trkpt lat="42.239461" lon="2.421659">
        <ele>459.3</ele>
        <time>2019-08-18T23:32:58Z</time>
      </trkpt>
      <trkpt lat="42.239461" lon="2.421619">
        <ele>459.4</ele>
        <time>2019-08-18T23:32:59Z</time>
      </trkpt>
      <trkpt lat="42.239465" lon="2.421552">
        <ele>459.6</ele>
        <time>2019-08-18T23:33:01Z</time>
      </trkpt>
      <trkpt lat="42.239466" lon="2.421493">
        <ele>459.8</ele>
        <time>2019-08-18T23:33:03Z</time>
      </trkpt>
      <trkpt lat="42.239476" lon="2.421426">
        <ele>460</ele>
        <time>2019-08-18T23:33:05Z</time>
      </trkpt>
      <trkpt lat="42.239484" lon="2.421363">
        <ele>460.2</ele>
        <time>2019-08-18T23:33:07Z</time>
      </trkpt>
      <trkpt lat="42.239496" lon="2.421293">
        <ele>460.5</ele>
        <time>2019-08-18T23:33:09Z</time>
      </trkpt>
      <trkpt lat="42.239499" lon="2.421231">
        <ele>460.7</ele>
        <time>2019-08-18T23:33:11Z</time>
      </trkpt>
      <trkpt lat="42.239499" lon="2.421172">
        <ele>460.9</ele>
        <time>2019-08-18T23:33:13Z</time>
      </trkpt>
      <trkpt lat="42.239506" lon="2.4211">
        <ele>461.1</ele>
        <time>2019-08-18T23:33:15Z</time>
      </trkpt>
      <trkpt lat="42.239511" lon="2.421045">
        <ele>461.3</ele>
        <time>2019-08-18T23:33:17Z</time>
      </trkpt>
      <trkpt lat="42.239518" lon="2.420976">
        <ele>461.5</ele>
        <time>2019-08-18T23:33:19Z</time>
      </trkpt>
      <trkpt lat="42.239521" lon="2.420902">
        <ele>461.8</ele>
        <time>2019-08-18T23:33:21Z</time>
      </trkpt>
      <trkpt lat="42.239523" lon="2.420865">
        <ele>461.9</ele>
        <time>2019-08-18T23:33:22Z</time>
      </trkpt>
      <trkpt lat="42.239523" lon="2.420829">
        <ele>462</ele>
        <time>2019-08-18T23:33:23Z</time>
      </trkpt>
      <trkpt lat="42.239521" lon="2.420792">
        <ele>462.2</ele>
        <time>2019-08-18T23:33:24Z</time>
      </trkpt>
      <trkpt lat="42.239519" lon="2.420722">
        <ele>462.4</ele>
        <time>2019-08-18T23:33:26Z</time>
      </trkpt>
      <trkpt lat="42.239524" lon="2.420652">
        <ele>462.7</ele>
        <time>2019-08-18T23:33:28Z</time>
      </trkpt>
      <trkpt lat="42.239533" lon="2.42058">
        <ele>463</ele>
        <time>2019-08-18T23:33:30Z</time>
      </trkpt>
      <trkpt lat="42.239545" lon="2.420517">
        <ele>463.2</ele>
        <time>2019-08-18T23:33:32Z</time>
      </trkpt>
      <trkpt lat="42.23956" lon="2.420458">
        <ele>463.4</ele>
        <time>2019-08-18T23:33:34Z</time>
      </trkpt>
      <trkpt lat="42.239575" lon="2.420398">
        <ele>463.6</ele>
        <time>2019-08-18T23:33:36Z</time>
      </trkpt>
      <trkpt lat="42.239587" lon="2.420364">
        <ele>463.8</ele>
        <time>2019-08-18T23:33:37Z</time>
      </trkpt>
      <trkpt lat="42.2396" lon="2.420332">
        <ele>463.9</ele>
        <time>2019-08-18T23:33:38Z</time>
      </trkpt>
      <trkpt lat="42.239618" lon="2.420303">
        <ele>464</ele>
        <time>2019-08-18T23:33:39Z</time>
      </trkpt>
      <trkpt lat="42.239635" lon="2.420272">
        <ele>464.1</ele>
        <time>2019-08-18T23:33:40Z</time>
      </trkpt>
      <trkpt lat="42.23965" lon="2.420241">
        <ele>464.3</ele>
        <time>2019-08-18T23:33:41Z</time>
      </trkpt>
      <trkpt lat="42.239679" lon="2.42019">
        <ele>464.5</ele>
        <time>2019-08-18T23:33:43Z</time>
      </trkpt>
      <trkpt lat="42.239713" lon="2.420137">
        <ele>464.7</ele>
        <time>2019-08-18T23:33:45Z</time>
      </trkpt>
      <trkpt lat="42.239747" lon="2.420091">
        <ele>464.9</ele>
        <time>2019-08-18T23:33:47Z</time>
      </trkpt>
      <trkpt lat="42.239785" lon="2.420045">
        <ele>465.2</ele>
        <time>2019-08-18T23:33:49Z</time>
      </trkpt>
      <trkpt lat="42.239822" lon="2.42">
        <ele>465.4</ele>
        <time>2019-08-18T23:33:51Z</time>
      </trkpt>
      <trkpt lat="42.23986" lon="2.419961">
        <ele>465.6</ele>
        <time>2019-08-18T23:33:53Z</time>
      </trkpt>
      <trkpt lat="42.239904" lon="2.41993">
        <ele>465.8</ele>
        <time>2019-08-18T23:33:55Z</time>
      </trkpt>
      <trkpt lat="42.239928" lon="2.419915">
        <ele>465.9</ele>
        <time>2019-08-18T23:33:56Z</time>
      </trkpt>
      <trkpt lat="42.239973" lon="2.419884">
        <ele>466.1</ele>
        <time>2019-08-18T23:33:58Z</time>
      </trkpt>
      <trkpt lat="42.240014" lon="2.419857">
        <ele>466.2</ele>
        <time>2019-08-18T23:34:00Z</time>
      </trkpt>
      <trkpt lat="42.240058" lon="2.419837">
        <ele>466.3</ele>
        <time>2019-08-18T23:34:02Z</time>
      </trkpt>
      <trkpt lat="42.240104" lon="2.419809">
        <ele>466.5</ele>
        <time>2019-08-18T23:34:04Z</time>
      </trkpt>
      <trkpt lat="42.240151" lon="2.419776">
        <ele>466.6</ele>
        <time>2019-08-18T23:34:06Z</time>
      </trkpt>
      <trkpt lat="42.240175" lon="2.419759">
        <ele>466.7</ele>
        <time>2019-08-18T23:34:07Z</time>
      </trkpt>
      <trkpt lat="42.240202" lon="2.41974">
        <ele>466.7</ele>
        <time>2019-08-18T23:34:08Z</time>
      </trkpt>
      <trkpt lat="42.240233" lon="2.41972">
        <ele>466.8</ele>
        <time>2019-08-18T23:34:09Z</time>
      </trkpt>
      <trkpt lat="42.240265" lon="2.419701">
        <ele>466.9</ele>
        <time>2019-08-18T23:34:10Z</time>
      </trkpt>
      <trkpt lat="42.240296" lon="2.419683">
        <ele>466.9</ele>
        <time>2019-08-18T23:34:11Z</time>
      </trkpt>
      <trkpt lat="42.240325" lon="2.419665">
        <ele>467</ele>
        <time>2019-08-18T23:34:12Z</time>
      </trkpt>
      <trkpt lat="42.240352" lon="2.419647">
        <ele>467</ele>
        <time>2019-08-18T23:34:13Z</time>
      </trkpt>
      <trkpt lat="42.24039" lon="2.419623">
        <ele>467.1</ele>
        <time>2019-08-18T23:34:14Z</time>
      </trkpt>
      <trkpt lat="42.240416" lon="2.419612">
        <ele>467.2</ele>
        <time>2019-08-18T23:34:15Z</time>
      </trkpt>
      <trkpt lat="42.240447" lon="2.419594">
        <ele>467.2</ele>
        <time>2019-08-18T23:34:16Z</time>
      </trkpt>
      <trkpt lat="42.240476" lon="2.419581">
        <ele>467.3</ele>
        <time>2019-08-18T23:34:17Z</time>
      </trkpt>
      <trkpt lat="42.2405" lon="2.41956">
        <ele>467.3</ele>
        <time>2019-08-18T23:34:18Z</time>
      </trkpt>
      <trkpt lat="42.240525" lon="2.419546">
        <ele>467.4</ele>
        <time>2019-08-18T23:34:19Z</time>
      </trkpt>
      <trkpt lat="42.240553" lon="2.419529">
        <ele>467.4</ele>
        <time>2019-08-18T23:34:20Z</time>
      </trkpt>
      <trkpt lat="42.240586" lon="2.419516">
        <ele>467.5</ele>
        <time>2019-08-18T23:34:21Z</time>
      </trkpt>
      <trkpt lat="42.240614" lon="2.419498">
        <ele>467.6</ele>
        <time>2019-08-18T23:34:22Z</time>
      </trkpt>
      <trkpt lat="42.240644" lon="2.419487">
        <ele>467.6</ele>
        <time>2019-08-18T23:34:23Z</time>
      </trkpt>
      <trkpt lat="42.240667" lon="2.419465">
        <ele>467.7</ele>
        <time>2019-08-18T23:34:24Z</time>
      </trkpt>
      <trkpt lat="42.240693" lon="2.419444">
        <ele>467.8</ele>
        <time>2019-08-18T23:34:25Z</time>
      </trkpt>
      <trkpt lat="42.240719" lon="2.419425">
        <ele>467.8</ele>
        <time>2019-08-18T23:34:26Z</time>
      </trkpt>
      <trkpt lat="42.240746" lon="2.419409">
        <ele>467.9</ele>
        <time>2019-08-18T23:34:27Z</time>
      </trkpt>
      <trkpt lat="42.240773" lon="2.419395">
        <ele>468</ele>
        <time>2019-08-18T23:34:28Z</time>
      </trkpt>
      <trkpt lat="42.2408" lon="2.419383">
        <ele>468</ele>
        <time>2019-08-18T23:34:29Z</time>
      </trkpt>
      <trkpt lat="42.240827" lon="2.419371">
        <ele>468.1</ele>
        <time>2019-08-18T23:34:30Z</time>
      </trkpt>
      <trkpt lat="42.240855" lon="2.41936">
        <ele>468.2</ele>
        <time>2019-08-18T23:34:31Z</time>
      </trkpt>
      <trkpt lat="42.240883" lon="2.419347">
        <ele>468.2</ele>
        <time>2019-08-18T23:34:32Z</time>
      </trkpt>
      <trkpt lat="42.240909" lon="2.419333">
        <ele>468.3</ele>
        <time>2019-08-18T23:34:33Z</time>
      </trkpt>
      <trkpt lat="42.240936" lon="2.41932">
        <ele>468.4</ele>
        <time>2019-08-18T23:34:34Z</time>
      </trkpt>
      <trkpt lat="42.240963" lon="2.419307">
        <ele>468.5</ele>
        <time>2019-08-18T23:34:35Z</time>
      </trkpt>
      <trkpt lat="42.240988" lon="2.419292">
        <ele>468.5</ele>
        <time>2019-08-18T23:34:36Z</time>
      </trkpt>
      <trkpt lat="42.241014" lon="2.419276">
        <ele>468.6</ele>
        <time>2019-08-18T23:34:37Z</time>
      </trkpt>
      <trkpt lat="42.241039" lon="2.41926">
        <ele>468.7</ele>
        <time>2019-08-18T23:34:38Z</time>
      </trkpt>
      <trkpt lat="42.241067" lon="2.419243">
        <ele>468.8</ele>
        <time>2019-08-18T23:34:39Z</time>
      </trkpt>
      <trkpt lat="42.241093" lon="2.419227">
        <ele>468.9</ele>
        <time>2019-08-18T23:34:40Z</time>
      </trkpt>
      <trkpt lat="42.24112" lon="2.419212">
        <ele>468.9</ele>
        <time>2019-08-18T23:34:41Z</time>
      </trkpt>
      <trkpt lat="42.241146" lon="2.419196">
        <ele>469</ele>
        <time>2019-08-18T23:34:42Z</time>
      </trkpt>
      <trkpt lat="42.241173" lon="2.419178">
        <ele>469.1</ele>
        <time>2019-08-18T23:34:43Z</time>
      </trkpt>
      <trkpt lat="42.241201" lon="2.419161">
        <ele>469.2</ele>
        <time>2019-08-18T23:34:44Z</time>
      </trkpt>
      <trkpt lat="42.241225" lon="2.419146">
        <ele>469.3</ele>
        <time>2019-08-18T23:34:45Z</time>
      </trkpt>
      <trkpt lat="42.241274" lon="2.419116">
        <ele>469.4</ele>
        <time>2019-08-18T23:34:47Z</time>
      </trkpt>
      <trkpt lat="42.241303" lon="2.419097">
        <ele>469.5</ele>
        <time>2019-08-18T23:34:48Z</time>
      </trkpt>
      <trkpt lat="42.24133" lon="2.419081">
        <ele>469.6</ele>
        <time>2019-08-18T23:34:49Z</time>
      </trkpt>
      <trkpt lat="42.241355" lon="2.419065">
        <ele>469.7</ele>
        <time>2019-08-18T23:34:50Z</time>
      </trkpt>
      <trkpt lat="42.24138" lon="2.419046">
        <ele>469.8</ele>
        <time>2019-08-18T23:34:51Z</time>
      </trkpt>
      <trkpt lat="42.241405" lon="2.419029">
        <ele>469.9</ele>
        <time>2019-08-18T23:34:52Z</time>
      </trkpt>
      <trkpt lat="42.241429" lon="2.41901">
        <ele>470</ele>
        <time>2019-08-18T23:34:53Z</time>
      </trkpt>
      <trkpt lat="42.241455" lon="2.418979">
        <ele>470.2</ele>
        <time>2019-08-18T23:34:54Z</time>
      </trkpt>
      <trkpt lat="42.24148" lon="2.418946">
        <ele>470.3</ele>
        <time>2019-08-18T23:34:55Z</time>
      </trkpt>
      <trkpt lat="42.241504" lon="2.418916">
        <ele>470.4</ele>
        <time>2019-08-18T23:34:56Z</time>
      </trkpt>
      <trkpt lat="42.241527" lon="2.418883">
        <ele>470.6</ele>
        <time>2019-08-18T23:34:57Z</time>
      </trkpt>
      <trkpt lat="42.241549" lon="2.418858">
        <ele>470.7</ele>
        <time>2019-08-18T23:34:58Z</time>
      </trkpt>
      <trkpt lat="42.241571" lon="2.41883">
        <ele>470.9</ele>
        <time>2019-08-18T23:34:59Z</time>
      </trkpt>
      <trkpt lat="42.241593" lon="2.418801">
        <ele>471</ele>
        <time>2019-08-18T23:35:00Z</time>
      </trkpt>
      <trkpt lat="42.241614" lon="2.418771">
        <ele>471.2</ele>
        <time>2019-08-18T23:35:01Z</time>
      </trkpt>
      <trkpt lat="42.24163" lon="2.418737">
        <ele>471.3</ele>
        <time>2019-08-18T23:35:02Z</time>
      </trkpt>
      <trkpt lat="42.241645" lon="2.418702">
        <ele>471.5</ele>
        <time>2019-08-18T23:35:03Z</time>
      </trkpt>
      <trkpt lat="42.24166" lon="2.418667">
        <ele>471.7</ele>
        <time>2019-08-18T23:35:04Z</time>
      </trkpt>
      <trkpt lat="42.241676" lon="2.418631">
        <ele>471.8</ele>
        <time>2019-08-18T23:35:05Z</time>
      </trkpt>
      <trkpt lat="42.241691" lon="2.418594">
        <ele>472</ele>
        <time>2019-08-18T23:35:06Z</time>
      </trkpt>
      <trkpt lat="42.241705" lon="2.418556">
        <ele>472.2</ele>
        <time>2019-08-18T23:35:07Z</time>
      </trkpt>
      <trkpt lat="42.241717" lon="2.418514">
        <ele>472.4</ele>
        <time>2019-08-18T23:35:08Z</time>
      </trkpt>
      <trkpt lat="42.241728" lon="2.418471">
        <ele>472.6</ele>
        <time>2019-08-18T23:35:09Z</time>
      </trkpt>
      <trkpt lat="42.241735" lon="2.418433">
        <ele>472.7</ele>
        <time>2019-08-18T23:35:10Z</time>
      </trkpt>
      <trkpt lat="42.241744" lon="2.418363">
        <ele>473</ele>
        <time>2019-08-18T23:35:12Z</time>
      </trkpt>
      <trkpt lat="42.241747" lon="2.41832">
        <ele>473.2</ele>
        <time>2019-08-18T23:35:13Z</time>
      </trkpt>
      <trkpt lat="42.24175" lon="2.418278">
        <ele>473.4</ele>
        <time>2019-08-18T23:35:14Z</time>
      </trkpt>
      <trkpt lat="42.241752" lon="2.418238">
        <ele>473.6</ele>
        <time>2019-08-18T23:35:15Z</time>
      </trkpt>
      <trkpt lat="42.241752" lon="2.418194">
        <ele>473.8</ele>
        <time>2019-08-18T23:35:16Z</time>
      </trkpt>
      <trkpt lat="42.241755" lon="2.418146">
        <ele>474</ele>
        <time>2019-08-18T23:35:17Z</time>
      </trkpt>
      <trkpt lat="42.241758" lon="2.4181">
        <ele>474.1</ele>
        <time>2019-08-18T23:35:18Z</time>
      </trkpt>
      <trkpt lat="42.241762" lon="2.418056">
        <ele>474.3</ele>
        <time>2019-08-18T23:35:19Z</time>
      </trkpt>
      <trkpt lat="42.241764" lon="2.418012">
        <ele>474.5</ele>
        <time>2019-08-18T23:35:20Z</time>
      </trkpt>
      <trkpt lat="42.241766" lon="2.417973">
        <ele>474.7</ele>
        <time>2019-08-18T23:35:21Z</time>
      </trkpt>
      <trkpt lat="42.241771" lon="2.417935">
        <ele>474.9</ele>
        <time>2019-08-18T23:35:22Z</time>
      </trkpt>
      <trkpt lat="42.241775" lon="2.417892">
        <ele>475.1</ele>
        <time>2019-08-18T23:35:23Z</time>
      </trkpt>
      <trkpt lat="42.24178" lon="2.417849">
        <ele>475.2</ele>
        <time>2019-08-18T23:35:24Z</time>
      </trkpt>
      <trkpt lat="42.241783" lon="2.417808">
        <ele>475.4</ele>
        <time>2019-08-18T23:35:25Z</time>
      </trkpt>
      <trkpt lat="42.241785" lon="2.417765">
        <ele>475.7</ele>
        <time>2019-08-18T23:35:26Z</time>
      </trkpt>
      <trkpt lat="42.241788" lon="2.417727">
        <ele>475.9</ele>
        <time>2019-08-18T23:35:27Z</time>
      </trkpt>
      <trkpt lat="42.241792" lon="2.41769">
        <ele>476</ele>
        <time>2019-08-18T23:35:28Z</time>
      </trkpt>
      <trkpt lat="42.241794" lon="2.417649">
        <ele>476.3</ele>
        <time>2019-08-18T23:35:29Z</time>
      </trkpt>
      <trkpt lat="42.24179" lon="2.41758">
        <ele>476.6</ele>
        <time>2019-08-18T23:35:31Z</time>
      </trkpt>
      <trkpt lat="42.241789" lon="2.417503">
        <ele>477</ele>
        <time>2019-08-18T23:35:33Z</time>
      </trkpt>
      <trkpt lat="42.241787" lon="2.417462">
        <ele>477.3</ele>
        <time>2019-08-18T23:35:34Z</time>
      </trkpt>
      <trkpt lat="42.241789" lon="2.417422">
        <ele>477.5</ele>
        <time>2019-08-18T23:35:35Z</time>
      </trkpt>
      <trkpt lat="42.241791" lon="2.417378">
        <ele>477.7</ele>
        <time>2019-08-18T23:35:36Z</time>
      </trkpt>
      <trkpt lat="42.241789" lon="2.417328">
        <ele>478</ele>
        <time>2019-08-18T23:35:37Z</time>
      </trkpt>
      <trkpt lat="42.241787" lon="2.417277">
        <ele>478.2</ele>
        <time>2019-08-18T23:35:38Z</time>
      </trkpt>
      <trkpt lat="42.241783" lon="2.417224">
        <ele>478.5</ele>
        <time>2019-08-18T23:35:39Z</time>
      </trkpt>
      <trkpt lat="42.241781" lon="2.417172">
        <ele>478.8</ele>
        <time>2019-08-18T23:35:40Z</time>
      </trkpt>
      <trkpt lat="42.241785" lon="2.417116">
        <ele>479</ele>
        <time>2019-08-18T23:35:41Z</time>
      </trkpt>
      <trkpt lat="42.241796" lon="2.417064">
        <ele>479.3</ele>
        <time>2019-08-18T23:35:42Z</time>
      </trkpt>
      <trkpt lat="42.24181" lon="2.41701">
        <ele>479.5</ele>
        <time>2019-08-18T23:35:43Z</time>
      </trkpt>
      <trkpt lat="42.241822" lon="2.416956">
        <ele>479.8</ele>
        <time>2019-08-18T23:35:44Z</time>
      </trkpt>
      <trkpt lat="42.241829" lon="2.416919">
        <ele>479.9</ele>
        <time>2019-08-18T23:35:45Z</time>
      </trkpt>
      <trkpt lat="42.241843" lon="2.416867">
        <ele>480.2</ele>
        <time>2019-08-18T23:35:47Z</time>
      </trkpt>
      <trkpt lat="42.241858" lon="2.416806">
        <ele>480.4</ele>
        <time>2019-08-18T23:35:49Z</time>
      </trkpt>
      <trkpt lat="42.241918" lon="2.416549">
        <ele>481.6</ele>
        <time>2019-08-18T23:35:51Z</time>
      </trkpt>
      <trkpt lat="42.241923" lon="2.416504">
        <ele>481.8</ele>
        <time>2019-08-18T23:35:52Z</time>
      </trkpt>
      <trkpt lat="42.24193" lon="2.416458">
        <ele>482.2</ele>
        <time>2019-08-18T23:35:53Z</time>
      </trkpt>
      <trkpt lat="42.24194" lon="2.416423">
        <ele>482.6</ele>
        <time>2019-08-18T23:35:54Z</time>
      </trkpt>
      <trkpt lat="42.241952" lon="2.416385">
        <ele>483</ele>
        <time>2019-08-18T23:35:55Z</time>
      </trkpt>
      <trkpt lat="42.241975" lon="2.416312">
        <ele>483.9</ele>
        <time>2019-08-18T23:35:57Z</time>
      </trkpt>
      <trkpt lat="42.242007" lon="2.416251">
        <ele>484.6</ele>
        <time>2019-08-18T23:35:59Z</time>
      </trkpt>
      <trkpt lat="42.242034" lon="2.41619">
        <ele>485.3</ele>
        <time>2019-08-18T23:36:01Z</time>
      </trkpt>
      <trkpt lat="42.242056" lon="2.416132">
        <ele>485.8</ele>
        <time>2019-08-18T23:36:03Z</time>
      </trkpt>
      <trkpt lat="42.242076" lon="2.416073">
        <ele>486.2</ele>
        <time>2019-08-18T23:36:05Z</time>
      </trkpt>
      <trkpt lat="42.242097" lon="2.416011">
        <ele>486.6</ele>
        <time>2019-08-18T23:36:07Z</time>
      </trkpt>
      <trkpt lat="42.242118" lon="2.415949">
        <ele>487</ele>
        <time>2019-08-18T23:36:09Z</time>
      </trkpt>
      <trkpt lat="42.242141" lon="2.415897">
        <ele>487.4</ele>
        <time>2019-08-18T23:36:11Z</time>
      </trkpt>
      <trkpt lat="42.242167" lon="2.415851">
        <ele>487.8</ele>
        <time>2019-08-18T23:36:13Z</time>
      </trkpt>
      <trkpt lat="42.242194" lon="2.415798">
        <ele>488.2</ele>
        <time>2019-08-18T23:36:15Z</time>
      </trkpt>
      <trkpt lat="42.242221" lon="2.415743">
        <ele>488.8</ele>
        <time>2019-08-18T23:36:17Z</time>
      </trkpt>
      <trkpt lat="42.242251" lon="2.415686">
        <ele>489.3</ele>
        <time>2019-08-18T23:36:19Z</time>
      </trkpt>
      <trkpt lat="42.242278" lon="2.415639">
        <ele>489.6</ele>
        <time>2019-08-18T23:36:21Z</time>
      </trkpt>
      <trkpt lat="42.2423" lon="2.41559">
        <ele>489.9</ele>
        <time>2019-08-18T23:36:23Z</time>
      </trkpt>
      <trkpt lat="42.242325" lon="2.415535">
        <ele>490.2</ele>
        <time>2019-08-18T23:36:25Z</time>
      </trkpt>
      <trkpt lat="42.242349" lon="2.415491">
        <ele>490.5</ele>
        <time>2019-08-18T23:36:27Z</time>
      </trkpt>
      <trkpt lat="42.242375" lon="2.415448">
        <ele>490.7</ele>
        <time>2019-08-18T23:36:29Z</time>
      </trkpt>
      <trkpt lat="42.242402" lon="2.415409">
        <ele>491</ele>
        <time>2019-08-18T23:36:31Z</time>
      </trkpt>
      <trkpt lat="42.242434" lon="2.415372">
        <ele>491.3</ele>
        <time>2019-08-18T23:36:33Z</time>
      </trkpt>
      <trkpt lat="42.242458" lon="2.41533">
        <ele>491.5</ele>
        <time>2019-08-18T23:36:35Z</time>
      </trkpt>
      <trkpt lat="42.242478" lon="2.415283">
        <ele>491.8</ele>
        <time>2019-08-18T23:36:37Z</time>
      </trkpt>
      <trkpt lat="42.242495" lon="2.415236">
        <ele>492.1</ele>
        <time>2019-08-18T23:36:39Z</time>
      </trkpt>
      <trkpt lat="42.242513" lon="2.415184">
        <ele>492.4</ele>
        <time>2019-08-18T23:36:41Z</time>
      </trkpt>
      <trkpt lat="42.242525" lon="2.415128">
        <ele>492.8</ele>
        <time>2019-08-18T23:36:43Z</time>
      </trkpt>
      <trkpt lat="42.242541" lon="2.415073">
        <ele>493.1</ele>
        <time>2019-08-18T23:36:45Z</time>
      </trkpt>
      <trkpt lat="42.242562" lon="2.415023">
        <ele>493.5</ele>
        <time>2019-08-18T23:36:47Z</time>
      </trkpt>
      <trkpt lat="42.24258" lon="2.41497">
        <ele>493.9</ele>
        <time>2019-08-18T23:36:49Z</time>
      </trkpt>
      <trkpt lat="42.242598" lon="2.414916">
        <ele>494.3</ele>
        <time>2019-08-18T23:36:51Z</time>
      </trkpt>
      <trkpt lat="42.242613" lon="2.414868">
        <ele>494.6</ele>
        <time>2019-08-18T23:36:53Z</time>
      </trkpt>
      <trkpt lat="42.242626" lon="2.414822">
        <ele>494.9</ele>
        <time>2019-08-18T23:36:55Z</time>
      </trkpt>
      <trkpt lat="42.242641" lon="2.414776">
        <ele>495.2</ele>
        <time>2019-08-18T23:36:57Z</time>
      </trkpt>
      <trkpt lat="42.242656" lon="2.414727">
        <ele>495.5</ele>
        <time>2019-08-18T23:36:59Z</time>
      </trkpt>
      <trkpt lat="42.242664" lon="2.41467">
        <ele>495.9</ele>
        <time>2019-08-18T23:37:01Z</time>
      </trkpt>
      <trkpt lat="42.242678" lon="2.414621">
        <ele>496.2</ele>
        <time>2019-08-18T23:37:03Z</time>
      </trkpt>
      <trkpt lat="42.242694" lon="2.414566">
        <ele>496.5</ele>
        <time>2019-08-18T23:37:05Z</time>
      </trkpt>
      <trkpt lat="42.2427" lon="2.414515">
        <ele>496.8</ele>
        <time>2019-08-18T23:37:07Z</time>
      </trkpt>
      <trkpt lat="42.242711" lon="2.414461">
        <ele>497.1</ele>
        <time>2019-08-18T23:37:09Z</time>
      </trkpt>
      <trkpt lat="42.24272" lon="2.414418">
        <ele>497.3</ele>
        <time>2019-08-18T23:37:11Z</time>
      </trkpt>
      <trkpt lat="42.242727" lon="2.414371">
        <ele>497.6</ele>
        <time>2019-08-18T23:37:13Z</time>
      </trkpt>
      <trkpt lat="42.242728" lon="2.414307">
        <ele>497.9</ele>
        <time>2019-08-18T23:37:15Z</time>
      </trkpt>
      <trkpt lat="42.242739" lon="2.414241">
        <ele>498.2</ele>
        <time>2019-08-18T23:37:17Z</time>
      </trkpt>
      <trkpt lat="42.242751" lon="2.41418">
        <ele>498.6</ele>
        <time>2019-08-18T23:37:19Z</time>
      </trkpt>
      <trkpt lat="42.242761" lon="2.414122">
        <ele>498.9</ele>
        <time>2019-08-18T23:37:21Z</time>
      </trkpt>
      <trkpt lat="42.24277" lon="2.414068">
        <ele>499.2</ele>
        <time>2019-08-18T23:37:23Z</time>
      </trkpt>
      <trkpt lat="42.242779" lon="2.414004">
        <ele>499.5</ele>
        <time>2019-08-18T23:37:25Z</time>
      </trkpt>
      <trkpt lat="42.242785" lon="2.413942">
        <ele>499.8</ele>
        <time>2019-08-18T23:37:27Z</time>
      </trkpt>
      <trkpt lat="42.242784" lon="2.413882">
        <ele>500.2</ele>
        <time>2019-08-18T23:37:29Z</time>
      </trkpt>
      <trkpt lat="42.242781" lon="2.413825">
        <ele>500.5</ele>
        <time>2019-08-18T23:37:31Z</time>
      </trkpt>
      <trkpt lat="42.242781" lon="2.413775">
        <ele>500.7</ele>
        <time>2019-08-18T23:37:33Z</time>
      </trkpt>
      <trkpt lat="42.242787" lon="2.41372">
        <ele>501</ele>
        <time>2019-08-18T23:37:35Z</time>
      </trkpt>
      <trkpt lat="42.242796" lon="2.413665">
        <ele>501.3</ele>
        <time>2019-08-18T23:37:37Z</time>
      </trkpt>
      <trkpt lat="42.242805" lon="2.413604">
        <ele>501.6</ele>
        <time>2019-08-18T23:37:39Z</time>
      </trkpt>
      <trkpt lat="42.242811" lon="2.413541">
        <ele>501.9</ele>
        <time>2019-08-18T23:37:41Z</time>
      </trkpt>
      <trkpt lat="42.242813" lon="2.413499">
        <ele>502.1</ele>
        <time>2019-08-18T23:37:43Z</time>
      </trkpt>
      <trkpt lat="42.242814" lon="2.413454">
        <ele>502.3</ele>
        <time>2019-08-18T23:37:45Z</time>
      </trkpt>
      <trkpt lat="42.242812" lon="2.413405">
        <ele>502.6</ele>
        <time>2019-08-18T23:37:47Z</time>
      </trkpt>
      <trkpt lat="42.242814" lon="2.413359">
        <ele>502.9</ele>
        <time>2019-08-18T23:37:49Z</time>
      </trkpt>
      <trkpt lat="42.242814" lon="2.413307">
        <ele>503.2</ele>
        <time>2019-08-18T23:37:51Z</time>
      </trkpt>
      <trkpt lat="42.242818" lon="2.413255">
        <ele>503.5</ele>
        <time>2019-08-18T23:37:53Z</time>
      </trkpt>
      <trkpt lat="42.242823" lon="2.413204">
        <ele>503.9</ele>
        <time>2019-08-18T23:37:55Z</time>
      </trkpt>
      <trkpt lat="42.24283" lon="2.413157">
        <ele>504.2</ele>
        <time>2019-08-18T23:37:57Z</time>
      </trkpt>
      <trkpt lat="42.242835" lon="2.413111">
        <ele>504.5</ele>
        <time>2019-08-18T23:37:59Z</time>
      </trkpt>
      <trkpt lat="42.242842" lon="2.413063">
        <ele>504.8</ele>
        <time>2019-08-18T23:38:01Z</time>
      </trkpt>
      <trkpt lat="42.242841" lon="2.413008">
        <ele>505.2</ele>
        <time>2019-08-18T23:38:03Z</time>
      </trkpt>
      <trkpt lat="42.242839" lon="2.41295">
        <ele>505.5</ele>
        <time>2019-08-18T23:38:05Z</time>
      </trkpt>
      <trkpt lat="42.242839" lon="2.412888">
        <ele>505.9</ele>
        <time>2019-08-18T23:38:07Z</time>
      </trkpt>
      <trkpt lat="42.242838" lon="2.412826">
        <ele>506.2</ele>
        <time>2019-08-18T23:38:09Z</time>
      </trkpt>
      <trkpt lat="42.242831" lon="2.412759">
        <ele>506.5</ele>
        <time>2019-08-18T23:38:11Z</time>
      </trkpt>
      <trkpt lat="42.242831" lon="2.412689">
        <ele>506.8</ele>
        <time>2019-08-18T23:38:13Z</time>
      </trkpt>
      <trkpt lat="42.242836" lon="2.412631">
        <ele>507.1</ele>
        <time>2019-08-18T23:38:15Z</time>
      </trkpt>
      <trkpt lat="42.242845" lon="2.412566">
        <ele>507.4</ele>
        <time>2019-08-18T23:38:17Z</time>
      </trkpt>
      <trkpt lat="42.242846" lon="2.412505">
        <ele>507.6</ele>
        <time>2019-08-18T23:38:19Z</time>
      </trkpt>
      <trkpt lat="42.242849" lon="2.412448">
        <ele>507.9</ele>
        <time>2019-08-18T23:38:21Z</time>
      </trkpt>
      <trkpt lat="42.242851" lon="2.412378">
        <ele>508.2</ele>
        <time>2019-08-18T23:38:23Z</time>
      </trkpt>
      <trkpt lat="42.242856" lon="2.412304">
        <ele>508.4</ele>
        <time>2019-08-18T23:38:25Z</time>
      </trkpt>
      <trkpt lat="42.242858" lon="2.412268">
        <ele>508.6</ele>
        <time>2019-08-18T23:38:26Z</time>
      </trkpt>
      <trkpt lat="42.242862" lon="2.412231">
        <ele>508.7</ele>
        <time>2019-08-18T23:38:27Z</time>
      </trkpt>
      <trkpt lat="42.242869" lon="2.412159">
        <ele>508.9</ele>
        <time>2019-08-18T23:38:29Z</time>
      </trkpt>
      <trkpt lat="42.242874" lon="2.412119">
        <ele>509.2</ele>
        <time>2019-08-18T23:38:30Z</time>
      </trkpt>
      <trkpt lat="42.242878" lon="2.412077">
        <ele>509.4</ele>
        <time>2019-08-18T23:38:31Z</time>
      </trkpt>
      <trkpt lat="42.242883" lon="2.412032">
        <ele>509.6</ele>
        <time>2019-08-18T23:38:32Z</time>
      </trkpt>
      <trkpt lat="42.242887" lon="2.41198">
        <ele>509.9</ele>
        <time>2019-08-18T23:38:33Z</time>
      </trkpt>
      <trkpt lat="42.24289" lon="2.411933">
        <ele>510.1</ele>
        <time>2019-08-18T23:38:34Z</time>
      </trkpt>
      <trkpt lat="42.242891" lon="2.411891">
        <ele>510.3</ele>
        <time>2019-08-18T23:38:35Z</time>
      </trkpt>
      <trkpt lat="42.242892" lon="2.411842">
        <ele>510.5</ele>
        <time>2019-08-18T23:38:36Z</time>
      </trkpt>
      <trkpt lat="42.242894" lon="2.411786">
        <ele>510.7</ele>
        <time>2019-08-18T23:38:37Z</time>
      </trkpt>
      <trkpt lat="42.242894" lon="2.411728">
        <ele>510.9</ele>
        <time>2019-08-18T23:38:38Z</time>
      </trkpt>
      <trkpt lat="42.242891" lon="2.411669">
        <ele>511.2</ele>
        <time>2019-08-18T23:38:39Z</time>
      </trkpt>
      <trkpt lat="42.24289" lon="2.411608">
        <ele>511.4</ele>
        <time>2019-08-18T23:38:40Z</time>
      </trkpt>
      <trkpt lat="42.24289" lon="2.411548">
        <ele>511.7</ele>
        <time>2019-08-18T23:38:41Z</time>
      </trkpt>
      <trkpt lat="42.242891" lon="2.411491">
        <ele>511.9</ele>
        <time>2019-08-18T23:38:42Z</time>
      </trkpt>
      <trkpt lat="42.242893" lon="2.411434">
        <ele>512.1</ele>
        <time>2019-08-18T23:38:43Z</time>
      </trkpt>
      <trkpt lat="42.242891" lon="2.411379">
        <ele>512.3</ele>
        <time>2019-08-18T23:38:44Z</time>
      </trkpt>
      <trkpt lat="42.242887" lon="2.411327">
        <ele>512.5</ele>
        <time>2019-08-18T23:38:45Z</time>
      </trkpt>
      <trkpt lat="42.242885" lon="2.411276">
        <ele>512.7</ele>
        <time>2019-08-18T23:38:46Z</time>
      </trkpt>
      <trkpt lat="42.242883" lon="2.411222">
        <ele>512.9</ele>
        <time>2019-08-18T23:38:47Z</time>
      </trkpt>
      <trkpt lat="42.242884" lon="2.411164">
        <ele>512.7</ele>
        <time>2019-08-18T23:38:48Z</time>
      </trkpt>
      <trkpt lat="42.242888" lon="2.411105">
        <ele>512.6</ele>
        <time>2019-08-18T23:38:49Z</time>
      </trkpt>
      <trkpt lat="42.242891" lon="2.411049">
        <ele>512.5</ele>
        <time>2019-08-18T23:38:50Z</time>
      </trkpt>
      <trkpt lat="42.242893" lon="2.410996">
        <ele>512.4</ele>
        <time>2019-08-18T23:38:51Z</time>
      </trkpt>
      <trkpt lat="42.242893" lon="2.410945">
        <ele>512.3</ele>
        <time>2019-08-18T23:38:52Z</time>
      </trkpt>
      <trkpt lat="42.242894" lon="2.410893">
        <ele>512.2</ele>
        <time>2019-08-18T23:38:53Z</time>
      </trkpt>
      <trkpt lat="42.242896" lon="2.41084">
        <ele>512.1</ele>
        <time>2019-08-18T23:38:54Z</time>
      </trkpt>
      <trkpt lat="42.242898" lon="2.410789">
        <ele>512</ele>
        <time>2019-08-18T23:38:55Z</time>
      </trkpt>
      <trkpt lat="42.242899" lon="2.41074">
        <ele>511.9</ele>
        <time>2019-08-18T23:38:56Z</time>
      </trkpt>
      <trkpt lat="42.242901" lon="2.410692">
        <ele>511.8</ele>
        <time>2019-08-18T23:38:57Z</time>
      </trkpt>
      <trkpt lat="42.242903" lon="2.410642">
        <ele>511.7</ele>
        <time>2019-08-18T23:38:58Z</time>
      </trkpt>
      <trkpt lat="42.242901" lon="2.410597">
        <ele>511.6</ele>
        <time>2019-08-18T23:38:59Z</time>
      </trkpt>
      <trkpt lat="42.242898" lon="2.410554">
        <ele>511.5</ele>
        <time>2019-08-18T23:39:00Z</time>
      </trkpt>
      <trkpt lat="42.242893" lon="2.410517">
        <ele>511.5</ele>
        <time>2019-08-18T23:39:01Z</time>
      </trkpt>
      <trkpt lat="42.242889" lon="2.410445">
        <ele>511.4</ele>
        <time>2019-08-18T23:39:03Z</time>
      </trkpt>
      <trkpt lat="42.242892" lon="2.410374">
        <ele>511.3</ele>
        <time>2019-08-18T23:39:05Z</time>
      </trkpt>
      <trkpt lat="42.242887" lon="2.410302">
        <ele>511.2</ele>
        <time>2019-08-18T23:39:07Z</time>
      </trkpt>
      <trkpt lat="42.242886" lon="2.410231">
        <ele>511.2</ele>
        <time>2019-08-18T23:39:09Z</time>
      </trkpt>
      <trkpt lat="42.242882" lon="2.410167">
        <ele>511.2</ele>
        <time>2019-08-18T23:39:11Z</time>
      </trkpt>
      <trkpt lat="42.242881" lon="2.410112">
        <ele>511.2</ele>
        <time>2019-08-18T23:39:13Z</time>
      </trkpt>
      <trkpt lat="42.242879" lon="2.410066">
        <ele>511.2</ele>
        <time>2019-08-18T23:39:15Z</time>
      </trkpt>
      <trkpt lat="42.242879" lon="2.410018">
        <ele>511.1</ele>
        <time>2019-08-18T23:39:18Z</time>
      </trkpt>
      <trkpt lat="42.2429" lon="2.409989">
        <ele>511.1</ele>
        <time>2019-08-18T23:40:03Z</time>
      </trkpt>
      <trkpt lat="42.242901" lon="2.409951">
        <ele>511.1</ele>
        <time>2019-08-18T23:40:05Z</time>
      </trkpt>
      <trkpt lat="42.242898" lon="2.409898">
        <ele>511</ele>
        <time>2019-08-18T23:40:07Z</time>
      </trkpt>
      <trkpt lat="42.242895" lon="2.409851">
        <ele>511</ele>
        <time>2019-08-18T23:40:09Z</time>
      </trkpt>
      <trkpt lat="42.242886" lon="2.409794">
        <ele>510.8</ele>
        <time>2019-08-18T23:40:11Z</time>
      </trkpt>
      <trkpt lat="42.242882" lon="2.409734">
        <ele>510.7</ele>
        <time>2019-08-18T23:40:13Z</time>
      </trkpt>
      <trkpt lat="42.242874" lon="2.409674">
        <ele>510.6</ele>
        <time>2019-08-18T23:40:15Z</time>
      </trkpt>
      <trkpt lat="42.242861" lon="2.409614">
        <ele>510.3</ele>
        <time>2019-08-18T23:40:17Z</time>
      </trkpt>
      <trkpt lat="42.242849" lon="2.409549">
        <ele>510</ele>
        <time>2019-08-18T23:40:19Z</time>
      </trkpt>
      <trkpt lat="42.24284" lon="2.409513">
        <ele>509.8</ele>
        <time>2019-08-18T23:40:20Z</time>
      </trkpt>
      <trkpt lat="42.242831" lon="2.409475">
        <ele>509.6</ele>
        <time>2019-08-18T23:40:21Z</time>
      </trkpt>
      <trkpt lat="42.242822" lon="2.409437">
        <ele>509.4</ele>
        <time>2019-08-18T23:40:22Z</time>
      </trkpt>
      <trkpt lat="42.242813" lon="2.409397">
        <ele>509.2</ele>
        <time>2019-08-18T23:40:23Z</time>
      </trkpt>
      <trkpt lat="42.242802" lon="2.409357">
        <ele>509</ele>
        <time>2019-08-18T23:40:24Z</time>
      </trkpt>
      <trkpt lat="42.24279" lon="2.409316">
        <ele>508.8</ele>
        <time>2019-08-18T23:40:25Z</time>
      </trkpt>
      <trkpt lat="42.242778" lon="2.409273">
        <ele>508.6</ele>
        <time>2019-08-18T23:40:26Z</time>
      </trkpt>
      <trkpt lat="42.242767" lon="2.40923">
        <ele>508.5</ele>
        <time>2019-08-18T23:40:27Z</time>
      </trkpt>
      <trkpt lat="42.242755" lon="2.409188">
        <ele>508.3</ele>
        <time>2019-08-18T23:40:28Z</time>
      </trkpt>
      <trkpt lat="42.242742" lon="2.409148">
        <ele>508.3</ele>
        <time>2019-08-18T23:40:29Z</time>
      </trkpt>
      <trkpt lat="42.242728" lon="2.409108">
        <ele>508.2</ele>
        <time>2019-08-18T23:40:30Z</time>
      </trkpt>
      <trkpt lat="42.242713" lon="2.409066">
        <ele>508</ele>
        <time>2019-08-18T23:40:31Z</time>
      </trkpt>
      <trkpt lat="42.242698" lon="2.409025">
        <ele>507.9</ele>
        <time>2019-08-18T23:40:32Z</time>
      </trkpt>
      <trkpt lat="42.242682" lon="2.408985">
        <ele>507.8</ele>
        <time>2019-08-18T23:40:33Z</time>
      </trkpt>
      <trkpt lat="42.242665" lon="2.408946">
        <ele>507.7</ele>
        <time>2019-08-18T23:40:34Z</time>
      </trkpt>
      <trkpt lat="42.242648" lon="2.408909">
        <ele>507.6</ele>
        <time>2019-08-18T23:40:35Z</time>
      </trkpt>
      <trkpt lat="42.24263" lon="2.408872">
        <ele>507.4</ele>
        <time>2019-08-18T23:40:36Z</time>
      </trkpt>
      <trkpt lat="42.24261" lon="2.408834">
        <ele>507.2</ele>
        <time>2019-08-18T23:40:37Z</time>
      </trkpt>
      <trkpt lat="42.242588" lon="2.408792">
        <ele>506.9</ele>
        <time>2019-08-18T23:40:38Z</time>
      </trkpt>
      <trkpt lat="42.242568" lon="2.40875">
        <ele>506.9</ele>
        <time>2019-08-18T23:40:39Z</time>
      </trkpt>
      <trkpt lat="42.242549" lon="2.408706">
        <ele>506.9</ele>
        <time>2019-08-18T23:40:40Z</time>
      </trkpt>
      <trkpt lat="42.242527" lon="2.408661">
        <ele>506.8</ele>
        <time>2019-08-18T23:40:41Z</time>
      </trkpt>
      <trkpt lat="42.242502" lon="2.408617">
        <ele>506.7</ele>
        <time>2019-08-18T23:40:42Z</time>
      </trkpt>
      <trkpt lat="42.242477" lon="2.408576">
        <ele>506.5</ele>
        <time>2019-08-18T23:40:43Z</time>
      </trkpt>
      <trkpt lat="42.24245" lon="2.408534">
        <ele>506.4</ele>
        <time>2019-08-18T23:40:44Z</time>
      </trkpt>
      <trkpt lat="42.242424" lon="2.408492">
        <ele>506.3</ele>
        <time>2019-08-18T23:40:45Z</time>
      </trkpt>
      <trkpt lat="42.242396" lon="2.40845">
        <ele>506.2</ele>
        <time>2019-08-18T23:40:46Z</time>
      </trkpt>
      <trkpt lat="42.242365" lon="2.408406">
        <ele>506</ele>
        <time>2019-08-18T23:40:47Z</time>
      </trkpt>
      <trkpt lat="42.242333" lon="2.408362">
        <ele>505.9</ele>
        <time>2019-08-18T23:40:48Z</time>
      </trkpt>
      <trkpt lat="42.242302" lon="2.408319">
        <ele>505.7</ele>
        <time>2019-08-18T23:40:49Z</time>
      </trkpt>
      <trkpt lat="42.24227" lon="2.408275">
        <ele>505.6</ele>
        <time>2019-08-18T23:40:50Z</time>
      </trkpt>
      <trkpt lat="42.242238" lon="2.408232">
        <ele>505.9</ele>
        <time>2019-08-18T23:40:51Z</time>
      </trkpt>
      <trkpt lat="42.242208" lon="2.408184">
        <ele>506.4</ele>
        <time>2019-08-18T23:40:52Z</time>
      </trkpt>
      <trkpt lat="42.24218" lon="2.408139">
        <ele>506.8</ele>
        <time>2019-08-18T23:40:53Z</time>
      </trkpt>
      <trkpt lat="42.242151" lon="2.408094">
        <ele>507.2</ele>
        <time>2019-08-18T23:40:54Z</time>
      </trkpt>
      <trkpt lat="42.242123" lon="2.408051">
        <ele>507.6</ele>
        <time>2019-08-18T23:40:55Z</time>
      </trkpt>
      <trkpt lat="42.242094" lon="2.408011">
        <ele>508</ele>
        <time>2019-08-18T23:40:56Z</time>
      </trkpt>
      <trkpt lat="42.242065" lon="2.40797">
        <ele>508.4</ele>
        <time>2019-08-18T23:40:57Z</time>
      </trkpt>
      <trkpt lat="42.242037" lon="2.407924">
        <ele>508.8</ele>
        <time>2019-08-18T23:40:58Z</time>
      </trkpt>
      <trkpt lat="42.242008" lon="2.40788">
        <ele>509.2</ele>
        <time>2019-08-18T23:40:59Z</time>
      </trkpt>
      <trkpt lat="42.24198" lon="2.407837">
        <ele>509.6</ele>
        <time>2019-08-18T23:41:00Z</time>
      </trkpt>
      <trkpt lat="42.241954" lon="2.407795">
        <ele>510</ele>
        <time>2019-08-18T23:41:01Z</time>
      </trkpt>
      <trkpt lat="42.241927" lon="2.407752">
        <ele>510.4</ele>
        <time>2019-08-18T23:41:02Z</time>
      </trkpt>
      <trkpt lat="42.241898" lon="2.407711">
        <ele>510.9</ele>
        <time>2019-08-18T23:41:03Z</time>
      </trkpt>
      <trkpt lat="42.24187" lon="2.407673">
        <ele>511.3</ele>
        <time>2019-08-18T23:41:04Z</time>
      </trkpt>
      <trkpt lat="42.241843" lon="2.407636">
        <ele>511.7</ele>
        <time>2019-08-18T23:41:05Z</time>
      </trkpt>
      <trkpt lat="42.241817" lon="2.4076">
        <ele>512.1</ele>
        <time>2019-08-18T23:41:06Z</time>
      </trkpt>
      <trkpt lat="42.241792" lon="2.407563">
        <ele>512.5</ele>
        <time>2019-08-18T23:41:07Z</time>
      </trkpt>
      <trkpt lat="42.241768" lon="2.407525">
        <ele>512.9</ele>
        <time>2019-08-18T23:41:08Z</time>
      </trkpt>
      <trkpt lat="42.241747" lon="2.407485">
        <ele>513.3</ele>
        <time>2019-08-18T23:41:09Z</time>
      </trkpt>
      <trkpt lat="42.241722" lon="2.407446">
        <ele>513.8</ele>
        <time>2019-08-18T23:41:10Z</time>
      </trkpt>
      <trkpt lat="42.2417" lon="2.407412">
        <ele>514.2</ele>
        <time>2019-08-18T23:41:11Z</time>
      </trkpt>
      <trkpt lat="42.241682" lon="2.407375">
        <ele>514.5</ele>
        <time>2019-08-18T23:41:12Z</time>
      </trkpt>
      <trkpt lat="42.241662" lon="2.407341">
        <ele>514.9</ele>
        <time>2019-08-18T23:41:13Z</time>
      </trkpt>
      <trkpt lat="42.241643" lon="2.407304">
        <ele>515.3</ele>
        <time>2019-08-18T23:41:14Z</time>
      </trkpt>
      <trkpt lat="42.241623" lon="2.407267">
        <ele>515.7</ele>
        <time>2019-08-18T23:41:15Z</time>
      </trkpt>
      <trkpt lat="42.241601" lon="2.40723">
        <ele>516.2</ele>
        <time>2019-08-18T23:41:16Z</time>
      </trkpt>
      <trkpt lat="42.241578" lon="2.407192">
        <ele>516.6</ele>
        <time>2019-08-18T23:41:17Z</time>
      </trkpt>
      <trkpt lat="42.241555" lon="2.407152">
        <ele>517.1</ele>
        <time>2019-08-18T23:41:18Z</time>
      </trkpt>
      <trkpt lat="42.241532" lon="2.407111">
        <ele>517.6</ele>
        <time>2019-08-18T23:41:19Z</time>
      </trkpt>
      <trkpt lat="42.241508" lon="2.407071">
        <ele>518</ele>
        <time>2019-08-18T23:41:20Z</time>
      </trkpt>
      <trkpt lat="42.241485" lon="2.407033">
        <ele>518.4</ele>
        <time>2019-08-18T23:41:21Z</time>
      </trkpt>
      <trkpt lat="42.241464" lon="2.406994">
        <ele>518.8</ele>
        <time>2019-08-18T23:41:22Z</time>
      </trkpt>
      <trkpt lat="42.241442" lon="2.406959">
        <ele>519.2</ele>
        <time>2019-08-18T23:41:23Z</time>
      </trkpt>
      <trkpt lat="42.241419" lon="2.406924">
        <ele>519.8</ele>
        <time>2019-08-18T23:41:24Z</time>
      </trkpt>
      <trkpt lat="42.241398" lon="2.406891">
        <ele>519.8</ele>
        <time>2019-08-18T23:41:25Z</time>
      </trkpt>
      <trkpt lat="42.241379" lon="2.406858">
        <ele>519.8</ele>
        <time>2019-08-18T23:41:26Z</time>
      </trkpt>
      <trkpt lat="42.241361" lon="2.406823">
        <ele>520</ele>
        <time>2019-08-18T23:41:27Z</time>
      </trkpt>
      <trkpt lat="42.241343" lon="2.406788">
        <ele>520.3</ele>
        <time>2019-08-18T23:41:28Z</time>
      </trkpt>
      <trkpt lat="42.241324" lon="2.40675">
        <ele>520.6</ele>
        <time>2019-08-18T23:41:29Z</time>
      </trkpt>
      <trkpt lat="42.241305" lon="2.406708">
        <ele>521</ele>
        <time>2019-08-18T23:41:30Z</time>
      </trkpt>
      <trkpt lat="42.241287" lon="2.406668">
        <ele>521.3</ele>
        <time>2019-08-18T23:41:31Z</time>
      </trkpt>
      <trkpt lat="42.241268" lon="2.406628">
        <ele>521.6</ele>
        <time>2019-08-18T23:41:32Z</time>
      </trkpt>
      <trkpt lat="42.241251" lon="2.406589">
        <ele>521.8</ele>
        <time>2019-08-18T23:41:33Z</time>
      </trkpt>
      <trkpt lat="42.241231" lon="2.406551">
        <ele>522</ele>
        <time>2019-08-18T23:41:34Z</time>
      </trkpt>
      <trkpt lat="42.241211" lon="2.406515">
        <ele>522.2</ele>
        <time>2019-08-18T23:41:35Z</time>
      </trkpt>
      <trkpt lat="42.241191" lon="2.406478">
        <ele>522.3</ele>
        <time>2019-08-18T23:41:36Z</time>
      </trkpt>
      <trkpt lat="42.241171" lon="2.406441">
        <ele>522.4</ele>
        <time>2019-08-18T23:41:37Z</time>
      </trkpt>
      <trkpt lat="42.241152" lon="2.406405">
        <ele>522.6</ele>
        <time>2019-08-18T23:41:38Z</time>
      </trkpt>
      <trkpt lat="42.241133" lon="2.406369">
        <ele>522.7</ele>
        <time>2019-08-18T23:41:39Z</time>
      </trkpt>
      <trkpt lat="42.241114" lon="2.406333">
        <ele>522.9</ele>
        <time>2019-08-18T23:41:40Z</time>
      </trkpt>
      <trkpt lat="42.241094" lon="2.406297">
        <ele>523.2</ele>
        <time>2019-08-18T23:41:41Z</time>
      </trkpt>
      <trkpt lat="42.241075" lon="2.406261">
        <ele>523.5</ele>
        <time>2019-08-18T23:41:42Z</time>
      </trkpt>
      <trkpt lat="42.241074" lon="2.405835">
        <ele>525.8</ele>
        <time>2019-08-18T23:41:57Z</time>
      </trkpt>
      <trkpt lat="42.24106" lon="2.405798">
        <ele>525.8</ele>
        <time>2019-08-18T23:41:58Z</time>
      </trkpt>
      <trkpt lat="42.241049" lon="2.405762">
        <ele>525.9</ele>
        <time>2019-08-18T23:41:59Z</time>
      </trkpt>
      <trkpt lat="42.241039" lon="2.405702">
        <ele>526</ele>
        <time>2019-08-18T23:42:01Z</time>
      </trkpt>
      <trkpt lat="42.241026" lon="2.405639">
        <ele>526.1</ele>
        <time>2019-08-18T23:42:03Z</time>
      </trkpt>
      <trkpt lat="42.24102" lon="2.405582">
        <ele>526.2</ele>
        <time>2019-08-18T23:42:05Z</time>
      </trkpt>
      <trkpt lat="42.241023" lon="2.405526">
        <ele>526.2</ele>
        <time>2019-08-18T23:42:07Z</time>
      </trkpt>
      <trkpt lat="42.241023" lon="2.405468">
        <ele>526.3</ele>
        <time>2019-08-18T23:42:09Z</time>
      </trkpt>
      <trkpt lat="42.241018" lon="2.405404">
        <ele>526.4</ele>
        <time>2019-08-18T23:42:11Z</time>
      </trkpt>
      <trkpt lat="42.241012" lon="2.405345">
        <ele>526.5</ele>
        <time>2019-08-18T23:42:13Z</time>
      </trkpt>
      <trkpt lat="42.241008" lon="2.405278">
        <ele>526.6</ele>
        <time>2019-08-18T23:42:15Z</time>
      </trkpt>
      <trkpt lat="42.241008" lon="2.405215">
        <ele>526.7</ele>
        <time>2019-08-18T23:42:17Z</time>
      </trkpt>
      <trkpt lat="42.241011" lon="2.405148">
        <ele>526.8</ele>
        <time>2019-08-18T23:42:19Z</time>
      </trkpt>
      <trkpt lat="42.241017" lon="2.405084">
        <ele>526.9</ele>
        <time>2019-08-18T23:42:21Z</time>
      </trkpt>
      <trkpt lat="42.241026" lon="2.405017">
        <ele>527.1</ele>
        <time>2019-08-18T23:42:23Z</time>
      </trkpt>
      <trkpt lat="42.241034" lon="2.404954">
        <ele>527.2</ele>
        <time>2019-08-18T23:42:25Z</time>
      </trkpt>
      <trkpt lat="42.241043" lon="2.404889">
        <ele>527.4</ele>
        <time>2019-08-18T23:42:27Z</time>
      </trkpt>
      <trkpt lat="42.241049" lon="2.404826">
        <ele>527.5</ele>
        <time>2019-08-18T23:42:29Z</time>
      </trkpt>
      <trkpt lat="42.241054" lon="2.404767">
        <ele>527.7</ele>
        <time>2019-08-18T23:42:31Z</time>
      </trkpt>
      <trkpt lat="42.241056" lon="2.404704">
        <ele>527.9</ele>
        <time>2019-08-18T23:42:33Z</time>
      </trkpt>
      <trkpt lat="42.241059" lon="2.404639">
        <ele>528.1</ele>
        <time>2019-08-18T23:42:35Z</time>
      </trkpt>
      <trkpt lat="42.241063" lon="2.404572">
        <ele>528.3</ele>
        <time>2019-08-18T23:42:37Z</time>
      </trkpt>
      <trkpt lat="42.241065" lon="2.404507">
        <ele>528.5</ele>
        <time>2019-08-18T23:42:39Z</time>
      </trkpt>
      <trkpt lat="42.241067" lon="2.404442">
        <ele>528.7</ele>
        <time>2019-08-18T23:42:41Z</time>
      </trkpt>
      <trkpt lat="42.241073" lon="2.404382">
        <ele>528.9</ele>
        <time>2019-08-18T23:42:43Z</time>
      </trkpt>
      <trkpt lat="42.241078" lon="2.404326">
        <ele>529.1</ele>
        <time>2019-08-18T23:42:45Z</time>
      </trkpt>
      <trkpt lat="42.241084" lon="2.404271">
        <ele>529.1</ele>
        <time>2019-08-18T23:42:47Z</time>
      </trkpt>
      <trkpt lat="42.241092" lon="2.404215">
        <ele>529.1</ele>
        <time>2019-08-18T23:42:49Z</time>
      </trkpt>
      <trkpt lat="42.241097" lon="2.404163">
        <ele>529</ele>
        <time>2019-08-18T23:42:51Z</time>
      </trkpt>
      <trkpt lat="42.241103" lon="2.404112">
        <ele>529</ele>
        <time>2019-08-18T23:42:53Z</time>
      </trkpt>
      <trkpt lat="42.241106" lon="2.404059">
        <ele>529</ele>
        <time>2019-08-18T23:42:55Z</time>
      </trkpt>
      <trkpt lat="42.241109" lon="2.404003">
        <ele>529</ele>
        <time>2019-08-18T23:42:57Z</time>
      </trkpt>
      <trkpt lat="42.241114" lon="2.403947">
        <ele>529</ele>
        <time>2019-08-18T23:42:59Z</time>
      </trkpt>
      <trkpt lat="42.24112" lon="2.403896">
        <ele>529</ele>
        <time>2019-08-18T23:43:01Z</time>
      </trkpt>
      <trkpt lat="42.24112" lon="2.403838">
        <ele>529</ele>
        <time>2019-08-18T23:43:03Z</time>
      </trkpt>
      <trkpt lat="42.241124" lon="2.403777">
        <ele>529.1</ele>
        <time>2019-08-18T23:43:05Z</time>
      </trkpt>
      <trkpt lat="42.241127" lon="2.403715">
        <ele>529.1</ele>
        <time>2019-08-18T23:43:07Z</time>
      </trkpt>
      <trkpt lat="42.241128" lon="2.403657">
        <ele>529.1</ele>
        <time>2019-08-18T23:43:09Z</time>
      </trkpt>
      <trkpt lat="42.241132" lon="2.403599">
        <ele>529.1</ele>
        <time>2019-08-18T23:43:11Z</time>
      </trkpt>
      <trkpt lat="42.241135" lon="2.403535">
        <ele>529.1</ele>
        <time>2019-08-18T23:43:13Z</time>
      </trkpt>
      <trkpt lat="42.241139" lon="2.403471">
        <ele>529.2</ele>
        <time>2019-08-18T23:43:15Z</time>
      </trkpt>
      <trkpt lat="42.241138" lon="2.403409">
        <ele>529.2</ele>
        <time>2019-08-18T23:43:17Z</time>
      </trkpt>
      <trkpt lat="42.241138" lon="2.403351">
        <ele>529.3</ele>
        <time>2019-08-18T23:43:19Z</time>
      </trkpt>
      <trkpt lat="42.241138" lon="2.403298">
        <ele>529.4</ele>
        <time>2019-08-18T23:43:21Z</time>
      </trkpt>
      <trkpt lat="42.24114" lon="2.403239">
        <ele>529.7</ele>
        <time>2019-08-18T23:43:23Z</time>
      </trkpt>
      <trkpt lat="42.241142" lon="2.403178">
        <ele>530.1</ele>
        <time>2019-08-18T23:43:25Z</time>
      </trkpt>
      <trkpt lat="42.241142" lon="2.403116">
        <ele>530.4</ele>
        <time>2019-08-18T23:43:27Z</time>
      </trkpt>
      <trkpt lat="42.241141" lon="2.403057">
        <ele>530.8</ele>
        <time>2019-08-18T23:43:29Z</time>
      </trkpt>
      <trkpt lat="42.24114" lon="2.402998">
        <ele>531.1</ele>
        <time>2019-08-18T23:43:31Z</time>
      </trkpt>
      <trkpt lat="42.241145" lon="2.402938">
        <ele>531.5</ele>
        <time>2019-08-18T23:43:33Z</time>
      </trkpt>
      <trkpt lat="42.241151" lon="2.402876">
        <ele>532</ele>
        <time>2019-08-18T23:43:35Z</time>
      </trkpt>
      <trkpt lat="42.241161" lon="2.402814">
        <ele>532.6</ele>
        <time>2019-08-18T23:43:37Z</time>
      </trkpt>
      <trkpt lat="42.241166" lon="2.402758">
        <ele>533.6</ele>
        <time>2019-08-18T23:43:39Z</time>
      </trkpt>
      <trkpt lat="42.241172" lon="2.402702">
        <ele>533.9</ele>
        <time>2019-08-18T23:43:41Z</time>
      </trkpt>
      <trkpt lat="42.241175" lon="2.402645">
        <ele>534.5</ele>
        <time>2019-08-18T23:43:43Z</time>
      </trkpt>
      <trkpt lat="42.241175" lon="2.402582">
        <ele>534.9</ele>
        <time>2019-08-18T23:43:45Z</time>
      </trkpt>
      <trkpt lat="42.241179" lon="2.402518">
        <ele>535.4</ele>
        <time>2019-08-18T23:43:47Z</time>
      </trkpt>
      <trkpt lat="42.241179" lon="2.402459">
        <ele>535.8</ele>
        <time>2019-08-18T23:43:49Z</time>
      </trkpt>
      <trkpt lat="42.241185" lon="2.402401">
        <ele>536.3</ele>
        <time>2019-08-18T23:43:51Z</time>
      </trkpt>
      <trkpt lat="42.241187" lon="2.402345">
        <ele>536.7</ele>
        <time>2019-08-18T23:43:53Z</time>
      </trkpt>
      <trkpt lat="42.241192" lon="2.402288">
        <ele>537.2</ele>
        <time>2019-08-18T23:43:55Z</time>
      </trkpt>
      <trkpt lat="42.241199" lon="2.402237">
        <ele>537.7</ele>
        <time>2019-08-18T23:43:57Z</time>
      </trkpt>
      <trkpt lat="42.241211" lon="2.402185">
        <ele>538.1</ele>
        <time>2019-08-18T23:43:59Z</time>
      </trkpt>
      <trkpt lat="42.241218" lon="2.40213">
        <ele>538.6</ele>
        <time>2019-08-18T23:44:01Z</time>
      </trkpt>
      <trkpt lat="42.241222" lon="2.402073">
        <ele>539.1</ele>
        <time>2019-08-18T23:44:03Z</time>
      </trkpt>
      <trkpt lat="42.241226" lon="2.402017">
        <ele>539.5</ele>
        <time>2019-08-18T23:44:05Z</time>
      </trkpt>
      <trkpt lat="42.241227" lon="2.401964">
        <ele>539.8</ele>
        <time>2019-08-18T23:44:07Z</time>
      </trkpt>
      <trkpt lat="42.241231" lon="2.401914">
        <ele>540.1</ele>
        <time>2019-08-18T23:44:09Z</time>
      </trkpt>
      <trkpt lat="42.241238" lon="2.401866">
        <ele>540.4</ele>
        <time>2019-08-18T23:44:11Z</time>
      </trkpt>
      <trkpt lat="42.241242" lon="2.401818">
        <ele>540.7</ele>
        <time>2019-08-18T23:44:13Z</time>
      </trkpt>
      <trkpt lat="42.241248" lon="2.401764">
        <ele>541</ele>
        <time>2019-08-18T23:44:15Z</time>
      </trkpt>
      <trkpt lat="42.241252" lon="2.401705">
        <ele>541.3</ele>
        <time>2019-08-18T23:44:17Z</time>
      </trkpt>
      <trkpt lat="42.241256" lon="2.401643">
        <ele>541.8</ele>
        <time>2019-08-18T23:44:19Z</time>
      </trkpt>
      <trkpt lat="42.241261" lon="2.401583">
        <ele>542.3</ele>
        <time>2019-08-18T23:44:21Z</time>
      </trkpt>
      <trkpt lat="42.241269" lon="2.401527">
        <ele>542.8</ele>
        <time>2019-08-18T23:44:23Z</time>
      </trkpt>
      <trkpt lat="42.241276" lon="2.401469">
        <ele>543.3</ele>
        <time>2019-08-18T23:44:25Z</time>
      </trkpt>
      <trkpt lat="42.241282" lon="2.401407">
        <ele>543.8</ele>
        <time>2019-08-18T23:44:27Z</time>
      </trkpt>
      <trkpt lat="42.241286" lon="2.401343">
        <ele>544.3</ele>
        <time>2019-08-18T23:44:29Z</time>
      </trkpt>
      <trkpt lat="42.241296" lon="2.401284">
        <ele>544.8</ele>
        <time>2019-08-18T23:44:31Z</time>
      </trkpt>
      <trkpt lat="42.241303" lon="2.401226">
        <ele>545.2</ele>
        <time>2019-08-18T23:44:33Z</time>
      </trkpt>
      <trkpt lat="42.241312" lon="2.401161">
        <ele>545.7</ele>
        <time>2019-08-18T23:44:35Z</time>
      </trkpt>
      <trkpt lat="42.241318" lon="2.401106">
        <ele>546.1</ele>
        <time>2019-08-18T23:44:37Z</time>
      </trkpt>
      <trkpt lat="42.241328" lon="2.401049">
        <ele>546.5</ele>
        <time>2019-08-18T23:44:39Z</time>
      </trkpt>
      <trkpt lat="42.241338" lon="2.400986">
        <ele>546.8</ele>
        <time>2019-08-18T23:44:41Z</time>
      </trkpt>
      <trkpt lat="42.241348" lon="2.400927">
        <ele>547</ele>
        <time>2019-08-18T23:44:43Z</time>
      </trkpt>
      <trkpt lat="42.241359" lon="2.400869">
        <ele>547.3</ele>
        <time>2019-08-18T23:44:45Z</time>
      </trkpt>
      <trkpt lat="42.241369" lon="2.400814">
        <ele>547.5</ele>
        <time>2019-08-18T23:44:47Z</time>
      </trkpt>
      <trkpt lat="42.24138" lon="2.400757">
        <ele>547.8</ele>
        <time>2019-08-18T23:44:49Z</time>
      </trkpt>
      <trkpt lat="42.241393" lon="2.400701">
        <ele>548</ele>
        <time>2019-08-18T23:44:51Z</time>
      </trkpt>
      <trkpt lat="42.241404" lon="2.400647">
        <ele>548.2</ele>
        <time>2019-08-18T23:44:53Z</time>
      </trkpt>
      <trkpt lat="42.241419" lon="2.400592">
        <ele>548.4</ele>
        <time>2019-08-18T23:44:55Z</time>
      </trkpt>
      <trkpt lat="42.241438" lon="2.400534">
        <ele>548.6</ele>
        <time>2019-08-18T23:44:57Z</time>
      </trkpt>
      <trkpt lat="42.241455" lon="2.400475">
        <ele>548.9</ele>
        <time>2019-08-18T23:44:59Z</time>
      </trkpt>
      <trkpt lat="42.241468" lon="2.400425">
        <ele>549.1</ele>
        <time>2019-08-18T23:45:01Z</time>
      </trkpt>
      <trkpt lat="42.241489" lon="2.400375">
        <ele>549.3</ele>
        <time>2019-08-18T23:45:03Z</time>
      </trkpt>
      <trkpt lat="42.241508" lon="2.400322">
        <ele>549.5</ele>
        <time>2019-08-18T23:45:05Z</time>
      </trkpt>
      <trkpt lat="42.241522" lon="2.400268">
        <ele>549.7</ele>
        <time>2019-08-18T23:45:07Z</time>
      </trkpt>
      <trkpt lat="42.241539" lon="2.400211">
        <ele>549.9</ele>
        <time>2019-08-18T23:45:09Z</time>
      </trkpt>
      <trkpt lat="42.24155" lon="2.400177">
        <ele>550.1</ele>
        <time>2019-08-18T23:45:10Z</time>
      </trkpt>
      <trkpt lat="42.24157" lon="2.400117">
        <ele>550.4</ele>
        <time>2019-08-18T23:45:12Z</time>
      </trkpt>
      <trkpt lat="42.241592" lon="2.400063">
        <ele>550.7</ele>
        <time>2019-08-18T23:45:14Z</time>
      </trkpt>
      <trkpt lat="42.241613" lon="2.399999">
        <ele>551.1</ele>
        <time>2019-08-18T23:45:16Z</time>
      </trkpt>
      <trkpt lat="42.241633" lon="2.399942">
        <ele>551.5</ele>
        <time>2019-08-18T23:45:18Z</time>
      </trkpt>
      <trkpt lat="42.241647" lon="2.39988">
        <ele>551.9</ele>
        <time>2019-08-18T23:45:20Z</time>
      </trkpt>
      <trkpt lat="42.24166" lon="2.399813">
        <ele>552.3</ele>
        <time>2019-08-18T23:45:22Z</time>
      </trkpt>
      <trkpt lat="42.241672" lon="2.399752">
        <ele>552.5</ele>
        <time>2019-08-18T23:45:24Z</time>
      </trkpt>
      <trkpt lat="42.241684" lon="2.399694">
        <ele>552.8</ele>
        <time>2019-08-18T23:45:26Z</time>
      </trkpt>
      <trkpt lat="42.241697" lon="2.399641">
        <ele>553</ele>
        <time>2019-08-18T23:45:28Z</time>
      </trkpt>
      <trkpt lat="42.241713" lon="2.399588">
        <ele>553.3</ele>
        <time>2019-08-18T23:45:30Z</time>
      </trkpt>
      <trkpt lat="42.241725" lon="2.39953">
        <ele>553.5</ele>
        <time>2019-08-18T23:45:32Z</time>
      </trkpt>
      <trkpt lat="42.241736" lon="2.39947">
        <ele>553.8</ele>
        <time>2019-08-18T23:45:34Z</time>
      </trkpt>
      <trkpt lat="42.24175" lon="2.399411">
        <ele>554</ele>
        <time>2019-08-18T23:45:36Z</time>
      </trkpt>
      <trkpt lat="42.241766" lon="2.399347">
        <ele>554.2</ele>
        <time>2019-08-18T23:45:38Z</time>
      </trkpt>
      <trkpt lat="42.241784" lon="2.399287">
        <ele>554.4</ele>
        <time>2019-08-18T23:45:40Z</time>
      </trkpt>
      <trkpt lat="42.241798" lon="2.399225">
        <ele>554.6</ele>
        <time>2019-08-18T23:45:42Z</time>
      </trkpt>
      <trkpt lat="42.241813" lon="2.399165">
        <ele>554.9</ele>
        <time>2019-08-18T23:45:44Z</time>
      </trkpt>
      <trkpt lat="42.241825" lon="2.399107">
        <ele>555.1</ele>
        <time>2019-08-18T23:45:46Z</time>
      </trkpt>
      <trkpt lat="42.241837" lon="2.399045">
        <ele>555.3</ele>
        <time>2019-08-18T23:45:48Z</time>
      </trkpt>
      <trkpt lat="42.241848" lon="2.398986">
        <ele>555.5</ele>
        <time>2019-08-18T23:45:50Z</time>
      </trkpt>
      <trkpt lat="42.241862" lon="2.398929">
        <ele>555.8</ele>
        <time>2019-08-18T23:45:52Z</time>
      </trkpt>
      <trkpt lat="42.24188" lon="2.398875">
        <ele>556.2</ele>
        <time>2019-08-18T23:45:54Z</time>
      </trkpt>
      <trkpt lat="42.241899" lon="2.398821">
        <ele>556.5</ele>
        <time>2019-08-18T23:45:56Z</time>
      </trkpt>
      <trkpt lat="42.241921" lon="2.398765">
        <ele>556.9</ele>
        <time>2019-08-18T23:45:58Z</time>
      </trkpt>
      <trkpt lat="42.241942" lon="2.398707">
        <ele>557.4</ele>
        <time>2019-08-18T23:46:00Z</time>
      </trkpt>
      <trkpt lat="42.241959" lon="2.398651">
        <ele>557.8</ele>
        <time>2019-08-18T23:46:02Z</time>
      </trkpt>
      <trkpt lat="42.241974" lon="2.398592">
        <ele>558.2</ele>
        <time>2019-08-18T23:46:04Z</time>
      </trkpt>
      <trkpt lat="42.241986" lon="2.398537">
        <ele>558.6</ele>
        <time>2019-08-18T23:46:06Z</time>
      </trkpt>
      <trkpt lat="42.242003" lon="2.398483">
        <ele>559</ele>
        <time>2019-08-18T23:46:08Z</time>
      </trkpt>
      <trkpt lat="42.242014" lon="2.398426">
        <ele>559.3</ele>
        <time>2019-08-18T23:46:10Z</time>
      </trkpt>
      <trkpt lat="42.242025" lon="2.398371">
        <ele>559.5</ele>
        <time>2019-08-18T23:46:12Z</time>
      </trkpt>
      <trkpt lat="42.242031" lon="2.398311">
        <ele>559.8</ele>
        <time>2019-08-18T23:46:14Z</time>
      </trkpt>
      <trkpt lat="42.242041" lon="2.398251">
        <ele>560.1</ele>
        <time>2019-08-18T23:46:16Z</time>
      </trkpt>
      <trkpt lat="42.242047" lon="2.398196">
        <ele>560.4</ele>
        <time>2019-08-18T23:46:18Z</time>
      </trkpt>
      <trkpt lat="42.242051" lon="2.398138">
        <ele>560.7</ele>
        <time>2019-08-18T23:46:20Z</time>
      </trkpt>
      <trkpt lat="42.242059" lon="2.39808">
        <ele>561.1</ele>
        <time>2019-08-18T23:46:22Z</time>
      </trkpt>
      <trkpt lat="42.242068" lon="2.39802">
        <ele>561.6</ele>
        <time>2019-08-18T23:46:24Z</time>
      </trkpt>
      <trkpt lat="42.24207" lon="2.397963">
        <ele>562</ele>
        <time>2019-08-18T23:46:26Z</time>
      </trkpt>
      <trkpt lat="42.242075" lon="2.3979">
        <ele>562.4</ele>
        <time>2019-08-18T23:46:28Z</time>
      </trkpt>
      <trkpt lat="42.242079" lon="2.39784">
        <ele>562.9</ele>
        <time>2019-08-18T23:46:30Z</time>
      </trkpt>
      <trkpt lat="42.242085" lon="2.397782">
        <ele>563.3</ele>
        <time>2019-08-18T23:46:32Z</time>
      </trkpt>
      <trkpt lat="42.242086" lon="2.397721">
        <ele>563.6</ele>
        <time>2019-08-18T23:46:34Z</time>
      </trkpt>
      <trkpt lat="42.242089" lon="2.397664">
        <ele>563.9</ele>
        <time>2019-08-18T23:46:36Z</time>
      </trkpt>
      <trkpt lat="42.242089" lon="2.397607">
        <ele>564.2</ele>
        <time>2019-08-18T23:46:38Z</time>
      </trkpt>
      <trkpt lat="42.242088" lon="2.397549">
        <ele>564.6</ele>
        <time>2019-08-18T23:46:40Z</time>
      </trkpt>
      <trkpt lat="42.242089" lon="2.397488">
        <ele>564.9</ele>
        <time>2019-08-18T23:46:42Z</time>
      </trkpt>
      <trkpt lat="42.242088" lon="2.397431">
        <ele>565.3</ele>
        <time>2019-08-18T23:46:44Z</time>
      </trkpt>
      <trkpt lat="42.242088" lon="2.397372">
        <ele>565.8</ele>
        <time>2019-08-18T23:46:46Z</time>
      </trkpt>
      <trkpt lat="42.24208" lon="2.397312">
        <ele>566.3</ele>
        <time>2019-08-18T23:46:48Z</time>
      </trkpt>
      <trkpt lat="42.242073" lon="2.397254">
        <ele>566.6</ele>
        <time>2019-08-18T23:46:50Z</time>
      </trkpt>
      <trkpt lat="42.242062" lon="2.397194">
        <ele>567</ele>
        <time>2019-08-18T23:46:52Z</time>
      </trkpt>
      <trkpt lat="42.24205" lon="2.397139">
        <ele>567.3</ele>
        <time>2019-08-18T23:46:54Z</time>
      </trkpt>
      <trkpt lat="42.242044" lon="2.397081">
        <ele>567.6</ele>
        <time>2019-08-18T23:46:56Z</time>
      </trkpt>
      <trkpt lat="42.242038" lon="2.397025">
        <ele>567.9</ele>
        <time>2019-08-18T23:46:58Z</time>
      </trkpt>
      <trkpt lat="42.242033" lon="2.396965">
        <ele>568.4</ele>
        <time>2019-08-18T23:47:00Z</time>
      </trkpt>
      <trkpt lat="42.242026" lon="2.396905">
        <ele>568.8</ele>
        <time>2019-08-18T23:47:02Z</time>
      </trkpt>
      <trkpt lat="42.242018" lon="2.396838">
        <ele>569.4</ele>
        <time>2019-08-18T23:47:04Z</time>
      </trkpt>
      <trkpt lat="42.242013" lon="2.396779">
        <ele>569.8</ele>
        <time>2019-08-18T23:47:06Z</time>
      </trkpt>
      <trkpt lat="42.242008" lon="2.396722">
        <ele>570.2</ele>
        <time>2019-08-18T23:47:08Z</time>
      </trkpt>
      <trkpt lat="42.242006" lon="2.396662">
        <ele>570.7</ele>
        <time>2019-08-18T23:47:10Z</time>
      </trkpt>
      <trkpt lat="42.242004" lon="2.396602">
        <ele>571.1</ele>
        <time>2019-08-18T23:47:12Z</time>
      </trkpt>
      <trkpt lat="42.242" lon="2.396546">
        <ele>571.5</ele>
        <time>2019-08-18T23:47:14Z</time>
      </trkpt>
      <trkpt lat="42.241994" lon="2.396486">
        <ele>571.8</ele>
        <time>2019-08-18T23:47:16Z</time>
      </trkpt>
      <trkpt lat="42.241987" lon="2.39643">
        <ele>572.1</ele>
        <time>2019-08-18T23:47:18Z</time>
      </trkpt>
      <trkpt lat="42.241982" lon="2.396376">
        <ele>572.3</ele>
        <time>2019-08-18T23:47:20Z</time>
      </trkpt>
      <trkpt lat="42.24198" lon="2.396318">
        <ele>572.6</ele>
        <time>2019-08-18T23:47:22Z</time>
      </trkpt>
      <trkpt lat="42.241981" lon="2.396256">
        <ele>572.9</ele>
        <time>2019-08-18T23:47:24Z</time>
      </trkpt>
      <trkpt lat="42.241971" lon="2.396187">
        <ele>573.2</ele>
        <time>2019-08-18T23:47:26Z</time>
      </trkpt>
      <trkpt lat="42.241971" lon="2.396117">
        <ele>573.3</ele>
        <time>2019-08-18T23:47:28Z</time>
      </trkpt>
      <trkpt lat="42.241969" lon="2.396046">
        <ele>573.5</ele>
        <time>2019-08-18T23:47:30Z</time>
      </trkpt>
      <trkpt lat="42.241968" lon="2.396009">
        <ele>573.6</ele>
        <time>2019-08-18T23:47:31Z</time>
      </trkpt>
      <trkpt lat="42.24197" lon="2.395941">
        <ele>573.7</ele>
        <time>2019-08-18T23:47:33Z</time>
      </trkpt>
      <trkpt lat="42.241972" lon="2.395869">
        <ele>573.9</ele>
        <time>2019-08-18T23:47:35Z</time>
      </trkpt>
      <trkpt lat="42.241971" lon="2.395831">
        <ele>574</ele>
        <time>2019-08-18T23:47:36Z</time>
      </trkpt>
      <trkpt lat="42.241971" lon="2.395793">
        <ele>574</ele>
        <time>2019-08-18T23:47:37Z</time>
      </trkpt>
      <trkpt lat="42.241971" lon="2.395755">
        <ele>574.1</ele>
        <time>2019-08-18T23:47:38Z</time>
      </trkpt>
      <trkpt lat="42.241976" lon="2.395683">
        <ele>574.3</ele>
        <time>2019-08-18T23:47:40Z</time>
      </trkpt>
      <trkpt lat="42.241982" lon="2.395647">
        <ele>574.4</ele>
        <time>2019-08-18T23:47:41Z</time>
      </trkpt>
      <trkpt lat="42.241989" lon="2.39561">
        <ele>574.4</ele>
        <time>2019-08-18T23:47:42Z</time>
      </trkpt>
      <trkpt lat="42.241994" lon="2.395572">
        <ele>574.5</ele>
        <time>2019-08-18T23:47:43Z</time>
      </trkpt>
      <trkpt lat="42.242002" lon="2.395535">
        <ele>574.6</ele>
        <time>2019-08-18T23:47:44Z</time>
      </trkpt>
      <trkpt lat="42.242011" lon="2.395497">
        <ele>574.7</ele>
        <time>2019-08-18T23:47:45Z</time>
      </trkpt>
      <trkpt lat="42.242016" lon="2.395459">
        <ele>574.7</ele>
        <time>2019-08-18T23:47:46Z</time>
      </trkpt>
      <trkpt lat="42.242021" lon="2.395421">
        <ele>574.8</ele>
        <time>2019-08-18T23:47:47Z</time>
      </trkpt>
      <trkpt lat="42.242032" lon="2.395352">
        <ele>575</ele>
        <time>2019-08-18T23:47:49Z</time>
      </trkpt>
      <trkpt lat="42.242042" lon="2.395281">
        <ele>575.1</ele>
        <time>2019-08-18T23:47:51Z</time>
      </trkpt>
      <trkpt lat="42.242049" lon="2.395245">
        <ele>575.2</ele>
        <time>2019-08-18T23:47:52Z</time>
      </trkpt>
      <trkpt lat="42.242055" lon="2.395208">
        <ele>575.3</ele>
        <time>2019-08-18T23:47:53Z</time>
      </trkpt>
      <trkpt lat="42.242062" lon="2.395172">
        <ele>575.3</ele>
        <time>2019-08-18T23:47:54Z</time>
      </trkpt>
      <trkpt lat="42.242071" lon="2.395135">
        <ele>575.4</ele>
        <time>2019-08-18T23:47:55Z</time>
      </trkpt>
      <trkpt lat="42.242079" lon="2.395095">
        <ele>575.5</ele>
        <time>2019-08-18T23:47:56Z</time>
      </trkpt>
      <trkpt lat="42.242087" lon="2.395057">
        <ele>575.6</ele>
        <time>2019-08-18T23:47:57Z</time>
      </trkpt>
      <trkpt lat="42.242097" lon="2.395019">
        <ele>575.7</ele>
        <time>2019-08-18T23:47:58Z</time>
      </trkpt>
      <trkpt lat="42.242109" lon="2.39498">
        <ele>575.8</ele>
        <time>2019-08-18T23:47:59Z</time>
      </trkpt>
      <trkpt lat="42.242117" lon="2.394943">
        <ele>575.8</ele>
        <time>2019-08-18T23:48:00Z</time>
      </trkpt>
      <trkpt lat="42.242126" lon="2.394908">
        <ele>575.9</ele>
        <time>2019-08-18T23:48:01Z</time>
      </trkpt>
      <trkpt lat="42.24213" lon="2.394871">
        <ele>576</ele>
        <time>2019-08-18T23:48:02Z</time>
      </trkpt>
      <trkpt lat="42.242135" lon="2.39483">
        <ele>576.1</ele>
        <time>2019-08-18T23:48:03Z</time>
      </trkpt>
      <trkpt lat="42.24214" lon="2.394791">
        <ele>576.2</ele>
        <time>2019-08-18T23:48:04Z</time>
      </trkpt>
      <trkpt lat="42.242144" lon="2.394751">
        <ele>576.3</ele>
        <time>2019-08-18T23:48:05Z</time>
      </trkpt>
      <trkpt lat="42.24215" lon="2.39471">
        <ele>576.4</ele>
        <time>2019-08-18T23:48:06Z</time>
      </trkpt>
      <trkpt lat="42.242156" lon="2.394668">
        <ele>576.4</ele>
        <time>2019-08-18T23:48:07Z</time>
      </trkpt>
      <trkpt lat="42.242162" lon="2.394623">
        <ele>576.5</ele>
        <time>2019-08-18T23:48:08Z</time>
      </trkpt>
      <trkpt lat="42.242169" lon="2.39458">
        <ele>576.6</ele>
        <time>2019-08-18T23:48:09Z</time>
      </trkpt>
      <trkpt lat="42.242175" lon="2.394537">
        <ele>576.7</ele>
        <time>2019-08-18T23:48:10Z</time>
      </trkpt>
      <trkpt lat="42.242181" lon="2.394495">
        <ele>576.8</ele>
        <time>2019-08-18T23:48:11Z</time>
      </trkpt>
      <trkpt lat="42.242184" lon="2.394452">
        <ele>576.9</ele>
        <time>2019-08-18T23:48:12Z</time>
      </trkpt>
      <trkpt lat="42.242185" lon="2.39441">
        <ele>577</ele>
        <time>2019-08-18T23:48:13Z</time>
      </trkpt>
      <trkpt lat="42.242187" lon="2.394368">
        <ele>577.1</ele>
        <time>2019-08-18T23:48:14Z</time>
      </trkpt>
      <trkpt lat="42.242189" lon="2.394327">
        <ele>577.2</ele>
        <time>2019-08-18T23:48:15Z</time>
      </trkpt>
      <trkpt lat="42.242193" lon="2.394284">
        <ele>577.3</ele>
        <time>2019-08-18T23:48:16Z</time>
      </trkpt>
      <trkpt lat="42.242198" lon="2.39424">
        <ele>577.4</ele>
        <time>2019-08-18T23:48:17Z</time>
      </trkpt>
      <trkpt lat="42.242203" lon="2.394197">
        <ele>577.5</ele>
        <time>2019-08-18T23:48:18Z</time>
      </trkpt>
      <trkpt lat="42.242208" lon="2.394155">
        <ele>577.6</ele>
        <time>2019-08-18T23:48:19Z</time>
      </trkpt>
      <trkpt lat="42.242213" lon="2.394114">
        <ele>577.7</ele>
        <time>2019-08-18T23:48:20Z</time>
      </trkpt>
      <trkpt lat="42.242218" lon="2.394073">
        <ele>577.8</ele>
        <time>2019-08-18T23:48:21Z</time>
      </trkpt>
      <trkpt lat="42.242218" lon="2.39403">
        <ele>578</ele>
        <time>2019-08-18T23:48:22Z</time>
      </trkpt>
      <trkpt lat="42.242217" lon="2.393986">
        <ele>578.1</ele>
        <time>2019-08-18T23:48:23Z</time>
      </trkpt>
      <trkpt lat="42.242218" lon="2.393944">
        <ele>578.2</ele>
        <time>2019-08-18T23:48:24Z</time>
      </trkpt>
      <trkpt lat="42.242219" lon="2.393902">
        <ele>578.3</ele>
        <time>2019-08-18T23:48:25Z</time>
      </trkpt>
      <trkpt lat="42.242218" lon="2.393861">
        <ele>578.4</ele>
        <time>2019-08-18T23:48:26Z</time>
      </trkpt>
      <trkpt lat="42.24222" lon="2.393822">
        <ele>578.5</ele>
        <time>2019-08-18T23:48:27Z</time>
      </trkpt>
      <trkpt lat="42.242219" lon="2.393783">
        <ele>578.7</ele>
        <time>2019-08-18T23:48:28Z</time>
      </trkpt>
      <trkpt lat="42.242217" lon="2.393744">
        <ele>578.8</ele>
        <time>2019-08-18T23:48:29Z</time>
      </trkpt>
      <trkpt lat="42.242214" lon="2.393705">
        <ele>578.9</ele>
        <time>2019-08-18T23:48:30Z</time>
      </trkpt>
      <trkpt lat="42.242212" lon="2.393666">
        <ele>579</ele>
        <time>2019-08-18T23:48:31Z</time>
      </trkpt>
      <trkpt lat="42.242212" lon="2.393622">
        <ele>579.1</ele>
        <time>2019-08-18T23:48:32Z</time>
      </trkpt>
      <trkpt lat="42.242209" lon="2.393577">
        <ele>579.3</ele>
        <time>2019-08-18T23:48:33Z</time>
      </trkpt>
      <trkpt lat="42.242208" lon="2.393536">
        <ele>579.4</ele>
        <time>2019-08-18T23:48:34Z</time>
      </trkpt>
      <trkpt lat="42.242205" lon="2.393495">
        <ele>579.6</ele>
        <time>2019-08-18T23:48:35Z</time>
      </trkpt>
      <trkpt lat="42.242201" lon="2.393452">
        <ele>579.7</ele>
        <time>2019-08-18T23:48:36Z</time>
      </trkpt>
      <trkpt lat="42.242196" lon="2.393409">
        <ele>579.8</ele>
        <time>2019-08-18T23:48:37Z</time>
      </trkpt>
      <trkpt lat="42.242191" lon="2.393366">
        <ele>580</ele>
        <time>2019-08-18T23:48:38Z</time>
      </trkpt>
      <trkpt lat="42.242187" lon="2.393324">
        <ele>580.1</ele>
        <time>2019-08-18T23:48:39Z</time>
      </trkpt>
      <trkpt lat="42.242184" lon="2.393282">
        <ele>580.3</ele>
        <time>2019-08-18T23:48:40Z</time>
      </trkpt>
      <trkpt lat="42.24218" lon="2.393238">
        <ele>580.4</ele>
        <time>2019-08-18T23:48:41Z</time>
      </trkpt>
      <trkpt lat="42.242177" lon="2.393196">
        <ele>580.6</ele>
        <time>2019-08-18T23:48:42Z</time>
      </trkpt>
      <trkpt lat="42.242173" lon="2.393154">
        <ele>580.7</ele>
        <time>2019-08-18T23:48:43Z</time>
      </trkpt>
      <trkpt lat="42.24217" lon="2.393112">
        <ele>580.9</ele>
        <time>2019-08-18T23:48:44Z</time>
      </trkpt>
      <trkpt lat="42.242164" lon="2.393071">
        <ele>581.2</ele>
        <time>2019-08-18T23:48:45Z</time>
      </trkpt>
      <trkpt lat="42.242155" lon="2.39303">
        <ele>581.5</ele>
        <time>2019-08-18T23:48:46Z</time>
      </trkpt>
      <trkpt lat="42.242148" lon="2.39299">
        <ele>581.7</ele>
        <time>2019-08-18T23:48:47Z</time>
      </trkpt>
      <trkpt lat="42.242145" lon="2.392946">
        <ele>582</ele>
        <time>2019-08-18T23:48:48Z</time>
      </trkpt>
      <trkpt lat="42.24214" lon="2.392903">
        <ele>582.3</ele>
        <time>2019-08-18T23:48:49Z</time>
      </trkpt>
      <trkpt lat="42.242134" lon="2.392862">
        <ele>582.6</ele>
        <time>2019-08-18T23:48:50Z</time>
      </trkpt>
      <trkpt lat="42.242129" lon="2.392821">
        <ele>582.9</ele>
        <time>2019-08-18T23:48:51Z</time>
      </trkpt>
      <trkpt lat="42.242124" lon="2.392781">
        <ele>583.2</ele>
        <time>2019-08-18T23:48:52Z</time>
      </trkpt>
      <trkpt lat="42.242118" lon="2.39274">
        <ele>583.5</ele>
        <time>2019-08-18T23:48:53Z</time>
      </trkpt>
      <trkpt lat="42.242112" lon="2.392701">
        <ele>583.7</ele>
        <time>2019-08-18T23:48:54Z</time>
      </trkpt>
      <trkpt lat="42.242104" lon="2.392662">
        <ele>584</ele>
        <time>2019-08-18T23:48:55Z</time>
      </trkpt>
      <trkpt lat="42.242097" lon="2.392622">
        <ele>584.4</ele>
        <time>2019-08-18T23:48:56Z</time>
      </trkpt>
      <trkpt lat="42.242086" lon="2.392582">
        <ele>584.8</ele>
        <time>2019-08-18T23:48:57Z</time>
      </trkpt>
      <trkpt lat="42.242075" lon="2.392543">
        <ele>585.1</ele>
        <time>2019-08-18T23:48:58Z</time>
      </trkpt>
      <trkpt lat="42.242064" lon="2.392503">
        <ele>585.5</ele>
        <time>2019-08-18T23:48:59Z</time>
      </trkpt>
      <trkpt lat="42.242054" lon="2.392464">
        <ele>585.8</ele>
        <time>2019-08-18T23:49:00Z</time>
      </trkpt>
      <trkpt lat="42.242046" lon="2.392423">
        <ele>586.2</ele>
        <time>2019-08-18T23:49:01Z</time>
      </trkpt>
      <trkpt lat="42.242039" lon="2.392382">
        <ele>586.6</ele>
        <time>2019-08-18T23:49:02Z</time>
      </trkpt>
      <trkpt lat="42.242033" lon="2.392336">
        <ele>587.1</ele>
        <time>2019-08-18T23:49:03Z</time>
      </trkpt>
      <trkpt lat="42.242026" lon="2.392288">
        <ele>587.5</ele>
        <time>2019-08-18T23:49:04Z</time>
      </trkpt>
      <trkpt lat="42.242016" lon="2.392242">
        <ele>588</ele>
        <time>2019-08-18T23:49:05Z</time>
      </trkpt>
      <trkpt lat="42.242006" lon="2.392196">
        <ele>588.4</ele>
        <time>2019-08-18T23:49:06Z</time>
      </trkpt>
      <trkpt lat="42.241991" lon="2.392141">
        <ele>589</ele>
        <time>2019-08-18T23:49:08Z</time>
      </trkpt>
      <trkpt lat="42.241981" lon="2.392091">
        <ele>589.5</ele>
        <time>2019-08-18T23:49:10Z</time>
      </trkpt>
      <trkpt lat="42.241975" lon="2.392025">
        <ele>590.2</ele>
        <time>2019-08-18T23:49:12Z</time>
      </trkpt>
      <trkpt lat="42.241972" lon="2.391985">
        <ele>590.6</ele>
        <time>2019-08-18T23:49:13Z</time>
      </trkpt>
      <trkpt lat="42.241969" lon="2.391939">
        <ele>591</ele>
        <time>2019-08-18T23:49:14Z</time>
      </trkpt>
      <trkpt lat="42.241966" lon="2.391896">
        <ele>591.4</ele>
        <time>2019-08-18T23:49:15Z</time>
      </trkpt>
      <trkpt lat="42.241962" lon="2.391854">
        <ele>591.7</ele>
        <time>2019-08-18T23:49:16Z</time>
      </trkpt>
      <trkpt lat="42.241962" lon="2.391809">
        <ele>592.1</ele>
        <time>2019-08-18T23:49:17Z</time>
      </trkpt>
      <trkpt lat="42.241962" lon="2.391766">
        <ele>592.5</ele>
        <time>2019-08-18T23:49:18Z</time>
      </trkpt>
      <trkpt lat="42.241963" lon="2.391725">
        <ele>592.9</ele>
        <time>2019-08-18T23:49:19Z</time>
      </trkpt>
      <trkpt lat="42.241963" lon="2.391685">
        <ele>593.2</ele>
        <time>2019-08-18T23:49:20Z</time>
      </trkpt>
      <trkpt lat="42.241963" lon="2.391647">
        <ele>593.5</ele>
        <time>2019-08-18T23:49:21Z</time>
      </trkpt>
      <trkpt lat="42.241963" lon="2.391575">
        <ele>594.1</ele>
        <time>2019-08-18T23:49:23Z</time>
      </trkpt>
      <trkpt lat="42.241963" lon="2.391538">
        <ele>594.4</ele>
        <time>2019-08-18T23:49:24Z</time>
      </trkpt>
      <trkpt lat="42.241965" lon="2.391467">
        <ele>594.9</ele>
        <time>2019-08-18T23:49:26Z</time>
      </trkpt>
      <trkpt lat="42.24197" lon="2.391402">
        <ele>595.4</ele>
        <time>2019-08-18T23:49:28Z</time>
      </trkpt>
      <trkpt lat="42.241975" lon="2.391331">
        <ele>595.9</ele>
        <time>2019-08-18T23:49:30Z</time>
      </trkpt>
      <trkpt lat="42.241987" lon="2.39127">
        <ele>596.4</ele>
        <time>2019-08-18T23:49:32Z</time>
      </trkpt>
      <trkpt lat="42.241996" lon="2.391203">
        <ele>596.8</ele>
        <time>2019-08-18T23:49:34Z</time>
      </trkpt>
      <trkpt lat="42.242007" lon="2.391137">
        <ele>597.3</ele>
        <time>2019-08-18T23:49:36Z</time>
      </trkpt>
      <trkpt lat="42.24202" lon="2.391077">
        <ele>597.7</ele>
        <time>2019-08-18T23:49:38Z</time>
      </trkpt>
      <trkpt lat="42.242026" lon="2.391011">
        <ele>598.2</ele>
        <time>2019-08-18T23:49:40Z</time>
      </trkpt>
      <trkpt lat="42.242035" lon="2.390948">
        <ele>598.6</ele>
        <time>2019-08-18T23:49:42Z</time>
      </trkpt>
      <trkpt lat="42.242045" lon="2.390882">
        <ele>599</ele>
        <time>2019-08-18T23:49:44Z</time>
      </trkpt>
      <trkpt lat="42.242058" lon="2.390822">
        <ele>599.5</ele>
        <time>2019-08-18T23:49:46Z</time>
      </trkpt>
      <trkpt lat="42.242077" lon="2.390758">
        <ele>599.9</ele>
        <time>2019-08-18T23:49:48Z</time>
      </trkpt>
      <trkpt lat="42.242094" lon="2.390703">
        <ele>600.3</ele>
        <time>2019-08-18T23:49:50Z</time>
      </trkpt>
      <trkpt lat="42.24211" lon="2.390647">
        <ele>600.7</ele>
        <time>2019-08-18T23:49:52Z</time>
      </trkpt>
      <trkpt lat="42.242126" lon="2.390594">
        <ele>601.1</ele>
        <time>2019-08-18T23:49:54Z</time>
      </trkpt>
      <trkpt lat="42.242137" lon="2.390539">
        <ele>601.6</ele>
        <time>2019-08-18T23:49:56Z</time>
      </trkpt>
      <trkpt lat="42.242152" lon="2.390485">
        <ele>602</ele>
        <time>2019-08-18T23:49:58Z</time>
      </trkpt>
      <trkpt lat="42.242169" lon="2.390425">
        <ele>602.5</ele>
        <time>2019-08-18T23:50:00Z</time>
      </trkpt>
      <trkpt lat="42.242183" lon="2.390366">
        <ele>603</ele>
        <time>2019-08-18T23:50:02Z</time>
      </trkpt>
      <trkpt lat="42.242198" lon="2.390303">
        <ele>603.5</ele>
        <time>2019-08-18T23:50:04Z</time>
      </trkpt>
      <trkpt lat="42.242216" lon="2.390247">
        <ele>604</ele>
        <time>2019-08-18T23:50:06Z</time>
      </trkpt>
      <trkpt lat="42.242234" lon="2.390195">
        <ele>604.4</ele>
        <time>2019-08-18T23:50:08Z</time>
      </trkpt>
      <trkpt lat="42.24225" lon="2.390131">
        <ele>605</ele>
        <time>2019-08-18T23:50:10Z</time>
      </trkpt>
      <trkpt lat="42.24226" lon="2.390067">
        <ele>605.5</ele>
        <time>2019-08-18T23:50:12Z</time>
      </trkpt>
      <trkpt lat="42.242276" lon="2.390005">
        <ele>606</ele>
        <time>2019-08-18T23:50:14Z</time>
      </trkpt>
      <trkpt lat="42.242294" lon="2.389945">
        <ele>606.5</ele>
        <time>2019-08-18T23:50:16Z</time>
      </trkpt>
      <trkpt lat="42.24231" lon="2.389887">
        <ele>607</ele>
        <time>2019-08-18T23:50:18Z</time>
      </trkpt>
      <trkpt lat="42.242323" lon="2.389834">
        <ele>607.5</ele>
        <time>2019-08-18T23:50:20Z</time>
      </trkpt>
      <trkpt lat="42.242341" lon="2.389785">
        <ele>607.9</ele>
        <time>2019-08-18T23:50:22Z</time>
      </trkpt>
      <trkpt lat="42.242357" lon="2.38974">
        <ele>608.3</ele>
        <time>2019-08-18T23:50:24Z</time>
      </trkpt>
      <trkpt lat="42.242374" lon="2.389693">
        <ele>608.7</ele>
        <time>2019-08-18T23:50:26Z</time>
      </trkpt>
      <trkpt lat="42.242391" lon="2.38964">
        <ele>609.1</ele>
        <time>2019-08-18T23:50:28Z</time>
      </trkpt>
      <trkpt lat="42.242404" lon="2.389587">
        <ele>609.5</ele>
        <time>2019-08-18T23:50:30Z</time>
      </trkpt>
      <trkpt lat="42.24242" lon="2.389533">
        <ele>609.9</ele>
        <time>2019-08-18T23:50:32Z</time>
      </trkpt>
      <trkpt lat="42.242434" lon="2.389486">
        <ele>610.3</ele>
        <time>2019-08-18T23:50:34Z</time>
      </trkpt>
      <trkpt lat="42.242445" lon="2.389432">
        <ele>610.6</ele>
        <time>2019-08-18T23:50:36Z</time>
      </trkpt>
      <trkpt lat="42.242455" lon="2.389376">
        <ele>611</ele>
        <time>2019-08-18T23:50:38Z</time>
      </trkpt>
      <trkpt lat="42.242466" lon="2.389315">
        <ele>611.5</ele>
        <time>2019-08-18T23:50:40Z</time>
      </trkpt>
      <trkpt lat="42.24248" lon="2.389257">
        <ele>611.9</ele>
        <time>2019-08-18T23:50:42Z</time>
      </trkpt>
      <trkpt lat="42.242494" lon="2.389201">
        <ele>612.3</ele>
        <time>2019-08-18T23:50:44Z</time>
      </trkpt>
      <trkpt lat="42.242508" lon="2.389147">
        <ele>612.6</ele>
        <time>2019-08-18T23:50:46Z</time>
      </trkpt>
      <trkpt lat="42.242518" lon="2.389097">
        <ele>613</ele>
        <time>2019-08-18T23:50:48Z</time>
      </trkpt>
      <trkpt lat="42.242524" lon="2.38904">
        <ele>613.4</ele>
        <time>2019-08-18T23:50:50Z</time>
      </trkpt>
      <trkpt lat="42.242531" lon="2.388982">
        <ele>613.7</ele>
        <time>2019-08-18T23:50:52Z</time>
      </trkpt>
      <trkpt lat="42.24254" lon="2.388923">
        <ele>614.1</ele>
        <time>2019-08-18T23:50:54Z</time>
      </trkpt>
      <trkpt lat="42.242547" lon="2.388866">
        <ele>614.5</ele>
        <time>2019-08-18T23:50:56Z</time>
      </trkpt>
      <trkpt lat="42.242553" lon="2.388804">
        <ele>614.9</ele>
        <time>2019-08-18T23:50:58Z</time>
      </trkpt>
      <trkpt lat="42.242555" lon="2.388747">
        <ele>615.3</ele>
        <time>2019-08-18T23:51:00Z</time>
      </trkpt>
      <trkpt lat="42.242558" lon="2.388694">
        <ele>615.7</ele>
        <time>2019-08-18T23:51:02Z</time>
      </trkpt>
      <trkpt lat="42.24256" lon="2.388636">
        <ele>616</ele>
        <time>2019-08-18T23:51:04Z</time>
      </trkpt>
      <trkpt lat="42.24256" lon="2.388582">
        <ele>616.4</ele>
        <time>2019-08-18T23:51:06Z</time>
      </trkpt>
      <trkpt lat="42.242564" lon="2.388529">
        <ele>616.7</ele>
        <time>2019-08-18T23:51:08Z</time>
      </trkpt>
      <trkpt lat="42.24257" lon="2.388476">
        <ele>617</ele>
        <time>2019-08-18T23:51:10Z</time>
      </trkpt>
      <trkpt lat="42.242576" lon="2.388421">
        <ele>617.4</ele>
        <time>2019-08-18T23:51:12Z</time>
      </trkpt>
      <trkpt lat="42.24258" lon="2.388367">
        <ele>617.7</ele>
        <time>2019-08-18T23:51:14Z</time>
      </trkpt>
      <trkpt lat="42.242584" lon="2.388318">
        <ele>618</ele>
        <time>2019-08-18T23:51:16Z</time>
      </trkpt>
      <trkpt lat="42.242584" lon="2.388267">
        <ele>618.3</ele>
        <time>2019-08-18T23:51:18Z</time>
      </trkpt>
      <trkpt lat="42.242586" lon="2.388217">
        <ele>618.6</ele>
        <time>2019-08-18T23:51:20Z</time>
      </trkpt>
      <trkpt lat="42.242589" lon="2.38816">
        <ele>619.8</ele>
        <time>2019-08-18T23:51:22Z</time>
      </trkpt>
      <trkpt lat="42.242595" lon="2.388103">
        <ele>620.6</ele>
        <time>2019-08-18T23:51:24Z</time>
      </trkpt>
      <trkpt lat="42.242603" lon="2.38805">
        <ele>621.3</ele>
        <time>2019-08-18T23:51:26Z</time>
      </trkpt>
      <trkpt lat="42.242598" lon="2.387992">
        <ele>622.1</ele>
        <time>2019-08-18T23:51:28Z</time>
      </trkpt>
      <trkpt lat="42.242586" lon="2.387933">
        <ele>623</ele>
        <time>2019-08-18T23:51:30Z</time>
      </trkpt>
      <trkpt lat="42.242577" lon="2.387872">
        <ele>623.8</ele>
        <time>2019-08-18T23:51:32Z</time>
      </trkpt>
      <trkpt lat="42.242573" lon="2.387818">
        <ele>624.6</ele>
        <time>2019-08-18T23:51:34Z</time>
      </trkpt>
      <trkpt lat="42.24257" lon="2.387757">
        <ele>625.4</ele>
        <time>2019-08-18T23:51:36Z</time>
      </trkpt>
      <trkpt lat="42.242561" lon="2.387699">
        <ele>626.2</ele>
        <time>2019-08-18T23:51:38Z</time>
      </trkpt>
      <trkpt lat="42.242554" lon="2.387638">
        <ele>626.8</ele>
        <time>2019-08-18T23:51:40Z</time>
      </trkpt>
      <trkpt lat="42.242551" lon="2.387575">
        <ele>626.5</ele>
        <time>2019-08-18T23:51:42Z</time>
      </trkpt>
      <trkpt lat="42.242536" lon="2.386603">
        <ele>621.7</ele>
        <time>2019-08-18T23:52:15Z</time>
      </trkpt>
      <trkpt lat="42.24255" lon="2.386565">
        <ele>621.4</ele>
        <time>2019-08-18T23:52:16Z</time>
      </trkpt>
      <trkpt lat="42.242568" lon="2.386504">
        <ele>620.9</ele>
        <time>2019-08-18T23:52:18Z</time>
      </trkpt>
      <trkpt lat="42.242579" lon="2.386444">
        <ele>621</ele>
        <time>2019-08-18T23:52:20Z</time>
      </trkpt>
      <trkpt lat="42.242594" lon="2.386391">
        <ele>621.1</ele>
        <time>2019-08-18T23:52:22Z</time>
      </trkpt>
      <trkpt lat="42.242608" lon="2.38634">
        <ele>621.3</ele>
        <time>2019-08-18T23:52:24Z</time>
      </trkpt>
      <trkpt lat="42.242625" lon="2.386291">
        <ele>621.7</ele>
        <time>2019-08-18T23:52:26Z</time>
      </trkpt>
      <trkpt lat="42.242643" lon="2.386245">
        <ele>622</ele>
        <time>2019-08-18T23:52:28Z</time>
      </trkpt>
      <trkpt lat="42.242663" lon="2.386204">
        <ele>622.3</ele>
        <time>2019-08-18T23:52:30Z</time>
      </trkpt>
      <trkpt lat="42.242672" lon="2.386161">
        <ele>622.6</ele>
        <time>2019-08-18T23:52:32Z</time>
      </trkpt>
      <trkpt lat="42.242674" lon="2.38611">
        <ele>622.9</ele>
        <time>2019-08-18T23:52:34Z</time>
      </trkpt>
      <trkpt lat="42.242687" lon="2.386057">
        <ele>623.3</ele>
        <time>2019-08-18T23:52:36Z</time>
      </trkpt>
      <trkpt lat="42.242714" lon="2.386016">
        <ele>623.6</ele>
        <time>2019-08-18T23:52:38Z</time>
      </trkpt>
      <trkpt lat="42.242744" lon="2.385979">
        <ele>624</ele>
        <time>2019-08-18T23:52:40Z</time>
      </trkpt>
      <trkpt lat="42.242768" lon="2.385933">
        <ele>624.3</ele>
        <time>2019-08-18T23:52:42Z</time>
      </trkpt>
      <trkpt lat="42.242788" lon="2.385889">
        <ele>624.7</ele>
        <time>2019-08-18T23:52:44Z</time>
      </trkpt>
      <trkpt lat="42.242812" lon="2.385836">
        <ele>625</ele>
        <time>2019-08-18T23:52:46Z</time>
      </trkpt>
      <trkpt lat="42.24283" lon="2.385789">
        <ele>625.4</ele>
        <time>2019-08-18T23:52:48Z</time>
      </trkpt>
      <trkpt lat="42.242842" lon="2.385735">
        <ele>625.7</ele>
        <time>2019-08-18T23:52:50Z</time>
      </trkpt>
      <trkpt lat="42.242863" lon="2.385679">
        <ele>626.1</ele>
        <time>2019-08-18T23:52:52Z</time>
      </trkpt>
      <trkpt lat="42.242888" lon="2.385626">
        <ele>626.5</ele>
        <time>2019-08-18T23:52:54Z</time>
      </trkpt>
      <trkpt lat="42.242908" lon="2.385576">
        <ele>626.8</ele>
        <time>2019-08-18T23:52:56Z</time>
      </trkpt>
      <trkpt lat="42.242927" lon="2.385522">
        <ele>627.1</ele>
        <time>2019-08-18T23:52:58Z</time>
      </trkpt>
      <trkpt lat="42.242947" lon="2.385475">
        <ele>627.5</ele>
        <time>2019-08-18T23:53:00Z</time>
      </trkpt>
      <trkpt lat="42.242964" lon="2.385424">
        <ele>627.8</ele>
        <time>2019-08-18T23:53:02Z</time>
      </trkpt>
      <trkpt lat="42.242986" lon="2.385375">
        <ele>628.1</ele>
        <time>2019-08-18T23:53:04Z</time>
      </trkpt>
      <trkpt lat="42.243012" lon="2.385326">
        <ele>628.4</ele>
        <time>2019-08-18T23:53:06Z</time>
      </trkpt>
      <trkpt lat="42.243037" lon="2.38528">
        <ele>628.8</ele>
        <time>2019-08-18T23:53:08Z</time>
      </trkpt>
      <trkpt lat="42.243062" lon="2.385232">
        <ele>629.1</ele>
        <time>2019-08-18T23:53:10Z</time>
      </trkpt>
      <trkpt lat="42.243084" lon="2.385181">
        <ele>629.4</ele>
        <time>2019-08-18T23:53:12Z</time>
      </trkpt>
      <trkpt lat="42.243104" lon="2.385129">
        <ele>629.8</ele>
        <time>2019-08-18T23:53:14Z</time>
      </trkpt>
      <trkpt lat="42.24312" lon="2.385078">
        <ele>630.1</ele>
        <time>2019-08-18T23:53:16Z</time>
      </trkpt>
      <trkpt lat="42.243131" lon="2.385022">
        <ele>630.4</ele>
        <time>2019-08-18T23:53:18Z</time>
      </trkpt>
      <trkpt lat="42.243149" lon="2.384975">
        <ele>630.7</ele>
        <time>2019-08-18T23:53:20Z</time>
      </trkpt>
      <trkpt lat="42.243174" lon="2.384933">
        <ele>631</ele>
        <time>2019-08-18T23:53:22Z</time>
      </trkpt>
      <trkpt lat="42.243192" lon="2.384884">
        <ele>631.3</ele>
        <time>2019-08-18T23:53:24Z</time>
      </trkpt>
      <trkpt lat="42.243215" lon="2.384832">
        <ele>631.7</ele>
        <time>2019-08-18T23:53:26Z</time>
      </trkpt>
      <trkpt lat="42.243237" lon="2.384786">
        <ele>632</ele>
        <time>2019-08-18T23:53:28Z</time>
      </trkpt>
      <trkpt lat="42.243255" lon="2.384739">
        <ele>632.3</ele>
        <time>2019-08-18T23:53:30Z</time>
      </trkpt>
      <trkpt lat="42.243273" lon="2.384693">
        <ele>632.5</ele>
        <time>2019-08-18T23:53:32Z</time>
      </trkpt>
      <trkpt lat="42.243287" lon="2.384646">
        <ele>632.8</ele>
        <time>2019-08-18T23:53:34Z</time>
      </trkpt>
      <trkpt lat="42.243299" lon="2.384591">
        <ele>633.1</ele>
        <time>2019-08-18T23:53:36Z</time>
      </trkpt>
      <trkpt lat="42.243313" lon="2.384538">
        <ele>633.4</ele>
        <time>2019-08-18T23:53:38Z</time>
      </trkpt>
      <trkpt lat="42.243325" lon="2.384486">
        <ele>633.7</ele>
        <time>2019-08-18T23:53:40Z</time>
      </trkpt>
      <trkpt lat="42.243334" lon="2.384431">
        <ele>633.9</ele>
        <time>2019-08-18T23:53:42Z</time>
      </trkpt>
      <trkpt lat="42.243339" lon="2.384372">
        <ele>634.2</ele>
        <time>2019-08-18T23:53:44Z</time>
      </trkpt>
      <trkpt lat="42.243347" lon="2.384317">
        <ele>634.5</ele>
        <time>2019-08-18T23:53:46Z</time>
      </trkpt>
      <trkpt lat="42.243356" lon="2.384263">
        <ele>635.3</ele>
        <time>2019-08-18T23:53:48Z</time>
      </trkpt>
      <trkpt lat="42.243361" lon="2.38421">
        <ele>636</ele>
        <time>2019-08-18T23:53:50Z</time>
      </trkpt>
      <trkpt lat="42.243365" lon="2.38416">
        <ele>637.2</ele>
        <time>2019-08-18T23:53:52Z</time>
      </trkpt>
      <trkpt lat="42.243373" lon="2.384111">
        <ele>638.2</ele>
        <time>2019-08-18T23:53:54Z</time>
      </trkpt>
      <trkpt lat="42.243382" lon="2.384061">
        <ele>639.2</ele>
        <time>2019-08-18T23:53:56Z</time>
      </trkpt>
      <trkpt lat="42.243389" lon="2.384009">
        <ele>640.3</ele>
        <time>2019-08-18T23:53:58Z</time>
      </trkpt>
      <trkpt lat="42.243397" lon="2.383957">
        <ele>641.3</ele>
        <time>2019-08-18T23:54:00Z</time>
      </trkpt>
      <trkpt lat="42.243402" lon="2.383905">
        <ele>642.4</ele>
        <time>2019-08-18T23:54:02Z</time>
      </trkpt>
      <trkpt lat="42.243404" lon="2.383855">
        <ele>643.4</ele>
        <time>2019-08-18T23:54:04Z</time>
      </trkpt>
      <trkpt lat="42.243406" lon="2.383805">
        <ele>644.3</ele>
        <time>2019-08-18T23:54:06Z</time>
      </trkpt>
      <trkpt lat="42.243407" lon="2.383748">
        <ele>645.5</ele>
        <time>2019-08-18T23:54:08Z</time>
      </trkpt>
      <trkpt lat="42.243406" lon="2.383692">
        <ele>646.8</ele>
        <time>2019-08-18T23:54:10Z</time>
      </trkpt>
      <trkpt lat="42.243404" lon="2.383637">
        <ele>648.3</ele>
        <time>2019-08-18T23:54:12Z</time>
      </trkpt>
      <trkpt lat="42.243406" lon="2.38358">
        <ele>649.8</ele>
        <time>2019-08-18T23:54:14Z</time>
      </trkpt>
      <trkpt lat="42.243403" lon="2.383526">
        <ele>651.2</ele>
        <time>2019-08-18T23:54:16Z</time>
      </trkpt>
      <trkpt lat="42.243379" lon="2.383459">
        <ele>653.2</ele>
        <time>2019-08-18T23:54:18Z</time>
      </trkpt>
      <trkpt lat="42.243366" lon="2.383404">
        <ele>654.8</ele>
        <time>2019-08-18T23:54:20Z</time>
      </trkpt>
      <trkpt lat="42.243367" lon="2.383349">
        <ele>657.4</ele>
        <time>2019-08-18T23:54:22Z</time>
      </trkpt>
      <trkpt lat="42.243358" lon="2.383283">
        <ele>657.6</ele>
        <time>2019-08-18T23:54:24Z</time>
      </trkpt>
      <trkpt lat="42.243349" lon="2.383246">
        <ele>657.7</ele>
        <time>2019-08-18T23:54:27Z</time>
      </trkpt>
      <trkpt lat="42.243322" lon="2.383179">
        <ele>657.9</ele>
        <time>2019-08-18T23:54:29Z</time>
      </trkpt>
      <trkpt lat="42.243305" lon="2.383135">
        <ele>658</ele>
        <time>2019-08-18T23:54:31Z</time>
      </trkpt>
      <trkpt lat="42.243293" lon="2.3831">
        <ele>658.1</ele>
        <time>2019-08-18T23:54:33Z</time>
      </trkpt>
      <trkpt lat="42.242494" lon="2.380038">
        <ele>666.9</ele>
        <time>2019-08-18T23:56:22Z</time>
      </trkpt>
      <trkpt lat="42.242377" lon="2.379873">
        <ele>667.5</ele>
        <time>2019-08-18T23:56:24Z</time>
      </trkpt>
      <trkpt lat="42.242408" lon="2.379868">
        <ele>667.6</ele>
        <time>2019-08-18T23:56:26Z</time>
      </trkpt>
      <trkpt lat="42.242375" lon="2.379837">
        <ele>667.7</ele>
        <time>2019-08-18T23:56:29Z</time>
      </trkpt>
      <trkpt lat="42.24235" lon="2.379797">
        <ele>667.8</ele>
        <time>2019-08-18T23:56:30Z</time>
      </trkpt>
      <trkpt lat="42.242324" lon="2.379754">
        <ele>667.9</ele>
        <time>2019-08-18T23:56:31Z</time>
      </trkpt>
      <trkpt lat="42.242301" lon="2.379717">
        <ele>668</ele>
        <time>2019-08-18T23:56:32Z</time>
      </trkpt>
      <trkpt lat="42.242275" lon="2.379682">
        <ele>668.1</ele>
        <time>2019-08-18T23:56:33Z</time>
      </trkpt>
      <trkpt lat="42.242249" lon="2.379648">
        <ele>668.2</ele>
        <time>2019-08-18T23:56:34Z</time>
      </trkpt>
      <trkpt lat="42.242224" lon="2.379615">
        <ele>668.3</ele>
        <time>2019-08-18T23:56:35Z</time>
      </trkpt>
      <trkpt lat="42.2422" lon="2.379583">
        <ele>668.4</ele>
        <time>2019-08-18T23:56:36Z</time>
      </trkpt>
      <trkpt lat="42.242177" lon="2.379552">
        <ele>668.5</ele>
        <time>2019-08-18T23:56:37Z</time>
      </trkpt>
      <trkpt lat="42.242158" lon="2.379522">
        <ele>668.6</ele>
        <time>2019-08-18T23:56:38Z</time>
      </trkpt>
      <trkpt lat="42.24214" lon="2.37949">
        <ele>668.6</ele>
        <time>2019-08-18T23:56:39Z</time>
      </trkpt>
      <trkpt lat="42.242123" lon="2.379456">
        <ele>668.7</ele>
        <time>2019-08-18T23:56:40Z</time>
      </trkpt>
      <trkpt lat="42.242106" lon="2.379425">
        <ele>668.8</ele>
        <time>2019-08-18T23:56:41Z</time>
      </trkpt>
      <trkpt lat="42.242089" lon="2.379393">
        <ele>668.9</ele>
        <time>2019-08-18T23:56:42Z</time>
      </trkpt>
      <trkpt lat="42.242074" lon="2.379363">
        <ele>669</ele>
        <time>2019-08-18T23:56:43Z</time>
      </trkpt>
      <trkpt lat="42.242045" lon="2.37931">
        <ele>669.1</ele>
        <time>2019-08-18T23:56:45Z</time>
      </trkpt>
      <trkpt lat="42.242017" lon="2.379253">
        <ele>669.3</ele>
        <time>2019-08-18T23:56:47Z</time>
      </trkpt>
      <trkpt lat="42.24199" lon="2.379194">
        <ele>669.4</ele>
        <time>2019-08-18T23:56:49Z</time>
      </trkpt>
      <trkpt lat="42.241965" lon="2.379139">
        <ele>669.6</ele>
        <time>2019-08-18T23:56:51Z</time>
      </trkpt>
      <trkpt lat="42.241942" lon="2.379089">
        <ele>669.8</ele>
        <time>2019-08-18T23:56:53Z</time>
      </trkpt>
      <trkpt lat="42.241917" lon="2.379042">
        <ele>669.9</ele>
        <time>2019-08-18T23:56:55Z</time>
      </trkpt>
      <trkpt lat="42.241895" lon="2.37899">
        <ele>670.1</ele>
        <time>2019-08-18T23:56:57Z</time>
      </trkpt>
      <trkpt lat="42.241872" lon="2.378933">
        <ele>670.3</ele>
        <time>2019-08-18T23:56:59Z</time>
      </trkpt>
      <trkpt lat="42.241852" lon="2.378885">
        <ele>670.4</ele>
        <time>2019-08-18T23:57:01Z</time>
      </trkpt>
      <trkpt lat="42.241831" lon="2.378836">
        <ele>670.6</ele>
        <time>2019-08-18T23:57:03Z</time>
      </trkpt>
      <trkpt lat="42.24181" lon="2.378782">
        <ele>670.8</ele>
        <time>2019-08-18T23:57:05Z</time>
      </trkpt>
      <trkpt lat="42.241785" lon="2.378729">
        <ele>671</ele>
        <time>2019-08-18T23:57:07Z</time>
      </trkpt>
      <trkpt lat="42.241761" lon="2.378679">
        <ele>671.1</ele>
        <time>2019-08-18T23:57:09Z</time>
      </trkpt>
      <trkpt lat="42.241737" lon="2.378629">
        <ele>671.3</ele>
        <time>2019-08-18T23:57:11Z</time>
      </trkpt>
      <trkpt lat="42.241714" lon="2.378584">
        <ele>671.4</ele>
        <time>2019-08-18T23:57:13Z</time>
      </trkpt>
      <trkpt lat="42.24169" lon="2.378531">
        <ele>671.6</ele>
        <time>2019-08-18T23:57:15Z</time>
      </trkpt>
      <trkpt lat="42.24167" lon="2.378478">
        <ele>671.8</ele>
        <time>2019-08-18T23:57:17Z</time>
      </trkpt>
      <trkpt lat="42.241655" lon="2.378429">
        <ele>671.9</ele>
        <time>2019-08-18T23:57:19Z</time>
      </trkpt>
      <trkpt lat="42.241635" lon="2.378367">
        <ele>672.1</ele>
        <time>2019-08-18T23:57:21Z</time>
      </trkpt>
      <trkpt lat="42.241617" lon="2.378309">
        <ele>672.2</ele>
        <time>2019-08-18T23:57:23Z</time>
      </trkpt>
      <trkpt lat="42.241594" lon="2.378254">
        <ele>672.4</ele>
        <time>2019-08-18T23:57:25Z</time>
      </trkpt>
      <trkpt lat="42.241572" lon="2.378197">
        <ele>672.6</ele>
        <time>2019-08-18T23:57:27Z</time>
      </trkpt>
      <trkpt lat="42.241555" lon="2.37814">
        <ele>672.8</ele>
        <time>2019-08-18T23:57:29Z</time>
      </trkpt>
      <trkpt lat="42.241538" lon="2.378079">
        <ele>673.1</ele>
        <time>2019-08-18T23:57:31Z</time>
      </trkpt>
      <trkpt lat="42.241524" lon="2.378022">
        <ele>673.4</ele>
        <time>2019-08-18T23:57:33Z</time>
      </trkpt>
      <trkpt lat="42.241503" lon="2.377964">
        <ele>673.8</ele>
        <time>2019-08-18T23:57:35Z</time>
      </trkpt>
      <trkpt lat="42.241484" lon="2.377902">
        <ele>674.1</ele>
        <time>2019-08-18T23:57:37Z</time>
      </trkpt>
      <trkpt lat="42.241469" lon="2.377849">
        <ele>674.4</ele>
        <time>2019-08-18T23:57:39Z</time>
      </trkpt>
      <trkpt lat="42.241449" lon="2.377796">
        <ele>674.7</ele>
        <time>2019-08-18T23:57:41Z</time>
      </trkpt>
      <trkpt lat="42.241434" lon="2.377751">
        <ele>675</ele>
        <time>2019-08-18T23:57:43Z</time>
      </trkpt>
      <trkpt lat="42.24142" lon="2.377694">
        <ele>675.3</ele>
        <time>2019-08-18T23:57:45Z</time>
      </trkpt>
      <trkpt lat="42.241407" lon="2.377641">
        <ele>675.6</ele>
        <time>2019-08-18T23:57:47Z</time>
      </trkpt>
      <trkpt lat="42.24139" lon="2.377587">
        <ele>675.9</ele>
        <time>2019-08-18T23:57:49Z</time>
      </trkpt>
      <trkpt lat="42.241375" lon="2.377534">
        <ele>676.2</ele>
        <time>2019-08-18T23:57:51Z</time>
      </trkpt>
      <trkpt lat="42.241357" lon="2.377485">
        <ele>676.5</ele>
        <time>2019-08-18T23:57:53Z</time>
      </trkpt>
      <trkpt lat="42.241338" lon="2.37743">
        <ele>676.8</ele>
        <time>2019-08-18T23:57:55Z</time>
      </trkpt>
      <trkpt lat="42.24132" lon="2.377376">
        <ele>677.1</ele>
        <time>2019-08-18T23:57:57Z</time>
      </trkpt>
      <trkpt lat="42.241304" lon="2.377319">
        <ele>677.5</ele>
        <time>2019-08-18T23:57:59Z</time>
      </trkpt>
      <trkpt lat="42.241288" lon="2.377264">
        <ele>677.2</ele>
        <time>2019-08-18T23:58:01Z</time>
      </trkpt>
      <trkpt lat="42.241271" lon="2.377212">
        <ele>677.6</ele>
        <time>2019-08-18T23:58:03Z</time>
      </trkpt>
      <trkpt lat="42.241255" lon="2.377157">
        <ele>678.1</ele>
        <time>2019-08-18T23:58:05Z</time>
      </trkpt>
      <trkpt lat="42.241239" lon="2.377103">
        <ele>678.6</ele>
        <time>2019-08-18T23:58:07Z</time>
      </trkpt>
      <trkpt lat="42.241224" lon="2.37705">
        <ele>678.8</ele>
        <time>2019-08-18T23:58:09Z</time>
      </trkpt>
      <trkpt lat="42.241206" lon="2.377">
        <ele>679.1</ele>
        <time>2019-08-18T23:58:11Z</time>
      </trkpt>
      <trkpt lat="42.241184" lon="2.376943">
        <ele>679.4</ele>
        <time>2019-08-18T23:58:13Z</time>
      </trkpt>
      <trkpt lat="42.241165" lon="2.37689">
        <ele>679.7</ele>
        <time>2019-08-18T23:58:15Z</time>
      </trkpt>
      <trkpt lat="42.241144" lon="2.37683">
        <ele>680</ele>
        <time>2019-08-18T23:58:17Z</time>
      </trkpt>
      <trkpt lat="42.241125" lon="2.376769">
        <ele>680.4</ele>
        <time>2019-08-18T23:58:19Z</time>
      </trkpt>
      <trkpt lat="42.241107" lon="2.376713">
        <ele>680.7</ele>
        <time>2019-08-18T23:58:21Z</time>
      </trkpt>
      <trkpt lat="42.241092" lon="2.376656">
        <ele>680.9</ele>
        <time>2019-08-18T23:58:23Z</time>
      </trkpt>
      <trkpt lat="42.241074" lon="2.376592">
        <ele>681.3</ele>
        <time>2019-08-18T23:58:25Z</time>
      </trkpt>
      <trkpt lat="42.241052" lon="2.376532">
        <ele>681.6</ele>
        <time>2019-08-18T23:58:27Z</time>
      </trkpt>
      <trkpt lat="42.241031" lon="2.376471">
        <ele>681.9</ele>
        <time>2019-08-18T23:58:29Z</time>
      </trkpt>
      <trkpt lat="42.241011" lon="2.376408">
        <ele>682.2</ele>
        <time>2019-08-18T23:58:31Z</time>
      </trkpt>
      <trkpt lat="42.240992" lon="2.376344">
        <ele>682.5</ele>
        <time>2019-08-18T23:58:33Z</time>
      </trkpt>
      <trkpt lat="42.240981" lon="2.37631">
        <ele>682.7</ele>
        <time>2019-08-18T23:58:34Z</time>
      </trkpt>
      <trkpt lat="42.240962" lon="2.376247">
        <ele>683</ele>
        <time>2019-08-18T23:58:36Z</time>
      </trkpt>
      <trkpt lat="42.240942" lon="2.376184">
        <ele>683.3</ele>
        <time>2019-08-18T23:58:38Z</time>
      </trkpt>
      <trkpt lat="42.240924" lon="2.376123">
        <ele>683.6</ele>
        <time>2019-08-18T23:58:40Z</time>
      </trkpt>
      <trkpt lat="42.240911" lon="2.376059">
        <ele>683.9</ele>
        <time>2019-08-18T23:58:42Z</time>
      </trkpt>
      <trkpt lat="42.240897" lon="2.376">
        <ele>684.2</ele>
        <time>2019-08-18T23:58:44Z</time>
      </trkpt>
      <trkpt lat="42.24088" lon="2.375939">
        <ele>684.5</ele>
        <time>2019-08-18T23:58:46Z</time>
      </trkpt>
      <trkpt lat="42.240866" lon="2.375891">
        <ele>684.8</ele>
        <time>2019-08-18T23:58:48Z</time>
      </trkpt>
      <trkpt lat="42.240858" lon="2.375845">
        <ele>685</ele>
        <time>2019-08-18T23:58:50Z</time>
      </trkpt>
      <trkpt lat="42.240845" lon="2.375784">
        <ele>685.3</ele>
        <time>2019-08-18T23:58:52Z</time>
      </trkpt>
      <trkpt lat="42.240833" lon="2.37575">
        <ele>685.5</ele>
        <time>2019-08-18T23:58:53Z</time>
      </trkpt>
      <trkpt lat="42.240807" lon="2.375689">
        <ele>685.8</ele>
        <time>2019-08-18T23:58:55Z</time>
      </trkpt>
      <trkpt lat="42.240782" lon="2.375628">
        <ele>686.1</ele>
        <time>2019-08-18T23:58:57Z</time>
      </trkpt>
      <trkpt lat="42.240759" lon="2.375569">
        <ele>686.4</ele>
        <time>2019-08-18T23:58:59Z</time>
      </trkpt>
      <trkpt lat="42.240744" lon="2.375532">
        <ele>686.6</ele>
        <time>2019-08-18T23:59:01Z</time>
      </trkpt>
      <trkpt lat="42.240753" lon="2.375498">
        <ele>686.5</ele>
        <time>2019-08-18T23:59:10Z</time>
      </trkpt>
      <trkpt lat="42.240774" lon="2.375471">
        <ele>686.3</ele>
        <time>2019-08-19T00:07:15Z</time>
      </trkpt>
      <trkpt lat="42.240746" lon="2.375454">
        <ele>686.1</ele>
        <time>2019-08-19T00:08:12Z</time>
      </trkpt>
      <trkpt lat="42.240744" lon="2.375492">
        <ele>686</ele>
        <time>2019-08-19T00:08:27Z</time>
      </trkpt>
      <trkpt lat="42.240772" lon="2.375451">
        <ele>685.8</ele>
        <time>2019-08-19T00:08:31Z</time>
      </trkpt>
      <trkpt lat="42.240733" lon="2.375467">
        <ele>685.5</ele>
        <time>2019-08-19T00:18:52Z</time>
      </trkpt>
      <trkpt lat="42.240702" lon="2.375498">
        <ele>685.3</ele>
        <time>2019-08-19T00:20:37Z</time>
      </trkpt>
      <trkpt lat="42.240687" lon="2.375537">
        <ele>685.2</ele>
        <time>2019-08-19T00:20:39Z</time>
      </trkpt>
      <trkpt lat="42.240681" lon="2.3756">
        <ele>684.9</ele>
        <time>2019-08-19T00:20:41Z</time>
      </trkpt>
      <trkpt lat="42.240683" lon="2.37564">
        <ele>684.7</ele>
        <time>2019-08-19T00:20:42Z</time>
      </trkpt>
      <trkpt lat="42.24069" lon="2.375679">
        <ele>684.6</ele>
        <time>2019-08-19T00:20:43Z</time>
      </trkpt>
      <trkpt lat="42.2407" lon="2.37572">
        <ele>684.4</ele>
        <time>2019-08-19T00:20:44Z</time>
      </trkpt>
      <trkpt lat="42.240712" lon="2.375767">
        <ele>684.2</ele>
        <time>2019-08-19T00:20:45Z</time>
      </trkpt>
      <trkpt lat="42.240724" lon="2.375817">
        <ele>684</ele>
        <time>2019-08-19T00:20:46Z</time>
      </trkpt>
      <trkpt lat="42.240738" lon="2.375867">
        <ele>683.8</ele>
        <time>2019-08-19T00:20:47Z</time>
      </trkpt>
      <trkpt lat="42.240765" lon="2.375929">
        <ele>683.5</ele>
        <time>2019-08-19T00:20:48Z</time>
      </trkpt>
      <trkpt lat="42.240776" lon="2.375996">
        <ele>683.2</ele>
        <time>2019-08-19T00:20:49Z</time>
      </trkpt>
      <trkpt lat="42.240792" lon="2.376058">
        <ele>682.9</ele>
        <time>2019-08-19T00:20:50Z</time>
      </trkpt>
      <trkpt lat="42.240812" lon="2.376122">
        <ele>682.6</ele>
        <time>2019-08-19T00:20:51Z</time>
      </trkpt>
      <trkpt lat="42.240832" lon="2.37619">
        <ele>682.4</ele>
        <time>2019-08-19T00:20:52Z</time>
      </trkpt>
      <trkpt lat="42.240851" lon="2.37626">
        <ele>682</ele>
        <time>2019-08-19T00:20:53Z</time>
      </trkpt>
      <trkpt lat="42.240871" lon="2.376324">
        <ele>681.8</ele>
        <time>2019-08-19T00:20:54Z</time>
      </trkpt>
      <trkpt lat="42.240892" lon="2.376386">
        <ele>681.5</ele>
        <time>2019-08-19T00:20:55Z</time>
      </trkpt>
      <trkpt lat="42.24091" lon="2.376454">
        <ele>681.2</ele>
        <time>2019-08-19T00:20:56Z</time>
      </trkpt>
      <trkpt lat="42.240933" lon="2.376526">
        <ele>680.9</ele>
        <time>2019-08-19T00:20:57Z</time>
      </trkpt>
      <trkpt lat="42.240955" lon="2.376601">
        <ele>680.5</ele>
        <time>2019-08-19T00:20:58Z</time>
      </trkpt>
      <trkpt lat="42.240979" lon="2.376676">
        <ele>680.2</ele>
        <time>2019-08-19T00:20:59Z</time>
      </trkpt>
      <trkpt lat="42.241001" lon="2.37675">
        <ele>679.9</ele>
        <time>2019-08-19T00:21:00Z</time>
      </trkpt>
      <trkpt lat="42.241026" lon="2.376823">
        <ele>679.5</ele>
        <time>2019-08-19T00:21:01Z</time>
      </trkpt>
      <trkpt lat="42.24105" lon="2.376901">
        <ele>679.2</ele>
        <time>2019-08-19T00:21:02Z</time>
      </trkpt>
      <trkpt lat="42.241071" lon="2.376973">
        <ele>678.8</ele>
        <time>2019-08-19T00:21:03Z</time>
      </trkpt>
      <trkpt lat="42.241096" lon="2.377055">
        <ele>678.4</ele>
        <time>2019-08-19T00:21:04Z</time>
      </trkpt>
      <trkpt lat="42.241118" lon="2.37714">
        <ele>678.1</ele>
        <time>2019-08-19T00:21:05Z</time>
      </trkpt>
      <trkpt lat="42.24115" lon="2.377224">
        <ele>677.6</ele>
        <time>2019-08-19T00:21:06Z</time>
      </trkpt>
      <trkpt lat="42.241177" lon="2.377311">
        <ele>677.2</ele>
        <time>2019-08-19T00:21:07Z</time>
      </trkpt>
      <trkpt lat="42.241206" lon="2.377395">
        <ele>676.8</ele>
        <time>2019-08-19T00:21:08Z</time>
      </trkpt>
      <trkpt lat="42.241232" lon="2.377487">
        <ele>676.4</ele>
        <time>2019-08-19T00:21:09Z</time>
      </trkpt>
      <trkpt lat="42.241259" lon="2.377585">
        <ele>675.9</ele>
        <time>2019-08-19T00:21:10Z</time>
      </trkpt>
      <trkpt lat="42.241295" lon="2.377687">
        <ele>675.4</ele>
        <time>2019-08-19T00:21:11Z</time>
      </trkpt>
      <trkpt lat="42.241324" lon="2.377779">
        <ele>674.9</ele>
        <time>2019-08-19T00:21:12Z</time>
      </trkpt>
      <trkpt lat="42.241356" lon="2.377883">
        <ele>674.4</ele>
        <time>2019-08-19T00:21:13Z</time>
      </trkpt>
      <trkpt lat="42.241393" lon="2.377987">
        <ele>673.9</ele>
        <time>2019-08-19T00:21:14Z</time>
      </trkpt>
      <trkpt lat="42.241424" lon="2.378095">
        <ele>673.3</ele>
        <time>2019-08-19T00:21:15Z</time>
      </trkpt>
      <trkpt lat="42.241457" lon="2.378209">
        <ele>672.7</ele>
        <time>2019-08-19T00:21:16Z</time>
      </trkpt>
      <trkpt lat="42.241497" lon="2.378316">
        <ele>672.4</ele>
        <time>2019-08-19T00:21:17Z</time>
      </trkpt>
      <trkpt lat="42.24154" lon="2.378424">
        <ele>672.1</ele>
        <time>2019-08-19T00:21:18Z</time>
      </trkpt>
      <trkpt lat="42.241586" lon="2.37854">
        <ele>671.7</ele>
        <time>2019-08-19T00:21:19Z</time>
      </trkpt>
      <trkpt lat="42.241631" lon="2.378661">
        <ele>671.3</ele>
        <time>2019-08-19T00:21:20Z</time>
      </trkpt>
      <trkpt lat="42.241678" lon="2.378785">
        <ele>670.9</ele>
        <time>2019-08-19T00:21:21Z</time>
      </trkpt>
      <trkpt lat="42.241741" lon="2.378904">
        <ele>670.5</ele>
        <time>2019-08-19T00:21:22Z</time>
      </trkpt>
      <trkpt lat="42.241792" lon="2.379019">
        <ele>670.1</ele>
        <time>2019-08-19T00:21:23Z</time>
      </trkpt>
      <trkpt lat="42.241839" lon="2.379143">
        <ele>669.7</ele>
        <time>2019-08-19T00:21:24Z</time>
      </trkpt>
      <trkpt lat="42.241915" lon="2.379252">
        <ele>669.3</ele>
        <time>2019-08-19T00:21:25Z</time>
      </trkpt>
      <trkpt lat="42.241987" lon="2.379384">
        <ele>668.9</ele>
        <time>2019-08-19T00:21:26Z</time>
      </trkpt>
      <trkpt lat="42.242042" lon="2.379518">
        <ele>668.6</ele>
        <time>2019-08-19T00:21:27Z</time>
      </trkpt>
      <trkpt lat="42.242097" lon="2.379656">
        <ele>668.3</ele>
        <time>2019-08-19T00:21:28Z</time>
      </trkpt>
      <trkpt lat="42.242154" lon="2.379797">
        <ele>668</ele>
        <time>2019-08-19T00:21:29Z</time>
      </trkpt>
      <trkpt lat="42.242218" lon="2.379928">
        <ele>667.6</ele>
        <time>2019-08-19T00:21:30Z</time>
      </trkpt>
      <trkpt lat="42.242279" lon="2.380062">
        <ele>667.3</ele>
        <time>2019-08-19T00:21:31Z</time>
      </trkpt>
      <trkpt lat="42.242339" lon="2.380174">
        <ele>666.9</ele>
        <time>2019-08-19T00:21:32Z</time>
      </trkpt>
      <trkpt lat="42.243284" lon="2.383771">
        <ele>644.4</ele>
        <time>2019-08-19T00:21:57Z</time>
      </trkpt>
      <trkpt lat="42.243311" lon="2.383934">
        <ele>641.1</ele>
        <time>2019-08-19T00:21:58Z</time>
      </trkpt>
      <trkpt lat="42.243286" lon="2.384028">
        <ele>636.8</ele>
        <time>2019-08-19T00:21:59Z</time>
      </trkpt>
      <trkpt lat="42.243237" lon="2.384101">
        <ele>636.4</ele>
        <time>2019-08-19T00:22:00Z</time>
      </trkpt>
      <trkpt lat="42.243189" lon="2.384169">
        <ele>634.8</ele>
        <time>2019-08-19T00:22:01Z</time>
      </trkpt>
      <trkpt lat="42.243158" lon="2.384248">
        <ele>633.5</ele>
        <time>2019-08-19T00:22:02Z</time>
      </trkpt>
      <trkpt lat="42.243125" lon="2.384345">
        <ele>632.1</ele>
        <time>2019-08-19T00:22:03Z</time>
      </trkpt>
      <trkpt lat="42.243106" lon="2.384457">
        <ele>630.4</ele>
        <time>2019-08-19T00:22:04Z</time>
      </trkpt>
      <trkpt lat="42.243068" lon="2.384556">
        <ele>628.9</ele>
        <time>2019-08-19T00:22:05Z</time>
      </trkpt>
      <trkpt lat="42.243032" lon="2.384671">
        <ele>627.3</ele>
        <time>2019-08-19T00:22:06Z</time>
      </trkpt>
      <trkpt lat="42.242988" lon="2.384784">
        <ele>626</ele>
        <time>2019-08-19T00:22:07Z</time>
      </trkpt>
      <trkpt lat="42.242938" lon="2.384901">
        <ele>624.7</ele>
        <time>2019-08-19T00:22:08Z</time>
      </trkpt>
      <trkpt lat="42.242882" lon="2.385017">
        <ele>623.6</ele>
        <time>2019-08-19T00:22:09Z</time>
      </trkpt>
      <trkpt lat="42.242819" lon="2.385136">
        <ele>622.7</ele>
        <time>2019-08-19T00:22:10Z</time>
      </trkpt>
      <trkpt lat="42.242754" lon="2.385247">
        <ele>621.5</ele>
        <time>2019-08-19T00:22:11Z</time>
      </trkpt>
      <trkpt lat="42.242703" lon="2.385388">
        <ele>620.4</ele>
        <time>2019-08-19T00:22:12Z</time>
      </trkpt>
      <trkpt lat="42.242654" lon="2.385502">
        <ele>619.4</ele>
        <time>2019-08-19T00:22:13Z</time>
      </trkpt>
      <trkpt lat="42.242602" lon="2.385605">
        <ele>618.7</ele>
        <time>2019-08-19T00:22:14Z</time>
      </trkpt>
      <trkpt lat="42.24256" lon="2.385702">
        <ele>618.5</ele>
        <time>2019-08-19T00:22:15Z</time>
      </trkpt>
      <trkpt lat="42.24253" lon="2.385794">
        <ele>618.3</ele>
        <time>2019-08-19T00:22:16Z</time>
      </trkpt>
      <trkpt lat="42.242502" lon="2.385897">
        <ele>618.3</ele>
        <time>2019-08-19T00:22:17Z</time>
      </trkpt>
      <trkpt lat="42.242479" lon="2.386">
        <ele>618.1</ele>
        <time>2019-08-19T00:22:18Z</time>
      </trkpt>
      <trkpt lat="42.242455" lon="2.386087">
        <ele>618</ele>
        <time>2019-08-19T00:22:19Z</time>
      </trkpt>
      <trkpt lat="42.242435" lon="2.386172">
        <ele>617.8</ele>
        <time>2019-08-19T00:22:20Z</time>
      </trkpt>
      <trkpt lat="42.242422" lon="2.386228">
        <ele>617.8</ele>
        <time>2019-08-19T00:22:21Z</time>
      </trkpt>
      <trkpt lat="42.242404" lon="2.386296">
        <ele>617.7</ele>
        <time>2019-08-19T00:22:22Z</time>
      </trkpt>
      <trkpt lat="42.242384" lon="2.386352">
        <ele>617.6</ele>
        <time>2019-08-19T00:22:23Z</time>
      </trkpt>
      <trkpt lat="42.24236" lon="2.386409">
        <ele>617.5</ele>
        <time>2019-08-19T00:22:24Z</time>
      </trkpt>
      <trkpt lat="42.242328" lon="2.386461">
        <ele>617.4</ele>
        <time>2019-08-19T00:22:25Z</time>
      </trkpt>
      <trkpt lat="42.242286" lon="2.386527">
        <ele>617</ele>
        <time>2019-08-19T00:22:26Z</time>
      </trkpt>
      <trkpt lat="42.242245" lon="2.386577">
        <ele>615.5</ele>
        <time>2019-08-19T00:22:27Z</time>
      </trkpt>
      <trkpt lat="42.24219" lon="2.386631">
        <ele>614.4</ele>
        <time>2019-08-19T00:22:28Z</time>
      </trkpt>
      <trkpt lat="42.24214" lon="2.386676">
        <ele>613.7</ele>
        <time>2019-08-19T00:22:29Z</time>
      </trkpt>
      <trkpt lat="42.242092" lon="2.386722">
        <ele>613</ele>
        <time>2019-08-19T00:22:30Z</time>
      </trkpt>
      <trkpt lat="42.242043" lon="2.386755">
        <ele>612.4</ele>
        <time>2019-08-19T00:22:31Z</time>
      </trkpt>
      <trkpt lat="42.242005" lon="2.386806">
        <ele>612</ele>
        <time>2019-08-19T00:22:32Z</time>
      </trkpt>
      <trkpt lat="42.24197" lon="2.386877">
        <ele>611.3</ele>
        <time>2019-08-19T00:22:33Z</time>
      </trkpt>
      <trkpt lat="42.241935" lon="2.386953">
        <ele>610.5</ele>
        <time>2019-08-19T00:22:34Z</time>
      </trkpt>
      <trkpt lat="42.241905" lon="2.387022">
        <ele>610.1</ele>
        <time>2019-08-19T00:22:35Z</time>
      </trkpt>
      <trkpt lat="42.241886" lon="2.3871">
        <ele>609.9</ele>
        <time>2019-08-19T00:22:36Z</time>
      </trkpt>
      <trkpt lat="42.241884" lon="2.387214">
        <ele>610</ele>
        <time>2019-08-19T00:22:37Z</time>
      </trkpt>
      <trkpt lat="42.241876" lon="2.387313">
        <ele>609.9</ele>
        <time>2019-08-19T00:22:38Z</time>
      </trkpt>
      <trkpt lat="42.241863" lon="2.387373">
        <ele>609.7</ele>
        <time>2019-08-19T00:22:39Z</time>
      </trkpt>
      <trkpt lat="42.241862" lon="2.387478">
        <ele>609.3</ele>
        <time>2019-08-19T00:22:40Z</time>
      </trkpt>
      <trkpt lat="42.24189" lon="2.387556">
        <ele>609.5</ele>
        <time>2019-08-19T00:22:41Z</time>
      </trkpt>
      <trkpt lat="42.241925" lon="2.387651">
        <ele>609.3</ele>
        <time>2019-08-19T00:22:42Z</time>
      </trkpt>
      <trkpt lat="42.241965" lon="2.387762">
        <ele>610.3</ele>
        <time>2019-08-19T00:22:43Z</time>
      </trkpt>
      <trkpt lat="42.242015" lon="2.387847">
        <ele>611.4</ele>
        <time>2019-08-19T00:22:44Z</time>
      </trkpt>
      <trkpt lat="42.242068" lon="2.387929">
        <ele>611.7</ele>
        <time>2019-08-19T00:22:45Z</time>
      </trkpt>
      <trkpt lat="42.242113" lon="2.388021">
        <ele>611.2</ele>
        <time>2019-08-19T00:22:46Z</time>
      </trkpt>
      <trkpt lat="42.242151" lon="2.388113">
        <ele>611.5</ele>
        <time>2019-08-19T00:22:47Z</time>
      </trkpt>
      <trkpt lat="42.242134" lon="2.388183">
        <ele>610.5</ele>
        <time>2019-08-19T00:22:48Z</time>
      </trkpt>
      <trkpt lat="42.242138" lon="2.388273">
        <ele>609.3</ele>
        <time>2019-08-19T00:22:49Z</time>
      </trkpt>
      <trkpt lat="42.242114" lon="2.388403">
        <ele>607.1</ele>
        <time>2019-08-19T00:22:50Z</time>
      </trkpt>
      <trkpt lat="42.242097" lon="2.38849">
        <ele>605.6</ele>
        <time>2019-08-19T00:22:51Z</time>
      </trkpt>
      <trkpt lat="42.24208" lon="2.388603">
        <ele>602.9</ele>
        <time>2019-08-19T00:22:52Z</time>
      </trkpt>
      <trkpt lat="42.242072" lon="2.388679">
        <ele>601.7</ele>
        <time>2019-08-19T00:22:53Z</time>
      </trkpt>
      <trkpt lat="42.242102" lon="2.388743">
        <ele>600.7</ele>
        <time>2019-08-19T00:22:54Z</time>
      </trkpt>
      <trkpt lat="42.24214" lon="2.388793">
        <ele>600.5</ele>
        <time>2019-08-19T00:22:55Z</time>
      </trkpt>
      <trkpt lat="42.24219" lon="2.388825">
        <ele>601</ele>
        <time>2019-08-19T00:22:56Z</time>
      </trkpt>
      <trkpt lat="42.242254" lon="2.388828">
        <ele>602.3</ele>
        <time>2019-08-19T00:22:57Z</time>
      </trkpt>
      <trkpt lat="42.242302" lon="2.388837">
        <ele>603.1</ele>
        <time>2019-08-19T00:22:58Z</time>
      </trkpt>
      <trkpt lat="42.242351" lon="2.388849">
        <ele>603.1</ele>
        <time>2019-08-19T00:22:59Z</time>
      </trkpt>
      <trkpt lat="42.242384" lon="2.38885">
        <ele>603.4</ele>
        <time>2019-08-19T00:23:00Z</time>
      </trkpt>
      <trkpt lat="42.242422" lon="2.388842">
        <ele>604.2</ele>
        <time>2019-08-19T00:23:01Z</time>
      </trkpt>
      <trkpt lat="42.242459" lon="2.388829">
        <ele>604.9</ele>
        <time>2019-08-19T00:23:02Z</time>
      </trkpt>
      <trkpt lat="42.242642" lon="2.388827">
        <ele>608.7</ele>
        <time>2019-08-19T00:23:08Z</time>
      </trkpt>
      <trkpt lat="42.242678" lon="2.388854">
        <ele>609.4</ele>
        <time>2019-08-19T00:23:10Z</time>
      </trkpt>
      <trkpt lat="42.242717" lon="2.388861">
        <ele>610.2</ele>
        <time>2019-08-19T00:23:13Z</time>
      </trkpt>
      <trkpt lat="42.242745" lon="2.388858">
        <ele>610.7</ele>
        <time>2019-08-19T00:23:15Z</time>
      </trkpt>
      <trkpt lat="42.242771" lon="2.388876">
        <ele>611.3</ele>
        <time>2019-08-19T00:23:17Z</time>
      </trkpt>
      <trkpt lat="42.242798" lon="2.388882">
        <ele>611.9</ele>
        <time>2019-08-19T00:23:19Z</time>
      </trkpt>
      <trkpt lat="42.242829" lon="2.388897">
        <ele>612.2</ele>
        <time>2019-08-19T00:23:22Z</time>
      </trkpt>
      <trkpt lat="42.24286" lon="2.388902">
        <ele>612.6</ele>
        <time>2019-08-19T00:23:24Z</time>
      </trkpt>
      <trkpt lat="42.242892" lon="2.388915">
        <ele>613.1</ele>
        <time>2019-08-19T00:23:27Z</time>
      </trkpt>
      <trkpt lat="42.242923" lon="2.38895">
        <ele>613.8</ele>
        <time>2019-08-19T00:23:30Z</time>
      </trkpt>
      <trkpt lat="42.242956" lon="2.38896">
        <ele>614.3</ele>
        <time>2019-08-19T00:23:32Z</time>
      </trkpt>
      <trkpt lat="42.242985" lon="2.388963">
        <ele>614.8</ele>
        <time>2019-08-19T00:23:34Z</time>
      </trkpt>
      <trkpt lat="42.243016" lon="2.388999">
        <ele>615.6</ele>
        <time>2019-08-19T00:23:37Z</time>
      </trkpt>
      <trkpt lat="42.243051" lon="2.389009">
        <ele>616.4</ele>
        <time>2019-08-19T00:23:39Z</time>
      </trkpt>
      <trkpt lat="42.243078" lon="2.389016">
        <ele>617.1</ele>
        <time>2019-08-19T00:23:41Z</time>
      </trkpt>
      <trkpt lat="42.24311" lon="2.389018">
        <ele>617.6</ele>
        <time>2019-08-19T00:23:43Z</time>
      </trkpt>
      <trkpt lat="42.243144" lon="2.389015">
        <ele>618.2</ele>
        <time>2019-08-19T00:23:45Z</time>
      </trkpt>
      <trkpt lat="42.243181" lon="2.389031">
        <ele>618.2</ele>
        <time>2019-08-19T00:23:47Z</time>
      </trkpt>
      <trkpt lat="42.24321" lon="2.389046">
        <ele>618.3</ele>
        <time>2019-08-19T00:23:49Z</time>
      </trkpt>
      <trkpt lat="42.243253" lon="2.389048">
        <ele>619.1</ele>
        <time>2019-08-19T00:23:51Z</time>
      </trkpt>
      <trkpt lat="42.243299" lon="2.389057">
        <ele>620.3</ele>
        <time>2019-08-19T00:23:53Z</time>
      </trkpt>
      <trkpt lat="42.243341" lon="2.389059">
        <ele>621.8</ele>
        <time>2019-08-19T00:23:55Z</time>
      </trkpt>
      <trkpt lat="42.243376" lon="2.389069">
        <ele>622</ele>
        <time>2019-08-19T00:23:57Z</time>
      </trkpt>
      <trkpt lat="42.243416" lon="2.389077">
        <ele>622.1</ele>
        <time>2019-08-19T00:23:59Z</time>
      </trkpt>
      <trkpt lat="42.243457" lon="2.389075">
        <ele>622.9</ele>
        <time>2019-08-19T00:24:01Z</time>
      </trkpt>
      <trkpt lat="42.2435" lon="2.389082">
        <ele>624</ele>
        <time>2019-08-19T00:24:03Z</time>
      </trkpt>
      <trkpt lat="42.243542" lon="2.389089">
        <ele>624.5</ele>
        <time>2019-08-19T00:24:05Z</time>
      </trkpt>
      <trkpt lat="42.243569" lon="2.3891">
        <ele>624.6</ele>
        <time>2019-08-19T00:24:07Z</time>
      </trkpt>
      <trkpt lat="42.243595" lon="2.389111">
        <ele>624.7</ele>
        <time>2019-08-19T00:24:09Z</time>
      </trkpt>
      <trkpt lat="42.243621" lon="2.389121">
        <ele>625.1</ele>
        <time>2019-08-19T00:24:11Z</time>
      </trkpt>
      <trkpt lat="42.24366" lon="2.38914">
        <ele>625.8</ele>
        <time>2019-08-19T00:24:13Z</time>
      </trkpt>
      <trkpt lat="42.243698" lon="2.389165">
        <ele>626.1</ele>
        <time>2019-08-19T00:24:15Z</time>
      </trkpt>
      <trkpt lat="42.243737" lon="2.389192">
        <ele>626.3</ele>
        <time>2019-08-19T00:24:17Z</time>
      </trkpt>
      <trkpt lat="42.24378" lon="2.38922">
        <ele>626.9</ele>
        <time>2019-08-19T00:24:19Z</time>
      </trkpt>
      <trkpt lat="42.243804" lon="2.389236">
        <ele>627.3</ele>
        <time>2019-08-19T00:24:20Z</time>
      </trkpt>
      <trkpt lat="42.243846" lon="2.389264">
        <ele>627.9</ele>
        <time>2019-08-19T00:24:22Z</time>
      </trkpt>
      <trkpt lat="42.243888" lon="2.389283">
        <ele>628.3</ele>
        <time>2019-08-19T00:24:24Z</time>
      </trkpt>
      <trkpt lat="42.243916" lon="2.389292">
        <ele>628.5</ele>
        <time>2019-08-19T00:24:25Z</time>
      </trkpt>
      <trkpt lat="42.243943" lon="2.3893">
        <ele>628.8</ele>
        <time>2019-08-19T00:24:26Z</time>
      </trkpt>
      <trkpt lat="42.24399" lon="2.389321">
        <ele>629.6</ele>
        <time>2019-08-19T00:24:28Z</time>
      </trkpt>
      <trkpt lat="42.244023" lon="2.389345">
        <ele>630.6</ele>
        <time>2019-08-19T00:24:30Z</time>
      </trkpt>
      <trkpt lat="42.244057" lon="2.389372">
        <ele>631.6</ele>
        <time>2019-08-19T00:24:32Z</time>
      </trkpt>
      <trkpt lat="42.244095" lon="2.38939">
        <ele>632.4</ele>
        <time>2019-08-19T00:24:34Z</time>
      </trkpt>
      <trkpt lat="42.244128" lon="2.389404">
        <ele>632.7</ele>
        <time>2019-08-19T00:24:36Z</time>
      </trkpt>
      <trkpt lat="42.244165" lon="2.38942">
        <ele>633.1</ele>
        <time>2019-08-19T00:24:38Z</time>
      </trkpt>
      <trkpt lat="42.244195" lon="2.389445">
        <ele>633.5</ele>
        <time>2019-08-19T00:24:41Z</time>
      </trkpt>
      <trkpt lat="42.244228" lon="2.389468">
        <ele>634.1</ele>
        <time>2019-08-19T00:24:43Z</time>
      </trkpt>
      <trkpt lat="42.244264" lon="2.389483">
        <ele>634.5</ele>
        <time>2019-08-19T00:24:45Z</time>
      </trkpt>
      <trkpt lat="42.24431" lon="2.389491">
        <ele>634.9</ele>
        <time>2019-08-19T00:24:47Z</time>
      </trkpt>
      <trkpt lat="42.244358" lon="2.389507">
        <ele>635.5</ele>
        <time>2019-08-19T00:24:49Z</time>
      </trkpt>
      <trkpt lat="42.244392" lon="2.389524">
        <ele>636.2</ele>
        <time>2019-08-19T00:24:51Z</time>
      </trkpt>
      <trkpt lat="42.244425" lon="2.389535">
        <ele>636.8</ele>
        <time>2019-08-19T00:24:53Z</time>
      </trkpt>
      <trkpt lat="42.24445" lon="2.38956">
        <ele>637.4</ele>
        <time>2019-08-19T00:24:55Z</time>
      </trkpt>
      <trkpt lat="42.244472" lon="2.389606">
        <ele>638.2</ele>
        <time>2019-08-19T00:24:57Z</time>
      </trkpt>
      <trkpt lat="42.244484" lon="2.389646">
        <ele>638.2</ele>
        <time>2019-08-19T00:25:00Z</time>
      </trkpt>
      <trkpt lat="42.244469" lon="2.389683">
        <ele>638</ele>
        <time>2019-08-19T00:25:03Z</time>
      </trkpt>
      <trkpt lat="42.244436" lon="2.389715">
        <ele>638.5</ele>
        <time>2019-08-19T00:25:06Z</time>
      </trkpt>
      <trkpt lat="42.244416" lon="2.389753">
        <ele>637.6</ele>
        <time>2019-08-19T00:25:08Z</time>
      </trkpt>
      <trkpt lat="42.244392" lon="2.38978">
        <ele>636.8</ele>
        <time>2019-08-19T00:25:11Z</time>
      </trkpt>
      <trkpt lat="42.244365" lon="2.389789">
        <ele>636.1</ele>
        <time>2019-08-19T00:25:14Z</time>
      </trkpt>
      <trkpt lat="42.244339" lon="2.389818">
        <ele>635.4</ele>
        <time>2019-08-19T00:25:17Z</time>
      </trkpt>
      <trkpt lat="42.244301" lon="2.389842">
        <ele>634.4</ele>
        <time>2019-08-19T00:25:20Z</time>
      </trkpt>
      <trkpt lat="42.244278" lon="2.389863">
        <ele>633.8</ele>
        <time>2019-08-19T00:25:22Z</time>
      </trkpt>
      <trkpt lat="42.244245" lon="2.389882">
        <ele>633</ele>
        <time>2019-08-19T00:25:24Z</time>
      </trkpt>
      <trkpt lat="42.244208" lon="2.389894">
        <ele>632.1</ele>
        <time>2019-08-19T00:25:26Z</time>
      </trkpt>
      <trkpt lat="42.244171" lon="2.389918">
        <ele>630.9</ele>
        <time>2019-08-19T00:25:28Z</time>
      </trkpt>
      <trkpt lat="42.24414" lon="2.389945">
        <ele>630.1</ele>
        <time>2019-08-19T00:25:30Z</time>
      </trkpt>
      <trkpt lat="42.244108" lon="2.389969">
        <ele>629.6</ele>
        <time>2019-08-19T00:25:32Z</time>
      </trkpt>
      <trkpt lat="42.244079" lon="2.38998">
        <ele>629.2</ele>
        <time>2019-08-19T00:25:34Z</time>
      </trkpt>
      <trkpt lat="42.244048" lon="2.38998">
        <ele>628.6</ele>
        <time>2019-08-19T00:25:36Z</time>
      </trkpt>
      <trkpt lat="42.244013" lon="2.389982">
        <ele>627.8</ele>
        <time>2019-08-19T00:25:38Z</time>
      </trkpt>
      <trkpt lat="42.243981" lon="2.389989">
        <ele>627.2</ele>
        <time>2019-08-19T00:25:41Z</time>
      </trkpt>
      <trkpt lat="42.243947" lon="2.389993">
        <ele>626.8</ele>
        <time>2019-08-19T00:25:44Z</time>
      </trkpt>
      <trkpt lat="42.243924" lon="2.390013">
        <ele>626.5</ele>
        <time>2019-08-19T00:25:46Z</time>
      </trkpt>
      <trkpt lat="42.243899" lon="2.390056">
        <ele>626</ele>
        <time>2019-08-19T00:25:49Z</time>
      </trkpt>
      <trkpt lat="42.243876" lon="2.390081">
        <ele>625.7</ele>
        <time>2019-08-19T00:25:51Z</time>
      </trkpt>
      <trkpt lat="42.243857" lon="2.390108">
        <ele>625.3</ele>
        <time>2019-08-19T00:25:53Z</time>
      </trkpt>
      <trkpt lat="42.243837" lon="2.390147">
        <ele>625.1</ele>
        <time>2019-08-19T00:25:55Z</time>
      </trkpt>
      <trkpt lat="42.243817" lon="2.390189">
        <ele>625</ele>
        <time>2019-08-19T00:25:57Z</time>
      </trkpt>
      <trkpt lat="42.243794" lon="2.390217">
        <ele>624.9</ele>
        <time>2019-08-19T00:25:59Z</time>
      </trkpt>
      <trkpt lat="42.243768" lon="2.39026">
        <ele>624.6</ele>
        <time>2019-08-19T00:26:02Z</time>
      </trkpt>
      <trkpt lat="42.243746" lon="2.390302">
        <ele>624.6</ele>
        <time>2019-08-19T00:26:04Z</time>
      </trkpt>
      <trkpt lat="42.243727" lon="2.390355">
        <ele>625</ele>
        <time>2019-08-19T00:26:06Z</time>
      </trkpt>
      <trkpt lat="42.243712" lon="2.390397">
        <ele>625.4</ele>
        <time>2019-08-19T00:26:08Z</time>
      </trkpt>
      <trkpt lat="42.243692" lon="2.390432">
        <ele>625.9</ele>
        <time>2019-08-19T00:26:10Z</time>
      </trkpt>
      <trkpt lat="42.243667" lon="2.390454">
        <ele>626.3</ele>
        <time>2019-08-19T00:26:12Z</time>
      </trkpt>
      <trkpt lat="42.243637" lon="2.390471">
        <ele>626.3</ele>
        <time>2019-08-19T00:26:14Z</time>
      </trkpt>
      <trkpt lat="42.243609" lon="2.390484">
        <ele>626.3</ele>
        <time>2019-08-19T00:26:16Z</time>
      </trkpt>
      <trkpt lat="42.243578" lon="2.390493">
        <ele>626.4</ele>
        <time>2019-08-19T00:26:18Z</time>
      </trkpt>
      <trkpt lat="42.243552" lon="2.390514">
        <ele>626.8</ele>
        <time>2019-08-19T00:26:20Z</time>
      </trkpt>
      <trkpt lat="42.24353" lon="2.390536">
        <ele>627.1</ele>
        <time>2019-08-19T00:26:22Z</time>
      </trkpt>
      <trkpt lat="42.243512" lon="2.390567">
        <ele>627.5</ele>
        <time>2019-08-19T00:26:24Z</time>
      </trkpt>
      <trkpt lat="42.243492" lon="2.390594">
        <ele>627.8</ele>
        <time>2019-08-19T00:26:26Z</time>
      </trkpt>
      <trkpt lat="42.243474" lon="2.390623">
        <ele>628.2</ele>
        <time>2019-08-19T00:26:28Z</time>
      </trkpt>
      <trkpt lat="42.243453" lon="2.390655">
        <ele>628.1</ele>
        <time>2019-08-19T00:26:31Z</time>
      </trkpt>
      <trkpt lat="42.243426" lon="2.390678">
        <ele>628</ele>
        <time>2019-08-19T00:26:34Z</time>
      </trkpt>
      <trkpt lat="42.243392" lon="2.390686">
        <ele>628.1</ele>
        <time>2019-08-19T00:26:37Z</time>
      </trkpt>
      <trkpt lat="42.243362" lon="2.390706">
        <ele>628.4</ele>
        <time>2019-08-19T00:26:39Z</time>
      </trkpt>
      <trkpt lat="42.243329" lon="2.39074">
        <ele>628.7</ele>
        <time>2019-08-19T00:26:41Z</time>
      </trkpt>
      <trkpt lat="42.243303" lon="2.390771">
        <ele>628.4</ele>
        <time>2019-08-19T00:26:43Z</time>
      </trkpt>
      <trkpt lat="42.243278" lon="2.390786">
        <ele>628.2</ele>
        <time>2019-08-19T00:26:45Z</time>
      </trkpt>
      <trkpt lat="42.243241" lon="2.39081">
        <ele>628.3</ele>
        <time>2019-08-19T00:26:48Z</time>
      </trkpt>
      <trkpt lat="42.243218" lon="2.390847">
        <ele>628.5</ele>
        <time>2019-08-19T00:26:51Z</time>
      </trkpt>
      <trkpt lat="42.243188" lon="2.390876">
        <ele>628.8</ele>
        <time>2019-08-19T00:26:54Z</time>
      </trkpt>
      <trkpt lat="42.243163" lon="2.390899">
        <ele>629</ele>
        <time>2019-08-19T00:26:56Z</time>
      </trkpt>
      <trkpt lat="42.24314" lon="2.390931">
        <ele>629.3</ele>
        <time>2019-08-19T00:26:58Z</time>
      </trkpt>
      <trkpt lat="42.243118" lon="2.390962">
        <ele>629.1</ele>
        <time>2019-08-19T00:27:00Z</time>
      </trkpt>
      <trkpt lat="42.243099" lon="2.391002">
        <ele>628.9</ele>
        <time>2019-08-19T00:27:02Z</time>
      </trkpt>
      <trkpt lat="42.243073" lon="2.391028">
        <ele>628.7</ele>
        <time>2019-08-19T00:27:04Z</time>
      </trkpt>
      <trkpt lat="42.243037" lon="2.391051">
        <ele>628.5</ele>
        <time>2019-08-19T00:27:07Z</time>
      </trkpt>
      <trkpt lat="42.243013" lon="2.391069">
        <ele>628.3</ele>
        <time>2019-08-19T00:27:09Z</time>
      </trkpt>
      <trkpt lat="42.242985" lon="2.391091">
        <ele>628.2</ele>
        <time>2019-08-19T00:27:11Z</time>
      </trkpt>
      <trkpt lat="42.24296" lon="2.391119">
        <ele>628</ele>
        <time>2019-08-19T00:27:13Z</time>
      </trkpt>
      <trkpt lat="42.242934" lon="2.391143">
        <ele>627.8</ele>
        <time>2019-08-19T00:27:15Z</time>
      </trkpt>
      <trkpt lat="42.242906" lon="2.391166">
        <ele>627.5</ele>
        <time>2019-08-19T00:27:17Z</time>
      </trkpt>
      <trkpt lat="42.242882" lon="2.391185">
        <ele>627.3</ele>
        <time>2019-08-19T00:27:19Z</time>
      </trkpt>
      <trkpt lat="42.242854" lon="2.391195">
        <ele>627</ele>
        <time>2019-08-19T00:27:21Z</time>
      </trkpt>
      <trkpt lat="42.242822" lon="2.391212">
        <ele>626.8</ele>
        <time>2019-08-19T00:27:23Z</time>
      </trkpt>
      <trkpt lat="42.242794" lon="2.391247">
        <ele>626.6</ele>
        <time>2019-08-19T00:27:25Z</time>
      </trkpt>
      <trkpt lat="42.242768" lon="2.391285">
        <ele>626.7</ele>
        <time>2019-08-19T00:27:27Z</time>
      </trkpt>
      <trkpt lat="42.242743" lon="2.391324">
        <ele>626.6</ele>
        <time>2019-08-19T00:27:29Z</time>
      </trkpt>
      <trkpt lat="42.242733" lon="2.391361">
        <ele>626.1</ele>
        <time>2019-08-19T00:27:31Z</time>
      </trkpt>
      <trkpt lat="42.242728" lon="2.391404">
        <ele>625.6</ele>
        <time>2019-08-19T00:27:33Z</time>
      </trkpt>
      <trkpt lat="42.242737" lon="2.391457">
        <ele>625.3</ele>
        <time>2019-08-19T00:27:35Z</time>
      </trkpt>
      <trkpt lat="42.242742" lon="2.391498">
        <ele>625.4</ele>
        <time>2019-08-19T00:27:37Z</time>
      </trkpt>
      <trkpt lat="42.24276" lon="2.391546">
        <ele>626.4</ele>
        <time>2019-08-19T00:27:40Z</time>
      </trkpt>
      <trkpt lat="42.242779" lon="2.391577">
        <ele>627</ele>
        <time>2019-08-19T00:27:42Z</time>
      </trkpt>
      <trkpt lat="42.242793" lon="2.391617">
        <ele>627.7</ele>
        <time>2019-08-19T00:27:49Z</time>
      </trkpt>
      <trkpt lat="42.2428" lon="2.391656">
        <ele>628.5</ele>
        <time>2019-08-19T00:27:56Z</time>
      </trkpt>
      <trkpt lat="42.242824" lon="2.391673">
        <ele>629.7</ele>
        <time>2019-08-19T00:31:26Z</time>
      </trkpt>
      <trkpt lat="42.242843" lon="2.391702">
        <ele>631</ele>
        <time>2019-08-19T00:31:29Z</time>
      </trkpt>
      <trkpt lat="42.242871" lon="2.39173">
        <ele>632.1</ele>
        <time>2019-08-19T00:31:32Z</time>
      </trkpt>
      <trkpt lat="42.242903" lon="2.391753">
        <ele>632.9</ele>
        <time>2019-08-19T00:31:34Z</time>
      </trkpt>
      <trkpt lat="42.242932" lon="2.391778">
        <ele>633.9</ele>
        <time>2019-08-19T00:31:36Z</time>
      </trkpt>
      <trkpt lat="42.242956" lon="2.391803">
        <ele>634.8</ele>
        <time>2019-08-19T00:31:38Z</time>
      </trkpt>
      <trkpt lat="42.24298" lon="2.391839">
        <ele>635.9</ele>
        <time>2019-08-19T00:31:40Z</time>
      </trkpt>
      <trkpt lat="42.243003" lon="2.39187">
        <ele>636.7</ele>
        <time>2019-08-19T00:31:42Z</time>
      </trkpt>
      <trkpt lat="42.243028" lon="2.391897">
        <ele>637.5</ele>
        <time>2019-08-19T00:31:44Z</time>
      </trkpt>
      <trkpt lat="42.243056" lon="2.391922">
        <ele>638.2</ele>
        <time>2019-08-19T00:31:46Z</time>
      </trkpt>
      <trkpt lat="42.243087" lon="2.391956">
        <ele>639.1</ele>
        <time>2019-08-19T00:31:49Z</time>
      </trkpt>
      <trkpt lat="42.243118" lon="2.391989">
        <ele>640</ele>
        <time>2019-08-19T00:31:52Z</time>
      </trkpt>
      <trkpt lat="42.243146" lon="2.392012">
        <ele>640.7</ele>
        <time>2019-08-19T00:31:55Z</time>
      </trkpt>
      <trkpt lat="42.243174" lon="2.392036">
        <ele>641.1</ele>
        <time>2019-08-19T00:31:58Z</time>
      </trkpt>
      <trkpt lat="42.243208" lon="2.392047">
        <ele>641.6</ele>
        <time>2019-08-19T00:32:01Z</time>
      </trkpt>
      <trkpt lat="42.243218" lon="2.392009">
        <ele>641.7</ele>
        <time>2019-08-19T00:32:03Z</time>
      </trkpt>
      <trkpt lat="42.243193" lon="2.391967">
        <ele>641.7</ele>
        <time>2019-08-19T00:32:05Z</time>
      </trkpt>
      <trkpt lat="42.243161" lon="2.391934">
        <ele>642.3</ele>
        <time>2019-08-19T00:32:07Z</time>
      </trkpt>
      <trkpt lat="42.243129" lon="2.391893">
        <ele>642.9</ele>
        <time>2019-08-19T00:32:09Z</time>
      </trkpt>
      <trkpt lat="42.2431" lon="2.39184">
        <ele>643.5</ele>
        <time>2019-08-19T00:32:11Z</time>
      </trkpt>
      <trkpt lat="42.243078" lon="2.391772">
        <ele>644.2</ele>
        <time>2019-08-19T00:32:13Z</time>
      </trkpt>
      <trkpt lat="42.24307" lon="2.391735">
        <ele>644.6</ele>
        <time>2019-08-19T00:32:14Z</time>
      </trkpt>
      <trkpt lat="42.243066" lon="2.391698">
        <ele>645</ele>
        <time>2019-08-19T00:32:15Z</time>
      </trkpt>
      <trkpt lat="42.243068" lon="2.391659">
        <ele>645.4</ele>
        <time>2019-08-19T00:32:16Z</time>
      </trkpt>
      <trkpt lat="42.243075" lon="2.391619">
        <ele>645.7</ele>
        <time>2019-08-19T00:32:17Z</time>
      </trkpt>
      <trkpt lat="42.243086" lon="2.391581">
        <ele>646.1</ele>
        <time>2019-08-19T00:32:18Z</time>
      </trkpt>
      <trkpt lat="42.243101" lon="2.391546">
        <ele>646.4</ele>
        <time>2019-08-19T00:32:19Z</time>
      </trkpt>
      <trkpt lat="42.24312" lon="2.391516">
        <ele>646.7</ele>
        <time>2019-08-19T00:32:20Z</time>
      </trkpt>
      <trkpt lat="42.243142" lon="2.391489">
        <ele>647</ele>
        <time>2019-08-19T00:32:21Z</time>
      </trkpt>
      <trkpt lat="42.243164" lon="2.391462">
        <ele>647.2</ele>
        <time>2019-08-19T00:32:22Z</time>
      </trkpt>
      <trkpt lat="42.243187" lon="2.391437">
        <ele>647.5</ele>
        <time>2019-08-19T00:32:23Z</time>
      </trkpt>
      <trkpt lat="42.24321" lon="2.391413">
        <ele>647.7</ele>
        <time>2019-08-19T00:32:24Z</time>
      </trkpt>
      <trkpt lat="42.243232" lon="2.391391">
        <ele>647.9</ele>
        <time>2019-08-19T00:32:25Z</time>
      </trkpt>
      <trkpt lat="42.243255" lon="2.39137">
        <ele>648.1</ele>
        <time>2019-08-19T00:32:26Z</time>
      </trkpt>
      <trkpt lat="42.243279" lon="2.391347">
        <ele>648.3</ele>
        <time>2019-08-19T00:32:27Z</time>
      </trkpt>
      <trkpt lat="42.243302" lon="2.391324">
        <ele>648.5</ele>
        <time>2019-08-19T00:32:28Z</time>
      </trkpt>
      <trkpt lat="42.243325" lon="2.391304">
        <ele>648.7</ele>
        <time>2019-08-19T00:32:29Z</time>
      </trkpt>
      <trkpt lat="42.243349" lon="2.391285">
        <ele>648.9</ele>
        <time>2019-08-19T00:32:30Z</time>
      </trkpt>
      <trkpt lat="42.243374" lon="2.391265">
        <ele>649.1</ele>
        <time>2019-08-19T00:32:31Z</time>
      </trkpt>
      <trkpt lat="42.243398" lon="2.391246">
        <ele>649.3</ele>
        <time>2019-08-19T00:32:32Z</time>
      </trkpt>
      <trkpt lat="42.243424" lon="2.391226">
        <ele>649.5</ele>
        <time>2019-08-19T00:32:33Z</time>
      </trkpt>
      <trkpt lat="42.24345" lon="2.391204">
        <ele>649.7</ele>
        <time>2019-08-19T00:32:34Z</time>
      </trkpt>
      <trkpt lat="42.243474" lon="2.391184">
        <ele>649.8</ele>
        <time>2019-08-19T00:32:35Z</time>
      </trkpt>
      <trkpt lat="42.243498" lon="2.391167">
        <ele>650</ele>
        <time>2019-08-19T00:32:36Z</time>
      </trkpt>
      <trkpt lat="42.243525" lon="2.391151">
        <ele>650.2</ele>
        <time>2019-08-19T00:32:37Z</time>
      </trkpt>
      <trkpt lat="42.243551" lon="2.391134">
        <ele>650.4</ele>
        <time>2019-08-19T00:32:38Z</time>
      </trkpt>
      <trkpt lat="42.243576" lon="2.391116">
        <ele>650.6</ele>
        <time>2019-08-19T00:32:39Z</time>
      </trkpt>
      <trkpt lat="42.243622" lon="2.391085">
        <ele>651</ele>
        <time>2019-08-19T00:32:41Z</time>
      </trkpt>
      <trkpt lat="42.243667" lon="2.391049">
        <ele>651.4</ele>
        <time>2019-08-19T00:32:43Z</time>
      </trkpt>
      <trkpt lat="42.243711" lon="2.391025">
        <ele>651.8</ele>
        <time>2019-08-19T00:32:45Z</time>
      </trkpt>
      <trkpt lat="42.243755" lon="2.391007">
        <ele>652.2</ele>
        <time>2019-08-19T00:32:47Z</time>
      </trkpt>
      <trkpt lat="42.243801" lon="2.390985">
        <ele>652.6</ele>
        <time>2019-08-19T00:32:49Z</time>
      </trkpt>
      <trkpt lat="42.243846" lon="2.390949">
        <ele>653</ele>
        <time>2019-08-19T00:32:51Z</time>
      </trkpt>
      <trkpt lat="42.243887" lon="2.390913">
        <ele>653.4</ele>
        <time>2019-08-19T00:32:53Z</time>
      </trkpt>
      <trkpt lat="42.243925" lon="2.390882">
        <ele>653.8</ele>
        <time>2019-08-19T00:32:55Z</time>
      </trkpt>
      <trkpt lat="42.243964" lon="2.390846">
        <ele>654.2</ele>
        <time>2019-08-19T00:32:57Z</time>
      </trkpt>
      <trkpt lat="42.244" lon="2.39081">
        <ele>654.6</ele>
        <time>2019-08-19T00:32:59Z</time>
      </trkpt>
      <trkpt lat="42.244034" lon="2.390771">
        <ele>655</ele>
        <time>2019-08-19T00:33:01Z</time>
      </trkpt>
      <trkpt lat="42.244073" lon="2.390738">
        <ele>655.4</ele>
        <time>2019-08-19T00:33:03Z</time>
      </trkpt>
      <trkpt lat="42.244118" lon="2.390708">
        <ele>655.7</ele>
        <time>2019-08-19T00:33:05Z</time>
      </trkpt>
      <trkpt lat="42.244166" lon="2.390694">
        <ele>656</ele>
        <time>2019-08-19T00:33:07Z</time>
      </trkpt>
      <trkpt lat="42.244214" lon="2.390687">
        <ele>656.4</ele>
        <time>2019-08-19T00:33:09Z</time>
      </trkpt>
      <trkpt lat="42.244256" lon="2.39067">
        <ele>656.7</ele>
        <time>2019-08-19T00:33:11Z</time>
      </trkpt>
      <trkpt lat="42.244295" lon="2.390657">
        <ele>657</ele>
        <time>2019-08-19T00:33:13Z</time>
      </trkpt>
      <trkpt lat="42.244335" lon="2.390649">
        <ele>657.3</ele>
        <time>2019-08-19T00:33:15Z</time>
      </trkpt>
      <trkpt lat="42.244371" lon="2.390634">
        <ele>657.5</ele>
        <time>2019-08-19T00:33:17Z</time>
      </trkpt>
      <trkpt lat="42.244412" lon="2.390622">
        <ele>657.9</ele>
        <time>2019-08-19T00:33:19Z</time>
      </trkpt>
      <trkpt lat="42.244453" lon="2.390596">
        <ele>658.2</ele>
        <time>2019-08-19T00:33:21Z</time>
      </trkpt>
      <trkpt lat="42.244491" lon="2.390572">
        <ele>658.5</ele>
        <time>2019-08-19T00:33:23Z</time>
      </trkpt>
      <trkpt lat="42.244522" lon="2.39055">
        <ele>658.8</ele>
        <time>2019-08-19T00:33:25Z</time>
      </trkpt>
      <trkpt lat="42.244557" lon="2.390527">
        <ele>659.1</ele>
        <time>2019-08-19T00:33:27Z</time>
      </trkpt>
      <trkpt lat="42.244592" lon="2.390509">
        <ele>659.4</ele>
        <time>2019-08-19T00:33:29Z</time>
      </trkpt>
      <trkpt lat="42.244628" lon="2.390493">
        <ele>659.7</ele>
        <time>2019-08-19T00:33:31Z</time>
      </trkpt>
      <trkpt lat="42.244669" lon="2.390484">
        <ele>660</ele>
        <time>2019-08-19T00:33:33Z</time>
      </trkpt>
      <trkpt lat="42.244715" lon="2.39048">
        <ele>660.4</ele>
        <time>2019-08-19T00:33:35Z</time>
      </trkpt>
      <trkpt lat="42.24476" lon="2.390469">
        <ele>660.8</ele>
        <time>2019-08-19T00:33:37Z</time>
      </trkpt>
      <trkpt lat="42.244799" lon="2.39045">
        <ele>661.1</ele>
        <time>2019-08-19T00:33:39Z</time>
      </trkpt>
      <trkpt lat="42.244838" lon="2.390434">
        <ele>661.4</ele>
        <time>2019-08-19T00:33:41Z</time>
      </trkpt>
      <trkpt lat="42.244876" lon="2.390416">
        <ele>661.8</ele>
        <time>2019-08-19T00:33:43Z</time>
      </trkpt>
      <trkpt lat="42.24491" lon="2.390395">
        <ele>662.1</ele>
        <time>2019-08-19T00:33:45Z</time>
      </trkpt>
      <trkpt lat="42.244947" lon="2.390377">
        <ele>662.4</ele>
        <time>2019-08-19T00:33:47Z</time>
      </trkpt>
      <trkpt lat="42.244983" lon="2.390365">
        <ele>662.6</ele>
        <time>2019-08-19T00:33:49Z</time>
      </trkpt>
      <trkpt lat="42.24502" lon="2.390355">
        <ele>662.9</ele>
        <time>2019-08-19T00:33:51Z</time>
      </trkpt>
      <trkpt lat="42.245061" lon="2.390347">
        <ele>663.2</ele>
        <time>2019-08-19T00:33:53Z</time>
      </trkpt>
      <trkpt lat="42.245099" lon="2.390341">
        <ele>663.5</ele>
        <time>2019-08-19T00:33:55Z</time>
      </trkpt>
      <trkpt lat="42.245138" lon="2.390334">
        <ele>663.7</ele>
        <time>2019-08-19T00:33:57Z</time>
      </trkpt>
      <trkpt lat="42.245171" lon="2.390324">
        <ele>664</ele>
        <time>2019-08-19T00:33:59Z</time>
      </trkpt>
      <trkpt lat="42.245208" lon="2.390309">
        <ele>664.2</ele>
        <time>2019-08-19T00:34:01Z</time>
      </trkpt>
      <trkpt lat="42.245242" lon="2.390286">
        <ele>664.5</ele>
        <time>2019-08-19T00:34:03Z</time>
      </trkpt>
      <trkpt lat="42.24528" lon="2.39026">
        <ele>664.8</ele>
        <time>2019-08-19T00:34:05Z</time>
      </trkpt>
      <trkpt lat="42.245321" lon="2.390236">
        <ele>665.2</ele>
        <time>2019-08-19T00:34:07Z</time>
      </trkpt>
      <trkpt lat="42.245356" lon="2.390211">
        <ele>665.4</ele>
        <time>2019-08-19T00:34:09Z</time>
      </trkpt>
      <trkpt lat="42.245392" lon="2.390178">
        <ele>665.8</ele>
        <time>2019-08-19T00:34:11Z</time>
      </trkpt>
      <trkpt lat="42.245426" lon="2.390145">
        <ele>666.1</ele>
        <time>2019-08-19T00:34:13Z</time>
      </trkpt>
      <trkpt lat="42.245458" lon="2.390108">
        <ele>666.3</ele>
        <time>2019-08-19T00:34:15Z</time>
      </trkpt>
      <trkpt lat="42.245489" lon="2.390072">
        <ele>666.6</ele>
        <time>2019-08-19T00:34:17Z</time>
      </trkpt>
      <trkpt lat="42.245515" lon="2.390029">
        <ele>666.9</ele>
        <time>2019-08-19T00:34:19Z</time>
      </trkpt>
      <trkpt lat="42.245546" lon="2.38999">
        <ele>667.2</ele>
        <time>2019-08-19T00:34:21Z</time>
      </trkpt>
      <trkpt lat="42.245574" lon="2.389942">
        <ele>667.4</ele>
        <time>2019-08-19T00:34:23Z</time>
      </trkpt>
      <trkpt lat="42.245606" lon="2.389899">
        <ele>667.7</ele>
        <time>2019-08-19T00:34:25Z</time>
      </trkpt>
      <trkpt lat="42.245637" lon="2.38986">
        <ele>668</ele>
        <time>2019-08-19T00:34:27Z</time>
      </trkpt>
      <trkpt lat="42.245662" lon="2.38981">
        <ele>668.2</ele>
        <time>2019-08-19T00:34:29Z</time>
      </trkpt>
      <trkpt lat="42.245685" lon="2.389761">
        <ele>668.5</ele>
        <time>2019-08-19T00:34:31Z</time>
      </trkpt>
      <trkpt lat="42.245711" lon="2.389716">
        <ele>668.7</ele>
        <time>2019-08-19T00:34:33Z</time>
      </trkpt>
      <trkpt lat="42.245741" lon="2.389684">
        <ele>668.9</ele>
        <time>2019-08-19T00:34:35Z</time>
      </trkpt>
      <trkpt lat="42.245768" lon="2.389645">
        <ele>669.1</ele>
        <time>2019-08-19T00:34:37Z</time>
      </trkpt>
      <trkpt lat="42.245796" lon="2.389605">
        <ele>669.4</ele>
        <time>2019-08-19T00:34:39Z</time>
      </trkpt>
      <trkpt lat="42.245824" lon="2.389561">
        <ele>669.6</ele>
        <time>2019-08-19T00:34:41Z</time>
      </trkpt>
      <trkpt lat="42.245852" lon="2.389524">
        <ele>669.8</ele>
        <time>2019-08-19T00:34:43Z</time>
      </trkpt>
      <trkpt lat="42.24588" lon="2.389489">
        <ele>670</ele>
        <time>2019-08-19T00:34:45Z</time>
      </trkpt>
      <trkpt lat="42.245907" lon="2.38946">
        <ele>670.2</ele>
        <time>2019-08-19T00:34:47Z</time>
      </trkpt>
      <trkpt lat="42.245939" lon="2.389438">
        <ele>670.3</ele>
        <time>2019-08-19T00:34:49Z</time>
      </trkpt>
      <trkpt lat="42.245971" lon="2.389418">
        <ele>670.5</ele>
        <time>2019-08-19T00:34:51Z</time>
      </trkpt>
      <trkpt lat="42.246" lon="2.38939">
        <ele>670.7</ele>
        <time>2019-08-19T00:34:53Z</time>
      </trkpt>
      <trkpt lat="42.246029" lon="2.389353">
        <ele>670.9</ele>
        <time>2019-08-19T00:34:55Z</time>
      </trkpt>
      <trkpt lat="42.24606" lon="2.389323">
        <ele>671.1</ele>
        <time>2019-08-19T00:34:57Z</time>
      </trkpt>
      <trkpt lat="42.246094" lon="2.389291">
        <ele>671.4</ele>
        <time>2019-08-19T00:34:59Z</time>
      </trkpt>
      <trkpt lat="42.246123" lon="2.389251">
        <ele>671.6</ele>
        <time>2019-08-19T00:35:01Z</time>
      </trkpt>
      <trkpt lat="42.246152" lon="2.389206">
        <ele>671.8</ele>
        <time>2019-08-19T00:35:03Z</time>
      </trkpt>
      <trkpt lat="42.246181" lon="2.389172">
        <ele>672</ele>
        <time>2019-08-19T00:35:05Z</time>
      </trkpt>
      <trkpt lat="42.246216" lon="2.389139">
        <ele>672.3</ele>
        <time>2019-08-19T00:35:07Z</time>
      </trkpt>
      <trkpt lat="42.246253" lon="2.389118">
        <ele>672.5</ele>
        <time>2019-08-19T00:35:09Z</time>
      </trkpt>
      <trkpt lat="42.246294" lon="2.389095">
        <ele>672.8</ele>
        <time>2019-08-19T00:35:11Z</time>
      </trkpt>
      <trkpt lat="42.246326" lon="2.389063">
        <ele>673.1</ele>
        <time>2019-08-19T00:35:13Z</time>
      </trkpt>
      <trkpt lat="42.246357" lon="2.389017">
        <ele>673.4</ele>
        <time>2019-08-19T00:35:15Z</time>
      </trkpt>
      <trkpt lat="42.246387" lon="2.388972">
        <ele>673.7</ele>
        <time>2019-08-19T00:35:17Z</time>
      </trkpt>
      <trkpt lat="42.246418" lon="2.38893">
        <ele>674.1</ele>
        <time>2019-08-19T00:35:19Z</time>
      </trkpt>
      <trkpt lat="42.246446" lon="2.388878">
        <ele>674.5</ele>
        <time>2019-08-19T00:35:21Z</time>
      </trkpt>
      <trkpt lat="42.246473" lon="2.388828">
        <ele>675</ele>
        <time>2019-08-19T00:35:23Z</time>
      </trkpt>
      <trkpt lat="42.246495" lon="2.388781">
        <ele>675.4</ele>
        <time>2019-08-19T00:35:25Z</time>
      </trkpt>
      <trkpt lat="42.246512" lon="2.388729">
        <ele>675.8</ele>
        <time>2019-08-19T00:35:27Z</time>
      </trkpt>
      <trkpt lat="42.246524" lon="2.388676">
        <ele>676.2</ele>
        <time>2019-08-19T00:35:29Z</time>
      </trkpt>
      <trkpt lat="42.246523" lon="2.388624">
        <ele>676.6</ele>
        <time>2019-08-19T00:35:31Z</time>
      </trkpt>
      <trkpt lat="42.24652" lon="2.388576">
        <ele>677</ele>
        <time>2019-08-19T00:35:33Z</time>
      </trkpt>
      <trkpt lat="42.246509" lon="2.388529">
        <ele>677.3</ele>
        <time>2019-08-19T00:35:35Z</time>
      </trkpt>
      <trkpt lat="42.246487" lon="2.388485">
        <ele>677.7</ele>
        <time>2019-08-19T00:35:37Z</time>
      </trkpt>
      <trkpt lat="42.24646" lon="2.388457">
        <ele>678</ele>
        <time>2019-08-19T00:35:40Z</time>
      </trkpt>
      <trkpt lat="42.246435" lon="2.388441">
        <ele>678.3</ele>
        <time>2019-08-19T00:35:42Z</time>
      </trkpt>
      <trkpt lat="42.246402" lon="2.388429">
        <ele>678.7</ele>
        <time>2019-08-19T00:35:44Z</time>
      </trkpt>
      <trkpt lat="42.246372" lon="2.388414">
        <ele>678.9</ele>
        <time>2019-08-19T00:35:46Z</time>
      </trkpt>
      <trkpt lat="42.246341" lon="2.388405">
        <ele>679.2</ele>
        <time>2019-08-19T00:35:48Z</time>
      </trkpt>
      <trkpt lat="42.24631" lon="2.388401">
        <ele>679.5</ele>
        <time>2019-08-19T00:35:50Z</time>
      </trkpt>
      <trkpt lat="42.246276" lon="2.388394">
        <ele>679.8</ele>
        <time>2019-08-19T00:35:52Z</time>
      </trkpt>
      <trkpt lat="42.246237" lon="2.388388">
        <ele>680.1</ele>
        <time>2019-08-19T00:35:54Z</time>
      </trkpt>
      <trkpt lat="42.246197" lon="2.388379">
        <ele>680.4</ele>
        <time>2019-08-19T00:35:56Z</time>
      </trkpt>
      <trkpt lat="42.246162" lon="2.388366">
        <ele>680.7</ele>
        <time>2019-08-19T00:35:58Z</time>
      </trkpt>
      <trkpt lat="42.246114" lon="2.38836">
        <ele>681</ele>
        <time>2019-08-19T00:36:00Z</time>
      </trkpt>
      <trkpt lat="42.246071" lon="2.388353">
        <ele>681.2</ele>
        <time>2019-08-19T00:36:02Z</time>
      </trkpt>
      <trkpt lat="42.246031" lon="2.388346">
        <ele>681.4</ele>
        <time>2019-08-19T00:36:04Z</time>
      </trkpt>
      <trkpt lat="42.245984" lon="2.388337">
        <ele>681.7</ele>
        <time>2019-08-19T00:36:06Z</time>
      </trkpt>
      <trkpt lat="42.245941" lon="2.388326">
        <ele>681.9</ele>
        <time>2019-08-19T00:36:08Z</time>
      </trkpt>
      <trkpt lat="42.245897" lon="2.388313">
        <ele>682.1</ele>
        <time>2019-08-19T00:36:10Z</time>
      </trkpt>
      <trkpt lat="42.245853" lon="2.388297">
        <ele>682.3</ele>
        <time>2019-08-19T00:36:12Z</time>
      </trkpt>
      <trkpt lat="42.245811" lon="2.388279">
        <ele>682.5</ele>
        <time>2019-08-19T00:36:14Z</time>
      </trkpt>
      <trkpt lat="42.24577" lon="2.388265">
        <ele>682.7</ele>
        <time>2019-08-19T00:36:16Z</time>
      </trkpt>
      <trkpt lat="42.245733" lon="2.388257">
        <ele>682.9</ele>
        <time>2019-08-19T00:36:18Z</time>
      </trkpt>
      <trkpt lat="42.245698" lon="2.388243">
        <ele>683.1</ele>
        <time>2019-08-19T00:36:20Z</time>
      </trkpt>
      <trkpt lat="42.245661" lon="2.388235">
        <ele>683.3</ele>
        <time>2019-08-19T00:36:22Z</time>
      </trkpt>
      <trkpt lat="42.245621" lon="2.388225">
        <ele>683.5</ele>
        <time>2019-08-19T00:36:24Z</time>
      </trkpt>
      <trkpt lat="42.245581" lon="2.388225">
        <ele>683.7</ele>
        <time>2019-08-19T00:36:26Z</time>
      </trkpt>
      <trkpt lat="42.245538" lon="2.388224">
        <ele>683.9</ele>
        <time>2019-08-19T00:36:28Z</time>
      </trkpt>
      <trkpt lat="42.24549" lon="2.388231">
        <ele>684.2</ele>
        <time>2019-08-19T00:36:30Z</time>
      </trkpt>
      <trkpt lat="42.245445" lon="2.38824">
        <ele>684.5</ele>
        <time>2019-08-19T00:36:32Z</time>
      </trkpt>
      <trkpt lat="42.245397" lon="2.388243">
        <ele>684.8</ele>
        <time>2019-08-19T00:36:34Z</time>
      </trkpt>
      <trkpt lat="42.245351" lon="2.388246">
        <ele>685.1</ele>
        <time>2019-08-19T00:36:36Z</time>
      </trkpt>
      <trkpt lat="42.245306" lon="2.388243">
        <ele>685.5</ele>
        <time>2019-08-19T00:36:38Z</time>
      </trkpt>
      <trkpt lat="42.245266" lon="2.388235">
        <ele>685.8</ele>
        <time>2019-08-19T00:36:40Z</time>
      </trkpt>
      <trkpt lat="42.245226" lon="2.38823">
        <ele>686.1</ele>
        <time>2019-08-19T00:36:42Z</time>
      </trkpt>
      <trkpt lat="42.245193" lon="2.388222">
        <ele>686.3</ele>
        <time>2019-08-19T00:36:44Z</time>
      </trkpt>
      <trkpt lat="42.24516" lon="2.388218">
        <ele>686.6</ele>
        <time>2019-08-19T00:36:46Z</time>
      </trkpt>
      <trkpt lat="42.245115" lon="2.388218">
        <ele>686.9</ele>
        <time>2019-08-19T00:36:48Z</time>
      </trkpt>
      <trkpt lat="42.245075" lon="2.388227">
        <ele>687.2</ele>
        <time>2019-08-19T00:36:50Z</time>
      </trkpt>
      <trkpt lat="42.245042" lon="2.388231">
        <ele>687.4</ele>
        <time>2019-08-19T00:36:52Z</time>
      </trkpt>
      <trkpt lat="42.245005" lon="2.38824">
        <ele>687.7</ele>
        <time>2019-08-19T00:36:54Z</time>
      </trkpt>
      <trkpt lat="42.244961" lon="2.388255">
        <ele>688</ele>
        <time>2019-08-19T00:36:56Z</time>
      </trkpt>
      <trkpt lat="42.244922" lon="2.388263">
        <ele>688.3</ele>
        <time>2019-08-19T00:36:58Z</time>
      </trkpt>
      <trkpt lat="42.244878" lon="2.388252">
        <ele>688.7</ele>
        <time>2019-08-19T00:37:00Z</time>
      </trkpt>
      <trkpt lat="42.244839" lon="2.388227">
        <ele>689</ele>
        <time>2019-08-19T00:37:02Z</time>
      </trkpt>
      <trkpt lat="42.244798" lon="2.388187">
        <ele>689.4</ele>
        <time>2019-08-19T00:37:04Z</time>
      </trkpt>
      <trkpt lat="42.244763" lon="2.388138">
        <ele>689.8</ele>
        <time>2019-08-19T00:37:06Z</time>
      </trkpt>
      <trkpt lat="42.244733" lon="2.388094">
        <ele>690.4</ele>
        <time>2019-08-19T00:37:08Z</time>
      </trkpt>
      <trkpt lat="42.244703" lon="2.38804">
        <ele>690.9</ele>
        <time>2019-08-19T00:37:10Z</time>
      </trkpt>
      <trkpt lat="42.244668" lon="2.387994">
        <ele>691.4</ele>
        <time>2019-08-19T00:37:12Z</time>
      </trkpt>
      <trkpt lat="42.244636" lon="2.387952">
        <ele>691.8</ele>
        <time>2019-08-19T00:37:14Z</time>
      </trkpt>
      <trkpt lat="42.244606" lon="2.387913">
        <ele>692.2</ele>
        <time>2019-08-19T00:37:16Z</time>
      </trkpt>
      <trkpt lat="42.244575" lon="2.387879">
        <ele>692.6</ele>
        <time>2019-08-19T00:37:18Z</time>
      </trkpt>
      <trkpt lat="42.244546" lon="2.387838">
        <ele>693</ele>
        <time>2019-08-19T00:37:20Z</time>
      </trkpt>
      <trkpt lat="42.244517" lon="2.387804">
        <ele>693.3</ele>
        <time>2019-08-19T00:37:22Z</time>
      </trkpt>
      <trkpt lat="42.244486" lon="2.387784">
        <ele>692.2</ele>
        <time>2019-08-19T00:37:24Z</time>
      </trkpt>
      <trkpt lat="42.244442" lon="2.387764">
        <ele>692.2</ele>
        <time>2019-08-19T00:37:26Z</time>
      </trkpt>
      <trkpt lat="42.244393" lon="2.387747">
        <ele>692.5</ele>
        <time>2019-08-19T00:37:28Z</time>
      </trkpt>
      <trkpt lat="42.244345" lon="2.387736">
        <ele>692.8</ele>
        <time>2019-08-19T00:37:30Z</time>
      </trkpt>
      <trkpt lat="42.244302" lon="2.387711">
        <ele>693</ele>
        <time>2019-08-19T00:37:32Z</time>
      </trkpt>
      <trkpt lat="42.244262" lon="2.387692">
        <ele>693.2</ele>
        <time>2019-08-19T00:37:34Z</time>
      </trkpt>
      <trkpt lat="42.244217" lon="2.387672">
        <ele>693.5</ele>
        <time>2019-08-19T00:37:36Z</time>
      </trkpt>
      <trkpt lat="42.244173" lon="2.387661">
        <ele>693.7</ele>
        <time>2019-08-19T00:37:38Z</time>
      </trkpt>
      <trkpt lat="42.244123" lon="2.387661">
        <ele>693.9</ele>
        <time>2019-08-19T00:37:40Z</time>
      </trkpt>
      <trkpt lat="42.244076" lon="2.387651">
        <ele>694.2</ele>
        <time>2019-08-19T00:37:42Z</time>
      </trkpt>
      <trkpt lat="42.244037" lon="2.387648">
        <ele>694.4</ele>
        <time>2019-08-19T00:37:44Z</time>
      </trkpt>
      <trkpt lat="42.244" lon="2.387649">
        <ele>694.5</ele>
        <time>2019-08-19T00:37:46Z</time>
      </trkpt>
      <trkpt lat="42.243962" lon="2.387641">
        <ele>694.7</ele>
        <time>2019-08-19T00:37:48Z</time>
      </trkpt>
      <trkpt lat="42.243931" lon="2.387626">
        <ele>694.9</ele>
        <time>2019-08-19T00:37:50Z</time>
      </trkpt>
      <trkpt lat="42.243904" lon="2.387603">
        <ele>695</ele>
        <time>2019-08-19T00:37:52Z</time>
      </trkpt>
      <trkpt lat="42.243872" lon="2.387572">
        <ele>695.2</ele>
        <time>2019-08-19T00:37:54Z</time>
      </trkpt>
      <trkpt lat="42.24384" lon="2.387534">
        <ele>695.4</ele>
        <time>2019-08-19T00:37:56Z</time>
      </trkpt>
      <trkpt lat="42.243829" lon="2.3875">
        <ele>695.5</ele>
        <time>2019-08-19T00:37:57Z</time>
      </trkpt>
      <trkpt lat="42.243815" lon="2.387435">
        <ele>695.7</ele>
        <time>2019-08-19T00:37:59Z</time>
      </trkpt>
      <trkpt lat="42.24381" lon="2.387374">
        <ele>695.9</ele>
        <time>2019-08-19T00:38:01Z</time>
      </trkpt>
      <trkpt lat="42.243821" lon="2.387325">
        <ele>696.1</ele>
        <time>2019-08-19T00:38:03Z</time>
      </trkpt>
      <trkpt lat="42.243842" lon="2.387287">
        <ele>696.2</ele>
        <time>2019-08-19T00:38:05Z</time>
      </trkpt>
      <trkpt lat="42.243874" lon="2.387258">
        <ele>696.3</ele>
        <time>2019-08-19T00:38:07Z</time>
      </trkpt>
      <trkpt lat="42.243913" lon="2.387245">
        <ele>696.5</ele>
        <time>2019-08-19T00:38:09Z</time>
      </trkpt>
      <trkpt lat="42.243949" lon="2.387241">
        <ele>696.6</ele>
        <time>2019-08-19T00:38:11Z</time>
      </trkpt>
      <trkpt lat="42.243985" lon="2.387252">
        <ele>696.8</ele>
        <time>2019-08-19T00:38:13Z</time>
      </trkpt>
      <trkpt lat="42.244016" lon="2.387287">
        <ele>696.9</ele>
        <time>2019-08-19T00:38:15Z</time>
      </trkpt>
      <trkpt lat="42.24405" lon="2.387325">
        <ele>697.1</ele>
        <time>2019-08-19T00:38:17Z</time>
      </trkpt>
      <trkpt lat="42.244083" lon="2.387362">
        <ele>697.3</ele>
        <time>2019-08-19T00:38:19Z</time>
      </trkpt>
      <trkpt lat="42.244111" lon="2.387398">
        <ele>697.4</ele>
        <time>2019-08-19T00:38:21Z</time>
      </trkpt>
      <trkpt lat="42.244138" lon="2.387437">
        <ele>697.6</ele>
        <time>2019-08-19T00:38:23Z</time>
      </trkpt>
      <trkpt lat="42.244174" lon="2.387466">
        <ele>697.8</ele>
        <time>2019-08-19T00:38:25Z</time>
      </trkpt>
      <trkpt lat="42.244206" lon="2.387495">
        <ele>697.9</ele>
        <time>2019-08-19T00:38:27Z</time>
      </trkpt>
      <trkpt lat="42.244239" lon="2.38752">
        <ele>698.1</ele>
        <time>2019-08-19T00:38:29Z</time>
      </trkpt>
      <trkpt lat="42.244271" lon="2.387546">
        <ele>698.3</ele>
        <time>2019-08-19T00:38:31Z</time>
      </trkpt>
      <trkpt lat="42.244302" lon="2.387572">
        <ele>698.4</ele>
        <time>2019-08-19T00:38:33Z</time>
      </trkpt>
      <trkpt lat="42.24434" lon="2.387594">
        <ele>698.6</ele>
        <time>2019-08-19T00:38:35Z</time>
      </trkpt>
      <trkpt lat="42.244377" lon="2.387622">
        <ele>698.8</ele>
        <time>2019-08-19T00:38:37Z</time>
      </trkpt>
      <trkpt lat="42.244413" lon="2.387651">
        <ele>698.9</ele>
        <time>2019-08-19T00:38:39Z</time>
      </trkpt>
      <trkpt lat="42.244451" lon="2.387678">
        <ele>699.1</ele>
        <time>2019-08-19T00:38:41Z</time>
      </trkpt>
      <trkpt lat="42.244488" lon="2.387704">
        <ele>699.3</ele>
        <time>2019-08-19T00:38:43Z</time>
      </trkpt>
      <trkpt lat="42.244525" lon="2.387729">
        <ele>699.5</ele>
        <time>2019-08-19T00:38:45Z</time>
      </trkpt>
      <trkpt lat="42.244558" lon="2.387759">
        <ele>699.7</ele>
        <time>2019-08-19T00:38:47Z</time>
      </trkpt>
      <trkpt lat="42.24459" lon="2.387788">
        <ele>699.8</ele>
        <time>2019-08-19T00:38:49Z</time>
      </trkpt>
      <trkpt lat="42.244617" lon="2.387828">
        <ele>700.1</ele>
        <time>2019-08-19T00:38:51Z</time>
      </trkpt>
      <trkpt lat="42.244642" lon="2.387873">
        <ele>700.3</ele>
        <time>2019-08-19T00:38:53Z</time>
      </trkpt>
      <trkpt lat="42.244669" lon="2.387918">
        <ele>700.5</ele>
        <time>2019-08-19T00:38:55Z</time>
      </trkpt>
      <trkpt lat="42.244704" lon="2.387959">
        <ele>700.9</ele>
        <time>2019-08-19T00:38:57Z</time>
      </trkpt>
      <trkpt lat="42.244745" lon="2.388001">
        <ele>701.3</ele>
        <time>2019-08-19T00:38:59Z</time>
      </trkpt>
      <trkpt lat="42.244795" lon="2.388028">
        <ele>701.7</ele>
        <time>2019-08-19T00:39:01Z</time>
      </trkpt>
      <trkpt lat="42.244822" lon="2.388035">
        <ele>701.9</ele>
        <time>2019-08-19T00:39:02Z</time>
      </trkpt>
      <trkpt lat="42.244877" lon="2.388037">
        <ele>702.3</ele>
        <time>2019-08-19T00:39:04Z</time>
      </trkpt>
      <trkpt lat="42.244906" lon="2.388035">
        <ele>702.6</ele>
        <time>2019-08-19T00:39:05Z</time>
      </trkpt>
      <trkpt lat="42.244935" lon="2.388033">
        <ele>702.9</ele>
        <time>2019-08-19T00:39:06Z</time>
      </trkpt>
      <trkpt lat="42.244966" lon="2.388035">
        <ele>703.1</ele>
        <time>2019-08-19T00:39:07Z</time>
      </trkpt>
      <trkpt lat="42.244997" lon="2.388035">
        <ele>703.4</ele>
        <time>2019-08-19T00:39:08Z</time>
      </trkpt>
      <trkpt lat="42.245025" lon="2.388036">
        <ele>703.7</ele>
        <time>2019-08-19T00:39:09Z</time>
      </trkpt>
      <trkpt lat="42.245053" lon="2.388038">
        <ele>703.9</ele>
        <time>2019-08-19T00:39:10Z</time>
      </trkpt>
      <trkpt lat="42.245107" lon="2.388035">
        <ele>704.4</ele>
        <time>2019-08-19T00:39:12Z</time>
      </trkpt>
      <trkpt lat="42.245137" lon="2.388033">
        <ele>704.7</ele>
        <time>2019-08-19T00:39:13Z</time>
      </trkpt>
      <trkpt lat="42.245167" lon="2.388029">
        <ele>704.9</ele>
        <time>2019-08-19T00:39:14Z</time>
      </trkpt>
      <trkpt lat="42.245194" lon="2.388022">
        <ele>705.1</ele>
        <time>2019-08-19T00:39:15Z</time>
      </trkpt>
      <trkpt lat="42.245222" lon="2.388018">
        <ele>705.4</ele>
        <time>2019-08-19T00:39:16Z</time>
      </trkpt>
      <trkpt lat="42.245252" lon="2.388009">
        <ele>705.6</ele>
        <time>2019-08-19T00:39:17Z</time>
      </trkpt>
      <trkpt lat="42.245284" lon="2.387993">
        <ele>705.9</ele>
        <time>2019-08-19T00:39:18Z</time>
      </trkpt>
      <trkpt lat="42.245319" lon="2.387979">
        <ele>706.2</ele>
        <time>2019-08-19T00:39:19Z</time>
      </trkpt>
      <trkpt lat="42.245353" lon="2.387971">
        <ele>706.5</ele>
        <time>2019-08-19T00:39:20Z</time>
      </trkpt>
      <trkpt lat="42.245384" lon="2.387964">
        <ele>706.7</ele>
        <time>2019-08-19T00:39:21Z</time>
      </trkpt>
      <trkpt lat="42.245413" lon="2.387953">
        <ele>707</ele>
        <time>2019-08-19T00:39:22Z</time>
      </trkpt>
      <trkpt lat="42.245441" lon="2.387937">
        <ele>707.2</ele>
        <time>2019-08-19T00:39:23Z</time>
      </trkpt>
      <trkpt lat="42.24547" lon="2.387923">
        <ele>707.4</ele>
        <time>2019-08-19T00:39:24Z</time>
      </trkpt>
      <trkpt lat="42.245501" lon="2.387912">
        <ele>707.7</ele>
        <time>2019-08-19T00:39:25Z</time>
      </trkpt>
      <trkpt lat="42.245535" lon="2.387901">
        <ele>708</ele>
        <time>2019-08-19T00:39:26Z</time>
      </trkpt>
      <trkpt lat="42.24557" lon="2.387893">
        <ele>708.3</ele>
        <time>2019-08-19T00:39:27Z</time>
      </trkpt>
      <trkpt lat="42.245606" lon="2.387886">
        <ele>708.6</ele>
        <time>2019-08-19T00:39:28Z</time>
      </trkpt>
      <trkpt lat="42.245642" lon="2.387879">
        <ele>708.9</ele>
        <time>2019-08-19T00:39:29Z</time>
      </trkpt>
      <trkpt lat="42.245677" lon="2.387872">
        <ele>709.2</ele>
        <time>2019-08-19T00:39:30Z</time>
      </trkpt>
      <trkpt lat="42.245712" lon="2.387868">
        <ele>709.5</ele>
        <time>2019-08-19T00:39:31Z</time>
      </trkpt>
      <trkpt lat="42.245743" lon="2.387866">
        <ele>709.8</ele>
        <time>2019-08-19T00:39:32Z</time>
      </trkpt>
      <trkpt lat="42.245775" lon="2.387865">
        <ele>710.1</ele>
        <time>2019-08-19T00:39:33Z</time>
      </trkpt>
      <trkpt lat="42.245807" lon="2.387865">
        <ele>710.4</ele>
        <time>2019-08-19T00:39:34Z</time>
      </trkpt>
      <trkpt lat="42.245835" lon="2.38786">
        <ele>710.6</ele>
        <time>2019-08-19T00:39:35Z</time>
      </trkpt>
      <trkpt lat="42.245882" lon="2.387853">
        <ele>711.1</ele>
        <time>2019-08-19T00:39:37Z</time>
      </trkpt>
      <trkpt lat="42.245931" lon="2.387856">
        <ele>711.5</ele>
        <time>2019-08-19T00:39:39Z</time>
      </trkpt>
      <trkpt lat="42.245982" lon="2.387858">
        <ele>712</ele>
        <time>2019-08-19T00:39:41Z</time>
      </trkpt>
      <trkpt lat="42.246033" lon="2.387853">
        <ele>712.4</ele>
        <time>2019-08-19T00:39:43Z</time>
      </trkpt>
      <trkpt lat="42.246079" lon="2.38785">
        <ele>712.8</ele>
        <time>2019-08-19T00:39:45Z</time>
      </trkpt>
      <trkpt lat="42.246123" lon="2.387849">
        <ele>713.1</ele>
        <time>2019-08-19T00:39:47Z</time>
      </trkpt>
      <trkpt lat="42.246169" lon="2.387842">
        <ele>713.5</ele>
        <time>2019-08-19T00:39:49Z</time>
      </trkpt>
      <trkpt lat="42.246208" lon="2.387833">
        <ele>713.9</ele>
        <time>2019-08-19T00:39:51Z</time>
      </trkpt>
      <trkpt lat="42.246247" lon="2.387826">
        <ele>714.1</ele>
        <time>2019-08-19T00:39:53Z</time>
      </trkpt>
      <trkpt lat="42.246287" lon="2.387825">
        <ele>714.4</ele>
        <time>2019-08-19T00:39:55Z</time>
      </trkpt>
      <trkpt lat="42.246327" lon="2.387824">
        <ele>714.7</ele>
        <time>2019-08-19T00:39:57Z</time>
      </trkpt>
      <trkpt lat="42.24637" lon="2.387814">
        <ele>715</ele>
        <time>2019-08-19T00:39:59Z</time>
      </trkpt>
      <trkpt lat="42.246413" lon="2.387811">
        <ele>715.2</ele>
        <time>2019-08-19T00:40:01Z</time>
      </trkpt>
      <trkpt lat="42.24645" lon="2.387828">
        <ele>715.5</ele>
        <time>2019-08-19T00:40:03Z</time>
      </trkpt>
      <trkpt lat="42.246488" lon="2.387838">
        <ele>715.7</ele>
        <time>2019-08-19T00:40:05Z</time>
      </trkpt>
      <trkpt lat="42.246528" lon="2.387841">
        <ele>715.9</ele>
        <time>2019-08-19T00:40:07Z</time>
      </trkpt>
      <trkpt lat="42.24657" lon="2.387841">
        <ele>716.2</ele>
        <time>2019-08-19T00:40:09Z</time>
      </trkpt>
      <trkpt lat="42.246608" lon="2.387843">
        <ele>716.4</ele>
        <time>2019-08-19T00:40:11Z</time>
      </trkpt>
      <trkpt lat="42.246646" lon="2.387854">
        <ele>716.6</ele>
        <time>2019-08-19T00:40:13Z</time>
      </trkpt>
      <trkpt lat="42.246685" lon="2.387864">
        <ele>716.8</ele>
        <time>2019-08-19T00:40:15Z</time>
      </trkpt>
      <trkpt lat="42.246725" lon="2.38787">
        <ele>717</ele>
        <time>2019-08-19T00:40:17Z</time>
      </trkpt>
      <trkpt lat="42.246769" lon="2.387877">
        <ele>717.3</ele>
        <time>2019-08-19T00:40:19Z</time>
      </trkpt>
      <trkpt lat="42.246808" lon="2.387891">
        <ele>717.5</ele>
        <time>2019-08-19T00:40:21Z</time>
      </trkpt>
      <trkpt lat="42.246845" lon="2.387913">
        <ele>717.8</ele>
        <time>2019-08-19T00:40:23Z</time>
      </trkpt>
      <trkpt lat="42.24688" lon="2.387923">
        <ele>718</ele>
        <time>2019-08-19T00:40:25Z</time>
      </trkpt>
      <trkpt lat="42.246913" lon="2.387941">
        <ele>718.2</ele>
        <time>2019-08-19T00:40:27Z</time>
      </trkpt>
      <trkpt lat="42.246945" lon="2.387962">
        <ele>718.4</ele>
        <time>2019-08-19T00:40:29Z</time>
      </trkpt>
      <trkpt lat="42.24698" lon="2.387976">
        <ele>718.7</ele>
        <time>2019-08-19T00:40:31Z</time>
      </trkpt>
      <trkpt lat="42.247012" lon="2.38798">
        <ele>718.9</ele>
        <time>2019-08-19T00:40:33Z</time>
      </trkpt>
      <trkpt lat="42.247045" lon="2.387983">
        <ele>719.1</ele>
        <time>2019-08-19T00:40:35Z</time>
      </trkpt>
      <trkpt lat="42.247085" lon="2.38799">
        <ele>719.4</ele>
        <time>2019-08-19T00:40:37Z</time>
      </trkpt>
      <trkpt lat="42.247128" lon="2.388004">
        <ele>719.7</ele>
        <time>2019-08-19T00:40:39Z</time>
      </trkpt>
      <trkpt lat="42.247171" lon="2.388015">
        <ele>720.1</ele>
        <time>2019-08-19T00:40:41Z</time>
      </trkpt>
      <trkpt lat="42.247208" lon="2.388026">
        <ele>720.4</ele>
        <time>2019-08-19T00:40:43Z</time>
      </trkpt>
      <trkpt lat="42.247244" lon="2.388051">
        <ele>720.7</ele>
        <time>2019-08-19T00:40:45Z</time>
      </trkpt>
      <trkpt lat="42.247275" lon="2.388089">
        <ele>721</ele>
        <time>2019-08-19T00:40:47Z</time>
      </trkpt>
      <trkpt lat="42.247297" lon="2.388139">
        <ele>721.4</ele>
        <time>2019-08-19T00:40:49Z</time>
      </trkpt>
      <trkpt lat="42.247304" lon="2.388189">
        <ele>721.7</ele>
        <time>2019-08-19T00:40:51Z</time>
      </trkpt>
      <trkpt lat="42.247306" lon="2.388244">
        <ele>722.1</ele>
        <time>2019-08-19T00:40:53Z</time>
      </trkpt>
      <trkpt lat="42.247294" lon="2.388302">
        <ele>722.4</ele>
        <time>2019-08-19T00:40:55Z</time>
      </trkpt>
      <trkpt lat="42.247277" lon="2.388357">
        <ele>722.8</ele>
        <time>2019-08-19T00:40:57Z</time>
      </trkpt>
      <trkpt lat="42.247262" lon="2.388406">
        <ele>723.1</ele>
        <time>2019-08-19T00:40:59Z</time>
      </trkpt>
      <trkpt lat="42.247249" lon="2.38845">
        <ele>723.4</ele>
        <time>2019-08-19T00:41:01Z</time>
      </trkpt>
      <trkpt lat="42.247231" lon="2.388494">
        <ele>723.7</ele>
        <time>2019-08-19T00:41:03Z</time>
      </trkpt>
      <trkpt lat="42.247215" lon="2.388536">
        <ele>724</ele>
        <time>2019-08-19T00:41:05Z</time>
      </trkpt>
      <trkpt lat="42.247199" lon="2.388582">
        <ele>724.3</ele>
        <time>2019-08-19T00:41:07Z</time>
      </trkpt>
      <trkpt lat="42.247185" lon="2.38863">
        <ele>724.6</ele>
        <time>2019-08-19T00:41:09Z</time>
      </trkpt>
      <trkpt lat="42.247171" lon="2.38868">
        <ele>724.9</ele>
        <time>2019-08-19T00:41:11Z</time>
      </trkpt>
      <trkpt lat="42.247153" lon="2.388731">
        <ele>725.2</ele>
        <time>2019-08-19T00:41:13Z</time>
      </trkpt>
      <trkpt lat="42.247138" lon="2.388778">
        <ele>725.6</ele>
        <time>2019-08-19T00:41:15Z</time>
      </trkpt>
      <trkpt lat="42.247118" lon="2.388827">
        <ele>725.9</ele>
        <time>2019-08-19T00:41:17Z</time>
      </trkpt>
      <trkpt lat="42.247098" lon="2.388875">
        <ele>726.2</ele>
        <time>2019-08-19T00:41:19Z</time>
      </trkpt>
      <trkpt lat="42.247083" lon="2.388922">
        <ele>726.5</ele>
        <time>2019-08-19T00:41:21Z</time>
      </trkpt>
      <trkpt lat="42.247073" lon="2.388972">
        <ele>726.8</ele>
        <time>2019-08-19T00:41:23Z</time>
      </trkpt>
      <trkpt lat="42.247062" lon="2.389026">
        <ele>727.2</ele>
        <time>2019-08-19T00:41:25Z</time>
      </trkpt>
      <trkpt lat="42.247051" lon="2.389086">
        <ele>727.6</ele>
        <time>2019-08-19T00:41:27Z</time>
      </trkpt>
      <trkpt lat="42.247033" lon="2.389143">
        <ele>727.9</ele>
        <time>2019-08-19T00:41:29Z</time>
      </trkpt>
      <trkpt lat="42.247011" lon="2.389199">
        <ele>728.3</ele>
        <time>2019-08-19T00:41:31Z</time>
      </trkpt>
      <trkpt lat="42.24699" lon="2.389252">
        <ele>728.6</ele>
        <time>2019-08-19T00:41:33Z</time>
      </trkpt>
      <trkpt lat="42.246969" lon="2.389302">
        <ele>729</ele>
        <time>2019-08-19T00:41:35Z</time>
      </trkpt>
      <trkpt lat="42.246943" lon="2.389347">
        <ele>729.3</ele>
        <time>2019-08-19T00:41:37Z</time>
      </trkpt>
      <trkpt lat="42.246915" lon="2.389388">
        <ele>729.6</ele>
        <time>2019-08-19T00:41:39Z</time>
      </trkpt>
      <trkpt lat="42.246888" lon="2.389432">
        <ele>729.9</ele>
        <time>2019-08-19T00:41:41Z</time>
      </trkpt>
      <trkpt lat="42.246859" lon="2.389479">
        <ele>730.3</ele>
        <time>2019-08-19T00:41:43Z</time>
      </trkpt>
      <trkpt lat="42.246833" lon="2.389522">
        <ele>730.6</ele>
        <time>2019-08-19T00:41:45Z</time>
      </trkpt>
      <trkpt lat="42.246806" lon="2.389569">
        <ele>730.9</ele>
        <time>2019-08-19T00:41:47Z</time>
      </trkpt>
      <trkpt lat="42.246776" lon="2.389614">
        <ele>731.2</ele>
        <time>2019-08-19T00:41:49Z</time>
      </trkpt>
      <trkpt lat="42.246749" lon="2.389665">
        <ele>731.6</ele>
        <time>2019-08-19T00:41:51Z</time>
      </trkpt>
      <trkpt lat="42.246728" lon="2.389715">
        <ele>731.9</ele>
        <time>2019-08-19T00:41:53Z</time>
      </trkpt>
      <trkpt lat="42.246709" lon="2.38976">
        <ele>732.1</ele>
        <time>2019-08-19T00:41:55Z</time>
      </trkpt>
      <trkpt lat="42.246691" lon="2.389809">
        <ele>732.4</ele>
        <time>2019-08-19T00:41:57Z</time>
      </trkpt>
      <trkpt lat="42.246677" lon="2.389859">
        <ele>732.7</ele>
        <time>2019-08-19T00:41:59Z</time>
      </trkpt>
      <trkpt lat="42.246658" lon="2.389907">
        <ele>733</ele>
        <time>2019-08-19T00:42:01Z</time>
      </trkpt>
      <trkpt lat="42.246645" lon="2.389955">
        <ele>733.3</ele>
        <time>2019-08-19T00:42:03Z</time>
      </trkpt>
      <trkpt lat="42.246636" lon="2.390011">
        <ele>733.6</ele>
        <time>2019-08-19T00:42:05Z</time>
      </trkpt>
      <trkpt lat="42.246603" lon="2.390043">
        <ele>733.9</ele>
        <time>2019-08-19T00:42:07Z</time>
      </trkpt>
      <trkpt lat="42.246571" lon="2.390076">
        <ele>734.2</ele>
        <time>2019-08-19T00:42:09Z</time>
      </trkpt>
      <trkpt lat="42.246538" lon="2.390105">
        <ele>734.5</ele>
        <time>2019-08-19T00:42:11Z</time>
      </trkpt>
      <trkpt lat="42.246506" lon="2.390136">
        <ele>734.8</ele>
        <time>2019-08-19T00:42:13Z</time>
      </trkpt>
      <trkpt lat="42.246472" lon="2.390168">
        <ele>735.1</ele>
        <time>2019-08-19T00:42:15Z</time>
      </trkpt>
      <trkpt lat="42.246438" lon="2.390204">
        <ele>735.5</ele>
        <time>2019-08-19T00:42:17Z</time>
      </trkpt>
      <trkpt lat="42.24641" lon="2.390238">
        <ele>735.7</ele>
        <time>2019-08-19T00:42:19Z</time>
      </trkpt>
      <trkpt lat="42.246369" lon="2.390279">
        <ele>736.1</ele>
        <time>2019-08-19T00:42:21Z</time>
      </trkpt>
      <trkpt lat="42.246331" lon="2.39032">
        <ele>736.4</ele>
        <time>2019-08-19T00:42:23Z</time>
      </trkpt>
      <trkpt lat="42.246287" lon="2.390358">
        <ele>736.7</ele>
        <time>2019-08-19T00:42:25Z</time>
      </trkpt>
      <trkpt lat="42.246244" lon="2.39039">
        <ele>737</ele>
        <time>2019-08-19T00:42:27Z</time>
      </trkpt>
      <trkpt lat="42.246203" lon="2.39042">
        <ele>737.3</ele>
        <time>2019-08-19T00:42:29Z</time>
      </trkpt>
      <trkpt lat="42.246163" lon="2.390458">
        <ele>737.5</ele>
        <time>2019-08-19T00:42:31Z</time>
      </trkpt>
      <trkpt lat="42.246123" lon="2.390501">
        <ele>737.8</ele>
        <time>2019-08-19T00:42:33Z</time>
      </trkpt>
      <trkpt lat="42.246104" lon="2.390528">
        <ele>738</ele>
        <time>2019-08-19T00:42:34Z</time>
      </trkpt>
      <trkpt lat="42.246086" lon="2.390556">
        <ele>738.1</ele>
        <time>2019-08-19T00:42:35Z</time>
      </trkpt>
      <trkpt lat="42.246065" lon="2.390599">
        <ele>738.3</ele>
        <time>2019-08-19T00:42:38Z</time>
      </trkpt>
      <trkpt lat="42.246047" lon="2.390634">
        <ele>738.4</ele>
        <time>2019-08-19T00:42:40Z</time>
      </trkpt>
      <trkpt lat="42.246018" lon="2.390679">
        <ele>738.6</ele>
        <time>2019-08-19T00:42:42Z</time>
      </trkpt>
      <trkpt lat="42.245998" lon="2.390715">
        <ele>738.8</ele>
        <time>2019-08-19T00:42:43Z</time>
      </trkpt>
      <trkpt lat="42.245982" lon="2.39075">
        <ele>738.9</ele>
        <time>2019-08-19T00:42:44Z</time>
      </trkpt>
      <trkpt lat="42.245965" lon="2.390784">
        <ele>739</ele>
        <time>2019-08-19T00:42:45Z</time>
      </trkpt>
      <trkpt lat="42.245951" lon="2.39082">
        <ele>739.2</ele>
        <time>2019-08-19T00:42:46Z</time>
      </trkpt>
      <trkpt lat="42.245937" lon="2.390854">
        <ele>739.3</ele>
        <time>2019-08-19T00:42:47Z</time>
      </trkpt>
      <trkpt lat="42.245923" lon="2.390887">
        <ele>739.4</ele>
        <time>2019-08-19T00:42:48Z</time>
      </trkpt>
      <trkpt lat="42.245896" lon="2.390945">
        <ele>739.6</ele>
        <time>2019-08-19T00:42:50Z</time>
      </trkpt>
      <trkpt lat="42.245872" lon="2.391007">
        <ele>739.8</ele>
        <time>2019-08-19T00:42:52Z</time>
      </trkpt>
      <trkpt lat="42.245849" lon="2.391067">
        <ele>740</ele>
        <time>2019-08-19T00:42:54Z</time>
      </trkpt>
      <trkpt lat="42.245818" lon="2.391119">
        <ele>740.2</ele>
        <time>2019-08-19T00:42:56Z</time>
      </trkpt>
      <trkpt lat="42.24579" lon="2.391167">
        <ele>740.4</ele>
        <time>2019-08-19T00:42:58Z</time>
      </trkpt>
      <trkpt lat="42.245763" lon="2.391214">
        <ele>740.6</ele>
        <time>2019-08-19T00:43:00Z</time>
      </trkpt>
      <trkpt lat="42.245729" lon="2.39125">
        <ele>740.9</ele>
        <time>2019-08-19T00:43:02Z</time>
      </trkpt>
      <trkpt lat="42.245692" lon="2.391295">
        <ele>741.1</ele>
        <time>2019-08-19T00:43:04Z</time>
      </trkpt>
      <trkpt lat="42.245662" lon="2.391345">
        <ele>741.4</ele>
        <time>2019-08-19T00:43:06Z</time>
      </trkpt>
      <trkpt lat="42.245631" lon="2.391392">
        <ele>741.8</ele>
        <time>2019-08-19T00:43:08Z</time>
      </trkpt>
      <trkpt lat="42.245598" lon="2.391438">
        <ele>742.1</ele>
        <time>2019-08-19T00:43:10Z</time>
      </trkpt>
      <trkpt lat="42.245574" lon="2.391494">
        <ele>742.5</ele>
        <time>2019-08-19T00:43:12Z</time>
      </trkpt>
      <trkpt lat="42.245556" lon="2.39155">
        <ele>742.9</ele>
        <time>2019-08-19T00:43:14Z</time>
      </trkpt>
      <trkpt lat="42.24554" lon="2.391603">
        <ele>743.3</ele>
        <time>2019-08-19T00:43:16Z</time>
      </trkpt>
      <trkpt lat="42.245535" lon="2.391658">
        <ele>743.7</ele>
        <time>2019-08-19T00:43:18Z</time>
      </trkpt>
      <trkpt lat="42.245547" lon="2.391719">
        <ele>744.2</ele>
        <time>2019-08-19T00:43:20Z</time>
      </trkpt>
      <trkpt lat="42.245573" lon="2.391775">
        <ele>744.7</ele>
        <time>2019-08-19T00:43:22Z</time>
      </trkpt>
      <trkpt lat="42.245612" lon="2.391819">
        <ele>745.2</ele>
        <time>2019-08-19T00:43:24Z</time>
      </trkpt>
      <trkpt lat="42.245653" lon="2.391857">
        <ele>745.7</ele>
        <time>2019-08-19T00:43:26Z</time>
      </trkpt>
      <trkpt lat="42.245691" lon="2.391896">
        <ele>746.2</ele>
        <time>2019-08-19T00:43:28Z</time>
      </trkpt>
      <trkpt lat="42.24573" lon="2.391928">
        <ele>746.6</ele>
        <time>2019-08-19T00:43:30Z</time>
      </trkpt>
      <trkpt lat="42.245765" lon="2.391946">
        <ele>746.9</ele>
        <time>2019-08-19T00:43:32Z</time>
      </trkpt>
      <trkpt lat="42.2458" lon="2.391967">
        <ele>747.2</ele>
        <time>2019-08-19T00:43:34Z</time>
      </trkpt>
      <trkpt lat="42.245836" lon="2.391993">
        <ele>747.5</ele>
        <time>2019-08-19T00:43:36Z</time>
      </trkpt>
      <trkpt lat="42.245873" lon="2.39202">
        <ele>747.9</ele>
        <time>2019-08-19T00:43:38Z</time>
      </trkpt>
      <trkpt lat="42.245914" lon="2.392051">
        <ele>748.2</ele>
        <time>2019-08-19T00:43:40Z</time>
      </trkpt>
      <trkpt lat="42.245953" lon="2.392077">
        <ele>748.5</ele>
        <time>2019-08-19T00:43:42Z</time>
      </trkpt>
      <trkpt lat="42.24599" lon="2.392102">
        <ele>748.8</ele>
        <time>2019-08-19T00:43:44Z</time>
      </trkpt>
      <trkpt lat="42.246032" lon="2.392132">
        <ele>749.1</ele>
        <time>2019-08-19T00:43:46Z</time>
      </trkpt>
      <trkpt lat="42.246076" lon="2.392158">
        <ele>749.4</ele>
        <time>2019-08-19T00:43:48Z</time>
      </trkpt>
      <trkpt lat="42.246118" lon="2.392185">
        <ele>749.8</ele>
        <time>2019-08-19T00:43:50Z</time>
      </trkpt>
      <trkpt lat="42.246161" lon="2.392208">
        <ele>750.1</ele>
        <time>2019-08-19T00:43:52Z</time>
      </trkpt>
      <trkpt lat="42.246203" lon="2.392237">
        <ele>750.4</ele>
        <time>2019-08-19T00:43:54Z</time>
      </trkpt>
      <trkpt lat="42.246243" lon="2.392263">
        <ele>750.7</ele>
        <time>2019-08-19T00:43:56Z</time>
      </trkpt>
      <trkpt lat="42.246287" lon="2.392288">
        <ele>751</ele>
        <time>2019-08-19T00:43:58Z</time>
      </trkpt>
      <trkpt lat="42.246328" lon="2.392323">
        <ele>751.4</ele>
        <time>2019-08-19T00:44:00Z</time>
      </trkpt>
      <trkpt lat="42.246372" lon="2.392361">
        <ele>751.7</ele>
        <time>2019-08-19T00:44:02Z</time>
      </trkpt>
      <trkpt lat="42.246409" lon="2.392388">
        <ele>752</ele>
        <time>2019-08-19T00:44:04Z</time>
      </trkpt>
      <trkpt lat="42.246442" lon="2.39243">
        <ele>752.4</ele>
        <time>2019-08-19T00:44:06Z</time>
      </trkpt>
      <trkpt lat="42.246475" lon="2.392474">
        <ele>752.7</ele>
        <time>2019-08-19T00:44:08Z</time>
      </trkpt>
      <trkpt lat="42.246505" lon="2.392515">
        <ele>753.1</ele>
        <time>2019-08-19T00:44:10Z</time>
      </trkpt>
      <trkpt lat="42.246529" lon="2.392567">
        <ele>753.4</ele>
        <time>2019-08-19T00:44:12Z</time>
      </trkpt>
      <trkpt lat="42.246546" lon="2.392618">
        <ele>753.8</ele>
        <time>2019-08-19T00:44:14Z</time>
      </trkpt>
      <trkpt lat="42.246563" lon="2.392665">
        <ele>754.1</ele>
        <time>2019-08-19T00:44:16Z</time>
      </trkpt>
      <trkpt lat="42.246573" lon="2.392724">
        <ele>754.6</ele>
        <time>2019-08-19T00:44:18Z</time>
      </trkpt>
      <trkpt lat="42.246577" lon="2.392787">
        <ele>755</ele>
        <time>2019-08-19T00:44:20Z</time>
      </trkpt>
      <trkpt lat="42.24658" lon="2.392849">
        <ele>755.5</ele>
        <time>2019-08-19T00:44:22Z</time>
      </trkpt>
      <trkpt lat="42.246566" lon="2.392907">
        <ele>756</ele>
        <time>2019-08-19T00:44:24Z</time>
      </trkpt>
      <trkpt lat="42.246549" lon="2.392967">
        <ele>756.5</ele>
        <time>2019-08-19T00:44:26Z</time>
      </trkpt>
      <trkpt lat="42.246536" lon="2.393018">
        <ele>756.9</ele>
        <time>2019-08-19T00:44:28Z</time>
      </trkpt>
      <trkpt lat="42.246517" lon="2.393068">
        <ele>757.8</ele>
        <time>2019-08-19T00:44:30Z</time>
      </trkpt>
      <trkpt lat="42.246488" lon="2.393115">
        <ele>758</ele>
        <time>2019-08-19T00:44:32Z</time>
      </trkpt>
      <trkpt lat="42.246456" lon="2.393161">
        <ele>758.2</ele>
        <time>2019-08-19T00:44:34Z</time>
      </trkpt>
      <trkpt lat="42.246427" lon="2.393206">
        <ele>758.4</ele>
        <time>2019-08-19T00:44:36Z</time>
      </trkpt>
      <trkpt lat="42.246398" lon="2.393247">
        <ele>758.6</ele>
        <time>2019-08-19T00:44:38Z</time>
      </trkpt>
      <trkpt lat="42.246374" lon="2.393294">
        <ele>758.8</ele>
        <time>2019-08-19T00:44:40Z</time>
      </trkpt>
      <trkpt lat="42.246353" lon="2.393347">
        <ele>759</ele>
        <time>2019-08-19T00:44:42Z</time>
      </trkpt>
      <trkpt lat="42.246334" lon="2.393396">
        <ele>759.2</ele>
        <time>2019-08-19T00:44:44Z</time>
      </trkpt>
      <trkpt lat="42.246311" lon="2.393448">
        <ele>759.4</ele>
        <time>2019-08-19T00:44:46Z</time>
      </trkpt>
      <trkpt lat="42.246293" lon="2.393499">
        <ele>759.6</ele>
        <time>2019-08-19T00:44:48Z</time>
      </trkpt>
      <trkpt lat="42.246277" lon="2.393546">
        <ele>759.8</ele>
        <time>2019-08-19T00:44:50Z</time>
      </trkpt>
      <trkpt lat="42.246253" lon="2.393598">
        <ele>760</ele>
        <time>2019-08-19T00:44:52Z</time>
      </trkpt>
      <trkpt lat="42.246233" lon="2.393656">
        <ele>760.3</ele>
        <time>2019-08-19T00:44:54Z</time>
      </trkpt>
      <trkpt lat="42.246227" lon="2.393693">
        <ele>760.4</ele>
        <time>2019-08-19T00:44:56Z</time>
      </trkpt>
      <trkpt lat="42.246218" lon="2.393735">
        <ele>760.6</ele>
        <time>2019-08-19T00:44:58Z</time>
      </trkpt>
      <trkpt lat="42.246201" lon="2.393803">
        <ele>760.9</ele>
        <time>2019-08-19T00:45:00Z</time>
      </trkpt>
      <trkpt lat="42.246195" lon="2.393841">
        <ele>761</ele>
        <time>2019-08-19T00:45:01Z</time>
      </trkpt>
      <trkpt lat="42.24619" lon="2.393881">
        <ele>761.2</ele>
        <time>2019-08-19T00:45:02Z</time>
      </trkpt>
      <trkpt lat="42.246185" lon="2.393939">
        <ele>761.4</ele>
        <time>2019-08-19T00:45:04Z</time>
      </trkpt>
      <trkpt lat="42.246178" lon="2.393995">
        <ele>761.7</ele>
        <time>2019-08-19T00:45:07Z</time>
      </trkpt>
      <trkpt lat="42.246173" lon="2.394041">
        <ele>761.9</ele>
        <time>2019-08-19T00:45:09Z</time>
      </trkpt>
      <trkpt lat="42.246171" lon="2.394102">
        <ele>762.1</ele>
        <time>2019-08-19T00:45:11Z</time>
      </trkpt>
      <trkpt lat="42.246173" lon="2.394143">
        <ele>762.3</ele>
        <time>2019-08-19T00:45:12Z</time>
      </trkpt>
      <trkpt lat="42.246178" lon="2.394184">
        <ele>762.4</ele>
        <time>2019-08-19T00:45:13Z</time>
      </trkpt>
      <trkpt lat="42.246186" lon="2.394223">
        <ele>762.6</ele>
        <time>2019-08-19T00:45:14Z</time>
      </trkpt>
      <trkpt lat="42.246197" lon="2.394258">
        <ele>762.8</ele>
        <time>2019-08-19T00:45:15Z</time>
      </trkpt>
      <trkpt lat="42.246208" lon="2.394292">
        <ele>762.9</ele>
        <time>2019-08-19T00:45:16Z</time>
      </trkpt>
      <trkpt lat="42.24623" lon="2.394356">
        <ele>763.2</ele>
        <time>2019-08-19T00:45:18Z</time>
      </trkpt>
      <trkpt lat="42.246251" lon="2.394411">
        <ele>763.4</ele>
        <time>2019-08-19T00:45:20Z</time>
      </trkpt>
      <trkpt lat="42.246275" lon="2.394458">
        <ele>763.6</ele>
        <time>2019-08-19T00:45:22Z</time>
      </trkpt>
      <trkpt lat="42.246295" lon="2.394493">
        <ele>763.8</ele>
        <time>2019-08-19T00:45:24Z</time>
      </trkpt>
      <trkpt lat="42.246309" lon="2.394533">
        <ele>763.9</ele>
        <time>2019-08-19T00:45:26Z</time>
      </trkpt>
      <trkpt lat="42.246319" lon="2.394594">
        <ele>764.1</ele>
        <time>2019-08-19T00:45:28Z</time>
      </trkpt>
      <trkpt lat="42.246328" lon="2.394649">
        <ele>764.3</ele>
        <time>2019-08-19T00:45:30Z</time>
      </trkpt>
      <trkpt lat="42.246338" lon="2.394704">
        <ele>764.4</ele>
        <time>2019-08-19T00:45:32Z</time>
      </trkpt>
      <trkpt lat="42.246347" lon="2.394756">
        <ele>764.6</ele>
        <time>2019-08-19T00:45:34Z</time>
      </trkpt>
      <trkpt lat="42.246353" lon="2.394818">
        <ele>764.8</ele>
        <time>2019-08-19T00:45:36Z</time>
      </trkpt>
      <trkpt lat="42.24636" lon="2.394891">
        <ele>765</ele>
        <time>2019-08-19T00:45:38Z</time>
      </trkpt>
      <trkpt lat="42.246362" lon="2.394933">
        <ele>765.2</ele>
        <time>2019-08-19T00:45:39Z</time>
      </trkpt>
      <trkpt lat="42.246364" lon="2.394971">
        <ele>765.3</ele>
        <time>2019-08-19T00:45:40Z</time>
      </trkpt>
      <trkpt lat="42.246365" lon="2.395009">
        <ele>765.4</ele>
        <time>2019-08-19T00:45:41Z</time>
      </trkpt>
      <trkpt lat="42.246366" lon="2.395051">
        <ele>765.5</ele>
        <time>2019-08-19T00:45:42Z</time>
      </trkpt>
      <trkpt lat="42.246365" lon="2.395095">
        <ele>765.7</ele>
        <time>2019-08-19T00:45:43Z</time>
      </trkpt>
      <trkpt lat="42.246361" lon="2.395135">
        <ele>765.8</ele>
        <time>2019-08-19T00:45:44Z</time>
      </trkpt>
      <trkpt lat="42.246356" lon="2.395171">
        <ele>765.9</ele>
        <time>2019-08-19T00:45:45Z</time>
      </trkpt>
      <trkpt lat="42.246353" lon="2.39521">
        <ele>766.1</ele>
        <time>2019-08-19T00:45:46Z</time>
      </trkpt>
      <trkpt lat="42.246353" lon="2.395251">
        <ele>766.2</ele>
        <time>2019-08-19T00:45:47Z</time>
      </trkpt>
      <trkpt lat="42.24635" lon="2.395289">
        <ele>766.4</ele>
        <time>2019-08-19T00:45:48Z</time>
      </trkpt>
      <trkpt lat="42.246341" lon="2.395352">
        <ele>766.6</ele>
        <time>2019-08-19T00:45:50Z</time>
      </trkpt>
      <trkpt lat="42.246325" lon="2.395413">
        <ele>766.9</ele>
        <time>2019-08-19T00:45:52Z</time>
      </trkpt>
      <trkpt lat="42.246313" lon="2.39547">
        <ele>767.1</ele>
        <time>2019-08-19T00:45:54Z</time>
      </trkpt>
      <trkpt lat="42.246309" lon="2.395533">
        <ele>767.4</ele>
        <time>2019-08-19T00:45:56Z</time>
      </trkpt>
      <trkpt lat="42.2463" lon="2.395592">
        <ele>767.7</ele>
        <time>2019-08-19T00:45:58Z</time>
      </trkpt>
      <trkpt lat="42.246292" lon="2.395659">
        <ele>768.1</ele>
        <time>2019-08-19T00:46:00Z</time>
      </trkpt>
      <trkpt lat="42.246298" lon="2.395722">
        <ele>768.4</ele>
        <time>2019-08-19T00:46:02Z</time>
      </trkpt>
      <trkpt lat="42.246311" lon="2.39578">
        <ele>768.8</ele>
        <time>2019-08-19T00:46:04Z</time>
      </trkpt>
      <trkpt lat="42.246328" lon="2.395836">
        <ele>769.1</ele>
        <time>2019-08-19T00:46:06Z</time>
      </trkpt>
      <trkpt lat="42.246352" lon="2.395888">
        <ele>769.4</ele>
        <time>2019-08-19T00:46:08Z</time>
      </trkpt>
      <trkpt lat="42.246387" lon="2.395931">
        <ele>769.7</ele>
        <time>2019-08-19T00:46:10Z</time>
      </trkpt>
      <trkpt lat="42.246429" lon="2.395967">
        <ele>770.1</ele>
        <time>2019-08-19T00:46:12Z</time>
      </trkpt>
      <trkpt lat="42.24647" lon="2.395993">
        <ele>770.3</ele>
        <time>2019-08-19T00:46:14Z</time>
      </trkpt>
      <trkpt lat="42.246514" lon="2.396009">
        <ele>770.6</ele>
        <time>2019-08-19T00:46:16Z</time>
      </trkpt>
      <trkpt lat="42.246558" lon="2.396009">
        <ele>770.8</ele>
        <time>2019-08-19T00:46:18Z</time>
      </trkpt>
      <trkpt lat="42.246598" lon="2.395982">
        <ele>771</ele>
        <time>2019-08-19T00:46:20Z</time>
      </trkpt>
      <trkpt lat="42.246638" lon="2.395948">
        <ele>771.3</ele>
        <time>2019-08-19T00:46:22Z</time>
      </trkpt>
      <trkpt lat="42.246676" lon="2.395918">
        <ele>771.5</ele>
        <time>2019-08-19T00:46:24Z</time>
      </trkpt>
      <trkpt lat="42.246719" lon="2.395891">
        <ele>771.7</ele>
        <time>2019-08-19T00:46:26Z</time>
      </trkpt>
      <trkpt lat="42.246761" lon="2.395869">
        <ele>771.9</ele>
        <time>2019-08-19T00:46:28Z</time>
      </trkpt>
      <trkpt lat="42.246807" lon="2.395845">
        <ele>772.1</ele>
        <time>2019-08-19T00:46:30Z</time>
      </trkpt>
      <trkpt lat="42.246852" lon="2.395824">
        <ele>772.4</ele>
        <time>2019-08-19T00:46:32Z</time>
      </trkpt>
      <trkpt lat="42.24689" lon="2.395815">
        <ele>772.6</ele>
        <time>2019-08-19T00:46:34Z</time>
      </trkpt>
      <trkpt lat="42.246927" lon="2.395815">
        <ele>772.7</ele>
        <time>2019-08-19T00:46:36Z</time>
      </trkpt>
      <trkpt lat="42.246969" lon="2.395812">
        <ele>772.9</ele>
        <time>2019-08-19T00:46:38Z</time>
      </trkpt>
      <trkpt lat="42.247012" lon="2.395805">
        <ele>773.2</ele>
        <time>2019-08-19T00:46:40Z</time>
      </trkpt>
      <trkpt lat="42.247058" lon="2.395796">
        <ele>773.4</ele>
        <time>2019-08-19T00:46:42Z</time>
      </trkpt>
      <trkpt lat="42.247103" lon="2.395783">
        <ele>773.6</ele>
        <time>2019-08-19T00:46:44Z</time>
      </trkpt>
      <trkpt lat="42.247146" lon="2.395773">
        <ele>773.8</ele>
        <time>2019-08-19T00:46:46Z</time>
      </trkpt>
      <trkpt lat="42.24719" lon="2.39575">
        <ele>774</ele>
        <time>2019-08-19T00:46:48Z</time>
      </trkpt>
      <trkpt lat="42.247226" lon="2.395709">
        <ele>774.2</ele>
        <time>2019-08-19T00:46:50Z</time>
      </trkpt>
      <trkpt lat="42.24726" lon="2.395666">
        <ele>774.5</ele>
        <time>2019-08-19T00:46:52Z</time>
      </trkpt>
      <trkpt lat="42.247294" lon="2.395623">
        <ele>774.7</ele>
        <time>2019-08-19T00:46:54Z</time>
      </trkpt>
      <trkpt lat="42.247326" lon="2.39557">
        <ele>774.9</ele>
        <time>2019-08-19T00:46:56Z</time>
      </trkpt>
      <trkpt lat="42.247351" lon="2.395511">
        <ele>775.2</ele>
        <time>2019-08-19T00:46:58Z</time>
      </trkpt>
      <trkpt lat="42.24737" lon="2.395453">
        <ele>775.4</ele>
        <time>2019-08-19T00:47:00Z</time>
      </trkpt>
      <trkpt lat="42.247385" lon="2.395395">
        <ele>775.6</ele>
        <time>2019-08-19T00:47:02Z</time>
      </trkpt>
      <trkpt lat="42.247399" lon="2.395341">
        <ele>775.9</ele>
        <time>2019-08-19T00:47:04Z</time>
      </trkpt>
      <trkpt lat="42.247413" lon="2.395284">
        <ele>776.1</ele>
        <time>2019-08-19T00:47:06Z</time>
      </trkpt>
      <trkpt lat="42.247427" lon="2.395223">
        <ele>776.4</ele>
        <time>2019-08-19T00:47:08Z</time>
      </trkpt>
      <trkpt lat="42.24743" lon="2.395163">
        <ele>776.6</ele>
        <time>2019-08-19T00:47:10Z</time>
      </trkpt>
      <trkpt lat="42.24743" lon="2.395106">
        <ele>776.9</ele>
        <time>2019-08-19T00:47:12Z</time>
      </trkpt>
      <trkpt lat="42.247437" lon="2.395052">
        <ele>777.1</ele>
        <time>2019-08-19T00:47:14Z</time>
      </trkpt>
      <trkpt lat="42.247452" lon="2.394995">
        <ele>777.4</ele>
        <time>2019-08-19T00:47:16Z</time>
      </trkpt>
      <trkpt lat="42.247475" lon="2.394939">
        <ele>777.6</ele>
        <time>2019-08-19T00:47:18Z</time>
      </trkpt>
      <trkpt lat="42.2475" lon="2.39489">
        <ele>777.9</ele>
        <time>2019-08-19T00:47:20Z</time>
      </trkpt>
      <trkpt lat="42.247519" lon="2.394862">
        <ele>778.1</ele>
        <time>2019-08-19T00:47:21Z</time>
      </trkpt>
      <trkpt lat="42.247542" lon="2.394831">
        <ele>778.3</ele>
        <time>2019-08-19T00:47:22Z</time>
      </trkpt>
      <trkpt lat="42.247566" lon="2.394798">
        <ele>778.5</ele>
        <time>2019-08-19T00:47:23Z</time>
      </trkpt>
      <trkpt lat="42.247588" lon="2.394765">
        <ele>778.7</ele>
        <time>2019-08-19T00:47:24Z</time>
      </trkpt>
      <trkpt lat="42.247607" lon="2.394736">
        <ele>778.8</ele>
        <time>2019-08-19T00:47:25Z</time>
      </trkpt>
      <trkpt lat="42.247629" lon="2.394707">
        <ele>779</ele>
        <time>2019-08-19T00:47:26Z</time>
      </trkpt>
      <trkpt lat="42.247665" lon="2.394659">
        <ele>779.3</ele>
        <time>2019-08-19T00:47:28Z</time>
      </trkpt>
      <trkpt lat="42.247697" lon="2.394601">
        <ele>779.6</ele>
        <time>2019-08-19T00:47:30Z</time>
      </trkpt>
      <trkpt lat="42.247713" lon="2.394532">
        <ele>779.9</ele>
        <time>2019-08-19T00:47:32Z</time>
      </trkpt>
      <trkpt lat="42.247722" lon="2.394461">
        <ele>780.2</ele>
        <time>2019-08-19T00:47:34Z</time>
      </trkpt>
      <trkpt lat="42.247735" lon="2.394399">
        <ele>780.4</ele>
        <time>2019-08-19T00:47:36Z</time>
      </trkpt>
      <trkpt lat="42.247735" lon="2.394337">
        <ele>780.7</ele>
        <time>2019-08-19T00:47:38Z</time>
      </trkpt>
      <trkpt lat="42.247732" lon="2.39428">
        <ele>781</ele>
        <time>2019-08-19T00:47:40Z</time>
      </trkpt>
      <trkpt lat="42.24772" lon="2.394221">
        <ele>781.2</ele>
        <time>2019-08-19T00:47:42Z</time>
      </trkpt>
      <trkpt lat="42.2477" lon="2.394163">
        <ele>781.5</ele>
        <time>2019-08-19T00:47:44Z</time>
      </trkpt>
      <trkpt lat="42.247684" lon="2.394107">
        <ele>781.8</ele>
        <time>2019-08-19T00:47:46Z</time>
      </trkpt>
      <trkpt lat="42.247673" lon="2.394048">
        <ele>782.1</ele>
        <time>2019-08-19T00:47:48Z</time>
      </trkpt>
      <trkpt lat="42.247668" lon="2.393983">
        <ele>782.4</ele>
        <time>2019-08-19T00:47:50Z</time>
      </trkpt>
      <trkpt lat="42.247675" lon="2.393915">
        <ele>782.7</ele>
        <time>2019-08-19T00:47:52Z</time>
      </trkpt>
      <trkpt lat="42.247688" lon="2.393852">
        <ele>783</ele>
        <time>2019-08-19T00:47:54Z</time>
      </trkpt>
      <trkpt lat="42.247704" lon="2.393793">
        <ele>783.3</ele>
        <time>2019-08-19T00:47:56Z</time>
      </trkpt>
      <trkpt lat="42.247712" lon="2.393739">
        <ele>783.5</ele>
        <time>2019-08-19T00:47:58Z</time>
      </trkpt>
      <trkpt lat="42.247725" lon="2.393679">
        <ele>783.8</ele>
        <time>2019-08-19T00:48:00Z</time>
      </trkpt>
      <trkpt lat="42.247746" lon="2.393624">
        <ele>784.1</ele>
        <time>2019-08-19T00:48:02Z</time>
      </trkpt>
      <trkpt lat="42.247775" lon="2.393567">
        <ele>784.4</ele>
        <time>2019-08-19T00:48:04Z</time>
      </trkpt>
      <trkpt lat="42.247784" lon="2.393508">
        <ele>784.7</ele>
        <time>2019-08-19T00:48:06Z</time>
      </trkpt>
      <trkpt lat="42.247791" lon="2.393456">
        <ele>784.9</ele>
        <time>2019-08-19T00:48:08Z</time>
      </trkpt>
      <trkpt lat="42.247793" lon="2.393391">
        <ele>785.2</ele>
        <time>2019-08-19T00:48:10Z</time>
      </trkpt>
      <trkpt lat="42.247794" lon="2.393326">
        <ele>785.5</ele>
        <time>2019-08-19T00:48:12Z</time>
      </trkpt>
      <trkpt lat="42.247798" lon="2.393263">
        <ele>785.7</ele>
        <time>2019-08-19T00:48:14Z</time>
      </trkpt>
      <trkpt lat="42.247804" lon="2.393202">
        <ele>786</ele>
        <time>2019-08-19T00:48:16Z</time>
      </trkpt>
      <trkpt lat="42.247822" lon="2.393142">
        <ele>786.2</ele>
        <time>2019-08-19T00:48:18Z</time>
      </trkpt>
      <trkpt lat="42.24785" lon="2.393088">
        <ele>786.5</ele>
        <time>2019-08-19T00:48:20Z</time>
      </trkpt>
      <trkpt lat="42.247879" lon="2.393043">
        <ele>786.7</ele>
        <time>2019-08-19T00:48:22Z</time>
      </trkpt>
      <trkpt lat="42.247913" lon="2.393007">
        <ele>786.9</ele>
        <time>2019-08-19T00:48:24Z</time>
      </trkpt>
      <trkpt lat="42.247945" lon="2.392966">
        <ele>787.2</ele>
        <time>2019-08-19T00:48:26Z</time>
      </trkpt>
      <trkpt lat="42.247971" lon="2.392921">
        <ele>787.4</ele>
        <time>2019-08-19T00:48:28Z</time>
      </trkpt>
      <trkpt lat="42.247989" lon="2.392869">
        <ele>787.6</ele>
        <time>2019-08-19T00:48:30Z</time>
      </trkpt>
      <trkpt lat="42.247997" lon="2.392812">
        <ele>787.8</ele>
        <time>2019-08-19T00:48:32Z</time>
      </trkpt>
      <trkpt lat="42.247999" lon="2.392754">
        <ele>788</ele>
        <time>2019-08-19T00:48:34Z</time>
      </trkpt>
      <trkpt lat="42.248" lon="2.392693">
        <ele>788.2</ele>
        <time>2019-08-19T00:48:36Z</time>
      </trkpt>
      <trkpt lat="42.248004" lon="2.392633">
        <ele>788.4</ele>
        <time>2019-08-19T00:48:38Z</time>
      </trkpt>
      <trkpt lat="42.248005" lon="2.392575">
        <ele>788.7</ele>
        <time>2019-08-19T00:48:40Z</time>
      </trkpt>
      <trkpt lat="42.248006" lon="2.392517">
        <ele>788.9</ele>
        <time>2019-08-19T00:48:42Z</time>
      </trkpt>
      <trkpt lat="42.248012" lon="2.392462">
        <ele>789.1</ele>
        <time>2019-08-19T00:48:44Z</time>
      </trkpt>
      <trkpt lat="42.248019" lon="2.392401">
        <ele>789.3</ele>
        <time>2019-08-19T00:48:46Z</time>
      </trkpt>
      <trkpt lat="42.248024" lon="2.392337">
        <ele>789.5</ele>
        <time>2019-08-19T00:48:48Z</time>
      </trkpt>
      <trkpt lat="42.24803" lon="2.392274">
        <ele>789.7</ele>
        <time>2019-08-19T00:48:50Z</time>
      </trkpt>
      <trkpt lat="42.248039" lon="2.392209">
        <ele>790</ele>
        <time>2019-08-19T00:48:52Z</time>
      </trkpt>
      <trkpt lat="42.248049" lon="2.392146">
        <ele>790.2</ele>
        <time>2019-08-19T00:48:54Z</time>
      </trkpt>
      <trkpt lat="42.248058" lon="2.392086">
        <ele>790.5</ele>
        <time>2019-08-19T00:48:56Z</time>
      </trkpt>
      <trkpt lat="42.248074" lon="2.392029">
        <ele>790.7</ele>
        <time>2019-08-19T00:48:58Z</time>
      </trkpt>
      <trkpt lat="42.248091" lon="2.391975">
        <ele>791</ele>
        <time>2019-08-19T00:49:00Z</time>
      </trkpt>
      <trkpt lat="42.248116" lon="2.391927">
        <ele>791.2</ele>
        <time>2019-08-19T00:49:02Z</time>
      </trkpt>
      <trkpt lat="42.248137" lon="2.391874">
        <ele>791.5</ele>
        <time>2019-08-19T00:49:04Z</time>
      </trkpt>
      <trkpt lat="42.248163" lon="2.391826">
        <ele>791.7</ele>
        <time>2019-08-19T00:49:06Z</time>
      </trkpt>
      <trkpt lat="42.248195" lon="2.391788">
        <ele>792</ele>
        <time>2019-08-19T00:49:08Z</time>
      </trkpt>
      <trkpt lat="42.248231" lon="2.391745">
        <ele>792.2</ele>
        <time>2019-08-19T00:49:10Z</time>
      </trkpt>
      <trkpt lat="42.248259" lon="2.391697">
        <ele>792.5</ele>
        <time>2019-08-19T00:49:12Z</time>
      </trkpt>
      <trkpt lat="42.248286" lon="2.391659">
        <ele>792.7</ele>
        <time>2019-08-19T00:49:14Z</time>
      </trkpt>
      <trkpt lat="42.24832" lon="2.39162">
        <ele>792.9</ele>
        <time>2019-08-19T00:49:16Z</time>
      </trkpt>
      <trkpt lat="42.248359" lon="2.391578">
        <ele>793.1</ele>
        <time>2019-08-19T00:49:18Z</time>
      </trkpt>
      <trkpt lat="42.248392" lon="2.391539">
        <ele>793.3</ele>
        <time>2019-08-19T00:49:20Z</time>
      </trkpt>
      <trkpt lat="42.248423" lon="2.391502">
        <ele>793.5</ele>
        <time>2019-08-19T00:49:22Z</time>
      </trkpt>
      <trkpt lat="42.248456" lon="2.391461">
        <ele>793.7</ele>
        <time>2019-08-19T00:49:24Z</time>
      </trkpt>
      <trkpt lat="42.248484" lon="2.391423">
        <ele>793.9</ele>
        <time>2019-08-19T00:49:26Z</time>
      </trkpt>
      <trkpt lat="42.248507" lon="2.39138">
        <ele>794</ele>
        <time>2019-08-19T00:49:28Z</time>
      </trkpt>
      <trkpt lat="42.248529" lon="2.391328">
        <ele>794.2</ele>
        <time>2019-08-19T00:49:30Z</time>
      </trkpt>
      <trkpt lat="42.248551" lon="2.391264">
        <ele>794.4</ele>
        <time>2019-08-19T00:49:32Z</time>
      </trkpt>
      <trkpt lat="42.248563" lon="2.391227">
        <ele>794.6</ele>
        <time>2019-08-19T00:49:33Z</time>
      </trkpt>
      <trkpt lat="42.248572" lon="2.391191">
        <ele>794.7</ele>
        <time>2019-08-19T00:49:34Z</time>
      </trkpt>
      <trkpt lat="42.248594" lon="2.391131">
        <ele>794.9</ele>
        <time>2019-08-19T00:49:36Z</time>
      </trkpt>
      <trkpt lat="42.248628" lon="2.391076">
        <ele>795.2</ele>
        <time>2019-08-19T00:49:38Z</time>
      </trkpt>
      <trkpt lat="42.248661" lon="2.391023">
        <ele>795.5</ele>
        <time>2019-08-19T00:49:40Z</time>
      </trkpt>
      <trkpt lat="42.248693" lon="2.390975">
        <ele>795.7</ele>
        <time>2019-08-19T00:49:42Z</time>
      </trkpt>
      <trkpt lat="42.248712" lon="2.390947">
        <ele>795.8</ele>
        <time>2019-08-19T00:49:43Z</time>
      </trkpt>
      <trkpt lat="42.24873" lon="2.39092">
        <ele>796</ele>
        <time>2019-08-19T00:49:44Z</time>
      </trkpt>
      <trkpt lat="42.248769" lon="2.390877">
        <ele>796.2</ele>
        <time>2019-08-19T00:49:46Z</time>
      </trkpt>
      <trkpt lat="42.248812" lon="2.390846">
        <ele>796.5</ele>
        <time>2019-08-19T00:49:48Z</time>
      </trkpt>
      <trkpt lat="42.248846" lon="2.390822">
        <ele>796.7</ele>
        <time>2019-08-19T00:49:50Z</time>
      </trkpt>
      <trkpt lat="42.248884" lon="2.390811">
        <ele>796.9</ele>
        <time>2019-08-19T00:49:52Z</time>
      </trkpt>
      <trkpt lat="42.248936" lon="2.390802">
        <ele>797.1</ele>
        <time>2019-08-19T00:49:54Z</time>
      </trkpt>
      <trkpt lat="42.248982" lon="2.390781">
        <ele>797.4</ele>
        <time>2019-08-19T00:49:56Z</time>
      </trkpt>
      <trkpt lat="42.24903" lon="2.390761">
        <ele>797.6</ele>
        <time>2019-08-19T00:49:58Z</time>
      </trkpt>
      <trkpt lat="42.249076" lon="2.390742">
        <ele>797.8</ele>
        <time>2019-08-19T00:50:00Z</time>
      </trkpt>
      <trkpt lat="42.24912" lon="2.390722">
        <ele>798</ele>
        <time>2019-08-19T00:50:02Z</time>
      </trkpt>
      <trkpt lat="42.249161" lon="2.390711">
        <ele>798.2</ele>
        <time>2019-08-19T00:50:04Z</time>
      </trkpt>
      <trkpt lat="42.249205" lon="2.390689">
        <ele>798.4</ele>
        <time>2019-08-19T00:50:06Z</time>
      </trkpt>
      <trkpt lat="42.249244" lon="2.390661">
        <ele>798.7</ele>
        <time>2019-08-19T00:50:08Z</time>
      </trkpt>
      <trkpt lat="42.249277" lon="2.390634">
        <ele>798.8</ele>
        <time>2019-08-19T00:50:10Z</time>
      </trkpt>
      <trkpt lat="42.249315" lon="2.390614">
        <ele>799.1</ele>
        <time>2019-08-19T00:50:12Z</time>
      </trkpt>
      <trkpt lat="42.249352" lon="2.390594">
        <ele>799.3</ele>
        <time>2019-08-19T00:50:14Z</time>
      </trkpt>
      <trkpt lat="42.249394" lon="2.390568">
        <ele>799.5</ele>
        <time>2019-08-19T00:50:16Z</time>
      </trkpt>
      <trkpt lat="42.249434" lon="2.39055">
        <ele>799.7</ele>
        <time>2019-08-19T00:50:18Z</time>
      </trkpt>
      <trkpt lat="42.249475" lon="2.390533">
        <ele>799.9</ele>
        <time>2019-08-19T00:50:20Z</time>
      </trkpt>
      <trkpt lat="42.24952" lon="2.390513">
        <ele>800.1</ele>
        <time>2019-08-19T00:50:22Z</time>
      </trkpt>
      <trkpt lat="42.249564" lon="2.3905">
        <ele>800.3</ele>
        <time>2019-08-19T00:50:24Z</time>
      </trkpt>
      <trkpt lat="42.249611" lon="2.390495">
        <ele>800.5</ele>
        <time>2019-08-19T00:50:26Z</time>
      </trkpt>
      <trkpt lat="42.249649" lon="2.390496">
        <ele>800.6</ele>
        <time>2019-08-19T00:50:28Z</time>
      </trkpt>
      <trkpt lat="42.249692" lon="2.390483">
        <ele>800.8</ele>
        <time>2019-08-19T00:50:30Z</time>
      </trkpt>
      <trkpt lat="42.249736" lon="2.390466">
        <ele>801</ele>
        <time>2019-08-19T00:50:32Z</time>
      </trkpt>
      <trkpt lat="42.249782" lon="2.390434">
        <ele>801.2</ele>
        <time>2019-08-19T00:50:34Z</time>
      </trkpt>
      <trkpt lat="42.249821" lon="2.390388">
        <ele>801.3</ele>
        <time>2019-08-19T00:50:36Z</time>
      </trkpt>
      <trkpt lat="42.249858" lon="2.390349">
        <ele>801.5</ele>
        <time>2019-08-19T00:50:38Z</time>
      </trkpt>
      <trkpt lat="42.249901" lon="2.390326">
        <ele>801.7</ele>
        <time>2019-08-19T00:50:40Z</time>
      </trkpt>
      <trkpt lat="42.249946" lon="2.390306">
        <ele>801.9</ele>
        <time>2019-08-19T00:50:42Z</time>
      </trkpt>
      <trkpt lat="42.249987" lon="2.390301">
        <ele>802.1</ele>
        <time>2019-08-19T00:50:44Z</time>
      </trkpt>
      <trkpt lat="42.250032" lon="2.390302">
        <ele>802.3</ele>
        <time>2019-08-19T00:50:46Z</time>
      </trkpt>
      <trkpt lat="42.250077" lon="2.390301">
        <ele>802.5</ele>
        <time>2019-08-19T00:50:48Z</time>
      </trkpt>
      <trkpt lat="42.250124" lon="2.390307">
        <ele>802.8</ele>
        <time>2019-08-19T00:50:50Z</time>
      </trkpt>
      <trkpt lat="42.250167" lon="2.390321">
        <ele>803</ele>
        <time>2019-08-19T00:50:52Z</time>
      </trkpt>
      <trkpt lat="42.250204" lon="2.390339">
        <ele>803.2</ele>
        <time>2019-08-19T00:50:54Z</time>
      </trkpt>
      <trkpt lat="42.250241" lon="2.390348">
        <ele>803.5</ele>
        <time>2019-08-19T00:50:56Z</time>
      </trkpt>
      <trkpt lat="42.25028" lon="2.39036">
        <ele>803.7</ele>
        <time>2019-08-19T00:50:58Z</time>
      </trkpt>
      <trkpt lat="42.250328" lon="2.390372">
        <ele>804</ele>
        <time>2019-08-19T00:51:00Z</time>
      </trkpt>
      <trkpt lat="42.250369" lon="2.390369">
        <ele>804.3</ele>
        <time>2019-08-19T00:51:02Z</time>
      </trkpt>
      <trkpt lat="42.250414" lon="2.390352">
        <ele>804.5</ele>
        <time>2019-08-19T00:51:04Z</time>
      </trkpt>
      <trkpt lat="42.250458" lon="2.390324">
        <ele>804.8</ele>
        <time>2019-08-19T00:51:06Z</time>
      </trkpt>
      <trkpt lat="42.250502" lon="2.390293">
        <ele>805.1</ele>
        <time>2019-08-19T00:51:08Z</time>
      </trkpt>
      <trkpt lat="42.250543" lon="2.390256">
        <ele>805.5</ele>
        <time>2019-08-19T00:51:10Z</time>
      </trkpt>
      <trkpt lat="42.25058" lon="2.390224">
        <ele>805.8</ele>
        <time>2019-08-19T00:51:12Z</time>
      </trkpt>
      <trkpt lat="42.250622" lon="2.390193">
        <ele>806.2</ele>
        <time>2019-08-19T00:51:14Z</time>
      </trkpt>
      <trkpt lat="42.25065" lon="2.390174">
        <ele>806.4</ele>
        <time>2019-08-19T00:51:15Z</time>
      </trkpt>
      <trkpt lat="42.250688" lon="2.390148">
        <ele>806.7</ele>
        <time>2019-08-19T00:51:17Z</time>
      </trkpt>
      <trkpt lat="42.250723" lon="2.390132">
        <ele>807</ele>
        <time>2019-08-19T00:51:19Z</time>
      </trkpt>
      <trkpt lat="42.250759" lon="2.390124">
        <ele>807.2</ele>
        <time>2019-08-19T00:51:21Z</time>
      </trkpt>
      <trkpt lat="42.250796" lon="2.390119">
        <ele>807.5</ele>
        <time>2019-08-19T00:51:23Z</time>
      </trkpt>
      <trkpt lat="42.250832" lon="2.390112">
        <ele>807.8</ele>
        <time>2019-08-19T00:51:25Z</time>
      </trkpt>
      <trkpt lat="42.250873" lon="2.390101">
        <ele>808</ele>
        <time>2019-08-19T00:51:27Z</time>
      </trkpt>
      <trkpt lat="42.250918" lon="2.390101">
        <ele>808.4</ele>
        <time>2019-08-19T00:51:29Z</time>
      </trkpt>
      <trkpt lat="42.250975" lon="2.390108">
        <ele>808.7</ele>
        <time>2019-08-19T00:51:31Z</time>
      </trkpt>
      <trkpt lat="42.251005" lon="2.390116">
        <ele>808.9</ele>
        <time>2019-08-19T00:51:32Z</time>
      </trkpt>
      <trkpt lat="42.251033" lon="2.390125">
        <ele>809.1</ele>
        <time>2019-08-19T00:51:33Z</time>
      </trkpt>
      <trkpt lat="42.25106" lon="2.390136">
        <ele>809.3</ele>
        <time>2019-08-19T00:51:34Z</time>
      </trkpt>
      <trkpt lat="42.251087" lon="2.390151">
        <ele>809.5</ele>
        <time>2019-08-19T00:51:35Z</time>
      </trkpt>
      <trkpt lat="42.251127" lon="2.390185">
        <ele>809.8</ele>
        <time>2019-08-19T00:51:37Z</time>
      </trkpt>
      <trkpt lat="42.251173" lon="2.390207">
        <ele>810</ele>
        <time>2019-08-19T00:51:39Z</time>
      </trkpt>
      <trkpt lat="42.251223" lon="2.390217">
        <ele>810.3</ele>
        <time>2019-08-19T00:51:41Z</time>
      </trkpt>
      <trkpt lat="42.251274" lon="2.390227">
        <ele>810.6</ele>
        <time>2019-08-19T00:51:43Z</time>
      </trkpt>
      <trkpt lat="42.251322" lon="2.390238">
        <ele>810.9</ele>
        <time>2019-08-19T00:51:45Z</time>
      </trkpt>
      <trkpt lat="42.251363" lon="2.390251">
        <ele>811.1</ele>
        <time>2019-08-19T00:51:47Z</time>
      </trkpt>
      <trkpt lat="42.251404" lon="2.390269">
        <ele>811.3</ele>
        <time>2019-08-19T00:51:49Z</time>
      </trkpt>
      <trkpt lat="42.251447" lon="2.390289">
        <ele>811.5</ele>
        <time>2019-08-19T00:51:51Z</time>
      </trkpt>
      <trkpt lat="42.251494" lon="2.390292">
        <ele>811.7</ele>
        <time>2019-08-19T00:51:53Z</time>
      </trkpt>
      <trkpt lat="42.251523" lon="2.390288">
        <ele>811.8</ele>
        <time>2019-08-19T00:51:54Z</time>
      </trkpt>
      <trkpt lat="42.251551" lon="2.390283">
        <ele>812</ele>
        <time>2019-08-19T00:51:55Z</time>
      </trkpt>
      <trkpt lat="42.251598" lon="2.390273">
        <ele>812.2</ele>
        <time>2019-08-19T00:51:57Z</time>
      </trkpt>
      <trkpt lat="42.251642" lon="2.390261">
        <ele>812.4</ele>
        <time>2019-08-19T00:51:59Z</time>
      </trkpt>
      <trkpt lat="42.251686" lon="2.39024">
        <ele>812.6</ele>
        <time>2019-08-19T00:52:01Z</time>
      </trkpt>
      <trkpt lat="42.251732" lon="2.39021">
        <ele>812.8</ele>
        <time>2019-08-19T00:52:03Z</time>
      </trkpt>
      <trkpt lat="42.251776" lon="2.390179">
        <ele>813</ele>
        <time>2019-08-19T00:52:05Z</time>
      </trkpt>
      <trkpt lat="42.251815" lon="2.390156">
        <ele>813.2</ele>
        <time>2019-08-19T00:52:07Z</time>
      </trkpt>
      <trkpt lat="42.251857" lon="2.390129">
        <ele>813.5</ele>
        <time>2019-08-19T00:52:09Z</time>
      </trkpt>
      <trkpt lat="42.251882" lon="2.390109">
        <ele>813.6</ele>
        <time>2019-08-19T00:52:10Z</time>
      </trkpt>
      <trkpt lat="42.251907" lon="2.390088">
        <ele>813.7</ele>
        <time>2019-08-19T00:52:11Z</time>
      </trkpt>
      <trkpt lat="42.25193" lon="2.390068">
        <ele>813.9</ele>
        <time>2019-08-19T00:52:12Z</time>
      </trkpt>
      <trkpt lat="42.251971" lon="2.390051">
        <ele>814.1</ele>
        <time>2019-08-19T00:52:14Z</time>
      </trkpt>
      <trkpt lat="42.252014" lon="2.39004">
        <ele>814.4</ele>
        <time>2019-08-19T00:52:16Z</time>
      </trkpt>
      <trkpt lat="42.252056" lon="2.39003">
        <ele>814.6</ele>
        <time>2019-08-19T00:52:18Z</time>
      </trkpt>
      <trkpt lat="42.252093" lon="2.390023">
        <ele>814.8</ele>
        <time>2019-08-19T00:52:20Z</time>
      </trkpt>
      <trkpt lat="42.252131" lon="2.390031">
        <ele>815.1</ele>
        <time>2019-08-19T00:52:22Z</time>
      </trkpt>
      <trkpt lat="42.252169" lon="2.390042">
        <ele>815.3</ele>
        <time>2019-08-19T00:52:24Z</time>
      </trkpt>
      <trkpt lat="42.252208" lon="2.390057">
        <ele>815.6</ele>
        <time>2019-08-19T00:52:26Z</time>
      </trkpt>
      <trkpt lat="42.252251" lon="2.390072">
        <ele>815.8</ele>
        <time>2019-08-19T00:52:28Z</time>
      </trkpt>
      <trkpt lat="42.252289" lon="2.390082">
        <ele>816.1</ele>
        <time>2019-08-19T00:52:30Z</time>
      </trkpt>
      <trkpt lat="42.252323" lon="2.390083">
        <ele>816.2</ele>
        <time>2019-08-19T00:52:32Z</time>
      </trkpt>
      <trkpt lat="42.252366" lon="2.390083">
        <ele>816.5</ele>
        <time>2019-08-19T00:52:34Z</time>
      </trkpt>
      <trkpt lat="42.25241" lon="2.39009">
        <ele>816.7</ele>
        <time>2019-08-19T00:52:36Z</time>
      </trkpt>
      <trkpt lat="42.252455" lon="2.390094">
        <ele>817</ele>
        <time>2019-08-19T00:52:38Z</time>
      </trkpt>
      <trkpt lat="42.252494" lon="2.390105">
        <ele>817.2</ele>
        <time>2019-08-19T00:52:40Z</time>
      </trkpt>
      <trkpt lat="42.252537" lon="2.39011">
        <ele>817.4</ele>
        <time>2019-08-19T00:52:42Z</time>
      </trkpt>
      <trkpt lat="42.252581" lon="2.390113">
        <ele>817.6</ele>
        <time>2019-08-19T00:52:44Z</time>
      </trkpt>
      <trkpt lat="42.252632" lon="2.390117">
        <ele>817.9</ele>
        <time>2019-08-19T00:52:46Z</time>
      </trkpt>
      <trkpt lat="42.252681" lon="2.390121">
        <ele>818.1</ele>
        <time>2019-08-19T00:52:48Z</time>
      </trkpt>
      <trkpt lat="42.252727" lon="2.390136">
        <ele>818.3</ele>
        <time>2019-08-19T00:52:50Z</time>
      </trkpt>
      <trkpt lat="42.252769" lon="2.390158">
        <ele>818.4</ele>
        <time>2019-08-19T00:52:52Z</time>
      </trkpt>
      <trkpt lat="42.252813" lon="2.390182">
        <ele>818.6</ele>
        <time>2019-08-19T00:52:54Z</time>
      </trkpt>
      <trkpt lat="42.252849" lon="2.390211">
        <ele>818.8</ele>
        <time>2019-08-19T00:52:56Z</time>
      </trkpt>
      <trkpt lat="42.252884" lon="2.390247">
        <ele>818.9</ele>
        <time>2019-08-19T00:52:58Z</time>
      </trkpt>
      <trkpt lat="42.252918" lon="2.390289">
        <ele>819</ele>
        <time>2019-08-19T00:53:00Z</time>
      </trkpt>
      <trkpt lat="42.252946" lon="2.390336">
        <ele>819.1</ele>
        <time>2019-08-19T00:53:02Z</time>
      </trkpt>
      <trkpt lat="42.252963" lon="2.390392">
        <ele>819.3</ele>
        <time>2019-08-19T00:53:04Z</time>
      </trkpt>
      <trkpt lat="42.252978" lon="2.390453">
        <ele>819.4</ele>
        <time>2019-08-19T00:53:06Z</time>
      </trkpt>
      <trkpt lat="42.252989" lon="2.390515">
        <ele>819.5</ele>
        <time>2019-08-19T00:53:08Z</time>
      </trkpt>
      <trkpt lat="42.252996" lon="2.390574">
        <ele>819.6</ele>
        <time>2019-08-19T00:53:10Z</time>
      </trkpt>
      <trkpt lat="42.253001" lon="2.390637">
        <ele>819.7</ele>
        <time>2019-08-19T00:53:12Z</time>
      </trkpt>
      <trkpt lat="42.252996" lon="2.390702">
        <ele>819.8</ele>
        <time>2019-08-19T00:53:14Z</time>
      </trkpt>
      <trkpt lat="42.252993" lon="2.390767">
        <ele>820</ele>
        <time>2019-08-19T00:53:16Z</time>
      </trkpt>
      <trkpt lat="42.252997" lon="2.390819">
        <ele>820.1</ele>
        <time>2019-08-19T00:53:18Z</time>
      </trkpt>
      <trkpt lat="42.253015" lon="2.390885">
        <ele>820.3</ele>
        <time>2019-08-19T00:53:20Z</time>
      </trkpt>
      <trkpt lat="42.253027" lon="2.390918">
        <ele>820.4</ele>
        <time>2019-08-19T00:53:21Z</time>
      </trkpt>
      <trkpt lat="42.253055" lon="2.390976">
        <ele>820.6</ele>
        <time>2019-08-19T00:53:23Z</time>
      </trkpt>
      <trkpt lat="42.253082" lon="2.391032">
        <ele>820.8</ele>
        <time>2019-08-19T00:53:25Z</time>
      </trkpt>
      <trkpt lat="42.253112" lon="2.391081">
        <ele>821</ele>
        <time>2019-08-19T00:53:27Z</time>
      </trkpt>
      <trkpt lat="42.253149" lon="2.391114">
        <ele>821.2</ele>
        <time>2019-08-19T00:53:29Z</time>
      </trkpt>
      <trkpt lat="42.253194" lon="2.391135">
        <ele>821.4</ele>
        <time>2019-08-19T00:53:31Z</time>
      </trkpt>
      <trkpt lat="42.253242" lon="2.391159">
        <ele>821.7</ele>
        <time>2019-08-19T00:53:33Z</time>
      </trkpt>
      <trkpt lat="42.253283" lon="2.391191">
        <ele>821.9</ele>
        <time>2019-08-19T00:53:35Z</time>
      </trkpt>
      <trkpt lat="42.253326" lon="2.391214">
        <ele>822.2</ele>
        <time>2019-08-19T00:53:37Z</time>
      </trkpt>
      <trkpt lat="42.253363" lon="2.391246">
        <ele>822.5</ele>
        <time>2019-08-19T00:53:39Z</time>
      </trkpt>
      <trkpt lat="42.253395" lon="2.391295">
        <ele>822.8</ele>
        <time>2019-08-19T00:53:41Z</time>
      </trkpt>
      <trkpt lat="42.253433" lon="2.391334">
        <ele>823.1</ele>
        <time>2019-08-19T00:53:43Z</time>
      </trkpt>
      <trkpt lat="42.253468" lon="2.391366">
        <ele>823.3</ele>
        <time>2019-08-19T00:53:45Z</time>
      </trkpt>
      <trkpt lat="42.253509" lon="2.391392">
        <ele>823.6</ele>
        <time>2019-08-19T00:53:47Z</time>
      </trkpt>
      <trkpt lat="42.253557" lon="2.391417">
        <ele>823.9</ele>
        <time>2019-08-19T00:53:49Z</time>
      </trkpt>
      <trkpt lat="42.253581" lon="2.391433">
        <ele>824.1</ele>
        <time>2019-08-19T00:53:50Z</time>
      </trkpt>
      <trkpt lat="42.253622" lon="2.391468">
        <ele>824.4</ele>
        <time>2019-08-19T00:53:52Z</time>
      </trkpt>
      <trkpt lat="42.253654" lon="2.39151">
        <ele>824.7</ele>
        <time>2019-08-19T00:53:54Z</time>
      </trkpt>
      <trkpt lat="42.253683" lon="2.391546">
        <ele>824.9</ele>
        <time>2019-08-19T00:53:56Z</time>
      </trkpt>
      <trkpt lat="42.253708" lon="2.391588">
        <ele>825.2</ele>
        <time>2019-08-19T00:53:58Z</time>
      </trkpt>
      <trkpt lat="42.253725" lon="2.391617">
        <ele>825.3</ele>
        <time>2019-08-19T00:53:59Z</time>
      </trkpt>
      <trkpt lat="42.253742" lon="2.391649">
        <ele>825.5</ele>
        <time>2019-08-19T00:54:00Z</time>
      </trkpt>
      <trkpt lat="42.253761" lon="2.391682">
        <ele>825.7</ele>
        <time>2019-08-19T00:54:01Z</time>
      </trkpt>
      <trkpt lat="42.253787" lon="2.391732">
        <ele>826</ele>
        <time>2019-08-19T00:54:03Z</time>
      </trkpt>
      <trkpt lat="42.253811" lon="2.391784">
        <ele>826.3</ele>
        <time>2019-08-19T00:54:05Z</time>
      </trkpt>
      <trkpt lat="42.253833" lon="2.391842">
        <ele>826.6</ele>
        <time>2019-08-19T00:54:07Z</time>
      </trkpt>
      <trkpt lat="42.253849" lon="2.391879">
        <ele>826.8</ele>
        <time>2019-08-19T00:54:08Z</time>
      </trkpt>
      <trkpt lat="42.253867" lon="2.391921">
        <ele>827</ele>
        <time>2019-08-19T00:54:09Z</time>
      </trkpt>
      <trkpt lat="42.253883" lon="2.391962">
        <ele>827.2</ele>
        <time>2019-08-19T00:54:10Z</time>
      </trkpt>
      <trkpt lat="42.253899" lon="2.392002">
        <ele>827.5</ele>
        <time>2019-08-19T00:54:11Z</time>
      </trkpt>
      <trkpt lat="42.253914" lon="2.392044">
        <ele>827.7</ele>
        <time>2019-08-19T00:54:12Z</time>
      </trkpt>
      <trkpt lat="42.253929" lon="2.392085">
        <ele>827.9</ele>
        <time>2019-08-19T00:54:13Z</time>
      </trkpt>
      <trkpt lat="42.253945" lon="2.392119">
        <ele>828.1</ele>
        <time>2019-08-19T00:54:14Z</time>
      </trkpt>
      <trkpt lat="42.253961" lon="2.392153">
        <ele>828.3</ele>
        <time>2019-08-19T00:54:15Z</time>
      </trkpt>
      <trkpt lat="42.253972" lon="2.392191">
        <ele>828.5</ele>
        <time>2019-08-19T00:54:16Z</time>
      </trkpt>
      <trkpt lat="42.253978" lon="2.392229">
        <ele>828.7</ele>
        <time>2019-08-19T00:54:17Z</time>
      </trkpt>
      <trkpt lat="42.253976" lon="2.392272">
        <ele>828.9</ele>
        <time>2019-08-19T00:54:18Z</time>
      </trkpt>
      <trkpt lat="42.25397" lon="2.392314">
        <ele>829.2</ele>
        <time>2019-08-19T00:54:19Z</time>
      </trkpt>
      <trkpt lat="42.253963" lon="2.392356">
        <ele>829.4</ele>
        <time>2019-08-19T00:54:20Z</time>
      </trkpt>
      <trkpt lat="42.253954" lon="2.392395">
        <ele>829.7</ele>
        <time>2019-08-19T00:54:21Z</time>
      </trkpt>
      <trkpt lat="42.253939" lon="2.392432">
        <ele>829.9</ele>
        <time>2019-08-19T00:54:22Z</time>
      </trkpt>
      <trkpt lat="42.253927" lon="2.39247">
        <ele>830.1</ele>
        <time>2019-08-19T00:54:23Z</time>
      </trkpt>
      <trkpt lat="42.253914" lon="2.392506">
        <ele>830.4</ele>
        <time>2019-08-19T00:54:24Z</time>
      </trkpt>
      <trkpt lat="42.253892" lon="2.392571">
        <ele>830.7</ele>
        <time>2019-08-19T00:54:26Z</time>
      </trkpt>
      <trkpt lat="42.253879" lon="2.392605">
        <ele>830.9</ele>
        <time>2019-08-19T00:54:27Z</time>
      </trkpt>
      <trkpt lat="42.253861" lon="2.39265">
        <ele>831.1</ele>
        <time>2019-08-19T00:54:29Z</time>
      </trkpt>
      <trkpt lat="42.253849" lon="2.392684">
        <ele>831.3</ele>
        <time>2019-08-19T00:54:30Z</time>
      </trkpt>
      <trkpt lat="42.253838" lon="2.392718">
        <ele>831.4</ele>
        <time>2019-08-19T00:54:31Z</time>
      </trkpt>
      <trkpt lat="42.253828" lon="2.392752">
        <ele>831.6</ele>
        <time>2019-08-19T00:54:32Z</time>
      </trkpt>
      <trkpt lat="42.253809" lon="2.392821">
        <ele>831.9</ele>
        <time>2019-08-19T00:54:34Z</time>
      </trkpt>
      <trkpt lat="42.253795" lon="2.392891">
        <ele>832.1</ele>
        <time>2019-08-19T00:54:36Z</time>
      </trkpt>
      <trkpt lat="42.253785" lon="2.392927">
        <ele>832.3</ele>
        <time>2019-08-19T00:54:37Z</time>
      </trkpt>
      <trkpt lat="42.253765" lon="2.39299">
        <ele>832.5</ele>
        <time>2019-08-19T00:54:39Z</time>
      </trkpt>
      <trkpt lat="42.253745" lon="2.39305">
        <ele>832.8</ele>
        <time>2019-08-19T00:54:41Z</time>
      </trkpt>
      <trkpt lat="42.253718" lon="2.393103">
        <ele>833</ele>
        <time>2019-08-19T00:54:43Z</time>
      </trkpt>
      <trkpt lat="42.25369" lon="2.393159">
        <ele>833.3</ele>
        <time>2019-08-19T00:54:45Z</time>
      </trkpt>
      <trkpt lat="42.253674" lon="2.393192">
        <ele>833.4</ele>
        <time>2019-08-19T00:54:46Z</time>
      </trkpt>
      <trkpt lat="42.253652" lon="2.393238">
        <ele>833.7</ele>
        <time>2019-08-19T00:54:48Z</time>
      </trkpt>
      <trkpt lat="42.253627" lon="2.393295">
        <ele>833.9</ele>
        <time>2019-08-19T00:54:50Z</time>
      </trkpt>
      <trkpt lat="42.253608" lon="2.393355">
        <ele>834.2</ele>
        <time>2019-08-19T00:54:52Z</time>
      </trkpt>
      <trkpt lat="42.253592" lon="2.393414">
        <ele>834.5</ele>
        <time>2019-08-19T00:54:54Z</time>
      </trkpt>
      <trkpt lat="42.253577" lon="2.393472">
        <ele>834.8</ele>
        <time>2019-08-19T00:54:56Z</time>
      </trkpt>
      <trkpt lat="42.253577" lon="2.393532">
        <ele>835</ele>
        <time>2019-08-19T00:54:58Z</time>
      </trkpt>
      <trkpt lat="42.253588" lon="2.393594">
        <ele>835.3</ele>
        <time>2019-08-19T00:55:00Z</time>
      </trkpt>
      <trkpt lat="42.253604" lon="2.393655">
        <ele>835.6</ele>
        <time>2019-08-19T00:55:02Z</time>
      </trkpt>
      <trkpt lat="42.253633" lon="2.393706">
        <ele>835.9</ele>
        <time>2019-08-19T00:55:04Z</time>
      </trkpt>
      <trkpt lat="42.253671" lon="2.393744">
        <ele>836.2</ele>
        <time>2019-08-19T00:55:06Z</time>
      </trkpt>
      <trkpt lat="42.253715" lon="2.39377">
        <ele>836.4</ele>
        <time>2019-08-19T00:55:08Z</time>
      </trkpt>
      <trkpt lat="42.253763" lon="2.393784">
        <ele>836.6</ele>
        <time>2019-08-19T00:55:10Z</time>
      </trkpt>
      <trkpt lat="42.253816" lon="2.393793">
        <ele>836.9</ele>
        <time>2019-08-19T00:55:12Z</time>
      </trkpt>
      <trkpt lat="42.253868" lon="2.393799">
        <ele>837.1</ele>
        <time>2019-08-19T00:55:14Z</time>
      </trkpt>
      <trkpt lat="42.253916" lon="2.393798">
        <ele>837.4</ele>
        <time>2019-08-19T00:55:16Z</time>
      </trkpt>
      <trkpt lat="42.25396" lon="2.393796">
        <ele>837.6</ele>
        <time>2019-08-19T00:55:18Z</time>
      </trkpt>
      <trkpt lat="42.254004" lon="2.393792">
        <ele>837.8</ele>
        <time>2019-08-19T00:55:20Z</time>
      </trkpt>
      <trkpt lat="42.254048" lon="2.393783">
        <ele>838.1</ele>
        <time>2019-08-19T00:55:22Z</time>
      </trkpt>
      <trkpt lat="42.254093" lon="2.39377">
        <ele>838.4</ele>
        <time>2019-08-19T00:55:24Z</time>
      </trkpt>
      <trkpt lat="42.254137" lon="2.393754">
        <ele>838.7</ele>
        <time>2019-08-19T00:55:26Z</time>
      </trkpt>
      <trkpt lat="42.254181" lon="2.393741">
        <ele>838.9</ele>
        <time>2019-08-19T00:55:28Z</time>
      </trkpt>
      <trkpt lat="42.254226" lon="2.393733">
        <ele>839.2</ele>
        <time>2019-08-19T00:55:30Z</time>
      </trkpt>
      <trkpt lat="42.254271" lon="2.393726">
        <ele>839.5</ele>
        <time>2019-08-19T00:55:32Z</time>
      </trkpt>
      <trkpt lat="42.254311" lon="2.393725">
        <ele>839.7</ele>
        <time>2019-08-19T00:55:34Z</time>
      </trkpt>
      <trkpt lat="42.254352" lon="2.393723">
        <ele>840</ele>
        <time>2019-08-19T00:55:36Z</time>
      </trkpt>
      <trkpt lat="42.254392" lon="2.39373">
        <ele>840.2</ele>
        <time>2019-08-19T00:55:38Z</time>
      </trkpt>
      <trkpt lat="42.254432" lon="2.393745">
        <ele>840.5</ele>
        <time>2019-08-19T00:55:40Z</time>
      </trkpt>
      <trkpt lat="42.254471" lon="2.393761">
        <ele>840.7</ele>
        <time>2019-08-19T00:55:42Z</time>
      </trkpt>
      <trkpt lat="42.25451" lon="2.393778">
        <ele>840.9</ele>
        <time>2019-08-19T00:55:44Z</time>
      </trkpt>
      <trkpt lat="42.254555" lon="2.393794">
        <ele>841.2</ele>
        <time>2019-08-19T00:55:46Z</time>
      </trkpt>
      <trkpt lat="42.254601" lon="2.393808">
        <ele>841.5</ele>
        <time>2019-08-19T00:55:48Z</time>
      </trkpt>
      <trkpt lat="42.254645" lon="2.393819">
        <ele>841.7</ele>
        <time>2019-08-19T00:55:50Z</time>
      </trkpt>
      <trkpt lat="42.254683" lon="2.393842">
        <ele>841.9</ele>
        <time>2019-08-19T00:55:52Z</time>
      </trkpt>
      <trkpt lat="42.254723" lon="2.39387">
        <ele>842.2</ele>
        <time>2019-08-19T00:55:54Z</time>
      </trkpt>
      <trkpt lat="42.254763" lon="2.393886">
        <ele>842.4</ele>
        <time>2019-08-19T00:55:56Z</time>
      </trkpt>
      <trkpt lat="42.2548" lon="2.393904">
        <ele>842.7</ele>
        <time>2019-08-19T00:55:58Z</time>
      </trkpt>
      <trkpt lat="42.254839" lon="2.393929">
        <ele>842.9</ele>
        <time>2019-08-19T00:56:00Z</time>
      </trkpt>
      <trkpt lat="42.254876" lon="2.393961">
        <ele>843.2</ele>
        <time>2019-08-19T00:56:02Z</time>
      </trkpt>
      <trkpt lat="42.254911" lon="2.394002">
        <ele>843.5</ele>
        <time>2019-08-19T00:56:04Z</time>
      </trkpt>
      <trkpt lat="42.254941" lon="2.394054">
        <ele>843.8</ele>
        <time>2019-08-19T00:56:06Z</time>
      </trkpt>
      <trkpt lat="42.254965" lon="2.394103">
        <ele>844</ele>
        <time>2019-08-19T00:56:08Z</time>
      </trkpt>
      <trkpt lat="42.254981" lon="2.394158">
        <ele>844.3</ele>
        <time>2019-08-19T00:56:10Z</time>
      </trkpt>
      <trkpt lat="42.254987" lon="2.394226">
        <ele>844.6</ele>
        <time>2019-08-19T00:56:12Z</time>
      </trkpt>
      <trkpt lat="42.25499" lon="2.394263">
        <ele>844.7</ele>
        <time>2019-08-19T00:56:13Z</time>
      </trkpt>
      <trkpt lat="42.254995" lon="2.394334">
        <ele>845</ele>
        <time>2019-08-19T00:56:15Z</time>
      </trkpt>
      <trkpt lat="42.254989" lon="2.394406">
        <ele>845.3</ele>
        <time>2019-08-19T00:56:17Z</time>
      </trkpt>
      <trkpt lat="42.254974" lon="2.394467">
        <ele>845.6</ele>
        <time>2019-08-19T00:56:19Z</time>
      </trkpt>
      <trkpt lat="42.254963" lon="2.394528">
        <ele>845.8</ele>
        <time>2019-08-19T00:56:21Z</time>
      </trkpt>
      <trkpt lat="42.254951" lon="2.394592">
        <ele>846.1</ele>
        <time>2019-08-19T00:56:23Z</time>
      </trkpt>
      <trkpt lat="42.254941" lon="2.394652">
        <ele>846.3</ele>
        <time>2019-08-19T00:56:25Z</time>
      </trkpt>
      <trkpt lat="42.254932" lon="2.394713">
        <ele>846.6</ele>
        <time>2019-08-19T00:56:27Z</time>
      </trkpt>
      <trkpt lat="42.25493" lon="2.394775">
        <ele>846.8</ele>
        <time>2019-08-19T00:56:29Z</time>
      </trkpt>
      <trkpt lat="42.254936" lon="2.394844">
        <ele>847.1</ele>
        <time>2019-08-19T00:56:31Z</time>
      </trkpt>
      <trkpt lat="42.25494" lon="2.394881">
        <ele>847.2</ele>
        <time>2019-08-19T00:56:32Z</time>
      </trkpt>
      <trkpt lat="42.254946" lon="2.394918">
        <ele>847.4</ele>
        <time>2019-08-19T00:56:33Z</time>
      </trkpt>
      <trkpt lat="42.254952" lon="2.394954">
        <ele>847.5</ele>
        <time>2019-08-19T00:56:34Z</time>
      </trkpt>
      <trkpt lat="42.254969" lon="2.395018">
        <ele>847.8</ele>
        <time>2019-08-19T00:56:36Z</time>
      </trkpt>
      <trkpt lat="42.254994" lon="2.395064">
        <ele>848</ele>
        <time>2019-08-19T00:56:38Z</time>
      </trkpt>
      <trkpt lat="42.255035" lon="2.395103">
        <ele>848.4</ele>
        <time>2019-08-19T00:56:40Z</time>
      </trkpt>
      <trkpt lat="42.255059" lon="2.395122">
        <ele>848.5</ele>
        <time>2019-08-19T00:56:41Z</time>
      </trkpt>
      <trkpt lat="42.255083" lon="2.395139">
        <ele>848.7</ele>
        <time>2019-08-19T00:56:42Z</time>
      </trkpt>
      <trkpt lat="42.255128" lon="2.395167">
        <ele>849</ele>
        <time>2019-08-19T00:56:44Z</time>
      </trkpt>
      <trkpt lat="42.255176" lon="2.395192">
        <ele>849.3</ele>
        <time>2019-08-19T00:56:46Z</time>
      </trkpt>
      <trkpt lat="42.255225" lon="2.395218">
        <ele>849.7</ele>
        <time>2019-08-19T00:56:48Z</time>
      </trkpt>
      <trkpt lat="42.255265" lon="2.395251">
        <ele>850</ele>
        <time>2019-08-19T00:56:50Z</time>
      </trkpt>
      <trkpt lat="42.255302" lon="2.395286">
        <ele>850.4</ele>
        <time>2019-08-19T00:56:52Z</time>
      </trkpt>
      <trkpt lat="42.255341" lon="2.395333">
        <ele>850.8</ele>
        <time>2019-08-19T00:56:54Z</time>
      </trkpt>
      <trkpt lat="42.255359" lon="2.395364">
        <ele>851</ele>
        <time>2019-08-19T00:56:55Z</time>
      </trkpt>
      <trkpt lat="42.255374" lon="2.395431">
        <ele>851.4</ele>
        <time>2019-08-19T00:56:57Z</time>
      </trkpt>
      <trkpt lat="42.255369" lon="2.395502">
        <ele>851.9</ele>
        <time>2019-08-19T00:56:59Z</time>
      </trkpt>
      <trkpt lat="42.255355" lon="2.39557">
        <ele>852.3</ele>
        <time>2019-08-19T00:57:01Z</time>
      </trkpt>
      <trkpt lat="42.255346" lon="2.39564">
        <ele>852.7</ele>
        <time>2019-08-19T00:57:03Z</time>
      </trkpt>
      <trkpt lat="42.25534" lon="2.395711">
        <ele>853.2</ele>
        <time>2019-08-19T00:57:05Z</time>
      </trkpt>
      <trkpt lat="42.255335" lon="2.395747">
        <ele>853.4</ele>
        <time>2019-08-19T00:57:06Z</time>
      </trkpt>
      <trkpt lat="42.255329" lon="2.395797">
        <ele>853.6</ele>
        <time>2019-08-19T00:57:08Z</time>
      </trkpt>
      <trkpt lat="42.255326" lon="2.395835">
        <ele>853.9</ele>
        <time>2019-08-19T00:57:09Z</time>
      </trkpt>
      <trkpt lat="42.255326" lon="2.395909">
        <ele>854.2</ele>
        <time>2019-08-19T00:57:11Z</time>
      </trkpt>
      <trkpt lat="42.255327" lon="2.395947">
        <ele>854.4</ele>
        <time>2019-08-19T00:57:12Z</time>
      </trkpt>
      <trkpt lat="42.255329" lon="2.396018">
        <ele>854.8</ele>
        <time>2019-08-19T00:57:14Z</time>
      </trkpt>
      <trkpt lat="42.255337" lon="2.396086">
        <ele>855.1</ele>
        <time>2019-08-19T00:57:16Z</time>
      </trkpt>
      <trkpt lat="42.255351" lon="2.396151">
        <ele>855.4</ele>
        <time>2019-08-19T00:57:18Z</time>
      </trkpt>
      <trkpt lat="42.255364" lon="2.396209">
        <ele>855.6</ele>
        <time>2019-08-19T00:57:20Z</time>
      </trkpt>
      <trkpt lat="42.255388" lon="2.39627">
        <ele>855.9</ele>
        <time>2019-08-19T00:57:22Z</time>
      </trkpt>
      <trkpt lat="42.255415" lon="2.396328">
        <ele>856.2</ele>
        <time>2019-08-19T00:57:24Z</time>
      </trkpt>
      <trkpt lat="42.255446" lon="2.396379">
        <ele>856.5</ele>
        <time>2019-08-19T00:57:26Z</time>
      </trkpt>
      <trkpt lat="42.255481" lon="2.396433">
        <ele>856.8</ele>
        <time>2019-08-19T00:57:28Z</time>
      </trkpt>
      <trkpt lat="42.25551" lon="2.396481">
        <ele>857.1</ele>
        <time>2019-08-19T00:57:30Z</time>
      </trkpt>
      <trkpt lat="42.255538" lon="2.396529">
        <ele>857.3</ele>
        <time>2019-08-19T00:57:32Z</time>
      </trkpt>
      <trkpt lat="42.255566" lon="2.396573">
        <ele>857.6</ele>
        <time>2019-08-19T00:57:34Z</time>
      </trkpt>
      <trkpt lat="42.255597" lon="2.396622">
        <ele>857.9</ele>
        <time>2019-08-19T00:57:36Z</time>
      </trkpt>
      <trkpt lat="42.255628" lon="2.396665">
        <ele>858.1</ele>
        <time>2019-08-19T00:57:38Z</time>
      </trkpt>
      <trkpt lat="42.255662" lon="2.396701">
        <ele>858.4</ele>
        <time>2019-08-19T00:57:40Z</time>
      </trkpt>
      <trkpt lat="42.255694" lon="2.396747">
        <ele>858.6</ele>
        <time>2019-08-19T00:57:42Z</time>
      </trkpt>
      <trkpt lat="42.255725" lon="2.396794">
        <ele>858.9</ele>
        <time>2019-08-19T00:57:44Z</time>
      </trkpt>
      <trkpt lat="42.255763" lon="2.396843">
        <ele>859.1</ele>
        <time>2019-08-19T00:57:46Z</time>
      </trkpt>
      <trkpt lat="42.255799" lon="2.396889">
        <ele>859.4</ele>
        <time>2019-08-19T00:57:48Z</time>
      </trkpt>
      <trkpt lat="42.255833" lon="2.396933">
        <ele>859.6</ele>
        <time>2019-08-19T00:57:50Z</time>
      </trkpt>
      <trkpt lat="42.255868" lon="2.396974">
        <ele>859.8</ele>
        <time>2019-08-19T00:57:52Z</time>
      </trkpt>
      <trkpt lat="42.255916" lon="2.396998">
        <ele>860.1</ele>
        <time>2019-08-19T00:57:54Z</time>
      </trkpt>
      <trkpt lat="42.255971" lon="2.396998">
        <ele>860.3</ele>
        <time>2019-08-19T00:57:56Z</time>
      </trkpt>
      <trkpt lat="42.255999" lon="2.396996">
        <ele>860.4</ele>
        <time>2019-08-19T00:57:57Z</time>
      </trkpt>
      <trkpt lat="42.256029" lon="2.396995">
        <ele>860.5</ele>
        <time>2019-08-19T00:57:58Z</time>
      </trkpt>
      <trkpt lat="42.25606" lon="2.396997">
        <ele>860.7</ele>
        <time>2019-08-19T00:57:59Z</time>
      </trkpt>
      <trkpt lat="42.256089" lon="2.397">
        <ele>860.8</ele>
        <time>2019-08-19T00:58:00Z</time>
      </trkpt>
      <trkpt lat="42.256117" lon="2.397003">
        <ele>860.9</ele>
        <time>2019-08-19T00:58:01Z</time>
      </trkpt>
      <trkpt lat="42.25617" lon="2.397014">
        <ele>861.1</ele>
        <time>2019-08-19T00:58:03Z</time>
      </trkpt>
      <trkpt lat="42.256197" lon="2.397022">
        <ele>861.2</ele>
        <time>2019-08-19T00:58:04Z</time>
      </trkpt>
      <trkpt lat="42.256242" lon="2.397052">
        <ele>861.4</ele>
        <time>2019-08-19T00:58:06Z</time>
      </trkpt>
      <trkpt lat="42.256278" lon="2.397088">
        <ele>861.5</ele>
        <time>2019-08-19T00:58:08Z</time>
      </trkpt>
      <trkpt lat="42.256311" lon="2.397123">
        <ele>861.6</ele>
        <time>2019-08-19T00:58:10Z</time>
      </trkpt>
      <trkpt lat="42.256339" lon="2.397171">
        <ele>861.8</ele>
        <time>2019-08-19T00:58:12Z</time>
      </trkpt>
      <trkpt lat="42.256361" lon="2.397221">
        <ele>861.9</ele>
        <time>2019-08-19T00:58:14Z</time>
      </trkpt>
      <trkpt lat="42.256378" lon="2.397269">
        <ele>862</ele>
        <time>2019-08-19T00:58:16Z</time>
      </trkpt>
      <trkpt lat="42.256398" lon="2.397319">
        <ele>862.1</ele>
        <time>2019-08-19T00:58:18Z</time>
      </trkpt>
      <trkpt lat="42.256418" lon="2.397361">
        <ele>862.1</ele>
        <time>2019-08-19T00:58:20Z</time>
      </trkpt>
      <trkpt lat="42.256448" lon="2.397404">
        <ele>862.2</ele>
        <time>2019-08-19T00:58:22Z</time>
      </trkpt>
      <trkpt lat="42.256481" lon="2.397442">
        <ele>862.2</ele>
        <time>2019-08-19T00:58:24Z</time>
      </trkpt>
      <trkpt lat="42.256508" lon="2.397491">
        <ele>862.3</ele>
        <time>2019-08-19T00:58:26Z</time>
      </trkpt>
      <trkpt lat="42.256542" lon="2.397539">
        <ele>862.3</ele>
        <time>2019-08-19T00:58:28Z</time>
      </trkpt>
      <trkpt lat="42.256568" lon="2.397588">
        <ele>862.4</ele>
        <time>2019-08-19T00:58:30Z</time>
      </trkpt>
      <trkpt lat="42.256579" lon="2.39765">
        <ele>862.4</ele>
        <time>2019-08-19T00:58:32Z</time>
      </trkpt>
      <trkpt lat="42.256579" lon="2.397719">
        <ele>862.4</ele>
        <time>2019-08-19T00:58:34Z</time>
      </trkpt>
      <trkpt lat="42.256574" lon="2.397778">
        <ele>862.4</ele>
        <time>2019-08-19T00:58:36Z</time>
      </trkpt>
      <trkpt lat="42.25656" lon="2.397842">
        <ele>862.4</ele>
        <time>2019-08-19T00:58:38Z</time>
      </trkpt>
      <trkpt lat="42.256541" lon="2.397908">
        <ele>862.4</ele>
        <time>2019-08-19T00:58:40Z</time>
      </trkpt>
      <trkpt lat="42.256524" lon="2.397968">
        <ele>862.4</ele>
        <time>2019-08-19T00:58:42Z</time>
      </trkpt>
      <trkpt lat="42.25651" lon="2.398024">
        <ele>862.4</ele>
        <time>2019-08-19T00:58:44Z</time>
      </trkpt>
      <trkpt lat="42.256501" lon="2.398083">
        <ele>862.4</ele>
        <time>2019-08-19T00:58:46Z</time>
      </trkpt>
      <trkpt lat="42.256493" lon="2.398142">
        <ele>862.4</ele>
        <time>2019-08-19T00:58:48Z</time>
      </trkpt>
      <trkpt lat="42.256486" lon="2.398197">
        <ele>862.4</ele>
        <time>2019-08-19T00:58:50Z</time>
      </trkpt>
      <trkpt lat="42.256479" lon="2.398253">
        <ele>862.4</ele>
        <time>2019-08-19T00:58:52Z</time>
      </trkpt>
      <trkpt lat="42.256477" lon="2.398315">
        <ele>862.4</ele>
        <time>2019-08-19T00:58:54Z</time>
      </trkpt>
      <trkpt lat="42.25648" lon="2.398365">
        <ele>862.4</ele>
        <time>2019-08-19T00:58:56Z</time>
      </trkpt>
      <trkpt lat="42.256482" lon="2.398412">
        <ele>862.4</ele>
        <time>2019-08-19T00:58:58Z</time>
      </trkpt>
      <trkpt lat="42.256489" lon="2.39847">
        <ele>862.4</ele>
        <time>2019-08-19T00:59:00Z</time>
      </trkpt>
      <trkpt lat="42.256502" lon="2.398522">
        <ele>862.4</ele>
        <time>2019-08-19T00:59:02Z</time>
      </trkpt>
      <trkpt lat="42.25652" lon="2.39856">
        <ele>862.4</ele>
        <time>2019-08-19T00:59:04Z</time>
      </trkpt>
      <trkpt lat="42.256547" lon="2.398591">
        <ele>862.3</ele>
        <time>2019-08-19T00:59:06Z</time>
      </trkpt>
      <trkpt lat="42.256579" lon="2.398618">
        <ele>862.3</ele>
        <time>2019-08-19T00:59:08Z</time>
      </trkpt>
      <trkpt lat="42.256612" lon="2.398634">
        <ele>862.3</ele>
        <time>2019-08-19T00:59:10Z</time>
      </trkpt>
      <trkpt lat="42.256643" lon="2.398648">
        <ele>862.3</ele>
        <time>2019-08-19T00:59:12Z</time>
      </trkpt>
      <trkpt lat="42.256667" lon="2.398668">
        <ele>862.3</ele>
        <time>2019-08-19T00:59:14Z</time>
      </trkpt>
      <trkpt lat="42.25669" lon="2.398691">
        <ele>862.3</ele>
        <time>2019-08-19T00:59:16Z</time>
      </trkpt>
      <trkpt lat="42.25672" lon="2.398681">
        <ele>862.3</ele>
        <time>2019-08-19T01:04:01Z</time>
      </trkpt>
      <trkpt lat="42.25674" lon="2.398655">
        <ele>862.3</ele>
        <time>2019-08-19T01:04:03Z</time>
      </trkpt>
      <trkpt lat="42.256781" lon="2.398611">
        <ele>862.3</ele>
        <time>2019-08-19T01:04:05Z</time>
      </trkpt>
      <trkpt lat="42.25681" lon="2.398587">
        <ele>862.2</ele>
        <time>2019-08-19T01:04:07Z</time>
      </trkpt>
      <trkpt lat="42.256839" lon="2.398556">
        <ele>862.4</ele>
        <time>2019-08-19T01:04:09Z</time>
      </trkpt>
      <trkpt lat="42.256872" lon="2.398518">
        <ele>862.6</ele>
        <time>2019-08-19T01:04:11Z</time>
      </trkpt>
      <trkpt lat="42.256902" lon="2.39848">
        <ele>862.8</ele>
        <time>2019-08-19T01:04:13Z</time>
      </trkpt>
      <trkpt lat="42.256937" lon="2.39845">
        <ele>863</ele>
        <time>2019-08-19T01:04:15Z</time>
      </trkpt>
      <trkpt lat="42.256973" lon="2.398428">
        <ele>863.1</ele>
        <time>2019-08-19T01:04:17Z</time>
      </trkpt>
      <trkpt lat="42.257018" lon="2.398378">
        <ele>863.4</ele>
        <time>2019-08-19T01:04:19Z</time>
      </trkpt>
      <trkpt lat="42.257042" lon="2.398345">
        <ele>863.6</ele>
        <time>2019-08-19T01:04:20Z</time>
      </trkpt>
      <trkpt lat="42.257063" lon="2.398308">
        <ele>863.8</ele>
        <time>2019-08-19T01:04:21Z</time>
      </trkpt>
      <trkpt lat="42.257083" lon="2.39827">
        <ele>863.9</ele>
        <time>2019-08-19T01:04:22Z</time>
      </trkpt>
      <trkpt lat="42.257103" lon="2.398228">
        <ele>864.1</ele>
        <time>2019-08-19T01:04:23Z</time>
      </trkpt>
      <trkpt lat="42.257121" lon="2.398182">
        <ele>864.3</ele>
        <time>2019-08-19T01:04:24Z</time>
      </trkpt>
      <trkpt lat="42.257142" lon="2.398129">
        <ele>864.5</ele>
        <time>2019-08-19T01:04:25Z</time>
      </trkpt>
      <trkpt lat="42.257165" lon="2.398106">
        <ele>864.7</ele>
        <time>2019-08-19T01:04:26Z</time>
      </trkpt>
      <trkpt lat="42.257184" lon="2.398068">
        <ele>864.9</ele>
        <time>2019-08-19T01:04:27Z</time>
      </trkpt>
      <trkpt lat="42.257205" lon="2.398042">
        <ele>865</ele>
        <time>2019-08-19T01:04:28Z</time>
      </trkpt>
      <trkpt lat="42.257227" lon="2.398006">
        <ele>865.2</ele>
        <time>2019-08-19T01:04:29Z</time>
      </trkpt>
      <trkpt lat="42.257255" lon="2.397976">
        <ele>865.4</ele>
        <time>2019-08-19T01:04:30Z</time>
      </trkpt>
      <trkpt lat="42.257283" lon="2.397952">
        <ele>865.6</ele>
        <time>2019-08-19T01:04:31Z</time>
      </trkpt>
      <trkpt lat="42.25731" lon="2.397927">
        <ele>865.8</ele>
        <time>2019-08-19T01:04:32Z</time>
      </trkpt>
      <trkpt lat="42.257339" lon="2.397884">
        <ele>866</ele>
        <time>2019-08-19T01:04:33Z</time>
      </trkpt>
      <trkpt lat="42.257362" lon="2.397855">
        <ele>866.2</ele>
        <time>2019-08-19T01:04:34Z</time>
      </trkpt>
      <trkpt lat="42.257389" lon="2.397822">
        <ele>866.4</ele>
        <time>2019-08-19T01:04:35Z</time>
      </trkpt>
      <trkpt lat="42.257412" lon="2.397787">
        <ele>866.6</ele>
        <time>2019-08-19T01:04:36Z</time>
      </trkpt>
      <trkpt lat="42.257436" lon="2.397753">
        <ele>866.8</ele>
        <time>2019-08-19T01:04:37Z</time>
      </trkpt>
      <trkpt lat="42.257459" lon="2.397717">
        <ele>867</ele>
        <time>2019-08-19T01:04:38Z</time>
      </trkpt>
      <trkpt lat="42.25748" lon="2.397677">
        <ele>867.2</ele>
        <time>2019-08-19T01:04:39Z</time>
      </trkpt>
      <trkpt lat="42.257495" lon="2.397633">
        <ele>867.4</ele>
        <time>2019-08-19T01:04:40Z</time>
      </trkpt>
      <trkpt lat="42.257503" lon="2.39759">
        <ele>867.5</ele>
        <time>2019-08-19T01:04:41Z</time>
      </trkpt>
      <trkpt lat="42.257506" lon="2.397547">
        <ele>867.6</ele>
        <time>2019-08-19T01:04:42Z</time>
      </trkpt>
      <trkpt lat="42.257503" lon="2.397506">
        <ele>867.8</ele>
        <time>2019-08-19T01:04:43Z</time>
      </trkpt>
      <trkpt lat="42.257496" lon="2.397464">
        <ele>867.9</ele>
        <time>2019-08-19T01:04:44Z</time>
      </trkpt>
      <trkpt lat="42.257486" lon="2.397424">
        <ele>868</ele>
        <time>2019-08-19T01:04:45Z</time>
      </trkpt>
      <trkpt lat="42.257472" lon="2.397387">
        <ele>868.2</ele>
        <time>2019-08-19T01:04:46Z</time>
      </trkpt>
      <trkpt lat="42.257457" lon="2.397352">
        <ele>868.3</ele>
        <time>2019-08-19T01:04:47Z</time>
      </trkpt>
      <trkpt lat="42.257442" lon="2.39732">
        <ele>868.4</ele>
        <time>2019-08-19T01:04:48Z</time>
      </trkpt>
      <trkpt lat="42.257426" lon="2.397288">
        <ele>868.6</ele>
        <time>2019-08-19T01:04:49Z</time>
      </trkpt>
      <trkpt lat="42.257408" lon="2.397256">
        <ele>868.7</ele>
        <time>2019-08-19T01:04:50Z</time>
      </trkpt>
      <trkpt lat="42.257386" lon="2.397225">
        <ele>868.8</ele>
        <time>2019-08-19T01:04:51Z</time>
      </trkpt>
      <trkpt lat="42.257364" lon="2.397195">
        <ele>869</ele>
        <time>2019-08-19T01:04:52Z</time>
      </trkpt>
      <trkpt lat="42.257346" lon="2.397162">
        <ele>869.1</ele>
        <time>2019-08-19T01:04:53Z</time>
      </trkpt>
      <trkpt lat="42.257332" lon="2.397126">
        <ele>869.2</ele>
        <time>2019-08-19T01:04:54Z</time>
      </trkpt>
      <trkpt lat="42.257317" lon="2.39709">
        <ele>869.3</ele>
        <time>2019-08-19T01:04:55Z</time>
      </trkpt>
      <trkpt lat="42.257297" lon="2.397055">
        <ele>869.4</ele>
        <time>2019-08-19T01:04:56Z</time>
      </trkpt>
      <trkpt lat="42.257276" lon="2.397018">
        <ele>869.6</ele>
        <time>2019-08-19T01:04:57Z</time>
      </trkpt>
      <trkpt lat="42.257263" lon="2.396978">
        <ele>869.7</ele>
        <time>2019-08-19T01:04:58Z</time>
      </trkpt>
      <trkpt lat="42.257257" lon="2.396934">
        <ele>869.8</ele>
        <time>2019-08-19T01:04:59Z</time>
      </trkpt>
      <trkpt lat="42.257257" lon="2.396887">
        <ele>869.9</ele>
        <time>2019-08-19T01:05:00Z</time>
      </trkpt>
      <trkpt lat="42.257259" lon="2.396839">
        <ele>869.9</ele>
        <time>2019-08-19T01:05:01Z</time>
      </trkpt>
      <trkpt lat="42.257261" lon="2.396793">
        <ele>870</ele>
        <time>2019-08-19T01:05:02Z</time>
      </trkpt>
      <trkpt lat="42.257267" lon="2.39675">
        <ele>870.1</ele>
        <time>2019-08-19T01:05:03Z</time>
      </trkpt>
      <trkpt lat="42.257274" lon="2.396709">
        <ele>870.1</ele>
        <time>2019-08-19T01:05:04Z</time>
      </trkpt>
      <trkpt lat="42.257285" lon="2.39667">
        <ele>870.2</ele>
        <time>2019-08-19T01:05:05Z</time>
      </trkpt>
      <trkpt lat="42.257291" lon="2.396632">
        <ele>870.2</ele>
        <time>2019-08-19T01:05:06Z</time>
      </trkpt>
      <trkpt lat="42.257297" lon="2.396592">
        <ele>870.3</ele>
        <time>2019-08-19T01:05:07Z</time>
      </trkpt>
      <trkpt lat="42.257307" lon="2.39655">
        <ele>870.4</ele>
        <time>2019-08-19T01:05:08Z</time>
      </trkpt>
      <trkpt lat="42.257318" lon="2.396509">
        <ele>870.4</ele>
        <time>2019-08-19T01:05:09Z</time>
      </trkpt>
      <trkpt lat="42.257328" lon="2.396468">
        <ele>870.5</ele>
        <time>2019-08-19T01:05:10Z</time>
      </trkpt>
      <trkpt lat="42.257336" lon="2.396426">
        <ele>870.5</ele>
        <time>2019-08-19T01:05:11Z</time>
      </trkpt>
      <trkpt lat="42.257344" lon="2.396383">
        <ele>870.6</ele>
        <time>2019-08-19T01:05:12Z</time>
      </trkpt>
      <trkpt lat="42.257353" lon="2.396337">
        <ele>870.6</ele>
        <time>2019-08-19T01:05:13Z</time>
      </trkpt>
      <trkpt lat="42.257363" lon="2.396289">
        <ele>870.7</ele>
        <time>2019-08-19T01:05:14Z</time>
      </trkpt>
      <trkpt lat="42.257372" lon="2.396244">
        <ele>870.8</ele>
        <time>2019-08-19T01:05:15Z</time>
      </trkpt>
      <trkpt lat="42.257383" lon="2.3962">
        <ele>870.8</ele>
        <time>2019-08-19T01:05:16Z</time>
      </trkpt>
      <trkpt lat="42.257396" lon="2.39616">
        <ele>870.9</ele>
        <time>2019-08-19T01:05:17Z</time>
      </trkpt>
      <trkpt lat="42.25741" lon="2.396124">
        <ele>870.9</ele>
        <time>2019-08-19T01:05:18Z</time>
      </trkpt>
      <trkpt lat="42.257424" lon="2.396091">
        <ele>871</ele>
        <time>2019-08-19T01:05:19Z</time>
      </trkpt>
      <trkpt lat="42.257443" lon="2.39606">
        <ele>871.1</ele>
        <time>2019-08-19T01:05:20Z</time>
      </trkpt>
      <trkpt lat="42.257464" lon="2.39603">
        <ele>871.1</ele>
        <time>2019-08-19T01:05:21Z</time>
      </trkpt>
      <trkpt lat="42.257483" lon="2.395995">
        <ele>871.2</ele>
        <time>2019-08-19T01:05:22Z</time>
      </trkpt>
      <trkpt lat="42.257498" lon="2.395963">
        <ele>871.2</ele>
        <time>2019-08-19T01:05:23Z</time>
      </trkpt>
      <trkpt lat="42.25753" lon="2.39591">
        <ele>871.3</ele>
        <time>2019-08-19T01:05:25Z</time>
      </trkpt>
      <trkpt lat="42.257565" lon="2.395854">
        <ele>871.5</ele>
        <time>2019-08-19T01:05:27Z</time>
      </trkpt>
      <trkpt lat="42.257581" lon="2.395824">
        <ele>871.5</ele>
        <time>2019-08-19T01:05:28Z</time>
      </trkpt>
      <trkpt lat="42.257618" lon="2.395766">
        <ele>871.7</ele>
        <time>2019-08-19T01:05:30Z</time>
      </trkpt>
      <trkpt lat="42.257641" lon="2.395735">
        <ele>871.8</ele>
        <time>2019-08-19T01:05:31Z</time>
      </trkpt>
      <trkpt lat="42.257665" lon="2.395707">
        <ele>871.9</ele>
        <time>2019-08-19T01:05:32Z</time>
      </trkpt>
      <trkpt lat="42.257691" lon="2.395679">
        <ele>872</ele>
        <time>2019-08-19T01:05:33Z</time>
      </trkpt>
      <trkpt lat="42.25772" lon="2.395653">
        <ele>872.1</ele>
        <time>2019-08-19T01:05:34Z</time>
      </trkpt>
      <trkpt lat="42.257748" lon="2.395626">
        <ele>872.2</ele>
        <time>2019-08-19T01:05:35Z</time>
      </trkpt>
      <trkpt lat="42.257776" lon="2.3956">
        <ele>872.3</ele>
        <time>2019-08-19T01:05:36Z</time>
      </trkpt>
      <trkpt lat="42.257805" lon="2.395576">
        <ele>872.4</ele>
        <time>2019-08-19T01:05:37Z</time>
      </trkpt>
      <trkpt lat="42.257834" lon="2.395552">
        <ele>872.5</ele>
        <time>2019-08-19T01:05:38Z</time>
      </trkpt>
      <trkpt lat="42.257861" lon="2.395527">
        <ele>872.6</ele>
        <time>2019-08-19T01:05:39Z</time>
      </trkpt>
      <trkpt lat="42.257891" lon="2.395503">
        <ele>872.8</ele>
        <time>2019-08-19T01:05:40Z</time>
      </trkpt>
      <trkpt lat="42.257924" lon="2.395487">
        <ele>872.9</ele>
        <time>2019-08-19T01:05:41Z</time>
      </trkpt>
      <trkpt lat="42.257953" lon="2.395473">
        <ele>873</ele>
        <time>2019-08-19T01:05:42Z</time>
      </trkpt>
      <trkpt lat="42.257978" lon="2.395455">
        <ele>873.1</ele>
        <time>2019-08-19T01:05:43Z</time>
      </trkpt>
      <trkpt lat="42.258006" lon="2.395433">
        <ele>873.2</ele>
        <time>2019-08-19T01:05:44Z</time>
      </trkpt>
      <trkpt lat="42.258036" lon="2.39541">
        <ele>873.3</ele>
        <time>2019-08-19T01:05:45Z</time>
      </trkpt>
      <trkpt lat="42.258066" lon="2.395388">
        <ele>873.5</ele>
        <time>2019-08-19T01:05:46Z</time>
      </trkpt>
      <trkpt lat="42.258094" lon="2.395365">
        <ele>873.6</ele>
        <time>2019-08-19T01:05:47Z</time>
      </trkpt>
      <trkpt lat="42.258122" lon="2.395341">
        <ele>873.7</ele>
        <time>2019-08-19T01:05:48Z</time>
      </trkpt>
      <trkpt lat="42.258152" lon="2.395318">
        <ele>873.8</ele>
        <time>2019-08-19T01:05:49Z</time>
      </trkpt>
      <trkpt lat="42.258182" lon="2.395295">
        <ele>873.9</ele>
        <time>2019-08-19T01:05:50Z</time>
      </trkpt>
      <trkpt lat="42.258213" lon="2.39527">
        <ele>874</ele>
        <time>2019-08-19T01:05:51Z</time>
      </trkpt>
      <trkpt lat="42.258244" lon="2.395243">
        <ele>874.1</ele>
        <time>2019-08-19T01:05:52Z</time>
      </trkpt>
      <trkpt lat="42.258272" lon="2.395216">
        <ele>874.2</ele>
        <time>2019-08-19T01:05:53Z</time>
      </trkpt>
      <trkpt lat="42.258296" lon="2.395186">
        <ele>874.3</ele>
        <time>2019-08-19T01:05:54Z</time>
      </trkpt>
      <trkpt lat="42.258319" lon="2.395156">
        <ele>874.4</ele>
        <time>2019-08-19T01:05:55Z</time>
      </trkpt>
      <trkpt lat="42.258338" lon="2.39513">
        <ele>874.4</ele>
        <time>2019-08-19T01:05:56Z</time>
      </trkpt>
      <trkpt lat="42.258356" lon="2.395101">
        <ele>874.5</ele>
        <time>2019-08-19T01:05:57Z</time>
      </trkpt>
      <trkpt lat="42.258371" lon="2.395068">
        <ele>874.6</ele>
        <time>2019-08-19T01:05:58Z</time>
      </trkpt>
      <trkpt lat="42.258382" lon="2.395032">
        <ele>874.6</ele>
        <time>2019-08-19T01:05:59Z</time>
      </trkpt>
      <trkpt lat="42.258388" lon="2.394992">
        <ele>874.7</ele>
        <time>2019-08-19T01:06:00Z</time>
      </trkpt>
      <trkpt lat="42.258389" lon="2.39495">
        <ele>874.8</ele>
        <time>2019-08-19T01:06:01Z</time>
      </trkpt>
      <trkpt lat="42.258387" lon="2.394907">
        <ele>874.8</ele>
        <time>2019-08-19T01:06:02Z</time>
      </trkpt>
      <trkpt lat="42.258384" lon="2.394862">
        <ele>874.9</ele>
        <time>2019-08-19T01:06:03Z</time>
      </trkpt>
      <trkpt lat="42.258379" lon="2.394818">
        <ele>875</ele>
        <time>2019-08-19T01:06:04Z</time>
      </trkpt>
      <trkpt lat="42.258371" lon="2.394774">
        <ele>875</ele>
        <time>2019-08-19T01:06:05Z</time>
      </trkpt>
      <trkpt lat="42.25836" lon="2.394729">
        <ele>875.1</ele>
        <time>2019-08-19T01:06:06Z</time>
      </trkpt>
      <trkpt lat="42.258344" lon="2.394687">
        <ele>875.2</ele>
        <time>2019-08-19T01:06:07Z</time>
      </trkpt>
      <trkpt lat="42.258325" lon="2.394649">
        <ele>875.2</ele>
        <time>2019-08-19T01:06:08Z</time>
      </trkpt>
      <trkpt lat="42.258304" lon="2.394615">
        <ele>875.3</ele>
        <time>2019-08-19T01:06:09Z</time>
      </trkpt>
      <trkpt lat="42.258283" lon="2.394581">
        <ele>875.4</ele>
        <time>2019-08-19T01:06:10Z</time>
      </trkpt>
      <trkpt lat="42.258261" lon="2.394546">
        <ele>875.4</ele>
        <time>2019-08-19T01:06:11Z</time>
      </trkpt>
      <trkpt lat="42.258239" lon="2.394513">
        <ele>875.5</ele>
        <time>2019-08-19T01:06:12Z</time>
      </trkpt>
      <trkpt lat="42.258216" lon="2.394476">
        <ele>875.6</ele>
        <time>2019-08-19T01:06:13Z</time>
      </trkpt>
      <trkpt lat="42.258195" lon="2.394438">
        <ele>875.7</ele>
        <time>2019-08-19T01:06:14Z</time>
      </trkpt>
      <trkpt lat="42.258169" lon="2.394403">
        <ele>875.8</ele>
        <time>2019-08-19T01:06:15Z</time>
      </trkpt>
      <trkpt lat="42.258138" lon="2.394372">
        <ele>875.9</ele>
        <time>2019-08-19T01:06:16Z</time>
      </trkpt>
      <trkpt lat="42.258105" lon="2.394344">
        <ele>876</ele>
        <time>2019-08-19T01:06:17Z</time>
      </trkpt>
      <trkpt lat="42.258073" lon="2.394319">
        <ele>876.1</ele>
        <time>2019-08-19T01:06:18Z</time>
      </trkpt>
      <trkpt lat="42.258036" lon="2.394297">
        <ele>876.2</ele>
        <time>2019-08-19T01:06:19Z</time>
      </trkpt>
      <trkpt lat="42.257999" lon="2.394276">
        <ele>876.3</ele>
        <time>2019-08-19T01:06:20Z</time>
      </trkpt>
      <trkpt lat="42.257962" lon="2.394251">
        <ele>876.5</ele>
        <time>2019-08-19T01:06:21Z</time>
      </trkpt>
      <trkpt lat="42.257922" lon="2.394228">
        <ele>876.6</ele>
        <time>2019-08-19T01:06:22Z</time>
      </trkpt>
      <trkpt lat="42.257883" lon="2.394203">
        <ele>876.8</ele>
        <time>2019-08-19T01:06:23Z</time>
      </trkpt>
      <trkpt lat="42.257847" lon="2.394173">
        <ele>877</ele>
        <time>2019-08-19T01:06:24Z</time>
      </trkpt>
      <trkpt lat="42.257815" lon="2.394134">
        <ele>877.1</ele>
        <time>2019-08-19T01:06:25Z</time>
      </trkpt>
      <trkpt lat="42.257788" lon="2.394088">
        <ele>877.3</ele>
        <time>2019-08-19T01:06:26Z</time>
      </trkpt>
      <trkpt lat="42.257771" lon="2.394041">
        <ele>877.4</ele>
        <time>2019-08-19T01:06:27Z</time>
      </trkpt>
      <trkpt lat="42.257759" lon="2.393991">
        <ele>877.5</ele>
        <time>2019-08-19T01:06:28Z</time>
      </trkpt>
      <trkpt lat="42.257754" lon="2.393938">
        <ele>877.7</ele>
        <time>2019-08-19T01:06:29Z</time>
      </trkpt>
      <trkpt lat="42.257752" lon="2.393888">
        <ele>877.8</ele>
        <time>2019-08-19T01:06:30Z</time>
      </trkpt>
      <trkpt lat="42.257753" lon="2.393842">
        <ele>877.9</ele>
        <time>2019-08-19T01:06:31Z</time>
      </trkpt>
      <trkpt lat="42.257758" lon="2.393795">
        <ele>878</ele>
        <time>2019-08-19T01:06:32Z</time>
      </trkpt>
      <trkpt lat="42.257769" lon="2.39375">
        <ele>878.1</ele>
        <time>2019-08-19T01:06:33Z</time>
      </trkpt>
      <trkpt lat="42.257787" lon="2.393709">
        <ele>878.1</ele>
        <time>2019-08-19T01:06:34Z</time>
      </trkpt>
      <trkpt lat="42.257805" lon="2.393673">
        <ele>878.2</ele>
        <time>2019-08-19T01:06:35Z</time>
      </trkpt>
      <trkpt lat="42.257821" lon="2.393641">
        <ele>878.2</ele>
        <time>2019-08-19T01:06:36Z</time>
      </trkpt>
      <trkpt lat="42.257837" lon="2.393611">
        <ele>878.3</ele>
        <time>2019-08-19T01:06:37Z</time>
      </trkpt>
      <trkpt lat="42.257864" lon="2.393571">
        <ele>878.3</ele>
        <time>2019-08-19T01:06:39Z</time>
      </trkpt>
      <trkpt lat="42.257893" lon="2.393559">
        <ele>878.4</ele>
        <time>2019-08-19T01:07:09Z</time>
      </trkpt>
      <trkpt lat="42.257913" lon="2.39352">
        <ele>878.4</ele>
        <time>2019-08-19T01:07:11Z</time>
      </trkpt>
      <trkpt lat="42.257963" lon="2.393483">
        <ele>878.5</ele>
        <time>2019-08-19T01:07:13Z</time>
      </trkpt>
      <trkpt lat="42.257995" lon="2.393458">
        <ele>878.5</ele>
        <time>2019-08-19T01:07:14Z</time>
      </trkpt>
      <trkpt lat="42.258026" lon="2.393429">
        <ele>878.5</ele>
        <time>2019-08-19T01:07:15Z</time>
      </trkpt>
      <trkpt lat="42.258055" lon="2.393399">
        <ele>878.5</ele>
        <time>2019-08-19T01:07:16Z</time>
      </trkpt>
      <trkpt lat="42.258082" lon="2.393369">
        <ele>878.6</ele>
        <time>2019-08-19T01:07:17Z</time>
      </trkpt>
      <trkpt lat="42.258109" lon="2.393339">
        <ele>878.6</ele>
        <time>2019-08-19T01:07:18Z</time>
      </trkpt>
      <trkpt lat="42.258139" lon="2.393304">
        <ele>878.6</ele>
        <time>2019-08-19T01:07:19Z</time>
      </trkpt>
      <trkpt lat="42.25817" lon="2.393271">
        <ele>878.7</ele>
        <time>2019-08-19T01:07:20Z</time>
      </trkpt>
      <trkpt lat="42.258202" lon="2.393237">
        <ele>878.7</ele>
        <time>2019-08-19T01:07:21Z</time>
      </trkpt>
      <trkpt lat="42.258233" lon="2.3932">
        <ele>878.7</ele>
        <time>2019-08-19T01:07:22Z</time>
      </trkpt>
      <trkpt lat="42.258267" lon="2.393166">
        <ele>878.8</ele>
        <time>2019-08-19T01:07:23Z</time>
      </trkpt>
      <trkpt lat="42.258301" lon="2.393136">
        <ele>878.8</ele>
        <time>2019-08-19T01:07:24Z</time>
      </trkpt>
      <trkpt lat="42.258335" lon="2.393102">
        <ele>878.9</ele>
        <time>2019-08-19T01:07:25Z</time>
      </trkpt>
      <trkpt lat="42.25837" lon="2.393066">
        <ele>879</ele>
        <time>2019-08-19T01:07:26Z</time>
      </trkpt>
      <trkpt lat="42.258405" lon="2.393028">
        <ele>879.1</ele>
        <time>2019-08-19T01:07:27Z</time>
      </trkpt>
      <trkpt lat="42.258439" lon="2.392992">
        <ele>879.2</ele>
        <time>2019-08-19T01:07:28Z</time>
      </trkpt>
      <trkpt lat="42.258469" lon="2.392942">
        <ele>879.4</ele>
        <time>2019-08-19T01:07:29Z</time>
      </trkpt>
      <trkpt lat="42.258503" lon="2.392909">
        <ele>879.5</ele>
        <time>2019-08-19T01:07:30Z</time>
      </trkpt>
      <trkpt lat="42.258536" lon="2.392872">
        <ele>879.7</ele>
        <time>2019-08-19T01:07:31Z</time>
      </trkpt>
      <trkpt lat="42.258573" lon="2.392833">
        <ele>879.9</ele>
        <time>2019-08-19T01:07:32Z</time>
      </trkpt>
      <trkpt lat="42.258605" lon="2.392785">
        <ele>880.1</ele>
        <time>2019-08-19T01:07:33Z</time>
      </trkpt>
      <trkpt lat="42.258636" lon="2.392738">
        <ele>880.4</ele>
        <time>2019-08-19T01:07:34Z</time>
      </trkpt>
      <trkpt lat="42.258665" lon="2.392693">
        <ele>880.6</ele>
        <time>2019-08-19T01:07:35Z</time>
      </trkpt>
      <trkpt lat="42.25869" lon="2.392646">
        <ele>880.8</ele>
        <time>2019-08-19T01:07:36Z</time>
      </trkpt>
      <trkpt lat="42.258718" lon="2.392602">
        <ele>881.1</ele>
        <time>2019-08-19T01:07:37Z</time>
      </trkpt>
      <trkpt lat="42.258737" lon="2.392554">
        <ele>881.4</ele>
        <time>2019-08-19T01:07:38Z</time>
      </trkpt>
      <trkpt lat="42.25875" lon="2.392505">
        <ele>881.6</ele>
        <time>2019-08-19T01:07:39Z</time>
      </trkpt>
      <trkpt lat="42.258761" lon="2.392454">
        <ele>881.9</ele>
        <time>2019-08-19T01:07:40Z</time>
      </trkpt>
      <trkpt lat="42.258767" lon="2.392402">
        <ele>882.1</ele>
        <time>2019-08-19T01:07:41Z</time>
      </trkpt>
      <trkpt lat="42.258766" lon="2.392354">
        <ele>882.3</ele>
        <time>2019-08-19T01:07:42Z</time>
      </trkpt>
      <trkpt lat="42.258765" lon="2.392302">
        <ele>882.6</ele>
        <time>2019-08-19T01:07:43Z</time>
      </trkpt>
      <trkpt lat="42.258764" lon="2.392251">
        <ele>882.8</ele>
        <time>2019-08-19T01:07:44Z</time>
      </trkpt>
      <trkpt lat="42.258754" lon="2.392199">
        <ele>883</ele>
        <time>2019-08-19T01:07:45Z</time>
      </trkpt>
      <trkpt lat="42.258741" lon="2.392145">
        <ele>883.3</ele>
        <time>2019-08-19T01:07:46Z</time>
      </trkpt>
      <trkpt lat="42.258725" lon="2.392092">
        <ele>883.5</ele>
        <time>2019-08-19T01:07:47Z</time>
      </trkpt>
      <trkpt lat="42.258709" lon="2.392038">
        <ele>883.7</ele>
        <time>2019-08-19T01:07:48Z</time>
      </trkpt>
      <trkpt lat="42.258695" lon="2.391985">
        <ele>883.9</ele>
        <time>2019-08-19T01:07:49Z</time>
      </trkpt>
      <trkpt lat="42.258681" lon="2.391932">
        <ele>884.1</ele>
        <time>2019-08-19T01:07:50Z</time>
      </trkpt>
      <trkpt lat="42.258668" lon="2.391881">
        <ele>884.3</ele>
        <time>2019-08-19T01:07:51Z</time>
      </trkpt>
      <trkpt lat="42.258658" lon="2.391831">
        <ele>884.5</ele>
        <time>2019-08-19T01:07:52Z</time>
      </trkpt>
      <trkpt lat="42.258645" lon="2.391783">
        <ele>884.6</ele>
        <time>2019-08-19T01:07:53Z</time>
      </trkpt>
      <trkpt lat="42.258632" lon="2.391738">
        <ele>884.7</ele>
        <time>2019-08-19T01:07:54Z</time>
      </trkpt>
      <trkpt lat="42.25862" lon="2.391697">
        <ele>884.9</ele>
        <time>2019-08-19T01:07:55Z</time>
      </trkpt>
      <trkpt lat="42.258609" lon="2.391657">
        <ele>885</ele>
        <time>2019-08-19T01:07:56Z</time>
      </trkpt>
      <trkpt lat="42.258595" lon="2.391618">
        <ele>885.1</ele>
        <time>2019-08-19T01:07:57Z</time>
      </trkpt>
      <trkpt lat="42.258576" lon="2.39158">
        <ele>885.2</ele>
        <time>2019-08-19T01:07:58Z</time>
      </trkpt>
      <trkpt lat="42.258555" lon="2.391543">
        <ele>885.3</ele>
        <time>2019-08-19T01:07:59Z</time>
      </trkpt>
      <trkpt lat="42.258532" lon="2.391509">
        <ele>885.4</ele>
        <time>2019-08-19T01:08:00Z</time>
      </trkpt>
      <trkpt lat="42.258508" lon="2.391475">
        <ele>885.5</ele>
        <time>2019-08-19T01:08:01Z</time>
      </trkpt>
      <trkpt lat="42.258483" lon="2.391443">
        <ele>885.6</ele>
        <time>2019-08-19T01:08:02Z</time>
      </trkpt>
      <trkpt lat="42.258457" lon="2.391415">
        <ele>885.7</ele>
        <time>2019-08-19T01:08:03Z</time>
      </trkpt>
      <trkpt lat="42.258431" lon="2.391387">
        <ele>885.7</ele>
        <time>2019-08-19T01:08:04Z</time>
      </trkpt>
      <trkpt lat="42.258406" lon="2.391356">
        <ele>885.8</ele>
        <time>2019-08-19T01:08:05Z</time>
      </trkpt>
      <trkpt lat="42.258382" lon="2.391321">
        <ele>885.9</ele>
        <time>2019-08-19T01:08:06Z</time>
      </trkpt>
      <trkpt lat="42.258355" lon="2.39129">
        <ele>886</ele>
        <time>2019-08-19T01:08:07Z</time>
      </trkpt>
      <trkpt lat="42.258326" lon="2.391262">
        <ele>886</ele>
        <time>2019-08-19T01:08:08Z</time>
      </trkpt>
      <trkpt lat="42.258297" lon="2.391231">
        <ele>886.1</ele>
        <time>2019-08-19T01:08:09Z</time>
      </trkpt>
      <trkpt lat="42.25827" lon="2.391198">
        <ele>886.2</ele>
        <time>2019-08-19T01:08:10Z</time>
      </trkpt>
      <trkpt lat="42.258244" lon="2.391163">
        <ele>886.2</ele>
        <time>2019-08-19T01:08:11Z</time>
      </trkpt>
      <trkpt lat="42.258209" lon="2.391129">
        <ele>886.3</ele>
        <time>2019-08-19T01:08:12Z</time>
      </trkpt>
      <trkpt lat="42.258175" lon="2.391097">
        <ele>886.3</ele>
        <time>2019-08-19T01:08:13Z</time>
      </trkpt>
      <trkpt lat="42.258141" lon="2.391065">
        <ele>886.4</ele>
        <time>2019-08-19T01:08:14Z</time>
      </trkpt>
      <trkpt lat="42.258109" lon="2.391032">
        <ele>886.5</ele>
        <time>2019-08-19T01:08:15Z</time>
      </trkpt>
      <trkpt lat="42.25808" lon="2.390997">
        <ele>886.5</ele>
        <time>2019-08-19T01:08:16Z</time>
      </trkpt>
      <trkpt lat="42.258053" lon="2.390964">
        <ele>886.6</ele>
        <time>2019-08-19T01:08:17Z</time>
      </trkpt>
      <trkpt lat="42.258026" lon="2.390932">
        <ele>886.6</ele>
        <time>2019-08-19T01:08:18Z</time>
      </trkpt>
      <trkpt lat="42.257997" lon="2.390902">
        <ele>886.7</ele>
        <time>2019-08-19T01:08:19Z</time>
      </trkpt>
      <trkpt lat="42.257968" lon="2.390874">
        <ele>886.7</ele>
        <time>2019-08-19T01:08:20Z</time>
      </trkpt>
      <trkpt lat="42.257938" lon="2.390845">
        <ele>886.8</ele>
        <time>2019-08-19T01:08:21Z</time>
      </trkpt>
      <trkpt lat="42.257904" lon="2.39082">
        <ele>886.8</ele>
        <time>2019-08-19T01:08:22Z</time>
      </trkpt>
      <trkpt lat="42.25787" lon="2.390795">
        <ele>886.9</ele>
        <time>2019-08-19T01:08:23Z</time>
      </trkpt>
      <trkpt lat="42.257836" lon="2.390771">
        <ele>886.9</ele>
        <time>2019-08-19T01:08:24Z</time>
      </trkpt>
      <trkpt lat="42.257802" lon="2.390744">
        <ele>887</ele>
        <time>2019-08-19T01:08:25Z</time>
      </trkpt>
      <trkpt lat="42.257765" lon="2.390718">
        <ele>887</ele>
        <time>2019-08-19T01:08:26Z</time>
      </trkpt>
      <trkpt lat="42.257726" lon="2.390693">
        <ele>887.1</ele>
        <time>2019-08-19T01:08:27Z</time>
      </trkpt>
      <trkpt lat="42.257686" lon="2.390667">
        <ele>887.1</ele>
        <time>2019-08-19T01:08:28Z</time>
      </trkpt>
      <trkpt lat="42.257648" lon="2.390636">
        <ele>887.2</ele>
        <time>2019-08-19T01:08:29Z</time>
      </trkpt>
      <trkpt lat="42.257604" lon="2.390593">
        <ele>887.2</ele>
        <time>2019-08-19T01:08:30Z</time>
      </trkpt>
      <trkpt lat="42.257571" lon="2.390555">
        <ele>887.3</ele>
        <time>2019-08-19T01:08:31Z</time>
      </trkpt>
      <trkpt lat="42.25755" lon="2.390517">
        <ele>887.3</ele>
        <time>2019-08-19T01:08:32Z</time>
      </trkpt>
      <trkpt lat="42.25752" lon="2.390478">
        <ele>887.4</ele>
        <time>2019-08-19T01:08:33Z</time>
      </trkpt>
      <trkpt lat="42.257495" lon="2.390437">
        <ele>887.4</ele>
        <time>2019-08-19T01:08:34Z</time>
      </trkpt>
      <trkpt lat="42.257472" lon="2.390402">
        <ele>887.4</ele>
        <time>2019-08-19T01:08:35Z</time>
      </trkpt>
      <trkpt lat="42.257462" lon="2.390357">
        <ele>887.5</ele>
        <time>2019-08-19T01:08:36Z</time>
      </trkpt>
      <trkpt lat="42.257454" lon="2.390315">
        <ele>887.5</ele>
        <time>2019-08-19T01:08:37Z</time>
      </trkpt>
      <trkpt lat="42.257451" lon="2.390272">
        <ele>887.5</ele>
        <time>2019-08-19T01:08:38Z</time>
      </trkpt>
      <trkpt lat="42.257456" lon="2.390219">
        <ele>887.6</ele>
        <time>2019-08-19T01:08:39Z</time>
      </trkpt>
      <trkpt lat="42.257458" lon="2.390171">
        <ele>887.6</ele>
        <time>2019-08-19T01:08:40Z</time>
      </trkpt>
      <trkpt lat="42.25747" lon="2.390131">
        <ele>887.7</ele>
        <time>2019-08-19T01:08:41Z</time>
      </trkpt>
      <trkpt lat="42.257486" lon="2.390087">
        <ele>887.7</ele>
        <time>2019-08-19T01:08:42Z</time>
      </trkpt>
      <trkpt lat="42.257498" lon="2.390047">
        <ele>887.8</ele>
        <time>2019-08-19T01:08:43Z</time>
      </trkpt>
      <trkpt lat="42.257509" lon="2.390004">
        <ele>887.8</ele>
        <time>2019-08-19T01:08:44Z</time>
      </trkpt>
      <trkpt lat="42.257521" lon="2.389958">
        <ele>887.8</ele>
        <time>2019-08-19T01:08:45Z</time>
      </trkpt>
      <trkpt lat="42.257536" lon="2.38991">
        <ele>887.9</ele>
        <time>2019-08-19T01:08:46Z</time>
      </trkpt>
      <trkpt lat="42.257549" lon="2.389863">
        <ele>888</ele>
        <time>2019-08-19T01:08:47Z</time>
      </trkpt>
      <trkpt lat="42.257562" lon="2.389819">
        <ele>888</ele>
        <time>2019-08-19T01:08:48Z</time>
      </trkpt>
      <trkpt lat="42.257579" lon="2.389775">
        <ele>888.1</ele>
        <time>2019-08-19T01:08:49Z</time>
      </trkpt>
      <trkpt lat="42.257599" lon="2.389735">
        <ele>888.1</ele>
        <time>2019-08-19T01:08:50Z</time>
      </trkpt>
      <trkpt lat="42.257622" lon="2.389695">
        <ele>888.2</ele>
        <time>2019-08-19T01:08:51Z</time>
      </trkpt>
      <trkpt lat="42.257653" lon="2.389655">
        <ele>888.3</ele>
        <time>2019-08-19T01:08:52Z</time>
      </trkpt>
      <trkpt lat="42.257686" lon="2.38962">
        <ele>888.3</ele>
        <time>2019-08-19T01:08:53Z</time>
      </trkpt>
      <trkpt lat="42.257724" lon="2.389589">
        <ele>888.4</ele>
        <time>2019-08-19T01:08:54Z</time>
      </trkpt>
      <trkpt lat="42.257767" lon="2.389565">
        <ele>888.5</ele>
        <time>2019-08-19T01:08:55Z</time>
      </trkpt>
      <trkpt lat="42.257812" lon="2.389543">
        <ele>888.6</ele>
        <time>2019-08-19T01:08:56Z</time>
      </trkpt>
      <trkpt lat="42.257856" lon="2.389526">
        <ele>888.8</ele>
        <time>2019-08-19T01:08:57Z</time>
      </trkpt>
      <trkpt lat="42.2579" lon="2.389517">
        <ele>888.9</ele>
        <time>2019-08-19T01:08:58Z</time>
      </trkpt>
      <trkpt lat="42.257944" lon="2.389521">
        <ele>889</ele>
        <time>2019-08-19T01:08:59Z</time>
      </trkpt>
      <trkpt lat="42.257985" lon="2.389534">
        <ele>889.1</ele>
        <time>2019-08-19T01:09:00Z</time>
      </trkpt>
      <trkpt lat="42.258027" lon="2.389551">
        <ele>889.3</ele>
        <time>2019-08-19T01:09:01Z</time>
      </trkpt>
      <trkpt lat="42.258068" lon="2.389563">
        <ele>889.4</ele>
        <time>2019-08-19T01:09:02Z</time>
      </trkpt>
      <trkpt lat="42.258106" lon="2.389578">
        <ele>889.6</ele>
        <time>2019-08-19T01:09:03Z</time>
      </trkpt>
      <trkpt lat="42.258144" lon="2.389595">
        <ele>889.7</ele>
        <time>2019-08-19T01:09:04Z</time>
      </trkpt>
      <trkpt lat="42.258184" lon="2.389611">
        <ele>889.9</ele>
        <time>2019-08-19T01:09:05Z</time>
      </trkpt>
      <trkpt lat="42.258223" lon="2.389621">
        <ele>890</ele>
        <time>2019-08-19T01:09:06Z</time>
      </trkpt>
      <trkpt lat="42.25826" lon="2.389626">
        <ele>890.1</ele>
        <time>2019-08-19T01:09:07Z</time>
      </trkpt>
      <trkpt lat="42.258297" lon="2.389627">
        <ele>890.3</ele>
        <time>2019-08-19T01:09:08Z</time>
      </trkpt>
      <trkpt lat="42.258335" lon="2.389624">
        <ele>890.4</ele>
        <time>2019-08-19T01:09:09Z</time>
      </trkpt>
      <trkpt lat="42.258375" lon="2.389618">
        <ele>890.6</ele>
        <time>2019-08-19T01:09:10Z</time>
      </trkpt>
      <trkpt lat="42.258416" lon="2.389606">
        <ele>890.7</ele>
        <time>2019-08-19T01:09:11Z</time>
      </trkpt>
      <trkpt lat="42.258455" lon="2.389594">
        <ele>890.8</ele>
        <time>2019-08-19T01:09:12Z</time>
      </trkpt>
      <trkpt lat="42.258496" lon="2.389579">
        <ele>891</ele>
        <time>2019-08-19T01:09:13Z</time>
      </trkpt>
      <trkpt lat="42.258539" lon="2.389562">
        <ele>891.1</ele>
        <time>2019-08-19T01:09:14Z</time>
      </trkpt>
      <trkpt lat="42.25858" lon="2.389543">
        <ele>891.2</ele>
        <time>2019-08-19T01:09:15Z</time>
      </trkpt>
      <trkpt lat="42.25862" lon="2.389524">
        <ele>891.3</ele>
        <time>2019-08-19T01:09:16Z</time>
      </trkpt>
      <trkpt lat="42.258658" lon="2.389508">
        <ele>891.4</ele>
        <time>2019-08-19T01:09:17Z</time>
      </trkpt>
      <trkpt lat="42.258694" lon="2.389493">
        <ele>891.5</ele>
        <time>2019-08-19T01:09:18Z</time>
      </trkpt>
      <trkpt lat="42.258725" lon="2.389475">
        <ele>891.6</ele>
        <time>2019-08-19T01:09:19Z</time>
      </trkpt>
      <trkpt lat="42.258756" lon="2.389453">
        <ele>891.7</ele>
        <time>2019-08-19T01:09:20Z</time>
      </trkpt>
      <trkpt lat="42.258789" lon="2.389425">
        <ele>891.8</ele>
        <time>2019-08-19T01:09:21Z</time>
      </trkpt>
      <trkpt lat="42.258822" lon="2.389392">
        <ele>891.9</ele>
        <time>2019-08-19T01:09:22Z</time>
      </trkpt>
      <trkpt lat="42.258851" lon="2.389353">
        <ele>891.9</ele>
        <time>2019-08-19T01:09:23Z</time>
      </trkpt>
      <trkpt lat="42.258878" lon="2.389315">
        <ele>892</ele>
        <time>2019-08-19T01:09:24Z</time>
      </trkpt>
      <trkpt lat="42.258904" lon="2.38928">
        <ele>892.1</ele>
        <time>2019-08-19T01:09:25Z</time>
      </trkpt>
      <trkpt lat="42.258929" lon="2.389248">
        <ele>892.2</ele>
        <time>2019-08-19T01:09:26Z</time>
      </trkpt>
      <trkpt lat="42.258955" lon="2.389215">
        <ele>892.2</ele>
        <time>2019-08-19T01:09:27Z</time>
      </trkpt>
      <trkpt lat="42.258982" lon="2.389184">
        <ele>892.3</ele>
        <time>2019-08-19T01:09:28Z</time>
      </trkpt>
      <trkpt lat="42.259008" lon="2.389148">
        <ele>892.4</ele>
        <time>2019-08-19T01:09:29Z</time>
      </trkpt>
      <trkpt lat="42.259031" lon="2.389108">
        <ele>892.5</ele>
        <time>2019-08-19T01:09:30Z</time>
      </trkpt>
      <trkpt lat="42.259058" lon="2.389071">
        <ele>892.5</ele>
        <time>2019-08-19T01:09:31Z</time>
      </trkpt>
      <trkpt lat="42.259089" lon="2.38904">
        <ele>892.6</ele>
        <time>2019-08-19T01:09:32Z</time>
      </trkpt>
      <trkpt lat="42.259122" lon="2.389012">
        <ele>892.7</ele>
        <time>2019-08-19T01:09:33Z</time>
      </trkpt>
      <trkpt lat="42.259155" lon="2.388982">
        <ele>892.8</ele>
        <time>2019-08-19T01:09:34Z</time>
      </trkpt>
      <trkpt lat="42.259182" lon="2.388916">
        <ele>892.9</ele>
        <time>2019-08-19T01:09:35Z</time>
      </trkpt>
      <trkpt lat="42.259213" lon="2.388896">
        <ele>892.9</ele>
        <time>2019-08-19T01:09:36Z</time>
      </trkpt>
      <trkpt lat="42.259248" lon="2.38887">
        <ele>893</ele>
        <time>2019-08-19T01:09:37Z</time>
      </trkpt>
      <trkpt lat="42.259285" lon="2.388843">
        <ele>893.1</ele>
        <time>2019-08-19T01:09:38Z</time>
      </trkpt>
      <trkpt lat="42.259313" lon="2.388825">
        <ele>893.2</ele>
        <time>2019-08-19T01:09:39Z</time>
      </trkpt>
      <trkpt lat="42.259348" lon="2.388798">
        <ele>893.3</ele>
        <time>2019-08-19T01:09:40Z</time>
      </trkpt>
      <trkpt lat="42.259378" lon="2.38876">
        <ele>893.3</ele>
        <time>2019-08-19T01:09:41Z</time>
      </trkpt>
      <trkpt lat="42.259408" lon="2.388737">
        <ele>893.4</ele>
        <time>2019-08-19T01:09:42Z</time>
      </trkpt>
      <trkpt lat="42.259443" lon="2.388711">
        <ele>893.5</ele>
        <time>2019-08-19T01:09:43Z</time>
      </trkpt>
      <trkpt lat="42.25948" lon="2.388678">
        <ele>893.6</ele>
        <time>2019-08-19T01:09:44Z</time>
      </trkpt>
      <trkpt lat="42.259525" lon="2.388658">
        <ele>893.7</ele>
        <time>2019-08-19T01:09:45Z</time>
      </trkpt>
      <trkpt lat="42.259568" lon="2.388649">
        <ele>893.8</ele>
        <time>2019-08-19T01:09:46Z</time>
      </trkpt>
      <trkpt lat="42.259612" lon="2.38864">
        <ele>894</ele>
        <time>2019-08-19T01:09:47Z</time>
      </trkpt>
      <trkpt lat="42.259651" lon="2.388636">
        <ele>894.1</ele>
        <time>2019-08-19T01:09:48Z</time>
      </trkpt>
      <trkpt lat="42.259688" lon="2.388643">
        <ele>894.2</ele>
        <time>2019-08-19T01:09:49Z</time>
      </trkpt>
      <trkpt lat="42.259722" lon="2.388658">
        <ele>894.3</ele>
        <time>2019-08-19T01:09:50Z</time>
      </trkpt>
      <trkpt lat="42.259758" lon="2.388672">
        <ele>894.4</ele>
        <time>2019-08-19T01:09:51Z</time>
      </trkpt>
      <trkpt lat="42.25979" lon="2.388687">
        <ele>894.5</ele>
        <time>2019-08-19T01:09:52Z</time>
      </trkpt>
      <trkpt lat="42.259823" lon="2.388699">
        <ele>894.7</ele>
        <time>2019-08-19T01:09:53Z</time>
      </trkpt>
      <trkpt lat="42.259859" lon="2.388706">
        <ele>894.8</ele>
        <time>2019-08-19T01:09:54Z</time>
      </trkpt>
      <trkpt lat="42.259896" lon="2.388705">
        <ele>895</ele>
        <time>2019-08-19T01:09:55Z</time>
      </trkpt>
      <trkpt lat="42.259932" lon="2.388697">
        <ele>895.2</ele>
        <time>2019-08-19T01:09:56Z</time>
      </trkpt>
      <trkpt lat="42.259966" lon="2.38868">
        <ele>895.3</ele>
        <time>2019-08-19T01:09:57Z</time>
      </trkpt>
      <trkpt lat="42.26" lon="2.388653">
        <ele>895.5</ele>
        <time>2019-08-19T01:09:58Z</time>
      </trkpt>
      <trkpt lat="42.260031" lon="2.388616">
        <ele>895.7</ele>
        <time>2019-08-19T01:09:59Z</time>
      </trkpt>
      <trkpt lat="42.260058" lon="2.388569">
        <ele>895.9</ele>
        <time>2019-08-19T01:10:00Z</time>
      </trkpt>
      <trkpt lat="42.260081" lon="2.388516">
        <ele>896.1</ele>
        <time>2019-08-19T01:10:01Z</time>
      </trkpt>
      <trkpt lat="42.260099" lon="2.388459">
        <ele>896.2</ele>
        <time>2019-08-19T01:10:02Z</time>
      </trkpt>
      <trkpt lat="42.260113" lon="2.388366">
        <ele>896.5</ele>
        <time>2019-08-19T01:10:03Z</time>
      </trkpt>
      <trkpt lat="42.260123" lon="2.388307">
        <ele>896.6</ele>
        <time>2019-08-19T01:10:04Z</time>
      </trkpt>
      <trkpt lat="42.26013" lon="2.38825">
        <ele>896.7</ele>
        <time>2019-08-19T01:10:05Z</time>
      </trkpt>
      <trkpt lat="42.260137" lon="2.388194">
        <ele>896.8</ele>
        <time>2019-08-19T01:10:06Z</time>
      </trkpt>
      <trkpt lat="42.26014" lon="2.388138">
        <ele>896.9</ele>
        <time>2019-08-19T01:10:07Z</time>
      </trkpt>
      <trkpt lat="42.260139" lon="2.38808">
        <ele>897</ele>
        <time>2019-08-19T01:10:08Z</time>
      </trkpt>
      <trkpt lat="42.260142" lon="2.388029">
        <ele>897.1</ele>
        <time>2019-08-19T01:10:09Z</time>
      </trkpt>
      <trkpt lat="42.260146" lon="2.387976">
        <ele>897.1</ele>
        <time>2019-08-19T01:10:10Z</time>
      </trkpt>
      <trkpt lat="42.260145" lon="2.387923">
        <ele>897.2</ele>
        <time>2019-08-19T01:10:11Z</time>
      </trkpt>
      <trkpt lat="42.260143" lon="2.387873">
        <ele>897.2</ele>
        <time>2019-08-19T01:10:12Z</time>
      </trkpt>
      <trkpt lat="42.260139" lon="2.387825">
        <ele>897.3</ele>
        <time>2019-08-19T01:10:13Z</time>
      </trkpt>
      <trkpt lat="42.260139" lon="2.387771">
        <ele>897.3</ele>
        <time>2019-08-19T01:10:14Z</time>
      </trkpt>
      <trkpt lat="42.260136" lon="2.387727">
        <ele>897.4</ele>
        <time>2019-08-19T01:10:15Z</time>
      </trkpt>
      <trkpt lat="42.260131" lon="2.387679">
        <ele>897.4</ele>
        <time>2019-08-19T01:10:16Z</time>
      </trkpt>
      <trkpt lat="42.260128" lon="2.387632">
        <ele>897.4</ele>
        <time>2019-08-19T01:10:17Z</time>
      </trkpt>
      <trkpt lat="42.260127" lon="2.387583">
        <ele>897.5</ele>
        <time>2019-08-19T01:10:18Z</time>
      </trkpt>
      <trkpt lat="42.260125" lon="2.387531">
        <ele>897.5</ele>
        <time>2019-08-19T01:10:19Z</time>
      </trkpt>
      <trkpt lat="42.26012" lon="2.387476">
        <ele>897.5</ele>
        <time>2019-08-19T01:10:20Z</time>
      </trkpt>
      <trkpt lat="42.260113" lon="2.387423">
        <ele>897.6</ele>
        <time>2019-08-19T01:10:21Z</time>
      </trkpt>
      <trkpt lat="42.260104" lon="2.38737">
        <ele>897.6</ele>
        <time>2019-08-19T01:10:22Z</time>
      </trkpt>
      <trkpt lat="42.260096" lon="2.387315">
        <ele>897.6</ele>
        <time>2019-08-19T01:10:23Z</time>
      </trkpt>
      <trkpt lat="42.260085" lon="2.387258">
        <ele>897.7</ele>
        <time>2019-08-19T01:10:24Z</time>
      </trkpt>
      <trkpt lat="42.260072" lon="2.387201">
        <ele>897.7</ele>
        <time>2019-08-19T01:10:25Z</time>
      </trkpt>
      <trkpt lat="42.260056" lon="2.387148">
        <ele>897.7</ele>
        <time>2019-08-19T01:10:26Z</time>
      </trkpt>
      <trkpt lat="42.260038" lon="2.387098">
        <ele>897.7</ele>
        <time>2019-08-19T01:10:27Z</time>
      </trkpt>
      <trkpt lat="42.260019" lon="2.387048">
        <ele>897.7</ele>
        <time>2019-08-19T01:10:28Z</time>
      </trkpt>
      <trkpt lat="42.259997" lon="2.387002">
        <ele>897.7</ele>
        <time>2019-08-19T01:10:29Z</time>
      </trkpt>
      <trkpt lat="42.259972" lon="2.386959">
        <ele>897.7</ele>
        <time>2019-08-19T01:10:30Z</time>
      </trkpt>
      <trkpt lat="42.25994" lon="2.386919">
        <ele>897.8</ele>
        <time>2019-08-19T01:10:31Z</time>
      </trkpt>
      <trkpt lat="42.259906" lon="2.386878">
        <ele>897.8</ele>
        <time>2019-08-19T01:10:32Z</time>
      </trkpt>
      <trkpt lat="42.259874" lon="2.386838">
        <ele>897.8</ele>
        <time>2019-08-19T01:10:33Z</time>
      </trkpt>
      <trkpt lat="42.259841" lon="2.386798">
        <ele>897.8</ele>
        <time>2019-08-19T01:10:34Z</time>
      </trkpt>
      <trkpt lat="42.259804" lon="2.386759">
        <ele>897.8</ele>
        <time>2019-08-19T01:10:35Z</time>
      </trkpt>
      <trkpt lat="42.259767" lon="2.386722">
        <ele>897.8</ele>
        <time>2019-08-19T01:10:36Z</time>
      </trkpt>
      <trkpt lat="42.259732" lon="2.386684">
        <ele>897.7</ele>
        <time>2019-08-19T01:10:37Z</time>
      </trkpt>
      <trkpt lat="42.259701" lon="2.386645">
        <ele>897.7</ele>
        <time>2019-08-19T01:10:38Z</time>
      </trkpt>
      <trkpt lat="42.259673" lon="2.386606">
        <ele>897.7</ele>
        <time>2019-08-19T01:10:39Z</time>
      </trkpt>
      <trkpt lat="42.259645" lon="2.386562">
        <ele>897.7</ele>
        <time>2019-08-19T01:10:40Z</time>
      </trkpt>
      <trkpt lat="42.259618" lon="2.386514">
        <ele>897.7</ele>
        <time>2019-08-19T01:10:41Z</time>
      </trkpt>
      <trkpt lat="42.259596" lon="2.386467">
        <ele>897.7</ele>
        <time>2019-08-19T01:10:42Z</time>
      </trkpt>
      <trkpt lat="42.259571" lon="2.386422">
        <ele>897.7</ele>
        <time>2019-08-19T01:10:43Z</time>
      </trkpt>
      <trkpt lat="42.259545" lon="2.386375">
        <ele>897.7</ele>
        <time>2019-08-19T01:10:44Z</time>
      </trkpt>
      <trkpt lat="42.259524" lon="2.386326">
        <ele>897.7</ele>
        <time>2019-08-19T01:10:45Z</time>
      </trkpt>
      <trkpt lat="42.2595" lon="2.386278">
        <ele>897.7</ele>
        <time>2019-08-19T01:10:46Z</time>
      </trkpt>
      <trkpt lat="42.259477" lon="2.386227">
        <ele>897.7</ele>
        <time>2019-08-19T01:10:47Z</time>
      </trkpt>
      <trkpt lat="42.259454" lon="2.386176">
        <ele>897.7</ele>
        <time>2019-08-19T01:10:48Z</time>
      </trkpt>
      <trkpt lat="42.259429" lon="2.386128">
        <ele>897.8</ele>
        <time>2019-08-19T01:10:49Z</time>
      </trkpt>
      <trkpt lat="42.259406" lon="2.386081">
        <ele>897.8</ele>
        <time>2019-08-19T01:10:50Z</time>
      </trkpt>
      <trkpt lat="42.259381" lon="2.386034">
        <ele>897.8</ele>
        <time>2019-08-19T01:10:51Z</time>
      </trkpt>
      <trkpt lat="42.259354" lon="2.385986">
        <ele>897.8</ele>
        <time>2019-08-19T01:10:52Z</time>
      </trkpt>
      <trkpt lat="42.259316" lon="2.385933">
        <ele>897.9</ele>
        <time>2019-08-19T01:10:53Z</time>
      </trkpt>
      <trkpt lat="42.259294" lon="2.385889">
        <ele>897.9</ele>
        <time>2019-08-19T01:10:54Z</time>
      </trkpt>
      <trkpt lat="42.259266" lon="2.38583">
        <ele>897.9</ele>
        <time>2019-08-19T01:10:55Z</time>
      </trkpt>
      <trkpt lat="42.259249" lon="2.385772">
        <ele>897.9</ele>
        <time>2019-08-19T01:10:56Z</time>
      </trkpt>
      <trkpt lat="42.259229" lon="2.385712">
        <ele>898</ele>
        <time>2019-08-19T01:10:57Z</time>
      </trkpt>
      <trkpt lat="42.259226" lon="2.385649">
        <ele>898</ele>
        <time>2019-08-19T01:10:58Z</time>
      </trkpt>
      <trkpt lat="42.259216" lon="2.385589">
        <ele>898</ele>
        <time>2019-08-19T01:10:59Z</time>
      </trkpt>
      <trkpt lat="42.259204" lon="2.385529">
        <ele>898</ele>
        <time>2019-08-19T01:11:00Z</time>
      </trkpt>
      <trkpt lat="42.259193" lon="2.385472">
        <ele>898</ele>
        <time>2019-08-19T01:11:01Z</time>
      </trkpt>
      <trkpt lat="42.259177" lon="2.385413">
        <ele>898</ele>
        <time>2019-08-19T01:11:02Z</time>
      </trkpt>
      <trkpt lat="42.25916" lon="2.385348">
        <ele>898.1</ele>
        <time>2019-08-19T01:11:03Z</time>
      </trkpt>
      <trkpt lat="42.259144" lon="2.385287">
        <ele>898.1</ele>
        <time>2019-08-19T01:11:04Z</time>
      </trkpt>
      <trkpt lat="42.259137" lon="2.385229">
        <ele>898.1</ele>
        <time>2019-08-19T01:11:05Z</time>
      </trkpt>
      <trkpt lat="42.259128" lon="2.385174">
        <ele>898.1</ele>
        <time>2019-08-19T01:11:06Z</time>
      </trkpt>
      <trkpt lat="42.259127" lon="2.38511">
        <ele>898.1</ele>
        <time>2019-08-19T01:11:07Z</time>
      </trkpt>
      <trkpt lat="42.259097" lon="2.385059">
        <ele>898.1</ele>
        <time>2019-08-19T01:11:08Z</time>
      </trkpt>
      <trkpt lat="42.259082" lon="2.385004">
        <ele>898.2</ele>
        <time>2019-08-19T01:11:09Z</time>
      </trkpt>
      <trkpt lat="42.259061" lon="2.384947">
        <ele>898.2</ele>
        <time>2019-08-19T01:11:10Z</time>
      </trkpt>
      <trkpt lat="42.25904" lon="2.384893">
        <ele>898.2</ele>
        <time>2019-08-19T01:11:11Z</time>
      </trkpt>
      <trkpt lat="42.259025" lon="2.384831">
        <ele>898.2</ele>
        <time>2019-08-19T01:11:12Z</time>
      </trkpt>
      <trkpt lat="42.259016" lon="2.384773">
        <ele>898.3</ele>
        <time>2019-08-19T01:11:13Z</time>
      </trkpt>
      <trkpt lat="42.258989" lon="2.384709">
        <ele>898.3</ele>
        <time>2019-08-19T01:11:14Z</time>
      </trkpt>
      <trkpt lat="42.258975" lon="2.384645">
        <ele>898.3</ele>
        <time>2019-08-19T01:11:15Z</time>
      </trkpt>
      <trkpt lat="42.258953" lon="2.384595">
        <ele>898.4</ele>
        <time>2019-08-19T01:11:16Z</time>
      </trkpt>
      <trkpt lat="42.258933" lon="2.384546">
        <ele>898.4</ele>
        <time>2019-08-19T01:11:17Z</time>
      </trkpt>
      <trkpt lat="42.258907" lon="2.384517">
        <ele>898.4</ele>
        <time>2019-08-19T01:11:18Z</time>
      </trkpt>
      <trkpt lat="42.258851" lon="2.384494">
        <ele>898.4</ele>
        <time>2019-08-19T01:11:19Z</time>
      </trkpt>
      <trkpt lat="42.258798" lon="2.384475">
        <ele>898.5</ele>
        <time>2019-08-19T01:11:20Z</time>
      </trkpt>
      <trkpt lat="42.258745" lon="2.384457">
        <ele>898.5</ele>
        <time>2019-08-19T01:11:21Z</time>
      </trkpt>
      <trkpt lat="42.258708" lon="2.384429">
        <ele>898.5</ele>
        <time>2019-08-19T01:11:22Z</time>
      </trkpt>
      <trkpt lat="42.258669" lon="2.384395">
        <ele>898.5</ele>
        <time>2019-08-19T01:11:23Z</time>
      </trkpt>
      <trkpt lat="42.258634" lon="2.384359">
        <ele>898.6</ele>
        <time>2019-08-19T01:11:24Z</time>
      </trkpt>
      <trkpt lat="42.258605" lon="2.384328">
        <ele>898.6</ele>
        <time>2019-08-19T01:11:25Z</time>
      </trkpt>
      <trkpt lat="42.258575" lon="2.38426">
        <ele>898.6</ele>
        <time>2019-08-19T01:11:26Z</time>
      </trkpt>
      <trkpt lat="42.258583" lon="2.384192">
        <ele>898.6</ele>
        <time>2019-08-19T01:11:27Z</time>
      </trkpt>
      <trkpt lat="42.258594" lon="2.384124">
        <ele>898.6</ele>
        <time>2019-08-19T01:11:28Z</time>
      </trkpt>
      <trkpt lat="42.258628" lon="2.384064">
        <ele>898.6</ele>
        <time>2019-08-19T01:11:29Z</time>
      </trkpt>
      <trkpt lat="42.258655" lon="2.384004">
        <ele>898.6</ele>
        <time>2019-08-19T01:11:30Z</time>
      </trkpt>
      <trkpt lat="42.258686" lon="2.383936">
        <ele>898.6</ele>
        <time>2019-08-19T01:11:31Z</time>
      </trkpt>
      <trkpt lat="42.25872" lon="2.383882">
        <ele>898.6</ele>
        <time>2019-08-19T01:11:32Z</time>
      </trkpt>
      <trkpt lat="42.258745" lon="2.383849">
        <ele>898.6</ele>
        <time>2019-08-19T01:11:33Z</time>
      </trkpt>
      <trkpt lat="42.258774" lon="2.383803">
        <ele>898.6</ele>
        <time>2019-08-19T01:11:34Z</time>
      </trkpt>
      <trkpt lat="42.258812" lon="2.383754">
        <ele>898.5</ele>
        <time>2019-08-19T01:11:35Z</time>
      </trkpt>
      <trkpt lat="42.258851" lon="2.383736">
        <ele>898.5</ele>
        <time>2019-08-19T01:11:36Z</time>
      </trkpt>
      <trkpt lat="42.258885" lon="2.38368">
        <ele>898.5</ele>
        <time>2019-08-19T01:11:37Z</time>
      </trkpt>
      <trkpt lat="42.258919" lon="2.383624">
        <ele>898.5</ele>
        <time>2019-08-19T01:11:38Z</time>
      </trkpt>
      <trkpt lat="42.258929" lon="2.383559">
        <ele>898.4</ele>
        <time>2019-08-19T01:11:39Z</time>
      </trkpt>
      <trkpt lat="42.258935" lon="2.383487">
        <ele>898.4</ele>
        <time>2019-08-19T01:11:40Z</time>
      </trkpt>
      <trkpt lat="42.258938" lon="2.383417">
        <ele>898.4</ele>
        <time>2019-08-19T01:11:41Z</time>
      </trkpt>
      <trkpt lat="42.258921" lon="2.383361">
        <ele>898.4</ele>
        <time>2019-08-19T01:11:42Z</time>
      </trkpt>
      <trkpt lat="42.258898" lon="2.383301">
        <ele>898.3</ele>
        <time>2019-08-19T01:11:43Z</time>
      </trkpt>
      <trkpt lat="42.258876" lon="2.383241">
        <ele>898.3</ele>
        <time>2019-08-19T01:11:44Z</time>
      </trkpt>
      <trkpt lat="42.258849" lon="2.383182">
        <ele>898.3</ele>
        <time>2019-08-19T01:11:45Z</time>
      </trkpt>
      <trkpt lat="42.258815" lon="2.38313">
        <ele>898.3</ele>
        <time>2019-08-19T01:11:46Z</time>
      </trkpt>
      <trkpt lat="42.258801" lon="2.383074">
        <ele>898.3</ele>
        <time>2019-08-19T01:11:47Z</time>
      </trkpt>
      <trkpt lat="42.258778" lon="2.383022">
        <ele>898.2</ele>
        <time>2019-08-19T01:11:48Z</time>
      </trkpt>
      <trkpt lat="42.258742" lon="2.382961">
        <ele>898.2</ele>
        <time>2019-08-19T01:11:49Z</time>
      </trkpt>
      <trkpt lat="42.258716" lon="2.382899">
        <ele>898.2</ele>
        <time>2019-08-19T01:11:50Z</time>
      </trkpt>
      <trkpt lat="42.258724" lon="2.382827">
        <ele>898.2</ele>
        <time>2019-08-19T01:11:51Z</time>
      </trkpt>
      <trkpt lat="42.258731" lon="2.382755">
        <ele>898.2</ele>
        <time>2019-08-19T01:11:52Z</time>
      </trkpt>
      <trkpt lat="42.258745" lon="2.38269">
        <ele>898.2</ele>
        <time>2019-08-19T01:11:53Z</time>
      </trkpt>
      <trkpt lat="42.258801" lon="2.382622">
        <ele>898.2</ele>
        <time>2019-08-19T01:11:54Z</time>
      </trkpt>
      <trkpt lat="42.258824" lon="2.382591">
        <ele>898.2</ele>
        <time>2019-08-19T01:11:55Z</time>
      </trkpt>
      <trkpt lat="42.258886" lon="2.382553">
        <ele>898.2</ele>
        <time>2019-08-19T01:11:57Z</time>
      </trkpt>
      <trkpt lat="42.258916" lon="2.38253">
        <ele>898.3</ele>
        <time>2019-08-19T01:11:58Z</time>
      </trkpt>
      <trkpt lat="42.258948" lon="2.382509">
        <ele>898.3</ele>
        <time>2019-08-19T01:11:59Z</time>
      </trkpt>
      <trkpt lat="42.258999" lon="2.382482">
        <ele>898.3</ele>
        <time>2019-08-19T01:12:01Z</time>
      </trkpt>
      <trkpt lat="42.259034" lon="2.382455">
        <ele>898.3</ele>
        <time>2019-08-19T01:12:02Z</time>
      </trkpt>
      <trkpt lat="42.25905" lon="2.38242">
        <ele>898.4</ele>
        <time>2019-08-19T01:12:03Z</time>
      </trkpt>
      <trkpt lat="42.259078" lon="2.382384">
        <ele>898.4</ele>
        <time>2019-08-19T01:12:04Z</time>
      </trkpt>
      <trkpt lat="42.259107" lon="2.382342">
        <ele>898.5</ele>
        <time>2019-08-19T01:12:05Z</time>
      </trkpt>
      <trkpt lat="42.259141" lon="2.382287">
        <ele>898.5</ele>
        <time>2019-08-19T01:12:06Z</time>
      </trkpt>
      <trkpt lat="42.259167" lon="2.382234">
        <ele>898.6</ele>
        <time>2019-08-19T01:12:07Z</time>
      </trkpt>
      <trkpt lat="42.259195" lon="2.382186">
        <ele>898.6</ele>
        <time>2019-08-19T01:12:08Z</time>
      </trkpt>
      <trkpt lat="42.259214" lon="2.38212">
        <ele>898.7</ele>
        <time>2019-08-19T01:12:09Z</time>
      </trkpt>
      <trkpt lat="42.259245" lon="2.382064">
        <ele>898.7</ele>
        <time>2019-08-19T01:12:10Z</time>
      </trkpt>
      <trkpt lat="42.259276" lon="2.382006">
        <ele>898.8</ele>
        <time>2019-08-19T01:12:11Z</time>
      </trkpt>
      <trkpt lat="42.259322" lon="2.381992">
        <ele>898.8</ele>
        <time>2019-08-19T01:12:12Z</time>
      </trkpt>
      <trkpt lat="42.259358" lon="2.381957">
        <ele>898.8</ele>
        <time>2019-08-19T01:12:13Z</time>
      </trkpt>
      <trkpt lat="42.259399" lon="2.381934">
        <ele>898.8</ele>
        <time>2019-08-19T01:12:14Z</time>
      </trkpt>
      <trkpt lat="42.259447" lon="2.381936">
        <ele>898.9</ele>
        <time>2019-08-19T01:12:15Z</time>
      </trkpt>
      <trkpt lat="42.259491" lon="2.381943">
        <ele>898.9</ele>
        <time>2019-08-19T01:12:16Z</time>
      </trkpt>
      <trkpt lat="42.259536" lon="2.381948">
        <ele>898.9</ele>
        <time>2019-08-19T01:12:17Z</time>
      </trkpt>
      <trkpt lat="42.259582" lon="2.381975">
        <ele>898.9</ele>
        <time>2019-08-19T01:12:18Z</time>
      </trkpt>
      <trkpt lat="42.259626" lon="2.381994">
        <ele>898.9</ele>
        <time>2019-08-19T01:12:19Z</time>
      </trkpt>
      <trkpt lat="42.25966" lon="2.38203">
        <ele>898.9</ele>
        <time>2019-08-19T01:12:20Z</time>
      </trkpt>
      <trkpt lat="42.259694" lon="2.38206">
        <ele>898.9</ele>
        <time>2019-08-19T01:12:21Z</time>
      </trkpt>
      <trkpt lat="42.259726" lon="2.382102">
        <ele>898.9</ele>
        <time>2019-08-19T01:12:22Z</time>
      </trkpt>
      <trkpt lat="42.259756" lon="2.382142">
        <ele>898.9</ele>
        <time>2019-08-19T01:12:23Z</time>
      </trkpt>
      <trkpt lat="42.259791" lon="2.38217">
        <ele>898.9</ele>
        <time>2019-08-19T01:12:24Z</time>
      </trkpt>
      <trkpt lat="42.259817" lon="2.382221">
        <ele>899</ele>
        <time>2019-08-19T01:12:25Z</time>
      </trkpt>
      <trkpt lat="42.259841" lon="2.382267">
        <ele>899</ele>
        <time>2019-08-19T01:12:26Z</time>
      </trkpt>
      <trkpt lat="42.259872" lon="2.382306">
        <ele>899</ele>
        <time>2019-08-19T01:12:27Z</time>
      </trkpt>
      <trkpt lat="42.25991" lon="2.382344">
        <ele>899</ele>
        <time>2019-08-19T01:12:28Z</time>
      </trkpt>
      <trkpt lat="42.259949" lon="2.382383">
        <ele>899</ele>
        <time>2019-08-19T01:12:29Z</time>
      </trkpt>
      <trkpt lat="42.25997" lon="2.382437">
        <ele>899</ele>
        <time>2019-08-19T01:12:30Z</time>
      </trkpt>
      <trkpt lat="42.260011" lon="2.382462">
        <ele>899</ele>
        <time>2019-08-19T01:12:31Z</time>
      </trkpt>
      <trkpt lat="42.260045" lon="2.382497">
        <ele>899</ele>
        <time>2019-08-19T01:12:32Z</time>
      </trkpt>
      <trkpt lat="42.26008" lon="2.382535">
        <ele>899.1</ele>
        <time>2019-08-19T01:12:33Z</time>
      </trkpt>
      <trkpt lat="42.260102" lon="2.382581">
        <ele>899.1</ele>
        <time>2019-08-19T01:12:34Z</time>
      </trkpt>
      <trkpt lat="42.260144" lon="2.382606">
        <ele>899.1</ele>
        <time>2019-08-19T01:12:35Z</time>
      </trkpt>
      <trkpt lat="42.260173" lon="2.382656">
        <ele>899.2</ele>
        <time>2019-08-19T01:12:36Z</time>
      </trkpt>
      <trkpt lat="42.260211" lon="2.382696">
        <ele>899.2</ele>
        <time>2019-08-19T01:12:37Z</time>
      </trkpt>
      <trkpt lat="42.260247" lon="2.382741">
        <ele>899.3</ele>
        <time>2019-08-19T01:12:38Z</time>
      </trkpt>
      <trkpt lat="42.260296" lon="2.382773">
        <ele>899.3</ele>
        <time>2019-08-19T01:12:39Z</time>
      </trkpt>
      <trkpt lat="42.260332" lon="2.382815">
        <ele>899.4</ele>
        <time>2019-08-19T01:12:40Z</time>
      </trkpt>
      <trkpt lat="42.260384" lon="2.382844">
        <ele>899.5</ele>
        <time>2019-08-19T01:12:41Z</time>
      </trkpt>
      <trkpt lat="42.260425" lon="2.382873">
        <ele>899.5</ele>
        <time>2019-08-19T01:12:42Z</time>
      </trkpt>
      <trkpt lat="42.260466" lon="2.382895">
        <ele>899.5</ele>
        <time>2019-08-19T01:12:43Z</time>
      </trkpt>
      <trkpt lat="42.260507" lon="2.382916">
        <ele>899.6</ele>
        <time>2019-08-19T01:12:44Z</time>
      </trkpt>
      <trkpt lat="42.260551" lon="2.382931">
        <ele>899.6</ele>
        <time>2019-08-19T01:12:45Z</time>
      </trkpt>
      <trkpt lat="42.260593" lon="2.382929">
        <ele>899.6</ele>
        <time>2019-08-19T01:12:46Z</time>
      </trkpt>
      <trkpt lat="42.260638" lon="2.382926">
        <ele>899.6</ele>
        <time>2019-08-19T01:12:47Z</time>
      </trkpt>
      <trkpt lat="42.260685" lon="2.382911">
        <ele>899.6</ele>
        <time>2019-08-19T01:12:48Z</time>
      </trkpt>
      <trkpt lat="42.26074" lon="2.382887">
        <ele>899.6</ele>
        <time>2019-08-19T01:12:49Z</time>
      </trkpt>
      <trkpt lat="42.26077" lon="2.382865">
        <ele>899.6</ele>
        <time>2019-08-19T01:12:50Z</time>
      </trkpt>
      <trkpt lat="42.260814" lon="2.38281">
        <ele>899.6</ele>
        <time>2019-08-19T01:12:51Z</time>
      </trkpt>
      <trkpt lat="42.260839" lon="2.382774">
        <ele>899.6</ele>
        <time>2019-08-19T01:12:52Z</time>
      </trkpt>
      <trkpt lat="42.260852" lon="2.382717">
        <ele>899.6</ele>
        <time>2019-08-19T01:12:53Z</time>
      </trkpt>
      <trkpt lat="42.260866" lon="2.382659">
        <ele>899.6</ele>
        <time>2019-08-19T01:12:54Z</time>
      </trkpt>
      <trkpt lat="42.260862" lon="2.382597">
        <ele>899.6</ele>
        <time>2019-08-19T01:12:55Z</time>
      </trkpt>
      <trkpt lat="42.260854" lon="2.382539">
        <ele>899.5</ele>
        <time>2019-08-19T01:12:56Z</time>
      </trkpt>
      <trkpt lat="42.260836" lon="2.382489">
        <ele>899.5</ele>
        <time>2019-08-19T01:12:57Z</time>
      </trkpt>
      <trkpt lat="42.260815" lon="2.382438">
        <ele>899.5</ele>
        <time>2019-08-19T01:12:58Z</time>
      </trkpt>
      <trkpt lat="42.260801" lon="2.382386">
        <ele>899.5</ele>
        <time>2019-08-19T01:12:59Z</time>
      </trkpt>
      <trkpt lat="42.260771" lon="2.382338">
        <ele>899.5</ele>
        <time>2019-08-19T01:13:00Z</time>
      </trkpt>
      <trkpt lat="42.260748" lon="2.382288">
        <ele>899.4</ele>
        <time>2019-08-19T01:13:01Z</time>
      </trkpt>
      <trkpt lat="42.260723" lon="2.382232">
        <ele>899.4</ele>
        <time>2019-08-19T01:13:02Z</time>
      </trkpt>
      <trkpt lat="42.260684" lon="2.382179">
        <ele>899.4</ele>
        <time>2019-08-19T01:13:03Z</time>
      </trkpt>
      <trkpt lat="42.260656" lon="2.382126">
        <ele>899.4</ele>
        <time>2019-08-19T01:13:04Z</time>
      </trkpt>
      <trkpt lat="42.260637" lon="2.382074">
        <ele>899.4</ele>
        <time>2019-08-19T01:13:05Z</time>
      </trkpt>
      <trkpt lat="42.260609" lon="2.382022">
        <ele>899.3</ele>
        <time>2019-08-19T01:13:06Z</time>
      </trkpt>
      <trkpt lat="42.260604" lon="2.381959">
        <ele>899.3</ele>
        <time>2019-08-19T01:13:07Z</time>
      </trkpt>
      <trkpt lat="42.260594" lon="2.381902">
        <ele>899.3</ele>
        <time>2019-08-19T01:13:08Z</time>
      </trkpt>
      <trkpt lat="42.26057" lon="2.381855">
        <ele>899.3</ele>
        <time>2019-08-19T01:13:09Z</time>
      </trkpt>
      <trkpt lat="42.260563" lon="2.381798">
        <ele>899.3</ele>
        <time>2019-08-19T01:13:10Z</time>
      </trkpt>
      <trkpt lat="42.260556" lon="2.381746">
        <ele>899.3</ele>
        <time>2019-08-19T01:13:11Z</time>
      </trkpt>
      <trkpt lat="42.260542" lon="2.381692">
        <ele>899.3</ele>
        <time>2019-08-19T01:13:12Z</time>
      </trkpt>
      <trkpt lat="42.260523" lon="2.381642">
        <ele>899.3</ele>
        <time>2019-08-19T01:13:13Z</time>
      </trkpt>
      <trkpt lat="42.260503" lon="2.381583">
        <ele>899.2</ele>
        <time>2019-08-19T01:13:14Z</time>
      </trkpt>
      <trkpt lat="42.260497" lon="2.381528">
        <ele>899.2</ele>
        <time>2019-08-19T01:13:15Z</time>
      </trkpt>
      <trkpt lat="42.260475" lon="2.381479">
        <ele>899.2</ele>
        <time>2019-08-19T01:13:16Z</time>
      </trkpt>
      <trkpt lat="42.26046" lon="2.381441">
        <ele>899.2</ele>
        <time>2019-08-19T01:13:17Z</time>
      </trkpt>
      <trkpt lat="42.260437" lon="2.381382">
        <ele>899.2</ele>
        <time>2019-08-19T01:13:18Z</time>
      </trkpt>
      <trkpt lat="42.26042" lon="2.38133">
        <ele>899.3</ele>
        <time>2019-08-19T01:13:19Z</time>
      </trkpt>
      <trkpt lat="42.260426" lon="2.381258">
        <ele>899.3</ele>
        <time>2019-08-19T01:13:20Z</time>
      </trkpt>
      <trkpt lat="42.2604" lon="2.381202">
        <ele>899.3</ele>
        <time>2019-08-19T01:13:21Z</time>
      </trkpt>
      <trkpt lat="42.260375" lon="2.381163">
        <ele>899.3</ele>
        <time>2019-08-19T01:13:22Z</time>
      </trkpt>
      <trkpt lat="42.260371" lon="2.381097">
        <ele>899.4</ele>
        <time>2019-08-19T01:13:23Z</time>
      </trkpt>
      <trkpt lat="42.260349" lon="2.381048">
        <ele>899.4</ele>
        <time>2019-08-19T01:13:24Z</time>
      </trkpt>
      <trkpt lat="42.260325" lon="2.381003">
        <ele>899.4</ele>
        <time>2019-08-19T01:13:25Z</time>
      </trkpt>
      <trkpt lat="42.260313" lon="2.380955">
        <ele>899.5</ele>
        <time>2019-08-19T01:13:26Z</time>
      </trkpt>
      <trkpt lat="42.260298" lon="2.380906">
        <ele>899.5</ele>
        <time>2019-08-19T01:13:27Z</time>
      </trkpt>
      <trkpt lat="42.26028" lon="2.38085">
        <ele>899.5</ele>
        <time>2019-08-19T01:13:28Z</time>
      </trkpt>
      <trkpt lat="42.260271" lon="2.380791">
        <ele>899.6</ele>
        <time>2019-08-19T01:13:29Z</time>
      </trkpt>
      <trkpt lat="42.260282" lon="2.380734">
        <ele>899.6</ele>
        <time>2019-08-19T01:13:30Z</time>
      </trkpt>
      <trkpt lat="42.260322" lon="2.380675">
        <ele>899.7</ele>
        <time>2019-08-19T01:13:31Z</time>
      </trkpt>
      <trkpt lat="42.260344" lon="2.380632">
        <ele>899.7</ele>
        <time>2019-08-19T01:13:32Z</time>
      </trkpt>
      <trkpt lat="42.260385" lon="2.380573">
        <ele>899.7</ele>
        <time>2019-08-19T01:13:33Z</time>
      </trkpt>
      <trkpt lat="42.260406" lon="2.380538">
        <ele>899.7</ele>
        <time>2019-08-19T01:13:34Z</time>
      </trkpt>
      <trkpt lat="42.260439" lon="2.380507">
        <ele>899.7</ele>
        <time>2019-08-19T01:13:35Z</time>
      </trkpt>
      <trkpt lat="42.260473" lon="2.380487">
        <ele>899.7</ele>
        <time>2019-08-19T01:13:36Z</time>
      </trkpt>
      <trkpt lat="42.260515" lon="2.38047">
        <ele>899.7</ele>
        <time>2019-08-19T01:13:37Z</time>
      </trkpt>
      <trkpt lat="42.260569" lon="2.380449">
        <ele>899.8</ele>
        <time>2019-08-19T01:13:38Z</time>
      </trkpt>
      <trkpt lat="42.260608" lon="2.380439">
        <ele>899.8</ele>
        <time>2019-08-19T01:13:39Z</time>
      </trkpt>
      <trkpt lat="42.260647" lon="2.380417">
        <ele>899.8</ele>
        <time>2019-08-19T01:13:40Z</time>
      </trkpt>
      <trkpt lat="42.260674" lon="2.380401">
        <ele>899.8</ele>
        <time>2019-08-19T01:13:41Z</time>
      </trkpt>
      <trkpt lat="42.260721" lon="2.380368">
        <ele>899.8</ele>
        <time>2019-08-19T01:13:42Z</time>
      </trkpt>
      <trkpt lat="42.26076" lon="2.380349">
        <ele>899.8</ele>
        <time>2019-08-19T01:13:43Z</time>
      </trkpt>
      <trkpt lat="42.260793" lon="2.380311">
        <ele>899.8</ele>
        <time>2019-08-19T01:13:44Z</time>
      </trkpt>
      <trkpt lat="42.260828" lon="2.380274">
        <ele>899.8</ele>
        <time>2019-08-19T01:13:45Z</time>
      </trkpt>
      <trkpt lat="42.260866" lon="2.380244">
        <ele>899.8</ele>
        <time>2019-08-19T01:13:46Z</time>
      </trkpt>
      <trkpt lat="42.260898" lon="2.380209">
        <ele>899.8</ele>
        <time>2019-08-19T01:13:47Z</time>
      </trkpt>
      <trkpt lat="42.260927" lon="2.380167">
        <ele>899.8</ele>
        <time>2019-08-19T01:13:48Z</time>
      </trkpt>
      <trkpt lat="42.260949" lon="2.380127">
        <ele>899.8</ele>
        <time>2019-08-19T01:13:49Z</time>
      </trkpt>
      <trkpt lat="42.260972" lon="2.380084">
        <ele>899.8</ele>
        <time>2019-08-19T01:13:50Z</time>
      </trkpt>
      <trkpt lat="42.260987" lon="2.380039">
        <ele>899.8</ele>
        <time>2019-08-19T01:13:51Z</time>
      </trkpt>
      <trkpt lat="42.260999" lon="2.379985">
        <ele>899.8</ele>
        <time>2019-08-19T01:13:52Z</time>
      </trkpt>
      <trkpt lat="42.261011" lon="2.379935">
        <ele>899.9</ele>
        <time>2019-08-19T01:13:53Z</time>
      </trkpt>
      <trkpt lat="42.261023" lon="2.379885">
        <ele>899.9</ele>
        <time>2019-08-19T01:13:54Z</time>
      </trkpt>
      <trkpt lat="42.261035" lon="2.379839">
        <ele>899.9</ele>
        <time>2019-08-19T01:13:55Z</time>
      </trkpt>
      <trkpt lat="42.261046" lon="2.379789">
        <ele>899.9</ele>
        <time>2019-08-19T01:13:56Z</time>
      </trkpt>
      <trkpt lat="42.261056" lon="2.379735">
        <ele>899.9</ele>
        <time>2019-08-19T01:13:57Z</time>
      </trkpt>
      <trkpt lat="42.261065" lon="2.379679">
        <ele>900</ele>
        <time>2019-08-19T01:13:58Z</time>
      </trkpt>
      <trkpt lat="42.261077" lon="2.379624">
        <ele>900</ele>
        <time>2019-08-19T01:13:59Z</time>
      </trkpt>
      <trkpt lat="42.261093" lon="2.379578">
        <ele>900</ele>
        <time>2019-08-19T01:14:00Z</time>
      </trkpt>
      <trkpt lat="42.261113" lon="2.379526">
        <ele>900</ele>
        <time>2019-08-19T01:14:01Z</time>
      </trkpt>
      <trkpt lat="42.26113" lon="2.379463">
        <ele>900.1</ele>
        <time>2019-08-19T01:14:02Z</time>
      </trkpt>
      <trkpt lat="42.26115" lon="2.379407">
        <ele>900.1</ele>
        <time>2019-08-19T01:14:03Z</time>
      </trkpt>
      <trkpt lat="42.261184" lon="2.379352">
        <ele>900.1</ele>
        <time>2019-08-19T01:14:04Z</time>
      </trkpt>
      <trkpt lat="42.261217" lon="2.379314">
        <ele>900.1</ele>
        <time>2019-08-19T01:14:05Z</time>
      </trkpt>
      <trkpt lat="42.261254" lon="2.379287">
        <ele>900.1</ele>
        <time>2019-08-19T01:14:06Z</time>
      </trkpt>
      <trkpt lat="42.261299" lon="2.379272">
        <ele>900.1</ele>
        <time>2019-08-19T01:14:07Z</time>
      </trkpt>
      <trkpt lat="42.261343" lon="2.37922">
        <ele>900.1</ele>
        <time>2019-08-19T01:14:08Z</time>
      </trkpt>
      <trkpt lat="42.261383" lon="2.379186">
        <ele>900.1</ele>
        <time>2019-08-19T01:14:09Z</time>
      </trkpt>
      <trkpt lat="42.261408" lon="2.379145">
        <ele>900.1</ele>
        <time>2019-08-19T01:14:10Z</time>
      </trkpt>
      <trkpt lat="42.261434" lon="2.37908">
        <ele>900.1</ele>
        <time>2019-08-19T01:14:11Z</time>
      </trkpt>
      <trkpt lat="42.261456" lon="2.379024">
        <ele>900.1</ele>
        <time>2019-08-19T01:14:12Z</time>
      </trkpt>
      <trkpt lat="42.261471" lon="2.378967">
        <ele>900</ele>
        <time>2019-08-19T01:14:13Z</time>
      </trkpt>
      <trkpt lat="42.261496" lon="2.378901">
        <ele>900</ele>
        <time>2019-08-19T01:14:14Z</time>
      </trkpt>
      <trkpt lat="42.261527" lon="2.378841">
        <ele>900</ele>
        <time>2019-08-19T01:14:15Z</time>
      </trkpt>
      <trkpt lat="42.261558" lon="2.37878">
        <ele>899.9</ele>
        <time>2019-08-19T01:14:16Z</time>
      </trkpt>
      <trkpt lat="42.261599" lon="2.37874">
        <ele>899.9</ele>
        <time>2019-08-19T01:14:17Z</time>
      </trkpt>
      <trkpt lat="42.26164" lon="2.378701">
        <ele>899.9</ele>
        <time>2019-08-19T01:14:18Z</time>
      </trkpt>
      <trkpt lat="42.261687" lon="2.378703">
        <ele>899.8</ele>
        <time>2019-08-19T01:14:19Z</time>
      </trkpt>
      <trkpt lat="42.26174" lon="2.378718">
        <ele>899.8</ele>
        <time>2019-08-19T01:14:20Z</time>
      </trkpt>
      <trkpt lat="42.261791" lon="2.378728">
        <ele>899.8</ele>
        <time>2019-08-19T01:14:21Z</time>
      </trkpt>
      <trkpt lat="42.261838" lon="2.378755">
        <ele>899.7</ele>
        <time>2019-08-19T01:14:22Z</time>
      </trkpt>
      <trkpt lat="42.261877" lon="2.37879">
        <ele>899.7</ele>
        <time>2019-08-19T01:14:23Z</time>
      </trkpt>
      <trkpt lat="42.261928" lon="2.378828">
        <ele>899.6</ele>
        <time>2019-08-19T01:14:24Z</time>
      </trkpt>
      <trkpt lat="42.261954" lon="2.378899">
        <ele>899.6</ele>
        <time>2019-08-19T01:14:25Z</time>
      </trkpt>
      <trkpt lat="42.261986" lon="2.37895">
        <ele>899.6</ele>
        <time>2019-08-19T01:14:26Z</time>
      </trkpt>
      <trkpt lat="42.262015" lon="2.379001">
        <ele>899.6</ele>
        <time>2019-08-19T01:14:27Z</time>
      </trkpt>
      <trkpt lat="42.262057" lon="2.379052">
        <ele>899.5</ele>
        <time>2019-08-19T01:14:28Z</time>
      </trkpt>
      <trkpt lat="42.262083" lon="2.37912">
        <ele>899.5</ele>
        <time>2019-08-19T01:14:29Z</time>
      </trkpt>
      <trkpt lat="42.26212" lon="2.379144">
        <ele>899.5</ele>
        <time>2019-08-19T01:14:30Z</time>
      </trkpt>
      <trkpt lat="42.262145" lon="2.379192">
        <ele>899.5</ele>
        <time>2019-08-19T01:14:31Z</time>
      </trkpt>
      <trkpt lat="42.262174" lon="2.37924">
        <ele>899.5</ele>
        <time>2019-08-19T01:14:32Z</time>
      </trkpt>
      <trkpt lat="42.262206" lon="2.379305">
        <ele>899.4</ele>
        <time>2019-08-19T01:14:33Z</time>
      </trkpt>
      <trkpt lat="42.262231" lon="2.379375">
        <ele>899.4</ele>
        <time>2019-08-19T01:14:34Z</time>
      </trkpt>
      <trkpt lat="42.26227" lon="2.379424">
        <ele>899.4</ele>
        <time>2019-08-19T01:14:35Z</time>
      </trkpt>
      <trkpt lat="42.262298" lon="2.379478">
        <ele>899.4</ele>
        <time>2019-08-19T01:14:36Z</time>
      </trkpt>
      <trkpt lat="42.26234" lon="2.379523">
        <ele>899.4</ele>
        <time>2019-08-19T01:14:37Z</time>
      </trkpt>
      <trkpt lat="42.262383" lon="2.379559">
        <ele>899.4</ele>
        <time>2019-08-19T01:14:38Z</time>
      </trkpt>
      <trkpt lat="42.262423" lon="2.379594">
        <ele>899.5</ele>
        <time>2019-08-19T01:14:39Z</time>
      </trkpt>
      <trkpt lat="42.262467" lon="2.379633">
        <ele>899.5</ele>
        <time>2019-08-19T01:14:40Z</time>
      </trkpt>
      <trkpt lat="42.262512" lon="2.379665">
        <ele>899.5</ele>
        <time>2019-08-19T01:14:41Z</time>
      </trkpt>
      <trkpt lat="42.262565" lon="2.379681">
        <ele>899.6</ele>
        <time>2019-08-19T01:14:42Z</time>
      </trkpt>
      <trkpt lat="42.262614" lon="2.379686">
        <ele>899.6</ele>
        <time>2019-08-19T01:14:43Z</time>
      </trkpt>
      <trkpt lat="42.262665" lon="2.379676">
        <ele>899.6</ele>
        <time>2019-08-19T01:14:44Z</time>
      </trkpt>
      <trkpt lat="42.262716" lon="2.379658">
        <ele>899.7</ele>
        <time>2019-08-19T01:14:45Z</time>
      </trkpt>
      <trkpt lat="42.262762" lon="2.379637">
        <ele>899.7</ele>
        <time>2019-08-19T01:14:46Z</time>
      </trkpt>
      <trkpt lat="42.262806" lon="2.37961">
        <ele>899.7</ele>
        <time>2019-08-19T01:14:47Z</time>
      </trkpt>
      <trkpt lat="42.262852" lon="2.37958">
        <ele>899.7</ele>
        <time>2019-08-19T01:14:48Z</time>
      </trkpt>
      <trkpt lat="42.262902" lon="2.37955">
        <ele>899.8</ele>
        <time>2019-08-19T01:14:49Z</time>
      </trkpt>
      <trkpt lat="42.262946" lon="2.379528">
        <ele>899.8</ele>
        <time>2019-08-19T01:14:50Z</time>
      </trkpt>
      <trkpt lat="42.262994" lon="2.379504">
        <ele>899.8</ele>
        <time>2019-08-19T01:14:51Z</time>
      </trkpt>
      <trkpt lat="42.26304" lon="2.379481">
        <ele>899.8</ele>
        <time>2019-08-19T01:14:52Z</time>
      </trkpt>
      <trkpt lat="42.263085" lon="2.379453">
        <ele>899.8</ele>
        <time>2019-08-19T01:14:53Z</time>
      </trkpt>
      <trkpt lat="42.263134" lon="2.37942">
        <ele>899.8</ele>
        <time>2019-08-19T01:14:54Z</time>
      </trkpt>
      <trkpt lat="42.263176" lon="2.379394">
        <ele>899.8</ele>
        <time>2019-08-19T01:14:55Z</time>
      </trkpt>
      <trkpt lat="42.263221" lon="2.379352">
        <ele>899.8</ele>
        <time>2019-08-19T01:14:56Z</time>
      </trkpt>
      <trkpt lat="42.263258" lon="2.379305">
        <ele>899.8</ele>
        <time>2019-08-19T01:14:57Z</time>
      </trkpt>
      <trkpt lat="42.263292" lon="2.379253">
        <ele>899.8</ele>
        <time>2019-08-19T01:14:58Z</time>
      </trkpt>
      <trkpt lat="42.263321" lon="2.379177">
        <ele>899.8</ele>
        <time>2019-08-19T01:14:59Z</time>
      </trkpt>
      <trkpt lat="42.26335" lon="2.379116">
        <ele>899.8</ele>
        <time>2019-08-19T01:15:00Z</time>
      </trkpt>
      <trkpt lat="42.26337" lon="2.379054">
        <ele>899.8</ele>
        <time>2019-08-19T01:15:01Z</time>
      </trkpt>
      <trkpt lat="42.263389" lon="2.378983">
        <ele>899.8</ele>
        <time>2019-08-19T01:15:02Z</time>
      </trkpt>
      <trkpt lat="42.263406" lon="2.378922">
        <ele>899.9</ele>
        <time>2019-08-19T01:15:03Z</time>
      </trkpt>
      <trkpt lat="42.26343" lon="2.378854">
        <ele>899.9</ele>
        <time>2019-08-19T01:15:04Z</time>
      </trkpt>
      <trkpt lat="42.263459" lon="2.378799">
        <ele>899.9</ele>
        <time>2019-08-19T01:15:05Z</time>
      </trkpt>
      <trkpt lat="42.263492" lon="2.378721">
        <ele>900</ele>
        <time>2019-08-19T01:15:06Z</time>
      </trkpt>
      <trkpt lat="42.263514" lon="2.378676">
        <ele>900</ele>
        <time>2019-08-19T01:15:07Z</time>
      </trkpt>
      <trkpt lat="42.263545" lon="2.378628">
        <ele>900.1</ele>
        <time>2019-08-19T01:15:08Z</time>
      </trkpt>
      <trkpt lat="42.263567" lon="2.378571">
        <ele>900.1</ele>
        <time>2019-08-19T01:15:09Z</time>
      </trkpt>
      <trkpt lat="42.263579" lon="2.378514">
        <ele>900.2</ele>
        <time>2019-08-19T01:15:10Z</time>
      </trkpt>
      <trkpt lat="42.2636" lon="2.378461">
        <ele>900.2</ele>
        <time>2019-08-19T01:15:11Z</time>
      </trkpt>
      <trkpt lat="42.263617" lon="2.378402">
        <ele>900.2</ele>
        <time>2019-08-19T01:15:12Z</time>
      </trkpt>
      <trkpt lat="42.26363" lon="2.378348">
        <ele>900.3</ele>
        <time>2019-08-19T01:15:13Z</time>
      </trkpt>
      <trkpt lat="42.263645" lon="2.378286">
        <ele>900.3</ele>
        <time>2019-08-19T01:15:14Z</time>
      </trkpt>
      <trkpt lat="42.263657" lon="2.378225">
        <ele>900.3</ele>
        <time>2019-08-19T01:15:15Z</time>
      </trkpt>
      <trkpt lat="42.263672" lon="2.378162">
        <ele>900.3</ele>
        <time>2019-08-19T01:15:16Z</time>
      </trkpt>
      <trkpt lat="42.263684" lon="2.378099">
        <ele>900.4</ele>
        <time>2019-08-19T01:15:17Z</time>
      </trkpt>
      <trkpt lat="42.263693" lon="2.378042">
        <ele>900.4</ele>
        <time>2019-08-19T01:15:18Z</time>
      </trkpt>
      <trkpt lat="42.263702" lon="2.377982">
        <ele>900.4</ele>
        <time>2019-08-19T01:15:19Z</time>
      </trkpt>
      <trkpt lat="42.263723" lon="2.377918">
        <ele>900.4</ele>
        <time>2019-08-19T01:15:20Z</time>
      </trkpt>
      <trkpt lat="42.263728" lon="2.377858">
        <ele>900.4</ele>
        <time>2019-08-19T01:15:21Z</time>
      </trkpt>
      <trkpt lat="42.263741" lon="2.377807">
        <ele>900.4</ele>
        <time>2019-08-19T01:15:22Z</time>
      </trkpt>
      <trkpt lat="42.263757" lon="2.377749">
        <ele>900.4</ele>
        <time>2019-08-19T01:15:23Z</time>
      </trkpt>
      <trkpt lat="42.263775" lon="2.377698">
        <ele>900.5</ele>
        <time>2019-08-19T01:15:24Z</time>
      </trkpt>
      <trkpt lat="42.263793" lon="2.377639">
        <ele>900.5</ele>
        <time>2019-08-19T01:15:25Z</time>
      </trkpt>
      <trkpt lat="42.263805" lon="2.377585">
        <ele>900.5</ele>
        <time>2019-08-19T01:15:26Z</time>
      </trkpt>
      <trkpt lat="42.263817" lon="2.377527">
        <ele>900.5</ele>
        <time>2019-08-19T01:15:27Z</time>
      </trkpt>
      <trkpt lat="42.263825" lon="2.377473">
        <ele>900.5</ele>
        <time>2019-08-19T01:15:28Z</time>
      </trkpt>
      <trkpt lat="42.263831" lon="2.377413">
        <ele>900.5</ele>
        <time>2019-08-19T01:15:29Z</time>
      </trkpt>
      <trkpt lat="42.26384" lon="2.377358">
        <ele>900.5</ele>
        <time>2019-08-19T01:15:30Z</time>
      </trkpt>
      <trkpt lat="42.263847" lon="2.377303">
        <ele>900.5</ele>
        <time>2019-08-19T01:15:31Z</time>
      </trkpt>
      <trkpt lat="42.263852" lon="2.377246">
        <ele>900.5</ele>
        <time>2019-08-19T01:15:32Z</time>
      </trkpt>
      <trkpt lat="42.263855" lon="2.377187">
        <ele>900.4</ele>
        <time>2019-08-19T01:15:33Z</time>
      </trkpt>
      <trkpt lat="42.263855" lon="2.377127">
        <ele>900.4</ele>
        <time>2019-08-19T01:15:34Z</time>
      </trkpt>
      <trkpt lat="42.263855" lon="2.377067">
        <ele>900.4</ele>
        <time>2019-08-19T01:15:35Z</time>
      </trkpt>
      <trkpt lat="42.263852" lon="2.377008">
        <ele>900.3</ele>
        <time>2019-08-19T01:15:36Z</time>
      </trkpt>
      <trkpt lat="42.263846" lon="2.376951">
        <ele>900.3</ele>
        <time>2019-08-19T01:15:37Z</time>
      </trkpt>
      <trkpt lat="42.263835" lon="2.376894">
        <ele>900.3</ele>
        <time>2019-08-19T01:15:38Z</time>
      </trkpt>
      <trkpt lat="42.263816" lon="2.376834">
        <ele>900.2</ele>
        <time>2019-08-19T01:15:39Z</time>
      </trkpt>
      <trkpt lat="42.2638" lon="2.376771">
        <ele>900.1</ele>
        <time>2019-08-19T01:15:40Z</time>
      </trkpt>
      <trkpt lat="42.263808" lon="2.376721">
        <ele>900</ele>
        <time>2019-08-19T01:15:41Z</time>
      </trkpt>
      <trkpt lat="42.263791" lon="2.376679">
        <ele>900</ele>
        <time>2019-08-19T01:15:42Z</time>
      </trkpt>
      <trkpt lat="42.263771" lon="2.376622">
        <ele>899.9</ele>
        <time>2019-08-19T01:15:43Z</time>
      </trkpt>
      <trkpt lat="42.26376" lon="2.37657">
        <ele>899.8</ele>
        <time>2019-08-19T01:15:44Z</time>
      </trkpt>
      <trkpt lat="42.263741" lon="2.376517">
        <ele>899.6</ele>
        <time>2019-08-19T01:15:45Z</time>
      </trkpt>
      <trkpt lat="42.263719" lon="2.376456">
        <ele>899.5</ele>
        <time>2019-08-19T01:15:46Z</time>
      </trkpt>
      <trkpt lat="42.263689" lon="2.376394">
        <ele>899.3</ele>
        <time>2019-08-19T01:15:47Z</time>
      </trkpt>
      <trkpt lat="42.263653" lon="2.376344">
        <ele>899.1</ele>
        <time>2019-08-19T01:15:48Z</time>
      </trkpt>
      <trkpt lat="42.263638" lon="2.37629">
        <ele>898.9</ele>
        <time>2019-08-19T01:15:49Z</time>
      </trkpt>
      <trkpt lat="42.263618" lon="2.376232">
        <ele>898.8</ele>
        <time>2019-08-19T01:15:50Z</time>
      </trkpt>
      <trkpt lat="42.263592" lon="2.376167">
        <ele>898.6</ele>
        <time>2019-08-19T01:15:51Z</time>
      </trkpt>
      <trkpt lat="42.263581" lon="2.376104">
        <ele>898.4</ele>
        <time>2019-08-19T01:15:52Z</time>
      </trkpt>
      <trkpt lat="42.263558" lon="2.376035">
        <ele>898.3</ele>
        <time>2019-08-19T01:15:53Z</time>
      </trkpt>
      <trkpt lat="42.263532" lon="2.375972">
        <ele>898.1</ele>
        <time>2019-08-19T01:15:54Z</time>
      </trkpt>
      <trkpt lat="42.263498" lon="2.375908">
        <ele>898</ele>
        <time>2019-08-19T01:15:55Z</time>
      </trkpt>
      <trkpt lat="42.263471" lon="2.375844">
        <ele>897.9</ele>
        <time>2019-08-19T01:15:56Z</time>
      </trkpt>
      <trkpt lat="42.263449" lon="2.375782">
        <ele>897.8</ele>
        <time>2019-08-19T01:15:57Z</time>
      </trkpt>
      <trkpt lat="42.263425" lon="2.375712">
        <ele>897.7</ele>
        <time>2019-08-19T01:15:58Z</time>
      </trkpt>
      <trkpt lat="42.263399" lon="2.375642">
        <ele>897.6</ele>
        <time>2019-08-19T01:15:59Z</time>
      </trkpt>
      <trkpt lat="42.263387" lon="2.375574">
        <ele>897.6</ele>
        <time>2019-08-19T01:16:00Z</time>
      </trkpt>
      <trkpt lat="42.263367" lon="2.375507">
        <ele>897.5</ele>
        <time>2019-08-19T01:16:01Z</time>
      </trkpt>
      <trkpt lat="42.263334" lon="2.375445">
        <ele>897.5</ele>
        <time>2019-08-19T01:16:02Z</time>
      </trkpt>
      <trkpt lat="42.26331" lon="2.37537">
        <ele>897.4</ele>
        <time>2019-08-19T01:16:03Z</time>
      </trkpt>
      <trkpt lat="42.263288" lon="2.375296">
        <ele>897.3</ele>
        <time>2019-08-19T01:16:04Z</time>
      </trkpt>
      <trkpt lat="42.263262" lon="2.375223">
        <ele>897.3</ele>
        <time>2019-08-19T01:16:05Z</time>
      </trkpt>
      <trkpt lat="42.263239" lon="2.375156">
        <ele>897.3</ele>
        <time>2019-08-19T01:16:06Z</time>
      </trkpt>
      <trkpt lat="42.263214" lon="2.37508">
        <ele>897.2</ele>
        <time>2019-08-19T01:16:07Z</time>
      </trkpt>
      <trkpt lat="42.263196" lon="2.375007">
        <ele>897.2</ele>
        <time>2019-08-19T01:16:08Z</time>
      </trkpt>
      <trkpt lat="42.263153" lon="2.374934">
        <ele>897.2</ele>
        <time>2019-08-19T01:16:09Z</time>
      </trkpt>
      <trkpt lat="42.263125" lon="2.374866">
        <ele>897.3</ele>
        <time>2019-08-19T01:16:10Z</time>
      </trkpt>
      <trkpt lat="42.263098" lon="2.374796">
        <ele>897.3</ele>
        <time>2019-08-19T01:16:11Z</time>
      </trkpt>
      <trkpt lat="42.263068" lon="2.374729">
        <ele>897.3</ele>
        <time>2019-08-19T01:16:12Z</time>
      </trkpt>
      <trkpt lat="42.263029" lon="2.374655">
        <ele>897.3</ele>
        <time>2019-08-19T01:16:13Z</time>
      </trkpt>
      <trkpt lat="42.26301" lon="2.374597">
        <ele>897.3</ele>
        <time>2019-08-19T01:16:14Z</time>
      </trkpt>
      <trkpt lat="42.262969" lon="2.37452">
        <ele>897.4</ele>
        <time>2019-08-19T01:16:15Z</time>
      </trkpt>
      <trkpt lat="42.262941" lon="2.374445">
        <ele>897.4</ele>
        <time>2019-08-19T01:16:16Z</time>
      </trkpt>
      <trkpt lat="42.26291" lon="2.37437">
        <ele>897.5</ele>
        <time>2019-08-19T01:16:17Z</time>
      </trkpt>
      <trkpt lat="42.26288" lon="2.374291">
        <ele>897.6</ele>
        <time>2019-08-19T01:16:18Z</time>
      </trkpt>
      <trkpt lat="42.262848" lon="2.374219">
        <ele>897.6</ele>
        <time>2019-08-19T01:16:19Z</time>
      </trkpt>
      <trkpt lat="42.262828" lon="2.374151">
        <ele>897.7</ele>
        <time>2019-08-19T01:16:20Z</time>
      </trkpt>
      <trkpt lat="42.262802" lon="2.374079">
        <ele>897.7</ele>
        <time>2019-08-19T01:16:21Z</time>
      </trkpt>
      <trkpt lat="42.262772" lon="2.374008">
        <ele>897.7</ele>
        <time>2019-08-19T01:16:22Z</time>
      </trkpt>
      <trkpt lat="42.262747" lon="2.373943">
        <ele>897.7</ele>
        <time>2019-08-19T01:16:23Z</time>
      </trkpt>
      <trkpt lat="42.262715" lon="2.373868">
        <ele>897.7</ele>
        <time>2019-08-19T01:16:24Z</time>
      </trkpt>
      <trkpt lat="42.262687" lon="2.373798">
        <ele>897.6</ele>
        <time>2019-08-19T01:16:25Z</time>
      </trkpt>
      <trkpt lat="42.262676" lon="2.373722">
        <ele>897.6</ele>
        <time>2019-08-19T01:16:26Z</time>
      </trkpt>
      <trkpt lat="42.262647" lon="2.373655">
        <ele>897.5</ele>
        <time>2019-08-19T01:16:27Z</time>
      </trkpt>
      <trkpt lat="42.26262" lon="2.373584">
        <ele>897.4</ele>
        <time>2019-08-19T01:16:28Z</time>
      </trkpt>
      <trkpt lat="42.262606" lon="2.373516">
        <ele>897.2</ele>
        <time>2019-08-19T01:16:29Z</time>
      </trkpt>
      <trkpt lat="42.262584" lon="2.373452">
        <ele>897.1</ele>
        <time>2019-08-19T01:16:30Z</time>
      </trkpt>
      <trkpt lat="42.262557" lon="2.373383">
        <ele>896.8</ele>
        <time>2019-08-19T01:16:31Z</time>
      </trkpt>
      <trkpt lat="42.262529" lon="2.373306">
        <ele>896.5</ele>
        <time>2019-08-19T01:16:32Z</time>
      </trkpt>
      <trkpt lat="42.262496" lon="2.373244">
        <ele>896.2</ele>
        <time>2019-08-19T01:16:33Z</time>
      </trkpt>
      <trkpt lat="42.262463" lon="2.373188">
        <ele>895.9</ele>
        <time>2019-08-19T01:16:34Z</time>
      </trkpt>
      <trkpt lat="42.262426" lon="2.373139">
        <ele>895.6</ele>
        <time>2019-08-19T01:16:35Z</time>
      </trkpt>
      <trkpt lat="42.262387" lon="2.373084">
        <ele>895.3</ele>
        <time>2019-08-19T01:16:36Z</time>
      </trkpt>
      <trkpt lat="42.262339" lon="2.37304">
        <ele>894.9</ele>
        <time>2019-08-19T01:16:37Z</time>
      </trkpt>
      <trkpt lat="42.26228" lon="2.373002">
        <ele>894.5</ele>
        <time>2019-08-19T01:16:38Z</time>
      </trkpt>
      <trkpt lat="42.262221" lon="2.372959">
        <ele>894.1</ele>
        <time>2019-08-19T01:16:39Z</time>
      </trkpt>
      <trkpt lat="42.262161" lon="2.37292">
        <ele>893.7</ele>
        <time>2019-08-19T01:16:40Z</time>
      </trkpt>
      <trkpt lat="42.262109" lon="2.372874">
        <ele>893.4</ele>
        <time>2019-08-19T01:16:41Z</time>
      </trkpt>
      <trkpt lat="42.262052" lon="2.372834">
        <ele>893</ele>
        <time>2019-08-19T01:16:42Z</time>
      </trkpt>
      <trkpt lat="42.261989" lon="2.372795">
        <ele>892.6</ele>
        <time>2019-08-19T01:16:43Z</time>
      </trkpt>
      <trkpt lat="42.261917" lon="2.372742">
        <ele>892.2</ele>
        <time>2019-08-19T01:16:44Z</time>
      </trkpt>
      <trkpt lat="42.261849" lon="2.372697">
        <ele>891.7</ele>
        <time>2019-08-19T01:16:45Z</time>
      </trkpt>
      <trkpt lat="42.261783" lon="2.372651">
        <ele>891.2</ele>
        <time>2019-08-19T01:16:46Z</time>
      </trkpt>
      <trkpt lat="42.261701" lon="2.372595">
        <ele>890.6</ele>
        <time>2019-08-19T01:16:47Z</time>
      </trkpt>
      <trkpt lat="42.26162" lon="2.372531">
        <ele>889.9</ele>
        <time>2019-08-19T01:16:48Z</time>
      </trkpt>
      <trkpt lat="42.261535" lon="2.372469">
        <ele>889.2</ele>
        <time>2019-08-19T01:16:49Z</time>
      </trkpt>
      <trkpt lat="42.261454" lon="2.372414">
        <ele>888.4</ele>
        <time>2019-08-19T01:16:50Z</time>
      </trkpt>
      <trkpt lat="42.261374" lon="2.372356">
        <ele>887.8</ele>
        <time>2019-08-19T01:16:51Z</time>
      </trkpt>
      <trkpt lat="42.261288" lon="2.372293">
        <ele>887.2</ele>
        <time>2019-08-19T01:16:52Z</time>
      </trkpt>
      <trkpt lat="42.261208" lon="2.372229">
        <ele>886.4</ele>
        <time>2019-08-19T01:16:53Z</time>
      </trkpt>
      <trkpt lat="42.261126" lon="2.372179">
        <ele>885.7</ele>
        <time>2019-08-19T01:16:54Z</time>
      </trkpt>
      <trkpt lat="42.261061" lon="2.372118">
        <ele>885.2</ele>
        <time>2019-08-19T01:16:55Z</time>
      </trkpt>
      <trkpt lat="42.260988" lon="2.372062">
        <ele>884.7</ele>
        <time>2019-08-19T01:16:56Z</time>
      </trkpt>
      <trkpt lat="42.260925" lon="2.371999">
        <ele>884.1</ele>
        <time>2019-08-19T01:16:57Z</time>
      </trkpt>
      <trkpt lat="42.260863" lon="2.371921">
        <ele>883.4</ele>
        <time>2019-08-19T01:16:58Z</time>
      </trkpt>
      <trkpt lat="42.260819" lon="2.371826">
        <ele>883</ele>
        <time>2019-08-19T01:16:59Z</time>
      </trkpt>
      <trkpt lat="42.260802" lon="2.371715">
        <ele>882.7</ele>
        <time>2019-08-19T01:17:00Z</time>
      </trkpt>
      <trkpt lat="42.260816" lon="2.3716">
        <ele>882.6</ele>
        <time>2019-08-19T01:17:01Z</time>
      </trkpt>
      <trkpt lat="42.260838" lon="2.371499">
        <ele>882.5</ele>
        <time>2019-08-19T01:17:02Z</time>
      </trkpt>
      <trkpt lat="42.260884" lon="2.371408">
        <ele>882.4</ele>
        <time>2019-08-19T01:17:03Z</time>
      </trkpt>
      <trkpt lat="42.260933" lon="2.371329">
        <ele>882.4</ele>
        <time>2019-08-19T01:17:04Z</time>
      </trkpt>
      <trkpt lat="42.260973" lon="2.371243">
        <ele>882.3</ele>
        <time>2019-08-19T01:17:05Z</time>
      </trkpt>
      <trkpt lat="42.261008" lon="2.371157">
        <ele>882.3</ele>
        <time>2019-08-19T01:17:06Z</time>
      </trkpt>
      <trkpt lat="42.261041" lon="2.37106">
        <ele>882.1</ele>
        <time>2019-08-19T01:17:07Z</time>
      </trkpt>
      <trkpt lat="42.261076" lon="2.370964">
        <ele>882</ele>
        <time>2019-08-19T01:17:08Z</time>
      </trkpt>
      <trkpt lat="42.261115" lon="2.370866">
        <ele>881.9</ele>
        <time>2019-08-19T01:17:09Z</time>
      </trkpt>
      <trkpt lat="42.261152" lon="2.370781">
        <ele>881.8</ele>
        <time>2019-08-19T01:17:10Z</time>
      </trkpt>
      <trkpt lat="42.261187" lon="2.370698">
        <ele>881.7</ele>
        <time>2019-08-19T01:17:11Z</time>
      </trkpt>
      <trkpt lat="42.261232" lon="2.370636">
        <ele>881.6</ele>
        <time>2019-08-19T01:17:12Z</time>
      </trkpt>
      <trkpt lat="42.261278" lon="2.370582">
        <ele>881.5</ele>
        <time>2019-08-19T01:17:13Z</time>
      </trkpt>
      <trkpt lat="42.261322" lon="2.370525">
        <ele>881.4</ele>
        <time>2019-08-19T01:17:14Z</time>
      </trkpt>
      <trkpt lat="42.261368" lon="2.370468">
        <ele>881.3</ele>
        <time>2019-08-19T01:17:15Z</time>
      </trkpt>
      <trkpt lat="42.26141" lon="2.370408">
        <ele>881.2</ele>
        <time>2019-08-19T01:17:16Z</time>
      </trkpt>
      <trkpt lat="42.261443" lon="2.370356">
        <ele>881.2</ele>
        <time>2019-08-19T01:17:17Z</time>
      </trkpt>
      <trkpt lat="42.261461" lon="2.370293">
        <ele>881.1</ele>
        <time>2019-08-19T01:17:18Z</time>
      </trkpt>
      <trkpt lat="42.261474" lon="2.370225">
        <ele>881</ele>
        <time>2019-08-19T01:17:19Z</time>
      </trkpt>
      <trkpt lat="42.261478" lon="2.37016">
        <ele>880.9</ele>
        <time>2019-08-19T01:17:20Z</time>
      </trkpt>
      <trkpt lat="42.261479" lon="2.370082">
        <ele>880.8</ele>
        <time>2019-08-19T01:17:21Z</time>
      </trkpt>
      <trkpt lat="42.261484" lon="2.370009">
        <ele>880.7</ele>
        <time>2019-08-19T01:17:22Z</time>
      </trkpt>
      <trkpt lat="42.261489" lon="2.369928">
        <ele>880.6</ele>
        <time>2019-08-19T01:17:23Z</time>
      </trkpt>
      <trkpt lat="42.261492" lon="2.369835">
        <ele>880.4</ele>
        <time>2019-08-19T01:17:24Z</time>
      </trkpt>
      <trkpt lat="42.261503" lon="2.36973">
        <ele>880.2</ele>
        <time>2019-08-19T01:17:25Z</time>
      </trkpt>
      <trkpt lat="42.261507" lon="2.369645">
        <ele>880.1</ele>
        <time>2019-08-19T01:17:26Z</time>
      </trkpt>
      <trkpt lat="42.261501" lon="2.369581">
        <ele>879.9</ele>
        <time>2019-08-19T01:17:27Z</time>
      </trkpt>
      <trkpt lat="42.2615" lon="2.369505">
        <ele>879.8</ele>
        <time>2019-08-19T01:17:28Z</time>
      </trkpt>
      <trkpt lat="42.2615" lon="2.369426">
        <ele>879.7</ele>
        <time>2019-08-19T01:17:29Z</time>
      </trkpt>
      <trkpt lat="42.2615" lon="2.369341">
        <ele>879.5</ele>
        <time>2019-08-19T01:17:30Z</time>
      </trkpt>
      <trkpt lat="42.261498" lon="2.369266">
        <ele>879.3</ele>
        <time>2019-08-19T01:17:31Z</time>
      </trkpt>
      <trkpt lat="42.261482" lon="2.369189">
        <ele>879.1</ele>
        <time>2019-08-19T01:17:32Z</time>
      </trkpt>
      <trkpt lat="42.261465" lon="2.369115">
        <ele>878.9</ele>
        <time>2019-08-19T01:17:33Z</time>
      </trkpt>
      <trkpt lat="42.261453" lon="2.369041">
        <ele>878.7</ele>
        <time>2019-08-19T01:17:34Z</time>
      </trkpt>
      <trkpt lat="42.26142" lon="2.368957">
        <ele>878.3</ele>
        <time>2019-08-19T01:17:35Z</time>
      </trkpt>
      <trkpt lat="42.261392" lon="2.368872">
        <ele>878</ele>
        <time>2019-08-19T01:17:36Z</time>
      </trkpt>
      <trkpt lat="42.261372" lon="2.368804">
        <ele>877.6</ele>
        <time>2019-08-19T01:17:37Z</time>
      </trkpt>
      <trkpt lat="42.261346" lon="2.368724">
        <ele>877.2</ele>
        <time>2019-08-19T01:17:38Z</time>
      </trkpt>
      <trkpt lat="42.261314" lon="2.36863">
        <ele>876.8</ele>
        <time>2019-08-19T01:17:39Z</time>
      </trkpt>
      <trkpt lat="42.261295" lon="2.368529">
        <ele>876.5</ele>
        <time>2019-08-19T01:17:40Z</time>
      </trkpt>
      <trkpt lat="42.261267" lon="2.368426">
        <ele>876.1</ele>
        <time>2019-08-19T01:17:41Z</time>
      </trkpt>
      <trkpt lat="42.26123" lon="2.368324">
        <ele>875.7</ele>
        <time>2019-08-19T01:17:42Z</time>
      </trkpt>
      <trkpt lat="42.261187" lon="2.368214">
        <ele>875.3</ele>
        <time>2019-08-19T01:17:43Z</time>
      </trkpt>
      <trkpt lat="42.26115" lon="2.368109">
        <ele>874.8</ele>
        <time>2019-08-19T01:17:44Z</time>
      </trkpt>
      <trkpt lat="42.261116" lon="2.368014">
        <ele>874.3</ele>
        <time>2019-08-19T01:17:45Z</time>
      </trkpt>
      <trkpt lat="42.261072" lon="2.36792">
        <ele>873.6</ele>
        <time>2019-08-19T01:17:46Z</time>
      </trkpt>
      <trkpt lat="42.261026" lon="2.367821">
        <ele>873</ele>
        <time>2019-08-19T01:17:47Z</time>
      </trkpt>
      <trkpt lat="42.260981" lon="2.367725">
        <ele>872.5</ele>
        <time>2019-08-19T01:17:48Z</time>
      </trkpt>
      <trkpt lat="42.260922" lon="2.367648">
        <ele>872.1</ele>
        <time>2019-08-19T01:17:49Z</time>
      </trkpt>
      <trkpt lat="42.26086" lon="2.367564">
        <ele>871.7</ele>
        <time>2019-08-19T01:17:50Z</time>
      </trkpt>
      <trkpt lat="42.260798" lon="2.367488">
        <ele>871.3</ele>
        <time>2019-08-19T01:17:51Z</time>
      </trkpt>
      <trkpt lat="42.260735" lon="2.367409">
        <ele>870.7</ele>
        <time>2019-08-19T01:17:52Z</time>
      </trkpt>
      <trkpt lat="42.260667" lon="2.36733">
        <ele>870.1</ele>
        <time>2019-08-19T01:17:53Z</time>
      </trkpt>
      <trkpt lat="42.260601" lon="2.367251">
        <ele>869.6</ele>
        <time>2019-08-19T01:17:54Z</time>
      </trkpt>
      <trkpt lat="42.260531" lon="2.367169">
        <ele>869</ele>
        <time>2019-08-19T01:17:55Z</time>
      </trkpt>
      <trkpt lat="42.260464" lon="2.367089">
        <ele>868.4</ele>
        <time>2019-08-19T01:17:56Z</time>
      </trkpt>
      <trkpt lat="42.260398" lon="2.367016">
        <ele>867.8</ele>
        <time>2019-08-19T01:17:57Z</time>
      </trkpt>
      <trkpt lat="42.260332" lon="2.366941">
        <ele>867.3</ele>
        <time>2019-08-19T01:17:58Z</time>
      </trkpt>
      <trkpt lat="42.260274" lon="2.366867">
        <ele>866.9</ele>
        <time>2019-08-19T01:17:59Z</time>
      </trkpt>
      <trkpt lat="42.260216" lon="2.366802">
        <ele>866.4</ele>
        <time>2019-08-19T01:18:00Z</time>
      </trkpt>
      <trkpt lat="42.26016" lon="2.366736">
        <ele>866</ele>
        <time>2019-08-19T01:18:01Z</time>
      </trkpt>
      <trkpt lat="42.260118" lon="2.366674">
        <ele>865.7</ele>
        <time>2019-08-19T01:18:02Z</time>
      </trkpt>
      <trkpt lat="42.26009" lon="2.366617">
        <ele>865.5</ele>
        <time>2019-08-19T01:18:03Z</time>
      </trkpt>
      <trkpt lat="42.260067" lon="2.366551">
        <ele>865.2</ele>
        <time>2019-08-19T01:18:04Z</time>
      </trkpt>
      <trkpt lat="42.260051" lon="2.366477">
        <ele>864.3</ele>
        <time>2019-08-19T01:18:05Z</time>
      </trkpt>
      <trkpt lat="42.260054" lon="2.366399">
        <ele>863.6</ele>
        <time>2019-08-19T01:18:06Z</time>
      </trkpt>
      <trkpt lat="42.260058" lon="2.366335">
        <ele>863</ele>
        <time>2019-08-19T01:18:07Z</time>
      </trkpt>
      <trkpt lat="42.260077" lon="2.366269">
        <ele>862.4</ele>
        <time>2019-08-19T01:18:08Z</time>
      </trkpt>
      <trkpt lat="42.260093" lon="2.366208">
        <ele>861.8</ele>
        <time>2019-08-19T01:18:09Z</time>
      </trkpt>
      <trkpt lat="42.2601" lon="2.366156">
        <ele>861.4</ele>
        <time>2019-08-19T01:18:10Z</time>
      </trkpt>
      <trkpt lat="42.260115" lon="2.366106">
        <ele>860.8</ele>
        <time>2019-08-19T01:18:11Z</time>
      </trkpt>
      <trkpt lat="42.260129" lon="2.366052">
        <ele>860.3</ele>
        <time>2019-08-19T01:18:12Z</time>
      </trkpt>
      <trkpt lat="42.260145" lon="2.366007">
        <ele>859.8</ele>
        <time>2019-08-19T01:18:13Z</time>
      </trkpt>
      <trkpt lat="42.260167" lon="2.365977">
        <ele>859.5</ele>
        <time>2019-08-19T01:18:18Z</time>
      </trkpt>
      <trkpt lat="42.260195" lon="2.365928">
        <ele>859.2</ele>
        <time>2019-08-19T01:19:05Z</time>
      </trkpt>
      <trkpt lat="42.260214" lon="2.365866">
        <ele>858.9</ele>
        <time>2019-08-19T01:19:07Z</time>
      </trkpt>
      <trkpt lat="42.260218" lon="2.365823">
        <ele>858.7</ele>
        <time>2019-08-19T01:19:08Z</time>
      </trkpt>
      <trkpt lat="42.260216" lon="2.365777">
        <ele>858.5</ele>
        <time>2019-08-19T01:19:09Z</time>
      </trkpt>
      <trkpt lat="42.260205" lon="2.365735">
        <ele>858.3</ele>
        <time>2019-08-19T01:19:10Z</time>
      </trkpt>
      <trkpt lat="42.260183" lon="2.365701">
        <ele>858.1</ele>
        <time>2019-08-19T01:19:11Z</time>
      </trkpt>
      <trkpt lat="42.260155" lon="2.365674">
        <ele>858</ele>
        <time>2019-08-19T01:19:12Z</time>
      </trkpt>
      <trkpt lat="42.260121" lon="2.365656">
        <ele>857.9</ele>
        <time>2019-08-19T01:19:13Z</time>
      </trkpt>
      <trkpt lat="42.260085" lon="2.365647">
        <ele>857.9</ele>
        <time>2019-08-19T01:19:14Z</time>
      </trkpt>
      <trkpt lat="42.260049" lon="2.365642">
        <ele>857.9</ele>
        <time>2019-08-19T01:19:15Z</time>
      </trkpt>
      <trkpt lat="42.260009" lon="2.365637">
        <ele>858</ele>
        <time>2019-08-19T01:19:16Z</time>
      </trkpt>
      <trkpt lat="42.259968" lon="2.365631">
        <ele>858</ele>
        <time>2019-08-19T01:19:17Z</time>
      </trkpt>
      <trkpt lat="42.259933" lon="2.36562">
        <ele>858.1</ele>
        <time>2019-08-19T01:19:18Z</time>
      </trkpt>
      <trkpt lat="42.259907" lon="2.365599">
        <ele>858.1</ele>
        <time>2019-08-19T01:19:19Z</time>
      </trkpt>
      <trkpt lat="42.25988" lon="2.365573">
        <ele>858.2</ele>
        <time>2019-08-19T01:19:20Z</time>
      </trkpt>
      <trkpt lat="42.259853" lon="2.365549">
        <ele>858.2</ele>
        <time>2019-08-19T01:19:21Z</time>
      </trkpt>
      <trkpt lat="42.259827" lon="2.365525">
        <ele>858.2</ele>
        <time>2019-08-19T01:19:22Z</time>
      </trkpt>
      <trkpt lat="42.259799" lon="2.365502">
        <ele>858.2</ele>
        <time>2019-08-19T01:19:23Z</time>
      </trkpt>
      <trkpt lat="42.259774" lon="2.365481">
        <ele>858.2</ele>
        <time>2019-08-19T01:19:24Z</time>
      </trkpt>
      <trkpt lat="42.259738" lon="2.365447">
        <ele>858.2</ele>
        <time>2019-08-19T01:19:26Z</time>
      </trkpt>
      <trkpt lat="42.259704" lon="2.36543">
        <ele>858.2</ele>
        <time>2019-08-19T01:21:03Z</time>
      </trkpt>
      <trkpt lat="42.259676" lon="2.365409">
        <ele>858.2</ele>
        <time>2019-08-19T01:21:05Z</time>
      </trkpt>
      <trkpt lat="42.259644" lon="2.365381">
        <ele>858.2</ele>
        <time>2019-08-19T01:21:07Z</time>
      </trkpt>
      <trkpt lat="42.259607" lon="2.365352">
        <ele>858.2</ele>
        <time>2019-08-19T01:21:09Z</time>
      </trkpt>
      <trkpt lat="42.259565" lon="2.365326">
        <ele>858.3</ele>
        <time>2019-08-19T01:21:11Z</time>
      </trkpt>
      <trkpt lat="42.259521" lon="2.365296">
        <ele>858.3</ele>
        <time>2019-08-19T01:21:13Z</time>
      </trkpt>
      <trkpt lat="42.259473" lon="2.365258">
        <ele>858.3</ele>
        <time>2019-08-19T01:21:15Z</time>
      </trkpt>
      <trkpt lat="42.259448" lon="2.365235">
        <ele>858.4</ele>
        <time>2019-08-19T01:21:16Z</time>
      </trkpt>
      <trkpt lat="42.259422" lon="2.365214">
        <ele>858.4</ele>
        <time>2019-08-19T01:21:17Z</time>
      </trkpt>
      <trkpt lat="42.259398" lon="2.365195">
        <ele>858.4</ele>
        <time>2019-08-19T01:21:18Z</time>
      </trkpt>
      <trkpt lat="42.259347" lon="2.365179">
        <ele>858.5</ele>
        <time>2019-08-19T01:21:20Z</time>
      </trkpt>
      <trkpt lat="42.259322" lon="2.365166">
        <ele>858.5</ele>
        <time>2019-08-19T01:21:21Z</time>
      </trkpt>
      <trkpt lat="42.259295" lon="2.365146">
        <ele>858.5</ele>
        <time>2019-08-19T01:21:22Z</time>
      </trkpt>
      <trkpt lat="42.259265" lon="2.365123">
        <ele>858.6</ele>
        <time>2019-08-19T01:21:23Z</time>
      </trkpt>
      <trkpt lat="42.259233" lon="2.365097">
        <ele>858.6</ele>
        <time>2019-08-19T01:21:24Z</time>
      </trkpt>
      <trkpt lat="42.2592" lon="2.365069">
        <ele>858.7</ele>
        <time>2019-08-19T01:21:25Z</time>
      </trkpt>
      <trkpt lat="42.259167" lon="2.365037">
        <ele>858.7</ele>
        <time>2019-08-19T01:21:26Z</time>
      </trkpt>
      <trkpt lat="42.259132" lon="2.365006">
        <ele>858.7</ele>
        <time>2019-08-19T01:21:27Z</time>
      </trkpt>
      <trkpt lat="42.259096" lon="2.364976">
        <ele>858.8</ele>
        <time>2019-08-19T01:21:28Z</time>
      </trkpt>
      <trkpt lat="42.259059" lon="2.364947">
        <ele>858.8</ele>
        <time>2019-08-19T01:21:29Z</time>
      </trkpt>
      <trkpt lat="42.25902" lon="2.364918">
        <ele>858.9</ele>
        <time>2019-08-19T01:21:30Z</time>
      </trkpt>
      <trkpt lat="42.258986" lon="2.364891">
        <ele>858.9</ele>
        <time>2019-08-19T01:21:31Z</time>
      </trkpt>
      <trkpt lat="42.258947" lon="2.364858">
        <ele>859</ele>
        <time>2019-08-19T01:21:32Z</time>
      </trkpt>
      <trkpt lat="42.25891" lon="2.364833">
        <ele>859</ele>
        <time>2019-08-19T01:21:33Z</time>
      </trkpt>
      <trkpt lat="42.258877" lon="2.364813">
        <ele>859.1</ele>
        <time>2019-08-19T01:21:34Z</time>
      </trkpt>
      <trkpt lat="42.25884" lon="2.364803">
        <ele>859.1</ele>
        <time>2019-08-19T01:21:35Z</time>
      </trkpt>
      <trkpt lat="42.258803" lon="2.364788">
        <ele>859.2</ele>
        <time>2019-08-19T01:21:36Z</time>
      </trkpt>
      <trkpt lat="42.258762" lon="2.364762">
        <ele>859.2</ele>
        <time>2019-08-19T01:21:37Z</time>
      </trkpt>
      <trkpt lat="42.258722" lon="2.364732">
        <ele>859.3</ele>
        <time>2019-08-19T01:21:38Z</time>
      </trkpt>
      <trkpt lat="42.258675" lon="2.364693">
        <ele>859.3</ele>
        <time>2019-08-19T01:21:39Z</time>
      </trkpt>
      <trkpt lat="42.258628" lon="2.364658">
        <ele>859.3</ele>
        <time>2019-08-19T01:21:40Z</time>
      </trkpt>
      <trkpt lat="42.258577" lon="2.36461">
        <ele>859.1</ele>
        <time>2019-08-19T01:21:41Z</time>
      </trkpt>
      <trkpt lat="42.258525" lon="2.364569">
        <ele>858.8</ele>
        <time>2019-08-19T01:21:42Z</time>
      </trkpt>
      <trkpt lat="42.258484" lon="2.364533">
        <ele>858.5</ele>
        <time>2019-08-19T01:21:43Z</time>
      </trkpt>
      <trkpt lat="42.258437" lon="2.364494">
        <ele>858.1</ele>
        <time>2019-08-19T01:21:44Z</time>
      </trkpt>
      <trkpt lat="42.258386" lon="2.364457">
        <ele>857.6</ele>
        <time>2019-08-19T01:21:45Z</time>
      </trkpt>
      <trkpt lat="42.25833" lon="2.364421">
        <ele>856.9</ele>
        <time>2019-08-19T01:21:46Z</time>
      </trkpt>
      <trkpt lat="42.258276" lon="2.364373">
        <ele>856.1</ele>
        <time>2019-08-19T01:21:47Z</time>
      </trkpt>
      <trkpt lat="42.258232" lon="2.364312">
        <ele>855.2</ele>
        <time>2019-08-19T01:21:48Z</time>
      </trkpt>
      <trkpt lat="42.258183" lon="2.36424">
        <ele>854.4</ele>
        <time>2019-08-19T01:21:49Z</time>
      </trkpt>
      <trkpt lat="42.258147" lon="2.364175">
        <ele>853.7</ele>
        <time>2019-08-19T01:21:50Z</time>
      </trkpt>
      <trkpt lat="42.258121" lon="2.364089">
        <ele>853.1</ele>
        <time>2019-08-19T01:21:51Z</time>
      </trkpt>
      <trkpt lat="42.258109" lon="2.363994">
        <ele>852.8</ele>
        <time>2019-08-19T01:21:52Z</time>
      </trkpt>
      <trkpt lat="42.258103" lon="2.363901">
        <ele>852.5</ele>
        <time>2019-08-19T01:21:53Z</time>
      </trkpt>
      <trkpt lat="42.258112" lon="2.363806">
        <ele>852.3</ele>
        <time>2019-08-19T01:21:54Z</time>
      </trkpt>
      <trkpt lat="42.258126" lon="2.363709">
        <ele>851.5</ele>
        <time>2019-08-19T01:21:55Z</time>
      </trkpt>
      <trkpt lat="42.258147" lon="2.363616">
        <ele>851.6</ele>
        <time>2019-08-19T01:21:56Z</time>
      </trkpt>
      <trkpt lat="42.258168" lon="2.363521">
        <ele>851.6</ele>
        <time>2019-08-19T01:21:57Z</time>
      </trkpt>
      <trkpt lat="42.258186" lon="2.363431">
        <ele>851.6</ele>
        <time>2019-08-19T01:21:58Z</time>
      </trkpt>
      <trkpt lat="42.258192" lon="2.363337">
        <ele>851.6</ele>
        <time>2019-08-19T01:21:59Z</time>
      </trkpt>
      <trkpt lat="42.258202" lon="2.363256">
        <ele>851.6</ele>
        <time>2019-08-19T01:22:00Z</time>
      </trkpt>
      <trkpt lat="42.258218" lon="2.363176">
        <ele>851.6</ele>
        <time>2019-08-19T01:22:01Z</time>
      </trkpt>
      <trkpt lat="42.258231" lon="2.363102">
        <ele>852.1</ele>
        <time>2019-08-19T01:22:02Z</time>
      </trkpt>
      <trkpt lat="42.258241" lon="2.36302">
        <ele>852.7</ele>
        <time>2019-08-19T01:22:03Z</time>
      </trkpt>
      <trkpt lat="42.258253" lon="2.362956">
        <ele>853.1</ele>
        <time>2019-08-19T01:22:04Z</time>
      </trkpt>
      <trkpt lat="42.258262" lon="2.36289">
        <ele>853.5</ele>
        <time>2019-08-19T01:22:05Z</time>
      </trkpt>
      <trkpt lat="42.258264" lon="2.362817">
        <ele>854</ele>
        <time>2019-08-19T01:22:06Z</time>
      </trkpt>
      <trkpt lat="42.258257" lon="2.36274">
        <ele>854.5</ele>
        <time>2019-08-19T01:22:07Z</time>
      </trkpt>
      <trkpt lat="42.258241" lon="2.362665">
        <ele>855</ele>
        <time>2019-08-19T01:22:08Z</time>
      </trkpt>
      <trkpt lat="42.258235" lon="2.362596">
        <ele>855.7</ele>
        <time>2019-08-19T01:22:09Z</time>
      </trkpt>
      <trkpt lat="42.258223" lon="2.362532">
        <ele>855.7</ele>
        <time>2019-08-19T01:22:10Z</time>
      </trkpt>
      <trkpt lat="42.258206" lon="2.362464">
        <ele>855.7</ele>
        <time>2019-08-19T01:22:11Z</time>
      </trkpt>
      <trkpt lat="42.258186" lon="2.362401">
        <ele>855.6</ele>
        <time>2019-08-19T01:22:12Z</time>
      </trkpt>
      <trkpt lat="42.258168" lon="2.362341">
        <ele>855.6</ele>
        <time>2019-08-19T01:22:13Z</time>
      </trkpt>
      <trkpt lat="42.258147" lon="2.362278">
        <ele>855.6</ele>
        <time>2019-08-19T01:22:14Z</time>
      </trkpt>
      <trkpt lat="42.258125" lon="2.362222">
        <ele>855.6</ele>
        <time>2019-08-19T01:22:15Z</time>
      </trkpt>
      <trkpt lat="42.258104" lon="2.362162">
        <ele>855.5</ele>
        <time>2019-08-19T01:22:16Z</time>
      </trkpt>
      <trkpt lat="42.258088" lon="2.362104">
        <ele>855.5</ele>
        <time>2019-08-19T01:22:17Z</time>
      </trkpt>
      <trkpt lat="42.258065" lon="2.362044">
        <ele>855.5</ele>
        <time>2019-08-19T01:22:18Z</time>
      </trkpt>
      <trkpt lat="42.258048" lon="2.361985">
        <ele>855.4</ele>
        <time>2019-08-19T01:22:19Z</time>
      </trkpt>
      <trkpt lat="42.258029" lon="2.361924">
        <ele>855.4</ele>
        <time>2019-08-19T01:22:20Z</time>
      </trkpt>
      <trkpt lat="42.258006" lon="2.361866">
        <ele>855.4</ele>
        <time>2019-08-19T01:22:21Z</time>
      </trkpt>
      <trkpt lat="42.257989" lon="2.361808">
        <ele>855.3</ele>
        <time>2019-08-19T01:22:22Z</time>
      </trkpt>
      <trkpt lat="42.257973" lon="2.361754">
        <ele>855.3</ele>
        <time>2019-08-19T01:22:23Z</time>
      </trkpt>
      <trkpt lat="42.257959" lon="2.361696">
        <ele>855.3</ele>
        <time>2019-08-19T01:22:24Z</time>
      </trkpt>
      <trkpt lat="42.257934" lon="2.36163">
        <ele>855.2</ele>
        <time>2019-08-19T01:22:25Z</time>
      </trkpt>
      <trkpt lat="42.257918" lon="2.361574">
        <ele>855.2</ele>
        <time>2019-08-19T01:22:26Z</time>
      </trkpt>
      <trkpt lat="42.257887" lon="2.361516">
        <ele>855.2</ele>
        <time>2019-08-19T01:22:27Z</time>
      </trkpt>
      <trkpt lat="42.257873" lon="2.361457">
        <ele>855.1</ele>
        <time>2019-08-19T01:22:28Z</time>
      </trkpt>
      <trkpt lat="42.257863" lon="2.361402">
        <ele>855.1</ele>
        <time>2019-08-19T01:22:29Z</time>
      </trkpt>
      <trkpt lat="42.257847" lon="2.361346">
        <ele>855.1</ele>
        <time>2019-08-19T01:22:30Z</time>
      </trkpt>
      <trkpt lat="42.257832" lon="2.36129">
        <ele>855</ele>
        <time>2019-08-19T01:22:31Z</time>
      </trkpt>
      <trkpt lat="42.25781" lon="2.361231">
        <ele>855</ele>
        <time>2019-08-19T01:22:32Z</time>
      </trkpt>
      <trkpt lat="42.257785" lon="2.361174">
        <ele>855</ele>
        <time>2019-08-19T01:22:33Z</time>
      </trkpt>
      <trkpt lat="42.257769" lon="2.361119">
        <ele>855</ele>
        <time>2019-08-19T01:22:34Z</time>
      </trkpt>
      <trkpt lat="42.257752" lon="2.361072">
        <ele>854.9</ele>
        <time>2019-08-19T01:22:35Z</time>
      </trkpt>
      <trkpt lat="42.257733" lon="2.361011">
        <ele>854.9</ele>
        <time>2019-08-19T01:22:36Z</time>
      </trkpt>
      <trkpt lat="42.257721" lon="2.360954">
        <ele>854.9</ele>
        <time>2019-08-19T01:22:37Z</time>
      </trkpt>
      <trkpt lat="42.25771" lon="2.360904">
        <ele>854.9</ele>
        <time>2019-08-19T01:22:38Z</time>
      </trkpt>
      <trkpt lat="42.257699" lon="2.36085">
        <ele>855</ele>
        <time>2019-08-19T01:22:39Z</time>
      </trkpt>
      <trkpt lat="42.257685" lon="2.360792">
        <ele>855.1</ele>
        <time>2019-08-19T01:22:40Z</time>
      </trkpt>
      <trkpt lat="42.257669" lon="2.360736">
        <ele>855.2</ele>
        <time>2019-08-19T01:22:41Z</time>
      </trkpt>
      <trkpt lat="42.257652" lon="2.360669">
        <ele>855.4</ele>
        <time>2019-08-19T01:22:42Z</time>
      </trkpt>
      <trkpt lat="42.257634" lon="2.360609">
        <ele>855.5</ele>
        <time>2019-08-19T01:22:43Z</time>
      </trkpt>
      <trkpt lat="42.257603" lon="2.360547">
        <ele>855.6</ele>
        <time>2019-08-19T01:22:44Z</time>
      </trkpt>
      <trkpt lat="42.257584" lon="2.360479">
        <ele>855.7</ele>
        <time>2019-08-19T01:22:45Z</time>
      </trkpt>
      <trkpt lat="42.257567" lon="2.360417">
        <ele>855.7</ele>
        <time>2019-08-19T01:22:46Z</time>
      </trkpt>
      <trkpt lat="42.257544" lon="2.360361">
        <ele>855.8</ele>
        <time>2019-08-19T01:22:47Z</time>
      </trkpt>
      <trkpt lat="42.257522" lon="2.3603">
        <ele>855.8</ele>
        <time>2019-08-19T01:22:48Z</time>
      </trkpt>
      <trkpt lat="42.257504" lon="2.360243">
        <ele>855.8</ele>
        <time>2019-08-19T01:22:49Z</time>
      </trkpt>
      <trkpt lat="42.257485" lon="2.36018">
        <ele>855.7</ele>
        <time>2019-08-19T01:22:50Z</time>
      </trkpt>
      <trkpt lat="42.257461" lon="2.36013">
        <ele>855.7</ele>
        <time>2019-08-19T01:22:51Z</time>
      </trkpt>
      <trkpt lat="42.25744" lon="2.36006">
        <ele>855.9</ele>
        <time>2019-08-19T01:22:52Z</time>
      </trkpt>
      <trkpt lat="42.257421" lon="2.360009">
        <ele>855.9</ele>
        <time>2019-08-19T01:22:53Z</time>
      </trkpt>
      <trkpt lat="42.257402" lon="2.359945">
        <ele>855.9</ele>
        <time>2019-08-19T01:22:54Z</time>
      </trkpt>
      <trkpt lat="42.257382" lon="2.359882">
        <ele>855.9</ele>
        <time>2019-08-19T01:22:55Z</time>
      </trkpt>
      <trkpt lat="42.257367" lon="2.359817">
        <ele>855.9</ele>
        <time>2019-08-19T01:22:56Z</time>
      </trkpt>
      <trkpt lat="42.257346" lon="2.359756">
        <ele>855.9</ele>
        <time>2019-08-19T01:22:57Z</time>
      </trkpt>
      <trkpt lat="42.257333" lon="2.359696">
        <ele>855.9</ele>
        <time>2019-08-19T01:22:58Z</time>
      </trkpt>
      <trkpt lat="42.257317" lon="2.359632">
        <ele>856</ele>
        <time>2019-08-19T01:22:59Z</time>
      </trkpt>
      <trkpt lat="42.257299" lon="2.359568">
        <ele>856</ele>
        <time>2019-08-19T01:23:00Z</time>
      </trkpt>
      <trkpt lat="42.257281" lon="2.359509">
        <ele>856</ele>
        <time>2019-08-19T01:23:01Z</time>
      </trkpt>
      <trkpt lat="42.257267" lon="2.359453">
        <ele>856</ele>
        <time>2019-08-19T01:23:02Z</time>
      </trkpt>
      <trkpt lat="42.257247" lon="2.359394">
        <ele>856.1</ele>
        <time>2019-08-19T01:23:03Z</time>
      </trkpt>
      <trkpt lat="42.257226" lon="2.359332">
        <ele>856.1</ele>
        <time>2019-08-19T01:23:04Z</time>
      </trkpt>
      <trkpt lat="42.257205" lon="2.359275">
        <ele>856.1</ele>
        <time>2019-08-19T01:23:05Z</time>
      </trkpt>
      <trkpt lat="42.257196" lon="2.359209">
        <ele>856.1</ele>
        <time>2019-08-19T01:23:06Z</time>
      </trkpt>
      <trkpt lat="42.257179" lon="2.359147">
        <ele>856.1</ele>
        <time>2019-08-19T01:23:07Z</time>
      </trkpt>
      <trkpt lat="42.257149" lon="2.359085">
        <ele>856.1</ele>
        <time>2019-08-19T01:23:08Z</time>
      </trkpt>
      <trkpt lat="42.257132" lon="2.359009">
        <ele>856.1</ele>
        <time>2019-08-19T01:23:09Z</time>
      </trkpt>
      <trkpt lat="42.25711" lon="2.358943">
        <ele>856.1</ele>
        <time>2019-08-19T01:23:10Z</time>
      </trkpt>
      <trkpt lat="42.257091" lon="2.358882">
        <ele>856.1</ele>
        <time>2019-08-19T01:23:11Z</time>
      </trkpt>
      <trkpt lat="42.257085" lon="2.358821">
        <ele>856.1</ele>
        <time>2019-08-19T01:23:12Z</time>
      </trkpt>
      <trkpt lat="42.257058" lon="2.358751">
        <ele>856.1</ele>
        <time>2019-08-19T01:23:13Z</time>
      </trkpt>
      <trkpt lat="42.25704" lon="2.358683">
        <ele>856.1</ele>
        <time>2019-08-19T01:23:14Z</time>
      </trkpt>
      <trkpt lat="42.257019" lon="2.358613">
        <ele>856.1</ele>
        <time>2019-08-19T01:23:15Z</time>
      </trkpt>
      <trkpt lat="42.257008" lon="2.358535">
        <ele>856.1</ele>
        <time>2019-08-19T01:23:16Z</time>
      </trkpt>
      <trkpt lat="42.256978" lon="2.358456">
        <ele>856.1</ele>
        <time>2019-08-19T01:23:17Z</time>
      </trkpt>
      <trkpt lat="42.256958" lon="2.35839">
        <ele>856.1</ele>
        <time>2019-08-19T01:23:18Z</time>
      </trkpt>
      <trkpt lat="42.256932" lon="2.358318">
        <ele>856.1</ele>
        <time>2019-08-19T01:23:19Z</time>
      </trkpt>
      <trkpt lat="42.256919" lon="2.358239">
        <ele>856</ele>
        <time>2019-08-19T01:23:20Z</time>
      </trkpt>
      <trkpt lat="42.256895" lon="2.358166">
        <ele>856</ele>
        <time>2019-08-19T01:23:21Z</time>
      </trkpt>
      <trkpt lat="42.256872" lon="2.358091">
        <ele>856</ele>
        <time>2019-08-19T01:23:22Z</time>
      </trkpt>
      <trkpt lat="42.256849" lon="2.358008">
        <ele>856</ele>
        <time>2019-08-19T01:23:23Z</time>
      </trkpt>
      <trkpt lat="42.256831" lon="2.357917">
        <ele>856</ele>
        <time>2019-08-19T01:23:24Z</time>
      </trkpt>
      <trkpt lat="42.256805" lon="2.357841">
        <ele>856</ele>
        <time>2019-08-19T01:23:25Z</time>
      </trkpt>
      <trkpt lat="42.256782" lon="2.357761">
        <ele>855.9</ele>
        <time>2019-08-19T01:23:26Z</time>
      </trkpt>
      <trkpt lat="42.256753" lon="2.357671">
        <ele>855.9</ele>
        <time>2019-08-19T01:23:27Z</time>
      </trkpt>
      <trkpt lat="42.256718" lon="2.357596">
        <ele>855.9</ele>
        <time>2019-08-19T01:23:28Z</time>
      </trkpt>
      <trkpt lat="42.256684" lon="2.357508">
        <ele>855.9</ele>
        <time>2019-08-19T01:23:29Z</time>
      </trkpt>
      <trkpt lat="42.256663" lon="2.357434">
        <ele>855.8</ele>
        <time>2019-08-19T01:23:30Z</time>
      </trkpt>
      <trkpt lat="42.256635" lon="2.357358">
        <ele>855.7</ele>
        <time>2019-08-19T01:23:31Z</time>
      </trkpt>
      <trkpt lat="42.256615" lon="2.357285">
        <ele>855.7</ele>
        <time>2019-08-19T01:23:32Z</time>
      </trkpt>
      <trkpt lat="42.256593" lon="2.357206">
        <ele>855.6</ele>
        <time>2019-08-19T01:23:33Z</time>
      </trkpt>
      <trkpt lat="42.256572" lon="2.357129">
        <ele>855.5</ele>
        <time>2019-08-19T01:23:34Z</time>
      </trkpt>
      <trkpt lat="42.256555" lon="2.357049">
        <ele>855.5</ele>
        <time>2019-08-19T01:23:35Z</time>
      </trkpt>
      <trkpt lat="42.256542" lon="2.356974">
        <ele>855.4</ele>
        <time>2019-08-19T01:23:36Z</time>
      </trkpt>
      <trkpt lat="42.256524" lon="2.356889">
        <ele>855.3</ele>
        <time>2019-08-19T01:23:37Z</time>
      </trkpt>
      <trkpt lat="42.256507" lon="2.356805">
        <ele>855.3</ele>
        <time>2019-08-19T01:23:38Z</time>
      </trkpt>
      <trkpt lat="42.256492" lon="2.356727">
        <ele>855.2</ele>
        <time>2019-08-19T01:23:39Z</time>
      </trkpt>
      <trkpt lat="42.256482" lon="2.356646">
        <ele>855.1</ele>
        <time>2019-08-19T01:23:40Z</time>
      </trkpt>
      <trkpt lat="42.256468" lon="2.356565">
        <ele>855.1</ele>
        <time>2019-08-19T01:23:41Z</time>
      </trkpt>
      <trkpt lat="42.256453" lon="2.356488">
        <ele>854.9</ele>
        <time>2019-08-19T01:23:42Z</time>
      </trkpt>
      <trkpt lat="42.256446" lon="2.35641">
        <ele>854.8</ele>
        <time>2019-08-19T01:23:43Z</time>
      </trkpt>
      <trkpt lat="42.25643" lon="2.35632">
        <ele>854.7</ele>
        <time>2019-08-19T01:23:44Z</time>
      </trkpt>
      <trkpt lat="42.256416" lon="2.356236">
        <ele>854.6</ele>
        <time>2019-08-19T01:23:45Z</time>
      </trkpt>
      <trkpt lat="42.256404" lon="2.35615">
        <ele>854.4</ele>
        <time>2019-08-19T01:23:46Z</time>
      </trkpt>
      <trkpt lat="42.256389" lon="2.356069">
        <ele>854.3</ele>
        <time>2019-08-19T01:23:47Z</time>
      </trkpt>
      <trkpt lat="42.256386" lon="2.355986">
        <ele>854.2</ele>
        <time>2019-08-19T01:23:48Z</time>
      </trkpt>
      <trkpt lat="42.256375" lon="2.355902">
        <ele>854</ele>
        <time>2019-08-19T01:23:49Z</time>
      </trkpt>
      <trkpt lat="42.256363" lon="2.355812">
        <ele>853.9</ele>
        <time>2019-08-19T01:23:50Z</time>
      </trkpt>
      <trkpt lat="42.256356" lon="2.355727">
        <ele>853.7</ele>
        <time>2019-08-19T01:23:51Z</time>
      </trkpt>
      <trkpt lat="42.25634" lon="2.355639">
        <ele>853.6</ele>
        <time>2019-08-19T01:23:52Z</time>
      </trkpt>
      <trkpt lat="42.256327" lon="2.355552">
        <ele>853.5</ele>
        <time>2019-08-19T01:23:53Z</time>
      </trkpt>
      <trkpt lat="42.256313" lon="2.355465">
        <ele>853.4</ele>
        <time>2019-08-19T01:23:54Z</time>
      </trkpt>
      <trkpt lat="42.256297" lon="2.355378">
        <ele>853.3</ele>
        <time>2019-08-19T01:23:55Z</time>
      </trkpt>
      <trkpt lat="42.256284" lon="2.355291">
        <ele>853.3</ele>
        <time>2019-08-19T01:23:56Z</time>
      </trkpt>
      <trkpt lat="42.256275" lon="2.355208">
        <ele>853.2</ele>
        <time>2019-08-19T01:23:57Z</time>
      </trkpt>
      <trkpt lat="42.256263" lon="2.355125">
        <ele>853.1</ele>
        <time>2019-08-19T01:23:58Z</time>
      </trkpt>
      <trkpt lat="42.256209" lon="2.35506">
        <ele>853.1</ele>
        <time>2019-08-19T01:23:59Z</time>
      </trkpt>
      <trkpt lat="42.256197" lon="2.354979">
        <ele>853</ele>
        <time>2019-08-19T01:24:00Z</time>
      </trkpt>
      <trkpt lat="42.256182" lon="2.354894">
        <ele>853</ele>
        <time>2019-08-19T01:24:01Z</time>
      </trkpt>
      <trkpt lat="42.256132" lon="2.354821">
        <ele>853</ele>
        <time>2019-08-19T01:24:02Z</time>
      </trkpt>
      <trkpt lat="42.256134" lon="2.354725">
        <ele>853</ele>
        <time>2019-08-19T01:24:03Z</time>
      </trkpt>
      <trkpt lat="42.256107" lon="2.354608">
        <ele>852.9</ele>
        <time>2019-08-19T01:24:04Z</time>
      </trkpt>
      <trkpt lat="42.256087" lon="2.354523">
        <ele>852.8</ele>
        <time>2019-08-19T01:24:05Z</time>
      </trkpt>
      <trkpt lat="42.256084" lon="2.354435">
        <ele>852.7</ele>
        <time>2019-08-19T01:24:06Z</time>
      </trkpt>
      <trkpt lat="42.256087" lon="2.35434">
        <ele>852.5</ele>
        <time>2019-08-19T01:24:07Z</time>
      </trkpt>
      <trkpt lat="42.256071" lon="2.354246">
        <ele>852.3</ele>
        <time>2019-08-19T01:24:08Z</time>
      </trkpt>
      <trkpt lat="42.256057" lon="2.354149">
        <ele>852.2</ele>
        <time>2019-08-19T01:24:09Z</time>
      </trkpt>
      <trkpt lat="42.256038" lon="2.354034">
        <ele>852</ele>
        <time>2019-08-19T01:24:10Z</time>
      </trkpt>
      <trkpt lat="42.256028" lon="2.353935">
        <ele>851.8</ele>
        <time>2019-08-19T01:24:11Z</time>
      </trkpt>
      <trkpt lat="42.255993" lon="2.353854">
        <ele>851.7</ele>
        <time>2019-08-19T01:24:12Z</time>
      </trkpt>
      <trkpt lat="42.255975" lon="2.353765">
        <ele>851.7</ele>
        <time>2019-08-19T01:24:13Z</time>
      </trkpt>
      <trkpt lat="42.255924" lon="2.353651">
        <ele>851.6</ele>
        <time>2019-08-19T01:24:14Z</time>
      </trkpt>
      <trkpt lat="42.255916" lon="2.353547">
        <ele>851.5</ele>
        <time>2019-08-19T01:24:15Z</time>
      </trkpt>
      <trkpt lat="42.2559" lon="2.353444">
        <ele>851.5</ele>
        <time>2019-08-19T01:24:16Z</time>
      </trkpt>
      <trkpt lat="42.255895" lon="2.353352">
        <ele>851.4</ele>
        <time>2019-08-19T01:24:17Z</time>
      </trkpt>
      <trkpt lat="42.255884" lon="2.353254">
        <ele>851.3</ele>
        <time>2019-08-19T01:24:18Z</time>
      </trkpt>
      <trkpt lat="42.255878" lon="2.35316">
        <ele>851.3</ele>
        <time>2019-08-19T01:24:19Z</time>
      </trkpt>
      <trkpt lat="42.255864" lon="2.353031">
        <ele>851.1</ele>
        <time>2019-08-19T01:24:20Z</time>
      </trkpt>
      <trkpt lat="42.255849" lon="2.352931">
        <ele>850.9</ele>
        <time>2019-08-19T01:24:21Z</time>
      </trkpt>
      <trkpt lat="42.255811" lon="2.352815">
        <ele>850.6</ele>
        <time>2019-08-19T01:24:22Z</time>
      </trkpt>
      <trkpt lat="42.255809" lon="2.352703">
        <ele>850.4</ele>
        <time>2019-08-19T01:24:23Z</time>
      </trkpt>
      <trkpt lat="42.255785" lon="2.352598">
        <ele>850.2</ele>
        <time>2019-08-19T01:24:24Z</time>
      </trkpt>
      <trkpt lat="42.255782" lon="2.352523">
        <ele>850</ele>
        <time>2019-08-19T01:24:25Z</time>
      </trkpt>
      <trkpt lat="42.255777" lon="2.352437">
        <ele>849.8</ele>
        <time>2019-08-19T01:24:26Z</time>
      </trkpt>
      <trkpt lat="42.255756" lon="2.352329">
        <ele>849.5</ele>
        <time>2019-08-19T01:24:27Z</time>
      </trkpt>
      <trkpt lat="42.25575" lon="2.35223">
        <ele>849.2</ele>
        <time>2019-08-19T01:24:28Z</time>
      </trkpt>
      <trkpt lat="42.255736" lon="2.352128">
        <ele>849</ele>
        <time>2019-08-19T01:24:29Z</time>
      </trkpt>
      <trkpt lat="42.255735" lon="2.352023">
        <ele>848.8</ele>
        <time>2019-08-19T01:24:30Z</time>
      </trkpt>
      <trkpt lat="42.255725" lon="2.351928">
        <ele>848.6</ele>
        <time>2019-08-19T01:24:31Z</time>
      </trkpt>
      <trkpt lat="42.255712" lon="2.351831">
        <ele>848.4</ele>
        <time>2019-08-19T01:24:32Z</time>
      </trkpt>
      <trkpt lat="42.255689" lon="2.351729">
        <ele>848.2</ele>
        <time>2019-08-19T01:24:33Z</time>
      </trkpt>
      <trkpt lat="42.255678" lon="2.351621">
        <ele>848</ele>
        <time>2019-08-19T01:24:34Z</time>
      </trkpt>
      <trkpt lat="42.255666" lon="2.351523">
        <ele>847.8</ele>
        <time>2019-08-19T01:24:35Z</time>
      </trkpt>
      <trkpt lat="42.255659" lon="2.351423">
        <ele>847.5</ele>
        <time>2019-08-19T01:24:36Z</time>
      </trkpt>
      <trkpt lat="42.255646" lon="2.351325">
        <ele>847.3</ele>
        <time>2019-08-19T01:24:37Z</time>
      </trkpt>
      <trkpt lat="42.255634" lon="2.351234">
        <ele>847.1</ele>
        <time>2019-08-19T01:24:38Z</time>
      </trkpt>
      <trkpt lat="42.255617" lon="2.35113">
        <ele>846.8</ele>
        <time>2019-08-19T01:24:39Z</time>
      </trkpt>
      <trkpt lat="42.255597" lon="2.351029">
        <ele>846.5</ele>
        <time>2019-08-19T01:24:40Z</time>
      </trkpt>
      <trkpt lat="42.25558" lon="2.350917">
        <ele>846.2</ele>
        <time>2019-08-19T01:24:41Z</time>
      </trkpt>
      <trkpt lat="42.255562" lon="2.350821">
        <ele>846.1</ele>
        <time>2019-08-19T01:24:42Z</time>
      </trkpt>
      <trkpt lat="42.25554" lon="2.350716">
        <ele>846.1</ele>
        <time>2019-08-19T01:24:43Z</time>
      </trkpt>
      <trkpt lat="42.255521" lon="2.350622">
        <ele>846</ele>
        <time>2019-08-19T01:24:44Z</time>
      </trkpt>
      <trkpt lat="42.255498" lon="2.350528">
        <ele>845.9</ele>
        <time>2019-08-19T01:24:45Z</time>
      </trkpt>
      <trkpt lat="42.255486" lon="2.350419">
        <ele>845.8</ele>
        <time>2019-08-19T01:24:46Z</time>
      </trkpt>
      <trkpt lat="42.255466" lon="2.35032">
        <ele>845.4</ele>
        <time>2019-08-19T01:24:47Z</time>
      </trkpt>
      <trkpt lat="42.25545" lon="2.350221">
        <ele>845.1</ele>
        <time>2019-08-19T01:24:48Z</time>
      </trkpt>
      <trkpt lat="42.25542" lon="2.350124">
        <ele>844.6</ele>
        <time>2019-08-19T01:24:49Z</time>
      </trkpt>
      <trkpt lat="42.255383" lon="2.350021">
        <ele>844.2</ele>
        <time>2019-08-19T01:24:50Z</time>
      </trkpt>
      <trkpt lat="42.25535" lon="2.349918">
        <ele>843.8</ele>
        <time>2019-08-19T01:24:51Z</time>
      </trkpt>
      <trkpt lat="42.25531" lon="2.349821">
        <ele>843.3</ele>
        <time>2019-08-19T01:24:52Z</time>
      </trkpt>
      <trkpt lat="42.255277" lon="2.34972">
        <ele>843</ele>
        <time>2019-08-19T01:24:53Z</time>
      </trkpt>
      <trkpt lat="42.255243" lon="2.349611">
        <ele>842.6</ele>
        <time>2019-08-19T01:24:54Z</time>
      </trkpt>
      <trkpt lat="42.255204" lon="2.349509">
        <ele>842.3</ele>
        <time>2019-08-19T01:24:55Z</time>
      </trkpt>
      <trkpt lat="42.255163" lon="2.349405">
        <ele>842</ele>
        <time>2019-08-19T01:24:56Z</time>
      </trkpt>
      <trkpt lat="42.255122" lon="2.349301">
        <ele>841.8</ele>
        <time>2019-08-19T01:24:57Z</time>
      </trkpt>
      <trkpt lat="42.255082" lon="2.349199">
        <ele>841.5</ele>
        <time>2019-08-19T01:24:58Z</time>
      </trkpt>
      <trkpt lat="42.255045" lon="2.349101">
        <ele>841.3</ele>
        <time>2019-08-19T01:24:59Z</time>
      </trkpt>
      <trkpt lat="42.255009" lon="2.348995">
        <ele>841.1</ele>
        <time>2019-08-19T01:25:00Z</time>
      </trkpt>
      <trkpt lat="42.254978" lon="2.348886">
        <ele>840.8</ele>
        <time>2019-08-19T01:25:01Z</time>
      </trkpt>
      <trkpt lat="42.254935" lon="2.34877">
        <ele>840.5</ele>
        <time>2019-08-19T01:25:02Z</time>
      </trkpt>
      <trkpt lat="42.25489" lon="2.348657">
        <ele>840.2</ele>
        <time>2019-08-19T01:25:03Z</time>
      </trkpt>
      <trkpt lat="42.254849" lon="2.348548">
        <ele>839.8</ele>
        <time>2019-08-19T01:25:04Z</time>
      </trkpt>
      <trkpt lat="42.254805" lon="2.348432">
        <ele>839.4</ele>
        <time>2019-08-19T01:25:05Z</time>
      </trkpt>
      <trkpt lat="42.254764" lon="2.348322">
        <ele>839</ele>
        <time>2019-08-19T01:25:06Z</time>
      </trkpt>
      <trkpt lat="42.254728" lon="2.348218">
        <ele>838.6</ele>
        <time>2019-08-19T01:25:07Z</time>
      </trkpt>
      <trkpt lat="42.254675" lon="2.348088">
        <ele>838.1</ele>
        <time>2019-08-19T01:25:08Z</time>
      </trkpt>
      <trkpt lat="42.254635" lon="2.347981">
        <ele>837.7</ele>
        <time>2019-08-19T01:25:09Z</time>
      </trkpt>
      <trkpt lat="42.254597" lon="2.347868">
        <ele>837.3</ele>
        <time>2019-08-19T01:25:10Z</time>
      </trkpt>
      <trkpt lat="42.254554" lon="2.347759">
        <ele>836.9</ele>
        <time>2019-08-19T01:25:11Z</time>
      </trkpt>
      <trkpt lat="42.254505" lon="2.347627">
        <ele>836.4</ele>
        <time>2019-08-19T01:25:12Z</time>
      </trkpt>
      <trkpt lat="42.254459" lon="2.347514">
        <ele>835.9</ele>
        <time>2019-08-19T01:25:13Z</time>
      </trkpt>
      <trkpt lat="42.254413" lon="2.347402">
        <ele>835.3</ele>
        <time>2019-08-19T01:25:14Z</time>
      </trkpt>
      <trkpt lat="42.254365" lon="2.34728">
        <ele>834.7</ele>
        <time>2019-08-19T01:25:15Z</time>
      </trkpt>
      <trkpt lat="42.254321" lon="2.347164">
        <ele>835.2</ele>
        <time>2019-08-19T01:25:16Z</time>
      </trkpt>
      <trkpt lat="42.254264" lon="2.347058">
        <ele>835.6</ele>
        <time>2019-08-19T01:25:17Z</time>
      </trkpt>
      <trkpt lat="42.254223" lon="2.346943">
        <ele>835.9</ele>
        <time>2019-08-19T01:25:18Z</time>
      </trkpt>
      <trkpt lat="42.25419" lon="2.346849">
        <ele>836.1</ele>
        <time>2019-08-19T01:25:19Z</time>
      </trkpt>
      <trkpt lat="42.254168" lon="2.346759">
        <ele>836.3</ele>
        <time>2019-08-19T01:25:20Z</time>
      </trkpt>
      <trkpt lat="42.254135" lon="2.346656">
        <ele>836.5</ele>
        <time>2019-08-19T01:25:21Z</time>
      </trkpt>
      <trkpt lat="42.254101" lon="2.346555">
        <ele>836.7</ele>
        <time>2019-08-19T01:25:22Z</time>
      </trkpt>
      <trkpt lat="42.254032" lon="2.346444">
        <ele>837.1</ele>
        <time>2019-08-19T01:25:23Z</time>
      </trkpt>
      <trkpt lat="42.253991" lon="2.346343">
        <ele>837.6</ele>
        <time>2019-08-19T01:25:24Z</time>
      </trkpt>
      <trkpt lat="42.253941" lon="2.346248">
        <ele>838.2</ele>
        <time>2019-08-19T01:25:25Z</time>
      </trkpt>
      <trkpt lat="42.253911" lon="2.346152">
        <ele>838.7</ele>
        <time>2019-08-19T01:25:26Z</time>
      </trkpt>
      <trkpt lat="42.253873" lon="2.346057">
        <ele>839.2</ele>
        <time>2019-08-19T01:25:27Z</time>
      </trkpt>
      <trkpt lat="42.253831" lon="2.345961">
        <ele>839.7</ele>
        <time>2019-08-19T01:25:28Z</time>
      </trkpt>
      <trkpt lat="42.253781" lon="2.345865">
        <ele>840.2</ele>
        <time>2019-08-19T01:25:29Z</time>
      </trkpt>
      <trkpt lat="42.253743" lon="2.34577">
        <ele>840.5</ele>
        <time>2019-08-19T01:25:30Z</time>
      </trkpt>
      <trkpt lat="42.253708" lon="2.345672">
        <ele>840.7</ele>
        <time>2019-08-19T01:25:31Z</time>
      </trkpt>
      <trkpt lat="42.253681" lon="2.34557">
        <ele>840.6</ele>
        <time>2019-08-19T01:25:32Z</time>
      </trkpt>
      <trkpt lat="42.253659" lon="2.345466">
        <ele>840.5</ele>
        <time>2019-08-19T01:25:33Z</time>
      </trkpt>
      <trkpt lat="42.253638" lon="2.345361">
        <ele>840.4</ele>
        <time>2019-08-19T01:25:34Z</time>
      </trkpt>
      <trkpt lat="42.253628" lon="2.34526">
        <ele>840.3</ele>
        <time>2019-08-19T01:25:35Z</time>
      </trkpt>
      <trkpt lat="42.253616" lon="2.345154">
        <ele>840.2</ele>
        <time>2019-08-19T01:25:36Z</time>
      </trkpt>
      <trkpt lat="42.253623" lon="2.345052">
        <ele>840</ele>
        <time>2019-08-19T01:25:37Z</time>
      </trkpt>
      <trkpt lat="42.253621" lon="2.344947">
        <ele>839.9</ele>
        <time>2019-08-19T01:25:38Z</time>
      </trkpt>
      <trkpt lat="42.253611" lon="2.344846">
        <ele>839.8</ele>
        <time>2019-08-19T01:25:39Z</time>
      </trkpt>
      <trkpt lat="42.253613" lon="2.344744">
        <ele>839.6</ele>
        <time>2019-08-19T01:25:40Z</time>
      </trkpt>
      <trkpt lat="42.253632" lon="2.344667">
        <ele>839.5</ele>
        <time>2019-08-19T01:25:41Z</time>
      </trkpt>
      <trkpt lat="42.253638" lon="2.34457">
        <ele>839.4</ele>
        <time>2019-08-19T01:25:42Z</time>
      </trkpt>
      <trkpt lat="42.253637" lon="2.344473">
        <ele>839.2</ele>
        <time>2019-08-19T01:25:43Z</time>
      </trkpt>
      <trkpt lat="42.253637" lon="2.344376">
        <ele>839.1</ele>
        <time>2019-08-19T01:25:44Z</time>
      </trkpt>
      <trkpt lat="42.253632" lon="2.344284">
        <ele>838.9</ele>
        <time>2019-08-19T01:25:45Z</time>
      </trkpt>
      <trkpt lat="42.25363" lon="2.344192">
        <ele>838.8</ele>
        <time>2019-08-19T01:25:46Z</time>
      </trkpt>
      <trkpt lat="42.253606" lon="2.344072">
        <ele>838.6</ele>
        <time>2019-08-19T01:25:47Z</time>
      </trkpt>
      <trkpt lat="42.253606" lon="2.343973">
        <ele>838.4</ele>
        <time>2019-08-19T01:25:48Z</time>
      </trkpt>
      <trkpt lat="42.253605" lon="2.343864">
        <ele>838.2</ele>
        <time>2019-08-19T01:25:49Z</time>
      </trkpt>
      <trkpt lat="42.253614" lon="2.343781">
        <ele>838.1</ele>
        <time>2019-08-19T01:25:50Z</time>
      </trkpt>
      <trkpt lat="42.253609" lon="2.343686">
        <ele>837.9</ele>
        <time>2019-08-19T01:25:51Z</time>
      </trkpt>
      <trkpt lat="42.253618" lon="2.343606">
        <ele>837.8</ele>
        <time>2019-08-19T01:25:52Z</time>
      </trkpt>
      <trkpt lat="42.25363" lon="2.343512">
        <ele>837.6</ele>
        <time>2019-08-19T01:25:53Z</time>
      </trkpt>
      <trkpt lat="42.253626" lon="2.343408">
        <ele>837.4</ele>
        <time>2019-08-19T01:25:54Z</time>
      </trkpt>
      <trkpt lat="42.253628" lon="2.343319">
        <ele>837.3</ele>
        <time>2019-08-19T01:25:55Z</time>
      </trkpt>
      <trkpt lat="42.253635" lon="2.34322">
        <ele>837.1</ele>
        <time>2019-08-19T01:25:56Z</time>
      </trkpt>
      <trkpt lat="42.253632" lon="2.343121">
        <ele>837</ele>
        <time>2019-08-19T01:25:57Z</time>
      </trkpt>
      <trkpt lat="42.253623" lon="2.342986">
        <ele>836.8</ele>
        <time>2019-08-19T01:25:58Z</time>
      </trkpt>
      <trkpt lat="42.253618" lon="2.342894">
        <ele>836.7</ele>
        <time>2019-08-19T01:25:59Z</time>
      </trkpt>
      <trkpt lat="42.253623" lon="2.342803">
        <ele>836.6</ele>
        <time>2019-08-19T01:26:00Z</time>
      </trkpt>
      <trkpt lat="42.25362" lon="2.342705">
        <ele>836.5</ele>
        <time>2019-08-19T01:26:01Z</time>
      </trkpt>
      <trkpt lat="42.253614" lon="2.34261">
        <ele>836.3</ele>
        <time>2019-08-19T01:26:02Z</time>
      </trkpt>
      <trkpt lat="42.253573" lon="2.342507">
        <ele>836.2</ele>
        <time>2019-08-19T01:26:03Z</time>
      </trkpt>
      <trkpt lat="42.253569" lon="2.342394">
        <ele>836.1</ele>
        <time>2019-08-19T01:26:04Z</time>
      </trkpt>
      <trkpt lat="42.253576" lon="2.342301">
        <ele>836</ele>
        <time>2019-08-19T01:26:05Z</time>
      </trkpt>
      <trkpt lat="42.253576" lon="2.342204">
        <ele>836</ele>
        <time>2019-08-19T01:26:06Z</time>
      </trkpt>
      <trkpt lat="42.253574" lon="2.342097">
        <ele>836.1</ele>
        <time>2019-08-19T01:26:07Z</time>
      </trkpt>
      <trkpt lat="42.253578" lon="2.342001">
        <ele>836.3</ele>
        <time>2019-08-19T01:26:08Z</time>
      </trkpt>
      <trkpt lat="42.253578" lon="2.341904">
        <ele>836.5</ele>
        <time>2019-08-19T01:26:09Z</time>
      </trkpt>
      <trkpt lat="42.253585" lon="2.341819">
        <ele>836.7</ele>
        <time>2019-08-19T01:26:10Z</time>
      </trkpt>
      <trkpt lat="42.253597" lon="2.341738">
        <ele>836.9</ele>
        <time>2019-08-19T01:26:11Z</time>
      </trkpt>
      <trkpt lat="42.253591" lon="2.341646">
        <ele>837.1</ele>
        <time>2019-08-19T01:26:12Z</time>
      </trkpt>
      <trkpt lat="42.253581" lon="2.341558">
        <ele>837.3</ele>
        <time>2019-08-19T01:26:13Z</time>
      </trkpt>
      <trkpt lat="42.253571" lon="2.341465">
        <ele>837.5</ele>
        <time>2019-08-19T01:26:14Z</time>
      </trkpt>
      <trkpt lat="42.25356" lon="2.341382">
        <ele>837.7</ele>
        <time>2019-08-19T01:26:15Z</time>
      </trkpt>
      <trkpt lat="42.253533" lon="2.341304">
        <ele>837.7</ele>
        <time>2019-08-19T01:26:16Z</time>
      </trkpt>
      <trkpt lat="42.253541" lon="2.341214">
        <ele>837.6</ele>
        <time>2019-08-19T01:26:17Z</time>
      </trkpt>
      <trkpt lat="42.253536" lon="2.341116">
        <ele>837.5</ele>
        <time>2019-08-19T01:26:18Z</time>
      </trkpt>
      <trkpt lat="42.25352" lon="2.341032">
        <ele>837.4</ele>
        <time>2019-08-19T01:26:19Z</time>
      </trkpt>
      <trkpt lat="42.253504" lon="2.340942">
        <ele>837.3</ele>
        <time>2019-08-19T01:26:20Z</time>
      </trkpt>
      <trkpt lat="42.253486" lon="2.340846">
        <ele>837</ele>
        <time>2019-08-19T01:26:21Z</time>
      </trkpt>
      <trkpt lat="42.253466" lon="2.340756">
        <ele>836.7</ele>
        <time>2019-08-19T01:26:22Z</time>
      </trkpt>
      <trkpt lat="42.253455" lon="2.340655">
        <ele>836.3</ele>
        <time>2019-08-19T01:26:23Z</time>
      </trkpt>
      <trkpt lat="42.253443" lon="2.340545">
        <ele>836</ele>
        <time>2019-08-19T01:26:24Z</time>
      </trkpt>
      <trkpt lat="42.253424" lon="2.340441">
        <ele>835.7</ele>
        <time>2019-08-19T01:26:25Z</time>
      </trkpt>
      <trkpt lat="42.253407" lon="2.34034">
        <ele>835.6</ele>
        <time>2019-08-19T01:26:26Z</time>
      </trkpt>
      <trkpt lat="42.25339" lon="2.34023">
        <ele>835.5</ele>
        <time>2019-08-19T01:26:27Z</time>
      </trkpt>
      <trkpt lat="42.253373" lon="2.340124">
        <ele>835.4</ele>
        <time>2019-08-19T01:26:28Z</time>
      </trkpt>
      <trkpt lat="42.253357" lon="2.340011">
        <ele>835.3</ele>
        <time>2019-08-19T01:26:29Z</time>
      </trkpt>
      <trkpt lat="42.253337" lon="2.339907">
        <ele>835.2</ele>
        <time>2019-08-19T01:26:30Z</time>
      </trkpt>
      <trkpt lat="42.253317" lon="2.339799">
        <ele>835.1</ele>
        <time>2019-08-19T01:26:31Z</time>
      </trkpt>
      <trkpt lat="42.253298" lon="2.339691">
        <ele>834.8</ele>
        <time>2019-08-19T01:26:32Z</time>
      </trkpt>
      <trkpt lat="42.253273" lon="2.339584">
        <ele>834.5</ele>
        <time>2019-08-19T01:26:33Z</time>
      </trkpt>
      <trkpt lat="42.253245" lon="2.339473">
        <ele>834.1</ele>
        <time>2019-08-19T01:26:34Z</time>
      </trkpt>
      <trkpt lat="42.253219" lon="2.339384">
        <ele>833.7</ele>
        <time>2019-08-19T01:26:35Z</time>
      </trkpt>
      <trkpt lat="42.253192" lon="2.339285">
        <ele>833.5</ele>
        <time>2019-08-19T01:26:36Z</time>
      </trkpt>
      <trkpt lat="42.253165" lon="2.339185">
        <ele>833.3</ele>
        <time>2019-08-19T01:26:37Z</time>
      </trkpt>
      <trkpt lat="42.253134" lon="2.339088">
        <ele>833.2</ele>
        <time>2019-08-19T01:26:38Z</time>
      </trkpt>
      <trkpt lat="42.253092" lon="2.33899">
        <ele>833.1</ele>
        <time>2019-08-19T01:26:39Z</time>
      </trkpt>
      <trkpt lat="42.253034" lon="2.338892">
        <ele>833</ele>
        <time>2019-08-19T01:26:40Z</time>
      </trkpt>
      <trkpt lat="42.252999" lon="2.338795">
        <ele>833</ele>
        <time>2019-08-19T01:26:41Z</time>
      </trkpt>
      <trkpt lat="42.252957" lon="2.338699">
        <ele>832.8</ele>
        <time>2019-08-19T01:26:42Z</time>
      </trkpt>
      <trkpt lat="42.252874" lon="2.338591">
        <ele>832.5</ele>
        <time>2019-08-19T01:26:43Z</time>
      </trkpt>
      <trkpt lat="42.252828" lon="2.338494">
        <ele>832.1</ele>
        <time>2019-08-19T01:26:44Z</time>
      </trkpt>
      <trkpt lat="42.252783" lon="2.338396">
        <ele>831.9</ele>
        <time>2019-08-19T01:26:45Z</time>
      </trkpt>
      <trkpt lat="42.252742" lon="2.338302">
        <ele>831.9</ele>
        <time>2019-08-19T01:26:46Z</time>
      </trkpt>
      <trkpt lat="42.252699" lon="2.338206">
        <ele>831.9</ele>
        <time>2019-08-19T01:26:47Z</time>
      </trkpt>
      <trkpt lat="42.252653" lon="2.33811">
        <ele>831.9</ele>
        <time>2019-08-19T01:26:48Z</time>
      </trkpt>
      <trkpt lat="42.252607" lon="2.338005">
        <ele>831.9</ele>
        <time>2019-08-19T01:26:49Z</time>
      </trkpt>
      <trkpt lat="42.252558" lon="2.337905">
        <ele>831.8</ele>
        <time>2019-08-19T01:26:50Z</time>
      </trkpt>
      <trkpt lat="42.252506" lon="2.337797">
        <ele>831.8</ele>
        <time>2019-08-19T01:26:51Z</time>
      </trkpt>
      <trkpt lat="42.252455" lon="2.337685">
        <ele>831.8</ele>
        <time>2019-08-19T01:26:52Z</time>
      </trkpt>
      <trkpt lat="42.252406" lon="2.337575">
        <ele>831.8</ele>
        <time>2019-08-19T01:26:53Z</time>
      </trkpt>
      <trkpt lat="42.252363" lon="2.33747">
        <ele>831.8</ele>
        <time>2019-08-19T01:26:54Z</time>
      </trkpt>
      <trkpt lat="42.252307" lon="2.337351">
        <ele>831.8</ele>
        <time>2019-08-19T01:26:55Z</time>
      </trkpt>
      <trkpt lat="42.252251" lon="2.337246">
        <ele>831.8</ele>
        <time>2019-08-19T01:26:56Z</time>
      </trkpt>
      <trkpt lat="42.252189" lon="2.337117">
        <ele>831.8</ele>
        <time>2019-08-19T01:26:57Z</time>
      </trkpt>
      <trkpt lat="42.252142" lon="2.337015">
        <ele>831.7</ele>
        <time>2019-08-19T01:26:58Z</time>
      </trkpt>
      <trkpt lat="42.252087" lon="2.336897">
        <ele>831.7</ele>
        <time>2019-08-19T01:26:59Z</time>
      </trkpt>
      <trkpt lat="42.252032" lon="2.336782">
        <ele>831.7</ele>
        <time>2019-08-19T01:27:00Z</time>
      </trkpt>
      <trkpt lat="42.251975" lon="2.336656">
        <ele>831.7</ele>
        <time>2019-08-19T01:27:01Z</time>
      </trkpt>
      <trkpt lat="42.251917" lon="2.336545">
        <ele>831.7</ele>
        <time>2019-08-19T01:27:02Z</time>
      </trkpt>
      <trkpt lat="42.251873" lon="2.336434">
        <ele>831.6</ele>
        <time>2019-08-19T01:27:03Z</time>
      </trkpt>
      <trkpt lat="42.251822" lon="2.336328">
        <ele>831.6</ele>
        <time>2019-08-19T01:27:04Z</time>
      </trkpt>
      <trkpt lat="42.251777" lon="2.336222">
        <ele>831.5</ele>
        <time>2019-08-19T01:27:05Z</time>
      </trkpt>
      <trkpt lat="42.251733" lon="2.336118">
        <ele>831.4</ele>
        <time>2019-08-19T01:27:06Z</time>
      </trkpt>
      <trkpt lat="42.251685" lon="2.336013">
        <ele>831.4</ele>
        <time>2019-08-19T01:27:07Z</time>
      </trkpt>
      <trkpt lat="42.251635" lon="2.335912">
        <ele>831.3</ele>
        <time>2019-08-19T01:27:08Z</time>
      </trkpt>
      <trkpt lat="42.251586" lon="2.335809">
        <ele>831.2</ele>
        <time>2019-08-19T01:27:09Z</time>
      </trkpt>
      <trkpt lat="42.251544" lon="2.335707">
        <ele>831.1</ele>
        <time>2019-08-19T01:27:10Z</time>
      </trkpt>
      <trkpt lat="42.251495" lon="2.335602">
        <ele>831</ele>
        <time>2019-08-19T01:27:11Z</time>
      </trkpt>
      <trkpt lat="42.251447" lon="2.335488">
        <ele>830.8</ele>
        <time>2019-08-19T01:27:12Z</time>
      </trkpt>
      <trkpt lat="42.251402" lon="2.335385">
        <ele>830.7</ele>
        <time>2019-08-19T01:27:13Z</time>
      </trkpt>
      <trkpt lat="42.251365" lon="2.33528">
        <ele>830.6</ele>
        <time>2019-08-19T01:27:14Z</time>
      </trkpt>
      <trkpt lat="42.251315" lon="2.335168">
        <ele>830.5</ele>
        <time>2019-08-19T01:27:15Z</time>
      </trkpt>
      <trkpt lat="42.251262" lon="2.335064">
        <ele>830.3</ele>
        <time>2019-08-19T01:27:16Z</time>
      </trkpt>
      <trkpt lat="42.251206" lon="2.334964">
        <ele>830.2</ele>
        <time>2019-08-19T01:27:17Z</time>
      </trkpt>
      <trkpt lat="42.251171" lon="2.334854">
        <ele>830.1</ele>
        <time>2019-08-19T01:27:18Z</time>
      </trkpt>
      <trkpt lat="42.25112" lon="2.33475">
        <ele>829.9</ele>
        <time>2019-08-19T01:27:19Z</time>
      </trkpt>
      <trkpt lat="42.251072" lon="2.334645">
        <ele>829.8</ele>
        <time>2019-08-19T01:27:20Z</time>
      </trkpt>
      <trkpt lat="42.251028" lon="2.334539">
        <ele>829.7</ele>
        <time>2019-08-19T01:27:21Z</time>
      </trkpt>
      <trkpt lat="42.250971" lon="2.334425">
        <ele>829.5</ele>
        <time>2019-08-19T01:27:22Z</time>
      </trkpt>
      <trkpt lat="42.250923" lon="2.334324">
        <ele>829.3</ele>
        <time>2019-08-19T01:27:23Z</time>
      </trkpt>
      <trkpt lat="42.250874" lon="2.334212">
        <ele>829.1</ele>
        <time>2019-08-19T01:27:24Z</time>
      </trkpt>
      <trkpt lat="42.250828" lon="2.334111">
        <ele>829</ele>
        <time>2019-08-19T01:27:25Z</time>
      </trkpt>
      <trkpt lat="42.250789" lon="2.334004">
        <ele>828.8</ele>
        <time>2019-08-19T01:27:26Z</time>
      </trkpt>
      <trkpt lat="42.250744" lon="2.333906">
        <ele>828.6</ele>
        <time>2019-08-19T01:27:27Z</time>
      </trkpt>
      <trkpt lat="42.250706" lon="2.333807">
        <ele>828.4</ele>
        <time>2019-08-19T01:27:28Z</time>
      </trkpt>
      <trkpt lat="42.250658" lon="2.333706">
        <ele>828.1</ele>
        <time>2019-08-19T01:27:29Z</time>
      </trkpt>
      <trkpt lat="42.250618" lon="2.333607">
        <ele>827.9</ele>
        <time>2019-08-19T01:27:30Z</time>
      </trkpt>
      <trkpt lat="42.250568" lon="2.333506">
        <ele>827.6</ele>
        <time>2019-08-19T01:27:31Z</time>
      </trkpt>
      <trkpt lat="42.25052" lon="2.33341">
        <ele>827.3</ele>
        <time>2019-08-19T01:27:32Z</time>
      </trkpt>
      <trkpt lat="42.250477" lon="2.333314">
        <ele>827.1</ele>
        <time>2019-08-19T01:27:33Z</time>
      </trkpt>
      <trkpt lat="42.250434" lon="2.333219">
        <ele>826.8</ele>
        <time>2019-08-19T01:27:34Z</time>
      </trkpt>
      <trkpt lat="42.250395" lon="2.333117">
        <ele>826.5</ele>
        <time>2019-08-19T01:27:35Z</time>
      </trkpt>
      <trkpt lat="42.250359" lon="2.33302">
        <ele>826.2</ele>
        <time>2019-08-19T01:27:36Z</time>
      </trkpt>
      <trkpt lat="42.250316" lon="2.332925">
        <ele>825.9</ele>
        <time>2019-08-19T01:27:37Z</time>
      </trkpt>
      <trkpt lat="42.250281" lon="2.332832">
        <ele>825.6</ele>
        <time>2019-08-19T01:27:38Z</time>
      </trkpt>
      <trkpt lat="42.250224" lon="2.332719">
        <ele>825.2</ele>
        <time>2019-08-19T01:27:39Z</time>
      </trkpt>
      <trkpt lat="42.250185" lon="2.33264">
        <ele>824.9</ele>
        <time>2019-08-19T01:27:40Z</time>
      </trkpt>
      <trkpt lat="42.25013" lon="2.332539">
        <ele>824.6</ele>
        <time>2019-08-19T01:27:41Z</time>
      </trkpt>
      <trkpt lat="42.250081" lon="2.332464">
        <ele>824.3</ele>
        <time>2019-08-19T01:27:42Z</time>
      </trkpt>
      <trkpt lat="42.250037" lon="2.33239">
        <ele>824.2</ele>
        <time>2019-08-19T01:27:43Z</time>
      </trkpt>
      <trkpt lat="42.249983" lon="2.332315">
        <ele>824.2</ele>
        <time>2019-08-19T01:27:44Z</time>
      </trkpt>
      <trkpt lat="42.24993" lon="2.332249">
        <ele>824.1</ele>
        <time>2019-08-19T01:27:45Z</time>
      </trkpt>
      <trkpt lat="42.249877" lon="2.332184">
        <ele>824</ele>
        <time>2019-08-19T01:27:46Z</time>
      </trkpt>
      <trkpt lat="42.249827" lon="2.332115">
        <ele>823.8</ele>
        <time>2019-08-19T01:27:47Z</time>
      </trkpt>
      <trkpt lat="42.249764" lon="2.332042">
        <ele>823.7</ele>
        <time>2019-08-19T01:27:48Z</time>
      </trkpt>
      <trkpt lat="42.249709" lon="2.331976">
        <ele>823.4</ele>
        <time>2019-08-19T01:27:49Z</time>
      </trkpt>
      <trkpt lat="42.249654" lon="2.331907">
        <ele>823.2</ele>
        <time>2019-08-19T01:27:50Z</time>
      </trkpt>
      <trkpt lat="42.249605" lon="2.331848">
        <ele>823</ele>
        <time>2019-08-19T01:27:51Z</time>
      </trkpt>
      <trkpt lat="42.249553" lon="2.331785">
        <ele>822.8</ele>
        <time>2019-08-19T01:27:52Z</time>
      </trkpt>
      <trkpt lat="42.24949" lon="2.331729">
        <ele>822.5</ele>
        <time>2019-08-19T01:27:53Z</time>
      </trkpt>
      <trkpt lat="42.249435" lon="2.33166">
        <ele>822.3</ele>
        <time>2019-08-19T01:27:54Z</time>
      </trkpt>
      <trkpt lat="42.249332" lon="2.33159">
        <ele>822</ele>
        <time>2019-08-19T01:27:55Z</time>
      </trkpt>
      <trkpt lat="42.249268" lon="2.331524">
        <ele>821.9</ele>
        <time>2019-08-19T01:27:56Z</time>
      </trkpt>
      <trkpt lat="42.249218" lon="2.33144">
        <ele>821.7</ele>
        <time>2019-08-19T01:27:57Z</time>
      </trkpt>
      <trkpt lat="42.24915" lon="2.331353">
        <ele>821.4</ele>
        <time>2019-08-19T01:27:58Z</time>
      </trkpt>
      <trkpt lat="42.249079" lon="2.331287">
        <ele>821.2</ele>
        <time>2019-08-19T01:27:59Z</time>
      </trkpt>
      <trkpt lat="42.249025" lon="2.331248">
        <ele>821.1</ele>
        <time>2019-08-19T01:28:00Z</time>
      </trkpt>
      <trkpt lat="42.24897" lon="2.331178">
        <ele>820.9</ele>
        <time>2019-08-19T01:28:01Z</time>
      </trkpt>
      <trkpt lat="42.248902" lon="2.331109">
        <ele>820.7</ele>
        <time>2019-08-19T01:28:02Z</time>
      </trkpt>
      <trkpt lat="42.248821" lon="2.331025">
        <ele>820.5</ele>
        <time>2019-08-19T01:28:03Z</time>
      </trkpt>
      <trkpt lat="42.248755" lon="2.330958">
        <ele>820.4</ele>
        <time>2019-08-19T01:28:04Z</time>
      </trkpt>
      <trkpt lat="42.248701" lon="2.330891">
        <ele>820.3</ele>
        <time>2019-08-19T01:28:05Z</time>
      </trkpt>
      <trkpt lat="42.248649" lon="2.330813">
        <ele>820.1</ele>
        <time>2019-08-19T01:28:06Z</time>
      </trkpt>
      <trkpt lat="42.248622" lon="2.330731">
        <ele>820</ele>
        <time>2019-08-19T01:28:07Z</time>
      </trkpt>
      <trkpt lat="42.24858" lon="2.330646">
        <ele>819.9</ele>
        <time>2019-08-19T01:28:08Z</time>
      </trkpt>
      <trkpt lat="42.248569" lon="2.330548">
        <ele>819.8</ele>
        <time>2019-08-19T01:28:09Z</time>
      </trkpt>
      <trkpt lat="42.248535" lon="2.33046">
        <ele>819.8</ele>
        <time>2019-08-19T01:28:10Z</time>
      </trkpt>
      <trkpt lat="42.248504" lon="2.33036">
        <ele>819.7</ele>
        <time>2019-08-19T01:28:11Z</time>
      </trkpt>
      <trkpt lat="42.248478" lon="2.33026">
        <ele>819.7</ele>
        <time>2019-08-19T01:28:12Z</time>
      </trkpt>
      <trkpt lat="42.248453" lon="2.330161">
        <ele>819.7</ele>
        <time>2019-08-19T01:28:13Z</time>
      </trkpt>
      <trkpt lat="42.248433" lon="2.330074">
        <ele>819.7</ele>
        <time>2019-08-19T01:28:14Z</time>
      </trkpt>
      <trkpt lat="42.2484" lon="2.329972">
        <ele>819.7</ele>
        <time>2019-08-19T01:28:15Z</time>
      </trkpt>
      <trkpt lat="42.248369" lon="2.329879">
        <ele>819.7</ele>
        <time>2019-08-19T01:28:16Z</time>
      </trkpt>
      <trkpt lat="42.248334" lon="2.32978">
        <ele>819.7</ele>
        <time>2019-08-19T01:28:17Z</time>
      </trkpt>
      <trkpt lat="42.248298" lon="2.329688">
        <ele>819.7</ele>
        <time>2019-08-19T01:28:18Z</time>
      </trkpt>
      <trkpt lat="42.248257" lon="2.329593">
        <ele>819.7</ele>
        <time>2019-08-19T01:28:19Z</time>
      </trkpt>
      <trkpt lat="42.248206" lon="2.329485">
        <ele>819.8</ele>
        <time>2019-08-19T01:28:20Z</time>
      </trkpt>
      <trkpt lat="42.248155" lon="2.329398">
        <ele>820.1</ele>
        <time>2019-08-19T01:28:21Z</time>
      </trkpt>
      <trkpt lat="42.248112" lon="2.329313">
        <ele>820.1</ele>
        <time>2019-08-19T01:28:22Z</time>
      </trkpt>
      <trkpt lat="42.248059" lon="2.329237">
        <ele>820.1</ele>
        <time>2019-08-19T01:28:23Z</time>
      </trkpt>
      <trkpt lat="42.248021" lon="2.329181">
        <ele>820.1</ele>
        <time>2019-08-19T01:28:24Z</time>
      </trkpt>
      <trkpt lat="42.247977" lon="2.329131">
        <ele>819.9</ele>
        <time>2019-08-19T01:28:25Z</time>
      </trkpt>
      <trkpt lat="42.247926" lon="2.329057">
        <ele>819.8</ele>
        <time>2019-08-19T01:28:26Z</time>
      </trkpt>
      <trkpt lat="42.247876" lon="2.328993">
        <ele>819.8</ele>
        <time>2019-08-19T01:28:27Z</time>
      </trkpt>
      <trkpt lat="42.247817" lon="2.328922">
        <ele>819.8</ele>
        <time>2019-08-19T01:28:28Z</time>
      </trkpt>
      <trkpt lat="42.247767" lon="2.328838">
        <ele>819.7</ele>
        <time>2019-08-19T01:28:29Z</time>
      </trkpt>
      <trkpt lat="42.247705" lon="2.328764">
        <ele>819.8</ele>
        <time>2019-08-19T01:28:30Z</time>
      </trkpt>
      <trkpt lat="42.247644" lon="2.328709">
        <ele>819.7</ele>
        <time>2019-08-19T01:28:31Z</time>
      </trkpt>
      <trkpt lat="42.247588" lon="2.328638">
        <ele>819.5</ele>
        <time>2019-08-19T01:28:32Z</time>
      </trkpt>
      <trkpt lat="42.247522" lon="2.328566">
        <ele>819.2</ele>
        <time>2019-08-19T01:28:33Z</time>
      </trkpt>
      <trkpt lat="42.247458" lon="2.328491">
        <ele>818.9</ele>
        <time>2019-08-19T01:28:34Z</time>
      </trkpt>
      <trkpt lat="42.247402" lon="2.328426">
        <ele>818.6</ele>
        <time>2019-08-19T01:28:35Z</time>
      </trkpt>
      <trkpt lat="42.247297" lon="2.328333">
        <ele>818.3</ele>
        <time>2019-08-19T01:28:36Z</time>
      </trkpt>
      <trkpt lat="42.247245" lon="2.328264">
        <ele>818</ele>
        <time>2019-08-19T01:28:37Z</time>
      </trkpt>
      <trkpt lat="42.247199" lon="2.328201">
        <ele>817.8</ele>
        <time>2019-08-19T01:28:38Z</time>
      </trkpt>
      <trkpt lat="42.247154" lon="2.328136">
        <ele>817.6</ele>
        <time>2019-08-19T01:28:39Z</time>
      </trkpt>
      <trkpt lat="42.247104" lon="2.328072">
        <ele>817.4</ele>
        <time>2019-08-19T01:28:40Z</time>
      </trkpt>
      <trkpt lat="42.247059" lon="2.328014">
        <ele>817.2</ele>
        <time>2019-08-19T01:28:41Z</time>
      </trkpt>
      <trkpt lat="42.247" lon="2.32796">
        <ele>817</ele>
        <time>2019-08-19T01:28:42Z</time>
      </trkpt>
      <trkpt lat="42.246944" lon="2.327895">
        <ele>816.8</ele>
        <time>2019-08-19T01:28:43Z</time>
      </trkpt>
      <trkpt lat="42.246897" lon="2.327827">
        <ele>816.6</ele>
        <time>2019-08-19T01:28:44Z</time>
      </trkpt>
      <trkpt lat="42.246861" lon="2.327751">
        <ele>816.4</ele>
        <time>2019-08-19T01:28:45Z</time>
      </trkpt>
      <trkpt lat="42.246818" lon="2.327678">
        <ele>816.2</ele>
        <time>2019-08-19T01:28:46Z</time>
      </trkpt>
      <trkpt lat="42.246828" lon="2.32759">
        <ele>816.1</ele>
        <time>2019-08-19T01:28:47Z</time>
      </trkpt>
      <trkpt lat="42.246797" lon="2.327513">
        <ele>815.9</ele>
        <time>2019-08-19T01:28:48Z</time>
      </trkpt>
      <trkpt lat="42.24678" lon="2.327425">
        <ele>815.9</ele>
        <time>2019-08-19T01:28:49Z</time>
      </trkpt>
      <trkpt lat="42.246755" lon="2.32734">
        <ele>815.9</ele>
        <time>2019-08-19T01:28:50Z</time>
      </trkpt>
      <trkpt lat="42.246709" lon="2.32728">
        <ele>815.9</ele>
        <time>2019-08-19T01:28:51Z</time>
      </trkpt>
      <trkpt lat="42.24668" lon="2.327197">
        <ele>815.9</ele>
        <time>2019-08-19T01:28:52Z</time>
      </trkpt>
      <trkpt lat="42.246649" lon="2.327126">
        <ele>816</ele>
        <time>2019-08-19T01:28:53Z</time>
      </trkpt>
      <trkpt lat="42.246632" lon="2.327043">
        <ele>816</ele>
        <time>2019-08-19T01:28:54Z</time>
      </trkpt>
      <trkpt lat="42.246612" lon="2.326954">
        <ele>816</ele>
        <time>2019-08-19T01:28:55Z</time>
      </trkpt>
      <trkpt lat="42.246594" lon="2.326878">
        <ele>815.9</ele>
        <time>2019-08-19T01:28:56Z</time>
      </trkpt>
      <trkpt lat="42.246581" lon="2.326796">
        <ele>815.9</ele>
        <time>2019-08-19T01:28:57Z</time>
      </trkpt>
      <trkpt lat="42.246605" lon="2.326701">
        <ele>815.8</ele>
        <time>2019-08-19T01:28:58Z</time>
      </trkpt>
      <trkpt lat="42.246632" lon="2.326626">
        <ele>815.9</ele>
        <time>2019-08-19T01:28:59Z</time>
      </trkpt>
      <trkpt lat="42.24665" lon="2.326551">
        <ele>816</ele>
        <time>2019-08-19T01:29:00Z</time>
      </trkpt>
      <trkpt lat="42.246664" lon="2.326473">
        <ele>816.1</ele>
        <time>2019-08-19T01:29:01Z</time>
      </trkpt>
      <trkpt lat="42.246663" lon="2.326367">
        <ele>816.3</ele>
        <time>2019-08-19T01:29:02Z</time>
      </trkpt>
      <trkpt lat="42.246638" lon="2.326268">
        <ele>816.4</ele>
        <time>2019-08-19T01:29:03Z</time>
      </trkpt>
      <trkpt lat="42.246604" lon="2.326195">
        <ele>816.5</ele>
        <time>2019-08-19T01:29:04Z</time>
      </trkpt>
      <trkpt lat="42.246554" lon="2.326127">
        <ele>816.7</ele>
        <time>2019-08-19T01:29:05Z</time>
      </trkpt>
      <trkpt lat="42.246499" lon="2.326086">
        <ele>816.8</ele>
        <time>2019-08-19T01:29:06Z</time>
      </trkpt>
      <trkpt lat="42.246435" lon="2.326045">
        <ele>816.9</ele>
        <time>2019-08-19T01:29:07Z</time>
      </trkpt>
      <trkpt lat="42.246374" lon="2.325997">
        <ele>817.7</ele>
        <time>2019-08-19T01:29:08Z</time>
      </trkpt>
      <trkpt lat="42.246324" lon="2.325939">
        <ele>818.1</ele>
        <time>2019-08-19T01:29:09Z</time>
      </trkpt>
      <trkpt lat="42.246284" lon="2.325874">
        <ele>818.5</ele>
        <time>2019-08-19T01:29:10Z</time>
      </trkpt>
      <trkpt lat="42.246251" lon="2.325801">
        <ele>818.9</ele>
        <time>2019-08-19T01:29:11Z</time>
      </trkpt>
      <trkpt lat="42.246215" lon="2.325725">
        <ele>819.2</ele>
        <time>2019-08-19T01:29:12Z</time>
      </trkpt>
      <trkpt lat="42.246191" lon="2.32564">
        <ele>819.2</ele>
        <time>2019-08-19T01:29:13Z</time>
      </trkpt>
      <trkpt lat="42.246163" lon="2.325558">
        <ele>819.2</ele>
        <time>2019-08-19T01:29:14Z</time>
      </trkpt>
      <trkpt lat="42.246139" lon="2.325472">
        <ele>819.1</ele>
        <time>2019-08-19T01:29:15Z</time>
      </trkpt>
      <trkpt lat="42.246114" lon="2.325388">
        <ele>819.1</ele>
        <time>2019-08-19T01:29:16Z</time>
      </trkpt>
      <trkpt lat="42.246088" lon="2.325306">
        <ele>819.1</ele>
        <time>2019-08-19T01:29:17Z</time>
      </trkpt>
      <trkpt lat="42.246058" lon="2.325224">
        <ele>819.1</ele>
        <time>2019-08-19T01:29:18Z</time>
      </trkpt>
      <trkpt lat="42.246032" lon="2.325142">
        <ele>819.1</ele>
        <time>2019-08-19T01:29:19Z</time>
      </trkpt>
      <trkpt lat="42.246007" lon="2.325066">
        <ele>819.1</ele>
        <time>2019-08-19T01:29:20Z</time>
      </trkpt>
      <trkpt lat="42.245985" lon="2.32498">
        <ele>819</ele>
        <time>2019-08-19T01:29:21Z</time>
      </trkpt>
      <trkpt lat="42.245964" lon="2.324897">
        <ele>819</ele>
        <time>2019-08-19T01:29:22Z</time>
      </trkpt>
      <trkpt lat="42.245934" lon="2.324791">
        <ele>819</ele>
        <time>2019-08-19T01:29:23Z</time>
      </trkpt>
      <trkpt lat="42.245909" lon="2.324703">
        <ele>819</ele>
        <time>2019-08-19T01:29:24Z</time>
      </trkpt>
      <trkpt lat="42.245866" lon="2.324579">
        <ele>819</ele>
        <time>2019-08-19T01:29:25Z</time>
      </trkpt>
      <trkpt lat="42.245853" lon="2.324496">
        <ele>818.9</ele>
        <time>2019-08-19T01:29:26Z</time>
      </trkpt>
      <trkpt lat="42.245822" lon="2.32437">
        <ele>818.9</ele>
        <time>2019-08-19T01:29:27Z</time>
      </trkpt>
      <trkpt lat="42.245798" lon="2.324294">
        <ele>818.9</ele>
        <time>2019-08-19T01:29:28Z</time>
      </trkpt>
      <trkpt lat="42.245771" lon="2.324219">
        <ele>818.9</ele>
        <time>2019-08-19T01:29:29Z</time>
      </trkpt>
      <trkpt lat="42.245744" lon="2.324144">
        <ele>818.9</ele>
        <time>2019-08-19T01:29:30Z</time>
      </trkpt>
      <trkpt lat="42.245714" lon="2.324059">
        <ele>818.9</ele>
        <time>2019-08-19T01:29:31Z</time>
      </trkpt>
      <trkpt lat="42.245684" lon="2.323979">
        <ele>818.9</ele>
        <time>2019-08-19T01:29:32Z</time>
      </trkpt>
      <trkpt lat="42.245664" lon="2.323903">
        <ele>818.9</ele>
        <time>2019-08-19T01:29:33Z</time>
      </trkpt>
      <trkpt lat="42.245646" lon="2.323823">
        <ele>818.8</ele>
        <time>2019-08-19T01:29:34Z</time>
      </trkpt>
      <trkpt lat="42.245627" lon="2.323744">
        <ele>818.8</ele>
        <time>2019-08-19T01:29:35Z</time>
      </trkpt>
      <trkpt lat="42.245603" lon="2.323661">
        <ele>818.8</ele>
        <time>2019-08-19T01:29:36Z</time>
      </trkpt>
      <trkpt lat="42.245592" lon="2.323558">
        <ele>818.8</ele>
        <time>2019-08-19T01:29:37Z</time>
      </trkpt>
      <trkpt lat="42.245563" lon="2.323488">
        <ele>818.7</ele>
        <time>2019-08-19T01:29:38Z</time>
      </trkpt>
      <trkpt lat="42.24553" lon="2.323418">
        <ele>818.7</ele>
        <time>2019-08-19T01:29:39Z</time>
      </trkpt>
      <trkpt lat="42.245505" lon="2.323345">
        <ele>818.7</ele>
        <time>2019-08-19T01:29:40Z</time>
      </trkpt>
      <trkpt lat="42.245487" lon="2.323267">
        <ele>818.7</ele>
        <time>2019-08-19T01:29:41Z</time>
      </trkpt>
      <trkpt lat="42.245461" lon="2.323188">
        <ele>818.7</ele>
        <time>2019-08-19T01:29:42Z</time>
      </trkpt>
      <trkpt lat="42.245442" lon="2.323094">
        <ele>818.6</ele>
        <time>2019-08-19T01:29:43Z</time>
      </trkpt>
      <trkpt lat="42.245421" lon="2.323003">
        <ele>818.6</ele>
        <time>2019-08-19T01:29:44Z</time>
      </trkpt>
      <trkpt lat="42.245387" lon="2.322904">
        <ele>818.6</ele>
        <time>2019-08-19T01:29:45Z</time>
      </trkpt>
      <trkpt lat="42.24538" lon="2.322809">
        <ele>818.5</ele>
        <time>2019-08-19T01:29:46Z</time>
      </trkpt>
      <trkpt lat="42.245368" lon="2.322694">
        <ele>818.5</ele>
        <time>2019-08-19T01:29:47Z</time>
      </trkpt>
      <trkpt lat="42.245346" lon="2.322622">
        <ele>818.5</ele>
        <time>2019-08-19T01:29:48Z</time>
      </trkpt>
      <trkpt lat="42.245335" lon="2.322515">
        <ele>818.5</ele>
        <time>2019-08-19T01:29:49Z</time>
      </trkpt>
      <trkpt lat="42.245322" lon="2.322435">
        <ele>818.5</ele>
        <time>2019-08-19T01:29:50Z</time>
      </trkpt>
      <trkpt lat="42.245315" lon="2.322353">
        <ele>818.5</ele>
        <time>2019-08-19T01:29:51Z</time>
      </trkpt>
      <trkpt lat="42.24531" lon="2.322267">
        <ele>818.5</ele>
        <time>2019-08-19T01:29:52Z</time>
      </trkpt>
      <trkpt lat="42.245314" lon="2.322178">
        <ele>818.5</ele>
        <time>2019-08-19T01:29:53Z</time>
      </trkpt>
      <trkpt lat="42.245328" lon="2.322093">
        <ele>818.5</ele>
        <time>2019-08-19T01:29:54Z</time>
      </trkpt>
      <trkpt lat="42.245339" lon="2.322017">
        <ele>818.5</ele>
        <time>2019-08-19T01:29:55Z</time>
      </trkpt>
      <trkpt lat="42.245352" lon="2.321936">
        <ele>818.5</ele>
        <time>2019-08-19T01:29:56Z</time>
      </trkpt>
      <trkpt lat="42.245356" lon="2.321851">
        <ele>818.5</ele>
        <time>2019-08-19T01:29:57Z</time>
      </trkpt>
      <trkpt lat="42.245366" lon="2.321772">
        <ele>818.5</ele>
        <time>2019-08-19T01:29:58Z</time>
      </trkpt>
      <trkpt lat="42.245386" lon="2.321701">
        <ele>818.5</ele>
        <time>2019-08-19T01:29:59Z</time>
      </trkpt>
      <trkpt lat="42.245415" lon="2.321598">
        <ele>818.5</ele>
        <time>2019-08-19T01:30:00Z</time>
      </trkpt>
      <trkpt lat="42.245433" lon="2.321519">
        <ele>818.5</ele>
        <time>2019-08-19T01:30:01Z</time>
      </trkpt>
      <trkpt lat="42.245453" lon="2.321437">
        <ele>818.5</ele>
        <time>2019-08-19T01:30:02Z</time>
      </trkpt>
      <trkpt lat="42.245471" lon="2.321358">
        <ele>818.5</ele>
        <time>2019-08-19T01:30:03Z</time>
      </trkpt>
      <trkpt lat="42.245485" lon="2.321288">
        <ele>818.5</ele>
        <time>2019-08-19T01:30:04Z</time>
      </trkpt>
      <trkpt lat="42.245505" lon="2.321212">
        <ele>818.5</ele>
        <time>2019-08-19T01:30:05Z</time>
      </trkpt>
      <trkpt lat="42.245519" lon="2.321137">
        <ele>818.5</ele>
        <time>2019-08-19T01:30:06Z</time>
      </trkpt>
      <trkpt lat="42.245554" lon="2.321046">
        <ele>818.5</ele>
        <time>2019-08-19T01:30:07Z</time>
      </trkpt>
      <trkpt lat="42.24558" lon="2.320963">
        <ele>818.5</ele>
        <time>2019-08-19T01:30:08Z</time>
      </trkpt>
      <trkpt lat="42.245607" lon="2.320873">
        <ele>818.5</ele>
        <time>2019-08-19T01:30:09Z</time>
      </trkpt>
      <trkpt lat="42.245632" lon="2.320776">
        <ele>818.5</ele>
        <time>2019-08-19T01:30:10Z</time>
      </trkpt>
      <trkpt lat="42.245657" lon="2.320694">
        <ele>818.5</ele>
        <time>2019-08-19T01:30:11Z</time>
      </trkpt>
      <trkpt lat="42.245681" lon="2.320605">
        <ele>818.4</ele>
        <time>2019-08-19T01:30:12Z</time>
      </trkpt>
      <trkpt lat="42.245703" lon="2.320521">
        <ele>818.4</ele>
        <time>2019-08-19T01:30:13Z</time>
      </trkpt>
      <trkpt lat="42.245725" lon="2.320438">
        <ele>818.3</ele>
        <time>2019-08-19T01:30:14Z</time>
      </trkpt>
      <trkpt lat="42.24575" lon="2.320354">
        <ele>818.1</ele>
        <time>2019-08-19T01:30:15Z</time>
      </trkpt>
      <trkpt lat="42.245763" lon="2.320282">
        <ele>817.9</ele>
        <time>2019-08-19T01:30:16Z</time>
      </trkpt>
      <trkpt lat="42.245794" lon="2.320203">
        <ele>817.7</ele>
        <time>2019-08-19T01:30:17Z</time>
      </trkpt>
      <trkpt lat="42.245818" lon="2.320124">
        <ele>817.4</ele>
        <time>2019-08-19T01:30:18Z</time>
      </trkpt>
      <trkpt lat="42.245835" lon="2.32004">
        <ele>817.2</ele>
        <time>2019-08-19T01:30:19Z</time>
      </trkpt>
      <trkpt lat="42.245856" lon="2.319949">
        <ele>816.9</ele>
        <time>2019-08-19T01:30:20Z</time>
      </trkpt>
      <trkpt lat="42.245872" lon="2.319858">
        <ele>816.7</ele>
        <time>2019-08-19T01:30:21Z</time>
      </trkpt>
      <trkpt lat="42.245886" lon="2.319768">
        <ele>816.4</ele>
        <time>2019-08-19T01:30:22Z</time>
      </trkpt>
      <trkpt lat="42.2459" lon="2.319698">
        <ele>816.3</ele>
        <time>2019-08-19T01:30:23Z</time>
      </trkpt>
      <trkpt lat="42.245906" lon="2.31961">
        <ele>816.1</ele>
        <time>2019-08-19T01:30:24Z</time>
      </trkpt>
      <trkpt lat="42.245906" lon="2.319528">
        <ele>815.9</ele>
        <time>2019-08-19T01:30:25Z</time>
      </trkpt>
      <trkpt lat="42.245914" lon="2.31944">
        <ele>815.8</ele>
        <time>2019-08-19T01:30:26Z</time>
      </trkpt>
      <trkpt lat="42.245909" lon="2.319343">
        <ele>815.7</ele>
        <time>2019-08-19T01:30:27Z</time>
      </trkpt>
      <trkpt lat="42.245909" lon="2.319242">
        <ele>815.6</ele>
        <time>2019-08-19T01:30:28Z</time>
      </trkpt>
      <trkpt lat="42.24591" lon="2.319135">
        <ele>815.5</ele>
        <time>2019-08-19T01:30:29Z</time>
      </trkpt>
      <trkpt lat="42.245904" lon="2.319036">
        <ele>815.5</ele>
        <time>2019-08-19T01:30:30Z</time>
      </trkpt>
      <trkpt lat="42.245893" lon="2.318928">
        <ele>815.5</ele>
        <time>2019-08-19T01:30:31Z</time>
      </trkpt>
      <trkpt lat="42.245881" lon="2.31883">
        <ele>815.5</ele>
        <time>2019-08-19T01:30:32Z</time>
      </trkpt>
      <trkpt lat="42.245865" lon="2.318691">
        <ele>815.4</ele>
        <time>2019-08-19T01:30:33Z</time>
      </trkpt>
      <trkpt lat="42.245841" lon="2.318571">
        <ele>815.3</ele>
        <time>2019-08-19T01:30:34Z</time>
      </trkpt>
      <trkpt lat="42.245812" lon="2.318481">
        <ele>815.1</ele>
        <time>2019-08-19T01:30:35Z</time>
      </trkpt>
      <trkpt lat="42.245789" lon="2.318348">
        <ele>814.7</ele>
        <time>2019-08-19T01:30:36Z</time>
      </trkpt>
      <trkpt lat="42.245772" lon="2.31824">
        <ele>814.2</ele>
        <time>2019-08-19T01:30:37Z</time>
      </trkpt>
      <trkpt lat="42.245752" lon="2.318145">
        <ele>813.6</ele>
        <time>2019-08-19T01:30:38Z</time>
      </trkpt>
      <trkpt lat="42.24571" lon="2.31802">
        <ele>812.8</ele>
        <time>2019-08-19T01:30:39Z</time>
      </trkpt>
      <trkpt lat="42.245679" lon="2.317915">
        <ele>812.1</ele>
        <time>2019-08-19T01:30:40Z</time>
      </trkpt>
      <trkpt lat="42.245648" lon="2.317809">
        <ele>811.6</ele>
        <time>2019-08-19T01:30:41Z</time>
      </trkpt>
      <trkpt lat="42.245619" lon="2.317702">
        <ele>811.2</ele>
        <time>2019-08-19T01:30:42Z</time>
      </trkpt>
      <trkpt lat="42.245581" lon="2.317604">
        <ele>810.9</ele>
        <time>2019-08-19T01:30:43Z</time>
      </trkpt>
      <trkpt lat="42.24555" lon="2.317499">
        <ele>810.5</ele>
        <time>2019-08-19T01:30:44Z</time>
      </trkpt>
      <trkpt lat="42.245524" lon="2.317382">
        <ele>810.1</ele>
        <time>2019-08-19T01:30:45Z</time>
      </trkpt>
      <trkpt lat="42.245501" lon="2.317269">
        <ele>809.7</ele>
        <time>2019-08-19T01:30:46Z</time>
      </trkpt>
      <trkpt lat="42.245474" lon="2.317162">
        <ele>809.3</ele>
        <time>2019-08-19T01:30:47Z</time>
      </trkpt>
      <trkpt lat="42.24545" lon="2.317055">
        <ele>809</ele>
        <time>2019-08-19T01:30:48Z</time>
      </trkpt>
      <trkpt lat="42.245394" lon="2.316956">
        <ele>808.6</ele>
        <time>2019-08-19T01:30:49Z</time>
      </trkpt>
      <trkpt lat="42.245363" lon="2.316813">
        <ele>808.2</ele>
        <time>2019-08-19T01:30:50Z</time>
      </trkpt>
      <trkpt lat="42.245319" lon="2.316694">
        <ele>807.9</ele>
        <time>2019-08-19T01:30:51Z</time>
      </trkpt>
      <trkpt lat="42.245287" lon="2.316577">
        <ele>807.6</ele>
        <time>2019-08-19T01:30:52Z</time>
      </trkpt>
      <trkpt lat="42.245257" lon="2.316456">
        <ele>807.4</ele>
        <time>2019-08-19T01:30:53Z</time>
      </trkpt>
      <trkpt lat="42.245223" lon="2.316365">
        <ele>807.2</ele>
        <time>2019-08-19T01:30:54Z</time>
      </trkpt>
      <trkpt lat="42.245193" lon="2.316256">
        <ele>807</ele>
        <time>2019-08-19T01:30:55Z</time>
      </trkpt>
      <trkpt lat="42.245166" lon="2.316153">
        <ele>806.7</ele>
        <time>2019-08-19T01:30:56Z</time>
      </trkpt>
      <trkpt lat="42.245135" lon="2.316054">
        <ele>806.5</ele>
        <time>2019-08-19T01:30:57Z</time>
      </trkpt>
      <trkpt lat="42.245103" lon="2.315967">
        <ele>806.3</ele>
        <time>2019-08-19T01:30:58Z</time>
      </trkpt>
      <trkpt lat="42.245071" lon="2.315868">
        <ele>806.1</ele>
        <time>2019-08-19T01:30:59Z</time>
      </trkpt>
      <trkpt lat="42.245047" lon="2.315776">
        <ele>805.9</ele>
        <time>2019-08-19T01:31:00Z</time>
      </trkpt>
      <trkpt lat="42.245012" lon="2.315665">
        <ele>805.6</ele>
        <time>2019-08-19T01:31:01Z</time>
      </trkpt>
      <trkpt lat="42.244973" lon="2.315571">
        <ele>805.3</ele>
        <time>2019-08-19T01:31:02Z</time>
      </trkpt>
      <trkpt lat="42.24496" lon="2.315474">
        <ele>805</ele>
        <time>2019-08-19T01:31:03Z</time>
      </trkpt>
      <trkpt lat="42.244941" lon="2.315374">
        <ele>804.7</ele>
        <time>2019-08-19T01:31:04Z</time>
      </trkpt>
      <trkpt lat="42.244898" lon="2.315262">
        <ele>804.5</ele>
        <time>2019-08-19T01:31:05Z</time>
      </trkpt>
      <trkpt lat="42.24485" lon="2.31516">
        <ele>804.2</ele>
        <time>2019-08-19T01:31:06Z</time>
      </trkpt>
      <trkpt lat="42.244823" lon="2.31505">
        <ele>804</ele>
        <time>2019-08-19T01:31:07Z</time>
      </trkpt>
      <trkpt lat="42.244793" lon="2.314925">
        <ele>803.7</ele>
        <time>2019-08-19T01:31:08Z</time>
      </trkpt>
      <trkpt lat="42.244765" lon="2.314833">
        <ele>803.6</ele>
        <time>2019-08-19T01:31:09Z</time>
      </trkpt>
      <trkpt lat="42.244717" lon="2.314732">
        <ele>803.5</ele>
        <time>2019-08-19T01:31:10Z</time>
      </trkpt>
      <trkpt lat="42.244689" lon="2.314631">
        <ele>803.4</ele>
        <time>2019-08-19T01:31:11Z</time>
      </trkpt>
      <trkpt lat="42.244664" lon="2.314536">
        <ele>803.1</ele>
        <time>2019-08-19T01:31:12Z</time>
      </trkpt>
      <trkpt lat="42.244638" lon="2.314452">
        <ele>802.9</ele>
        <time>2019-08-19T01:31:13Z</time>
      </trkpt>
      <trkpt lat="42.244609" lon="2.314355">
        <ele>802.6</ele>
        <time>2019-08-19T01:31:14Z</time>
      </trkpt>
      <trkpt lat="42.244581" lon="2.31426">
        <ele>802.3</ele>
        <time>2019-08-19T01:31:15Z</time>
      </trkpt>
      <trkpt lat="42.244544" lon="2.314164">
        <ele>802.1</ele>
        <time>2019-08-19T01:31:16Z</time>
      </trkpt>
      <trkpt lat="42.244511" lon="2.314073">
        <ele>802</ele>
        <time>2019-08-19T01:31:17Z</time>
      </trkpt>
      <trkpt lat="42.24448" lon="2.313978">
        <ele>801.8</ele>
        <time>2019-08-19T01:31:18Z</time>
      </trkpt>
      <trkpt lat="42.24445" lon="2.31389">
        <ele>801.8</ele>
        <time>2019-08-19T01:31:19Z</time>
      </trkpt>
      <trkpt lat="42.24442" lon="2.313797">
        <ele>801.7</ele>
        <time>2019-08-19T01:31:20Z</time>
      </trkpt>
      <trkpt lat="42.24439" lon="2.31371">
        <ele>801.6</ele>
        <time>2019-08-19T01:31:21Z</time>
      </trkpt>
      <trkpt lat="42.24436" lon="2.31362">
        <ele>801.5</ele>
        <time>2019-08-19T01:31:22Z</time>
      </trkpt>
      <trkpt lat="42.244337" lon="2.313527">
        <ele>801.4</ele>
        <time>2019-08-19T01:31:23Z</time>
      </trkpt>
      <trkpt lat="42.244311" lon="2.313438">
        <ele>801.3</ele>
        <time>2019-08-19T01:31:24Z</time>
      </trkpt>
      <trkpt lat="42.24429" lon="2.31336">
        <ele>801.2</ele>
        <time>2019-08-19T01:31:25Z</time>
      </trkpt>
      <trkpt lat="42.244264" lon="2.313269">
        <ele>801</ele>
        <time>2019-08-19T01:31:26Z</time>
      </trkpt>
      <trkpt lat="42.244236" lon="2.313182">
        <ele>801</ele>
        <time>2019-08-19T01:31:27Z</time>
      </trkpt>
      <trkpt lat="42.244209" lon="2.313104">
        <ele>801</ele>
        <time>2019-08-19T01:31:28Z</time>
      </trkpt>
      <trkpt lat="42.244181" lon="2.313018">
        <ele>801</ele>
        <time>2019-08-19T01:31:29Z</time>
      </trkpt>
      <trkpt lat="42.244154" lon="2.312927">
        <ele>801</ele>
        <time>2019-08-19T01:31:30Z</time>
      </trkpt>
      <trkpt lat="42.244114" lon="2.312804">
        <ele>801</ele>
        <time>2019-08-19T01:31:31Z</time>
      </trkpt>
      <trkpt lat="42.244089" lon="2.312715">
        <ele>801</ele>
        <time>2019-08-19T01:31:32Z</time>
      </trkpt>
      <trkpt lat="42.244066" lon="2.312625">
        <ele>800.9</ele>
        <time>2019-08-19T01:31:33Z</time>
      </trkpt>
      <trkpt lat="42.244043" lon="2.312537">
        <ele>800.8</ele>
        <time>2019-08-19T01:31:34Z</time>
      </trkpt>
      <trkpt lat="42.244012" lon="2.312452">
        <ele>800.7</ele>
        <time>2019-08-19T01:31:35Z</time>
      </trkpt>
      <trkpt lat="42.24399" lon="2.312372">
        <ele>800.7</ele>
        <time>2019-08-19T01:31:36Z</time>
      </trkpt>
      <trkpt lat="42.243965" lon="2.312281">
        <ele>800.6</ele>
        <time>2019-08-19T01:31:37Z</time>
      </trkpt>
      <trkpt lat="42.243937" lon="2.312192">
        <ele>800.4</ele>
        <time>2019-08-19T01:31:38Z</time>
      </trkpt>
      <trkpt lat="42.243914" lon="2.312105">
        <ele>800.4</ele>
        <time>2019-08-19T01:31:39Z</time>
      </trkpt>
      <trkpt lat="42.243888" lon="2.312015">
        <ele>800.3</ele>
        <time>2019-08-19T01:31:40Z</time>
      </trkpt>
      <trkpt lat="42.243863" lon="2.311928">
        <ele>800.2</ele>
        <time>2019-08-19T01:31:41Z</time>
      </trkpt>
      <trkpt lat="42.243834" lon="2.311843">
        <ele>800.1</ele>
        <time>2019-08-19T01:31:42Z</time>
      </trkpt>
      <trkpt lat="42.243805" lon="2.311758">
        <ele>800</ele>
        <time>2019-08-19T01:31:43Z</time>
      </trkpt>
      <trkpt lat="42.243778" lon="2.311675">
        <ele>800</ele>
        <time>2019-08-19T01:31:44Z</time>
      </trkpt>
      <trkpt lat="42.243753" lon="2.311597">
        <ele>799.9</ele>
        <time>2019-08-19T01:31:45Z</time>
      </trkpt>
      <trkpt lat="42.243715" lon="2.31151">
        <ele>799.8</ele>
        <time>2019-08-19T01:31:46Z</time>
      </trkpt>
      <trkpt lat="42.243691" lon="2.311423">
        <ele>799.8</ele>
        <time>2019-08-19T01:31:47Z</time>
      </trkpt>
      <trkpt lat="42.243669" lon="2.311337">
        <ele>799.7</ele>
        <time>2019-08-19T01:31:48Z</time>
      </trkpt>
      <trkpt lat="42.243645" lon="2.311258">
        <ele>799.6</ele>
        <time>2019-08-19T01:31:49Z</time>
      </trkpt>
      <trkpt lat="42.243622" lon="2.311178">
        <ele>799.6</ele>
        <time>2019-08-19T01:31:50Z</time>
      </trkpt>
      <trkpt lat="42.243595" lon="2.311099">
        <ele>799.5</ele>
        <time>2019-08-19T01:31:51Z</time>
      </trkpt>
      <trkpt lat="42.243575" lon="2.311026">
        <ele>799.5</ele>
        <time>2019-08-19T01:31:52Z</time>
      </trkpt>
      <trkpt lat="42.243552" lon="2.310946">
        <ele>799.4</ele>
        <time>2019-08-19T01:31:53Z</time>
      </trkpt>
      <trkpt lat="42.243531" lon="2.310869">
        <ele>799.4</ele>
        <time>2019-08-19T01:31:54Z</time>
      </trkpt>
      <trkpt lat="42.243499" lon="2.310799">
        <ele>799.3</ele>
        <time>2019-08-19T01:31:55Z</time>
      </trkpt>
      <trkpt lat="42.243475" lon="2.310724">
        <ele>799.2</ele>
        <time>2019-08-19T01:31:56Z</time>
      </trkpt>
      <trkpt lat="42.243456" lon="2.310643">
        <ele>799.1</ele>
        <time>2019-08-19T01:31:57Z</time>
      </trkpt>
      <trkpt lat="42.243417" lon="2.310561">
        <ele>799</ele>
        <time>2019-08-19T01:31:58Z</time>
      </trkpt>
      <trkpt lat="42.243393" lon="2.310479">
        <ele>798.8</ele>
        <time>2019-08-19T01:31:59Z</time>
      </trkpt>
      <trkpt lat="42.243366" lon="2.310395">
        <ele>798.6</ele>
        <time>2019-08-19T01:32:00Z</time>
      </trkpt>
      <trkpt lat="42.243351" lon="2.310347">
        <ele>798.5</ele>
        <time>2019-08-19T01:32:01Z</time>
      </trkpt>
      <trkpt lat="42.243331" lon="2.310258">
        <ele>798.2</ele>
        <time>2019-08-19T01:32:02Z</time>
      </trkpt>
      <trkpt lat="42.243305" lon="2.31017">
        <ele>798</ele>
        <time>2019-08-19T01:32:03Z</time>
      </trkpt>
      <trkpt lat="42.243281" lon="2.310085">
        <ele>797.8</ele>
        <time>2019-08-19T01:32:04Z</time>
      </trkpt>
      <trkpt lat="42.243242" lon="2.309982">
        <ele>797.6</ele>
        <time>2019-08-19T01:32:05Z</time>
      </trkpt>
      <trkpt lat="42.243211" lon="2.309894">
        <ele>797.5</ele>
        <time>2019-08-19T01:32:06Z</time>
      </trkpt>
      <trkpt lat="42.243161" lon="2.309748">
        <ele>797.3</ele>
        <time>2019-08-19T01:32:07Z</time>
      </trkpt>
      <trkpt lat="42.243133" lon="2.309657">
        <ele>797.1</ele>
        <time>2019-08-19T01:32:08Z</time>
      </trkpt>
      <trkpt lat="42.243083" lon="2.309544">
        <ele>796.9</ele>
        <time>2019-08-19T01:32:09Z</time>
      </trkpt>
      <trkpt lat="42.243059" lon="2.309462">
        <ele>796.6</ele>
        <time>2019-08-19T01:32:10Z</time>
      </trkpt>
      <trkpt lat="42.243032" lon="2.30936">
        <ele>796.2</ele>
        <time>2019-08-19T01:32:11Z</time>
      </trkpt>
      <trkpt lat="42.243007" lon="2.309262">
        <ele>795.8</ele>
        <time>2019-08-19T01:32:12Z</time>
      </trkpt>
      <trkpt lat="42.242984" lon="2.309174">
        <ele>795.3</ele>
        <time>2019-08-19T01:32:13Z</time>
      </trkpt>
      <trkpt lat="42.242959" lon="2.309076">
        <ele>794.8</ele>
        <time>2019-08-19T01:32:14Z</time>
      </trkpt>
      <trkpt lat="42.242918" lon="2.308968">
        <ele>794.9</ele>
        <time>2019-08-19T01:32:15Z</time>
      </trkpt>
      <trkpt lat="42.242889" lon="2.308872">
        <ele>795.3</ele>
        <time>2019-08-19T01:32:16Z</time>
      </trkpt>
      <trkpt lat="42.242861" lon="2.308771">
        <ele>795.5</ele>
        <time>2019-08-19T01:32:17Z</time>
      </trkpt>
      <trkpt lat="42.242833" lon="2.308677">
        <ele>795.7</ele>
        <time>2019-08-19T01:32:18Z</time>
      </trkpt>
      <trkpt lat="42.242802" lon="2.308583">
        <ele>795.9</ele>
        <time>2019-08-19T01:32:19Z</time>
      </trkpt>
      <trkpt lat="42.24276" lon="2.308491">
        <ele>796</ele>
        <time>2019-08-19T01:32:20Z</time>
      </trkpt>
      <trkpt lat="42.242734" lon="2.308398">
        <ele>796.1</ele>
        <time>2019-08-19T01:32:21Z</time>
      </trkpt>
      <trkpt lat="42.242705" lon="2.308305">
        <ele>796.1</ele>
        <time>2019-08-19T01:32:22Z</time>
      </trkpt>
      <trkpt lat="42.242674" lon="2.308201">
        <ele>796.1</ele>
        <time>2019-08-19T01:32:23Z</time>
      </trkpt>
      <trkpt lat="42.242642" lon="2.30811">
        <ele>796.1</ele>
        <time>2019-08-19T01:32:24Z</time>
      </trkpt>
      <trkpt lat="42.242626" lon="2.308025">
        <ele>796</ele>
        <time>2019-08-19T01:32:25Z</time>
      </trkpt>
      <trkpt lat="42.242587" lon="2.307923">
        <ele>795.9</ele>
        <time>2019-08-19T01:32:26Z</time>
      </trkpt>
      <trkpt lat="42.242562" lon="2.307827">
        <ele>795.9</ele>
        <time>2019-08-19T01:32:27Z</time>
      </trkpt>
      <trkpt lat="42.242533" lon="2.307734">
        <ele>795.8</ele>
        <time>2019-08-19T01:32:28Z</time>
      </trkpt>
      <trkpt lat="42.242502" lon="2.307632">
        <ele>795.5</ele>
        <time>2019-08-19T01:32:29Z</time>
      </trkpt>
      <trkpt lat="42.242467" lon="2.307533">
        <ele>795</ele>
        <time>2019-08-19T01:32:30Z</time>
      </trkpt>
      <trkpt lat="42.242432" lon="2.307438">
        <ele>794.5</ele>
        <time>2019-08-19T01:32:31Z</time>
      </trkpt>
      <trkpt lat="42.242394" lon="2.307344">
        <ele>794.1</ele>
        <time>2019-08-19T01:32:32Z</time>
      </trkpt>
      <trkpt lat="42.242359" lon="2.307245">
        <ele>793.8</ele>
        <time>2019-08-19T01:32:33Z</time>
      </trkpt>
      <trkpt lat="42.242323" lon="2.307143">
        <ele>793.4</ele>
        <time>2019-08-19T01:32:34Z</time>
      </trkpt>
      <trkpt lat="42.242301" lon="2.307047">
        <ele>793</ele>
        <time>2019-08-19T01:32:35Z</time>
      </trkpt>
      <trkpt lat="42.242268" lon="2.306914">
        <ele>792.6</ele>
        <time>2019-08-19T01:32:36Z</time>
      </trkpt>
      <trkpt lat="42.242233" lon="2.306818">
        <ele>792.4</ele>
        <time>2019-08-19T01:32:37Z</time>
      </trkpt>
      <trkpt lat="42.242228" lon="2.306736">
        <ele>792.3</ele>
        <time>2019-08-19T01:32:38Z</time>
      </trkpt>
      <trkpt lat="42.242207" lon="2.306646">
        <ele>792.1</ele>
        <time>2019-08-19T01:32:39Z</time>
      </trkpt>
      <trkpt lat="42.24218" lon="2.306557">
        <ele>792</ele>
        <time>2019-08-19T01:32:40Z</time>
      </trkpt>
      <trkpt lat="42.242146" lon="2.306466">
        <ele>791.8</ele>
        <time>2019-08-19T01:32:41Z</time>
      </trkpt>
      <trkpt lat="42.24211" lon="2.306371">
        <ele>791.7</ele>
        <time>2019-08-19T01:32:42Z</time>
      </trkpt>
      <trkpt lat="42.242075" lon="2.306285">
        <ele>791.5</ele>
        <time>2019-08-19T01:32:43Z</time>
      </trkpt>
      <trkpt lat="42.242036" lon="2.306209">
        <ele>791.4</ele>
        <time>2019-08-19T01:32:44Z</time>
      </trkpt>
      <trkpt lat="42.241997" lon="2.306124">
        <ele>791.3</ele>
        <time>2019-08-19T01:32:45Z</time>
      </trkpt>
      <trkpt lat="42.241975" lon="2.306043">
        <ele>791.2</ele>
        <time>2019-08-19T01:32:46Z</time>
      </trkpt>
      <trkpt lat="42.24193" lon="2.305966">
        <ele>791.2</ele>
        <time>2019-08-19T01:32:47Z</time>
      </trkpt>
      <trkpt lat="42.241896" lon="2.305879">
        <ele>791.1</ele>
        <time>2019-08-19T01:32:48Z</time>
      </trkpt>
      <trkpt lat="42.241858" lon="2.305797">
        <ele>791.1</ele>
        <time>2019-08-19T01:32:49Z</time>
      </trkpt>
      <trkpt lat="42.241808" lon="2.305698">
        <ele>791.1</ele>
        <time>2019-08-19T01:32:50Z</time>
      </trkpt>
      <trkpt lat="42.241771" lon="2.305621">
        <ele>791.2</ele>
        <time>2019-08-19T01:32:51Z</time>
      </trkpt>
      <trkpt lat="42.241747" lon="2.305565">
        <ele>791.2</ele>
        <time>2019-08-19T01:32:52Z</time>
      </trkpt>
      <trkpt lat="42.241701" lon="2.305501">
        <ele>791.3</ele>
        <time>2019-08-19T01:32:53Z</time>
      </trkpt>
      <trkpt lat="42.241652" lon="2.305447">
        <ele>791.4</ele>
        <time>2019-08-19T01:32:54Z</time>
      </trkpt>
      <trkpt lat="42.241619" lon="2.305371">
        <ele>791.5</ele>
        <time>2019-08-19T01:32:55Z</time>
      </trkpt>
      <trkpt lat="42.241567" lon="2.305307">
        <ele>791.7</ele>
        <time>2019-08-19T01:32:56Z</time>
      </trkpt>
      <trkpt lat="42.241514" lon="2.305251">
        <ele>791.9</ele>
        <time>2019-08-19T01:32:57Z</time>
      </trkpt>
      <trkpt lat="42.241447" lon="2.305189">
        <ele>792.1</ele>
        <time>2019-08-19T01:32:58Z</time>
      </trkpt>
      <trkpt lat="42.241389" lon="2.305147">
        <ele>792.2</ele>
        <time>2019-08-19T01:32:59Z</time>
      </trkpt>
      <trkpt lat="42.241329" lon="2.305125">
        <ele>792.4</ele>
        <time>2019-08-19T01:33:00Z</time>
      </trkpt>
      <trkpt lat="42.241258" lon="2.305115">
        <ele>792.5</ele>
        <time>2019-08-19T01:33:01Z</time>
      </trkpt>
      <trkpt lat="42.241199" lon="2.305105">
        <ele>792.5</ele>
        <time>2019-08-19T01:33:02Z</time>
      </trkpt>
      <trkpt lat="42.241149" lon="2.305114">
        <ele>792.6</ele>
        <time>2019-08-19T01:33:03Z</time>
      </trkpt>
      <trkpt lat="42.24109" lon="2.305138">
        <ele>792.7</ele>
        <time>2019-08-19T01:33:04Z</time>
      </trkpt>
      <trkpt lat="42.241035" lon="2.305171">
        <ele>792.8</ele>
        <time>2019-08-19T01:33:05Z</time>
      </trkpt>
      <trkpt lat="42.240986" lon="2.305208">
        <ele>793.3</ele>
        <time>2019-08-19T01:33:06Z</time>
      </trkpt>
      <trkpt lat="42.240945" lon="2.305238">
        <ele>793.8</ele>
        <time>2019-08-19T01:33:07Z</time>
      </trkpt>
      <trkpt lat="42.240911" lon="2.30529">
        <ele>794.3</ele>
        <time>2019-08-19T01:33:08Z</time>
      </trkpt>
      <trkpt lat="42.240874" lon="2.305327">
        <ele>794.7</ele>
        <time>2019-08-19T01:33:09Z</time>
      </trkpt>
      <trkpt lat="42.240837" lon="2.305368">
        <ele>795.3</ele>
        <time>2019-08-19T01:33:10Z</time>
      </trkpt>
      <trkpt lat="42.240806" lon="2.305395">
        <ele>795.8</ele>
        <time>2019-08-19T01:33:11Z</time>
      </trkpt>
      <trkpt lat="42.240771" lon="2.305434">
        <ele>796.5</ele>
        <time>2019-08-19T01:33:12Z</time>
      </trkpt>
      <trkpt lat="42.240739" lon="2.305461">
        <ele>797.3</ele>
        <time>2019-08-19T01:33:13Z</time>
      </trkpt>
      <trkpt lat="42.240711" lon="2.305487">
        <ele>798</ele>
        <time>2019-08-19T01:33:14Z</time>
      </trkpt>
      <trkpt lat="42.240683" lon="2.305518">
        <ele>798.8</ele>
        <time>2019-08-19T01:33:15Z</time>
      </trkpt>
      <trkpt lat="42.240647" lon="2.30555">
        <ele>799.7</ele>
        <time>2019-08-19T01:33:16Z</time>
      </trkpt>
      <trkpt lat="42.240616" lon="2.305586">
        <ele>800.5</ele>
        <time>2019-08-19T01:33:17Z</time>
      </trkpt>
      <trkpt lat="42.240587" lon="2.305618">
        <ele>801.3</ele>
        <time>2019-08-19T01:33:18Z</time>
      </trkpt>
      <trkpt lat="42.240561" lon="2.305644">
        <ele>802</ele>
        <time>2019-08-19T01:33:19Z</time>
      </trkpt>
      <trkpt lat="42.240529" lon="2.305666">
        <ele>802.7</ele>
        <time>2019-08-19T01:33:20Z</time>
      </trkpt>
      <trkpt lat="42.240493" lon="2.305686">
        <ele>802.9</ele>
        <time>2019-08-19T01:33:21Z</time>
      </trkpt>
      <trkpt lat="42.240456" lon="2.305697">
        <ele>803</ele>
        <time>2019-08-19T01:33:22Z</time>
      </trkpt>
      <trkpt lat="42.240417" lon="2.305697">
        <ele>803</ele>
        <time>2019-08-19T01:33:23Z</time>
      </trkpt>
      <trkpt lat="42.240383" lon="2.305685">
        <ele>803.1</ele>
        <time>2019-08-19T01:33:24Z</time>
      </trkpt>
      <trkpt lat="42.240351" lon="2.305661">
        <ele>803.2</ele>
        <time>2019-08-19T01:33:25Z</time>
      </trkpt>
      <trkpt lat="42.240323" lon="2.305632">
        <ele>803.3</ele>
        <time>2019-08-19T01:33:26Z</time>
      </trkpt>
      <trkpt lat="42.240299" lon="2.305601">
        <ele>803.4</ele>
        <time>2019-08-19T01:33:27Z</time>
      </trkpt>
      <trkpt lat="42.240273" lon="2.305566">
        <ele>803.5</ele>
        <time>2019-08-19T01:33:28Z</time>
      </trkpt>
      <trkpt lat="42.240249" lon="2.305534">
        <ele>803.7</ele>
        <time>2019-08-19T01:33:29Z</time>
      </trkpt>
      <trkpt lat="42.240226" lon="2.305503">
        <ele>803.9</ele>
        <time>2019-08-19T01:33:30Z</time>
      </trkpt>
      <trkpt lat="42.240203" lon="2.305469">
        <ele>804.1</ele>
        <time>2019-08-19T01:33:31Z</time>
      </trkpt>
      <trkpt lat="42.240178" lon="2.305433">
        <ele>804.3</ele>
        <time>2019-08-19T01:33:32Z</time>
      </trkpt>
      <trkpt lat="42.24015" lon="2.305394">
        <ele>804.6</ele>
        <time>2019-08-19T01:33:33Z</time>
      </trkpt>
      <trkpt lat="42.240121" lon="2.305353">
        <ele>804.9</ele>
        <time>2019-08-19T01:33:34Z</time>
      </trkpt>
      <trkpt lat="42.240094" lon="2.305315">
        <ele>805.2</ele>
        <time>2019-08-19T01:33:35Z</time>
      </trkpt>
      <trkpt lat="42.240069" lon="2.30527">
        <ele>805.2</ele>
        <time>2019-08-19T01:33:36Z</time>
      </trkpt>
      <trkpt lat="42.240049" lon="2.305227">
        <ele>805.2</ele>
        <time>2019-08-19T01:33:37Z</time>
      </trkpt>
      <trkpt lat="42.240018" lon="2.305199">
        <ele>805.2</ele>
        <time>2019-08-19T01:33:38Z</time>
      </trkpt>
      <trkpt lat="42.240003" lon="2.30516">
        <ele>805.1</ele>
        <time>2019-08-19T01:33:39Z</time>
      </trkpt>
      <trkpt lat="42.239972" lon="2.305117">
        <ele>805.1</ele>
        <time>2019-08-19T01:33:40Z</time>
      </trkpt>
      <trkpt lat="42.239952" lon="2.305078">
        <ele>805.1</ele>
        <time>2019-08-19T01:33:41Z</time>
      </trkpt>
      <trkpt lat="42.239919" lon="2.305041">
        <ele>805.1</ele>
        <time>2019-08-19T01:33:42Z</time>
      </trkpt>
      <trkpt lat="42.239884" lon="2.304995">
        <ele>805.1</ele>
        <time>2019-08-19T01:33:43Z</time>
      </trkpt>
      <trkpt lat="42.239877" lon="2.304954">
        <ele>805.1</ele>
        <time>2019-08-19T01:33:44Z</time>
      </trkpt>
      <trkpt lat="42.239834" lon="2.304905">
        <ele>805</ele>
        <time>2019-08-19T01:33:46Z</time>
      </trkpt>
      <trkpt lat="42.239812" lon="2.304867">
        <ele>805</ele>
        <time>2019-08-19T01:33:47Z</time>
      </trkpt>
      <trkpt lat="42.239792" lon="2.304829">
        <ele>805</ele>
        <time>2019-08-19T01:33:48Z</time>
      </trkpt>
      <trkpt lat="42.23977" lon="2.304795">
        <ele>805</ele>
        <time>2019-08-19T01:33:49Z</time>
      </trkpt>
      <trkpt lat="42.239748" lon="2.304762">
        <ele>805</ele>
        <time>2019-08-19T01:33:50Z</time>
      </trkpt>
      <trkpt lat="42.239725" lon="2.304725">
        <ele>805</ele>
        <time>2019-08-19T01:33:51Z</time>
      </trkpt>
      <trkpt lat="42.239701" lon="2.304683">
        <ele>804.9</ele>
        <time>2019-08-19T01:33:52Z</time>
      </trkpt>
      <trkpt lat="42.239678" lon="2.304638">
        <ele>804.9</ele>
        <time>2019-08-19T01:33:53Z</time>
      </trkpt>
      <trkpt lat="42.239654" lon="2.304594">
        <ele>804.9</ele>
        <time>2019-08-19T01:33:54Z</time>
      </trkpt>
      <trkpt lat="42.239634" lon="2.304548">
        <ele>804.9</ele>
        <time>2019-08-19T01:33:55Z</time>
      </trkpt>
      <trkpt lat="42.239615" lon="2.304504">
        <ele>804.9</ele>
        <time>2019-08-19T01:33:56Z</time>
      </trkpt>
      <trkpt lat="42.239598" lon="2.304459">
        <ele>804.9</ele>
        <time>2019-08-19T01:33:57Z</time>
      </trkpt>
      <trkpt lat="42.23958" lon="2.304411">
        <ele>804.9</ele>
        <time>2019-08-19T01:33:58Z</time>
      </trkpt>
      <trkpt lat="42.239565" lon="2.304365">
        <ele>804.8</ele>
        <time>2019-08-19T01:33:59Z</time>
      </trkpt>
      <trkpt lat="42.239552" lon="2.304318">
        <ele>804.8</ele>
        <time>2019-08-19T01:34:00Z</time>
      </trkpt>
      <trkpt lat="42.23954" lon="2.304253">
        <ele>804.8</ele>
        <time>2019-08-19T01:34:01Z</time>
      </trkpt>
      <trkpt lat="42.239513" lon="2.304209">
        <ele>804.8</ele>
        <time>2019-08-19T01:34:02Z</time>
      </trkpt>
      <trkpt lat="42.239488" lon="2.304158">
        <ele>804.8</ele>
        <time>2019-08-19T01:34:03Z</time>
      </trkpt>
      <trkpt lat="42.239468" lon="2.304101">
        <ele>804.7</ele>
        <time>2019-08-19T01:34:04Z</time>
      </trkpt>
      <trkpt lat="42.239448" lon="2.304044">
        <ele>804.7</ele>
        <time>2019-08-19T01:34:05Z</time>
      </trkpt>
      <trkpt lat="42.239423" lon="2.303989">
        <ele>804.7</ele>
        <time>2019-08-19T01:34:06Z</time>
      </trkpt>
      <trkpt lat="42.239395" lon="2.303942">
        <ele>804.7</ele>
        <time>2019-08-19T01:34:07Z</time>
      </trkpt>
      <trkpt lat="42.239361" lon="2.303891">
        <ele>804.6</ele>
        <time>2019-08-19T01:34:08Z</time>
      </trkpt>
      <trkpt lat="42.239347" lon="2.30383">
        <ele>804.6</ele>
        <time>2019-08-19T01:34:09Z</time>
      </trkpt>
      <trkpt lat="42.239326" lon="2.303769">
        <ele>804.6</ele>
        <time>2019-08-19T01:34:10Z</time>
      </trkpt>
      <trkpt lat="42.2393" lon="2.303712">
        <ele>804.6</ele>
        <time>2019-08-19T01:34:11Z</time>
      </trkpt>
      <trkpt lat="42.239268" lon="2.303641">
        <ele>804.5</ele>
        <time>2019-08-19T01:34:12Z</time>
      </trkpt>
      <trkpt lat="42.23924" lon="2.303575">
        <ele>804.5</ele>
        <time>2019-08-19T01:34:13Z</time>
      </trkpt>
      <trkpt lat="42.239203" lon="2.303496">
        <ele>804.5</ele>
        <time>2019-08-19T01:34:14Z</time>
      </trkpt>
      <trkpt lat="42.239173" lon="2.303429">
        <ele>804.5</ele>
        <time>2019-08-19T01:34:15Z</time>
      </trkpt>
      <trkpt lat="42.239149" lon="2.303354">
        <ele>804.4</ele>
        <time>2019-08-19T01:34:16Z</time>
      </trkpt>
      <trkpt lat="42.239119" lon="2.303285">
        <ele>804.4</ele>
        <time>2019-08-19T01:34:17Z</time>
      </trkpt>
      <trkpt lat="42.239103" lon="2.303198">
        <ele>804.4</ele>
        <time>2019-08-19T01:34:18Z</time>
      </trkpt>
      <trkpt lat="42.23907" lon="2.303124">
        <ele>804.3</ele>
        <time>2019-08-19T01:34:19Z</time>
      </trkpt>
      <trkpt lat="42.23904" lon="2.303042">
        <ele>804.3</ele>
        <time>2019-08-19T01:34:20Z</time>
      </trkpt>
      <trkpt lat="42.239008" lon="2.302953">
        <ele>804.3</ele>
        <time>2019-08-19T01:34:21Z</time>
      </trkpt>
      <trkpt lat="42.23898" lon="2.302892">
        <ele>804.2</ele>
        <time>2019-08-19T01:34:22Z</time>
      </trkpt>
      <trkpt lat="42.238955" lon="2.302829">
        <ele>804.2</ele>
        <time>2019-08-19T01:34:23Z</time>
      </trkpt>
      <trkpt lat="42.238919" lon="2.302749">
        <ele>804.2</ele>
        <time>2019-08-19T01:34:24Z</time>
      </trkpt>
      <trkpt lat="42.238892" lon="2.302689">
        <ele>804.1</ele>
        <time>2019-08-19T01:34:25Z</time>
      </trkpt>
      <trkpt lat="42.23886" lon="2.302631">
        <ele>804.1</ele>
        <time>2019-08-19T01:34:26Z</time>
      </trkpt>
      <trkpt lat="42.238831" lon="2.302584">
        <ele>804.1</ele>
        <time>2019-08-19T01:34:27Z</time>
      </trkpt>
      <trkpt lat="42.238798" lon="2.302526">
        <ele>804</ele>
        <time>2019-08-19T01:34:28Z</time>
      </trkpt>
      <trkpt lat="42.238754" lon="2.30248">
        <ele>804</ele>
        <time>2019-08-19T01:34:29Z</time>
      </trkpt>
      <trkpt lat="42.238698" lon="2.302439">
        <ele>804</ele>
        <time>2019-08-19T01:34:30Z</time>
      </trkpt>
      <trkpt lat="42.238646" lon="2.302407">
        <ele>803.9</ele>
        <time>2019-08-19T01:34:31Z</time>
      </trkpt>
      <trkpt lat="42.238597" lon="2.302385">
        <ele>803.9</ele>
        <time>2019-08-19T01:34:32Z</time>
      </trkpt>
      <trkpt lat="42.23855" lon="2.302362">
        <ele>803.8</ele>
        <time>2019-08-19T01:34:33Z</time>
      </trkpt>
      <trkpt lat="42.238496" lon="2.302337">
        <ele>803.8</ele>
        <time>2019-08-19T01:34:34Z</time>
      </trkpt>
      <trkpt lat="42.238447" lon="2.302323">
        <ele>803.7</ele>
        <time>2019-08-19T01:34:35Z</time>
      </trkpt>
      <trkpt lat="42.238405" lon="2.3023">
        <ele>803.7</ele>
        <time>2019-08-19T01:34:36Z</time>
      </trkpt>
      <trkpt lat="42.23836" lon="2.302282">
        <ele>803.6</ele>
        <time>2019-08-19T01:34:37Z</time>
      </trkpt>
      <trkpt lat="42.238311" lon="2.302258">
        <ele>803.6</ele>
        <time>2019-08-19T01:34:38Z</time>
      </trkpt>
      <trkpt lat="42.238266" lon="2.302237">
        <ele>803.5</ele>
        <time>2019-08-19T01:34:39Z</time>
      </trkpt>
      <trkpt lat="42.238231" lon="2.302224">
        <ele>803.5</ele>
        <time>2019-08-19T01:34:40Z</time>
      </trkpt>
      <trkpt lat="42.238186" lon="2.302205">
        <ele>803.4</ele>
        <time>2019-08-19T01:34:41Z</time>
      </trkpt>
      <trkpt lat="42.238138" lon="2.302182">
        <ele>803.4</ele>
        <time>2019-08-19T01:34:42Z</time>
      </trkpt>
      <trkpt lat="42.238103" lon="2.302161">
        <ele>803.4</ele>
        <time>2019-08-19T01:34:43Z</time>
      </trkpt>
      <trkpt lat="42.238068" lon="2.302139">
        <ele>803.3</ele>
        <time>2019-08-19T01:34:44Z</time>
      </trkpt>
      <trkpt lat="42.238034" lon="2.302113">
        <ele>803.3</ele>
        <time>2019-08-19T01:34:45Z</time>
      </trkpt>
      <trkpt lat="42.237997" lon="2.302082">
        <ele>803.2</ele>
        <time>2019-08-19T01:34:46Z</time>
      </trkpt>
      <trkpt lat="42.237964" lon="2.302054">
        <ele>803.2</ele>
        <time>2019-08-19T01:34:47Z</time>
      </trkpt>
      <trkpt lat="42.237937" lon="2.302003">
        <ele>803.1</ele>
        <time>2019-08-19T01:34:48Z</time>
      </trkpt>
      <trkpt lat="42.237916" lon="2.301942">
        <ele>803</ele>
        <time>2019-08-19T01:34:49Z</time>
      </trkpt>
      <trkpt lat="42.237874" lon="2.3019">
        <ele>803</ele>
        <time>2019-08-19T01:34:50Z</time>
      </trkpt>
      <trkpt lat="42.237836" lon="2.301859">
        <ele>802.9</ele>
        <time>2019-08-19T01:34:51Z</time>
      </trkpt>
      <trkpt lat="42.237801" lon="2.301816">
        <ele>802.8</ele>
        <time>2019-08-19T01:34:52Z</time>
      </trkpt>
      <trkpt lat="42.237767" lon="2.301777">
        <ele>802.8</ele>
        <time>2019-08-19T01:34:53Z</time>
      </trkpt>
      <trkpt lat="42.237734" lon="2.30174">
        <ele>802.7</ele>
        <time>2019-08-19T01:34:54Z</time>
      </trkpt>
      <trkpt lat="42.237713" lon="2.301712">
        <ele>802.7</ele>
        <time>2019-08-19T01:34:55Z</time>
      </trkpt>
      <trkpt lat="42.237693" lon="2.301671">
        <ele>802.6</ele>
        <time>2019-08-19T01:34:56Z</time>
      </trkpt>
      <trkpt lat="42.237674" lon="2.301634">
        <ele>802.6</ele>
        <time>2019-08-19T01:34:57Z</time>
      </trkpt>
      <trkpt lat="42.237654" lon="2.301593">
        <ele>802.5</ele>
        <time>2019-08-19T01:34:58Z</time>
      </trkpt>
      <trkpt lat="42.237635" lon="2.301555">
        <ele>802.4</ele>
        <time>2019-08-19T01:34:59Z</time>
      </trkpt>
      <trkpt lat="42.237609" lon="2.301516">
        <ele>802.4</ele>
        <time>2019-08-19T01:35:00Z</time>
      </trkpt>
      <trkpt lat="42.237593" lon="2.301474">
        <ele>802.3</ele>
        <time>2019-08-19T01:35:01Z</time>
      </trkpt>
      <trkpt lat="42.237578" lon="2.301436">
        <ele>802.2</ele>
        <time>2019-08-19T01:35:02Z</time>
      </trkpt>
      <trkpt lat="42.237561" lon="2.301402">
        <ele>802.1</ele>
        <time>2019-08-19T01:35:03Z</time>
      </trkpt>
      <trkpt lat="42.237537" lon="2.301349">
        <ele>802</ele>
        <time>2019-08-19T01:35:05Z</time>
      </trkpt>
      <trkpt lat="42.237508" lon="2.301282">
        <ele>801.9</ele>
        <time>2019-08-19T01:35:07Z</time>
      </trkpt>
      <trkpt lat="42.237495" lon="2.301241">
        <ele>801.8</ele>
        <time>2019-08-19T01:35:08Z</time>
      </trkpt>
      <trkpt lat="42.237484" lon="2.301161">
        <ele>801.7</ele>
        <time>2019-08-19T01:35:09Z</time>
      </trkpt>
      <trkpt lat="42.237475" lon="2.301121">
        <ele>801.6</ele>
        <time>2019-08-19T01:35:10Z</time>
      </trkpt>
      <trkpt lat="42.237468" lon="2.301081">
        <ele>801.5</ele>
        <time>2019-08-19T01:35:11Z</time>
      </trkpt>
      <trkpt lat="42.237452" lon="2.301047">
        <ele>801.4</ele>
        <time>2019-08-19T01:35:12Z</time>
      </trkpt>
      <trkpt lat="42.237467" lon="2.301016">
        <ele>801.4</ele>
        <time>2019-08-19T01:35:13Z</time>
      </trkpt>
      <trkpt lat="42.237465" lon="2.300974">
        <ele>801.3</ele>
        <time>2019-08-19T01:35:14Z</time>
      </trkpt>
      <trkpt lat="42.237441" lon="2.300947">
        <ele>801.2</ele>
        <time>2019-08-19T01:35:15Z</time>
      </trkpt>
      <trkpt lat="42.237434" lon="2.300906">
        <ele>801.2</ele>
        <time>2019-08-19T01:35:16Z</time>
      </trkpt>
      <trkpt lat="42.23742" lon="2.300872">
        <ele>801.1</ele>
        <time>2019-08-19T01:35:17Z</time>
      </trkpt>
      <trkpt lat="42.237405" lon="2.30084">
        <ele>801</ele>
        <time>2019-08-19T01:35:18Z</time>
      </trkpt>
      <trkpt lat="42.23739" lon="2.300772">
        <ele>800.9</ele>
        <time>2019-08-19T01:35:20Z</time>
      </trkpt>
      <trkpt lat="42.23738" lon="2.300732">
        <ele>800.8</ele>
        <time>2019-08-19T01:35:21Z</time>
      </trkpt>
      <trkpt lat="42.237366" lon="2.300692">
        <ele>800.7</ele>
        <time>2019-08-19T01:35:22Z</time>
      </trkpt>
      <trkpt lat="42.237354" lon="2.300652">
        <ele>800.6</ele>
        <time>2019-08-19T01:35:23Z</time>
      </trkpt>
      <trkpt lat="42.237341" lon="2.300614">
        <ele>800.6</ele>
        <time>2019-08-19T01:35:24Z</time>
      </trkpt>
      <trkpt lat="42.237331" lon="2.300568">
        <ele>800.5</ele>
        <time>2019-08-19T01:35:25Z</time>
      </trkpt>
      <trkpt lat="42.237324" lon="2.300516">
        <ele>800.3</ele>
        <time>2019-08-19T01:35:26Z</time>
      </trkpt>
      <trkpt lat="42.237318" lon="2.300464">
        <ele>800.2</ele>
        <time>2019-08-19T01:35:27Z</time>
      </trkpt>
      <trkpt lat="42.237316" lon="2.300411">
        <ele>800.1</ele>
        <time>2019-08-19T01:35:28Z</time>
      </trkpt>
      <trkpt lat="42.237316" lon="2.300352">
        <ele>800</ele>
        <time>2019-08-19T01:35:29Z</time>
      </trkpt>
      <trkpt lat="42.237322" lon="2.300294">
        <ele>799.8</ele>
        <time>2019-08-19T01:35:30Z</time>
      </trkpt>
      <trkpt lat="42.237331" lon="2.300236">
        <ele>799.7</ele>
        <time>2019-08-19T01:35:31Z</time>
      </trkpt>
      <trkpt lat="42.237341" lon="2.300178">
        <ele>799.5</ele>
        <time>2019-08-19T01:35:32Z</time>
      </trkpt>
      <trkpt lat="42.237353" lon="2.30012">
        <ele>799.3</ele>
        <time>2019-08-19T01:35:33Z</time>
      </trkpt>
      <trkpt lat="42.237369" lon="2.300066">
        <ele>799.2</ele>
        <time>2019-08-19T01:35:34Z</time>
      </trkpt>
      <trkpt lat="42.237387" lon="2.300014">
        <ele>799.1</ele>
        <time>2019-08-19T01:35:35Z</time>
      </trkpt>
      <trkpt lat="42.237405" lon="2.299963">
        <ele>798.9</ele>
        <time>2019-08-19T01:35:36Z</time>
      </trkpt>
      <trkpt lat="42.237426" lon="2.299911">
        <ele>798.8</ele>
        <time>2019-08-19T01:35:37Z</time>
      </trkpt>
      <trkpt lat="42.237445" lon="2.299857">
        <ele>798.7</ele>
        <time>2019-08-19T01:35:38Z</time>
      </trkpt>
      <trkpt lat="42.237462" lon="2.299801">
        <ele>798.5</ele>
        <time>2019-08-19T01:35:39Z</time>
      </trkpt>
      <trkpt lat="42.237495" lon="2.299741">
        <ele>798.3</ele>
        <time>2019-08-19T01:35:40Z</time>
      </trkpt>
      <trkpt lat="42.237514" lon="2.29969">
        <ele>798.1</ele>
        <time>2019-08-19T01:35:41Z</time>
      </trkpt>
      <trkpt lat="42.237534" lon="2.299621">
        <ele>797.9</ele>
        <time>2019-08-19T01:35:42Z</time>
      </trkpt>
      <trkpt lat="42.237555" lon="2.299566">
        <ele>797.7</ele>
        <time>2019-08-19T01:35:43Z</time>
      </trkpt>
      <trkpt lat="42.237583" lon="2.299507">
        <ele>797.4</ele>
        <time>2019-08-19T01:35:44Z</time>
      </trkpt>
      <trkpt lat="42.237603" lon="2.299448">
        <ele>797.2</ele>
        <time>2019-08-19T01:35:45Z</time>
      </trkpt>
      <trkpt lat="42.237632" lon="2.299372">
        <ele>797</ele>
        <time>2019-08-19T01:35:46Z</time>
      </trkpt>
      <trkpt lat="42.23765" lon="2.299295">
        <ele>796.8</ele>
        <time>2019-08-19T01:35:47Z</time>
      </trkpt>
      <trkpt lat="42.237677" lon="2.299221">
        <ele>796.6</ele>
        <time>2019-08-19T01:35:48Z</time>
      </trkpt>
      <trkpt lat="42.237696" lon="2.299143">
        <ele>796.4</ele>
        <time>2019-08-19T01:35:49Z</time>
      </trkpt>
      <trkpt lat="42.237717" lon="2.29906">
        <ele>796.1</ele>
        <time>2019-08-19T01:35:50Z</time>
      </trkpt>
      <trkpt lat="42.237737" lon="2.298984">
        <ele>795.9</ele>
        <time>2019-08-19T01:35:51Z</time>
      </trkpt>
      <trkpt lat="42.237755" lon="2.298902">
        <ele>795.6</ele>
        <time>2019-08-19T01:35:52Z</time>
      </trkpt>
      <trkpt lat="42.237767" lon="2.298798">
        <ele>795.3</ele>
        <time>2019-08-19T01:35:53Z</time>
      </trkpt>
      <trkpt lat="42.237776" lon="2.298702">
        <ele>795.1</ele>
        <time>2019-08-19T01:35:54Z</time>
      </trkpt>
      <trkpt lat="42.237784" lon="2.298607">
        <ele>794.9</ele>
        <time>2019-08-19T01:35:55Z</time>
      </trkpt>
      <trkpt lat="42.237794" lon="2.29849">
        <ele>794.7</ele>
        <time>2019-08-19T01:35:56Z</time>
      </trkpt>
      <trkpt lat="42.237791" lon="2.298387">
        <ele>794.3</ele>
        <time>2019-08-19T01:35:57Z</time>
      </trkpt>
      <trkpt lat="42.237792" lon="2.298288">
        <ele>794</ele>
        <time>2019-08-19T01:35:58Z</time>
      </trkpt>
      <trkpt lat="42.237775" lon="2.298182">
        <ele>793.7</ele>
        <time>2019-08-19T01:35:59Z</time>
      </trkpt>
      <trkpt lat="42.237761" lon="2.29805">
        <ele>793.4</ele>
        <time>2019-08-19T01:36:00Z</time>
      </trkpt>
      <trkpt lat="42.237728" lon="2.297939">
        <ele>793</ele>
        <time>2019-08-19T01:36:01Z</time>
      </trkpt>
      <trkpt lat="42.237695" lon="2.297811">
        <ele>792.8</ele>
        <time>2019-08-19T01:36:02Z</time>
      </trkpt>
      <trkpt lat="42.237643" lon="2.297697">
        <ele>792.5</ele>
        <time>2019-08-19T01:36:03Z</time>
      </trkpt>
      <trkpt lat="42.237589" lon="2.297587">
        <ele>792.3</ele>
        <time>2019-08-19T01:36:04Z</time>
      </trkpt>
      <trkpt lat="42.237527" lon="2.297474">
        <ele>792</ele>
        <time>2019-08-19T01:36:05Z</time>
      </trkpt>
      <trkpt lat="42.237448" lon="2.297365">
        <ele>791.7</ele>
        <time>2019-08-19T01:36:06Z</time>
      </trkpt>
      <trkpt lat="42.237378" lon="2.297258">
        <ele>791.5</ele>
        <time>2019-08-19T01:36:07Z</time>
      </trkpt>
      <trkpt lat="42.237306" lon="2.297151">
        <ele>791.2</ele>
        <time>2019-08-19T01:36:08Z</time>
      </trkpt>
      <trkpt lat="42.237234" lon="2.297043">
        <ele>790.9</ele>
        <time>2019-08-19T01:36:09Z</time>
      </trkpt>
      <trkpt lat="42.237158" lon="2.296921">
        <ele>790.5</ele>
        <time>2019-08-19T01:36:10Z</time>
      </trkpt>
      <trkpt lat="42.237102" lon="2.296789">
        <ele>790.2</ele>
        <time>2019-08-19T01:36:11Z</time>
      </trkpt>
      <trkpt lat="42.23705" lon="2.29665">
        <ele>789.9</ele>
        <time>2019-08-19T01:36:12Z</time>
      </trkpt>
      <trkpt lat="42.236995" lon="2.29651">
        <ele>789.7</ele>
        <time>2019-08-19T01:36:13Z</time>
      </trkpt>
      <trkpt lat="42.236944" lon="2.296361">
        <ele>789.4</ele>
        <time>2019-08-19T01:36:14Z</time>
      </trkpt>
      <trkpt lat="42.236898" lon="2.296212">
        <ele>789.2</ele>
        <time>2019-08-19T01:36:15Z</time>
      </trkpt>
      <trkpt lat="42.236852" lon="2.296054">
        <ele>788.9</ele>
        <time>2019-08-19T01:36:16Z</time>
      </trkpt>
      <trkpt lat="42.236801" lon="2.295902">
        <ele>788.7</ele>
        <time>2019-08-19T01:36:17Z</time>
      </trkpt>
      <trkpt lat="42.236743" lon="2.295749">
        <ele>788.5</ele>
        <time>2019-08-19T01:36:18Z</time>
      </trkpt>
      <trkpt lat="42.236695" lon="2.295598">
        <ele>788.4</ele>
        <time>2019-08-19T01:36:19Z</time>
      </trkpt>
      <trkpt lat="42.236652" lon="2.295436">
        <ele>788.3</ele>
        <time>2019-08-19T01:36:20Z</time>
      </trkpt>
      <trkpt lat="42.236609" lon="2.295281">
        <ele>788.3</ele>
        <time>2019-08-19T01:36:21Z</time>
      </trkpt>
      <trkpt lat="42.236559" lon="2.295135">
        <ele>788.3</ele>
        <time>2019-08-19T01:36:22Z</time>
      </trkpt>
      <trkpt lat="42.236503" lon="2.294994">
        <ele>788.2</ele>
        <time>2019-08-19T01:36:23Z</time>
      </trkpt>
      <trkpt lat="42.23646" lon="2.294849">
        <ele>788.4</ele>
        <time>2019-08-19T01:36:24Z</time>
      </trkpt>
      <trkpt lat="42.236421" lon="2.294708">
        <ele>788.5</ele>
        <time>2019-08-19T01:36:25Z</time>
      </trkpt>
      <trkpt lat="42.236378" lon="2.294564">
        <ele>788.7</ele>
        <time>2019-08-19T01:36:26Z</time>
      </trkpt>
      <trkpt lat="42.236344" lon="2.294433">
        <ele>788.9</ele>
        <time>2019-08-19T01:36:27Z</time>
      </trkpt>
      <trkpt lat="42.236302" lon="2.294299">
        <ele>789.1</ele>
        <time>2019-08-19T01:36:28Z</time>
      </trkpt>
      <trkpt lat="42.236257" lon="2.294166">
        <ele>789.5</ele>
        <time>2019-08-19T01:36:29Z</time>
      </trkpt>
      <trkpt lat="42.236222" lon="2.294053">
        <ele>789.8</ele>
        <time>2019-08-19T01:36:30Z</time>
      </trkpt>
      <trkpt lat="42.236178" lon="2.293894">
        <ele>790.3</ele>
        <time>2019-08-19T01:36:31Z</time>
      </trkpt>
      <trkpt lat="42.236123" lon="2.293757">
        <ele>790.7</ele>
        <time>2019-08-19T01:36:32Z</time>
      </trkpt>
      <trkpt lat="42.236092" lon="2.293646">
        <ele>791.1</ele>
        <time>2019-08-19T01:36:33Z</time>
      </trkpt>
      <trkpt lat="42.236058" lon="2.293545">
        <ele>791.5</ele>
        <time>2019-08-19T01:36:34Z</time>
      </trkpt>
      <trkpt lat="42.236023" lon="2.293446">
        <ele>791.9</ele>
        <time>2019-08-19T01:36:35Z</time>
      </trkpt>
      <trkpt lat="42.235976" lon="2.293329">
        <ele>792.3</ele>
        <time>2019-08-19T01:36:36Z</time>
      </trkpt>
      <trkpt lat="42.235953" lon="2.293242">
        <ele>792.6</ele>
        <time>2019-08-19T01:36:37Z</time>
      </trkpt>
      <trkpt lat="42.23593" lon="2.293149">
        <ele>792.9</ele>
        <time>2019-08-19T01:36:38Z</time>
      </trkpt>
      <trkpt lat="42.235906" lon="2.293063">
        <ele>793.4</ele>
        <time>2019-08-19T01:36:39Z</time>
      </trkpt>
      <trkpt lat="42.235886" lon="2.292984">
        <ele>793.4</ele>
        <time>2019-08-19T01:36:40Z</time>
      </trkpt>
      <trkpt lat="42.23587" lon="2.292903">
        <ele>793.4</ele>
        <time>2019-08-19T01:36:41Z</time>
      </trkpt>
      <trkpt lat="42.235848" lon="2.292826">
        <ele>793.5</ele>
        <time>2019-08-19T01:36:42Z</time>
      </trkpt>
      <trkpt lat="42.235829" lon="2.292761">
        <ele>793.5</ele>
        <time>2019-08-19T01:36:43Z</time>
      </trkpt>
      <trkpt lat="42.235822" lon="2.292682">
        <ele>793.5</ele>
        <time>2019-08-19T01:36:44Z</time>
      </trkpt>
      <trkpt lat="42.235826" lon="2.292606">
        <ele>793.5</ele>
        <time>2019-08-19T01:36:45Z</time>
      </trkpt>
      <trkpt lat="42.235833" lon="2.292527">
        <ele>793.1</ele>
        <time>2019-08-19T01:36:46Z</time>
      </trkpt>
      <trkpt lat="42.235828" lon="2.292452">
        <ele>792.3</ele>
        <time>2019-08-19T01:36:47Z</time>
      </trkpt>
      <trkpt lat="42.23583" lon="2.292384">
        <ele>792.4</ele>
        <time>2019-08-19T01:36:48Z</time>
      </trkpt>
      <trkpt lat="42.2358" lon="2.292302">
        <ele>792.5</ele>
        <time>2019-08-19T01:36:49Z</time>
      </trkpt>
      <trkpt lat="42.235778" lon="2.292238">
        <ele>792.7</ele>
        <time>2019-08-19T01:36:50Z</time>
      </trkpt>
      <trkpt lat="42.235746" lon="2.292168">
        <ele>792.8</ele>
        <time>2019-08-19T01:36:51Z</time>
      </trkpt>
      <trkpt lat="42.235718" lon="2.292096">
        <ele>793.3</ele>
        <time>2019-08-19T01:36:52Z</time>
      </trkpt>
      <trkpt lat="42.235699" lon="2.292018">
        <ele>793.4</ele>
        <time>2019-08-19T01:36:54Z</time>
      </trkpt>
      <trkpt lat="42.235718" lon="2.291973">
        <ele>793.5</ele>
        <time>2019-08-19T01:36:56Z</time>
      </trkpt>
      <trkpt lat="42.235736" lon="2.291935">
        <ele>793.5</ele>
        <time>2019-08-19T01:37:28Z</time>
      </trkpt>
      <trkpt lat="42.235725" lon="2.291885">
        <ele>793.6</ele>
        <time>2019-08-19T01:38:00Z</time>
      </trkpt>
      <trkpt lat="42.235721" lon="2.291839">
        <ele>793.7</ele>
        <time>2019-08-19T01:38:07Z</time>
      </trkpt>
      <trkpt lat="42.2357" lon="2.291794">
        <ele>793.7</ele>
        <time>2019-08-19T01:38:10Z</time>
      </trkpt>
      <trkpt lat="42.235658" lon="2.291768">
        <ele>793.8</ele>
        <time>2019-08-19T01:38:12Z</time>
      </trkpt>
      <trkpt lat="42.235615" lon="2.291727">
        <ele>793.9</ele>
        <time>2019-08-19T01:38:14Z</time>
      </trkpt>
      <trkpt lat="42.235595" lon="2.291693">
        <ele>793.9</ele>
        <time>2019-08-19T01:38:15Z</time>
      </trkpt>
      <trkpt lat="42.235577" lon="2.291654">
        <ele>793.7</ele>
        <time>2019-08-19T01:38:16Z</time>
      </trkpt>
      <trkpt lat="42.235556" lon="2.291608">
        <ele>793.6</ele>
        <time>2019-08-19T01:38:17Z</time>
      </trkpt>
      <trkpt lat="42.235532" lon="2.291559">
        <ele>793.5</ele>
        <time>2019-08-19T01:38:18Z</time>
      </trkpt>
      <trkpt lat="42.235511" lon="2.291506">
        <ele>793.4</ele>
        <time>2019-08-19T01:38:19Z</time>
      </trkpt>
      <trkpt lat="42.235495" lon="2.291448">
        <ele>793.3</ele>
        <time>2019-08-19T01:38:20Z</time>
      </trkpt>
      <trkpt lat="42.235471" lon="2.291381">
        <ele>793.2</ele>
        <time>2019-08-19T01:38:21Z</time>
      </trkpt>
      <trkpt lat="42.235452" lon="2.291321">
        <ele>793.1</ele>
        <time>2019-08-19T01:38:22Z</time>
      </trkpt>
      <trkpt lat="42.235428" lon="2.291257">
        <ele>793</ele>
        <time>2019-08-19T01:38:23Z</time>
      </trkpt>
      <trkpt lat="42.235401" lon="2.291202">
        <ele>793</ele>
        <time>2019-08-19T01:38:24Z</time>
      </trkpt>
      <trkpt lat="42.235379" lon="2.291142">
        <ele>792.9</ele>
        <time>2019-08-19T01:38:25Z</time>
      </trkpt>
      <trkpt lat="42.235367" lon="2.29108">
        <ele>792.8</ele>
        <time>2019-08-19T01:38:26Z</time>
      </trkpt>
      <trkpt lat="42.235349" lon="2.291013">
        <ele>792.8</ele>
        <time>2019-08-19T01:38:27Z</time>
      </trkpt>
      <trkpt lat="42.23532" lon="2.290951">
        <ele>792.6</ele>
        <time>2019-08-19T01:38:28Z</time>
      </trkpt>
      <trkpt lat="42.235292" lon="2.29088">
        <ele>792.4</ele>
        <time>2019-08-19T01:38:29Z</time>
      </trkpt>
      <trkpt lat="42.23527" lon="2.290811">
        <ele>792.2</ele>
        <time>2019-08-19T01:38:30Z</time>
      </trkpt>
      <trkpt lat="42.235251" lon="2.290736">
        <ele>792</ele>
        <time>2019-08-19T01:38:31Z</time>
      </trkpt>
      <trkpt lat="42.235233" lon="2.29066">
        <ele>791.8</ele>
        <time>2019-08-19T01:38:32Z</time>
      </trkpt>
      <trkpt lat="42.235215" lon="2.290581">
        <ele>791.6</ele>
        <time>2019-08-19T01:38:33Z</time>
      </trkpt>
      <trkpt lat="42.235195" lon="2.2905">
        <ele>791.4</ele>
        <time>2019-08-19T01:38:34Z</time>
      </trkpt>
      <trkpt lat="42.235175" lon="2.29042">
        <ele>791.2</ele>
        <time>2019-08-19T01:38:35Z</time>
      </trkpt>
      <trkpt lat="42.235137" lon="2.290338">
        <ele>790.9</ele>
        <time>2019-08-19T01:38:36Z</time>
      </trkpt>
      <trkpt lat="42.235114" lon="2.290243">
        <ele>790.7</ele>
        <time>2019-08-19T01:38:37Z</time>
      </trkpt>
      <trkpt lat="42.235088" lon="2.29016">
        <ele>790.5</ele>
        <time>2019-08-19T01:38:38Z</time>
      </trkpt>
      <trkpt lat="42.23506" lon="2.290072">
        <ele>790.3</ele>
        <time>2019-08-19T01:38:39Z</time>
      </trkpt>
      <trkpt lat="42.235026" lon="2.289992">
        <ele>790.2</ele>
        <time>2019-08-19T01:38:40Z</time>
      </trkpt>
      <trkpt lat="42.23499" lon="2.289916">
        <ele>790</ele>
        <time>2019-08-19T01:38:41Z</time>
      </trkpt>
      <trkpt lat="42.234951" lon="2.289855">
        <ele>789.8</ele>
        <time>2019-08-19T01:38:42Z</time>
      </trkpt>
      <trkpt lat="42.23493" lon="2.289786">
        <ele>789.5</ele>
        <time>2019-08-19T01:38:43Z</time>
      </trkpt>
      <trkpt lat="42.234894" lon="2.289734">
        <ele>789.2</ele>
        <time>2019-08-19T01:38:44Z</time>
      </trkpt>
      <trkpt lat="42.23486" lon="2.289697">
        <ele>789</ele>
        <time>2019-08-19T01:38:45Z</time>
      </trkpt>
      <trkpt lat="42.234831" lon="2.289662">
        <ele>788.8</ele>
        <time>2019-08-19T01:38:46Z</time>
      </trkpt>
      <trkpt lat="42.234791" lon="2.289613">
        <ele>788.3</ele>
        <time>2019-08-19T01:38:47Z</time>
      </trkpt>
      <trkpt lat="42.234752" lon="2.289588">
        <ele>788.2</ele>
        <time>2019-08-19T01:38:48Z</time>
      </trkpt>
      <trkpt lat="42.234713" lon="2.289565">
        <ele>788.1</ele>
        <time>2019-08-19T01:38:49Z</time>
      </trkpt>
      <trkpt lat="42.23469" lon="2.289543">
        <ele>788</ele>
        <time>2019-08-19T01:38:50Z</time>
      </trkpt>
      <trkpt lat="42.234665" lon="2.289515">
        <ele>788</ele>
        <time>2019-08-19T01:38:51Z</time>
      </trkpt>
      <trkpt lat="42.234638" lon="2.289483">
        <ele>787.9</ele>
        <time>2019-08-19T01:38:52Z</time>
      </trkpt>
      <trkpt lat="42.234616" lon="2.289442">
        <ele>787.8</ele>
        <time>2019-08-19T01:38:53Z</time>
      </trkpt>
      <trkpt lat="42.234592" lon="2.289412">
        <ele>787.7</ele>
        <time>2019-08-19T01:38:54Z</time>
      </trkpt>
      <trkpt lat="42.234563" lon="2.289375">
        <ele>787.6</ele>
        <time>2019-08-19T01:38:55Z</time>
      </trkpt>
      <trkpt lat="42.234537" lon="2.289338">
        <ele>787.5</ele>
        <time>2019-08-19T01:38:56Z</time>
      </trkpt>
      <trkpt lat="42.234505" lon="2.2893">
        <ele>787.4</ele>
        <time>2019-08-19T01:38:57Z</time>
      </trkpt>
      <trkpt lat="42.234478" lon="2.289259">
        <ele>787.3</ele>
        <time>2019-08-19T01:38:58Z</time>
      </trkpt>
      <trkpt lat="42.234454" lon="2.289214">
        <ele>787.2</ele>
        <time>2019-08-19T01:38:59Z</time>
      </trkpt>
      <trkpt lat="42.234433" lon="2.289167">
        <ele>787.1</ele>
        <time>2019-08-19T01:39:00Z</time>
      </trkpt>
      <trkpt lat="42.234421" lon="2.289114">
        <ele>786.6</ele>
        <time>2019-08-19T01:39:01Z</time>
      </trkpt>
      <trkpt lat="42.234416" lon="2.289054">
        <ele>786.3</ele>
        <time>2019-08-19T01:39:02Z</time>
      </trkpt>
      <trkpt lat="42.234412" lon="2.288979">
        <ele>785.9</ele>
        <time>2019-08-19T01:39:03Z</time>
      </trkpt>
      <trkpt lat="42.234418" lon="2.288914">
        <ele>785.6</ele>
        <time>2019-08-19T01:39:04Z</time>
      </trkpt>
      <trkpt lat="42.234428" lon="2.288858">
        <ele>785.3</ele>
        <time>2019-08-19T01:39:05Z</time>
      </trkpt>
      <trkpt lat="42.234436" lon="2.288801">
        <ele>785.1</ele>
        <time>2019-08-19T01:39:06Z</time>
      </trkpt>
      <trkpt lat="42.234453" lon="2.288739">
        <ele>784.8</ele>
        <time>2019-08-19T01:39:07Z</time>
      </trkpt>
      <trkpt lat="42.234465" lon="2.288705">
        <ele>784.7</ele>
        <time>2019-08-19T01:39:08Z</time>
      </trkpt>
      <trkpt lat="42.234498" lon="2.288639">
        <ele>784.6</ele>
        <time>2019-08-19T01:39:09Z</time>
      </trkpt>
      <trkpt lat="42.234523" lon="2.288577">
        <ele>784.4</ele>
        <time>2019-08-19T01:39:10Z</time>
      </trkpt>
      <trkpt lat="42.234528" lon="2.288498">
        <ele>784.2</ele>
        <time>2019-08-19T01:39:11Z</time>
      </trkpt>
      <trkpt lat="42.234529" lon="2.288429">
        <ele>784</ele>
        <time>2019-08-19T01:39:12Z</time>
      </trkpt>
      <trkpt lat="42.234524" lon="2.288353">
        <ele>783.8</ele>
        <time>2019-08-19T01:39:13Z</time>
      </trkpt>
      <trkpt lat="42.234519" lon="2.288278">
        <ele>783.5</ele>
        <time>2019-08-19T01:39:14Z</time>
      </trkpt>
      <trkpt lat="42.234498" lon="2.288196">
        <ele>783.2</ele>
        <time>2019-08-19T01:39:15Z</time>
      </trkpt>
      <trkpt lat="42.234467" lon="2.288124">
        <ele>783</ele>
        <time>2019-08-19T01:39:16Z</time>
      </trkpt>
      <trkpt lat="42.234439" lon="2.288048">
        <ele>782.8</ele>
        <time>2019-08-19T01:39:17Z</time>
      </trkpt>
      <trkpt lat="42.234412" lon="2.28798">
        <ele>782.7</ele>
        <time>2019-08-19T01:39:18Z</time>
      </trkpt>
      <trkpt lat="42.234407" lon="2.287891">
        <ele>782.6</ele>
        <time>2019-08-19T01:39:19Z</time>
      </trkpt>
      <trkpt lat="42.234399" lon="2.287801">
        <ele>782.6</ele>
        <time>2019-08-19T01:39:20Z</time>
      </trkpt>
      <trkpt lat="42.234382" lon="2.287734">
        <ele>782.6</ele>
        <time>2019-08-19T01:39:21Z</time>
      </trkpt>
      <trkpt lat="42.23436" lon="2.287661">
        <ele>782.5</ele>
        <time>2019-08-19T01:39:22Z</time>
      </trkpt>
      <trkpt lat="42.234328" lon="2.287595">
        <ele>782.3</ele>
        <time>2019-08-19T01:39:23Z</time>
      </trkpt>
      <trkpt lat="42.234305" lon="2.287527">
        <ele>782.1</ele>
        <time>2019-08-19T01:39:24Z</time>
      </trkpt>
      <trkpt lat="42.234279" lon="2.287456">
        <ele>781.9</ele>
        <time>2019-08-19T01:39:25Z</time>
      </trkpt>
      <trkpt lat="42.234256" lon="2.287382">
        <ele>781.7</ele>
        <time>2019-08-19T01:39:26Z</time>
      </trkpt>
      <trkpt lat="42.234246" lon="2.287298">
        <ele>781.5</ele>
        <time>2019-08-19T01:39:27Z</time>
      </trkpt>
      <trkpt lat="42.234227" lon="2.287228">
        <ele>781.3</ele>
        <time>2019-08-19T01:39:28Z</time>
      </trkpt>
      <trkpt lat="42.234197" lon="2.287159">
        <ele>781.1</ele>
        <time>2019-08-19T01:39:29Z</time>
      </trkpt>
      <trkpt lat="42.234173" lon="2.287089">
        <ele>780.8</ele>
        <time>2019-08-19T01:39:30Z</time>
      </trkpt>
      <trkpt lat="42.23415" lon="2.287021">
        <ele>780.6</ele>
        <time>2019-08-19T01:39:31Z</time>
      </trkpt>
      <trkpt lat="42.234123" lon="2.286949">
        <ele>780.4</ele>
        <time>2019-08-19T01:39:32Z</time>
      </trkpt>
      <trkpt lat="42.234098" lon="2.286887">
        <ele>780.2</ele>
        <time>2019-08-19T01:39:33Z</time>
      </trkpt>
      <trkpt lat="42.234065" lon="2.286828">
        <ele>780</ele>
        <time>2019-08-19T01:39:34Z</time>
      </trkpt>
      <trkpt lat="42.234037" lon="2.286765">
        <ele>779.7</ele>
        <time>2019-08-19T01:39:35Z</time>
      </trkpt>
      <trkpt lat="42.234013" lon="2.286705">
        <ele>779.7</ele>
        <time>2019-08-19T01:39:36Z</time>
      </trkpt>
      <trkpt lat="42.233992" lon="2.286633">
        <ele>779.7</ele>
        <time>2019-08-19T01:39:37Z</time>
      </trkpt>
      <trkpt lat="42.233969" lon="2.286575">
        <ele>779.7</ele>
        <time>2019-08-19T01:39:38Z</time>
      </trkpt>
      <trkpt lat="42.233961" lon="2.286494">
        <ele>779.7</ele>
        <time>2019-08-19T01:39:39Z</time>
      </trkpt>
      <trkpt lat="42.233953" lon="2.286417">
        <ele>779.6</ele>
        <time>2019-08-19T01:39:40Z</time>
      </trkpt>
      <trkpt lat="42.233935" lon="2.286353">
        <ele>779.5</ele>
        <time>2019-08-19T01:39:41Z</time>
      </trkpt>
      <trkpt lat="42.233902" lon="2.286331">
        <ele>779.4</ele>
        <time>2019-08-19T01:39:43Z</time>
      </trkpt>
      <trkpt lat="42.233897" lon="2.286289">
        <ele>779.4</ele>
        <time>2019-08-19T01:39:45Z</time>
      </trkpt>
      <trkpt lat="42.233908" lon="2.286256">
        <ele>779.3</ele>
        <time>2019-08-19T01:39:54Z</time>
      </trkpt>
      <trkpt lat="42.233929" lon="2.286217">
        <ele>779.1</ele>
        <time>2019-08-19T01:40:02Z</time>
      </trkpt>
      <trkpt lat="42.233912" lon="2.286177">
        <ele>779</ele>
        <time>2019-08-19T01:40:20Z</time>
      </trkpt>
      <trkpt lat="42.233912" lon="2.286139">
        <ele>778.9</ele>
        <time>2019-08-19T01:40:22Z</time>
      </trkpt>
      <trkpt lat="42.233914" lon="2.286097">
        <ele>778.8</ele>
        <time>2019-08-19T01:40:24Z</time>
      </trkpt>
      <trkpt lat="42.233917" lon="2.286061">
        <ele>778.6</ele>
        <time>2019-08-19T01:40:26Z</time>
      </trkpt>
      <trkpt lat="42.233917" lon="2.286024">
        <ele>778.5</ele>
        <time>2019-08-19T01:40:28Z</time>
      </trkpt>
      <trkpt lat="42.233922" lon="2.285975">
        <ele>778.4</ele>
        <time>2019-08-19T01:40:31Z</time>
      </trkpt>
      <trkpt lat="42.233927" lon="2.285934">
        <ele>778.3</ele>
        <time>2019-08-19T01:40:33Z</time>
      </trkpt>
      <trkpt lat="42.233926" lon="2.285885">
        <ele>777.9</ele>
        <time>2019-08-19T01:40:35Z</time>
      </trkpt>
      <trkpt lat="42.233925" lon="2.285836">
        <ele>777.7</ele>
        <time>2019-08-19T01:40:37Z</time>
      </trkpt>
      <trkpt lat="42.233919" lon="2.285785">
        <ele>777.5</ele>
        <time>2019-08-19T01:40:39Z</time>
      </trkpt>
      <trkpt lat="42.233906" lon="2.285739">
        <ele>777.3</ele>
        <time>2019-08-19T01:40:41Z</time>
      </trkpt>
      <trkpt lat="42.233891" lon="2.285702">
        <ele>777.1</ele>
        <time>2019-08-19T01:40:43Z</time>
      </trkpt>
      <trkpt lat="42.233876" lon="2.285655">
        <ele>776.9</ele>
        <time>2019-08-19T01:40:45Z</time>
      </trkpt>
      <trkpt lat="42.233854" lon="2.285584">
        <ele>776.5</ele>
        <time>2019-08-19T01:40:47Z</time>
      </trkpt>
      <trkpt lat="42.233843" lon="2.285544">
        <ele>776.2</ele>
        <time>2019-08-19T01:40:48Z</time>
      </trkpt>
      <trkpt lat="42.233831" lon="2.2855">
        <ele>775.9</ele>
        <time>2019-08-19T01:40:49Z</time>
      </trkpt>
      <trkpt lat="42.233821" lon="2.285451">
        <ele>775.6</ele>
        <time>2019-08-19T01:40:50Z</time>
      </trkpt>
      <trkpt lat="42.233813" lon="2.285398">
        <ele>775.2</ele>
        <time>2019-08-19T01:40:51Z</time>
      </trkpt>
      <trkpt lat="42.233804" lon="2.285347">
        <ele>774.8</ele>
        <time>2019-08-19T01:40:52Z</time>
      </trkpt>
      <trkpt lat="42.233792" lon="2.285298">
        <ele>774.4</ele>
        <time>2019-08-19T01:40:53Z</time>
      </trkpt>
      <trkpt lat="42.23378" lon="2.285251">
        <ele>773.8</ele>
        <time>2019-08-19T01:40:54Z</time>
      </trkpt>
      <trkpt lat="42.233768" lon="2.285206">
        <ele>773.4</ele>
        <time>2019-08-19T01:40:55Z</time>
      </trkpt>
      <trkpt lat="42.233764" lon="2.285158">
        <ele>773</ele>
        <time>2019-08-19T01:40:56Z</time>
      </trkpt>
      <trkpt lat="42.233766" lon="2.285108">
        <ele>772.6</ele>
        <time>2019-08-19T01:40:57Z</time>
      </trkpt>
      <trkpt lat="42.233782" lon="2.285056">
        <ele>772.1</ele>
        <time>2019-08-19T01:40:58Z</time>
      </trkpt>
      <trkpt lat="42.233804" lon="2.285007">
        <ele>771.5</ele>
        <time>2019-08-19T01:40:59Z</time>
      </trkpt>
      <trkpt lat="42.233836" lon="2.284968">
        <ele>770.8</ele>
        <time>2019-08-19T01:41:00Z</time>
      </trkpt>
      <trkpt lat="42.233875" lon="2.28493">
        <ele>770.2</ele>
        <time>2019-08-19T01:41:01Z</time>
      </trkpt>
      <trkpt lat="42.23394" lon="2.284883">
        <ele>769.1</ele>
        <time>2019-08-19T01:41:02Z</time>
      </trkpt>
      <trkpt lat="42.233976" lon="2.284844">
        <ele>768.4</ele>
        <time>2019-08-19T01:41:03Z</time>
      </trkpt>
      <trkpt lat="42.23401" lon="2.284805">
        <ele>767.8</ele>
        <time>2019-08-19T01:41:04Z</time>
      </trkpt>
      <trkpt lat="42.234067" lon="2.284783">
        <ele>767</ele>
        <time>2019-08-19T01:41:05Z</time>
      </trkpt>
      <trkpt lat="42.234088" lon="2.284743">
        <ele>767</ele>
        <time>2019-08-19T01:41:06Z</time>
      </trkpt>
      <trkpt lat="42.234126" lon="2.284704">
        <ele>767</ele>
        <time>2019-08-19T01:41:07Z</time>
      </trkpt>
      <trkpt lat="42.234155" lon="2.284656">
        <ele>767</ele>
        <time>2019-08-19T01:41:08Z</time>
      </trkpt>
      <trkpt lat="42.234183" lon="2.284624">
        <ele>767</ele>
        <time>2019-08-19T01:41:09Z</time>
      </trkpt>
      <trkpt lat="42.234216" lon="2.284595">
        <ele>767</ele>
        <time>2019-08-19T01:41:10Z</time>
      </trkpt>
      <trkpt lat="42.234254" lon="2.284572">
        <ele>767</ele>
        <time>2019-08-19T01:41:11Z</time>
      </trkpt>
      <trkpt lat="42.23429" lon="2.284539">
        <ele>767.1</ele>
        <time>2019-08-19T01:41:12Z</time>
      </trkpt>
      <trkpt lat="42.234325" lon="2.284509">
        <ele>767.1</ele>
        <time>2019-08-19T01:41:13Z</time>
      </trkpt>
      <trkpt lat="42.234358" lon="2.284467">
        <ele>767.1</ele>
        <time>2019-08-19T01:41:14Z</time>
      </trkpt>
      <trkpt lat="42.234388" lon="2.284447">
        <ele>767.2</ele>
        <time>2019-08-19T01:41:15Z</time>
      </trkpt>
      <trkpt lat="42.234419" lon="2.284431">
        <ele>767.2</ele>
        <time>2019-08-19T01:41:16Z</time>
      </trkpt>
      <trkpt lat="42.234451" lon="2.284399">
        <ele>767.2</ele>
        <time>2019-08-19T01:41:17Z</time>
      </trkpt>
      <trkpt lat="42.234485" lon="2.284357">
        <ele>767.3</ele>
        <time>2019-08-19T01:41:18Z</time>
      </trkpt>
      <trkpt lat="42.234517" lon="2.284313">
        <ele>767.3</ele>
        <time>2019-08-19T01:41:19Z</time>
      </trkpt>
      <trkpt lat="42.234554" lon="2.284276">
        <ele>767.4</ele>
        <time>2019-08-19T01:41:20Z</time>
      </trkpt>
      <trkpt lat="42.234587" lon="2.284241">
        <ele>767.4</ele>
        <time>2019-08-19T01:41:21Z</time>
      </trkpt>
      <trkpt lat="42.234624" lon="2.284207">
        <ele>767.5</ele>
        <time>2019-08-19T01:41:22Z</time>
      </trkpt>
      <trkpt lat="42.234664" lon="2.284169">
        <ele>767.6</ele>
        <time>2019-08-19T01:41:23Z</time>
      </trkpt>
      <trkpt lat="42.234708" lon="2.284131">
        <ele>767.8</ele>
        <time>2019-08-19T01:41:24Z</time>
      </trkpt>
      <trkpt lat="42.234749" lon="2.284087">
        <ele>768</ele>
        <time>2019-08-19T01:41:25Z</time>
      </trkpt>
      <trkpt lat="42.2348" lon="2.284045">
        <ele>768.2</ele>
        <time>2019-08-19T01:41:26Z</time>
      </trkpt>
      <trkpt lat="42.234838" lon="2.284003">
        <ele>768.4</ele>
        <time>2019-08-19T01:41:27Z</time>
      </trkpt>
      <trkpt lat="42.234882" lon="2.283961">
        <ele>768.6</ele>
        <time>2019-08-19T01:41:28Z</time>
      </trkpt>
      <trkpt lat="42.234916" lon="2.283925">
        <ele>768.8</ele>
        <time>2019-08-19T01:41:29Z</time>
      </trkpt>
      <trkpt lat="42.234948" lon="2.283888">
        <ele>769</ele>
        <time>2019-08-19T01:41:30Z</time>
      </trkpt>
      <trkpt lat="42.234982" lon="2.283854">
        <ele>769.3</ele>
        <time>2019-08-19T01:41:31Z</time>
      </trkpt>
      <trkpt lat="42.235016" lon="2.283823">
        <ele>769.5</ele>
        <time>2019-08-19T01:41:32Z</time>
      </trkpt>
      <trkpt lat="42.235048" lon="2.283792">
        <ele>769.8</ele>
        <time>2019-08-19T01:41:33Z</time>
      </trkpt>
      <trkpt lat="42.235072" lon="2.283766">
        <ele>770</ele>
        <time>2019-08-19T01:41:34Z</time>
      </trkpt>
      <trkpt lat="42.235104" lon="2.28373">
        <ele>770.3</ele>
        <time>2019-08-19T01:41:35Z</time>
      </trkpt>
      <trkpt lat="42.235129" lon="2.283705">
        <ele>770.5</ele>
        <time>2019-08-19T01:41:36Z</time>
      </trkpt>
      <trkpt lat="42.235159" lon="2.283679">
        <ele>770.8</ele>
        <time>2019-08-19T01:41:37Z</time>
      </trkpt>
      <trkpt lat="42.235192" lon="2.283653">
        <ele>771.1</ele>
        <time>2019-08-19T01:41:38Z</time>
      </trkpt>
      <trkpt lat="42.235222" lon="2.283628">
        <ele>771.4</ele>
        <time>2019-08-19T01:41:39Z</time>
      </trkpt>
      <trkpt lat="42.235248" lon="2.283604">
        <ele>771.7</ele>
        <time>2019-08-19T01:41:40Z</time>
      </trkpt>
      <trkpt lat="42.235271" lon="2.283581">
        <ele>771.9</ele>
        <time>2019-08-19T01:41:41Z</time>
      </trkpt>
      <trkpt lat="42.235295" lon="2.283559">
        <ele>772.3</ele>
        <time>2019-08-19T01:41:42Z</time>
      </trkpt>
      <trkpt lat="42.235323" lon="2.283533">
        <ele>773</ele>
        <time>2019-08-19T01:41:43Z</time>
      </trkpt>
      <trkpt lat="42.235354" lon="2.283505">
        <ele>773.7</ele>
        <time>2019-08-19T01:41:44Z</time>
      </trkpt>
      <trkpt lat="42.235381" lon="2.283481">
        <ele>774.3</ele>
        <time>2019-08-19T01:41:45Z</time>
      </trkpt>
      <trkpt lat="42.235409" lon="2.283461">
        <ele>774.9</ele>
        <time>2019-08-19T01:41:46Z</time>
      </trkpt>
      <trkpt lat="42.235441" lon="2.283438">
        <ele>775.7</ele>
        <time>2019-08-19T01:41:47Z</time>
      </trkpt>
      <trkpt lat="42.235474" lon="2.283417">
        <ele>776.4</ele>
        <time>2019-08-19T01:41:48Z</time>
      </trkpt>
      <trkpt lat="42.235506" lon="2.283399">
        <ele>777.1</ele>
        <time>2019-08-19T01:41:49Z</time>
      </trkpt>
      <trkpt lat="42.235533" lon="2.283382">
        <ele>777.6</ele>
        <time>2019-08-19T01:41:50Z</time>
      </trkpt>
      <trkpt lat="42.235558" lon="2.283364">
        <ele>778.2</ele>
        <time>2019-08-19T01:41:51Z</time>
      </trkpt>
      <trkpt lat="42.235589" lon="2.283345">
        <ele>778.9</ele>
        <time>2019-08-19T01:41:52Z</time>
      </trkpt>
      <trkpt lat="42.235618" lon="2.283327">
        <ele>779.5</ele>
        <time>2019-08-19T01:41:53Z</time>
      </trkpt>
      <trkpt lat="42.235643" lon="2.283313">
        <ele>779.7</ele>
        <time>2019-08-19T01:41:54Z</time>
      </trkpt>
      <trkpt lat="42.235687" lon="2.283279">
        <ele>780.3</ele>
        <time>2019-08-19T01:41:56Z</time>
      </trkpt>
      <trkpt lat="42.235714" lon="2.283239">
        <ele>780.7</ele>
        <time>2019-08-19T01:41:58Z</time>
      </trkpt>
      <trkpt lat="42.235731" lon="2.283184">
        <ele>781.2</ele>
        <time>2019-08-19T01:42:00Z</time>
      </trkpt>
      <trkpt lat="42.235735" lon="2.283147">
        <ele>781.6</ele>
        <time>2019-08-19T01:42:01Z</time>
      </trkpt>
      <trkpt lat="42.235737" lon="2.283094">
        <ele>782</ele>
        <time>2019-08-19T01:42:02Z</time>
      </trkpt>
      <trkpt lat="42.235737" lon="2.283033">
        <ele>782.5</ele>
        <time>2019-08-19T01:42:03Z</time>
      </trkpt>
      <trkpt lat="42.235736" lon="2.282974">
        <ele>783</ele>
        <time>2019-08-19T01:42:04Z</time>
      </trkpt>
      <trkpt lat="42.235736" lon="2.282915">
        <ele>783.5</ele>
        <time>2019-08-19T01:42:05Z</time>
      </trkpt>
      <trkpt lat="42.235736" lon="2.282864">
        <ele>784.3</ele>
        <time>2019-08-19T01:42:06Z</time>
      </trkpt>
      <trkpt lat="42.235732" lon="2.282815">
        <ele>784.3</ele>
        <time>2019-08-19T01:42:07Z</time>
      </trkpt>
      <trkpt lat="42.235718" lon="2.282764">
        <ele>784.4</ele>
        <time>2019-08-19T01:42:08Z</time>
      </trkpt>
      <trkpt lat="42.235694" lon="2.282716">
        <ele>784.5</ele>
        <time>2019-08-19T01:42:09Z</time>
      </trkpt>
      <trkpt lat="42.235667" lon="2.28267">
        <ele>784.5</ele>
        <time>2019-08-19T01:42:10Z</time>
      </trkpt>
      <trkpt lat="42.23564" lon="2.282623">
        <ele>784.6</ele>
        <time>2019-08-19T01:42:11Z</time>
      </trkpt>
      <trkpt lat="42.235617" lon="2.282579">
        <ele>784</ele>
        <time>2019-08-19T01:42:12Z</time>
      </trkpt>
      <trkpt lat="42.235594" lon="2.282535">
        <ele>783.7</ele>
        <time>2019-08-19T01:42:13Z</time>
      </trkpt>
      <trkpt lat="42.235568" lon="2.282493">
        <ele>783.3</ele>
        <time>2019-08-19T01:42:14Z</time>
      </trkpt>
      <trkpt lat="42.235542" lon="2.282454">
        <ele>783</ele>
        <time>2019-08-19T01:42:15Z</time>
      </trkpt>
      <trkpt lat="42.235509" lon="2.282417">
        <ele>782.7</ele>
        <time>2019-08-19T01:42:16Z</time>
      </trkpt>
      <trkpt lat="42.235476" lon="2.28238">
        <ele>782.4</ele>
        <time>2019-08-19T01:42:17Z</time>
      </trkpt>
      <trkpt lat="42.235447" lon="2.282346">
        <ele>782.1</ele>
        <time>2019-08-19T01:42:18Z</time>
      </trkpt>
      <trkpt lat="42.23542" lon="2.282312">
        <ele>781.9</ele>
        <time>2019-08-19T01:42:19Z</time>
      </trkpt>
      <trkpt lat="42.235396" lon="2.282272">
        <ele>781.7</ele>
        <time>2019-08-19T01:42:20Z</time>
      </trkpt>
      <trkpt lat="42.235368" lon="2.282236">
        <ele>781.4</ele>
        <time>2019-08-19T01:42:21Z</time>
      </trkpt>
      <trkpt lat="42.235337" lon="2.282202">
        <ele>781.2</ele>
        <time>2019-08-19T01:42:22Z</time>
      </trkpt>
      <trkpt lat="42.235304" lon="2.282168">
        <ele>780.9</ele>
        <time>2019-08-19T01:42:23Z</time>
      </trkpt>
      <trkpt lat="42.235275" lon="2.282135">
        <ele>780.7</ele>
        <time>2019-08-19T01:42:24Z</time>
      </trkpt>
      <trkpt lat="42.235244" lon="2.282111">
        <ele>780.5</ele>
        <time>2019-08-19T01:42:25Z</time>
      </trkpt>
      <trkpt lat="42.235209" lon="2.282092">
        <ele>780.3</ele>
        <time>2019-08-19T01:42:26Z</time>
      </trkpt>
      <trkpt lat="42.235171" lon="2.282081">
        <ele>780.1</ele>
        <time>2019-08-19T01:42:27Z</time>
      </trkpt>
      <trkpt lat="42.23513" lon="2.282069">
        <ele>779.8</ele>
        <time>2019-08-19T01:42:28Z</time>
      </trkpt>
      <trkpt lat="42.235088" lon="2.282058">
        <ele>779.6</ele>
        <time>2019-08-19T01:42:29Z</time>
      </trkpt>
      <trkpt lat="42.235046" lon="2.282048">
        <ele>779.4</ele>
        <time>2019-08-19T01:42:30Z</time>
      </trkpt>
      <trkpt lat="42.235011" lon="2.282041">
        <ele>779.2</ele>
        <time>2019-08-19T01:42:31Z</time>
      </trkpt>
      <trkpt lat="42.234983" lon="2.282032">
        <ele>779</ele>
        <time>2019-08-19T01:42:32Z</time>
      </trkpt>
      <trkpt lat="42.234956" lon="2.282017">
        <ele>778.9</ele>
        <time>2019-08-19T01:42:33Z</time>
      </trkpt>
      <trkpt lat="42.234925" lon="2.281992">
        <ele>778.7</ele>
        <time>2019-08-19T01:42:34Z</time>
      </trkpt>
      <trkpt lat="42.234892" lon="2.281957">
        <ele>778.5</ele>
        <time>2019-08-19T01:42:35Z</time>
      </trkpt>
      <trkpt lat="42.234862" lon="2.281919">
        <ele>778.3</ele>
        <time>2019-08-19T01:42:36Z</time>
      </trkpt>
      <trkpt lat="42.234836" lon="2.28188">
        <ele>778.2</ele>
        <time>2019-08-19T01:42:37Z</time>
      </trkpt>
      <trkpt lat="42.234816" lon="2.281835">
        <ele>778</ele>
        <time>2019-08-19T01:42:38Z</time>
      </trkpt>
      <trkpt lat="42.2348" lon="2.281792">
        <ele>777.8</ele>
        <time>2019-08-19T01:42:39Z</time>
      </trkpt>
      <trkpt lat="42.234783" lon="2.281751">
        <ele>777.7</ele>
        <time>2019-08-19T01:42:40Z</time>
      </trkpt>
      <trkpt lat="42.234765" lon="2.281713">
        <ele>777.5</ele>
        <time>2019-08-19T01:42:41Z</time>
      </trkpt>
      <trkpt lat="42.234748" lon="2.281673">
        <ele>777.5</ele>
        <time>2019-08-19T01:42:42Z</time>
      </trkpt>
      <trkpt lat="42.234734" lon="2.281631">
        <ele>777.6</ele>
        <time>2019-08-19T01:42:43Z</time>
      </trkpt>
      <trkpt lat="42.234723" lon="2.281589">
        <ele>777.7</ele>
        <time>2019-08-19T01:42:44Z</time>
      </trkpt>
      <trkpt lat="42.234713" lon="2.281547">
        <ele>777.9</ele>
        <time>2019-08-19T01:42:45Z</time>
      </trkpt>
      <trkpt lat="42.234701" lon="2.281504">
        <ele>777.8</ele>
        <time>2019-08-19T01:42:46Z</time>
      </trkpt>
      <trkpt lat="42.234685" lon="2.281463">
        <ele>777.8</ele>
        <time>2019-08-19T01:42:47Z</time>
      </trkpt>
      <trkpt lat="42.234669" lon="2.281422">
        <ele>777.8</ele>
        <time>2019-08-19T01:42:48Z</time>
      </trkpt>
      <trkpt lat="42.234652" lon="2.281384">
        <ele>777.8</ele>
        <time>2019-08-19T01:42:49Z</time>
      </trkpt>
      <trkpt lat="42.234634" lon="2.281344">
        <ele>777.7</ele>
        <time>2019-08-19T01:42:50Z</time>
      </trkpt>
      <trkpt lat="42.234619" lon="2.281302">
        <ele>777.7</ele>
        <time>2019-08-19T01:42:51Z</time>
      </trkpt>
      <trkpt lat="42.234605" lon="2.281259">
        <ele>777.7</ele>
        <time>2019-08-19T01:42:52Z</time>
      </trkpt>
      <trkpt lat="42.234593" lon="2.281219">
        <ele>777.7</ele>
        <time>2019-08-19T01:42:53Z</time>
      </trkpt>
      <trkpt lat="42.234582" lon="2.28118">
        <ele>777.7</ele>
        <time>2019-08-19T01:42:54Z</time>
      </trkpt>
      <trkpt lat="42.234571" lon="2.281138">
        <ele>777.6</ele>
        <time>2019-08-19T01:42:55Z</time>
      </trkpt>
      <trkpt lat="42.234562" lon="2.281094">
        <ele>777.6</ele>
        <time>2019-08-19T01:42:56Z</time>
      </trkpt>
      <trkpt lat="42.234555" lon="2.281056">
        <ele>778</ele>
        <time>2019-08-19T01:42:57Z</time>
      </trkpt>
      <trkpt lat="42.234551" lon="2.280969">
        <ele>779</ele>
        <time>2019-08-19T01:42:59Z</time>
      </trkpt>
      <trkpt lat="42.234554" lon="2.280913">
        <ele>779.6</ele>
        <time>2019-08-19T01:43:00Z</time>
      </trkpt>
      <trkpt lat="42.234561" lon="2.280854">
        <ele>780.2</ele>
        <time>2019-08-19T01:43:01Z</time>
      </trkpt>
      <trkpt lat="42.234572" lon="2.280798">
        <ele>780.8</ele>
        <time>2019-08-19T01:43:02Z</time>
      </trkpt>
      <trkpt lat="42.234586" lon="2.280746">
        <ele>781.4</ele>
        <time>2019-08-19T01:43:03Z</time>
      </trkpt>
      <trkpt lat="42.234601" lon="2.280693">
        <ele>782</ele>
        <time>2019-08-19T01:43:04Z</time>
      </trkpt>
      <trkpt lat="42.234617" lon="2.280637">
        <ele>782.7</ele>
        <time>2019-08-19T01:43:05Z</time>
      </trkpt>
      <trkpt lat="42.234632" lon="2.280579">
        <ele>783.3</ele>
        <time>2019-08-19T01:43:06Z</time>
      </trkpt>
      <trkpt lat="42.234645" lon="2.280521">
        <ele>783.4</ele>
        <time>2019-08-19T01:43:07Z</time>
      </trkpt>
      <trkpt lat="42.23466" lon="2.280464">
        <ele>783.4</ele>
        <time>2019-08-19T01:43:08Z</time>
      </trkpt>
      <trkpt lat="42.234675" lon="2.280407">
        <ele>783.5</ele>
        <time>2019-08-19T01:43:09Z</time>
      </trkpt>
      <trkpt lat="42.234688" lon="2.280351">
        <ele>783.5</ele>
        <time>2019-08-19T01:43:10Z</time>
      </trkpt>
      <trkpt lat="42.234701" lon="2.280296">
        <ele>783.6</ele>
        <time>2019-08-19T01:43:11Z</time>
      </trkpt>
      <trkpt lat="42.234712" lon="2.280242">
        <ele>783.7</ele>
        <time>2019-08-19T01:43:12Z</time>
      </trkpt>
      <trkpt lat="42.23472" lon="2.280187">
        <ele>783.8</ele>
        <time>2019-08-19T01:43:13Z</time>
      </trkpt>
      <trkpt lat="42.234729" lon="2.280136">
        <ele>784</ele>
        <time>2019-08-19T01:43:14Z</time>
      </trkpt>
      <trkpt lat="42.234736" lon="2.280085">
        <ele>784.1</ele>
        <time>2019-08-19T01:43:15Z</time>
      </trkpt>
      <trkpt lat="42.234743" lon="2.280033">
        <ele>784.3</ele>
        <time>2019-08-19T01:43:16Z</time>
      </trkpt>
      <trkpt lat="42.23475" lon="2.279982">
        <ele>784.5</ele>
        <time>2019-08-19T01:43:17Z</time>
      </trkpt>
      <trkpt lat="42.234758" lon="2.279932">
        <ele>784.7</ele>
        <time>2019-08-19T01:43:18Z</time>
      </trkpt>
      <trkpt lat="42.234766" lon="2.279883">
        <ele>785</ele>
        <time>2019-08-19T01:43:19Z</time>
      </trkpt>
      <trkpt lat="42.234776" lon="2.279826">
        <ele>785.2</ele>
        <time>2019-08-19T01:43:20Z</time>
      </trkpt>
      <trkpt lat="42.234787" lon="2.279765">
        <ele>785.5</ele>
        <time>2019-08-19T01:43:21Z</time>
      </trkpt>
      <trkpt lat="42.234831" lon="2.279672">
        <ele>785.9</ele>
        <time>2019-08-19T01:43:22Z</time>
      </trkpt>
      <trkpt lat="42.234838" lon="2.279587">
        <ele>786.3</ele>
        <time>2019-08-19T01:43:23Z</time>
      </trkpt>
      <trkpt lat="42.234842" lon="2.279507">
        <ele>786.5</ele>
        <time>2019-08-19T01:43:24Z</time>
      </trkpt>
      <trkpt lat="42.234825" lon="2.27946">
        <ele>786.7</ele>
        <time>2019-08-19T01:43:25Z</time>
      </trkpt>
      <trkpt lat="42.234806" lon="2.279408">
        <ele>786.8</ele>
        <time>2019-08-19T01:43:26Z</time>
      </trkpt>
      <trkpt lat="42.234794" lon="2.279341">
        <ele>786.8</ele>
        <time>2019-08-19T01:43:27Z</time>
      </trkpt>
      <trkpt lat="42.234779" lon="2.279272">
        <ele>786.9</ele>
        <time>2019-08-19T01:43:28Z</time>
      </trkpt>
      <trkpt lat="42.234753" lon="2.279209">
        <ele>786.9</ele>
        <time>2019-08-19T01:43:29Z</time>
      </trkpt>
      <trkpt lat="42.234711" lon="2.279177">
        <ele>787</ele>
        <time>2019-08-19T01:43:30Z</time>
      </trkpt>
      <trkpt lat="42.234702" lon="2.279109">
        <ele>787.1</ele>
        <time>2019-08-19T01:43:31Z</time>
      </trkpt>
      <trkpt lat="42.234683" lon="2.279054">
        <ele>787.1</ele>
        <time>2019-08-19T01:43:32Z</time>
      </trkpt>
      <trkpt lat="42.234656" lon="2.279008">
        <ele>787.3</ele>
        <time>2019-08-19T01:43:33Z</time>
      </trkpt>
      <trkpt lat="42.234632" lon="2.278952">
        <ele>787.3</ele>
        <time>2019-08-19T01:43:34Z</time>
      </trkpt>
      <trkpt lat="42.23459" lon="2.278915">
        <ele>787.3</ele>
        <time>2019-08-19T01:43:35Z</time>
      </trkpt>
      <trkpt lat="42.234521" lon="2.278894">
        <ele>787.3</ele>
        <time>2019-08-19T01:43:36Z</time>
      </trkpt>
      <trkpt lat="42.234474" lon="2.278874">
        <ele>787.3</ele>
        <time>2019-08-19T01:43:37Z</time>
      </trkpt>
      <trkpt lat="42.234425" lon="2.278853">
        <ele>787.3</ele>
        <time>2019-08-19T01:43:38Z</time>
      </trkpt>
      <trkpt lat="42.234373" lon="2.278841">
        <ele>787.4</ele>
        <time>2019-08-19T01:43:39Z</time>
      </trkpt>
      <trkpt lat="42.234323" lon="2.278842">
        <ele>787.4</ele>
        <time>2019-08-19T01:43:40Z</time>
      </trkpt>
      <trkpt lat="42.234265" lon="2.278835">
        <ele>787.4</ele>
        <time>2019-08-19T01:43:41Z</time>
      </trkpt>
      <trkpt lat="42.234201" lon="2.278828">
        <ele>787.4</ele>
        <time>2019-08-19T01:43:42Z</time>
      </trkpt>
      <trkpt lat="42.234142" lon="2.278812">
        <ele>787.5</ele>
        <time>2019-08-19T01:43:43Z</time>
      </trkpt>
      <trkpt lat="42.234082" lon="2.278818">
        <ele>787.5</ele>
        <time>2019-08-19T01:43:44Z</time>
      </trkpt>
      <trkpt lat="42.234027" lon="2.278816">
        <ele>787.4</ele>
        <time>2019-08-19T01:43:45Z</time>
      </trkpt>
      <trkpt lat="42.233977" lon="2.278809">
        <ele>787.4</ele>
        <time>2019-08-19T01:43:46Z</time>
      </trkpt>
      <trkpt lat="42.233919" lon="2.278831">
        <ele>787.4</ele>
        <time>2019-08-19T01:43:47Z</time>
      </trkpt>
      <trkpt lat="42.233861" lon="2.278821">
        <ele>787.4</ele>
        <time>2019-08-19T01:43:48Z</time>
      </trkpt>
      <trkpt lat="42.233799" lon="2.278814">
        <ele>787.4</ele>
        <time>2019-08-19T01:43:49Z</time>
      </trkpt>
      <trkpt lat="42.233739" lon="2.278804">
        <ele>787.4</ele>
        <time>2019-08-19T01:43:50Z</time>
      </trkpt>
      <trkpt lat="42.233681" lon="2.278795">
        <ele>787.3</ele>
        <time>2019-08-19T01:43:51Z</time>
      </trkpt>
      <trkpt lat="42.233629" lon="2.278783">
        <ele>787.3</ele>
        <time>2019-08-19T01:43:52Z</time>
      </trkpt>
      <trkpt lat="42.233576" lon="2.278772">
        <ele>787.3</ele>
        <time>2019-08-19T01:43:53Z</time>
      </trkpt>
      <trkpt lat="42.233523" lon="2.278764">
        <ele>787.2</ele>
        <time>2019-08-19T01:43:54Z</time>
      </trkpt>
      <trkpt lat="42.233469" lon="2.278744">
        <ele>787.2</ele>
        <time>2019-08-19T01:43:55Z</time>
      </trkpt>
      <trkpt lat="42.233416" lon="2.278723">
        <ele>787.1</ele>
        <time>2019-08-19T01:43:56Z</time>
      </trkpt>
      <trkpt lat="42.233365" lon="2.278694">
        <ele>787</ele>
        <time>2019-08-19T01:43:57Z</time>
      </trkpt>
      <trkpt lat="42.23331" lon="2.278671">
        <ele>786.9</ele>
        <time>2019-08-19T01:43:58Z</time>
      </trkpt>
      <trkpt lat="42.233263" lon="2.278635">
        <ele>786.8</ele>
        <time>2019-08-19T01:43:59Z</time>
      </trkpt>
      <trkpt lat="42.233216" lon="2.278589">
        <ele>786.7</ele>
        <time>2019-08-19T01:44:00Z</time>
      </trkpt>
      <trkpt lat="42.233177" lon="2.278539">
        <ele>786.6</ele>
        <time>2019-08-19T01:44:01Z</time>
      </trkpt>
      <trkpt lat="42.233136" lon="2.278489">
        <ele>786.4</ele>
        <time>2019-08-19T01:44:02Z</time>
      </trkpt>
      <trkpt lat="42.233091" lon="2.278438">
        <ele>786.3</ele>
        <time>2019-08-19T01:44:03Z</time>
      </trkpt>
      <trkpt lat="42.233052" lon="2.278374">
        <ele>786.1</ele>
        <time>2019-08-19T01:44:04Z</time>
      </trkpt>
      <trkpt lat="42.233007" lon="2.278313">
        <ele>785.9</ele>
        <time>2019-08-19T01:44:05Z</time>
      </trkpt>
      <trkpt lat="42.23297" lon="2.278255">
        <ele>785.7</ele>
        <time>2019-08-19T01:44:06Z</time>
      </trkpt>
      <trkpt lat="42.232935" lon="2.278195">
        <ele>785.6</ele>
        <time>2019-08-19T01:44:07Z</time>
      </trkpt>
      <trkpt lat="42.232898" lon="2.278131">
        <ele>785.4</ele>
        <time>2019-08-19T01:44:08Z</time>
      </trkpt>
      <trkpt lat="42.232869" lon="2.278058">
        <ele>785.3</ele>
        <time>2019-08-19T01:44:09Z</time>
      </trkpt>
      <trkpt lat="42.232836" lon="2.277984">
        <ele>785.1</ele>
        <time>2019-08-19T01:44:10Z</time>
      </trkpt>
      <trkpt lat="42.232803" lon="2.277908">
        <ele>785</ele>
        <time>2019-08-19T01:44:11Z</time>
      </trkpt>
      <trkpt lat="42.232775" lon="2.277826">
        <ele>784.8</ele>
        <time>2019-08-19T01:44:12Z</time>
      </trkpt>
      <trkpt lat="42.232757" lon="2.277743">
        <ele>784.6</ele>
        <time>2019-08-19T01:44:13Z</time>
      </trkpt>
      <trkpt lat="42.232741" lon="2.277668">
        <ele>784.4</ele>
        <time>2019-08-19T01:44:14Z</time>
      </trkpt>
      <trkpt lat="42.232716" lon="2.277589">
        <ele>784.2</ele>
        <time>2019-08-19T01:44:15Z</time>
      </trkpt>
      <trkpt lat="42.232702" lon="2.2775">
        <ele>784</ele>
        <time>2019-08-19T01:44:16Z</time>
      </trkpt>
      <trkpt lat="42.232682" lon="2.277415">
        <ele>783.8</ele>
        <time>2019-08-19T01:44:17Z</time>
      </trkpt>
      <trkpt lat="42.232659" lon="2.277332">
        <ele>783.6</ele>
        <time>2019-08-19T01:44:18Z</time>
      </trkpt>
      <trkpt lat="42.232636" lon="2.27725">
        <ele>783.5</ele>
        <time>2019-08-19T01:44:19Z</time>
      </trkpt>
      <trkpt lat="42.232615" lon="2.277166">
        <ele>783.4</ele>
        <time>2019-08-19T01:44:20Z</time>
      </trkpt>
      <trkpt lat="42.232606" lon="2.277073">
        <ele>783.2</ele>
        <time>2019-08-19T01:44:21Z</time>
      </trkpt>
      <trkpt lat="42.232573" lon="2.276983">
        <ele>783.1</ele>
        <time>2019-08-19T01:44:22Z</time>
      </trkpt>
      <trkpt lat="42.232552" lon="2.27689">
        <ele>782.9</ele>
        <time>2019-08-19T01:44:23Z</time>
      </trkpt>
      <trkpt lat="42.232534" lon="2.276806">
        <ele>782.7</ele>
        <time>2019-08-19T01:44:24Z</time>
      </trkpt>
      <trkpt lat="42.232509" lon="2.276708">
        <ele>782.5</ele>
        <time>2019-08-19T01:44:25Z</time>
      </trkpt>
      <trkpt lat="42.232487" lon="2.276619">
        <ele>782.3</ele>
        <time>2019-08-19T01:44:26Z</time>
      </trkpt>
      <trkpt lat="42.232465" lon="2.276529">
        <ele>782.2</ele>
        <time>2019-08-19T01:44:27Z</time>
      </trkpt>
      <trkpt lat="42.232446" lon="2.276433">
        <ele>782.1</ele>
        <time>2019-08-19T01:44:28Z</time>
      </trkpt>
      <trkpt lat="42.232423" lon="2.276341">
        <ele>782</ele>
        <time>2019-08-19T01:44:29Z</time>
      </trkpt>
      <trkpt lat="42.232398" lon="2.27625">
        <ele>781.8</ele>
        <time>2019-08-19T01:44:30Z</time>
      </trkpt>
      <trkpt lat="42.232379" lon="2.27616">
        <ele>781.7</ele>
        <time>2019-08-19T01:44:31Z</time>
      </trkpt>
      <trkpt lat="42.232354" lon="2.276071">
        <ele>781.6</ele>
        <time>2019-08-19T01:44:32Z</time>
      </trkpt>
      <trkpt lat="42.232334" lon="2.27599">
        <ele>781.5</ele>
        <time>2019-08-19T01:44:33Z</time>
      </trkpt>
      <trkpt lat="42.232318" lon="2.275905">
        <ele>781.3</ele>
        <time>2019-08-19T01:44:34Z</time>
      </trkpt>
      <trkpt lat="42.232302" lon="2.275825">
        <ele>781.2</ele>
        <time>2019-08-19T01:44:35Z</time>
      </trkpt>
      <trkpt lat="42.232272" lon="2.275755">
        <ele>781.1</ele>
        <time>2019-08-19T01:44:36Z</time>
      </trkpt>
      <trkpt lat="42.232258" lon="2.275664">
        <ele>781</ele>
        <time>2019-08-19T01:44:37Z</time>
      </trkpt>
      <trkpt lat="42.232242" lon="2.275592">
        <ele>781</ele>
        <time>2019-08-19T01:44:38Z</time>
      </trkpt>
      <trkpt lat="42.232225" lon="2.275506">
        <ele>780.9</ele>
        <time>2019-08-19T01:44:39Z</time>
      </trkpt>
      <trkpt lat="42.232188" lon="2.275428">
        <ele>780.9</ele>
        <time>2019-08-19T01:44:40Z</time>
      </trkpt>
      <trkpt lat="42.232178" lon="2.275346">
        <ele>780.9</ele>
        <time>2019-08-19T01:44:41Z</time>
      </trkpt>
      <trkpt lat="42.232153" lon="2.275257">
        <ele>780.9</ele>
        <time>2019-08-19T01:44:42Z</time>
      </trkpt>
      <trkpt lat="42.232134" lon="2.275171">
        <ele>780.9</ele>
        <time>2019-08-19T01:44:43Z</time>
      </trkpt>
      <trkpt lat="42.232112" lon="2.275089">
        <ele>780.8</ele>
        <time>2019-08-19T01:44:44Z</time>
      </trkpt>
      <trkpt lat="42.232088" lon="2.275014">
        <ele>780.7</ele>
        <time>2019-08-19T01:44:45Z</time>
      </trkpt>
      <trkpt lat="42.232079" lon="2.274928">
        <ele>780.7</ele>
        <time>2019-08-19T01:44:46Z</time>
      </trkpt>
      <trkpt lat="42.232057" lon="2.274851">
        <ele>780.6</ele>
        <time>2019-08-19T01:44:47Z</time>
      </trkpt>
      <trkpt lat="42.232039" lon="2.274758">
        <ele>780.6</ele>
        <time>2019-08-19T01:44:48Z</time>
      </trkpt>
      <trkpt lat="42.232019" lon="2.274676">
        <ele>780.6</ele>
        <time>2019-08-19T01:44:49Z</time>
      </trkpt>
      <trkpt lat="42.231995" lon="2.274591">
        <ele>780.5</ele>
        <time>2019-08-19T01:44:50Z</time>
      </trkpt>
      <trkpt lat="42.231976" lon="2.274492">
        <ele>780.5</ele>
        <time>2019-08-19T01:44:51Z</time>
      </trkpt>
      <trkpt lat="42.231943" lon="2.274407">
        <ele>780.4</ele>
        <time>2019-08-19T01:44:52Z</time>
      </trkpt>
      <trkpt lat="42.231921" lon="2.274324">
        <ele>780.3</ele>
        <time>2019-08-19T01:44:53Z</time>
      </trkpt>
      <trkpt lat="42.231875" lon="2.274252">
        <ele>780.3</ele>
        <time>2019-08-19T01:44:54Z</time>
      </trkpt>
      <trkpt lat="42.231812" lon="2.274164">
        <ele>780.2</ele>
        <time>2019-08-19T01:44:55Z</time>
      </trkpt>
      <trkpt lat="42.231764" lon="2.274082">
        <ele>780.1</ele>
        <time>2019-08-19T01:44:56Z</time>
      </trkpt>
      <trkpt lat="42.231711" lon="2.273995">
        <ele>780</ele>
        <time>2019-08-19T01:44:57Z</time>
      </trkpt>
      <trkpt lat="42.231666" lon="2.273914">
        <ele>779.8</ele>
        <time>2019-08-19T01:44:58Z</time>
      </trkpt>
      <trkpt lat="42.23162" lon="2.273829">
        <ele>779.7</ele>
        <time>2019-08-19T01:44:59Z</time>
      </trkpt>
      <trkpt lat="42.23158" lon="2.273759">
        <ele>779.5</ele>
        <time>2019-08-19T01:45:00Z</time>
      </trkpt>
      <trkpt lat="42.231541" lon="2.273687">
        <ele>779.3</ele>
        <time>2019-08-19T01:45:01Z</time>
      </trkpt>
      <trkpt lat="42.231474" lon="2.273612">
        <ele>779</ele>
        <time>2019-08-19T01:45:02Z</time>
      </trkpt>
      <trkpt lat="42.231425" lon="2.273544">
        <ele>778.7</ele>
        <time>2019-08-19T01:45:03Z</time>
      </trkpt>
      <trkpt lat="42.231375" lon="2.27349">
        <ele>778.4</ele>
        <time>2019-08-19T01:45:04Z</time>
      </trkpt>
      <trkpt lat="42.231318" lon="2.273405">
        <ele>778.3</ele>
        <time>2019-08-19T01:45:05Z</time>
      </trkpt>
      <trkpt lat="42.231278" lon="2.273348">
        <ele>778.3</ele>
        <time>2019-08-19T01:45:06Z</time>
      </trkpt>
      <trkpt lat="42.231226" lon="2.273275">
        <ele>778.4</ele>
        <time>2019-08-19T01:45:07Z</time>
      </trkpt>
      <trkpt lat="42.231171" lon="2.273198">
        <ele>778.5</ele>
        <time>2019-08-19T01:45:08Z</time>
      </trkpt>
      <trkpt lat="42.231131" lon="2.273113">
        <ele>778.3</ele>
        <time>2019-08-19T01:45:09Z</time>
      </trkpt>
      <trkpt lat="42.23108" lon="2.273026">
        <ele>778.2</ele>
        <time>2019-08-19T01:45:10Z</time>
      </trkpt>
      <trkpt lat="42.231039" lon="2.272935">
        <ele>778</ele>
        <time>2019-08-19T01:45:11Z</time>
      </trkpt>
      <trkpt lat="42.23099" lon="2.272845">
        <ele>777.7</ele>
        <time>2019-08-19T01:45:12Z</time>
      </trkpt>
      <trkpt lat="42.230938" lon="2.272754">
        <ele>777.5</ele>
        <time>2019-08-19T01:45:13Z</time>
      </trkpt>
      <trkpt lat="42.230887" lon="2.272665">
        <ele>777.3</ele>
        <time>2019-08-19T01:45:14Z</time>
      </trkpt>
      <trkpt lat="42.230837" lon="2.272563">
        <ele>777.1</ele>
        <time>2019-08-19T01:45:15Z</time>
      </trkpt>
      <trkpt lat="42.230771" lon="2.272479">
        <ele>776.9</ele>
        <time>2019-08-19T01:45:16Z</time>
      </trkpt>
      <trkpt lat="42.230739" lon="2.272398">
        <ele>776.7</ele>
        <time>2019-08-19T01:45:17Z</time>
      </trkpt>
      <trkpt lat="42.230682" lon="2.272314">
        <ele>776.4</ele>
        <time>2019-08-19T01:45:18Z</time>
      </trkpt>
      <trkpt lat="42.230652" lon="2.272219">
        <ele>776</ele>
        <time>2019-08-19T01:45:19Z</time>
      </trkpt>
      <trkpt lat="42.230596" lon="2.272124">
        <ele>775.6</ele>
        <time>2019-08-19T01:45:20Z</time>
      </trkpt>
      <trkpt lat="42.230553" lon="2.272018">
        <ele>775.6</ele>
        <time>2019-08-19T01:45:21Z</time>
      </trkpt>
      <trkpt lat="42.230497" lon="2.271918">
        <ele>775</ele>
        <time>2019-08-19T01:45:22Z</time>
      </trkpt>
      <trkpt lat="42.230406" lon="2.271789">
        <ele>774.2</ele>
        <time>2019-08-19T01:45:23Z</time>
      </trkpt>
      <trkpt lat="42.230344" lon="2.271678">
        <ele>773.8</ele>
        <time>2019-08-19T01:45:24Z</time>
      </trkpt>
      <trkpt lat="42.230284" lon="2.271568">
        <ele>773.4</ele>
        <time>2019-08-19T01:45:25Z</time>
      </trkpt>
      <trkpt lat="42.230239" lon="2.271458">
        <ele>773.1</ele>
        <time>2019-08-19T01:45:26Z</time>
      </trkpt>
      <trkpt lat="42.230193" lon="2.27135">
        <ele>772.7</ele>
        <time>2019-08-19T01:45:27Z</time>
      </trkpt>
      <trkpt lat="42.230121" lon="2.27126">
        <ele>772.4</ele>
        <time>2019-08-19T01:45:28Z</time>
      </trkpt>
      <trkpt lat="42.230041" lon="2.271136">
        <ele>772</ele>
        <time>2019-08-19T01:45:29Z</time>
      </trkpt>
      <trkpt lat="42.230013" lon="2.271021">
        <ele>771.7</ele>
        <time>2019-08-19T01:45:30Z</time>
      </trkpt>
      <trkpt lat="42.229963" lon="2.270909">
        <ele>771.4</ele>
        <time>2019-08-19T01:45:31Z</time>
      </trkpt>
      <trkpt lat="42.229947" lon="2.270802">
        <ele>771.1</ele>
        <time>2019-08-19T01:45:32Z</time>
      </trkpt>
      <trkpt lat="42.229882" lon="2.270703">
        <ele>770.8</ele>
        <time>2019-08-19T01:45:33Z</time>
      </trkpt>
      <trkpt lat="42.229855" lon="2.270609">
        <ele>770.6</ele>
        <time>2019-08-19T01:45:34Z</time>
      </trkpt>
      <trkpt lat="42.229826" lon="2.270499">
        <ele>770.4</ele>
        <time>2019-08-19T01:45:35Z</time>
      </trkpt>
      <trkpt lat="42.229751" lon="2.270403">
        <ele>770.2</ele>
        <time>2019-08-19T01:45:36Z</time>
      </trkpt>
      <trkpt lat="42.229685" lon="2.270289">
        <ele>769.9</ele>
        <time>2019-08-19T01:45:37Z</time>
      </trkpt>
      <trkpt lat="42.229625" lon="2.270186">
        <ele>769.6</ele>
        <time>2019-08-19T01:45:38Z</time>
      </trkpt>
      <trkpt lat="42.229575" lon="2.27009">
        <ele>769.4</ele>
        <time>2019-08-19T01:45:39Z</time>
      </trkpt>
      <trkpt lat="42.229536" lon="2.270005">
        <ele>769.2</ele>
        <time>2019-08-19T01:45:40Z</time>
      </trkpt>
      <trkpt lat="42.229493" lon="2.269922">
        <ele>769.1</ele>
        <time>2019-08-19T01:45:41Z</time>
      </trkpt>
      <trkpt lat="42.229436" lon="2.269844">
        <ele>768.9</ele>
        <time>2019-08-19T01:45:42Z</time>
      </trkpt>
      <trkpt lat="42.229395" lon="2.26977">
        <ele>768.9</ele>
        <time>2019-08-19T01:45:43Z</time>
      </trkpt>
      <trkpt lat="42.229337" lon="2.269693">
        <ele>768.8</ele>
        <time>2019-08-19T01:45:44Z</time>
      </trkpt>
      <trkpt lat="42.229291" lon="2.26961">
        <ele>768.8</ele>
        <time>2019-08-19T01:45:45Z</time>
      </trkpt>
      <trkpt lat="42.22926" lon="2.269515">
        <ele>768.7</ele>
        <time>2019-08-19T01:45:46Z</time>
      </trkpt>
      <trkpt lat="42.229216" lon="2.269429">
        <ele>768.7</ele>
        <time>2019-08-19T01:45:47Z</time>
      </trkpt>
      <trkpt lat="42.229183" lon="2.269342">
        <ele>768.5</ele>
        <time>2019-08-19T01:45:48Z</time>
      </trkpt>
      <trkpt lat="42.229153" lon="2.26926">
        <ele>768.4</ele>
        <time>2019-08-19T01:45:49Z</time>
      </trkpt>
      <trkpt lat="42.229125" lon="2.269179">
        <ele>768.2</ele>
        <time>2019-08-19T01:45:50Z</time>
      </trkpt>
      <trkpt lat="42.229083" lon="2.269105">
        <ele>768</ele>
        <time>2019-08-19T01:45:51Z</time>
      </trkpt>
      <trkpt lat="42.229029" lon="2.269014">
        <ele>767.8</ele>
        <time>2019-08-19T01:45:52Z</time>
      </trkpt>
      <trkpt lat="42.228978" lon="2.268918">
        <ele>767.5</ele>
        <time>2019-08-19T01:45:53Z</time>
      </trkpt>
      <trkpt lat="42.228937" lon="2.268833">
        <ele>767.3</ele>
        <time>2019-08-19T01:45:54Z</time>
      </trkpt>
      <trkpt lat="42.228899" lon="2.268751">
        <ele>767.1</ele>
        <time>2019-08-19T01:45:55Z</time>
      </trkpt>
      <trkpt lat="42.228848" lon="2.268685">
        <ele>767</ele>
        <time>2019-08-19T01:45:56Z</time>
      </trkpt>
      <trkpt lat="42.228797" lon="2.268612">
        <ele>766.8</ele>
        <time>2019-08-19T01:45:57Z</time>
      </trkpt>
      <trkpt lat="42.228794" lon="2.268515">
        <ele>766.6</ele>
        <time>2019-08-19T01:45:58Z</time>
      </trkpt>
      <trkpt lat="42.228759" lon="2.268432">
        <ele>766.4</ele>
        <time>2019-08-19T01:45:59Z</time>
      </trkpt>
      <trkpt lat="42.228709" lon="2.268323">
        <ele>766.1</ele>
        <time>2019-08-19T01:46:00Z</time>
      </trkpt>
      <trkpt lat="42.22867" lon="2.268244">
        <ele>765.9</ele>
        <time>2019-08-19T01:46:01Z</time>
      </trkpt>
      <trkpt lat="42.22863" lon="2.268155">
        <ele>765.7</ele>
        <time>2019-08-19T01:46:02Z</time>
      </trkpt>
      <trkpt lat="42.228573" lon="2.268057">
        <ele>765.6</ele>
        <time>2019-08-19T01:46:03Z</time>
      </trkpt>
      <trkpt lat="42.228539" lon="2.267962">
        <ele>765.5</ele>
        <time>2019-08-19T01:46:04Z</time>
      </trkpt>
      <trkpt lat="42.228518" lon="2.267847">
        <ele>765.3</ele>
        <time>2019-08-19T01:46:05Z</time>
      </trkpt>
      <trkpt lat="42.228496" lon="2.267745">
        <ele>765.2</ele>
        <time>2019-08-19T01:46:06Z</time>
      </trkpt>
      <trkpt lat="42.228484" lon="2.267656">
        <ele>765</ele>
        <time>2019-08-19T01:46:07Z</time>
      </trkpt>
      <trkpt lat="42.228477" lon="2.267557">
        <ele>764.8</ele>
        <time>2019-08-19T01:46:08Z</time>
      </trkpt>
      <trkpt lat="42.228463" lon="2.267455">
        <ele>764.6</ele>
        <time>2019-08-19T01:46:09Z</time>
      </trkpt>
      <trkpt lat="42.228471" lon="2.267335">
        <ele>764.4</ele>
        <time>2019-08-19T01:46:10Z</time>
      </trkpt>
      <trkpt lat="42.228457" lon="2.267226">
        <ele>764.2</ele>
        <time>2019-08-19T01:46:11Z</time>
      </trkpt>
      <trkpt lat="42.228462" lon="2.26711">
        <ele>764</ele>
        <time>2019-08-19T01:46:12Z</time>
      </trkpt>
      <trkpt lat="42.228451" lon="2.267004">
        <ele>763.9</ele>
        <time>2019-08-19T01:46:13Z</time>
      </trkpt>
      <trkpt lat="42.228439" lon="2.266899">
        <ele>763.8</ele>
        <time>2019-08-19T01:46:14Z</time>
      </trkpt>
      <trkpt lat="42.228433" lon="2.2668">
        <ele>763.6</ele>
        <time>2019-08-19T01:46:15Z</time>
      </trkpt>
      <trkpt lat="42.228418" lon="2.266699">
        <ele>763.4</ele>
        <time>2019-08-19T01:46:16Z</time>
      </trkpt>
      <trkpt lat="42.228408" lon="2.266601">
        <ele>763.2</ele>
        <time>2019-08-19T01:46:17Z</time>
      </trkpt>
      <trkpt lat="42.228392" lon="2.266515">
        <ele>763</ele>
        <time>2019-08-19T01:46:18Z</time>
      </trkpt>
      <trkpt lat="42.2284" lon="2.266397">
        <ele>762.6</ele>
        <time>2019-08-19T01:46:19Z</time>
      </trkpt>
      <trkpt lat="42.228398" lon="2.266276">
        <ele>762.3</ele>
        <time>2019-08-19T01:46:20Z</time>
      </trkpt>
      <trkpt lat="42.228387" lon="2.266185">
        <ele>762.3</ele>
        <time>2019-08-19T01:46:21Z</time>
      </trkpt>
      <trkpt lat="42.228397" lon="2.266082">
        <ele>762.2</ele>
        <time>2019-08-19T01:46:22Z</time>
      </trkpt>
      <trkpt lat="42.228405" lon="2.26595">
        <ele>762.1</ele>
        <time>2019-08-19T01:46:23Z</time>
      </trkpt>
      <trkpt lat="42.228393" lon="2.265837">
        <ele>762</ele>
        <time>2019-08-19T01:46:24Z</time>
      </trkpt>
      <trkpt lat="42.228375" lon="2.265748">
        <ele>761.9</ele>
        <time>2019-08-19T01:46:25Z</time>
      </trkpt>
      <trkpt lat="42.22834" lon="2.265653">
        <ele>761.8</ele>
        <time>2019-08-19T01:46:26Z</time>
      </trkpt>
      <trkpt lat="42.228333" lon="2.265536">
        <ele>761.7</ele>
        <time>2019-08-19T01:46:27Z</time>
      </trkpt>
      <trkpt lat="42.228315" lon="2.265419">
        <ele>761.5</ele>
        <time>2019-08-19T01:46:28Z</time>
      </trkpt>
      <trkpt lat="42.228318" lon="2.2653">
        <ele>761.3</ele>
        <time>2019-08-19T01:46:29Z</time>
      </trkpt>
      <trkpt lat="42.228309" lon="2.265184">
        <ele>761.2</ele>
        <time>2019-08-19T01:46:30Z</time>
      </trkpt>
      <trkpt lat="42.228295" lon="2.265075">
        <ele>761</ele>
        <time>2019-08-19T01:46:31Z</time>
      </trkpt>
      <trkpt lat="42.228289" lon="2.264963">
        <ele>760.8</ele>
        <time>2019-08-19T01:46:32Z</time>
      </trkpt>
      <trkpt lat="42.228301" lon="2.264846">
        <ele>760.7</ele>
        <time>2019-08-19T01:46:33Z</time>
      </trkpt>
      <trkpt lat="42.228334" lon="2.264706">
        <ele>760.5</ele>
        <time>2019-08-19T01:46:34Z</time>
      </trkpt>
      <trkpt lat="42.228331" lon="2.264599">
        <ele>760.5</ele>
        <time>2019-08-19T01:46:35Z</time>
      </trkpt>
      <trkpt lat="42.228324" lon="2.264488">
        <ele>760.4</ele>
        <time>2019-08-19T01:46:36Z</time>
      </trkpt>
      <trkpt lat="42.228297" lon="2.264389">
        <ele>760.2</ele>
        <time>2019-08-19T01:46:37Z</time>
      </trkpt>
      <trkpt lat="42.228299" lon="2.26427">
        <ele>760.1</ele>
        <time>2019-08-19T01:46:38Z</time>
      </trkpt>
      <trkpt lat="42.228289" lon="2.264163">
        <ele>759.9</ele>
        <time>2019-08-19T01:46:39Z</time>
      </trkpt>
      <trkpt lat="42.228279" lon="2.264056">
        <ele>759.7</ele>
        <time>2019-08-19T01:46:40Z</time>
      </trkpt>
      <trkpt lat="42.228262" lon="2.263953">
        <ele>759.4</ele>
        <time>2019-08-19T01:46:41Z</time>
      </trkpt>
      <trkpt lat="42.228253" lon="2.263846">
        <ele>759.2</ele>
        <time>2019-08-19T01:46:42Z</time>
      </trkpt>
      <trkpt lat="42.228232" lon="2.263736">
        <ele>758.9</ele>
        <time>2019-08-19T01:46:43Z</time>
      </trkpt>
      <trkpt lat="42.228211" lon="2.263621">
        <ele>758.6</ele>
        <time>2019-08-19T01:46:44Z</time>
      </trkpt>
      <trkpt lat="42.228196" lon="2.263521">
        <ele>758.4</ele>
        <time>2019-08-19T01:46:45Z</time>
      </trkpt>
      <trkpt lat="42.228199" lon="2.263393">
        <ele>758</ele>
        <time>2019-08-19T01:46:46Z</time>
      </trkpt>
      <trkpt lat="42.228249" lon="2.263243">
        <ele>757.6</ele>
        <time>2019-08-19T01:46:47Z</time>
      </trkpt>
      <trkpt lat="42.228244" lon="2.26313">
        <ele>757.3</ele>
        <time>2019-08-19T01:46:48Z</time>
      </trkpt>
      <trkpt lat="42.228223" lon="2.263018">
        <ele>757</ele>
        <time>2019-08-19T01:46:49Z</time>
      </trkpt>
      <trkpt lat="42.228215" lon="2.262897">
        <ele>756.6</ele>
        <time>2019-08-19T01:46:50Z</time>
      </trkpt>
      <trkpt lat="42.228206" lon="2.26279">
        <ele>756.3</ele>
        <time>2019-08-19T01:46:51Z</time>
      </trkpt>
      <trkpt lat="42.228185" lon="2.262661">
        <ele>756</ele>
        <time>2019-08-19T01:46:52Z</time>
      </trkpt>
      <trkpt lat="42.228158" lon="2.262564">
        <ele>755.7</ele>
        <time>2019-08-19T01:46:53Z</time>
      </trkpt>
      <trkpt lat="42.228143" lon="2.262455">
        <ele>755.4</ele>
        <time>2019-08-19T01:46:54Z</time>
      </trkpt>
      <trkpt lat="42.228131" lon="2.262347">
        <ele>755.1</ele>
        <time>2019-08-19T01:46:55Z</time>
      </trkpt>
      <trkpt lat="42.228119" lon="2.262242">
        <ele>754.8</ele>
        <time>2019-08-19T01:46:56Z</time>
      </trkpt>
      <trkpt lat="42.228097" lon="2.262137">
        <ele>754.5</ele>
        <time>2019-08-19T01:46:57Z</time>
      </trkpt>
      <trkpt lat="42.228083" lon="2.262026">
        <ele>754.2</ele>
        <time>2019-08-19T01:46:58Z</time>
      </trkpt>
      <trkpt lat="42.228059" lon="2.26192">
        <ele>753.9</ele>
        <time>2019-08-19T01:46:59Z</time>
      </trkpt>
      <trkpt lat="42.228036" lon="2.261803">
        <ele>753.6</ele>
        <time>2019-08-19T01:47:00Z</time>
      </trkpt>
      <trkpt lat="42.228024" lon="2.261684">
        <ele>753.4</ele>
        <time>2019-08-19T01:47:01Z</time>
      </trkpt>
      <trkpt lat="42.227994" lon="2.26155">
        <ele>753.3</ele>
        <time>2019-08-19T01:47:02Z</time>
      </trkpt>
      <trkpt lat="42.227977" lon="2.261442">
        <ele>753.2</ele>
        <time>2019-08-19T01:47:03Z</time>
      </trkpt>
      <trkpt lat="42.227961" lon="2.261327">
        <ele>753.1</ele>
        <time>2019-08-19T01:47:04Z</time>
      </trkpt>
      <trkpt lat="42.227925" lon="2.261237">
        <ele>753</ele>
        <time>2019-08-19T01:47:05Z</time>
      </trkpt>
      <trkpt lat="42.227906" lon="2.261138">
        <ele>753</ele>
        <time>2019-08-19T01:47:06Z</time>
      </trkpt>
      <trkpt lat="42.227885" lon="2.261048">
        <ele>753</ele>
        <time>2019-08-19T01:47:07Z</time>
      </trkpt>
      <trkpt lat="42.227873" lon="2.260928">
        <ele>753</ele>
        <time>2019-08-19T01:47:08Z</time>
      </trkpt>
      <trkpt lat="42.227871" lon="2.260822">
        <ele>753.1</ele>
        <time>2019-08-19T01:47:09Z</time>
      </trkpt>
      <trkpt lat="42.227862" lon="2.260722">
        <ele>753.1</ele>
        <time>2019-08-19T01:47:10Z</time>
      </trkpt>
      <trkpt lat="42.22785" lon="2.260625">
        <ele>753.2</ele>
        <time>2019-08-19T01:47:11Z</time>
      </trkpt>
      <trkpt lat="42.227838" lon="2.260521">
        <ele>753.3</ele>
        <time>2019-08-19T01:47:12Z</time>
      </trkpt>
      <trkpt lat="42.227838" lon="2.260411">
        <ele>753.4</ele>
        <time>2019-08-19T01:47:13Z</time>
      </trkpt>
      <trkpt lat="42.227821" lon="2.260314">
        <ele>753.5</ele>
        <time>2019-08-19T01:47:14Z</time>
      </trkpt>
      <trkpt lat="42.227801" lon="2.260206">
        <ele>753.7</ele>
        <time>2019-08-19T01:47:15Z</time>
      </trkpt>
      <trkpt lat="42.227786" lon="2.260099">
        <ele>753.6</ele>
        <time>2019-08-19T01:47:16Z</time>
      </trkpt>
      <trkpt lat="42.227761" lon="2.259982">
        <ele>753.5</ele>
        <time>2019-08-19T01:47:17Z</time>
      </trkpt>
      <trkpt lat="42.227746" lon="2.259863">
        <ele>753.3</ele>
        <time>2019-08-19T01:47:18Z</time>
      </trkpt>
      <trkpt lat="42.227734" lon="2.259744">
        <ele>753.2</ele>
        <time>2019-08-19T01:47:19Z</time>
      </trkpt>
      <trkpt lat="42.227716" lon="2.259635">
        <ele>753.1</ele>
        <time>2019-08-19T01:47:20Z</time>
      </trkpt>
      <trkpt lat="42.227704" lon="2.259516">
        <ele>753</ele>
        <time>2019-08-19T01:47:21Z</time>
      </trkpt>
      <trkpt lat="42.227698" lon="2.259404">
        <ele>752.9</ele>
        <time>2019-08-19T01:47:22Z</time>
      </trkpt>
      <trkpt lat="42.227689" lon="2.259281">
        <ele>752.8</ele>
        <time>2019-08-19T01:47:23Z</time>
      </trkpt>
      <trkpt lat="42.227684" lon="2.259165">
        <ele>752.7</ele>
        <time>2019-08-19T01:47:24Z</time>
      </trkpt>
      <trkpt lat="42.227671" lon="2.259049">
        <ele>752.5</ele>
        <time>2019-08-19T01:47:25Z</time>
      </trkpt>
      <trkpt lat="42.227654" lon="2.258952">
        <ele>752.4</ele>
        <time>2019-08-19T01:47:26Z</time>
      </trkpt>
      <trkpt lat="42.227636" lon="2.25886">
        <ele>752.4</ele>
        <time>2019-08-19T01:47:27Z</time>
      </trkpt>
      <trkpt lat="42.227628" lon="2.258767">
        <ele>752.3</ele>
        <time>2019-08-19T01:47:28Z</time>
      </trkpt>
      <trkpt lat="42.227614" lon="2.258677">
        <ele>752.2</ele>
        <time>2019-08-19T01:47:29Z</time>
      </trkpt>
      <trkpt lat="42.227598" lon="2.25859">
        <ele>752.2</ele>
        <time>2019-08-19T01:47:30Z</time>
      </trkpt>
      <trkpt lat="42.227589" lon="2.25851">
        <ele>752.1</ele>
        <time>2019-08-19T01:47:31Z</time>
      </trkpt>
      <trkpt lat="42.22757" lon="2.25843">
        <ele>752</ele>
        <time>2019-08-19T01:47:32Z</time>
      </trkpt>
      <trkpt lat="42.227551" lon="2.258351">
        <ele>752</ele>
        <time>2019-08-19T01:47:33Z</time>
      </trkpt>
      <trkpt lat="42.22753" lon="2.258271">
        <ele>751.9</ele>
        <time>2019-08-19T01:47:34Z</time>
      </trkpt>
      <trkpt lat="42.227508" lon="2.258192">
        <ele>751.8</ele>
        <time>2019-08-19T01:47:35Z</time>
      </trkpt>
      <trkpt lat="42.227483" lon="2.258113">
        <ele>751.8</ele>
        <time>2019-08-19T01:47:36Z</time>
      </trkpt>
      <trkpt lat="42.22746" lon="2.258037">
        <ele>751.7</ele>
        <time>2019-08-19T01:47:37Z</time>
      </trkpt>
      <trkpt lat="42.22744" lon="2.257962">
        <ele>751.7</ele>
        <time>2019-08-19T01:47:38Z</time>
      </trkpt>
      <trkpt lat="42.227419" lon="2.25789">
        <ele>751.6</ele>
        <time>2019-08-19T01:47:39Z</time>
      </trkpt>
      <trkpt lat="42.227396" lon="2.257817">
        <ele>751.6</ele>
        <time>2019-08-19T01:47:40Z</time>
      </trkpt>
      <trkpt lat="42.227382" lon="2.257736">
        <ele>751.5</ele>
        <time>2019-08-19T01:47:41Z</time>
      </trkpt>
      <trkpt lat="42.227375" lon="2.257649">
        <ele>751.5</ele>
        <time>2019-08-19T01:47:42Z</time>
      </trkpt>
      <trkpt lat="42.227353" lon="2.257576">
        <ele>751.4</ele>
        <time>2019-08-19T01:47:43Z</time>
      </trkpt>
      <trkpt lat="42.227337" lon="2.257469">
        <ele>751.3</ele>
        <time>2019-08-19T01:47:44Z</time>
      </trkpt>
      <trkpt lat="42.22733" lon="2.257404">
        <ele>751.3</ele>
        <time>2019-08-19T01:47:45Z</time>
      </trkpt>
      <trkpt lat="42.227313" lon="2.257337">
        <ele>751.2</ele>
        <time>2019-08-19T01:47:46Z</time>
      </trkpt>
      <trkpt lat="42.227305" lon="2.257262">
        <ele>751.1</ele>
        <time>2019-08-19T01:47:47Z</time>
      </trkpt>
      <trkpt lat="42.227281" lon="2.257196">
        <ele>751.1</ele>
        <time>2019-08-19T01:47:48Z</time>
      </trkpt>
      <trkpt lat="42.227276" lon="2.257114">
        <ele>751</ele>
        <time>2019-08-19T01:47:49Z</time>
      </trkpt>
      <trkpt lat="42.227257" lon="2.257031">
        <ele>750.9</ele>
        <time>2019-08-19T01:47:50Z</time>
      </trkpt>
      <trkpt lat="42.227226" lon="2.256959">
        <ele>750.8</ele>
        <time>2019-08-19T01:47:51Z</time>
      </trkpt>
      <trkpt lat="42.227217" lon="2.256891">
        <ele>750.8</ele>
        <time>2019-08-19T01:47:52Z</time>
      </trkpt>
      <trkpt lat="42.22719" lon="2.256813">
        <ele>750.7</ele>
        <time>2019-08-19T01:47:53Z</time>
      </trkpt>
      <trkpt lat="42.227173" lon="2.256732">
        <ele>750.7</ele>
        <time>2019-08-19T01:47:54Z</time>
      </trkpt>
      <trkpt lat="42.227153" lon="2.256663">
        <ele>750.6</ele>
        <time>2019-08-19T01:47:55Z</time>
      </trkpt>
      <trkpt lat="42.227146" lon="2.25659">
        <ele>750.6</ele>
        <time>2019-08-19T01:47:56Z</time>
      </trkpt>
      <trkpt lat="42.227126" lon="2.256514">
        <ele>750.5</ele>
        <time>2019-08-19T01:47:57Z</time>
      </trkpt>
      <trkpt lat="42.227107" lon="2.25644">
        <ele>750.4</ele>
        <time>2019-08-19T01:47:58Z</time>
      </trkpt>
      <trkpt lat="42.227091" lon="2.256366">
        <ele>750.4</ele>
        <time>2019-08-19T01:47:59Z</time>
      </trkpt>
      <trkpt lat="42.227073" lon="2.256296">
        <ele>750.3</ele>
        <time>2019-08-19T01:48:00Z</time>
      </trkpt>
      <trkpt lat="42.22706" lon="2.256216">
        <ele>750.2</ele>
        <time>2019-08-19T01:48:01Z</time>
      </trkpt>
      <trkpt lat="42.227044" lon="2.256151">
        <ele>750.2</ele>
        <time>2019-08-19T01:48:02Z</time>
      </trkpt>
      <trkpt lat="42.227041" lon="2.256068">
        <ele>750.1</ele>
        <time>2019-08-19T01:48:03Z</time>
      </trkpt>
      <trkpt lat="42.227009" lon="2.256001">
        <ele>750</ele>
        <time>2019-08-19T01:48:04Z</time>
      </trkpt>
      <trkpt lat="42.226991" lon="2.25594">
        <ele>749.9</ele>
        <time>2019-08-19T01:48:05Z</time>
      </trkpt>
      <trkpt lat="42.226984" lon="2.255902">
        <ele>749.9</ele>
        <time>2019-08-19T01:48:06Z</time>
      </trkpt>
      <trkpt lat="42.226969" lon="2.255836">
        <ele>749.8</ele>
        <time>2019-08-19T01:48:07Z</time>
      </trkpt>
      <trkpt lat="42.226954" lon="2.255771">
        <ele>749.8</ele>
        <time>2019-08-19T01:48:08Z</time>
      </trkpt>
      <trkpt lat="42.226938" lon="2.255709">
        <ele>749.7</ele>
        <time>2019-08-19T01:48:09Z</time>
      </trkpt>
      <trkpt lat="42.226924" lon="2.255644">
        <ele>749.6</ele>
        <time>2019-08-19T01:48:10Z</time>
      </trkpt>
      <trkpt lat="42.226897" lon="2.255573">
        <ele>749.6</ele>
        <time>2019-08-19T01:48:11Z</time>
      </trkpt>
      <trkpt lat="42.226888" lon="2.255504">
        <ele>749.5</ele>
        <time>2019-08-19T01:48:12Z</time>
      </trkpt>
      <trkpt lat="42.226887" lon="2.255419">
        <ele>749.4</ele>
        <time>2019-08-19T01:48:13Z</time>
      </trkpt>
      <trkpt lat="42.226868" lon="2.255348">
        <ele>749.4</ele>
        <time>2019-08-19T01:48:14Z</time>
      </trkpt>
      <trkpt lat="42.226854" lon="2.255282">
        <ele>749.4</ele>
        <time>2019-08-19T01:48:15Z</time>
      </trkpt>
      <trkpt lat="42.226838" lon="2.255218">
        <ele>749.4</ele>
        <time>2019-08-19T01:48:16Z</time>
      </trkpt>
      <trkpt lat="42.226827" lon="2.255153">
        <ele>749.4</ele>
        <time>2019-08-19T01:48:17Z</time>
      </trkpt>
      <trkpt lat="42.226805" lon="2.255077">
        <ele>749.4</ele>
        <time>2019-08-19T01:48:18Z</time>
      </trkpt>
      <trkpt lat="42.226799" lon="2.255019">
        <ele>749.4</ele>
        <time>2019-08-19T01:48:19Z</time>
      </trkpt>
      <trkpt lat="42.226797" lon="2.25495">
        <ele>749.5</ele>
        <time>2019-08-19T01:48:20Z</time>
      </trkpt>
      <trkpt lat="42.226784" lon="2.254884">
        <ele>749.5</ele>
        <time>2019-08-19T01:48:21Z</time>
      </trkpt>
      <trkpt lat="42.226759" lon="2.254803">
        <ele>749.7</ele>
        <time>2019-08-19T01:48:22Z</time>
      </trkpt>
      <trkpt lat="42.226734" lon="2.25472">
        <ele>749.8</ele>
        <time>2019-08-19T01:48:23Z</time>
      </trkpt>
      <trkpt lat="42.226714" lon="2.254636">
        <ele>750</ele>
        <time>2019-08-19T01:48:24Z</time>
      </trkpt>
      <trkpt lat="42.226691" lon="2.254562">
        <ele>750.1</ele>
        <time>2019-08-19T01:48:25Z</time>
      </trkpt>
      <trkpt lat="42.226681" lon="2.254474">
        <ele>750.1</ele>
        <time>2019-08-19T01:48:26Z</time>
      </trkpt>
      <trkpt lat="42.226661" lon="2.2544">
        <ele>750.1</ele>
        <time>2019-08-19T01:48:27Z</time>
      </trkpt>
      <trkpt lat="42.226648" lon="2.254318">
        <ele>750.1</ele>
        <time>2019-08-19T01:48:28Z</time>
      </trkpt>
      <trkpt lat="42.226644" lon="2.254234">
        <ele>750</ele>
        <time>2019-08-19T01:48:29Z</time>
      </trkpt>
      <trkpt lat="42.226621" lon="2.25415">
        <ele>749.9</ele>
        <time>2019-08-19T01:48:30Z</time>
      </trkpt>
      <trkpt lat="42.22661" lon="2.254053">
        <ele>749.7</ele>
        <time>2019-08-19T01:48:31Z</time>
      </trkpt>
      <trkpt lat="42.226588" lon="2.253963">
        <ele>749.6</ele>
        <time>2019-08-19T01:48:32Z</time>
      </trkpt>
      <trkpt lat="42.226564" lon="2.253862">
        <ele>749.5</ele>
        <time>2019-08-19T01:48:33Z</time>
      </trkpt>
      <trkpt lat="42.226559" lon="2.253774">
        <ele>749.4</ele>
        <time>2019-08-19T01:48:34Z</time>
      </trkpt>
      <trkpt lat="42.226533" lon="2.253683">
        <ele>749.3</ele>
        <time>2019-08-19T01:48:35Z</time>
      </trkpt>
      <trkpt lat="42.226521" lon="2.253579">
        <ele>749.2</ele>
        <time>2019-08-19T01:48:36Z</time>
      </trkpt>
      <trkpt lat="42.226511" lon="2.253466">
        <ele>749.1</ele>
        <time>2019-08-19T01:48:37Z</time>
      </trkpt>
      <trkpt lat="42.226495" lon="2.25337">
        <ele>749</ele>
        <time>2019-08-19T01:48:38Z</time>
      </trkpt>
      <trkpt lat="42.226471" lon="2.25327">
        <ele>748.9</ele>
        <time>2019-08-19T01:48:39Z</time>
      </trkpt>
      <trkpt lat="42.226446" lon="2.25317">
        <ele>748.8</ele>
        <time>2019-08-19T01:48:40Z</time>
      </trkpt>
      <trkpt lat="42.226424" lon="2.253063">
        <ele>748.7</ele>
        <time>2019-08-19T01:48:41Z</time>
      </trkpt>
      <trkpt lat="42.226407" lon="2.252964">
        <ele>748.6</ele>
        <time>2019-08-19T01:48:42Z</time>
      </trkpt>
      <trkpt lat="42.226366" lon="2.252841">
        <ele>748.4</ele>
        <time>2019-08-19T01:48:43Z</time>
      </trkpt>
      <trkpt lat="42.22633" lon="2.252728">
        <ele>748.2</ele>
        <time>2019-08-19T01:48:44Z</time>
      </trkpt>
      <trkpt lat="42.226302" lon="2.252628">
        <ele>748</ele>
        <time>2019-08-19T01:48:45Z</time>
      </trkpt>
      <trkpt lat="42.226287" lon="2.252519">
        <ele>747.9</ele>
        <time>2019-08-19T01:48:46Z</time>
      </trkpt>
      <trkpt lat="42.226273" lon="2.252411">
        <ele>747.9</ele>
        <time>2019-08-19T01:48:47Z</time>
      </trkpt>
      <trkpt lat="42.22625" lon="2.252297">
        <ele>747.9</ele>
        <time>2019-08-19T01:48:48Z</time>
      </trkpt>
      <trkpt lat="42.226215" lon="2.252201">
        <ele>748</ele>
        <time>2019-08-19T01:48:49Z</time>
      </trkpt>
      <trkpt lat="42.226185" lon="2.252104">
        <ele>748</ele>
        <time>2019-08-19T01:48:50Z</time>
      </trkpt>
      <trkpt lat="42.22616" lon="2.252002">
        <ele>748</ele>
        <time>2019-08-19T01:48:51Z</time>
      </trkpt>
      <trkpt lat="42.226136" lon="2.251897">
        <ele>748</ele>
        <time>2019-08-19T01:48:52Z</time>
      </trkpt>
      <trkpt lat="42.226114" lon="2.251801">
        <ele>748.1</ele>
        <time>2019-08-19T01:48:53Z</time>
      </trkpt>
      <trkpt lat="42.226087" lon="2.251687">
        <ele>748.2</ele>
        <time>2019-08-19T01:48:54Z</time>
      </trkpt>
      <trkpt lat="42.226059" lon="2.251591">
        <ele>748.4</ele>
        <time>2019-08-19T01:48:55Z</time>
      </trkpt>
      <trkpt lat="42.226038" lon="2.251488">
        <ele>748.5</ele>
        <time>2019-08-19T01:48:56Z</time>
      </trkpt>
      <trkpt lat="42.226" lon="2.251378">
        <ele>748.6</ele>
        <time>2019-08-19T01:48:57Z</time>
      </trkpt>
      <trkpt lat="42.225977" lon="2.251278">
        <ele>748.7</ele>
        <time>2019-08-19T01:48:58Z</time>
      </trkpt>
      <trkpt lat="42.225952" lon="2.251183">
        <ele>748.9</ele>
        <time>2019-08-19T01:48:59Z</time>
      </trkpt>
      <trkpt lat="42.225927" lon="2.251085">
        <ele>749</ele>
        <time>2019-08-19T01:49:00Z</time>
      </trkpt>
      <trkpt lat="42.225905" lon="2.250988">
        <ele>749.2</ele>
        <time>2019-08-19T01:49:01Z</time>
      </trkpt>
      <trkpt lat="42.225882" lon="2.250885">
        <ele>749.4</ele>
        <time>2019-08-19T01:49:02Z</time>
      </trkpt>
      <trkpt lat="42.225859" lon="2.250786">
        <ele>749.6</ele>
        <time>2019-08-19T01:49:03Z</time>
      </trkpt>
      <trkpt lat="42.225835" lon="2.250695">
        <ele>749.8</ele>
        <time>2019-08-19T01:49:04Z</time>
      </trkpt>
      <trkpt lat="42.225806" lon="2.250603">
        <ele>750.1</ele>
        <time>2019-08-19T01:49:05Z</time>
      </trkpt>
      <trkpt lat="42.225776" lon="2.2505">
        <ele>750.4</ele>
        <time>2019-08-19T01:49:06Z</time>
      </trkpt>
      <trkpt lat="42.225752" lon="2.250403">
        <ele>750.7</ele>
        <time>2019-08-19T01:49:07Z</time>
      </trkpt>
      <trkpt lat="42.225732" lon="2.250307">
        <ele>751</ele>
        <time>2019-08-19T01:49:08Z</time>
      </trkpt>
      <trkpt lat="42.225716" lon="2.250213">
        <ele>751.2</ele>
        <time>2019-08-19T01:49:09Z</time>
      </trkpt>
      <trkpt lat="42.225702" lon="2.250115">
        <ele>751.5</ele>
        <time>2019-08-19T01:49:10Z</time>
      </trkpt>
      <trkpt lat="42.225686" lon="2.250015">
        <ele>751.8</ele>
        <time>2019-08-19T01:49:11Z</time>
      </trkpt>
      <trkpt lat="42.225674" lon="2.249919">
        <ele>752</ele>
        <time>2019-08-19T01:49:12Z</time>
      </trkpt>
      <trkpt lat="42.22566" lon="2.249818">
        <ele>752.3</ele>
        <time>2019-08-19T01:49:13Z</time>
      </trkpt>
      <trkpt lat="42.225662" lon="2.249721">
        <ele>752.5</ele>
        <time>2019-08-19T01:49:14Z</time>
      </trkpt>
      <trkpt lat="42.225666" lon="2.249622">
        <ele>752.7</ele>
        <time>2019-08-19T01:49:15Z</time>
      </trkpt>
      <trkpt lat="42.225663" lon="2.249528">
        <ele>752.8</ele>
        <time>2019-08-19T01:49:16Z</time>
      </trkpt>
      <trkpt lat="42.225673" lon="2.249436">
        <ele>752.9</ele>
        <time>2019-08-19T01:49:17Z</time>
      </trkpt>
      <trkpt lat="42.225676" lon="2.249355">
        <ele>753.1</ele>
        <time>2019-08-19T01:49:18Z</time>
      </trkpt>
      <trkpt lat="42.225683" lon="2.249265">
        <ele>753.2</ele>
        <time>2019-08-19T01:49:19Z</time>
      </trkpt>
      <trkpt lat="42.225689" lon="2.249182">
        <ele>753.3</ele>
        <time>2019-08-19T01:49:20Z</time>
      </trkpt>
      <trkpt lat="42.225688" lon="2.2491">
        <ele>753.4</ele>
        <time>2019-08-19T01:49:21Z</time>
      </trkpt>
      <trkpt lat="42.225681" lon="2.249017">
        <ele>753.5</ele>
        <time>2019-08-19T01:49:22Z</time>
      </trkpt>
      <trkpt lat="42.225689" lon="2.248896">
        <ele>753.7</ele>
        <time>2019-08-19T01:49:23Z</time>
      </trkpt>
      <trkpt lat="42.225681" lon="2.248803">
        <ele>753.8</ele>
        <time>2019-08-19T01:49:24Z</time>
      </trkpt>
      <trkpt lat="42.225668" lon="2.248717">
        <ele>753.9</ele>
        <time>2019-08-19T01:49:25Z</time>
      </trkpt>
      <trkpt lat="42.225646" lon="2.248635">
        <ele>754</ele>
        <time>2019-08-19T01:49:26Z</time>
      </trkpt>
      <trkpt lat="42.225631" lon="2.248555">
        <ele>754.1</ele>
        <time>2019-08-19T01:49:27Z</time>
      </trkpt>
      <trkpt lat="42.225608" lon="2.248467">
        <ele>754.1</ele>
        <time>2019-08-19T01:49:28Z</time>
      </trkpt>
      <trkpt lat="42.225578" lon="2.248403">
        <ele>754.2</ele>
        <time>2019-08-19T01:49:29Z</time>
      </trkpt>
      <trkpt lat="42.225551" lon="2.248334">
        <ele>754.2</ele>
        <time>2019-08-19T01:49:30Z</time>
      </trkpt>
      <trkpt lat="42.225519" lon="2.248265">
        <ele>754.3</ele>
        <time>2019-08-19T01:49:31Z</time>
      </trkpt>
      <trkpt lat="42.22548" lon="2.248199">
        <ele>754.3</ele>
        <time>2019-08-19T01:49:32Z</time>
      </trkpt>
      <trkpt lat="42.22545" lon="2.248143">
        <ele>754.4</ele>
        <time>2019-08-19T01:49:33Z</time>
      </trkpt>
      <trkpt lat="42.225423" lon="2.248073">
        <ele>754.4</ele>
        <time>2019-08-19T01:49:34Z</time>
      </trkpt>
      <trkpt lat="42.225391" lon="2.24801">
        <ele>754.4</ele>
        <time>2019-08-19T01:49:35Z</time>
      </trkpt>
      <trkpt lat="42.225358" lon="2.247948">
        <ele>754.5</ele>
        <time>2019-08-19T01:49:36Z</time>
      </trkpt>
      <trkpt lat="42.225326" lon="2.24788">
        <ele>754.5</ele>
        <time>2019-08-19T01:49:37Z</time>
      </trkpt>
      <trkpt lat="42.225295" lon="2.24782">
        <ele>754.5</ele>
        <time>2019-08-19T01:49:38Z</time>
      </trkpt>
      <trkpt lat="42.225262" lon="2.247759">
        <ele>754.5</ele>
        <time>2019-08-19T01:49:39Z</time>
      </trkpt>
      <trkpt lat="42.225229" lon="2.2477">
        <ele>754.6</ele>
        <time>2019-08-19T01:49:40Z</time>
      </trkpt>
      <trkpt lat="42.225202" lon="2.247641">
        <ele>754.6</ele>
        <time>2019-08-19T01:49:41Z</time>
      </trkpt>
      <trkpt lat="42.225173" lon="2.247575">
        <ele>754.6</ele>
        <time>2019-08-19T01:49:42Z</time>
      </trkpt>
      <trkpt lat="42.225146" lon="2.247512">
        <ele>754.6</ele>
        <time>2019-08-19T01:49:43Z</time>
      </trkpt>
      <trkpt lat="42.225128" lon="2.247445">
        <ele>754.5</ele>
        <time>2019-08-19T01:49:44Z</time>
      </trkpt>
      <trkpt lat="42.225103" lon="2.247376">
        <ele>754.5</ele>
        <time>2019-08-19T01:49:45Z</time>
      </trkpt>
      <trkpt lat="42.225079" lon="2.247305">
        <ele>754.4</ele>
        <time>2019-08-19T01:49:46Z</time>
      </trkpt>
      <trkpt lat="42.225051" lon="2.247229">
        <ele>754.4</ele>
        <time>2019-08-19T01:49:47Z</time>
      </trkpt>
      <trkpt lat="42.225016" lon="2.247156">
        <ele>754.3</ele>
        <time>2019-08-19T01:49:48Z</time>
      </trkpt>
      <trkpt lat="42.224986" lon="2.247086">
        <ele>754.2</ele>
        <time>2019-08-19T01:49:49Z</time>
      </trkpt>
      <trkpt lat="42.224958" lon="2.247019">
        <ele>754.1</ele>
        <time>2019-08-19T01:49:50Z</time>
      </trkpt>
      <trkpt lat="42.224924" lon="2.246937">
        <ele>753.9</ele>
        <time>2019-08-19T01:49:51Z</time>
      </trkpt>
      <trkpt lat="42.2249" lon="2.24687">
        <ele>753.9</ele>
        <time>2019-08-19T01:49:52Z</time>
      </trkpt>
      <trkpt lat="42.22488" lon="2.246794">
        <ele>753.8</ele>
        <time>2019-08-19T01:49:53Z</time>
      </trkpt>
      <trkpt lat="42.22485" lon="2.246723">
        <ele>753.7</ele>
        <time>2019-08-19T01:49:54Z</time>
      </trkpt>
      <trkpt lat="42.22482" lon="2.246654">
        <ele>753.6</ele>
        <time>2019-08-19T01:49:55Z</time>
      </trkpt>
      <trkpt lat="42.224794" lon="2.246584">
        <ele>753.5</ele>
        <time>2019-08-19T01:49:56Z</time>
      </trkpt>
      <trkpt lat="42.22477" lon="2.246512">
        <ele>753.4</ele>
        <time>2019-08-19T01:49:57Z</time>
      </trkpt>
      <trkpt lat="42.224741" lon="2.246432">
        <ele>753.3</ele>
        <time>2019-08-19T01:49:58Z</time>
      </trkpt>
      <trkpt lat="42.224724" lon="2.246351">
        <ele>753.3</ele>
        <time>2019-08-19T01:49:59Z</time>
      </trkpt>
      <trkpt lat="42.224688" lon="2.246273">
        <ele>753.2</ele>
        <time>2019-08-19T01:50:00Z</time>
      </trkpt>
      <trkpt lat="42.224649" lon="2.246198">
        <ele>753.2</ele>
        <time>2019-08-19T01:50:01Z</time>
      </trkpt>
      <trkpt lat="42.224624" lon="2.246122">
        <ele>753.2</ele>
        <time>2019-08-19T01:50:02Z</time>
      </trkpt>
      <trkpt lat="42.224606" lon="2.246045">
        <ele>753.2</ele>
        <time>2019-08-19T01:50:03Z</time>
      </trkpt>
      <trkpt lat="42.224571" lon="2.245971">
        <ele>753.2</ele>
        <time>2019-08-19T01:50:04Z</time>
      </trkpt>
      <trkpt lat="42.224551" lon="2.245895">
        <ele>753.2</ele>
        <time>2019-08-19T01:50:05Z</time>
      </trkpt>
      <trkpt lat="42.224512" lon="2.245821">
        <ele>753.2</ele>
        <time>2019-08-19T01:50:06Z</time>
      </trkpt>
      <trkpt lat="42.224479" lon="2.245749">
        <ele>753.3</ele>
        <time>2019-08-19T01:50:07Z</time>
      </trkpt>
      <trkpt lat="42.224449" lon="2.245676">
        <ele>753.3</ele>
        <time>2019-08-19T01:50:08Z</time>
      </trkpt>
      <trkpt lat="42.224435" lon="2.245602">
        <ele>753.3</ele>
        <time>2019-08-19T01:50:09Z</time>
      </trkpt>
      <trkpt lat="42.224405" lon="2.245528">
        <ele>753.4</ele>
        <time>2019-08-19T01:50:10Z</time>
      </trkpt>
      <trkpt lat="42.224383" lon="2.245455">
        <ele>753.4</ele>
        <time>2019-08-19T01:50:11Z</time>
      </trkpt>
      <trkpt lat="42.22436" lon="2.245378">
        <ele>753.5</ele>
        <time>2019-08-19T01:50:12Z</time>
      </trkpt>
      <trkpt lat="42.224329" lon="2.245313">
        <ele>753.5</ele>
        <time>2019-08-19T01:50:13Z</time>
      </trkpt>
      <trkpt lat="42.224289" lon="2.245238">
        <ele>753.6</ele>
        <time>2019-08-19T01:50:14Z</time>
      </trkpt>
      <trkpt lat="42.224267" lon="2.245166">
        <ele>753.6</ele>
        <time>2019-08-19T01:50:15Z</time>
      </trkpt>
      <trkpt lat="42.224229" lon="2.245094">
        <ele>753.7</ele>
        <time>2019-08-19T01:50:16Z</time>
      </trkpt>
      <trkpt lat="42.224194" lon="2.24502">
        <ele>753.7</ele>
        <time>2019-08-19T01:50:17Z</time>
      </trkpt>
      <trkpt lat="42.224166" lon="2.244949">
        <ele>753.8</ele>
        <time>2019-08-19T01:50:18Z</time>
      </trkpt>
      <trkpt lat="42.224149" lon="2.244873">
        <ele>753.9</ele>
        <time>2019-08-19T01:50:19Z</time>
      </trkpt>
      <trkpt lat="42.224119" lon="2.244809">
        <ele>754</ele>
        <time>2019-08-19T01:50:20Z</time>
      </trkpt>
      <trkpt lat="42.224093" lon="2.244732">
        <ele>754.1</ele>
        <time>2019-08-19T01:50:21Z</time>
      </trkpt>
      <trkpt lat="42.224061" lon="2.244651">
        <ele>754.2</ele>
        <time>2019-08-19T01:50:22Z</time>
      </trkpt>
      <trkpt lat="42.224027" lon="2.244572">
        <ele>754.3</ele>
        <time>2019-08-19T01:50:23Z</time>
      </trkpt>
      <trkpt lat="42.223999" lon="2.244494">
        <ele>754.5</ele>
        <time>2019-08-19T01:50:24Z</time>
      </trkpt>
      <trkpt lat="42.223975" lon="2.244407">
        <ele>754.4</ele>
        <time>2019-08-19T01:50:25Z</time>
      </trkpt>
      <trkpt lat="42.223941" lon="2.244334">
        <ele>754.3</ele>
        <time>2019-08-19T01:50:26Z</time>
      </trkpt>
      <trkpt lat="42.223901" lon="2.244264">
        <ele>754.3</ele>
        <time>2019-08-19T01:50:27Z</time>
      </trkpt>
      <trkpt lat="42.223866" lon="2.244183">
        <ele>754.2</ele>
        <time>2019-08-19T01:50:28Z</time>
      </trkpt>
      <trkpt lat="42.22385" lon="2.24411">
        <ele>754.1</ele>
        <time>2019-08-19T01:50:29Z</time>
      </trkpt>
      <trkpt lat="42.223824" lon="2.244039">
        <ele>754</ele>
        <time>2019-08-19T01:50:30Z</time>
      </trkpt>
      <trkpt lat="42.22379" lon="2.24396">
        <ele>753.9</ele>
        <time>2019-08-19T01:50:31Z</time>
      </trkpt>
      <trkpt lat="42.223765" lon="2.243889">
        <ele>753.9</ele>
        <time>2019-08-19T01:50:32Z</time>
      </trkpt>
      <trkpt lat="42.223739" lon="2.243801">
        <ele>753.8</ele>
        <time>2019-08-19T01:50:33Z</time>
      </trkpt>
      <trkpt lat="42.223699" lon="2.24372">
        <ele>753.8</ele>
        <time>2019-08-19T01:50:34Z</time>
      </trkpt>
      <trkpt lat="42.223656" lon="2.243637">
        <ele>753.8</ele>
        <time>2019-08-19T01:50:35Z</time>
      </trkpt>
      <trkpt lat="42.223625" lon="2.243563">
        <ele>753.7</ele>
        <time>2019-08-19T01:50:36Z</time>
      </trkpt>
      <trkpt lat="42.223599" lon="2.243478">
        <ele>753.4</ele>
        <time>2019-08-19T01:50:37Z</time>
      </trkpt>
      <trkpt lat="42.223563" lon="2.243399">
        <ele>753.3</ele>
        <time>2019-08-19T01:50:38Z</time>
      </trkpt>
      <trkpt lat="42.223528" lon="2.243325">
        <ele>753.2</ele>
        <time>2019-08-19T01:50:39Z</time>
      </trkpt>
      <trkpt lat="42.223491" lon="2.243242">
        <ele>753</ele>
        <time>2019-08-19T01:50:40Z</time>
      </trkpt>
      <trkpt lat="42.223448" lon="2.243158">
        <ele>752.9</ele>
        <time>2019-08-19T01:50:41Z</time>
      </trkpt>
      <trkpt lat="42.223413" lon="2.243073">
        <ele>752.6</ele>
        <time>2019-08-19T01:50:42Z</time>
      </trkpt>
      <trkpt lat="42.223396" lon="2.24299">
        <ele>752.4</ele>
        <time>2019-08-19T01:50:43Z</time>
      </trkpt>
      <trkpt lat="42.223351" lon="2.242908">
        <ele>752.1</ele>
        <time>2019-08-19T01:50:44Z</time>
      </trkpt>
      <trkpt lat="42.22331" lon="2.242826">
        <ele>751.8</ele>
        <time>2019-08-19T01:50:45Z</time>
      </trkpt>
      <trkpt lat="42.223278" lon="2.242752">
        <ele>751.6</ele>
        <time>2019-08-19T01:50:46Z</time>
      </trkpt>
      <trkpt lat="42.223241" lon="2.242671">
        <ele>751.3</ele>
        <time>2019-08-19T01:50:47Z</time>
      </trkpt>
      <trkpt lat="42.223199" lon="2.242587">
        <ele>751</ele>
        <time>2019-08-19T01:50:48Z</time>
      </trkpt>
      <trkpt lat="42.223162" lon="2.242508">
        <ele>750.7</ele>
        <time>2019-08-19T01:50:49Z</time>
      </trkpt>
      <trkpt lat="42.22312" lon="2.242428">
        <ele>750.4</ele>
        <time>2019-08-19T01:50:50Z</time>
      </trkpt>
      <trkpt lat="42.223078" lon="2.242357">
        <ele>750.1</ele>
        <time>2019-08-19T01:50:51Z</time>
      </trkpt>
      <trkpt lat="42.223037" lon="2.24228">
        <ele>749.8</ele>
        <time>2019-08-19T01:50:52Z</time>
      </trkpt>
      <trkpt lat="42.222997" lon="2.242201">
        <ele>749.3</ele>
        <time>2019-08-19T01:50:53Z</time>
      </trkpt>
      <trkpt lat="42.222958" lon="2.24212">
        <ele>748.9</ele>
        <time>2019-08-19T01:50:54Z</time>
      </trkpt>
      <trkpt lat="42.222908" lon="2.242032">
        <ele>748.3</ele>
        <time>2019-08-19T01:50:55Z</time>
      </trkpt>
      <trkpt lat="42.222866" lon="2.241952">
        <ele>747.9</ele>
        <time>2019-08-19T01:50:56Z</time>
      </trkpt>
      <trkpt lat="42.222809" lon="2.241859">
        <ele>747.3</ele>
        <time>2019-08-19T01:50:57Z</time>
      </trkpt>
      <trkpt lat="42.22277" lon="2.24177">
        <ele>746.8</ele>
        <time>2019-08-19T01:50:58Z</time>
      </trkpt>
      <trkpt lat="42.222723" lon="2.241678">
        <ele>746.4</ele>
        <time>2019-08-19T01:50:59Z</time>
      </trkpt>
      <trkpt lat="42.222679" lon="2.241586">
        <ele>745.9</ele>
        <time>2019-08-19T01:51:00Z</time>
      </trkpt>
      <trkpt lat="42.222629" lon="2.241503">
        <ele>745.5</ele>
        <time>2019-08-19T01:51:01Z</time>
      </trkpt>
      <trkpt lat="42.222572" lon="2.241416">
        <ele>745</ele>
        <time>2019-08-19T01:51:02Z</time>
      </trkpt>
      <trkpt lat="42.222519" lon="2.241334">
        <ele>744.5</ele>
        <time>2019-08-19T01:51:03Z</time>
      </trkpt>
      <trkpt lat="42.222468" lon="2.24125">
        <ele>744</ele>
        <time>2019-08-19T01:51:04Z</time>
      </trkpt>
      <trkpt lat="42.222402" lon="2.24116">
        <ele>743.4</ele>
        <time>2019-08-19T01:51:05Z</time>
      </trkpt>
      <trkpt lat="42.22234" lon="2.241079">
        <ele>743</ele>
        <time>2019-08-19T01:51:06Z</time>
      </trkpt>
      <trkpt lat="42.222274" lon="2.241006">
        <ele>742.6</ele>
        <time>2019-08-19T01:51:07Z</time>
      </trkpt>
      <trkpt lat="42.222209" lon="2.240932">
        <ele>742.3</ele>
        <time>2019-08-19T01:51:08Z</time>
      </trkpt>
      <trkpt lat="42.222143" lon="2.240857">
        <ele>741.9</ele>
        <time>2019-08-19T01:51:09Z</time>
      </trkpt>
      <trkpt lat="42.222085" lon="2.240774">
        <ele>741.6</ele>
        <time>2019-08-19T01:51:10Z</time>
      </trkpt>
      <trkpt lat="42.222034" lon="2.240691">
        <ele>741.1</ele>
        <time>2019-08-19T01:51:11Z</time>
      </trkpt>
      <trkpt lat="42.221948" lon="2.240608">
        <ele>740.6</ele>
        <time>2019-08-19T01:51:12Z</time>
      </trkpt>
      <trkpt lat="42.221882" lon="2.240528">
        <ele>740.3</ele>
        <time>2019-08-19T01:51:13Z</time>
      </trkpt>
      <trkpt lat="42.221809" lon="2.240451">
        <ele>740</ele>
        <time>2019-08-19T01:51:14Z</time>
      </trkpt>
      <trkpt lat="42.221739" lon="2.240364">
        <ele>739.6</ele>
        <time>2019-08-19T01:51:15Z</time>
      </trkpt>
      <trkpt lat="42.221662" lon="2.240284">
        <ele>739.1</ele>
        <time>2019-08-19T01:51:16Z</time>
      </trkpt>
      <trkpt lat="42.221589" lon="2.240196">
        <ele>738.7</ele>
        <time>2019-08-19T01:51:17Z</time>
      </trkpt>
      <trkpt lat="42.221518" lon="2.240116">
        <ele>738.3</ele>
        <time>2019-08-19T01:51:18Z</time>
      </trkpt>
      <trkpt lat="42.221452" lon="2.240023">
        <ele>737.8</ele>
        <time>2019-08-19T01:51:19Z</time>
      </trkpt>
      <trkpt lat="42.221387" lon="2.239916">
        <ele>737.2</ele>
        <time>2019-08-19T01:51:20Z</time>
      </trkpt>
      <trkpt lat="42.221339" lon="2.239807">
        <ele>736.7</ele>
        <time>2019-08-19T01:51:21Z</time>
      </trkpt>
      <trkpt lat="42.221299" lon="2.23968">
        <ele>736.3</ele>
        <time>2019-08-19T01:51:22Z</time>
      </trkpt>
      <trkpt lat="42.221273" lon="2.239546">
        <ele>735.9</ele>
        <time>2019-08-19T01:51:23Z</time>
      </trkpt>
      <trkpt lat="42.22127" lon="2.239408">
        <ele>735.6</ele>
        <time>2019-08-19T01:51:24Z</time>
      </trkpt>
      <trkpt lat="42.221304" lon="2.239277">
        <ele>735.5</ele>
        <time>2019-08-19T01:51:25Z</time>
      </trkpt>
      <trkpt lat="42.221319" lon="2.239129">
        <ele>735.3</ele>
        <time>2019-08-19T01:51:26Z</time>
      </trkpt>
      <trkpt lat="42.221348" lon="2.23899">
        <ele>735.1</ele>
        <time>2019-08-19T01:51:27Z</time>
      </trkpt>
      <trkpt lat="42.221392" lon="2.238846">
        <ele>735</ele>
        <time>2019-08-19T01:51:28Z</time>
      </trkpt>
      <trkpt lat="42.221426" lon="2.2387">
        <ele>734.8</ele>
        <time>2019-08-19T01:51:29Z</time>
      </trkpt>
      <trkpt lat="42.22146" lon="2.238576">
        <ele>734.7</ele>
        <time>2019-08-19T01:51:30Z</time>
      </trkpt>
      <trkpt lat="42.221499" lon="2.238456">
        <ele>734.6</ele>
        <time>2019-08-19T01:51:31Z</time>
      </trkpt>
      <trkpt lat="42.221532" lon="2.238326">
        <ele>734.6</ele>
        <time>2019-08-19T01:51:32Z</time>
      </trkpt>
      <trkpt lat="42.221583" lon="2.238233">
        <ele>734.5</ele>
        <time>2019-08-19T01:51:33Z</time>
      </trkpt>
      <trkpt lat="42.221623" lon="2.23808">
        <ele>734.5</ele>
        <time>2019-08-19T01:51:34Z</time>
      </trkpt>
      <trkpt lat="42.22167" lon="2.237953">
        <ele>734.5</ele>
        <time>2019-08-19T01:51:35Z</time>
      </trkpt>
      <trkpt lat="42.221649" lon="2.237807">
        <ele>734.6</ele>
        <time>2019-08-19T01:51:36Z</time>
      </trkpt>
      <trkpt lat="42.221653" lon="2.237672">
        <ele>734.7</ele>
        <time>2019-08-19T01:51:37Z</time>
      </trkpt>
      <trkpt lat="42.221644" lon="2.237534">
        <ele>734.7</ele>
        <time>2019-08-19T01:51:38Z</time>
      </trkpt>
      <trkpt lat="42.221644" lon="2.237391">
        <ele>734.9</ele>
        <time>2019-08-19T01:51:39Z</time>
      </trkpt>
      <trkpt lat="42.221617" lon="2.237256">
        <ele>735</ele>
        <time>2019-08-19T01:51:40Z</time>
      </trkpt>
      <trkpt lat="42.221609" lon="2.237116">
        <ele>735.3</ele>
        <time>2019-08-19T01:51:41Z</time>
      </trkpt>
      <trkpt lat="42.221588" lon="2.237001">
        <ele>735.6</ele>
        <time>2019-08-19T01:51:42Z</time>
      </trkpt>
      <trkpt lat="42.221586" lon="2.236873">
        <ele>736</ele>
        <time>2019-08-19T01:51:43Z</time>
      </trkpt>
      <trkpt lat="42.221574" lon="2.236743">
        <ele>736.5</ele>
        <time>2019-08-19T01:51:44Z</time>
      </trkpt>
      <trkpt lat="42.221575" lon="2.236626">
        <ele>737.1</ele>
        <time>2019-08-19T01:51:45Z</time>
      </trkpt>
      <trkpt lat="42.221573" lon="2.236509">
        <ele>737.7</ele>
        <time>2019-08-19T01:51:46Z</time>
      </trkpt>
      <trkpt lat="42.221576" lon="2.236401">
        <ele>738.3</ele>
        <time>2019-08-19T01:51:47Z</time>
      </trkpt>
      <trkpt lat="42.221567" lon="2.236304">
        <ele>738.9</ele>
        <time>2019-08-19T01:51:48Z</time>
      </trkpt>
      <trkpt lat="42.221563" lon="2.236199">
        <ele>739.5</ele>
        <time>2019-08-19T01:51:49Z</time>
      </trkpt>
      <trkpt lat="42.221552" lon="2.236114">
        <ele>740</ele>
        <time>2019-08-19T01:51:50Z</time>
      </trkpt>
      <trkpt lat="42.221546" lon="2.236017">
        <ele>740.5</ele>
        <time>2019-08-19T01:51:51Z</time>
      </trkpt>
      <trkpt lat="42.221537" lon="2.235915">
        <ele>741.1</ele>
        <time>2019-08-19T01:51:52Z</time>
      </trkpt>
      <trkpt lat="42.221514" lon="2.235824">
        <ele>741.6</ele>
        <time>2019-08-19T01:51:53Z</time>
      </trkpt>
      <trkpt lat="42.221517" lon="2.235724">
        <ele>742.2</ele>
        <time>2019-08-19T01:51:54Z</time>
      </trkpt>
      <trkpt lat="42.221504" lon="2.235638">
        <ele>742.6</ele>
        <time>2019-08-19T01:51:55Z</time>
      </trkpt>
      <trkpt lat="42.221483" lon="2.235556">
        <ele>743</ele>
        <time>2019-08-19T01:51:56Z</time>
      </trkpt>
      <trkpt lat="42.221458" lon="2.235469">
        <ele>743.4</ele>
        <time>2019-08-19T01:51:57Z</time>
      </trkpt>
      <trkpt lat="42.221437" lon="2.235391">
        <ele>743.8</ele>
        <time>2019-08-19T01:51:58Z</time>
      </trkpt>
      <trkpt lat="42.221416" lon="2.235327">
        <ele>744</ele>
        <time>2019-08-19T01:51:59Z</time>
      </trkpt>
      <trkpt lat="42.221397" lon="2.235248">
        <ele>744.3</ele>
        <time>2019-08-19T01:52:00Z</time>
      </trkpt>
      <trkpt lat="42.221373" lon="2.235184">
        <ele>744.6</ele>
        <time>2019-08-19T01:52:01Z</time>
      </trkpt>
      <trkpt lat="42.221401" lon="2.235116">
        <ele>744.8</ele>
        <time>2019-08-19T01:52:02Z</time>
      </trkpt>
      <trkpt lat="42.221354" lon="2.235022">
        <ele>745.1</ele>
        <time>2019-08-19T01:52:03Z</time>
      </trkpt>
      <trkpt lat="42.221363" lon="2.234949">
        <ele>745.3</ele>
        <time>2019-08-19T01:52:04Z</time>
      </trkpt>
      <trkpt lat="42.221347" lon="2.234891">
        <ele>745.4</ele>
        <time>2019-08-19T01:52:05Z</time>
      </trkpt>
      <trkpt lat="42.221337" lon="2.234844">
        <ele>745.5</ele>
        <time>2019-08-19T01:52:06Z</time>
      </trkpt>
      <trkpt lat="42.221335" lon="2.234783">
        <ele>745.7</ele>
        <time>2019-08-19T01:52:07Z</time>
      </trkpt>
      <trkpt lat="42.221319" lon="2.234727">
        <ele>745.8</ele>
        <time>2019-08-19T01:52:08Z</time>
      </trkpt>
      <trkpt lat="42.221261" lon="2.2347">
        <ele>745.9</ele>
        <time>2019-08-19T01:52:09Z</time>
      </trkpt>
      <trkpt lat="42.221266" lon="2.234659">
        <ele>745.9</ele>
        <time>2019-08-19T01:52:10Z</time>
      </trkpt>
      <trkpt lat="42.221257" lon="2.234608">
        <ele>746</ele>
        <time>2019-08-19T01:52:11Z</time>
      </trkpt>
      <trkpt lat="42.221257" lon="2.234557">
        <ele>746.1</ele>
        <time>2019-08-19T01:52:12Z</time>
      </trkpt>
      <trkpt lat="42.221264" lon="2.234512">
        <ele>746.1</ele>
        <time>2019-08-19T01:52:13Z</time>
      </trkpt>
      <trkpt lat="42.22126" lon="2.234469">
        <ele>746.2</ele>
        <time>2019-08-19T01:52:14Z</time>
      </trkpt>
      <trkpt lat="42.221255" lon="2.234427">
        <ele>746.2</ele>
        <time>2019-08-19T01:52:15Z</time>
      </trkpt>
      <trkpt lat="42.221243" lon="2.234386">
        <ele>746.3</ele>
        <time>2019-08-19T01:52:16Z</time>
      </trkpt>
      <trkpt lat="42.221225" lon="2.234344">
        <ele>746.3</ele>
        <time>2019-08-19T01:52:17Z</time>
      </trkpt>
      <trkpt lat="42.221202" lon="2.234306">
        <ele>746.4</ele>
        <time>2019-08-19T01:52:18Z</time>
      </trkpt>
      <trkpt lat="42.221172" lon="2.234274">
        <ele>746.5</ele>
        <time>2019-08-19T01:52:19Z</time>
      </trkpt>
      <trkpt lat="42.221135" lon="2.234244">
        <ele>746.6</ele>
        <time>2019-08-19T01:52:20Z</time>
      </trkpt>
      <trkpt lat="42.221096" lon="2.234219">
        <ele>746.5</ele>
        <time>2019-08-19T01:52:21Z</time>
      </trkpt>
      <trkpt lat="42.221058" lon="2.234202">
        <ele>746.2</ele>
        <time>2019-08-19T01:52:22Z</time>
      </trkpt>
      <trkpt lat="42.221022" lon="2.234189">
        <ele>746.1</ele>
        <time>2019-08-19T01:52:23Z</time>
      </trkpt>
      <trkpt lat="42.220987" lon="2.234176">
        <ele>745.9</ele>
        <time>2019-08-19T01:52:24Z</time>
      </trkpt>
      <trkpt lat="42.220949" lon="2.234167">
        <ele>745.7</ele>
        <time>2019-08-19T01:52:25Z</time>
      </trkpt>
      <trkpt lat="42.22091" lon="2.234162">
        <ele>745.6</ele>
        <time>2019-08-19T01:52:26Z</time>
      </trkpt>
      <trkpt lat="42.220867" lon="2.234163">
        <ele>745.4</ele>
        <time>2019-08-19T01:52:27Z</time>
      </trkpt>
      <trkpt lat="42.220823" lon="2.234163">
        <ele>745.4</ele>
        <time>2019-08-19T01:52:28Z</time>
      </trkpt>
      <trkpt lat="42.220779" lon="2.234159">
        <ele>745.3</ele>
        <time>2019-08-19T01:52:29Z</time>
      </trkpt>
      <trkpt lat="42.220734" lon="2.234155">
        <ele>745.2</ele>
        <time>2019-08-19T01:52:30Z</time>
      </trkpt>
      <trkpt lat="42.220692" lon="2.23415">
        <ele>745.2</ele>
        <time>2019-08-19T01:52:31Z</time>
      </trkpt>
      <trkpt lat="42.220651" lon="2.234143">
        <ele>745.1</ele>
        <time>2019-08-19T01:52:32Z</time>
      </trkpt>
      <trkpt lat="42.22061" lon="2.234136">
        <ele>745.1</ele>
        <time>2019-08-19T01:52:33Z</time>
      </trkpt>
      <trkpt lat="42.220573" lon="2.234127">
        <ele>745</ele>
        <time>2019-08-19T01:52:34Z</time>
      </trkpt>
      <trkpt lat="42.220535" lon="2.234111">
        <ele>745</ele>
        <time>2019-08-19T01:52:35Z</time>
      </trkpt>
      <trkpt lat="42.220494" lon="2.234086">
        <ele>744.9</ele>
        <time>2019-08-19T01:52:36Z</time>
      </trkpt>
      <trkpt lat="42.220444" lon="2.234041">
        <ele>744.8</ele>
        <time>2019-08-19T01:52:37Z</time>
      </trkpt>
      <trkpt lat="42.220404" lon="2.23401">
        <ele>744.7</ele>
        <time>2019-08-19T01:52:38Z</time>
      </trkpt>
      <trkpt lat="42.220349" lon="2.23399">
        <ele>744.6</ele>
        <time>2019-08-19T01:52:39Z</time>
      </trkpt>
      <trkpt lat="42.220324" lon="2.233932">
        <ele>744.5</ele>
        <time>2019-08-19T01:52:40Z</time>
      </trkpt>
      <trkpt lat="42.220297" lon="2.233885">
        <ele>744.4</ele>
        <time>2019-08-19T01:52:41Z</time>
      </trkpt>
      <trkpt lat="42.220259" lon="2.233856">
        <ele>744.3</ele>
        <time>2019-08-19T01:52:42Z</time>
      </trkpt>
      <trkpt lat="42.220224" lon="2.233803">
        <ele>744.2</ele>
        <time>2019-08-19T01:52:43Z</time>
      </trkpt>
      <trkpt lat="42.220194" lon="2.233749">
        <ele>744.1</ele>
        <time>2019-08-19T01:52:44Z</time>
      </trkpt>
      <trkpt lat="42.220147" lon="2.233698">
        <ele>744</ele>
        <time>2019-08-19T01:52:45Z</time>
      </trkpt>
      <trkpt lat="42.220116" lon="2.233649">
        <ele>744</ele>
        <time>2019-08-19T01:52:46Z</time>
      </trkpt>
      <trkpt lat="42.220081" lon="2.233603">
        <ele>743.9</ele>
        <time>2019-08-19T01:52:47Z</time>
      </trkpt>
      <trkpt lat="42.220052" lon="2.233536">
        <ele>743.9</ele>
        <time>2019-08-19T01:52:48Z</time>
      </trkpt>
      <trkpt lat="42.220024" lon="2.233488">
        <ele>743.8</ele>
        <time>2019-08-19T01:52:49Z</time>
      </trkpt>
      <trkpt lat="42.220009" lon="2.233434">
        <ele>743.8</ele>
        <time>2019-08-19T01:52:50Z</time>
      </trkpt>
      <trkpt lat="42.219992" lon="2.233388">
        <ele>743.8</ele>
        <time>2019-08-19T01:52:51Z</time>
      </trkpt>
      <trkpt lat="42.219981" lon="2.233326">
        <ele>743.8</ele>
        <time>2019-08-19T01:52:52Z</time>
      </trkpt>
      <trkpt lat="42.219961" lon="2.233264">
        <ele>743.7</ele>
        <time>2019-08-19T01:52:53Z</time>
      </trkpt>
      <trkpt lat="42.219947" lon="2.2332">
        <ele>743.7</ele>
        <time>2019-08-19T01:52:54Z</time>
      </trkpt>
      <trkpt lat="42.219944" lon="2.233131">
        <ele>743.6</ele>
        <time>2019-08-19T01:52:55Z</time>
      </trkpt>
      <trkpt lat="42.219935" lon="2.233062">
        <ele>743.6</ele>
        <time>2019-08-19T01:52:56Z</time>
      </trkpt>
      <trkpt lat="42.219945" lon="2.232986">
        <ele>743.5</ele>
        <time>2019-08-19T01:52:57Z</time>
      </trkpt>
      <trkpt lat="42.21994" lon="2.232923">
        <ele>743.5</ele>
        <time>2019-08-19T01:52:58Z</time>
      </trkpt>
      <trkpt lat="42.219944" lon="2.232856">
        <ele>743.5</ele>
        <time>2019-08-19T01:52:59Z</time>
      </trkpt>
      <trkpt lat="42.219943" lon="2.232783">
        <ele>743.4</ele>
        <time>2019-08-19T01:53:00Z</time>
      </trkpt>
      <trkpt lat="42.219945" lon="2.232708">
        <ele>743.4</ele>
        <time>2019-08-19T01:53:01Z</time>
      </trkpt>
      <trkpt lat="42.219952" lon="2.232625">
        <ele>743.3</ele>
        <time>2019-08-19T01:53:02Z</time>
      </trkpt>
      <trkpt lat="42.219974" lon="2.232557">
        <ele>743.3</ele>
        <time>2019-08-19T01:53:03Z</time>
      </trkpt>
      <trkpt lat="42.219974" lon="2.232483">
        <ele>743.1</ele>
        <time>2019-08-19T01:53:04Z</time>
      </trkpt>
      <trkpt lat="42.219981" lon="2.232406">
        <ele>743</ele>
        <time>2019-08-19T01:53:05Z</time>
      </trkpt>
      <trkpt lat="42.219984" lon="2.232319">
        <ele>742.9</ele>
        <time>2019-08-19T01:53:06Z</time>
      </trkpt>
      <trkpt lat="42.219973" lon="2.232238">
        <ele>742.8</ele>
        <time>2019-08-19T01:53:07Z</time>
      </trkpt>
      <trkpt lat="42.219976" lon="2.232164">
        <ele>742.7</ele>
        <time>2019-08-19T01:53:08Z</time>
      </trkpt>
      <trkpt lat="42.219964" lon="2.232072">
        <ele>742.5</ele>
        <time>2019-08-19T01:53:09Z</time>
      </trkpt>
      <trkpt lat="42.219968" lon="2.231985">
        <ele>742.4</ele>
        <time>2019-08-19T01:53:10Z</time>
      </trkpt>
      <trkpt lat="42.219964" lon="2.231901">
        <ele>742.2</ele>
        <time>2019-08-19T01:53:11Z</time>
      </trkpt>
      <trkpt lat="42.219961" lon="2.231801">
        <ele>742</ele>
        <time>2019-08-19T01:53:12Z</time>
      </trkpt>
      <trkpt lat="42.219972" lon="2.231711">
        <ele>741.8</ele>
        <time>2019-08-19T01:53:13Z</time>
      </trkpt>
      <trkpt lat="42.219956" lon="2.231638">
        <ele>741.7</ele>
        <time>2019-08-19T01:53:14Z</time>
      </trkpt>
      <trkpt lat="42.219946" lon="2.231558">
        <ele>741.5</ele>
        <time>2019-08-19T01:53:15Z</time>
      </trkpt>
      <trkpt lat="42.21993" lon="2.231479">
        <ele>741.3</ele>
        <time>2019-08-19T01:53:16Z</time>
      </trkpt>
      <trkpt lat="42.219915" lon="2.231401">
        <ele>741.2</ele>
        <time>2019-08-19T01:53:17Z</time>
      </trkpt>
      <trkpt lat="42.219913" lon="2.231318">
        <ele>741</ele>
        <time>2019-08-19T01:53:18Z</time>
      </trkpt>
      <trkpt lat="42.219918" lon="2.231238">
        <ele>740.8</ele>
        <time>2019-08-19T01:53:19Z</time>
      </trkpt>
      <trkpt lat="42.219915" lon="2.231154">
        <ele>740.7</ele>
        <time>2019-08-19T01:53:20Z</time>
      </trkpt>
      <trkpt lat="42.219908" lon="2.231062">
        <ele>740.5</ele>
        <time>2019-08-19T01:53:21Z</time>
      </trkpt>
      <trkpt lat="42.21991" lon="2.230984">
        <ele>740.4</ele>
        <time>2019-08-19T01:53:22Z</time>
      </trkpt>
      <trkpt lat="42.219911" lon="2.230894">
        <ele>740.3</ele>
        <time>2019-08-19T01:53:23Z</time>
      </trkpt>
      <trkpt lat="42.219902" lon="2.230812">
        <ele>740.1</ele>
        <time>2019-08-19T01:53:24Z</time>
      </trkpt>
      <trkpt lat="42.2199" lon="2.230728">
        <ele>740</ele>
        <time>2019-08-19T01:53:25Z</time>
      </trkpt>
      <trkpt lat="42.219912" lon="2.230591">
        <ele>739.7</ele>
        <time>2019-08-19T01:53:26Z</time>
      </trkpt>
      <trkpt lat="42.21991" lon="2.230495">
        <ele>739.5</ele>
        <time>2019-08-19T01:53:27Z</time>
      </trkpt>
      <trkpt lat="42.219903" lon="2.230393">
        <ele>739.3</ele>
        <time>2019-08-19T01:53:28Z</time>
      </trkpt>
      <trkpt lat="42.219897" lon="2.230303">
        <ele>739.2</ele>
        <time>2019-08-19T01:53:29Z</time>
      </trkpt>
      <trkpt lat="42.219883" lon="2.230202">
        <ele>739.1</ele>
        <time>2019-08-19T01:53:30Z</time>
      </trkpt>
      <trkpt lat="42.219881" lon="2.230097">
        <ele>738.9</ele>
        <time>2019-08-19T01:53:31Z</time>
      </trkpt>
      <trkpt lat="42.219871" lon="2.229991">
        <ele>738.8</ele>
        <time>2019-08-19T01:53:32Z</time>
      </trkpt>
      <trkpt lat="42.219863" lon="2.229884">
        <ele>738.6</ele>
        <time>2019-08-19T01:53:33Z</time>
      </trkpt>
      <trkpt lat="42.219855" lon="2.22977">
        <ele>738.5</ele>
        <time>2019-08-19T01:53:34Z</time>
      </trkpt>
      <trkpt lat="42.219847" lon="2.229654">
        <ele>738.1</ele>
        <time>2019-08-19T01:53:35Z</time>
      </trkpt>
      <trkpt lat="42.219837" lon="2.229551">
        <ele>738</ele>
        <time>2019-08-19T01:53:36Z</time>
      </trkpt>
      <trkpt lat="42.219833" lon="2.229448">
        <ele>737.9</ele>
        <time>2019-08-19T01:53:37Z</time>
      </trkpt>
      <trkpt lat="42.219822" lon="2.229333">
        <ele>737.8</ele>
        <time>2019-08-19T01:53:38Z</time>
      </trkpt>
      <trkpt lat="42.219816" lon="2.229216">
        <ele>737.6</ele>
        <time>2019-08-19T01:53:39Z</time>
      </trkpt>
      <trkpt lat="42.219806" lon="2.229106">
        <ele>737.4</ele>
        <time>2019-08-19T01:53:40Z</time>
      </trkpt>
      <trkpt lat="42.219797" lon="2.229005">
        <ele>737.2</ele>
        <time>2019-08-19T01:53:41Z</time>
      </trkpt>
      <trkpt lat="42.219782" lon="2.22887">
        <ele>737</ele>
        <time>2019-08-19T01:53:42Z</time>
      </trkpt>
      <trkpt lat="42.219766" lon="2.228763">
        <ele>736.7</ele>
        <time>2019-08-19T01:53:43Z</time>
      </trkpt>
      <trkpt lat="42.219756" lon="2.228659">
        <ele>736.5</ele>
        <time>2019-08-19T01:53:44Z</time>
      </trkpt>
      <trkpt lat="42.219744" lon="2.228558">
        <ele>736.4</ele>
        <time>2019-08-19T01:53:45Z</time>
      </trkpt>
      <trkpt lat="42.219735" lon="2.228449">
        <ele>736.3</ele>
        <time>2019-08-19T01:53:46Z</time>
      </trkpt>
      <trkpt lat="42.219729" lon="2.228344">
        <ele>736.2</ele>
        <time>2019-08-19T01:53:47Z</time>
      </trkpt>
      <trkpt lat="42.219719" lon="2.228231">
        <ele>736.1</ele>
        <time>2019-08-19T01:53:48Z</time>
      </trkpt>
      <trkpt lat="42.219712" lon="2.228127">
        <ele>736.1</ele>
        <time>2019-08-19T01:53:49Z</time>
      </trkpt>
      <trkpt lat="42.219702" lon="2.228025">
        <ele>736</ele>
        <time>2019-08-19T01:53:50Z</time>
      </trkpt>
      <trkpt lat="42.219706" lon="2.22791">
        <ele>735.9</ele>
        <time>2019-08-19T01:53:51Z</time>
      </trkpt>
      <trkpt lat="42.219688" lon="2.227796">
        <ele>735.8</ele>
        <time>2019-08-19T01:53:52Z</time>
      </trkpt>
      <trkpt lat="42.219686" lon="2.22769">
        <ele>735.6</ele>
        <time>2019-08-19T01:53:53Z</time>
      </trkpt>
      <trkpt lat="42.21968" lon="2.227589">
        <ele>735.3</ele>
        <time>2019-08-19T01:53:54Z</time>
      </trkpt>
      <trkpt lat="42.219665" lon="2.227498">
        <ele>735.1</ele>
        <time>2019-08-19T01:53:55Z</time>
      </trkpt>
      <trkpt lat="42.219654" lon="2.22741">
        <ele>734.8</ele>
        <time>2019-08-19T01:53:56Z</time>
      </trkpt>
      <trkpt lat="42.219653" lon="2.227322">
        <ele>734.6</ele>
        <time>2019-08-19T01:53:57Z</time>
      </trkpt>
      <trkpt lat="42.219639" lon="2.227227">
        <ele>734.4</ele>
        <time>2019-08-19T01:53:58Z</time>
      </trkpt>
      <trkpt lat="42.219625" lon="2.227122">
        <ele>734.3</ele>
        <time>2019-08-19T01:53:59Z</time>
      </trkpt>
      <trkpt lat="42.219609" lon="2.227022">
        <ele>734.3</ele>
        <time>2019-08-19T01:54:00Z</time>
      </trkpt>
      <trkpt lat="42.219622" lon="2.226931">
        <ele>734.3</ele>
        <time>2019-08-19T01:54:01Z</time>
      </trkpt>
      <trkpt lat="42.219621" lon="2.226847">
        <ele>734.4</ele>
        <time>2019-08-19T01:54:02Z</time>
      </trkpt>
      <trkpt lat="42.219617" lon="2.226746">
        <ele>734.5</ele>
        <time>2019-08-19T01:54:03Z</time>
      </trkpt>
      <trkpt lat="42.219617" lon="2.226641">
        <ele>734.6</ele>
        <time>2019-08-19T01:54:04Z</time>
      </trkpt>
      <trkpt lat="42.21961" lon="2.226539">
        <ele>734.7</ele>
        <time>2019-08-19T01:54:05Z</time>
      </trkpt>
      <trkpt lat="42.219611" lon="2.226436">
        <ele>734.9</ele>
        <time>2019-08-19T01:54:06Z</time>
      </trkpt>
      <trkpt lat="42.2196" lon="2.22632">
        <ele>735</ele>
        <time>2019-08-19T01:54:07Z</time>
      </trkpt>
      <trkpt lat="42.219586" lon="2.226216">
        <ele>735.1</ele>
        <time>2019-08-19T01:54:08Z</time>
      </trkpt>
      <trkpt lat="42.219572" lon="2.226113">
        <ele>735.2</ele>
        <time>2019-08-19T01:54:09Z</time>
      </trkpt>
      <trkpt lat="42.219562" lon="2.226003">
        <ele>735.3</ele>
        <time>2019-08-19T01:54:10Z</time>
      </trkpt>
      <trkpt lat="42.219553" lon="2.225904">
        <ele>735.3</ele>
        <time>2019-08-19T01:54:11Z</time>
      </trkpt>
      <trkpt lat="42.219552" lon="2.225803">
        <ele>735.4</ele>
        <time>2019-08-19T01:54:12Z</time>
      </trkpt>
      <trkpt lat="42.21955" lon="2.225694">
        <ele>735.4</ele>
        <time>2019-08-19T01:54:13Z</time>
      </trkpt>
      <trkpt lat="42.219552" lon="2.225595">
        <ele>735.5</ele>
        <time>2019-08-19T01:54:14Z</time>
      </trkpt>
      <trkpt lat="42.219542" lon="2.225475">
        <ele>735.6</ele>
        <time>2019-08-19T01:54:15Z</time>
      </trkpt>
      <trkpt lat="42.21955" lon="2.22535">
        <ele>735.8</ele>
        <time>2019-08-19T01:54:16Z</time>
      </trkpt>
      <trkpt lat="42.219532" lon="2.225229">
        <ele>736</ele>
        <time>2019-08-19T01:54:17Z</time>
      </trkpt>
      <trkpt lat="42.219521" lon="2.225122">
        <ele>735.6</ele>
        <time>2019-08-19T01:54:18Z</time>
      </trkpt>
      <trkpt lat="42.219512" lon="2.225009">
        <ele>735.9</ele>
        <time>2019-08-19T01:54:19Z</time>
      </trkpt>
      <trkpt lat="42.21951" lon="2.22491">
        <ele>736</ele>
        <time>2019-08-19T01:54:20Z</time>
      </trkpt>
      <trkpt lat="42.219513" lon="2.224804">
        <ele>736</ele>
        <time>2019-08-19T01:54:21Z</time>
      </trkpt>
      <trkpt lat="42.219518" lon="2.224703">
        <ele>736.1</ele>
        <time>2019-08-19T01:54:22Z</time>
      </trkpt>
      <trkpt lat="42.219515" lon="2.224598">
        <ele>736.1</ele>
        <time>2019-08-19T01:54:23Z</time>
      </trkpt>
      <trkpt lat="42.219511" lon="2.224496">
        <ele>736.2</ele>
        <time>2019-08-19T01:54:24Z</time>
      </trkpt>
      <trkpt lat="42.219509" lon="2.224385">
        <ele>736.2</ele>
        <time>2019-08-19T01:54:25Z</time>
      </trkpt>
      <trkpt lat="42.219515" lon="2.224272">
        <ele>735.9</ele>
        <time>2019-08-19T01:54:26Z</time>
      </trkpt>
      <trkpt lat="42.21952" lon="2.224164">
        <ele>735.7</ele>
        <time>2019-08-19T01:54:27Z</time>
      </trkpt>
      <trkpt lat="42.219521" lon="2.22405">
        <ele>735.3</ele>
        <time>2019-08-19T01:54:28Z</time>
      </trkpt>
      <trkpt lat="42.219519" lon="2.223941">
        <ele>734.9</ele>
        <time>2019-08-19T01:54:29Z</time>
      </trkpt>
      <trkpt lat="42.219527" lon="2.22383">
        <ele>734.4</ele>
        <time>2019-08-19T01:54:30Z</time>
      </trkpt>
      <trkpt lat="42.219527" lon="2.223712">
        <ele>734</ele>
        <time>2019-08-19T01:54:31Z</time>
      </trkpt>
      <trkpt lat="42.219534" lon="2.223597">
        <ele>733.6</ele>
        <time>2019-08-19T01:54:32Z</time>
      </trkpt>
      <trkpt lat="42.219542" lon="2.223498">
        <ele>733.3</ele>
        <time>2019-08-19T01:54:33Z</time>
      </trkpt>
      <trkpt lat="42.219512" lon="2.223406">
        <ele>733</ele>
        <time>2019-08-19T01:54:34Z</time>
      </trkpt>
      <trkpt lat="42.219519" lon="2.223303">
        <ele>732.8</ele>
        <time>2019-08-19T01:54:35Z</time>
      </trkpt>
      <trkpt lat="42.219512" lon="2.223196">
        <ele>732.6</ele>
        <time>2019-08-19T01:54:36Z</time>
      </trkpt>
      <trkpt lat="42.219512" lon="2.223095">
        <ele>732.5</ele>
        <time>2019-08-19T01:54:37Z</time>
      </trkpt>
      <trkpt lat="42.219512" lon="2.222997">
        <ele>732.3</ele>
        <time>2019-08-19T01:54:38Z</time>
      </trkpt>
      <trkpt lat="42.219519" lon="2.222908">
        <ele>732.2</ele>
        <time>2019-08-19T01:54:39Z</time>
      </trkpt>
      <trkpt lat="42.219513" lon="2.222802">
        <ele>732.1</ele>
        <time>2019-08-19T01:54:40Z</time>
      </trkpt>
      <trkpt lat="42.219511" lon="2.222697">
        <ele>731.8</ele>
        <time>2019-08-19T01:54:41Z</time>
      </trkpt>
      <trkpt lat="42.219513" lon="2.222615">
        <ele>731.6</ele>
        <time>2019-08-19T01:54:42Z</time>
      </trkpt>
      <trkpt lat="42.219527" lon="2.222508">
        <ele>731.3</ele>
        <time>2019-08-19T01:54:43Z</time>
      </trkpt>
      <trkpt lat="42.219532" lon="2.222407">
        <ele>731</ele>
        <time>2019-08-19T01:54:44Z</time>
      </trkpt>
      <trkpt lat="42.219529" lon="2.2223">
        <ele>730.6</ele>
        <time>2019-08-19T01:54:45Z</time>
      </trkpt>
      <trkpt lat="42.219528" lon="2.222209">
        <ele>730.3</ele>
        <time>2019-08-19T01:54:46Z</time>
      </trkpt>
      <trkpt lat="42.21952" lon="2.222101">
        <ele>729.9</ele>
        <time>2019-08-19T01:54:47Z</time>
      </trkpt>
      <trkpt lat="42.219519" lon="2.222009">
        <ele>729.5</ele>
        <time>2019-08-19T01:54:48Z</time>
      </trkpt>
      <trkpt lat="42.219517" lon="2.221897">
        <ele>729.1</ele>
        <time>2019-08-19T01:54:49Z</time>
      </trkpt>
      <trkpt lat="42.219516" lon="2.221791">
        <ele>728.7</ele>
        <time>2019-08-19T01:54:50Z</time>
      </trkpt>
      <trkpt lat="42.21952" lon="2.221683">
        <ele>728.4</ele>
        <time>2019-08-19T01:54:51Z</time>
      </trkpt>
      <trkpt lat="42.219517" lon="2.221555">
        <ele>728</ele>
        <time>2019-08-19T01:54:52Z</time>
      </trkpt>
      <trkpt lat="42.219523" lon="2.221442">
        <ele>727.7</ele>
        <time>2019-08-19T01:54:53Z</time>
      </trkpt>
      <trkpt lat="42.219516" lon="2.221333">
        <ele>727.4</ele>
        <time>2019-08-19T01:54:54Z</time>
      </trkpt>
      <trkpt lat="42.219517" lon="2.221221">
        <ele>727.1</ele>
        <time>2019-08-19T01:54:55Z</time>
      </trkpt>
      <trkpt lat="42.219521" lon="2.221104">
        <ele>726.7</ele>
        <time>2019-08-19T01:54:56Z</time>
      </trkpt>
      <trkpt lat="42.219524" lon="2.220984">
        <ele>726.4</ele>
        <time>2019-08-19T01:54:57Z</time>
      </trkpt>
      <trkpt lat="42.219522" lon="2.220866">
        <ele>726.1</ele>
        <time>2019-08-19T01:54:58Z</time>
      </trkpt>
      <trkpt lat="42.219521" lon="2.220741">
        <ele>726</ele>
        <time>2019-08-19T01:54:59Z</time>
      </trkpt>
      <trkpt lat="42.219517" lon="2.220611">
        <ele>725.8</ele>
        <time>2019-08-19T01:55:00Z</time>
      </trkpt>
      <trkpt lat="42.219521" lon="2.220494">
        <ele>725.6</ele>
        <time>2019-08-19T01:55:01Z</time>
      </trkpt>
      <trkpt lat="42.219522" lon="2.220371">
        <ele>725.4</ele>
        <time>2019-08-19T01:55:02Z</time>
      </trkpt>
      <trkpt lat="42.219515" lon="2.220261">
        <ele>725.3</ele>
        <time>2019-08-19T01:55:03Z</time>
      </trkpt>
      <trkpt lat="42.219517" lon="2.220137">
        <ele>725.1</ele>
        <time>2019-08-19T01:55:04Z</time>
      </trkpt>
      <trkpt lat="42.219538" lon="2.220027">
        <ele>724.9</ele>
        <time>2019-08-19T01:55:05Z</time>
      </trkpt>
      <trkpt lat="42.219541" lon="2.219903">
        <ele>724.7</ele>
        <time>2019-08-19T01:55:06Z</time>
      </trkpt>
      <trkpt lat="42.219539" lon="2.219777">
        <ele>724.5</ele>
        <time>2019-08-19T01:55:07Z</time>
      </trkpt>
      <trkpt lat="42.219541" lon="2.219653">
        <ele>724.3</ele>
        <time>2019-08-19T01:55:08Z</time>
      </trkpt>
      <trkpt lat="42.219544" lon="2.219526">
        <ele>724</ele>
        <time>2019-08-19T01:55:09Z</time>
      </trkpt>
      <trkpt lat="42.219525" lon="2.219386">
        <ele>723.8</ele>
        <time>2019-08-19T01:55:10Z</time>
      </trkpt>
      <trkpt lat="42.219526" lon="2.219263">
        <ele>723.5</ele>
        <time>2019-08-19T01:55:11Z</time>
      </trkpt>
      <trkpt lat="42.21953" lon="2.219139">
        <ele>723.3</ele>
        <time>2019-08-19T01:55:12Z</time>
      </trkpt>
      <trkpt lat="42.219515" lon="2.218981">
        <ele>722.9</ele>
        <time>2019-08-19T01:55:13Z</time>
      </trkpt>
      <trkpt lat="42.21952" lon="2.218858">
        <ele>722.6</ele>
        <time>2019-08-19T01:55:14Z</time>
      </trkpt>
      <trkpt lat="42.219523" lon="2.218718">
        <ele>722.2</ele>
        <time>2019-08-19T01:55:15Z</time>
      </trkpt>
      <trkpt lat="42.219531" lon="2.218568">
        <ele>721.8</ele>
        <time>2019-08-19T01:55:16Z</time>
      </trkpt>
      <trkpt lat="42.219543" lon="2.218448">
        <ele>721.5</ele>
        <time>2019-08-19T01:55:17Z</time>
      </trkpt>
      <trkpt lat="42.219547" lon="2.21831">
        <ele>721.2</ele>
        <time>2019-08-19T01:55:18Z</time>
      </trkpt>
      <trkpt lat="42.219552" lon="2.218166">
        <ele>720.9</ele>
        <time>2019-08-19T01:55:19Z</time>
      </trkpt>
      <trkpt lat="42.21955" lon="2.218027">
        <ele>720.7</ele>
        <time>2019-08-19T01:55:20Z</time>
      </trkpt>
      <trkpt lat="42.219551" lon="2.21789">
        <ele>720.5</ele>
        <time>2019-08-19T01:55:21Z</time>
      </trkpt>
      <trkpt lat="42.219547" lon="2.217742">
        <ele>720.2</ele>
        <time>2019-08-19T01:55:22Z</time>
      </trkpt>
      <trkpt lat="42.219552" lon="2.217616">
        <ele>720.1</ele>
        <time>2019-08-19T01:55:23Z</time>
      </trkpt>
      <trkpt lat="42.219554" lon="2.217479">
        <ele>719.8</ele>
        <time>2019-08-19T01:55:24Z</time>
      </trkpt>
      <trkpt lat="42.219551" lon="2.217351">
        <ele>719.7</ele>
        <time>2019-08-19T01:55:25Z</time>
      </trkpt>
      <trkpt lat="42.219554" lon="2.217216">
        <ele>719.5</ele>
        <time>2019-08-19T01:55:26Z</time>
      </trkpt>
      <trkpt lat="42.219559" lon="2.217083">
        <ele>719.3</ele>
        <time>2019-08-19T01:55:27Z</time>
      </trkpt>
      <trkpt lat="42.219575" lon="2.216936">
        <ele>719.2</ele>
        <time>2019-08-19T01:55:28Z</time>
      </trkpt>
      <trkpt lat="42.219576" lon="2.216791">
        <ele>719.1</ele>
        <time>2019-08-19T01:55:29Z</time>
      </trkpt>
      <trkpt lat="42.219579" lon="2.216666">
        <ele>719</ele>
        <time>2019-08-19T01:55:30Z</time>
      </trkpt>
      <trkpt lat="42.219573" lon="2.216521">
        <ele>719</ele>
        <time>2019-08-19T01:55:31Z</time>
      </trkpt>
      <trkpt lat="42.219576" lon="2.216396">
        <ele>719</ele>
        <time>2019-08-19T01:55:32Z</time>
      </trkpt>
      <trkpt lat="42.21957" lon="2.216285">
        <ele>719</ele>
        <time>2019-08-19T01:55:33Z</time>
      </trkpt>
      <trkpt lat="42.219568" lon="2.216173">
        <ele>719</ele>
        <time>2019-08-19T01:55:34Z</time>
      </trkpt>
      <trkpt lat="42.219566" lon="2.216065">
        <ele>719</ele>
        <time>2019-08-19T01:55:35Z</time>
      </trkpt>
      <trkpt lat="42.219567" lon="2.215968">
        <ele>719</ele>
        <time>2019-08-19T01:55:36Z</time>
      </trkpt>
      <trkpt lat="42.21956" lon="2.215869">
        <ele>719</ele>
        <time>2019-08-19T01:55:37Z</time>
      </trkpt>
      <trkpt lat="42.219551" lon="2.215745">
        <ele>719</ele>
        <time>2019-08-19T01:55:38Z</time>
      </trkpt>
      <trkpt lat="42.219542" lon="2.215635">
        <ele>719</ele>
        <time>2019-08-19T01:55:39Z</time>
      </trkpt>
      <trkpt lat="42.219513" lon="2.215515">
        <ele>719.1</ele>
        <time>2019-08-19T01:55:40Z</time>
      </trkpt>
      <trkpt lat="42.219484" lon="2.215417">
        <ele>719.1</ele>
        <time>2019-08-19T01:55:41Z</time>
      </trkpt>
      <trkpt lat="42.219451" lon="2.215321">
        <ele>719.2</ele>
        <time>2019-08-19T01:55:42Z</time>
      </trkpt>
      <trkpt lat="42.21943" lon="2.21522">
        <ele>719.2</ele>
        <time>2019-08-19T01:55:43Z</time>
      </trkpt>
      <trkpt lat="42.219401" lon="2.215122">
        <ele>719.3</ele>
        <time>2019-08-19T01:55:44Z</time>
      </trkpt>
      <trkpt lat="42.219344" lon="2.21501">
        <ele>719.3</ele>
        <time>2019-08-19T01:55:45Z</time>
      </trkpt>
      <trkpt lat="42.219309" lon="2.214923">
        <ele>719.4</ele>
        <time>2019-08-19T01:55:46Z</time>
      </trkpt>
      <trkpt lat="42.219286" lon="2.214836">
        <ele>719.2</ele>
        <time>2019-08-19T01:55:47Z</time>
      </trkpt>
      <trkpt lat="42.219257" lon="2.214753">
        <ele>719.1</ele>
        <time>2019-08-19T01:55:48Z</time>
      </trkpt>
      <trkpt lat="42.219241" lon="2.214673">
        <ele>718.9</ele>
        <time>2019-08-19T01:55:49Z</time>
      </trkpt>
      <trkpt lat="42.219211" lon="2.21459">
        <ele>718.6</ele>
        <time>2019-08-19T01:55:50Z</time>
      </trkpt>
      <trkpt lat="42.219179" lon="2.214512">
        <ele>718.4</ele>
        <time>2019-08-19T01:55:51Z</time>
      </trkpt>
      <trkpt lat="42.21916" lon="2.214432">
        <ele>718.3</ele>
        <time>2019-08-19T01:55:52Z</time>
      </trkpt>
      <trkpt lat="42.219138" lon="2.214333">
        <ele>718.1</ele>
        <time>2019-08-19T01:55:53Z</time>
      </trkpt>
      <trkpt lat="42.219107" lon="2.21425">
        <ele>717.8</ele>
        <time>2019-08-19T01:55:54Z</time>
      </trkpt>
      <trkpt lat="42.219081" lon="2.214168">
        <ele>717.5</ele>
        <time>2019-08-19T01:55:55Z</time>
      </trkpt>
      <trkpt lat="42.219061" lon="2.21409">
        <ele>717.2</ele>
        <time>2019-08-19T01:55:56Z</time>
      </trkpt>
      <trkpt lat="42.219034" lon="2.21399">
        <ele>716.9</ele>
        <time>2019-08-19T01:55:57Z</time>
      </trkpt>
      <trkpt lat="42.219019" lon="2.213894">
        <ele>716.7</ele>
        <time>2019-08-19T01:55:58Z</time>
      </trkpt>
      <trkpt lat="42.218992" lon="2.213808">
        <ele>716.6</ele>
        <time>2019-08-19T01:55:59Z</time>
      </trkpt>
      <trkpt lat="42.218955" lon="2.213723">
        <ele>716.5</ele>
        <time>2019-08-19T01:56:00Z</time>
      </trkpt>
      <trkpt lat="42.218934" lon="2.213638">
        <ele>716.5</ele>
        <time>2019-08-19T01:56:01Z</time>
      </trkpt>
      <trkpt lat="42.218894" lon="2.213549">
        <ele>716.4</ele>
        <time>2019-08-19T01:56:02Z</time>
      </trkpt>
      <trkpt lat="42.218864" lon="2.21346">
        <ele>716.4</ele>
        <time>2019-08-19T01:56:03Z</time>
      </trkpt>
      <trkpt lat="42.218812" lon="2.213352">
        <ele>716.4</ele>
        <time>2019-08-19T01:56:04Z</time>
      </trkpt>
      <trkpt lat="42.218788" lon="2.21326">
        <ele>716.4</ele>
        <time>2019-08-19T01:56:05Z</time>
      </trkpt>
      <trkpt lat="42.218761" lon="2.213166">
        <ele>716.4</ele>
        <time>2019-08-19T01:56:06Z</time>
      </trkpt>
      <trkpt lat="42.218741" lon="2.21307">
        <ele>716.4</ele>
        <time>2019-08-19T01:56:07Z</time>
      </trkpt>
      <trkpt lat="42.218711" lon="2.212988">
        <ele>716.4</ele>
        <time>2019-08-19T01:56:08Z</time>
      </trkpt>
      <trkpt lat="42.218692" lon="2.212909">
        <ele>716.4</ele>
        <time>2019-08-19T01:56:09Z</time>
      </trkpt>
      <trkpt lat="42.218685" lon="2.212842">
        <ele>716.3</ele>
        <time>2019-08-19T01:56:10Z</time>
      </trkpt>
      <trkpt lat="42.218659" lon="2.212757">
        <ele>716.3</ele>
        <time>2019-08-19T01:56:11Z</time>
      </trkpt>
      <trkpt lat="42.218636" lon="2.212666">
        <ele>716.3</ele>
        <time>2019-08-19T01:56:12Z</time>
      </trkpt>
      <trkpt lat="42.21861" lon="2.212587">
        <ele>716.3</ele>
        <time>2019-08-19T01:56:13Z</time>
      </trkpt>
      <trkpt lat="42.218588" lon="2.212515">
        <ele>716.2</ele>
        <time>2019-08-19T01:56:14Z</time>
      </trkpt>
      <trkpt lat="42.218557" lon="2.212432">
        <ele>716.2</ele>
        <time>2019-08-19T01:56:15Z</time>
      </trkpt>
      <trkpt lat="42.218528" lon="2.212356">
        <ele>716.2</ele>
        <time>2019-08-19T01:56:16Z</time>
      </trkpt>
      <trkpt lat="42.218503" lon="2.212284">
        <ele>716.2</ele>
        <time>2019-08-19T01:56:17Z</time>
      </trkpt>
      <trkpt lat="42.218472" lon="2.212206">
        <ele>716.2</ele>
        <time>2019-08-19T01:56:18Z</time>
      </trkpt>
      <trkpt lat="42.218442" lon="2.212136">
        <ele>716.2</ele>
        <time>2019-08-19T01:56:19Z</time>
      </trkpt>
      <trkpt lat="42.218408" lon="2.212048">
        <ele>716.3</ele>
        <time>2019-08-19T01:56:20Z</time>
      </trkpt>
      <trkpt lat="42.21839" lon="2.211968">
        <ele>716.4</ele>
        <time>2019-08-19T01:56:21Z</time>
      </trkpt>
      <trkpt lat="42.218367" lon="2.211892">
        <ele>716.4</ele>
        <time>2019-08-19T01:56:22Z</time>
      </trkpt>
      <trkpt lat="42.218353" lon="2.21182">
        <ele>716.4</ele>
        <time>2019-08-19T01:56:23Z</time>
      </trkpt>
      <trkpt lat="42.218327" lon="2.211751">
        <ele>716.4</ele>
        <time>2019-08-19T01:56:24Z</time>
      </trkpt>
      <trkpt lat="42.218309" lon="2.211677">
        <ele>716.4</ele>
        <time>2019-08-19T01:56:25Z</time>
      </trkpt>
      <trkpt lat="42.218284" lon="2.211605">
        <ele>716.5</ele>
        <time>2019-08-19T01:56:26Z</time>
      </trkpt>
      <trkpt lat="42.218259" lon="2.211535">
        <ele>716.6</ele>
        <time>2019-08-19T01:56:27Z</time>
      </trkpt>
      <trkpt lat="42.218252" lon="2.21146">
        <ele>716.7</ele>
        <time>2019-08-19T01:56:28Z</time>
      </trkpt>
      <trkpt lat="42.218241" lon="2.211394">
        <ele>716.8</ele>
        <time>2019-08-19T01:56:29Z</time>
      </trkpt>
      <trkpt lat="42.218208" lon="2.211325">
        <ele>716.9</ele>
        <time>2019-08-19T01:56:30Z</time>
      </trkpt>
      <trkpt lat="42.218176" lon="2.211243">
        <ele>717.1</ele>
        <time>2019-08-19T01:56:31Z</time>
      </trkpt>
      <trkpt lat="42.218149" lon="2.211172">
        <ele>717.2</ele>
        <time>2019-08-19T01:56:32Z</time>
      </trkpt>
      <trkpt lat="42.218131" lon="2.211097">
        <ele>717.4</ele>
        <time>2019-08-19T01:56:33Z</time>
      </trkpt>
      <trkpt lat="42.218109" lon="2.211025">
        <ele>717.6</ele>
        <time>2019-08-19T01:56:34Z</time>
      </trkpt>
      <trkpt lat="42.218088" lon="2.210953">
        <ele>717.7</ele>
        <time>2019-08-19T01:56:35Z</time>
      </trkpt>
      <trkpt lat="42.218059" lon="2.210887">
        <ele>718</ele>
        <time>2019-08-19T01:56:36Z</time>
      </trkpt>
      <trkpt lat="42.218022" lon="2.210805">
        <ele>718.2</ele>
        <time>2019-08-19T01:56:37Z</time>
      </trkpt>
      <trkpt lat="42.217997" lon="2.210726">
        <ele>718.5</ele>
        <time>2019-08-19T01:56:38Z</time>
      </trkpt>
      <trkpt lat="42.217971" lon="2.210653">
        <ele>718.8</ele>
        <time>2019-08-19T01:56:39Z</time>
      </trkpt>
      <trkpt lat="42.217954" lon="2.21058">
        <ele>719</ele>
        <time>2019-08-19T01:56:40Z</time>
      </trkpt>
      <trkpt lat="42.217927" lon="2.210516">
        <ele>719.2</ele>
        <time>2019-08-19T01:56:41Z</time>
      </trkpt>
      <trkpt lat="42.217904" lon="2.210456">
        <ele>719.4</ele>
        <time>2019-08-19T01:56:42Z</time>
      </trkpt>
      <trkpt lat="42.217886" lon="2.210386">
        <ele>719.7</ele>
        <time>2019-08-19T01:56:43Z</time>
      </trkpt>
      <trkpt lat="42.217869" lon="2.210327">
        <ele>719.9</ele>
        <time>2019-08-19T01:56:44Z</time>
      </trkpt>
      <trkpt lat="42.21785" lon="2.210273">
        <ele>720</ele>
        <time>2019-08-19T01:56:45Z</time>
      </trkpt>
      <trkpt lat="42.217833" lon="2.210209">
        <ele>720.8</ele>
        <time>2019-08-19T01:56:46Z</time>
      </trkpt>
      <trkpt lat="42.217805" lon="2.21015">
        <ele>721.4</ele>
        <time>2019-08-19T01:56:47Z</time>
      </trkpt>
      <trkpt lat="42.217788" lon="2.210083">
        <ele>722</ele>
        <time>2019-08-19T01:56:48Z</time>
      </trkpt>
      <trkpt lat="42.217767" lon="2.210009">
        <ele>722.7</ele>
        <time>2019-08-19T01:56:49Z</time>
      </trkpt>
      <trkpt lat="42.217737" lon="2.209924">
        <ele>723.3</ele>
        <time>2019-08-19T01:56:50Z</time>
      </trkpt>
      <trkpt lat="42.217714" lon="2.209848">
        <ele>723.6</ele>
        <time>2019-08-19T01:56:51Z</time>
      </trkpt>
      <trkpt lat="42.217692" lon="2.209773">
        <ele>723.9</ele>
        <time>2019-08-19T01:56:52Z</time>
      </trkpt>
      <trkpt lat="42.217679" lon="2.209698">
        <ele>724.1</ele>
        <time>2019-08-19T01:56:53Z</time>
      </trkpt>
      <trkpt lat="42.21766" lon="2.20962">
        <ele>724.3</ele>
        <time>2019-08-19T01:56:54Z</time>
      </trkpt>
      <trkpt lat="42.217644" lon="2.209537">
        <ele>724.4</ele>
        <time>2019-08-19T01:56:55Z</time>
      </trkpt>
      <trkpt lat="42.217638" lon="2.209457">
        <ele>724.5</ele>
        <time>2019-08-19T01:56:56Z</time>
      </trkpt>
      <trkpt lat="42.217619" lon="2.209383">
        <ele>724.6</ele>
        <time>2019-08-19T01:56:57Z</time>
      </trkpt>
      <trkpt lat="42.217598" lon="2.209312">
        <ele>724.7</ele>
        <time>2019-08-19T01:56:58Z</time>
      </trkpt>
      <trkpt lat="42.217572" lon="2.209231">
        <ele>724.7</ele>
        <time>2019-08-19T01:56:59Z</time>
      </trkpt>
      <trkpt lat="42.217546" lon="2.209158">
        <ele>724.6</ele>
        <time>2019-08-19T01:57:00Z</time>
      </trkpt>
      <trkpt lat="42.217536" lon="2.209087">
        <ele>724.5</ele>
        <time>2019-08-19T01:57:01Z</time>
      </trkpt>
      <trkpt lat="42.217514" lon="2.209019">
        <ele>724.5</ele>
        <time>2019-08-19T01:57:02Z</time>
      </trkpt>
      <trkpt lat="42.217492" lon="2.208942">
        <ele>724.4</ele>
        <time>2019-08-19T01:57:03Z</time>
      </trkpt>
      <trkpt lat="42.217462" lon="2.208847">
        <ele>724.2</ele>
        <time>2019-08-19T01:57:04Z</time>
      </trkpt>
      <trkpt lat="42.21744" lon="2.208762">
        <ele>724.1</ele>
        <time>2019-08-19T01:57:05Z</time>
      </trkpt>
      <trkpt lat="42.21741" lon="2.208678">
        <ele>724</ele>
        <time>2019-08-19T01:57:06Z</time>
      </trkpt>
      <trkpt lat="42.217406" lon="2.208583">
        <ele>723.8</ele>
        <time>2019-08-19T01:57:07Z</time>
      </trkpt>
      <trkpt lat="42.217372" lon="2.208512">
        <ele>723.7</ele>
        <time>2019-08-19T01:57:08Z</time>
      </trkpt>
      <trkpt lat="42.217347" lon="2.208437">
        <ele>723.6</ele>
        <time>2019-08-19T01:57:09Z</time>
      </trkpt>
      <trkpt lat="42.21734" lon="2.20835">
        <ele>723.4</ele>
        <time>2019-08-19T01:57:10Z</time>
      </trkpt>
      <trkpt lat="42.217316" lon="2.208283">
        <ele>723.3</ele>
        <time>2019-08-19T01:57:11Z</time>
      </trkpt>
      <trkpt lat="42.217284" lon="2.208224">
        <ele>723.2</ele>
        <time>2019-08-19T01:57:12Z</time>
      </trkpt>
      <trkpt lat="42.217254" lon="2.208155">
        <ele>723.1</ele>
        <time>2019-08-19T01:57:13Z</time>
      </trkpt>
      <trkpt lat="42.217231" lon="2.208082">
        <ele>723</ele>
        <time>2019-08-19T01:57:14Z</time>
      </trkpt>
      <trkpt lat="42.217208" lon="2.208009">
        <ele>722.9</ele>
        <time>2019-08-19T01:57:15Z</time>
      </trkpt>
      <trkpt lat="42.217186" lon="2.207946">
        <ele>722.8</ele>
        <time>2019-08-19T01:57:16Z</time>
      </trkpt>
      <trkpt lat="42.217162" lon="2.207884">
        <ele>722.7</ele>
        <time>2019-08-19T01:57:17Z</time>
      </trkpt>
      <trkpt lat="42.217131" lon="2.207821">
        <ele>722.7</ele>
        <time>2019-08-19T01:57:18Z</time>
      </trkpt>
      <trkpt lat="42.2171" lon="2.207753">
        <ele>722.6</ele>
        <time>2019-08-19T01:57:19Z</time>
      </trkpt>
      <trkpt lat="42.21708" lon="2.207686">
        <ele>722.6</ele>
        <time>2019-08-19T01:57:20Z</time>
      </trkpt>
      <trkpt lat="42.217055" lon="2.207624">
        <ele>722.6</ele>
        <time>2019-08-19T01:57:21Z</time>
      </trkpt>
      <trkpt lat="42.217035" lon="2.207553">
        <ele>722.6</ele>
        <time>2019-08-19T01:57:22Z</time>
      </trkpt>
      <trkpt lat="42.217011" lon="2.207482">
        <ele>722.6</ele>
        <time>2019-08-19T01:57:23Z</time>
      </trkpt>
      <trkpt lat="42.216989" lon="2.207417">
        <ele>722.6</ele>
        <time>2019-08-19T01:57:24Z</time>
      </trkpt>
      <trkpt lat="42.216968" lon="2.207348">
        <ele>722.5</ele>
        <time>2019-08-19T01:57:25Z</time>
      </trkpt>
      <trkpt lat="42.21694" lon="2.207267">
        <ele>722.5</ele>
        <time>2019-08-19T01:57:26Z</time>
      </trkpt>
      <trkpt lat="42.216915" lon="2.207196">
        <ele>722.4</ele>
        <time>2019-08-19T01:57:27Z</time>
      </trkpt>
      <trkpt lat="42.216891" lon="2.207119">
        <ele>722.3</ele>
        <time>2019-08-19T01:57:28Z</time>
      </trkpt>
      <trkpt lat="42.216874" lon="2.207056">
        <ele>722.1</ele>
        <time>2019-08-19T01:57:29Z</time>
      </trkpt>
      <trkpt lat="42.216847" lon="2.206979">
        <ele>722</ele>
        <time>2019-08-19T01:57:30Z</time>
      </trkpt>
      <trkpt lat="42.216823" lon="2.206909">
        <ele>721.8</ele>
        <time>2019-08-19T01:57:31Z</time>
      </trkpt>
      <trkpt lat="42.216794" lon="2.206831">
        <ele>721.6</ele>
        <time>2019-08-19T01:57:32Z</time>
      </trkpt>
      <trkpt lat="42.216774" lon="2.206751">
        <ele>721.4</ele>
        <time>2019-08-19T01:57:33Z</time>
      </trkpt>
      <trkpt lat="42.216742" lon="2.206666">
        <ele>721.1</ele>
        <time>2019-08-19T01:57:34Z</time>
      </trkpt>
      <trkpt lat="42.216714" lon="2.206582">
        <ele>720.9</ele>
        <time>2019-08-19T01:57:35Z</time>
      </trkpt>
      <trkpt lat="42.216681" lon="2.206505">
        <ele>720.7</ele>
        <time>2019-08-19T01:57:36Z</time>
      </trkpt>
      <trkpt lat="42.216656" lon="2.206414">
        <ele>720.6</ele>
        <time>2019-08-19T01:57:37Z</time>
      </trkpt>
      <trkpt lat="42.21664" lon="2.206319">
        <ele>720.6</ele>
        <time>2019-08-19T01:57:38Z</time>
      </trkpt>
      <trkpt lat="42.216618" lon="2.206226">
        <ele>720.6</ele>
        <time>2019-08-19T01:57:39Z</time>
      </trkpt>
      <trkpt lat="42.216607" lon="2.206133">
        <ele>720.6</ele>
        <time>2019-08-19T01:57:40Z</time>
      </trkpt>
      <trkpt lat="42.216612" lon="2.206056">
        <ele>720.7</ele>
        <time>2019-08-19T01:57:41Z</time>
      </trkpt>
      <trkpt lat="42.216614" lon="2.205978">
        <ele>720.8</ele>
        <time>2019-08-19T01:57:42Z</time>
      </trkpt>
      <trkpt lat="42.216607" lon="2.205896">
        <ele>721</ele>
        <time>2019-08-19T01:57:43Z</time>
      </trkpt>
      <trkpt lat="42.216582" lon="2.205824">
        <ele>721.1</ele>
        <time>2019-08-19T01:57:44Z</time>
      </trkpt>
      <trkpt lat="42.216568" lon="2.205762">
        <ele>721.3</ele>
        <time>2019-08-19T01:57:45Z</time>
      </trkpt>
      <trkpt lat="42.216521" lon="2.2057">
        <ele>720.6</ele>
        <time>2019-08-19T01:57:46Z</time>
      </trkpt>
      <trkpt lat="42.21646" lon="2.205627">
        <ele>719.6</ele>
        <time>2019-08-19T01:57:47Z</time>
      </trkpt>
      <trkpt lat="42.216407" lon="2.205573">
        <ele>719.1</ele>
        <time>2019-08-19T01:57:48Z</time>
      </trkpt>
      <trkpt lat="42.216346" lon="2.205517">
        <ele>718.5</ele>
        <time>2019-08-19T01:57:49Z</time>
      </trkpt>
      <trkpt lat="42.216321" lon="2.20542">
        <ele>717.9</ele>
        <time>2019-08-19T01:57:50Z</time>
      </trkpt>
      <trkpt lat="42.216275" lon="2.205357">
        <ele>717</ele>
        <time>2019-08-19T01:57:51Z</time>
      </trkpt>
      <trkpt lat="42.216255" lon="2.205287">
        <ele>716.6</ele>
        <time>2019-08-19T01:57:52Z</time>
      </trkpt>
      <trkpt lat="42.216236" lon="2.205193">
        <ele>716.2</ele>
        <time>2019-08-19T01:57:53Z</time>
      </trkpt>
      <trkpt lat="42.216212" lon="2.205121">
        <ele>715.9</ele>
        <time>2019-08-19T01:57:54Z</time>
      </trkpt>
      <trkpt lat="42.216177" lon="2.205037">
        <ele>715.6</ele>
        <time>2019-08-19T01:57:55Z</time>
      </trkpt>
      <trkpt lat="42.216167" lon="2.204951">
        <ele>715.5</ele>
        <time>2019-08-19T01:57:56Z</time>
      </trkpt>
      <trkpt lat="42.216106" lon="2.204894">
        <ele>715.4</ele>
        <time>2019-08-19T01:57:57Z</time>
      </trkpt>
      <trkpt lat="42.216086" lon="2.204813">
        <ele>715.3</ele>
        <time>2019-08-19T01:57:58Z</time>
      </trkpt>
      <trkpt lat="42.216061" lon="2.204738">
        <ele>715.3</ele>
        <time>2019-08-19T01:57:59Z</time>
      </trkpt>
      <trkpt lat="42.216034" lon="2.204667">
        <ele>715.2</ele>
        <time>2019-08-19T01:58:00Z</time>
      </trkpt>
      <trkpt lat="42.216007" lon="2.204584">
        <ele>715.2</ele>
        <time>2019-08-19T01:58:01Z</time>
      </trkpt>
      <trkpt lat="42.215992" lon="2.204509">
        <ele>715.2</ele>
        <time>2019-08-19T01:58:02Z</time>
      </trkpt>
      <trkpt lat="42.215972" lon="2.204423">
        <ele>715.2</ele>
        <time>2019-08-19T01:58:03Z</time>
      </trkpt>
      <trkpt lat="42.215942" lon="2.204347">
        <ele>715.2</ele>
        <time>2019-08-19T01:58:04Z</time>
      </trkpt>
      <trkpt lat="42.215949" lon="2.20425">
        <ele>715.2</ele>
        <time>2019-08-19T01:58:05Z</time>
      </trkpt>
      <trkpt lat="42.215941" lon="2.204166">
        <ele>715.2</ele>
        <time>2019-08-19T01:58:06Z</time>
      </trkpt>
      <trkpt lat="42.215912" lon="2.204094">
        <ele>715.2</ele>
        <time>2019-08-19T01:58:07Z</time>
      </trkpt>
      <trkpt lat="42.215896" lon="2.204013">
        <ele>715.2</ele>
        <time>2019-08-19T01:58:08Z</time>
      </trkpt>
      <trkpt lat="42.215868" lon="2.203931">
        <ele>715.2</ele>
        <time>2019-08-19T01:58:09Z</time>
      </trkpt>
      <trkpt lat="42.215841" lon="2.203848">
        <ele>715.2</ele>
        <time>2019-08-19T01:58:10Z</time>
      </trkpt>
      <trkpt lat="42.215808" lon="2.203767">
        <ele>715.1</ele>
        <time>2019-08-19T01:58:11Z</time>
      </trkpt>
      <trkpt lat="42.215779" lon="2.203695">
        <ele>715.1</ele>
        <time>2019-08-19T01:58:12Z</time>
      </trkpt>
      <trkpt lat="42.215764" lon="2.203614">
        <ele>715.1</ele>
        <time>2019-08-19T01:58:13Z</time>
      </trkpt>
      <trkpt lat="42.215726" lon="2.203521">
        <ele>715.1</ele>
        <time>2019-08-19T01:58:14Z</time>
      </trkpt>
      <trkpt lat="42.215694" lon="2.203438">
        <ele>715.1</ele>
        <time>2019-08-19T01:58:15Z</time>
      </trkpt>
      <trkpt lat="42.21567" lon="2.203356">
        <ele>715.1</ele>
        <time>2019-08-19T01:58:16Z</time>
      </trkpt>
      <trkpt lat="42.215637" lon="2.20327">
        <ele>715.1</ele>
        <time>2019-08-19T01:58:17Z</time>
      </trkpt>
      <trkpt lat="42.21561" lon="2.203189">
        <ele>715.1</ele>
        <time>2019-08-19T01:58:18Z</time>
      </trkpt>
      <trkpt lat="42.215585" lon="2.20311">
        <ele>715.1</ele>
        <time>2019-08-19T01:58:19Z</time>
      </trkpt>
      <trkpt lat="42.215558" lon="2.203039">
        <ele>715.1</ele>
        <time>2019-08-19T01:58:20Z</time>
      </trkpt>
      <trkpt lat="42.215532" lon="2.202962">
        <ele>715.1</ele>
        <time>2019-08-19T01:58:21Z</time>
      </trkpt>
      <trkpt lat="42.215508" lon="2.202882">
        <ele>715.1</ele>
        <time>2019-08-19T01:58:22Z</time>
      </trkpt>
      <trkpt lat="42.21548" lon="2.202792">
        <ele>715.2</ele>
        <time>2019-08-19T01:58:23Z</time>
      </trkpt>
      <trkpt lat="42.215458" lon="2.202715">
        <ele>715.2</ele>
        <time>2019-08-19T01:58:24Z</time>
      </trkpt>
      <trkpt lat="42.21544" lon="2.20264">
        <ele>715.2</ele>
        <time>2019-08-19T01:58:25Z</time>
      </trkpt>
      <trkpt lat="42.21542" lon="2.202564">
        <ele>715.3</ele>
        <time>2019-08-19T01:58:26Z</time>
      </trkpt>
      <trkpt lat="42.215395" lon="2.20248">
        <ele>715.3</ele>
        <time>2019-08-19T01:58:27Z</time>
      </trkpt>
      <trkpt lat="42.215365" lon="2.202397">
        <ele>715.4</ele>
        <time>2019-08-19T01:58:28Z</time>
      </trkpt>
      <trkpt lat="42.215334" lon="2.202327">
        <ele>715.4</ele>
        <time>2019-08-19T01:58:29Z</time>
      </trkpt>
      <trkpt lat="42.215309" lon="2.202255">
        <ele>715.5</ele>
        <time>2019-08-19T01:58:30Z</time>
      </trkpt>
      <trkpt lat="42.215295" lon="2.202173">
        <ele>715.5</ele>
        <time>2019-08-19T01:58:31Z</time>
      </trkpt>
      <trkpt lat="42.215261" lon="2.202107">
        <ele>715.6</ele>
        <time>2019-08-19T01:58:32Z</time>
      </trkpt>
      <trkpt lat="42.215224" lon="2.202053">
        <ele>715.6</ele>
        <time>2019-08-19T01:58:33Z</time>
      </trkpt>
      <trkpt lat="42.215185" lon="2.201996">
        <ele>715.7</ele>
        <time>2019-08-19T01:58:34Z</time>
      </trkpt>
      <trkpt lat="42.215121" lon="2.201963">
        <ele>715.7</ele>
        <time>2019-08-19T01:58:35Z</time>
      </trkpt>
      <trkpt lat="42.215063" lon="2.201927">
        <ele>715.8</ele>
        <time>2019-08-19T01:58:36Z</time>
      </trkpt>
      <trkpt lat="42.21499" lon="2.201897">
        <ele>715.9</ele>
        <time>2019-08-19T01:58:37Z</time>
      </trkpt>
      <trkpt lat="42.214925" lon="2.201878">
        <ele>715.9</ele>
        <time>2019-08-19T01:58:38Z</time>
      </trkpt>
      <trkpt lat="42.214847" lon="2.201851">
        <ele>716</ele>
        <time>2019-08-19T01:58:39Z</time>
      </trkpt>
      <trkpt lat="42.21476" lon="2.201856">
        <ele>716.1</ele>
        <time>2019-08-19T01:58:40Z</time>
      </trkpt>
      <trkpt lat="42.214696" lon="2.201852">
        <ele>716.2</ele>
        <time>2019-08-19T01:58:41Z</time>
      </trkpt>
      <trkpt lat="42.214622" lon="2.201855">
        <ele>716.2</ele>
        <time>2019-08-19T01:58:42Z</time>
      </trkpt>
      <trkpt lat="42.214554" lon="2.201867">
        <ele>716.3</ele>
        <time>2019-08-19T01:58:43Z</time>
      </trkpt>
      <trkpt lat="42.214486" lon="2.201872">
        <ele>716.4</ele>
        <time>2019-08-19T01:58:44Z</time>
      </trkpt>
      <trkpt lat="42.214413" lon="2.201884">
        <ele>716.4</ele>
        <time>2019-08-19T01:58:45Z</time>
      </trkpt>
      <trkpt lat="42.214367" lon="2.201884">
        <ele>716.5</ele>
        <time>2019-08-19T01:58:46Z</time>
      </trkpt>
      <trkpt lat="42.214303" lon="2.201881">
        <ele>716.5</ele>
        <time>2019-08-19T01:58:47Z</time>
      </trkpt>
      <trkpt lat="42.214235" lon="2.201873">
        <ele>716.6</ele>
        <time>2019-08-19T01:58:48Z</time>
      </trkpt>
      <trkpt lat="42.214168" lon="2.201855">
        <ele>716.6</ele>
        <time>2019-08-19T01:58:49Z</time>
      </trkpt>
      <trkpt lat="42.214102" lon="2.201845">
        <ele>716.6</ele>
        <time>2019-08-19T01:58:50Z</time>
      </trkpt>
      <trkpt lat="42.214037" lon="2.201833">
        <ele>716.7</ele>
        <time>2019-08-19T01:58:51Z</time>
      </trkpt>
      <trkpt lat="42.213983" lon="2.201807">
        <ele>716.7</ele>
        <time>2019-08-19T01:58:52Z</time>
      </trkpt>
      <trkpt lat="42.213911" lon="2.201766">
        <ele>716.7</ele>
        <time>2019-08-19T01:58:53Z</time>
      </trkpt>
      <trkpt lat="42.213848" lon="2.201729">
        <ele>716.7</ele>
        <time>2019-08-19T01:58:54Z</time>
      </trkpt>
      <trkpt lat="42.213771" lon="2.201681">
        <ele>716.6</ele>
        <time>2019-08-19T01:58:55Z</time>
      </trkpt>
      <trkpt lat="42.213702" lon="2.201651">
        <ele>716.6</ele>
        <time>2019-08-19T01:58:56Z</time>
      </trkpt>
      <trkpt lat="42.213629" lon="2.201607">
        <ele>716.6</ele>
        <time>2019-08-19T01:58:57Z</time>
      </trkpt>
      <trkpt lat="42.213553" lon="2.201568">
        <ele>716.5</ele>
        <time>2019-08-19T01:58:58Z</time>
      </trkpt>
      <trkpt lat="42.21348" lon="2.201526">
        <ele>716.5</ele>
        <time>2019-08-19T01:58:59Z</time>
      </trkpt>
      <trkpt lat="42.213407" lon="2.201484">
        <ele>716.4</ele>
        <time>2019-08-19T01:59:00Z</time>
      </trkpt>
      <trkpt lat="42.213329" lon="2.201445">
        <ele>716.4</ele>
        <time>2019-08-19T01:59:01Z</time>
      </trkpt>
      <trkpt lat="42.21327" lon="2.201388">
        <ele>716.3</ele>
        <time>2019-08-19T01:59:02Z</time>
      </trkpt>
      <trkpt lat="42.213217" lon="2.201348">
        <ele>716.3</ele>
        <time>2019-08-19T01:59:03Z</time>
      </trkpt>
      <trkpt lat="42.213143" lon="2.201305">
        <ele>716.2</ele>
        <time>2019-08-19T01:59:04Z</time>
      </trkpt>
      <trkpt lat="42.213064" lon="2.201243">
        <ele>716.2</ele>
        <time>2019-08-19T01:59:05Z</time>
      </trkpt>
      <trkpt lat="42.212986" lon="2.201204">
        <ele>716.1</ele>
        <time>2019-08-19T01:59:06Z</time>
      </trkpt>
      <trkpt lat="42.212925" lon="2.201145">
        <ele>716.1</ele>
        <time>2019-08-19T01:59:07Z</time>
      </trkpt>
      <trkpt lat="42.212854" lon="2.201094">
        <ele>716</ele>
        <time>2019-08-19T01:59:08Z</time>
      </trkpt>
      <trkpt lat="42.212767" lon="2.201047">
        <ele>715.9</ele>
        <time>2019-08-19T01:59:09Z</time>
      </trkpt>
      <trkpt lat="42.212684" lon="2.201002">
        <ele>715.9</ele>
        <time>2019-08-19T01:59:10Z</time>
      </trkpt>
      <trkpt lat="42.212603" lon="2.200996">
        <ele>715.8</ele>
        <time>2019-08-19T01:59:11Z</time>
      </trkpt>
      <trkpt lat="42.212508" lon="2.200999">
        <ele>715.7</ele>
        <time>2019-08-19T01:59:12Z</time>
      </trkpt>
      <trkpt lat="42.212425" lon="2.200971">
        <ele>715.6</ele>
        <time>2019-08-19T01:59:13Z</time>
      </trkpt>
      <trkpt lat="42.212312" lon="2.200951">
        <ele>715.6</ele>
        <time>2019-08-19T01:59:14Z</time>
      </trkpt>
      <trkpt lat="42.212209" lon="2.200951">
        <ele>715.5</ele>
        <time>2019-08-19T01:59:15Z</time>
      </trkpt>
      <trkpt lat="42.212113" lon="2.20103">
        <ele>715.5</ele>
        <time>2019-08-19T01:59:16Z</time>
      </trkpt>
      <trkpt lat="42.21202" lon="2.201072">
        <ele>715.4</ele>
        <time>2019-08-19T01:59:17Z</time>
      </trkpt>
      <trkpt lat="42.211947" lon="2.201138">
        <ele>715.4</ele>
        <time>2019-08-19T01:59:18Z</time>
      </trkpt>
      <trkpt lat="42.211845" lon="2.201204">
        <ele>715.3</ele>
        <time>2019-08-19T01:59:19Z</time>
      </trkpt>
      <trkpt lat="42.211756" lon="2.201238">
        <ele>714.3</ele>
        <time>2019-08-19T01:59:20Z</time>
      </trkpt>
      <trkpt lat="42.211663" lon="2.201259">
        <ele>713.2</ele>
        <time>2019-08-19T01:59:21Z</time>
      </trkpt>
      <trkpt lat="42.21157" lon="2.201271">
        <ele>712.2</ele>
        <time>2019-08-19T01:59:22Z</time>
      </trkpt>
      <trkpt lat="42.211484" lon="2.201292">
        <ele>711.1</ele>
        <time>2019-08-19T01:59:23Z</time>
      </trkpt>
      <trkpt lat="42.211394" lon="2.20131">
        <ele>710</ele>
        <time>2019-08-19T01:59:24Z</time>
      </trkpt>
      <trkpt lat="42.211337" lon="2.201354">
        <ele>709.2</ele>
        <time>2019-08-19T01:59:25Z</time>
      </trkpt>
      <trkpt lat="42.211254" lon="2.201366">
        <ele>708.5</ele>
        <time>2019-08-19T01:59:26Z</time>
      </trkpt>
      <trkpt lat="42.211176" lon="2.201376">
        <ele>708.5</ele>
        <time>2019-08-19T01:59:27Z</time>
      </trkpt>
      <trkpt lat="42.211103" lon="2.201365">
        <ele>708.5</ele>
        <time>2019-08-19T01:59:28Z</time>
      </trkpt>
      <trkpt lat="42.211046" lon="2.201346">
        <ele>708.6</ele>
        <time>2019-08-19T01:59:29Z</time>
      </trkpt>
      <trkpt lat="42.210979" lon="2.201327">
        <ele>708.8</ele>
        <time>2019-08-19T01:59:30Z</time>
      </trkpt>
      <trkpt lat="42.210898" lon="2.201293">
        <ele>709.1</ele>
        <time>2019-08-19T01:59:31Z</time>
      </trkpt>
      <trkpt lat="42.210812" lon="2.201244">
        <ele>709.5</ele>
        <time>2019-08-19T01:59:32Z</time>
      </trkpt>
      <trkpt lat="42.210741" lon="2.201213">
        <ele>709.9</ele>
        <time>2019-08-19T01:59:33Z</time>
      </trkpt>
      <trkpt lat="42.210677" lon="2.20118">
        <ele>710.3</ele>
        <time>2019-08-19T01:59:34Z</time>
      </trkpt>
      <trkpt lat="42.210614" lon="2.201145">
        <ele>710.6</ele>
        <time>2019-08-19T01:59:35Z</time>
      </trkpt>
      <trkpt lat="42.210582" lon="2.201117">
        <ele>710.8</ele>
        <time>2019-08-19T01:59:36Z</time>
      </trkpt>
      <trkpt lat="42.210531" lon="2.201078">
        <ele>711</ele>
        <time>2019-08-19T01:59:37Z</time>
      </trkpt>
      <trkpt lat="42.210484" lon="2.201011">
        <ele>711.3</ele>
        <time>2019-08-19T01:59:38Z</time>
      </trkpt>
      <trkpt lat="42.210416" lon="2.200953">
        <ele>711.5</ele>
        <time>2019-08-19T01:59:39Z</time>
      </trkpt>
      <trkpt lat="42.210354" lon="2.200924">
        <ele>711.6</ele>
        <time>2019-08-19T01:59:40Z</time>
      </trkpt>
      <trkpt lat="42.210295" lon="2.200876">
        <ele>711.7</ele>
        <time>2019-08-19T01:59:41Z</time>
      </trkpt>
      <trkpt lat="42.210246" lon="2.20087">
        <ele>711.8</ele>
        <time>2019-08-19T01:59:42Z</time>
      </trkpt>
      <trkpt lat="42.210181" lon="2.200842">
        <ele>711.8</ele>
        <time>2019-08-19T01:59:43Z</time>
      </trkpt>
      <trkpt lat="42.210134" lon="2.200809">
        <ele>711.8</ele>
        <time>2019-08-19T01:59:44Z</time>
      </trkpt>
      <trkpt lat="42.210078" lon="2.200771">
        <ele>711.8</ele>
        <time>2019-08-19T01:59:45Z</time>
      </trkpt>
      <trkpt lat="42.210016" lon="2.200736">
        <ele>711.7</ele>
        <time>2019-08-19T01:59:46Z</time>
      </trkpt>
      <trkpt lat="42.20996" lon="2.200702">
        <ele>711.7</ele>
        <time>2019-08-19T01:59:47Z</time>
      </trkpt>
      <trkpt lat="42.209904" lon="2.200669">
        <ele>711.7</ele>
        <time>2019-08-19T01:59:48Z</time>
      </trkpt>
      <trkpt lat="42.209852" lon="2.200627">
        <ele>711.6</ele>
        <time>2019-08-19T01:59:49Z</time>
      </trkpt>
      <trkpt lat="42.209809" lon="2.200602">
        <ele>711.6</ele>
        <time>2019-08-19T01:59:50Z</time>
      </trkpt>
      <trkpt lat="42.209755" lon="2.20058">
        <ele>711.6</ele>
        <time>2019-08-19T01:59:51Z</time>
      </trkpt>
      <trkpt lat="42.209708" lon="2.20054">
        <ele>711.6</ele>
        <time>2019-08-19T01:59:52Z</time>
      </trkpt>
      <trkpt lat="42.209643" lon="2.200494">
        <ele>711.5</ele>
        <time>2019-08-19T01:59:53Z</time>
      </trkpt>
      <trkpt lat="42.209594" lon="2.200457">
        <ele>711.5</ele>
        <time>2019-08-19T01:59:54Z</time>
      </trkpt>
      <trkpt lat="42.209534" lon="2.200398">
        <ele>711.5</ele>
        <time>2019-08-19T01:59:55Z</time>
      </trkpt>
      <trkpt lat="42.209498" lon="2.200337">
        <ele>711.4</ele>
        <time>2019-08-19T01:59:56Z</time>
      </trkpt>
      <trkpt lat="42.209459" lon="2.200283">
        <ele>711.4</ele>
        <time>2019-08-19T01:59:57Z</time>
      </trkpt>
      <trkpt lat="42.209418" lon="2.200272">
        <ele>711.3</ele>
        <time>2019-08-19T01:59:58Z</time>
      </trkpt>
      <trkpt lat="42.20938" lon="2.200224">
        <ele>711.3</ele>
        <time>2019-08-19T01:59:59Z</time>
      </trkpt>
      <trkpt lat="42.209333" lon="2.200164">
        <ele>711.2</ele>
        <time>2019-08-19T02:00:00Z</time>
      </trkpt>
      <trkpt lat="42.209295" lon="2.200099">
        <ele>711.1</ele>
        <time>2019-08-19T02:00:01Z</time>
      </trkpt>
      <trkpt lat="42.20925" lon="2.200045">
        <ele>711</ele>
        <time>2019-08-19T02:00:02Z</time>
      </trkpt>
      <trkpt lat="42.209196" lon="2.199975">
        <ele>710.9</ele>
        <time>2019-08-19T02:00:03Z</time>
      </trkpt>
      <trkpt lat="42.209157" lon="2.199923">
        <ele>710.9</ele>
        <time>2019-08-19T02:00:04Z</time>
      </trkpt>
      <trkpt lat="42.209089" lon="2.199853">
        <ele>710.7</ele>
        <time>2019-08-19T02:00:05Z</time>
      </trkpt>
      <trkpt lat="42.209038" lon="2.199794">
        <ele>710.5</ele>
        <time>2019-08-19T02:00:06Z</time>
      </trkpt>
      <trkpt lat="42.208984" lon="2.199739">
        <ele>710.4</ele>
        <time>2019-08-19T02:00:07Z</time>
      </trkpt>
      <trkpt lat="42.208928" lon="2.199684">
        <ele>710.3</ele>
        <time>2019-08-19T02:00:08Z</time>
      </trkpt>
      <trkpt lat="42.208875" lon="2.199632">
        <ele>710.2</ele>
        <time>2019-08-19T02:00:09Z</time>
      </trkpt>
      <trkpt lat="42.208823" lon="2.199577">
        <ele>710.3</ele>
        <time>2019-08-19T02:00:10Z</time>
      </trkpt>
      <trkpt lat="42.208783" lon="2.199508">
        <ele>710.4</ele>
        <time>2019-08-19T02:00:11Z</time>
      </trkpt>
      <trkpt lat="42.208729" lon="2.199441">
        <ele>710.5</ele>
        <time>2019-08-19T02:00:12Z</time>
      </trkpt>
      <trkpt lat="42.208688" lon="2.199376">
        <ele>710.6</ele>
        <time>2019-08-19T02:00:13Z</time>
      </trkpt>
      <trkpt lat="42.208658" lon="2.199312">
        <ele>710.6</ele>
        <time>2019-08-19T02:00:14Z</time>
      </trkpt>
      <trkpt lat="42.208617" lon="2.199209">
        <ele>710.7</ele>
        <time>2019-08-19T02:00:15Z</time>
      </trkpt>
      <trkpt lat="42.208595" lon="2.199165">
        <ele>710.7</ele>
        <time>2019-08-19T02:00:16Z</time>
      </trkpt>
      <trkpt lat="42.208571" lon="2.199115">
        <ele>710.6</ele>
        <time>2019-08-19T02:00:17Z</time>
      </trkpt>
      <trkpt lat="42.208539" lon="2.199053">
        <ele>710.4</ele>
        <time>2019-08-19T02:00:18Z</time>
      </trkpt>
      <trkpt lat="42.20853" lon="2.199003">
        <ele>710.3</ele>
        <time>2019-08-19T02:00:19Z</time>
      </trkpt>
      <trkpt lat="42.208492" lon="2.198928">
        <ele>709.8</ele>
        <time>2019-08-19T02:00:20Z</time>
      </trkpt>
      <trkpt lat="42.208452" lon="2.198861">
        <ele>709.2</ele>
        <time>2019-08-19T02:00:21Z</time>
      </trkpt>
      <trkpt lat="42.208414" lon="2.198819">
        <ele>708.7</ele>
        <time>2019-08-19T02:00:22Z</time>
      </trkpt>
      <trkpt lat="42.208385" lon="2.198758">
        <ele>708.1</ele>
        <time>2019-08-19T02:00:23Z</time>
      </trkpt>
      <trkpt lat="42.208355" lon="2.198701">
        <ele>707.5</ele>
        <time>2019-08-19T02:00:24Z</time>
      </trkpt>
      <trkpt lat="42.208318" lon="2.198637">
        <ele>706.7</ele>
        <time>2019-08-19T02:00:25Z</time>
      </trkpt>
      <trkpt lat="42.208289" lon="2.19858">
        <ele>706.1</ele>
        <time>2019-08-19T02:00:26Z</time>
      </trkpt>
      <trkpt lat="42.208258" lon="2.198514">
        <ele>705.5</ele>
        <time>2019-08-19T02:00:27Z</time>
      </trkpt>
      <trkpt lat="42.208232" lon="2.198435">
        <ele>704.7</ele>
        <time>2019-08-19T02:00:28Z</time>
      </trkpt>
      <trkpt lat="42.208202" lon="2.198375">
        <ele>704.2</ele>
        <time>2019-08-19T02:00:29Z</time>
      </trkpt>
      <trkpt lat="42.208176" lon="2.198297">
        <ele>703.5</ele>
        <time>2019-08-19T02:00:30Z</time>
      </trkpt>
      <trkpt lat="42.208149" lon="2.198238">
        <ele>702.9</ele>
        <time>2019-08-19T02:00:31Z</time>
      </trkpt>
      <trkpt lat="42.208115" lon="2.198177">
        <ele>702.4</ele>
        <time>2019-08-19T02:00:32Z</time>
      </trkpt>
      <trkpt lat="42.208081" lon="2.198119">
        <ele>701.9</ele>
        <time>2019-08-19T02:00:33Z</time>
      </trkpt>
      <trkpt lat="42.208043" lon="2.198052">
        <ele>701.5</ele>
        <time>2019-08-19T02:00:34Z</time>
      </trkpt>
      <trkpt lat="42.207994" lon="2.197998">
        <ele>701.2</ele>
        <time>2019-08-19T02:00:35Z</time>
      </trkpt>
      <trkpt lat="42.207955" lon="2.197921">
        <ele>700.9</ele>
        <time>2019-08-19T02:00:36Z</time>
      </trkpt>
      <trkpt lat="42.207903" lon="2.197863">
        <ele>700.6</ele>
        <time>2019-08-19T02:00:37Z</time>
      </trkpt>
      <trkpt lat="42.207866" lon="2.197811">
        <ele>700.4</ele>
        <time>2019-08-19T02:00:38Z</time>
      </trkpt>
      <trkpt lat="42.207824" lon="2.197753">
        <ele>700.2</ele>
        <time>2019-08-19T02:00:39Z</time>
      </trkpt>
      <trkpt lat="42.207784" lon="2.197694">
        <ele>700.1</ele>
        <time>2019-08-19T02:00:40Z</time>
      </trkpt>
      <trkpt lat="42.207751" lon="2.197631">
        <ele>700</ele>
        <time>2019-08-19T02:00:41Z</time>
      </trkpt>
      <trkpt lat="42.207703" lon="2.197573">
        <ele>699.9</ele>
        <time>2019-08-19T02:00:42Z</time>
      </trkpt>
      <trkpt lat="42.207658" lon="2.197521">
        <ele>699.9</ele>
        <time>2019-08-19T02:00:43Z</time>
      </trkpt>
      <trkpt lat="42.207612" lon="2.197469">
        <ele>699.9</ele>
        <time>2019-08-19T02:00:44Z</time>
      </trkpt>
      <trkpt lat="42.207561" lon="2.197397">
        <ele>699.9</ele>
        <time>2019-08-19T02:00:45Z</time>
      </trkpt>
      <trkpt lat="42.207526" lon="2.197348">
        <ele>699.9</ele>
        <time>2019-08-19T02:00:46Z</time>
      </trkpt>
      <trkpt lat="42.207482" lon="2.197297">
        <ele>700.1</ele>
        <time>2019-08-19T02:00:47Z</time>
      </trkpt>
      <trkpt lat="42.207449" lon="2.197238">
        <ele>700.2</ele>
        <time>2019-08-19T02:00:48Z</time>
      </trkpt>
      <trkpt lat="42.207414" lon="2.197153">
        <ele>700.5</ele>
        <time>2019-08-19T02:00:49Z</time>
      </trkpt>
      <trkpt lat="42.207373" lon="2.197103">
        <ele>700.9</ele>
        <time>2019-08-19T02:00:50Z</time>
      </trkpt>
      <trkpt lat="42.207336" lon="2.197062">
        <ele>701.2</ele>
        <time>2019-08-19T02:00:51Z</time>
      </trkpt>
      <trkpt lat="42.20729" lon="2.196976">
        <ele>701.7</ele>
        <time>2019-08-19T02:00:52Z</time>
      </trkpt>
      <trkpt lat="42.207244" lon="2.196913">
        <ele>702.1</ele>
        <time>2019-08-19T02:00:53Z</time>
      </trkpt>
      <trkpt lat="42.207206" lon="2.196853">
        <ele>702.4</ele>
        <time>2019-08-19T02:00:54Z</time>
      </trkpt>
      <trkpt lat="42.207151" lon="2.196784">
        <ele>702.6</ele>
        <time>2019-08-19T02:00:55Z</time>
      </trkpt>
      <trkpt lat="42.207104" lon="2.196702">
        <ele>702.7</ele>
        <time>2019-08-19T02:00:56Z</time>
      </trkpt>
      <trkpt lat="42.207052" lon="2.196627">
        <ele>702.8</ele>
        <time>2019-08-19T02:00:57Z</time>
      </trkpt>
      <trkpt lat="42.207003" lon="2.196574">
        <ele>702.8</ele>
        <time>2019-08-19T02:00:58Z</time>
      </trkpt>
      <trkpt lat="42.206964" lon="2.19651">
        <ele>702.8</ele>
        <time>2019-08-19T02:00:59Z</time>
      </trkpt>
      <trkpt lat="42.206899" lon="2.196433">
        <ele>702.9</ele>
        <time>2019-08-19T02:01:00Z</time>
      </trkpt>
      <trkpt lat="42.206856" lon="2.196374">
        <ele>703</ele>
        <time>2019-08-19T02:01:01Z</time>
      </trkpt>
      <trkpt lat="42.206817" lon="2.19632">
        <ele>703.2</ele>
        <time>2019-08-19T02:01:02Z</time>
      </trkpt>
      <trkpt lat="42.206761" lon="2.196259">
        <ele>703.4</ele>
        <time>2019-08-19T02:01:03Z</time>
      </trkpt>
      <trkpt lat="42.206718" lon="2.196202">
        <ele>703.5</ele>
        <time>2019-08-19T02:01:04Z</time>
      </trkpt>
      <trkpt lat="42.206681" lon="2.196151">
        <ele>703.6</ele>
        <time>2019-08-19T02:01:05Z</time>
      </trkpt>
      <trkpt lat="42.206639" lon="2.196094">
        <ele>703.7</ele>
        <time>2019-08-19T02:01:06Z</time>
      </trkpt>
      <trkpt lat="42.206593" lon="2.196022">
        <ele>703.8</ele>
        <time>2019-08-19T02:01:07Z</time>
      </trkpt>
      <trkpt lat="42.206538" lon="2.195957">
        <ele>703.8</ele>
        <time>2019-08-19T02:01:08Z</time>
      </trkpt>
      <trkpt lat="42.2065" lon="2.195895">
        <ele>703.8</ele>
        <time>2019-08-19T02:01:09Z</time>
      </trkpt>
      <trkpt lat="42.20646" lon="2.195831">
        <ele>703.8</ele>
        <time>2019-08-19T02:01:10Z</time>
      </trkpt>
      <trkpt lat="42.206418" lon="2.195775">
        <ele>703.8</ele>
        <time>2019-08-19T02:01:11Z</time>
      </trkpt>
      <trkpt lat="42.206378" lon="2.195716">
        <ele>703.8</ele>
        <time>2019-08-19T02:01:12Z</time>
      </trkpt>
      <trkpt lat="42.20634" lon="2.195665">
        <ele>703.8</ele>
        <time>2019-08-19T02:01:13Z</time>
      </trkpt>
      <trkpt lat="42.2063" lon="2.195609">
        <ele>704</ele>
        <time>2019-08-19T02:01:14Z</time>
      </trkpt>
      <trkpt lat="42.206252" lon="2.195535">
        <ele>704.2</ele>
        <time>2019-08-19T02:01:15Z</time>
      </trkpt>
      <trkpt lat="42.206201" lon="2.195469">
        <ele>704.4</ele>
        <time>2019-08-19T02:01:16Z</time>
      </trkpt>
      <trkpt lat="42.206154" lon="2.195397">
        <ele>704.6</ele>
        <time>2019-08-19T02:01:17Z</time>
      </trkpt>
      <trkpt lat="42.206108" lon="2.195327">
        <ele>704.9</ele>
        <time>2019-08-19T02:01:18Z</time>
      </trkpt>
      <trkpt lat="42.206065" lon="2.195259">
        <ele>705.1</ele>
        <time>2019-08-19T02:01:19Z</time>
      </trkpt>
      <trkpt lat="42.206022" lon="2.195193">
        <ele>705.4</ele>
        <time>2019-08-19T02:01:20Z</time>
      </trkpt>
      <trkpt lat="42.205976" lon="2.195128">
        <ele>705.7</ele>
        <time>2019-08-19T02:01:21Z</time>
      </trkpt>
      <trkpt lat="42.205923" lon="2.195059">
        <ele>706</ele>
        <time>2019-08-19T02:01:22Z</time>
      </trkpt>
      <trkpt lat="42.205867" lon="2.194985">
        <ele>706.3</ele>
        <time>2019-08-19T02:01:23Z</time>
      </trkpt>
      <trkpt lat="42.205823" lon="2.194913">
        <ele>706.5</ele>
        <time>2019-08-19T02:01:24Z</time>
      </trkpt>
      <trkpt lat="42.205779" lon="2.194857">
        <ele>706.6</ele>
        <time>2019-08-19T02:01:25Z</time>
      </trkpt>
      <trkpt lat="42.205736" lon="2.194797">
        <ele>706.8</ele>
        <time>2019-08-19T02:01:26Z</time>
      </trkpt>
      <trkpt lat="42.205694" lon="2.194738">
        <ele>706.9</ele>
        <time>2019-08-19T02:01:27Z</time>
      </trkpt>
      <trkpt lat="42.205649" lon="2.19468">
        <ele>707.1</ele>
        <time>2019-08-19T02:01:28Z</time>
      </trkpt>
      <trkpt lat="42.205615" lon="2.194622">
        <ele>707.2</ele>
        <time>2019-08-19T02:01:29Z</time>
      </trkpt>
      <trkpt lat="42.205572" lon="2.19456">
        <ele>707.2</ele>
        <time>2019-08-19T02:01:30Z</time>
      </trkpt>
      <trkpt lat="42.205521" lon="2.194507">
        <ele>707.1</ele>
        <time>2019-08-19T02:01:31Z</time>
      </trkpt>
      <trkpt lat="42.205476" lon="2.194453">
        <ele>706.9</ele>
        <time>2019-08-19T02:01:32Z</time>
      </trkpt>
      <trkpt lat="42.205439" lon="2.194392">
        <ele>706.8</ele>
        <time>2019-08-19T02:01:33Z</time>
      </trkpt>
      <trkpt lat="42.205412" lon="2.194323">
        <ele>706.8</ele>
        <time>2019-08-19T02:01:34Z</time>
      </trkpt>
      <trkpt lat="42.205373" lon="2.194265">
        <ele>706.7</ele>
        <time>2019-08-19T02:01:35Z</time>
      </trkpt>
      <trkpt lat="42.205331" lon="2.194219">
        <ele>706.7</ele>
        <time>2019-08-19T02:01:36Z</time>
      </trkpt>
      <trkpt lat="42.205288" lon="2.194163">
        <ele>706.6</ele>
        <time>2019-08-19T02:01:37Z</time>
      </trkpt>
      <trkpt lat="42.20523" lon="2.194105">
        <ele>706.5</ele>
        <time>2019-08-19T02:01:38Z</time>
      </trkpt>
      <trkpt lat="42.205168" lon="2.194063">
        <ele>706.5</ele>
        <time>2019-08-19T02:01:39Z</time>
      </trkpt>
      <trkpt lat="42.205105" lon="2.194037">
        <ele>706.5</ele>
        <time>2019-08-19T02:01:40Z</time>
      </trkpt>
      <trkpt lat="42.205046" lon="2.194017">
        <ele>706.5</ele>
        <time>2019-08-19T02:01:41Z</time>
      </trkpt>
      <trkpt lat="42.204986" lon="2.193994">
        <ele>706.4</ele>
        <time>2019-08-19T02:01:42Z</time>
      </trkpt>
      <trkpt lat="42.204931" lon="2.193958">
        <ele>706.4</ele>
        <time>2019-08-19T02:01:43Z</time>
      </trkpt>
      <trkpt lat="42.20487" lon="2.193933">
        <ele>706.3</ele>
        <time>2019-08-19T02:01:44Z</time>
      </trkpt>
      <trkpt lat="42.204844" lon="2.19391">
        <ele>706.3</ele>
        <time>2019-08-19T02:01:45Z</time>
      </trkpt>
      <trkpt lat="42.204804" lon="2.193872">
        <ele>706.2</ele>
        <time>2019-08-19T02:01:46Z</time>
      </trkpt>
      <trkpt lat="42.204753" lon="2.193825">
        <ele>706.1</ele>
        <time>2019-08-19T02:01:47Z</time>
      </trkpt>
      <trkpt lat="42.204709" lon="2.19378">
        <ele>706.1</ele>
        <time>2019-08-19T02:01:48Z</time>
      </trkpt>
      <trkpt lat="42.204664" lon="2.193731">
        <ele>706</ele>
        <time>2019-08-19T02:01:49Z</time>
      </trkpt>
      <trkpt lat="42.204594" lon="2.193712">
        <ele>705.9</ele>
        <time>2019-08-19T02:01:50Z</time>
      </trkpt>
      <trkpt lat="42.204551" lon="2.193664">
        <ele>705.7</ele>
        <time>2019-08-19T02:01:51Z</time>
      </trkpt>
      <trkpt lat="42.204504" lon="2.193615">
        <ele>705.9</ele>
        <time>2019-08-19T02:01:52Z</time>
      </trkpt>
      <trkpt lat="42.204466" lon="2.193571">
        <ele>706.2</ele>
        <time>2019-08-19T02:01:53Z</time>
      </trkpt>
      <trkpt lat="42.204435" lon="2.193522">
        <ele>706.4</ele>
        <time>2019-08-19T02:01:54Z</time>
      </trkpt>
      <trkpt lat="42.204401" lon="2.193475">
        <ele>706.6</ele>
        <time>2019-08-19T02:01:55Z</time>
      </trkpt>
      <trkpt lat="42.204372" lon="2.193414">
        <ele>706.9</ele>
        <time>2019-08-19T02:01:56Z</time>
      </trkpt>
      <trkpt lat="42.204334" lon="2.193368">
        <ele>707</ele>
        <time>2019-08-19T02:01:57Z</time>
      </trkpt>
      <trkpt lat="42.204303" lon="2.193306">
        <ele>707.2</ele>
        <time>2019-08-19T02:01:58Z</time>
      </trkpt>
      <trkpt lat="42.204266" lon="2.193237">
        <ele>707.3</ele>
        <time>2019-08-19T02:01:59Z</time>
      </trkpt>
      <trkpt lat="42.204229" lon="2.193171">
        <ele>707.3</ele>
        <time>2019-08-19T02:02:00Z</time>
      </trkpt>
      <trkpt lat="42.204196" lon="2.193121">
        <ele>707.3</ele>
        <time>2019-08-19T02:02:01Z</time>
      </trkpt>
      <trkpt lat="42.204171" lon="2.19307">
        <ele>707.4</ele>
        <time>2019-08-19T02:02:02Z</time>
      </trkpt>
      <trkpt lat="42.204137" lon="2.193049">
        <ele>707.4</ele>
        <time>2019-08-19T02:02:04Z</time>
      </trkpt>
      <trkpt lat="42.204074" lon="2.192965">
        <ele>707.4</ele>
        <time>2019-08-19T02:02:05Z</time>
      </trkpt>
      <trkpt lat="42.204022" lon="2.192908">
        <ele>707.4</ele>
        <time>2019-08-19T02:02:06Z</time>
      </trkpt>
      <trkpt lat="42.203973" lon="2.192856">
        <ele>707.4</ele>
        <time>2019-08-19T02:02:07Z</time>
      </trkpt>
      <trkpt lat="42.20394" lon="2.192792">
        <ele>707.4</ele>
        <time>2019-08-19T02:02:08Z</time>
      </trkpt>
      <trkpt lat="42.203865" lon="2.19274">
        <ele>707.4</ele>
        <time>2019-08-19T02:02:09Z</time>
      </trkpt>
      <trkpt lat="42.20383" lon="2.192679">
        <ele>707.4</ele>
        <time>2019-08-19T02:02:10Z</time>
      </trkpt>
      <trkpt lat="42.203783" lon="2.192636">
        <ele>707.4</ele>
        <time>2019-08-19T02:02:11Z</time>
      </trkpt>
      <trkpt lat="42.203734" lon="2.192591">
        <ele>707.5</ele>
        <time>2019-08-19T02:02:12Z</time>
      </trkpt>
      <trkpt lat="42.203693" lon="2.192536">
        <ele>707.5</ele>
        <time>2019-08-19T02:02:13Z</time>
      </trkpt>
      <trkpt lat="42.203651" lon="2.192482">
        <ele>707.6</ele>
        <time>2019-08-19T02:02:14Z</time>
      </trkpt>
      <trkpt lat="42.203603" lon="2.192471">
        <ele>707.6</ele>
        <time>2019-08-19T02:02:15Z</time>
      </trkpt>
      <trkpt lat="42.203548" lon="2.192437">
        <ele>707.7</ele>
        <time>2019-08-19T02:02:16Z</time>
      </trkpt>
      <trkpt lat="42.20348" lon="2.192418">
        <ele>707.8</ele>
        <time>2019-08-19T02:02:17Z</time>
      </trkpt>
      <trkpt lat="42.203445" lon="2.192404">
        <ele>707.5</ele>
        <time>2019-08-19T02:02:18Z</time>
      </trkpt>
      <trkpt lat="42.20342" lon="2.192387">
        <ele>707.3</ele>
        <time>2019-08-19T02:02:19Z</time>
      </trkpt>
      <trkpt lat="42.203356" lon="2.192351">
        <ele>706.8</ele>
        <time>2019-08-19T02:02:20Z</time>
      </trkpt>
      <trkpt lat="42.203305" lon="2.192307">
        <ele>706.5</ele>
        <time>2019-08-19T02:02:21Z</time>
      </trkpt>
      <trkpt lat="42.203236" lon="2.19229">
        <ele>706.2</ele>
        <time>2019-08-19T02:02:22Z</time>
      </trkpt>
      <trkpt lat="42.203169" lon="2.192244">
        <ele>705.7</ele>
        <time>2019-08-19T02:02:23Z</time>
      </trkpt>
      <trkpt lat="42.203118" lon="2.192225">
        <ele>705.2</ele>
        <time>2019-08-19T02:02:24Z</time>
      </trkpt>
      <trkpt lat="42.20305" lon="2.192191">
        <ele>704.1</ele>
        <time>2019-08-19T02:02:25Z</time>
      </trkpt>
      <trkpt lat="42.202997" lon="2.192165">
        <ele>703.2</ele>
        <time>2019-08-19T02:02:26Z</time>
      </trkpt>
      <trkpt lat="42.202937" lon="2.192139">
        <ele>702.1</ele>
        <time>2019-08-19T02:02:27Z</time>
      </trkpt>
      <trkpt lat="42.202869" lon="2.192134">
        <ele>700.9</ele>
        <time>2019-08-19T02:02:28Z</time>
      </trkpt>
      <trkpt lat="42.202822" lon="2.1921">
        <ele>700.2</ele>
        <time>2019-08-19T02:02:29Z</time>
      </trkpt>
      <trkpt lat="42.202762" lon="2.192074">
        <ele>699.4</ele>
        <time>2019-08-19T02:02:30Z</time>
      </trkpt>
      <trkpt lat="42.202713" lon="2.192067">
        <ele>699</ele>
        <time>2019-08-19T02:02:31Z</time>
      </trkpt>
      <trkpt lat="42.202664" lon="2.192041">
        <ele>698.5</ele>
        <time>2019-08-19T02:02:32Z</time>
      </trkpt>
      <trkpt lat="42.202612" lon="2.192019">
        <ele>698.2</ele>
        <time>2019-08-19T02:02:33Z</time>
      </trkpt>
      <trkpt lat="42.202558" lon="2.19198">
        <ele>697.8</ele>
        <time>2019-08-19T02:02:34Z</time>
      </trkpt>
      <trkpt lat="42.202518" lon="2.191963">
        <ele>697.6</ele>
        <time>2019-08-19T02:02:35Z</time>
      </trkpt>
      <trkpt lat="42.202466" lon="2.191931">
        <ele>697.4</ele>
        <time>2019-08-19T02:02:36Z</time>
      </trkpt>
      <trkpt lat="42.20241" lon="2.191883">
        <ele>697.2</ele>
        <time>2019-08-19T02:02:37Z</time>
      </trkpt>
      <trkpt lat="42.202345" lon="2.191846">
        <ele>697.1</ele>
        <time>2019-08-19T02:02:38Z</time>
      </trkpt>
      <trkpt lat="42.202264" lon="2.191813">
        <ele>696.9</ele>
        <time>2019-08-19T02:02:39Z</time>
      </trkpt>
      <trkpt lat="42.20221" lon="2.191782">
        <ele>696.9</ele>
        <time>2019-08-19T02:02:40Z</time>
      </trkpt>
      <trkpt lat="42.202161" lon="2.191741">
        <ele>696.8</ele>
        <time>2019-08-19T02:02:41Z</time>
      </trkpt>
      <trkpt lat="42.202095" lon="2.191722">
        <ele>696.8</ele>
        <time>2019-08-19T02:02:42Z</time>
      </trkpt>
      <trkpt lat="42.202059" lon="2.191687">
        <ele>696.8</ele>
        <time>2019-08-19T02:02:43Z</time>
      </trkpt>
      <trkpt lat="42.202021" lon="2.191673">
        <ele>696.7</ele>
        <time>2019-08-19T02:02:44Z</time>
      </trkpt>
      <trkpt lat="42.201983" lon="2.191647">
        <ele>696.7</ele>
        <time>2019-08-19T02:02:45Z</time>
      </trkpt>
      <trkpt lat="42.20195" lon="2.191618">
        <ele>696.7</ele>
        <time>2019-08-19T02:02:46Z</time>
      </trkpt>
      <trkpt lat="42.201953" lon="2.19158">
        <ele>696.7</ele>
        <time>2019-08-19T02:03:05Z</time>
      </trkpt>
      <trkpt lat="42.201919" lon="2.191552">
        <ele>696.6</ele>
        <time>2019-08-19T02:04:21Z</time>
      </trkpt>
      <trkpt lat="42.201893" lon="2.191545">
        <ele>696.6</ele>
        <time>2019-08-19T02:04:24Z</time>
      </trkpt>
      <trkpt lat="42.201846" lon="2.191534">
        <ele>696.6</ele>
        <time>2019-08-19T02:04:26Z</time>
      </trkpt>
      <trkpt lat="42.201817" lon="2.191522">
        <ele>696.5</ele>
        <time>2019-08-19T02:04:27Z</time>
      </trkpt>
      <trkpt lat="42.201788" lon="2.191507">
        <ele>696.5</ele>
        <time>2019-08-19T02:04:28Z</time>
      </trkpt>
      <trkpt lat="42.201756" lon="2.191492">
        <ele>696.5</ele>
        <time>2019-08-19T02:04:29Z</time>
      </trkpt>
      <trkpt lat="42.201721" lon="2.191475">
        <ele>696.5</ele>
        <time>2019-08-19T02:04:30Z</time>
      </trkpt>
      <trkpt lat="42.201683" lon="2.191457">
        <ele>696.5</ele>
        <time>2019-08-19T02:04:31Z</time>
      </trkpt>
      <trkpt lat="42.20164" lon="2.191421">
        <ele>696.4</ele>
        <time>2019-08-19T02:04:32Z</time>
      </trkpt>
      <trkpt lat="42.201595" lon="2.191396">
        <ele>696.4</ele>
        <time>2019-08-19T02:04:33Z</time>
      </trkpt>
      <trkpt lat="42.201554" lon="2.191367">
        <ele>696.4</ele>
        <time>2019-08-19T02:04:34Z</time>
      </trkpt>
      <trkpt lat="42.201509" lon="2.191352">
        <ele>696.4</ele>
        <time>2019-08-19T02:04:35Z</time>
      </trkpt>
      <trkpt lat="42.201473" lon="2.191316">
        <ele>696.4</ele>
        <time>2019-08-19T02:04:36Z</time>
      </trkpt>
      <trkpt lat="42.201439" lon="2.19129">
        <ele>696.4</ele>
        <time>2019-08-19T02:04:37Z</time>
      </trkpt>
      <trkpt lat="42.201398" lon="2.191273">
        <ele>696.4</ele>
        <time>2019-08-19T02:04:38Z</time>
      </trkpt>
      <trkpt lat="42.201351" lon="2.191261">
        <ele>696.4</ele>
        <time>2019-08-19T02:04:39Z</time>
      </trkpt>
      <trkpt lat="42.201314" lon="2.191235">
        <ele>696.4</ele>
        <time>2019-08-19T02:04:40Z</time>
      </trkpt>
      <trkpt lat="42.201282" lon="2.191212">
        <ele>696.4</ele>
        <time>2019-08-19T02:04:41Z</time>
      </trkpt>
      <trkpt lat="42.201259" lon="2.191182">
        <ele>696.4</ele>
        <time>2019-08-19T02:04:42Z</time>
      </trkpt>
      <trkpt lat="42.201221" lon="2.191165">
        <ele>696.4</ele>
        <time>2019-08-19T02:04:43Z</time>
      </trkpt>
      <trkpt lat="42.201194" lon="2.191135">
        <ele>696.4</ele>
        <time>2019-08-19T02:04:44Z</time>
      </trkpt>
      <trkpt lat="42.201156" lon="2.191124">
        <ele>696.4</ele>
        <time>2019-08-19T02:04:45Z</time>
      </trkpt>
      <trkpt lat="42.201124" lon="2.191109">
        <ele>696.4</ele>
        <time>2019-08-19T02:04:46Z</time>
      </trkpt>
      <trkpt lat="42.201089" lon="2.191098">
        <ele>696.4</ele>
        <time>2019-08-19T02:04:47Z</time>
      </trkpt>
      <trkpt lat="42.201055" lon="2.191091">
        <ele>696.5</ele>
        <time>2019-08-19T02:04:48Z</time>
      </trkpt>
      <trkpt lat="42.20102" lon="2.191086">
        <ele>696.5</ele>
        <time>2019-08-19T02:04:49Z</time>
      </trkpt>
      <trkpt lat="42.200985" lon="2.191083">
        <ele>696.5</ele>
        <time>2019-08-19T02:04:50Z</time>
      </trkpt>
      <trkpt lat="42.200949" lon="2.191085">
        <ele>696.5</ele>
        <time>2019-08-19T02:04:51Z</time>
      </trkpt>
      <trkpt lat="42.200916" lon="2.191076">
        <ele>696.5</ele>
        <time>2019-08-19T02:04:52Z</time>
      </trkpt>
      <trkpt lat="42.200884" lon="2.191064">
        <ele>696.5</ele>
        <time>2019-08-19T02:04:53Z</time>
      </trkpt>
      <trkpt lat="42.200852" lon="2.191041">
        <ele>696.6</ele>
        <time>2019-08-19T02:04:54Z</time>
      </trkpt>
      <trkpt lat="42.20082" lon="2.191014">
        <ele>696.6</ele>
        <time>2019-08-19T02:04:55Z</time>
      </trkpt>
      <trkpt lat="42.200801" lon="2.190765">
        <ele>696.6</ele>
        <time>2019-08-19T02:04:57Z</time>
      </trkpt>
      <trkpt lat="42.200756" lon="2.19072">
        <ele>696.6</ele>
        <time>2019-08-19T02:04:58Z</time>
      </trkpt>
      <trkpt lat="42.200735" lon="2.190671">
        <ele>696.6</ele>
        <time>2019-08-19T02:04:59Z</time>
      </trkpt>
      <trkpt lat="42.200698" lon="2.19065">
        <ele>696.6</ele>
        <time>2019-08-19T02:05:00Z</time>
      </trkpt>
      <trkpt lat="42.200648" lon="2.190654">
        <ele>696.5</ele>
        <time>2019-08-19T02:05:02Z</time>
      </trkpt>
      <trkpt lat="42.200618" lon="2.190671">
        <ele>696.5</ele>
        <time>2019-08-19T02:05:03Z</time>
      </trkpt>
      <trkpt lat="42.200577" lon="2.19072">
        <ele>696.3</ele>
        <time>2019-08-19T02:05:05Z</time>
      </trkpt>
      <trkpt lat="42.200553" lon="2.190765">
        <ele>696.2</ele>
        <time>2019-08-19T02:05:07Z</time>
      </trkpt>
      <trkpt lat="42.200514" lon="2.190819">
        <ele>696</ele>
        <time>2019-08-19T02:05:08Z</time>
      </trkpt>
      <trkpt lat="42.200488" lon="2.190831">
        <ele>696</ele>
        <time>2019-08-19T02:05:09Z</time>
      </trkpt>
      <trkpt lat="42.200452" lon="2.190861">
        <ele>695.9</ele>
        <time>2019-08-19T02:05:11Z</time>
      </trkpt>
      <trkpt lat="42.200415" lon="2.190907">
        <ele>695.7</ele>
        <time>2019-08-19T02:05:13Z</time>
      </trkpt>
      <trkpt lat="42.20038" lon="2.19096">
        <ele>695.6</ele>
        <time>2019-08-19T02:05:15Z</time>
      </trkpt>
      <trkpt lat="42.200342" lon="2.191013">
        <ele>695.5</ele>
        <time>2019-08-19T02:05:17Z</time>
      </trkpt>
      <trkpt lat="42.200309" lon="2.191052">
        <ele>695.4</ele>
        <time>2019-08-19T02:05:18Z</time>
      </trkpt>
      <trkpt lat="42.200271" lon="2.191098">
        <ele>695.2</ele>
        <time>2019-08-19T02:05:19Z</time>
      </trkpt>
      <trkpt lat="42.200236" lon="2.191141">
        <ele>695</ele>
        <time>2019-08-19T02:05:20Z</time>
      </trkpt>
      <trkpt lat="42.200202" lon="2.19118">
        <ele>694.8</ele>
        <time>2019-08-19T02:05:21Z</time>
      </trkpt>
      <trkpt lat="42.200165" lon="2.191215">
        <ele>694.6</ele>
        <time>2019-08-19T02:05:22Z</time>
      </trkpt>
      <trkpt lat="42.200127" lon="2.191227">
        <ele>694.3</ele>
        <time>2019-08-19T02:05:23Z</time>
      </trkpt>
      <trkpt lat="42.200094" lon="2.191236">
        <ele>694.2</ele>
        <time>2019-08-19T02:05:24Z</time>
      </trkpt>
      <trkpt lat="42.20006" lon="2.191261">
        <ele>694.1</ele>
        <time>2019-08-19T02:05:25Z</time>
      </trkpt>
      <trkpt lat="42.20002" lon="2.191301">
        <ele>693.9</ele>
        <time>2019-08-19T02:05:26Z</time>
      </trkpt>
      <trkpt lat="42.19998" lon="2.191344">
        <ele>693.6</ele>
        <time>2019-08-19T02:05:27Z</time>
      </trkpt>
      <trkpt lat="42.199944" lon="2.191405">
        <ele>693.4</ele>
        <time>2019-08-19T02:05:28Z</time>
      </trkpt>
      <trkpt lat="42.199923" lon="2.191471">
        <ele>693.1</ele>
        <time>2019-08-19T02:05:29Z</time>
      </trkpt>
      <trkpt lat="42.199917" lon="2.191531">
        <ele>692.9</ele>
        <time>2019-08-19T02:05:30Z</time>
      </trkpt>
      <trkpt lat="42.199929" lon="2.191582">
        <ele>692.8</ele>
        <time>2019-08-19T02:05:31Z</time>
      </trkpt>
      <trkpt lat="42.199948" lon="2.191628">
        <ele>692.6</ele>
        <time>2019-08-19T02:05:32Z</time>
      </trkpt>
      <trkpt lat="42.199971" lon="2.191667">
        <ele>692.4</ele>
        <time>2019-08-19T02:05:33Z</time>
      </trkpt>
      <trkpt lat="42.199992" lon="2.191701">
        <ele>692.3</ele>
        <time>2019-08-19T02:05:34Z</time>
      </trkpt>
      <trkpt lat="42.200013" lon="2.191735">
        <ele>692.2</ele>
        <time>2019-08-19T02:05:35Z</time>
      </trkpt>
      <trkpt lat="42.200023" lon="2.191773">
        <ele>692.2</ele>
        <time>2019-08-19T02:05:36Z</time>
      </trkpt>
      <trkpt lat="42.20002" lon="2.191815">
        <ele>692.2</ele>
        <time>2019-08-19T02:05:37Z</time>
      </trkpt>
      <trkpt lat="42.200009" lon="2.191855">
        <ele>691.7</ele>
        <time>2019-08-19T02:05:38Z</time>
      </trkpt>
      <trkpt lat="42.199999" lon="2.191899">
        <ele>691.5</ele>
        <time>2019-08-19T02:05:39Z</time>
      </trkpt>
      <trkpt lat="42.19999" lon="2.191939">
        <ele>691.3</ele>
        <time>2019-08-19T02:05:40Z</time>
      </trkpt>
      <trkpt lat="42.199972" lon="2.191971">
        <ele>691.2</ele>
        <time>2019-08-19T02:05:41Z</time>
      </trkpt>
      <trkpt lat="42.19995" lon="2.192007">
        <ele>691</ele>
        <time>2019-08-19T02:05:42Z</time>
      </trkpt>
      <trkpt lat="42.199923" lon="2.192039">
        <ele>690.8</ele>
        <time>2019-08-19T02:05:43Z</time>
      </trkpt>
      <trkpt lat="42.199894" lon="2.192071">
        <ele>690.5</ele>
        <time>2019-08-19T02:05:44Z</time>
      </trkpt>
      <trkpt lat="42.199869" lon="2.19211">
        <ele>690.3</ele>
        <time>2019-08-19T02:05:45Z</time>
      </trkpt>
      <trkpt lat="42.199846" lon="2.192151">
        <ele>690.1</ele>
        <time>2019-08-19T02:05:46Z</time>
      </trkpt>
      <trkpt lat="42.199831" lon="2.192194">
        <ele>689.9</ele>
        <time>2019-08-19T02:05:47Z</time>
      </trkpt>
      <trkpt lat="42.19982" lon="2.192238">
        <ele>689.8</ele>
        <time>2019-08-19T02:05:48Z</time>
      </trkpt>
      <trkpt lat="42.199815" lon="2.192281">
        <ele>689.7</ele>
        <time>2019-08-19T02:05:49Z</time>
      </trkpt>
      <trkpt lat="42.199811" lon="2.192324">
        <ele>689.6</ele>
        <time>2019-08-19T02:05:50Z</time>
      </trkpt>
      <trkpt lat="42.199809" lon="2.192365">
        <ele>689.6</ele>
        <time>2019-08-19T02:05:51Z</time>
      </trkpt>
      <trkpt lat="42.199806" lon="2.192406">
        <ele>689.7</ele>
        <time>2019-08-19T02:05:52Z</time>
      </trkpt>
      <trkpt lat="42.199804" lon="2.192446">
        <ele>689.8</ele>
        <time>2019-08-19T02:05:53Z</time>
      </trkpt>
      <trkpt lat="42.199795" lon="2.192481">
        <ele>689.9</ele>
        <time>2019-08-19T02:05:54Z</time>
      </trkpt>
      <trkpt lat="42.199783" lon="2.192517">
        <ele>689.9</ele>
        <time>2019-08-19T02:05:55Z</time>
      </trkpt>
      <trkpt lat="42.199767" lon="2.192548">
        <ele>690</ele>
        <time>2019-08-19T02:05:56Z</time>
      </trkpt>
      <trkpt lat="42.199744" lon="2.192565">
        <ele>690.1</ele>
        <time>2019-08-19T02:05:57Z</time>
      </trkpt>
      <trkpt lat="42.199712" lon="2.192571">
        <ele>689.9</ele>
        <time>2019-08-19T02:05:58Z</time>
      </trkpt>
      <trkpt lat="42.199677" lon="2.192568">
        <ele>689.9</ele>
        <time>2019-08-19T02:05:59Z</time>
      </trkpt>
      <trkpt lat="42.19964" lon="2.192563">
        <ele>689.8</ele>
        <time>2019-08-19T02:06:00Z</time>
      </trkpt>
      <trkpt lat="42.199603" lon="2.192564">
        <ele>689.7</ele>
        <time>2019-08-19T02:06:01Z</time>
      </trkpt>
      <trkpt lat="42.199567" lon="2.192568">
        <ele>689.7</ele>
        <time>2019-08-19T02:06:02Z</time>
      </trkpt>
      <trkpt lat="42.199532" lon="2.192573">
        <ele>689.6</ele>
        <time>2019-08-19T02:06:03Z</time>
      </trkpt>
      <trkpt lat="42.199497" lon="2.192578">
        <ele>689.6</ele>
        <time>2019-08-19T02:06:04Z</time>
      </trkpt>
      <trkpt lat="42.199461" lon="2.192581">
        <ele>689.5</ele>
        <time>2019-08-19T02:06:05Z</time>
      </trkpt>
      <trkpt lat="42.199424" lon="2.192583">
        <ele>689.5</ele>
        <time>2019-08-19T02:06:06Z</time>
      </trkpt>
      <trkpt lat="42.199385" lon="2.192586">
        <ele>689.4</ele>
        <time>2019-08-19T02:06:07Z</time>
      </trkpt>
      <trkpt lat="42.199344" lon="2.19259">
        <ele>689.3</ele>
        <time>2019-08-19T02:06:08Z</time>
      </trkpt>
      <trkpt lat="42.199304" lon="2.192594">
        <ele>689.3</ele>
        <time>2019-08-19T02:06:09Z</time>
      </trkpt>
      <trkpt lat="42.199264" lon="2.192599">
        <ele>689.2</ele>
        <time>2019-08-19T02:06:10Z</time>
      </trkpt>
      <trkpt lat="42.199224" lon="2.192606">
        <ele>689.1</ele>
        <time>2019-08-19T02:06:11Z</time>
      </trkpt>
      <trkpt lat="42.199184" lon="2.192617">
        <ele>689.1</ele>
        <time>2019-08-19T02:06:12Z</time>
      </trkpt>
      <trkpt lat="42.199148" lon="2.19263">
        <ele>689</ele>
        <time>2019-08-19T02:06:13Z</time>
      </trkpt>
      <trkpt lat="42.199113" lon="2.192642">
        <ele>689</ele>
        <time>2019-08-19T02:06:14Z</time>
      </trkpt>
      <trkpt lat="42.199078" lon="2.192654">
        <ele>688.9</ele>
        <time>2019-08-19T02:06:15Z</time>
      </trkpt>
      <trkpt lat="42.199045" lon="2.192666">
        <ele>688.9</ele>
        <time>2019-08-19T02:06:16Z</time>
      </trkpt>
      <trkpt lat="42.199013" lon="2.192678">
        <ele>688.9</ele>
        <time>2019-08-19T02:06:17Z</time>
      </trkpt>
      <trkpt lat="42.19898" lon="2.192692">
        <ele>688.9</ele>
        <time>2019-08-19T02:06:18Z</time>
      </trkpt>
      <trkpt lat="42.198947" lon="2.192707">
        <ele>688.9</ele>
        <time>2019-08-19T02:06:19Z</time>
      </trkpt>
      <trkpt lat="42.198917" lon="2.192732">
        <ele>688.9</ele>
        <time>2019-08-19T02:06:20Z</time>
      </trkpt>
      <trkpt lat="42.198888" lon="2.192755">
        <ele>688.9</ele>
        <time>2019-08-19T02:06:21Z</time>
      </trkpt>
      <trkpt lat="42.198859" lon="2.192771">
        <ele>688.9</ele>
        <time>2019-08-19T02:06:22Z</time>
      </trkpt>
      <trkpt lat="42.198827" lon="2.192785">
        <ele>688.9</ele>
        <time>2019-08-19T02:06:23Z</time>
      </trkpt>
      <trkpt lat="42.198797" lon="2.192799">
        <ele>688.9</ele>
        <time>2019-08-19T02:06:24Z</time>
      </trkpt>
      <trkpt lat="42.198765" lon="2.192814">
        <ele>688.9</ele>
        <time>2019-08-19T02:06:25Z</time>
      </trkpt>
      <trkpt lat="42.19873" lon="2.192836">
        <ele>688.9</ele>
        <time>2019-08-19T02:06:26Z</time>
      </trkpt>
      <trkpt lat="42.198691" lon="2.192862">
        <ele>688.9</ele>
        <time>2019-08-19T02:06:27Z</time>
      </trkpt>
      <trkpt lat="42.198651" lon="2.192887">
        <ele>688.9</ele>
        <time>2019-08-19T02:06:28Z</time>
      </trkpt>
      <trkpt lat="42.198615" lon="2.192911">
        <ele>688.9</ele>
        <time>2019-08-19T02:06:29Z</time>
      </trkpt>
      <trkpt lat="42.198581" lon="2.192935">
        <ele>688.9</ele>
        <time>2019-08-19T02:06:30Z</time>
      </trkpt>
      <trkpt lat="42.198547" lon="2.192961">
        <ele>688.9</ele>
        <time>2019-08-19T02:06:31Z</time>
      </trkpt>
      <trkpt lat="42.198514" lon="2.192987">
        <ele>688.9</ele>
        <time>2019-08-19T02:06:32Z</time>
      </trkpt>
      <trkpt lat="42.19848" lon="2.193017">
        <ele>688.9</ele>
        <time>2019-08-19T02:06:33Z</time>
      </trkpt>
      <trkpt lat="42.198443" lon="2.193052">
        <ele>688.9</ele>
        <time>2019-08-19T02:06:34Z</time>
      </trkpt>
      <trkpt lat="42.198411" lon="2.193084">
        <ele>688.8</ele>
        <time>2019-08-19T02:06:35Z</time>
      </trkpt>
      <trkpt lat="42.198372" lon="2.193114">
        <ele>688.8</ele>
        <time>2019-08-19T02:06:36Z</time>
      </trkpt>
      <trkpt lat="42.198332" lon="2.19314">
        <ele>688.7</ele>
        <time>2019-08-19T02:06:37Z</time>
      </trkpt>
      <trkpt lat="42.198297" lon="2.193164">
        <ele>688.6</ele>
        <time>2019-08-19T02:06:38Z</time>
      </trkpt>
      <trkpt lat="42.198265" lon="2.193184">
        <ele>688.5</ele>
        <time>2019-08-19T02:06:39Z</time>
      </trkpt>
      <trkpt lat="42.198235" lon="2.1932">
        <ele>688.4</ele>
        <time>2019-08-19T02:06:40Z</time>
      </trkpt>
      <trkpt lat="42.198205" lon="2.193215">
        <ele>688.3</ele>
        <time>2019-08-19T02:06:41Z</time>
      </trkpt>
      <trkpt lat="42.19817" lon="2.193235">
        <ele>688.1</ele>
        <time>2019-08-19T02:06:43Z</time>
      </trkpt>
      <trkpt lat="42.19814" lon="2.193274">
        <ele>688</ele>
        <time>2019-08-19T02:07:38Z</time>
      </trkpt>
      <trkpt lat="42.198116" lon="2.193296">
        <ele>687.9</ele>
        <time>2019-08-19T02:07:39Z</time>
      </trkpt>
      <trkpt lat="42.198087" lon="2.193322">
        <ele>687.7</ele>
        <time>2019-08-19T02:07:40Z</time>
      </trkpt>
      <trkpt lat="42.19805" lon="2.193347">
        <ele>687.6</ele>
        <time>2019-08-19T02:07:41Z</time>
      </trkpt>
      <trkpt lat="42.198014" lon="2.193371">
        <ele>687.4</ele>
        <time>2019-08-19T02:07:42Z</time>
      </trkpt>
      <trkpt lat="42.197978" lon="2.193399">
        <ele>687.2</ele>
        <time>2019-08-19T02:07:43Z</time>
      </trkpt>
      <trkpt lat="42.197943" lon="2.193431">
        <ele>687.1</ele>
        <time>2019-08-19T02:07:44Z</time>
      </trkpt>
      <trkpt lat="42.197912" lon="2.193466">
        <ele>687</ele>
        <time>2019-08-19T02:07:45Z</time>
      </trkpt>
      <trkpt lat="42.197883" lon="2.193497">
        <ele>687</ele>
        <time>2019-08-19T02:07:46Z</time>
      </trkpt>
      <trkpt lat="42.19785" lon="2.193531">
        <ele>686.9</ele>
        <time>2019-08-19T02:07:47Z</time>
      </trkpt>
      <trkpt lat="42.197816" lon="2.193566">
        <ele>686.8</ele>
        <time>2019-08-19T02:07:48Z</time>
      </trkpt>
      <trkpt lat="42.197779" lon="2.193598">
        <ele>686.7</ele>
        <time>2019-08-19T02:07:49Z</time>
      </trkpt>
      <trkpt lat="42.197742" lon="2.19363">
        <ele>686.6</ele>
        <time>2019-08-19T02:07:50Z</time>
      </trkpt>
      <trkpt lat="42.197709" lon="2.193664">
        <ele>686.5</ele>
        <time>2019-08-19T02:07:51Z</time>
      </trkpt>
      <trkpt lat="42.197677" lon="2.193696">
        <ele>686.5</ele>
        <time>2019-08-19T02:07:52Z</time>
      </trkpt>
      <trkpt lat="42.197647" lon="2.193726">
        <ele>686.4</ele>
        <time>2019-08-19T02:07:53Z</time>
      </trkpt>
      <trkpt lat="42.197617" lon="2.193756">
        <ele>686.3</ele>
        <time>2019-08-19T02:07:54Z</time>
      </trkpt>
      <trkpt lat="42.197585" lon="2.193784">
        <ele>686.2</ele>
        <time>2019-08-19T02:07:55Z</time>
      </trkpt>
      <trkpt lat="42.197554" lon="2.193809">
        <ele>686.1</ele>
        <time>2019-08-19T02:07:56Z</time>
      </trkpt>
      <trkpt lat="42.197526" lon="2.193834">
        <ele>686.1</ele>
        <time>2019-08-19T02:07:57Z</time>
      </trkpt>
      <trkpt lat="42.197502" lon="2.193862">
        <ele>686</ele>
        <time>2019-08-19T02:07:58Z</time>
      </trkpt>
      <trkpt lat="42.19748" lon="2.193891">
        <ele>685.9</ele>
        <time>2019-08-19T02:07:59Z</time>
      </trkpt>
      <trkpt lat="42.197464" lon="2.193925">
        <ele>685.9</ele>
        <time>2019-08-19T02:08:00Z</time>
      </trkpt>
      <trkpt lat="42.197455" lon="2.193962">
        <ele>685.8</ele>
        <time>2019-08-19T02:08:01Z</time>
      </trkpt>
      <trkpt lat="42.197452" lon="2.193999">
        <ele>685.8</ele>
        <time>2019-08-19T02:08:02Z</time>
      </trkpt>
      <trkpt lat="42.197461" lon="2.194037">
        <ele>685.9</ele>
        <time>2019-08-19T02:08:03Z</time>
      </trkpt>
      <trkpt lat="42.197483" lon="2.194089">
        <ele>686.3</ele>
        <time>2019-08-19T02:08:05Z</time>
      </trkpt>
      <trkpt lat="42.197503" lon="2.19413">
        <ele>686.7</ele>
        <time>2019-08-19T02:08:07Z</time>
      </trkpt>
      <trkpt lat="42.197521" lon="2.194193">
        <ele>687</ele>
        <time>2019-08-19T02:08:09Z</time>
      </trkpt>
      <trkpt lat="42.197531" lon="2.194233">
        <ele>687.1</ele>
        <time>2019-08-19T02:08:10Z</time>
      </trkpt>
      <trkpt lat="42.197544" lon="2.194273">
        <ele>687.3</ele>
        <time>2019-08-19T02:08:11Z</time>
      </trkpt>
      <trkpt lat="42.19756" lon="2.194312">
        <ele>687.5</ele>
        <time>2019-08-19T02:08:12Z</time>
      </trkpt>
      <trkpt lat="42.197582" lon="2.194352">
        <ele>687.6</ele>
        <time>2019-08-19T02:08:13Z</time>
      </trkpt>
      <trkpt lat="42.197607" lon="2.194394">
        <ele>687.9</ele>
        <time>2019-08-19T02:08:14Z</time>
      </trkpt>
      <trkpt lat="42.19763" lon="2.194437">
        <ele>688.1</ele>
        <time>2019-08-19T02:08:15Z</time>
      </trkpt>
      <trkpt lat="42.197651" lon="2.19448">
        <ele>688.3</ele>
        <time>2019-08-19T02:08:16Z</time>
      </trkpt>
      <trkpt lat="42.197668" lon="2.194525">
        <ele>688.5</ele>
        <time>2019-08-19T02:08:17Z</time>
      </trkpt>
      <trkpt lat="42.197675" lon="2.194571">
        <ele>688.6</ele>
        <time>2019-08-19T02:08:18Z</time>
      </trkpt>
      <trkpt lat="42.197651" lon="2.194635">
        <ele>688.9</ele>
        <time>2019-08-19T02:08:20Z</time>
      </trkpt>
      <trkpt lat="42.197622" lon="2.194666">
        <ele>688.8</ele>
        <time>2019-08-19T02:08:21Z</time>
      </trkpt>
      <trkpt lat="42.197593" lon="2.194697">
        <ele>688.8</ele>
        <time>2019-08-19T02:08:22Z</time>
      </trkpt>
      <trkpt lat="42.197561" lon="2.194726">
        <ele>688.7</ele>
        <time>2019-08-19T02:08:23Z</time>
      </trkpt>
      <trkpt lat="42.197528" lon="2.19476">
        <ele>688.7</ele>
        <time>2019-08-19T02:08:24Z</time>
      </trkpt>
      <trkpt lat="42.1975" lon="2.194804">
        <ele>688.6</ele>
        <time>2019-08-19T02:08:25Z</time>
      </trkpt>
      <trkpt lat="42.197465" lon="2.194841">
        <ele>688.6</ele>
        <time>2019-08-19T02:08:26Z</time>
      </trkpt>
      <trkpt lat="42.197442" lon="2.194904">
        <ele>688.5</ele>
        <time>2019-08-19T02:08:27Z</time>
      </trkpt>
      <trkpt lat="42.197411" lon="2.194952">
        <ele>688.5</ele>
        <time>2019-08-19T02:08:28Z</time>
      </trkpt>
      <trkpt lat="42.197366" lon="2.194995">
        <ele>688.5</ele>
        <time>2019-08-19T02:08:29Z</time>
      </trkpt>
      <trkpt lat="42.197333" lon="2.195031">
        <ele>688.5</ele>
        <time>2019-08-19T02:08:30Z</time>
      </trkpt>
      <trkpt lat="42.197309" lon="2.195087">
        <ele>688.5</ele>
        <time>2019-08-19T02:08:31Z</time>
      </trkpt>
      <trkpt lat="42.197272" lon="2.195122">
        <ele>688.4</ele>
        <time>2019-08-19T02:08:32Z</time>
      </trkpt>
      <trkpt lat="42.197227" lon="2.195156">
        <ele>688.4</ele>
        <time>2019-08-19T02:08:33Z</time>
      </trkpt>
      <trkpt lat="42.197191" lon="2.195194">
        <ele>688.3</ele>
        <time>2019-08-19T02:08:34Z</time>
      </trkpt>
      <trkpt lat="42.197148" lon="2.195231">
        <ele>688.3</ele>
        <time>2019-08-19T02:08:35Z</time>
      </trkpt>
      <trkpt lat="42.197111" lon="2.195274">
        <ele>688.1</ele>
        <time>2019-08-19T02:08:36Z</time>
      </trkpt>
      <trkpt lat="42.197092" lon="2.195309">
        <ele>688</ele>
        <time>2019-08-19T02:08:37Z</time>
      </trkpt>
      <trkpt lat="42.197063" lon="2.195367">
        <ele>688.1</ele>
        <time>2019-08-19T02:08:38Z</time>
      </trkpt>
      <trkpt lat="42.197023" lon="2.195401">
        <ele>688.1</ele>
        <time>2019-08-19T02:08:39Z</time>
      </trkpt>
      <trkpt lat="42.196983" lon="2.195428">
        <ele>688.1</ele>
        <time>2019-08-19T02:08:40Z</time>
      </trkpt>
      <trkpt lat="42.196952" lon="2.195483">
        <ele>688.1</ele>
        <time>2019-08-19T02:08:41Z</time>
      </trkpt>
      <trkpt lat="42.196923" lon="2.195514">
        <ele>688.1</ele>
        <time>2019-08-19T02:08:42Z</time>
      </trkpt>
      <trkpt lat="42.196883" lon="2.19555">
        <ele>688.2</ele>
        <time>2019-08-19T02:08:43Z</time>
      </trkpt>
      <trkpt lat="42.196844" lon="2.195589">
        <ele>688.1</ele>
        <time>2019-08-19T02:08:44Z</time>
      </trkpt>
      <trkpt lat="42.196802" lon="2.195633">
        <ele>688.1</ele>
        <time>2019-08-19T02:08:45Z</time>
      </trkpt>
      <trkpt lat="42.196765" lon="2.195674">
        <ele>688.1</ele>
        <time>2019-08-19T02:08:46Z</time>
      </trkpt>
      <trkpt lat="42.196729" lon="2.195749">
        <ele>688</ele>
        <time>2019-08-19T02:08:48Z</time>
      </trkpt>
      <trkpt lat="42.196701" lon="2.195769">
        <ele>688</ele>
        <time>2019-08-19T02:08:49Z</time>
      </trkpt>
      <trkpt lat="42.196663" lon="2.195804">
        <ele>688</ele>
        <time>2019-08-19T02:08:50Z</time>
      </trkpt>
      <trkpt lat="42.196621" lon="2.195837">
        <ele>687.9</ele>
        <time>2019-08-19T02:08:51Z</time>
      </trkpt>
      <trkpt lat="42.196587" lon="2.19587">
        <ele>687.9</ele>
        <time>2019-08-19T02:08:52Z</time>
      </trkpt>
      <trkpt lat="42.196568" lon="2.195918">
        <ele>687.8</ele>
        <time>2019-08-19T02:08:53Z</time>
      </trkpt>
      <trkpt lat="42.19654" lon="2.195951">
        <ele>687.8</ele>
        <time>2019-08-19T02:08:54Z</time>
      </trkpt>
      <trkpt lat="42.196512" lon="2.195984">
        <ele>687.8</ele>
        <time>2019-08-19T02:08:55Z</time>
      </trkpt>
      <trkpt lat="42.196482" lon="2.196019">
        <ele>687.8</ele>
        <time>2019-08-19T02:08:56Z</time>
      </trkpt>
      <trkpt lat="42.196455" lon="2.196052">
        <ele>687.7</ele>
        <time>2019-08-19T02:08:57Z</time>
      </trkpt>
      <trkpt lat="42.196428" lon="2.196079">
        <ele>687.7</ele>
        <time>2019-08-19T02:08:58Z</time>
      </trkpt>
      <trkpt lat="42.196399" lon="2.196105">
        <ele>687.7</ele>
        <time>2019-08-19T02:08:59Z</time>
      </trkpt>
      <trkpt lat="42.196373" lon="2.196129">
        <ele>687.7</ele>
        <time>2019-08-19T02:09:00Z</time>
      </trkpt>
      <trkpt lat="42.196346" lon="2.196147">
        <ele>687.7</ele>
        <time>2019-08-19T02:09:01Z</time>
      </trkpt>
      <trkpt lat="42.196318" lon="2.196161">
        <ele>687.6</ele>
        <time>2019-08-19T02:09:02Z</time>
      </trkpt>
      <trkpt lat="42.196277" lon="2.196182">
        <ele>687.7</ele>
        <time>2019-08-19T02:09:04Z</time>
      </trkpt>
      <trkpt lat="42.1963" lon="2.196223">
        <ele>687.7</ele>
        <time>2019-08-19T02:12:54Z</time>
      </trkpt>
      <trkpt lat="42.196352" lon="2.196236">
        <ele>687.7</ele>
        <time>2019-08-19T02:12:56Z</time>
      </trkpt>
      <trkpt lat="42.19638" lon="2.19622">
        <ele>687.7</ele>
        <time>2019-08-19T02:12:57Z</time>
      </trkpt>
      <trkpt lat="42.196406" lon="2.196194">
        <ele>687.7</ele>
        <time>2019-08-19T02:12:58Z</time>
      </trkpt>
      <trkpt lat="42.196427" lon="2.196168">
        <ele>687.7</ele>
        <time>2019-08-19T02:12:59Z</time>
      </trkpt>
      <trkpt lat="42.196446" lon="2.196138">
        <ele>687.8</ele>
        <time>2019-08-19T02:13:00Z</time>
      </trkpt>
      <trkpt lat="42.196473" lon="2.196101">
        <ele>687.8</ele>
        <time>2019-08-19T02:13:01Z</time>
      </trkpt>
      <trkpt lat="42.1965" lon="2.196066">
        <ele>687.8</ele>
        <time>2019-08-19T02:13:02Z</time>
      </trkpt>
      <trkpt lat="42.196527" lon="2.196035">
        <ele>687.8</ele>
        <time>2019-08-19T02:13:03Z</time>
      </trkpt>
      <trkpt lat="42.196556" lon="2.196005">
        <ele>687.8</ele>
        <time>2019-08-19T02:13:04Z</time>
      </trkpt>
      <trkpt lat="42.196581" lon="2.195975">
        <ele>687.8</ele>
        <time>2019-08-19T02:13:05Z</time>
      </trkpt>
      <trkpt lat="42.196604" lon="2.195944">
        <ele>687.9</ele>
        <time>2019-08-19T02:13:06Z</time>
      </trkpt>
      <trkpt lat="42.196624" lon="2.195908">
        <ele>687.9</ele>
        <time>2019-08-19T02:13:07Z</time>
      </trkpt>
      <trkpt lat="42.196642" lon="2.19587">
        <ele>687.9</ele>
        <time>2019-08-19T02:13:08Z</time>
      </trkpt>
      <trkpt lat="42.196653" lon="2.195835">
        <ele>687.9</ele>
        <time>2019-08-19T02:13:09Z</time>
      </trkpt>
      <trkpt lat="42.196677" lon="2.195804">
        <ele>688</ele>
        <time>2019-08-19T02:13:10Z</time>
      </trkpt>
      <trkpt lat="42.196711" lon="2.195775">
        <ele>688</ele>
        <time>2019-08-19T02:13:11Z</time>
      </trkpt>
      <trkpt lat="42.196742" lon="2.19575">
        <ele>688</ele>
        <time>2019-08-19T02:13:12Z</time>
      </trkpt>
      <trkpt lat="42.196773" lon="2.195726">
        <ele>688.1</ele>
        <time>2019-08-19T02:13:13Z</time>
      </trkpt>
      <trkpt lat="42.196802" lon="2.1957">
        <ele>688.1</ele>
        <time>2019-08-19T02:13:14Z</time>
      </trkpt>
      <trkpt lat="42.19683" lon="2.195674">
        <ele>688.1</ele>
        <time>2019-08-19T02:13:15Z</time>
      </trkpt>
      <trkpt lat="42.196859" lon="2.195644">
        <ele>688.2</ele>
        <time>2019-08-19T02:13:16Z</time>
      </trkpt>
      <trkpt lat="42.196886" lon="2.195613">
        <ele>688.2</ele>
        <time>2019-08-19T02:13:17Z</time>
      </trkpt>
      <trkpt lat="42.196909" lon="2.195586">
        <ele>688.2</ele>
        <time>2019-08-19T02:13:18Z</time>
      </trkpt>
      <trkpt lat="42.196933" lon="2.195561">
        <ele>688.2</ele>
        <time>2019-08-19T02:13:19Z</time>
      </trkpt>
      <trkpt lat="42.196955" lon="2.195531">
        <ele>688.1</ele>
        <time>2019-08-19T02:13:20Z</time>
      </trkpt>
      <trkpt lat="42.196987" lon="2.195504">
        <ele>688.1</ele>
        <time>2019-08-19T02:13:21Z</time>
      </trkpt>
      <trkpt lat="42.197022" lon="2.195473">
        <ele>688.1</ele>
        <time>2019-08-19T02:13:22Z</time>
      </trkpt>
      <trkpt lat="42.197056" lon="2.195438">
        <ele>688.1</ele>
        <time>2019-08-19T02:13:23Z</time>
      </trkpt>
      <trkpt lat="42.197091" lon="2.195405">
        <ele>688.1</ele>
        <time>2019-08-19T02:13:24Z</time>
      </trkpt>
      <trkpt lat="42.197131" lon="2.195375">
        <ele>688.1</ele>
        <time>2019-08-19T02:13:25Z</time>
      </trkpt>
      <trkpt lat="42.197169" lon="2.195347">
        <ele>688</ele>
        <time>2019-08-19T02:13:26Z</time>
      </trkpt>
      <trkpt lat="42.197204" lon="2.195316">
        <ele>688.3</ele>
        <time>2019-08-19T02:13:27Z</time>
      </trkpt>
      <trkpt lat="42.19724" lon="2.195283">
        <ele>688.3</ele>
        <time>2019-08-19T02:13:28Z</time>
      </trkpt>
      <trkpt lat="42.197272" lon="2.195247">
        <ele>688.4</ele>
        <time>2019-08-19T02:13:29Z</time>
      </trkpt>
      <trkpt lat="42.1973" lon="2.195213">
        <ele>688.4</ele>
        <time>2019-08-19T02:13:30Z</time>
      </trkpt>
      <trkpt lat="42.197327" lon="2.195179">
        <ele>688.4</ele>
        <time>2019-08-19T02:13:31Z</time>
      </trkpt>
      <trkpt lat="42.197351" lon="2.195145">
        <ele>688.5</ele>
        <time>2019-08-19T02:13:32Z</time>
      </trkpt>
      <trkpt lat="42.197373" lon="2.195112">
        <ele>688.5</ele>
        <time>2019-08-19T02:13:33Z</time>
      </trkpt>
      <trkpt lat="42.197394" lon="2.195082">
        <ele>688.5</ele>
        <time>2019-08-19T02:13:34Z</time>
      </trkpt>
      <trkpt lat="42.197414" lon="2.195053">
        <ele>688.5</ele>
        <time>2019-08-19T02:13:35Z</time>
      </trkpt>
      <trkpt lat="42.197451" lon="2.195001">
        <ele>688.5</ele>
        <time>2019-08-19T02:13:37Z</time>
      </trkpt>
      <trkpt lat="42.197474" lon="2.194954">
        <ele>688.5</ele>
        <time>2019-08-19T02:13:39Z</time>
      </trkpt>
      <trkpt lat="42.197474" lon="2.194916">
        <ele>688.5</ele>
        <time>2019-08-19T02:13:41Z</time>
      </trkpt>
      <trkpt lat="42.197459" lon="2.194915">
        <ele>688.5</ele>
        <time>2019-08-19T02:17:27Z</time>
      </trkpt>
      <trkpt lat="42.197445" lon="2.194915">
        <ele>688.5</ele>
        <time>2019-08-19T02:42:34Z</time>
      </trkpt>
      <trkpt lat="42.19743" lon="2.194914">
        <ele>688.5</ele>
        <time>2019-08-19T02:42:35Z</time>
      </trkpt>
      <trkpt lat="42.199703" lon="2.192654">
        <ele>690.6</ele>
        <time>2019-08-19T02:45:27Z</time>
      </trkpt>
      <trkpt lat="42.219836" lon="2.169838">
        <ele>730.4</ele>
        <time>2019-08-19T02:55:49Z</time>
      </trkpt>
      <trkpt lat="42.219879" lon="2.169857">
        <ele>730.8</ele>
        <time>2019-08-19T02:55:52Z</time>
      </trkpt>
      <trkpt lat="42.219912" lon="2.169878">
        <ele>730.7</ele>
        <time>2019-08-19T02:55:53Z</time>
      </trkpt>
      <trkpt lat="42.219979" lon="2.169934">
        <ele>731.3</ele>
        <time>2019-08-19T02:55:56Z</time>
      </trkpt>
      <trkpt lat="42.220013" lon="2.169958">
        <ele>731.6</ele>
        <time>2019-08-19T02:55:57Z</time>
      </trkpt>
      <trkpt lat="42.220044" lon="2.169965">
        <ele>731.9</ele>
        <time>2019-08-19T02:55:58Z</time>
      </trkpt>
      <trkpt lat="42.220076" lon="2.169975">
        <ele>732.2</ele>
        <time>2019-08-19T02:55:59Z</time>
      </trkpt>
      <trkpt lat="42.22011" lon="2.16999">
        <ele>732.5</ele>
        <time>2019-08-19T02:56:00Z</time>
      </trkpt>
      <trkpt lat="42.220149" lon="2.170012">
        <ele>732.9</ele>
        <time>2019-08-19T02:56:01Z</time>
      </trkpt>
      <trkpt lat="42.22019" lon="2.170034">
        <ele>733.3</ele>
        <time>2019-08-19T02:56:02Z</time>
      </trkpt>
      <trkpt lat="42.220226" lon="2.170056">
        <ele>733.7</ele>
        <time>2019-08-19T02:56:03Z</time>
      </trkpt>
      <trkpt lat="42.220257" lon="2.170072">
        <ele>734</ele>
        <time>2019-08-19T02:56:04Z</time>
      </trkpt>
      <trkpt lat="42.220291" lon="2.170085">
        <ele>734.3</ele>
        <time>2019-08-19T02:56:05Z</time>
      </trkpt>
      <trkpt lat="42.220324" lon="2.170094">
        <ele>734.6</ele>
        <time>2019-08-19T02:56:06Z</time>
      </trkpt>
      <trkpt lat="42.22036" lon="2.170101">
        <ele>734.9</ele>
        <time>2019-08-19T02:56:07Z</time>
      </trkpt>
      <trkpt lat="42.2204" lon="2.170109">
        <ele>735.3</ele>
        <time>2019-08-19T02:56:08Z</time>
      </trkpt>
      <trkpt lat="42.22044" lon="2.170122">
        <ele>735.7</ele>
        <time>2019-08-19T02:56:09Z</time>
      </trkpt>
      <trkpt lat="42.220477" lon="2.17014">
        <ele>736.1</ele>
        <time>2019-08-19T02:56:10Z</time>
      </trkpt>
      <trkpt lat="42.220514" lon="2.170156">
        <ele>736.4</ele>
        <time>2019-08-19T02:56:11Z</time>
      </trkpt>
      <trkpt lat="42.220553" lon="2.170175">
        <ele>736.8</ele>
        <time>2019-08-19T02:56:12Z</time>
      </trkpt>
      <trkpt lat="42.220594" lon="2.170197">
        <ele>737.2</ele>
        <time>2019-08-19T02:56:13Z</time>
      </trkpt>
      <trkpt lat="42.220633" lon="2.170222">
        <ele>737.6</ele>
        <time>2019-08-19T02:56:14Z</time>
      </trkpt>
      <trkpt lat="42.220664" lon="2.170244">
        <ele>737.9</ele>
        <time>2019-08-19T02:56:15Z</time>
      </trkpt>
      <trkpt lat="42.220698" lon="2.170263">
        <ele>738.2</ele>
        <time>2019-08-19T02:56:16Z</time>
      </trkpt>
      <trkpt lat="42.220731" lon="2.170288">
        <ele>738.6</ele>
        <time>2019-08-19T02:56:18Z</time>
      </trkpt>
      <trkpt lat="42.220769" lon="2.170325">
        <ele>739</ele>
        <time>2019-08-19T02:56:20Z</time>
      </trkpt>
      <trkpt lat="42.220822" lon="2.17035">
        <ele>739.5</ele>
        <time>2019-08-19T02:56:22Z</time>
      </trkpt>
      <trkpt lat="42.22107" lon="2.170468">
        <ele>741.7</ele>
        <time>2019-08-19T02:56:24Z</time>
      </trkpt>
      <trkpt lat="42.221044" lon="2.170459">
        <ele>741.9</ele>
        <time>2019-08-19T02:56:25Z</time>
      </trkpt>
      <trkpt lat="42.221109" lon="2.170477">
        <ele>742.4</ele>
        <time>2019-08-19T02:56:28Z</time>
      </trkpt>
      <trkpt lat="42.221178" lon="2.170451">
        <ele>743</ele>
        <time>2019-08-19T02:56:29Z</time>
      </trkpt>
      <trkpt lat="42.22122" lon="2.170448">
        <ele>743.3</ele>
        <time>2019-08-19T02:56:30Z</time>
      </trkpt>
      <trkpt lat="42.221242" lon="2.170489">
        <ele>743.6</ele>
        <time>2019-08-19T02:56:31Z</time>
      </trkpt>
      <trkpt lat="42.221286" lon="2.170479">
        <ele>744</ele>
        <time>2019-08-19T02:56:32Z</time>
      </trkpt>
      <trkpt lat="42.221327" lon="2.170471">
        <ele>744.3</ele>
        <time>2019-08-19T02:56:33Z</time>
      </trkpt>
      <trkpt lat="42.221354" lon="2.170511">
        <ele>744.6</ele>
        <time>2019-08-19T02:56:34Z</time>
      </trkpt>
      <trkpt lat="42.221389" lon="2.170526">
        <ele>744.7</ele>
        <time>2019-08-19T02:56:35Z</time>
      </trkpt>
      <trkpt lat="42.221419" lon="2.170539">
        <ele>744.8</ele>
        <time>2019-08-19T02:56:37Z</time>
      </trkpt>
      <trkpt lat="42.221448" lon="2.170523">
        <ele>744.9</ele>
        <time>2019-08-19T02:56:43Z</time>
      </trkpt>
      <trkpt lat="42.221485" lon="2.170548">
        <ele>745.1</ele>
        <time>2019-08-19T02:56:45Z</time>
      </trkpt>
      <trkpt lat="42.221523" lon="2.170556">
        <ele>745.3</ele>
        <time>2019-08-19T02:56:47Z</time>
      </trkpt>
      <trkpt lat="42.221566" lon="2.170541">
        <ele>745.4</ele>
        <time>2019-08-19T02:56:49Z</time>
      </trkpt>
      <trkpt lat="42.22161" lon="2.170517">
        <ele>745.6</ele>
        <time>2019-08-19T02:56:51Z</time>
      </trkpt>
      <trkpt lat="42.221641" lon="2.170492">
        <ele>745.8</ele>
        <time>2019-08-19T02:56:52Z</time>
      </trkpt>
      <trkpt lat="42.22167" lon="2.170438">
        <ele>745.9</ele>
        <time>2019-08-19T02:56:54Z</time>
      </trkpt>
      <trkpt lat="42.221679" lon="2.170396">
        <ele>742.6</ele>
        <time>2019-08-19T02:56:55Z</time>
      </trkpt>
      <trkpt lat="42.221695" lon="2.170342">
        <ele>741.7</ele>
        <time>2019-08-19T02:56:56Z</time>
      </trkpt>
      <trkpt lat="42.221706" lon="2.1703">
        <ele>740.4</ele>
        <time>2019-08-19T02:56:58Z</time>
      </trkpt>
      <trkpt lat="42.22171" lon="2.170251">
        <ele>739.2</ele>
        <time>2019-08-19T02:56:59Z</time>
      </trkpt>
      <trkpt lat="42.221716" lon="2.170201">
        <ele>738</ele>
        <time>2019-08-19T02:57:00Z</time>
      </trkpt>
      <trkpt lat="42.221723" lon="2.17015">
        <ele>736.7</ele>
        <time>2019-08-19T02:57:01Z</time>
      </trkpt>
      <trkpt lat="42.221729" lon="2.170099">
        <ele>735.4</ele>
        <time>2019-08-19T02:57:02Z</time>
      </trkpt>
      <trkpt lat="42.221734" lon="2.170052">
        <ele>734.2</ele>
        <time>2019-08-19T02:57:03Z</time>
      </trkpt>
      <trkpt lat="42.221742" lon="2.170004">
        <ele>733.3</ele>
        <time>2019-08-19T02:57:04Z</time>
      </trkpt>
      <trkpt lat="42.221751" lon="2.169967">
        <ele>733.1</ele>
        <time>2019-08-19T02:57:05Z</time>
      </trkpt>
      <trkpt lat="42.221764" lon="2.169924">
        <ele>733</ele>
        <time>2019-08-19T02:57:06Z</time>
      </trkpt>
      <trkpt lat="42.221776" lon="2.16989">
        <ele>732.9</ele>
        <time>2019-08-19T02:57:07Z</time>
      </trkpt>
      <trkpt lat="42.22179" lon="2.169853">
        <ele>732.7</ele>
        <time>2019-08-19T02:57:08Z</time>
      </trkpt>
      <trkpt lat="42.221817" lon="2.16982">
        <ele>732.6</ele>
        <time>2019-08-19T02:57:09Z</time>
      </trkpt>
      <trkpt lat="42.221867" lon="2.169825">
        <ele>732.3</ele>
        <time>2019-08-19T02:57:10Z</time>
      </trkpt>
      <trkpt lat="42.221923" lon="2.169795">
        <ele>732.1</ele>
        <time>2019-08-19T02:57:11Z</time>
      </trkpt>
      <trkpt lat="42.221973" lon="2.169789">
        <ele>732</ele>
        <time>2019-08-19T02:57:12Z</time>
      </trkpt>
      <trkpt lat="42.222015" lon="2.169795">
        <ele>732</ele>
        <time>2019-08-19T02:57:13Z</time>
      </trkpt>
      <trkpt lat="42.222055" lon="2.1698">
        <ele>731.9</ele>
        <time>2019-08-19T02:57:14Z</time>
      </trkpt>
      <trkpt lat="42.222089" lon="2.169788">
        <ele>731.9</ele>
        <time>2019-08-19T02:57:15Z</time>
      </trkpt>
      <trkpt lat="42.222122" lon="2.169764">
        <ele>731.8</ele>
        <time>2019-08-19T02:57:16Z</time>
      </trkpt>
      <trkpt lat="42.22215" lon="2.169743">
        <ele>731.8</ele>
        <time>2019-08-19T02:57:17Z</time>
      </trkpt>
      <trkpt lat="42.222139" lon="2.169704">
        <ele>731.7</ele>
        <time>2019-08-19T02:57:20Z</time>
      </trkpt>
      <trkpt lat="42.222149" lon="2.169751">
        <ele>731.7</ele>
        <time>2019-08-19T02:57:26Z</time>
      </trkpt>
      <trkpt lat="42.222161" lon="2.169791">
        <ele>731.7</ele>
        <time>2019-08-19T02:57:28Z</time>
      </trkpt>
      <trkpt lat="42.222146" lon="2.169751">
        <ele>731.7</ele>
        <time>2019-08-19T02:57:32Z</time>
      </trkpt>
      <trkpt lat="42.222135" lon="2.169711">
        <ele>731.7</ele>
        <time>2019-08-19T02:57:47Z</time>
      </trkpt>
      <trkpt lat="42.222117" lon="2.169679">
        <ele>731.7</ele>
        <time>2019-08-19T02:58:05Z</time>
      </trkpt>
      <trkpt lat="42.222082" lon="2.169675">
        <ele>731.7</ele>
        <time>2019-08-19T02:58:07Z</time>
      </trkpt>
      <trkpt lat="42.222052" lon="2.169661">
        <ele>731.7</ele>
        <time>2019-08-19T02:58:13Z</time>
      </trkpt>
      <trkpt lat="42.222033" lon="2.169626">
        <ele>731.7</ele>
        <time>2019-08-19T02:58:27Z</time>
      </trkpt>
      <trkpt lat="42.222001" lon="2.169658">
        <ele>731.7</ele>
        <time>2019-08-19T02:58:29Z</time>
      </trkpt>
      <trkpt lat="42.221994" lon="2.16971">
        <ele>731.7</ele>
        <time>2019-08-19T02:58:31Z</time>
      </trkpt>
      <trkpt lat="42.221984" lon="2.169778">
        <ele>731.7</ele>
        <time>2019-08-19T02:58:33Z</time>
      </trkpt>
      <trkpt lat="42.22198" lon="2.169819">
        <ele>731.7</ele>
        <time>2019-08-19T02:58:34Z</time>
      </trkpt>
      <trkpt lat="42.221965" lon="2.169864">
        <ele>731.8</ele>
        <time>2019-08-19T02:58:38Z</time>
      </trkpt>
      <trkpt lat="42.221959" lon="2.169902">
        <ele>731.9</ele>
        <time>2019-08-19T02:58:41Z</time>
      </trkpt>
      <trkpt lat="42.221939" lon="2.169936">
        <ele>732</ele>
        <time>2019-08-19T02:58:43Z</time>
      </trkpt>
      <trkpt lat="42.221934" lon="2.169998">
        <ele>732.6</ele>
        <time>2019-08-19T02:58:47Z</time>
      </trkpt>
      <trkpt lat="42.221943" lon="2.170037">
        <ele>733</ele>
        <time>2019-08-19T02:58:49Z</time>
      </trkpt>
      <trkpt lat="42.221947" lon="2.170093">
        <ele>733.6</ele>
        <time>2019-08-19T02:58:51Z</time>
      </trkpt>
      <trkpt lat="42.221941" lon="2.170142">
        <ele>735.9</ele>
        <time>2019-08-19T02:58:52Z</time>
      </trkpt>
      <trkpt lat="42.221936" lon="2.170199">
        <ele>737.3</ele>
        <time>2019-08-19T02:58:53Z</time>
      </trkpt>
      <trkpt lat="42.221933" lon="2.170244">
        <ele>738.5</ele>
        <time>2019-08-19T02:58:54Z</time>
      </trkpt>
      <trkpt lat="42.221933" lon="2.170284">
        <ele>739.4</ele>
        <time>2019-08-19T02:58:55Z</time>
      </trkpt>
      <trkpt lat="42.221939" lon="2.170324">
        <ele>741.8</ele>
        <time>2019-08-19T02:58:56Z</time>
      </trkpt>
      <trkpt lat="42.221953" lon="2.170363">
        <ele>742.1</ele>
        <time>2019-08-19T02:58:57Z</time>
      </trkpt>
      <trkpt lat="42.221977" lon="2.170397">
        <ele>742.5</ele>
        <time>2019-08-19T02:58:58Z</time>
      </trkpt>
      <trkpt lat="42.222002" lon="2.170421">
        <ele>742.8</ele>
        <time>2019-08-19T02:58:59Z</time>
      </trkpt>
      <trkpt lat="42.222029" lon="2.170437">
        <ele>743.1</ele>
        <time>2019-08-19T02:59:00Z</time>
      </trkpt>
      <trkpt lat="42.22206" lon="2.170452">
        <ele>743.4</ele>
        <time>2019-08-19T02:59:01Z</time>
      </trkpt>
      <trkpt lat="42.22209" lon="2.170467">
        <ele>743</ele>
        <time>2019-08-19T02:59:02Z</time>
      </trkpt>
      <trkpt lat="42.22212" lon="2.170485">
        <ele>742.6</ele>
        <time>2019-08-19T02:59:03Z</time>
      </trkpt>
      <trkpt lat="42.222149" lon="2.170506">
        <ele>742.3</ele>
        <time>2019-08-19T02:59:04Z</time>
      </trkpt>
      <trkpt lat="42.222176" lon="2.170525">
        <ele>742</ele>
        <time>2019-08-19T02:59:05Z</time>
      </trkpt>
      <trkpt lat="42.222213" lon="2.170545">
        <ele>741.7</ele>
        <time>2019-08-19T02:59:07Z</time>
      </trkpt>
      <trkpt lat="42.222258" lon="2.170559">
        <ele>741.4</ele>
        <time>2019-08-19T02:59:09Z</time>
      </trkpt>
      <trkpt lat="42.22231" lon="2.170574">
        <ele>741</ele>
        <time>2019-08-19T02:59:11Z</time>
      </trkpt>
      <trkpt lat="42.222337" lon="2.170582">
        <ele>740.9</ele>
        <time>2019-08-19T02:59:12Z</time>
      </trkpt>
      <trkpt lat="42.222366" lon="2.170585">
        <ele>740.7</ele>
        <time>2019-08-19T02:59:13Z</time>
      </trkpt>
      <trkpt lat="42.222393" lon="2.170587">
        <ele>740.5</ele>
        <time>2019-08-19T02:59:14Z</time>
      </trkpt>
      <trkpt lat="42.222421" lon="2.170588">
        <ele>740.3</ele>
        <time>2019-08-19T02:59:15Z</time>
      </trkpt>
      <trkpt lat="42.222451" lon="2.17059">
        <ele>740.1</ele>
        <time>2019-08-19T02:59:16Z</time>
      </trkpt>
      <trkpt lat="42.222481" lon="2.170594">
        <ele>739.9</ele>
        <time>2019-08-19T02:59:17Z</time>
      </trkpt>
      <trkpt lat="42.222512" lon="2.170598">
        <ele>739.7</ele>
        <time>2019-08-19T02:59:18Z</time>
      </trkpt>
      <trkpt lat="42.222546" lon="2.170602">
        <ele>739.6</ele>
        <time>2019-08-19T02:59:19Z</time>
      </trkpt>
      <trkpt lat="42.222578" lon="2.170603">
        <ele>739.4</ele>
        <time>2019-08-19T02:59:20Z</time>
      </trkpt>
      <trkpt lat="42.22261" lon="2.170603">
        <ele>739.2</ele>
        <time>2019-08-19T02:59:21Z</time>
      </trkpt>
      <trkpt lat="42.222641" lon="2.170607">
        <ele>739.1</ele>
        <time>2019-08-19T02:59:22Z</time>
      </trkpt>
      <trkpt lat="42.222672" lon="2.170606">
        <ele>738.8</ele>
        <time>2019-08-19T02:59:23Z</time>
      </trkpt>
      <trkpt lat="42.222704" lon="2.17061">
        <ele>738.9</ele>
        <time>2019-08-19T02:59:24Z</time>
      </trkpt>
      <trkpt lat="42.222735" lon="2.17062">
        <ele>739</ele>
        <time>2019-08-19T02:59:25Z</time>
      </trkpt>
      <trkpt lat="42.222766" lon="2.170636">
        <ele>739.1</ele>
        <time>2019-08-19T02:59:26Z</time>
      </trkpt>
      <trkpt lat="42.222802" lon="2.170653">
        <ele>739.2</ele>
        <time>2019-08-19T02:59:27Z</time>
      </trkpt>
      <trkpt lat="42.222849" lon="2.170663">
        <ele>739.4</ele>
        <time>2019-08-19T02:59:28Z</time>
      </trkpt>
      <trkpt lat="42.222897" lon="2.170675">
        <ele>739.6</ele>
        <time>2019-08-19T02:59:29Z</time>
      </trkpt>
      <trkpt lat="42.222946" lon="2.170681">
        <ele>739.8</ele>
        <time>2019-08-19T02:59:30Z</time>
      </trkpt>
      <trkpt lat="42.222986" lon="2.170686">
        <ele>739.9</ele>
        <time>2019-08-19T02:59:31Z</time>
      </trkpt>
      <trkpt lat="42.223021" lon="2.170694">
        <ele>740.1</ele>
        <time>2019-08-19T02:59:32Z</time>
      </trkpt>
      <trkpt lat="42.223056" lon="2.170702">
        <ele>740.2</ele>
        <time>2019-08-19T02:59:33Z</time>
      </trkpt>
      <trkpt lat="42.223091" lon="2.170711">
        <ele>740.3</ele>
        <time>2019-08-19T02:59:34Z</time>
      </trkpt>
      <trkpt lat="42.223125" lon="2.170717">
        <ele>740.5</ele>
        <time>2019-08-19T02:59:35Z</time>
      </trkpt>
      <trkpt lat="42.223158" lon="2.170726">
        <ele>740.6</ele>
        <time>2019-08-19T02:59:36Z</time>
      </trkpt>
      <trkpt lat="42.223188" lon="2.170737">
        <ele>740.8</ele>
        <time>2019-08-19T02:59:37Z</time>
      </trkpt>
      <trkpt lat="42.223216" lon="2.170749">
        <ele>740.9</ele>
        <time>2019-08-19T02:59:38Z</time>
      </trkpt>
      <trkpt lat="42.22325" lon="2.170758">
        <ele>741</ele>
        <time>2019-08-19T02:59:39Z</time>
      </trkpt>
      <trkpt lat="42.223295" lon="2.170773">
        <ele>741.2</ele>
        <time>2019-08-19T02:59:41Z</time>
      </trkpt>
      <trkpt lat="42.223323" lon="2.170772">
        <ele>741.4</ele>
        <time>2019-08-19T02:59:42Z</time>
      </trkpt>
      <trkpt lat="42.223354" lon="2.17077">
        <ele>741.5</ele>
        <time>2019-08-19T02:59:43Z</time>
      </trkpt>
      <trkpt lat="42.223384" lon="2.170768">
        <ele>741.6</ele>
        <time>2019-08-19T02:59:44Z</time>
      </trkpt>
      <trkpt lat="42.223417" lon="2.170765">
        <ele>741.7</ele>
        <time>2019-08-19T02:59:45Z</time>
      </trkpt>
      <trkpt lat="42.223454" lon="2.170763">
        <ele>741.9</ele>
        <time>2019-08-19T02:59:46Z</time>
      </trkpt>
      <trkpt lat="42.223488" lon="2.170765">
        <ele>742</ele>
        <time>2019-08-19T02:59:47Z</time>
      </trkpt>
      <trkpt lat="42.223526" lon="2.170761">
        <ele>742.1</ele>
        <time>2019-08-19T02:59:48Z</time>
      </trkpt>
      <trkpt lat="42.223563" lon="2.170762">
        <ele>742.2</ele>
        <time>2019-08-19T02:59:49Z</time>
      </trkpt>
      <trkpt lat="42.223614" lon="2.170752">
        <ele>742.3</ele>
        <time>2019-08-19T02:59:50Z</time>
      </trkpt>
      <trkpt lat="42.223668" lon="2.170724">
        <ele>742.4</ele>
        <time>2019-08-19T02:59:51Z</time>
      </trkpt>
      <trkpt lat="42.223723" lon="2.170702">
        <ele>742.5</ele>
        <time>2019-08-19T02:59:52Z</time>
      </trkpt>
      <trkpt lat="42.223785" lon="2.170692">
        <ele>742.5</ele>
        <time>2019-08-19T02:59:53Z</time>
      </trkpt>
      <trkpt lat="42.223843" lon="2.170682">
        <ele>742.5</ele>
        <time>2019-08-19T02:59:54Z</time>
      </trkpt>
      <trkpt lat="42.223883" lon="2.170692">
        <ele>742.5</ele>
        <time>2019-08-19T02:59:55Z</time>
      </trkpt>
      <trkpt lat="42.223919" lon="2.170696">
        <ele>742.5</ele>
        <time>2019-08-19T02:59:57Z</time>
      </trkpt>
      <trkpt lat="42.223978" lon="2.170688">
        <ele>742.5</ele>
        <time>2019-08-19T02:59:59Z</time>
      </trkpt>
      <trkpt lat="42.224004" lon="2.170682">
        <ele>742.5</ele>
        <time>2019-08-19T03:00:00Z</time>
      </trkpt>
      <trkpt lat="42.224062" lon="2.170669">
        <ele>742.4</ele>
        <time>2019-08-19T03:00:01Z</time>
      </trkpt>
      <trkpt lat="42.224113" lon="2.170656">
        <ele>742.4</ele>
        <time>2019-08-19T03:00:02Z</time>
      </trkpt>
      <trkpt lat="42.224378" lon="2.170657">
        <ele>741.6</ele>
        <time>2019-08-19T03:00:04Z</time>
      </trkpt>
      <trkpt lat="42.224449" lon="2.170635">
        <ele>741.2</ele>
        <time>2019-08-19T03:00:05Z</time>
      </trkpt>
      <trkpt lat="42.224529" lon="2.170629">
        <ele>740.8</ele>
        <time>2019-08-19T03:00:06Z</time>
      </trkpt>
      <trkpt lat="42.224599" lon="2.17063">
        <ele>740.5</ele>
        <time>2019-08-19T03:00:07Z</time>
      </trkpt>
      <trkpt lat="42.224688" lon="2.170639">
        <ele>740</ele>
        <time>2019-08-19T03:00:08Z</time>
      </trkpt>
      <trkpt lat="42.22476" lon="2.170641">
        <ele>739.7</ele>
        <time>2019-08-19T03:00:09Z</time>
      </trkpt>
      <trkpt lat="42.224833" lon="2.170629">
        <ele>739.3</ele>
        <time>2019-08-19T03:00:10Z</time>
      </trkpt>
      <trkpt lat="42.224904" lon="2.170597">
        <ele>739</ele>
        <time>2019-08-19T03:00:11Z</time>
      </trkpt>
      <trkpt lat="42.224958" lon="2.170571">
        <ele>738.8</ele>
        <time>2019-08-19T03:00:12Z</time>
      </trkpt>
      <trkpt lat="42.225013" lon="2.170562">
        <ele>738.6</ele>
        <time>2019-08-19T03:00:13Z</time>
      </trkpt>
      <trkpt lat="42.225087" lon="2.170548">
        <ele>738.3</ele>
        <time>2019-08-19T03:00:14Z</time>
      </trkpt>
      <trkpt lat="42.225134" lon="2.170511">
        <ele>738.2</ele>
        <time>2019-08-19T03:00:15Z</time>
      </trkpt>
      <trkpt lat="42.225186" lon="2.170491">
        <ele>738</ele>
        <time>2019-08-19T03:00:16Z</time>
      </trkpt>
      <trkpt lat="42.225279" lon="2.170481">
        <ele>737.8</ele>
        <time>2019-08-19T03:00:17Z</time>
      </trkpt>
      <trkpt lat="42.225345" lon="2.170471">
        <ele>737.6</ele>
        <time>2019-08-19T03:00:18Z</time>
      </trkpt>
      <trkpt lat="42.225417" lon="2.170443">
        <ele>737.4</ele>
        <time>2019-08-19T03:00:19Z</time>
      </trkpt>
      <trkpt lat="42.225472" lon="2.170442">
        <ele>737.3</ele>
        <time>2019-08-19T03:00:20Z</time>
      </trkpt>
      <trkpt lat="42.22554" lon="2.170436">
        <ele>737.2</ele>
        <time>2019-08-19T03:00:21Z</time>
      </trkpt>
      <trkpt lat="42.225603" lon="2.170383">
        <ele>737.2</ele>
        <time>2019-08-19T03:00:22Z</time>
      </trkpt>
      <trkpt lat="42.225672" lon="2.170361">
        <ele>737.1</ele>
        <time>2019-08-19T03:00:23Z</time>
      </trkpt>
      <trkpt lat="42.225734" lon="2.170349">
        <ele>737.1</ele>
        <time>2019-08-19T03:00:24Z</time>
      </trkpt>
      <trkpt lat="42.225818" lon="2.170356">
        <ele>736.7</ele>
        <time>2019-08-19T03:00:25Z</time>
      </trkpt>
      <trkpt lat="42.225876" lon="2.170342">
        <ele>736.5</ele>
        <time>2019-08-19T03:00:26Z</time>
      </trkpt>
      <trkpt lat="42.225961" lon="2.170353">
        <ele>736.6</ele>
        <time>2019-08-19T03:00:27Z</time>
      </trkpt>
      <trkpt lat="42.22604" lon="2.170347">
        <ele>736.8</ele>
        <time>2019-08-19T03:00:28Z</time>
      </trkpt>
      <trkpt lat="42.226105" lon="2.170322">
        <ele>737</ele>
        <time>2019-08-19T03:00:29Z</time>
      </trkpt>
      <trkpt lat="42.22618" lon="2.170307">
        <ele>737.1</ele>
        <time>2019-08-19T03:00:30Z</time>
      </trkpt>
      <trkpt lat="42.226241" lon="2.170298">
        <ele>737.2</ele>
        <time>2019-08-19T03:00:31Z</time>
      </trkpt>
      <trkpt lat="42.226311" lon="2.170264">
        <ele>737.4</ele>
        <time>2019-08-19T03:00:32Z</time>
      </trkpt>
      <trkpt lat="42.226371" lon="2.170251">
        <ele>737.5</ele>
        <time>2019-08-19T03:00:33Z</time>
      </trkpt>
      <trkpt lat="42.226445" lon="2.170218">
        <ele>737.6</ele>
        <time>2019-08-19T03:00:34Z</time>
      </trkpt>
      <trkpt lat="42.2265" lon="2.170205">
        <ele>737.7</ele>
        <time>2019-08-19T03:00:35Z</time>
      </trkpt>
      <trkpt lat="42.226556" lon="2.170183">
        <ele>737.9</ele>
        <time>2019-08-19T03:00:36Z</time>
      </trkpt>
      <trkpt lat="42.226614" lon="2.170158">
        <ele>738</ele>
        <time>2019-08-19T03:00:37Z</time>
      </trkpt>
      <trkpt lat="42.226666" lon="2.170144">
        <ele>738.1</ele>
        <time>2019-08-19T03:00:38Z</time>
      </trkpt>
      <trkpt lat="42.226718" lon="2.170136">
        <ele>738.2</ele>
        <time>2019-08-19T03:00:39Z</time>
      </trkpt>
      <trkpt lat="42.226755" lon="2.170117">
        <ele>738.2</ele>
        <time>2019-08-19T03:00:40Z</time>
      </trkpt>
      <trkpt lat="42.226795" lon="2.170102">
        <ele>738.3</ele>
        <time>2019-08-19T03:00:41Z</time>
      </trkpt>
      <trkpt lat="42.226836" lon="2.170098">
        <ele>738.4</ele>
        <time>2019-08-19T03:00:42Z</time>
      </trkpt>
      <trkpt lat="42.2269" lon="2.170106">
        <ele>738.5</ele>
        <time>2019-08-19T03:00:43Z</time>
      </trkpt>
      <trkpt lat="42.226964" lon="2.170083">
        <ele>738.7</ele>
        <time>2019-08-19T03:00:44Z</time>
      </trkpt>
      <trkpt lat="42.227026" lon="2.170041">
        <ele>738.9</ele>
        <time>2019-08-19T03:00:45Z</time>
      </trkpt>
      <trkpt lat="42.227063" lon="2.170003">
        <ele>739</ele>
        <time>2019-08-19T03:00:46Z</time>
      </trkpt>
      <trkpt lat="42.227118" lon="2.16999">
        <ele>739.2</ele>
        <time>2019-08-19T03:00:47Z</time>
      </trkpt>
      <trkpt lat="42.227162" lon="2.169966">
        <ele>739.4</ele>
        <time>2019-08-19T03:00:48Z</time>
      </trkpt>
      <trkpt lat="42.227222" lon="2.169948">
        <ele>739.5</ele>
        <time>2019-08-19T03:00:49Z</time>
      </trkpt>
      <trkpt lat="42.227259" lon="2.169944">
        <ele>739.6</ele>
        <time>2019-08-19T03:00:50Z</time>
      </trkpt>
      <trkpt lat="42.227297" lon="2.16993">
        <ele>739.7</ele>
        <time>2019-08-19T03:00:51Z</time>
      </trkpt>
      <trkpt lat="42.227353" lon="2.169897">
        <ele>739.9</ele>
        <time>2019-08-19T03:00:52Z</time>
      </trkpt>
      <trkpt lat="42.227407" lon="2.16987">
        <ele>740.1</ele>
        <time>2019-08-19T03:00:53Z</time>
      </trkpt>
      <trkpt lat="42.227471" lon="2.169866">
        <ele>740.3</ele>
        <time>2019-08-19T03:00:54Z</time>
      </trkpt>
      <trkpt lat="42.227526" lon="2.169842">
        <ele>740.5</ele>
        <time>2019-08-19T03:00:55Z</time>
      </trkpt>
      <trkpt lat="42.227557" lon="2.169847">
        <ele>740.6</ele>
        <time>2019-08-19T03:00:56Z</time>
      </trkpt>
      <trkpt lat="42.227614" lon="2.169833">
        <ele>740.8</ele>
        <time>2019-08-19T03:00:59Z</time>
      </trkpt>
      <trkpt lat="42.227646" lon="2.169827">
        <ele>740.9</ele>
        <time>2019-08-19T03:01:00Z</time>
      </trkpt>
      <trkpt lat="42.227693" lon="2.169837">
        <ele>741</ele>
        <time>2019-08-19T03:01:01Z</time>
      </trkpt>
      <trkpt lat="42.227909" lon="2.169751">
        <ele>741.9</ele>
        <time>2019-08-19T03:01:03Z</time>
      </trkpt>
      <trkpt lat="42.227951" lon="2.169752">
        <ele>742</ele>
        <time>2019-08-19T03:01:04Z</time>
      </trkpt>
      <trkpt lat="42.228015" lon="2.169729">
        <ele>742.2</ele>
        <time>2019-08-19T03:01:05Z</time>
      </trkpt>
      <trkpt lat="42.228068" lon="2.169713">
        <ele>742.4</ele>
        <time>2019-08-19T03:01:06Z</time>
      </trkpt>
      <trkpt lat="42.228108" lon="2.169691">
        <ele>742.5</ele>
        <time>2019-08-19T03:01:07Z</time>
      </trkpt>
      <trkpt lat="42.228142" lon="2.169685">
        <ele>742.7</ele>
        <time>2019-08-19T03:01:08Z</time>
      </trkpt>
      <trkpt lat="42.228184" lon="2.169669">
        <ele>742.8</ele>
        <time>2019-08-19T03:01:09Z</time>
      </trkpt>
      <trkpt lat="42.228238" lon="2.169652">
        <ele>743</ele>
        <time>2019-08-19T03:01:10Z</time>
      </trkpt>
      <trkpt lat="42.228282" lon="2.169641">
        <ele>743.1</ele>
        <time>2019-08-19T03:01:11Z</time>
      </trkpt>
      <trkpt lat="42.228335" lon="2.169624">
        <ele>743.2</ele>
        <time>2019-08-19T03:01:12Z</time>
      </trkpt>
      <trkpt lat="42.228395" lon="2.169606">
        <ele>743.4</ele>
        <time>2019-08-19T03:01:13Z</time>
      </trkpt>
      <trkpt lat="42.228436" lon="2.169596">
        <ele>743.5</ele>
        <time>2019-08-19T03:01:14Z</time>
      </trkpt>
      <trkpt lat="42.228485" lon="2.169578">
        <ele>743.7</ele>
        <time>2019-08-19T03:01:15Z</time>
      </trkpt>
      <trkpt lat="42.228529" lon="2.169569">
        <ele>743.8</ele>
        <time>2019-08-19T03:01:16Z</time>
      </trkpt>
      <trkpt lat="42.228575" lon="2.169563">
        <ele>744</ele>
        <time>2019-08-19T03:01:17Z</time>
      </trkpt>
      <trkpt lat="42.228613" lon="2.169554">
        <ele>744.1</ele>
        <time>2019-08-19T03:01:18Z</time>
      </trkpt>
      <trkpt lat="42.228654" lon="2.169538">
        <ele>744.2</ele>
        <time>2019-08-19T03:01:19Z</time>
      </trkpt>
      <trkpt lat="42.228689" lon="2.169536">
        <ele>744.3</ele>
        <time>2019-08-19T03:01:21Z</time>
      </trkpt>
      <trkpt lat="42.228719" lon="2.169518">
        <ele>744.5</ele>
        <time>2019-08-19T03:01:23Z</time>
      </trkpt>
      <trkpt lat="42.228793" lon="2.169501">
        <ele>744.7</ele>
        <time>2019-08-19T03:01:25Z</time>
      </trkpt>
      <trkpt lat="42.22901" lon="2.169438">
        <ele>745.5</ele>
        <time>2019-08-19T03:01:27Z</time>
      </trkpt>
      <trkpt lat="42.22905" lon="2.169424">
        <ele>745.7</ele>
        <time>2019-08-19T03:01:28Z</time>
      </trkpt>
      <trkpt lat="42.229106" lon="2.169419">
        <ele>745.9</ele>
        <time>2019-08-19T03:01:29Z</time>
      </trkpt>
      <trkpt lat="42.229136" lon="2.169403">
        <ele>746</ele>
        <time>2019-08-19T03:01:30Z</time>
      </trkpt>
      <trkpt lat="42.229176" lon="2.169383">
        <ele>746.2</ele>
        <time>2019-08-19T03:01:31Z</time>
      </trkpt>
      <trkpt lat="42.229215" lon="2.169371">
        <ele>746.3</ele>
        <time>2019-08-19T03:01:32Z</time>
      </trkpt>
      <trkpt lat="42.229242" lon="2.169366">
        <ele>746.4</ele>
        <time>2019-08-19T03:01:33Z</time>
      </trkpt>
      <trkpt lat="42.229293" lon="2.169353">
        <ele>746.6</ele>
        <time>2019-08-19T03:01:34Z</time>
      </trkpt>
      <trkpt lat="42.229327" lon="2.169322">
        <ele>746.8</ele>
        <time>2019-08-19T03:01:35Z</time>
      </trkpt>
      <trkpt lat="42.229359" lon="2.169311">
        <ele>746.9</ele>
        <time>2019-08-19T03:01:36Z</time>
      </trkpt>
      <trkpt lat="42.229398" lon="2.169303">
        <ele>747</ele>
        <time>2019-08-19T03:01:37Z</time>
      </trkpt>
      <trkpt lat="42.229436" lon="2.169293">
        <ele>747.2</ele>
        <time>2019-08-19T03:01:38Z</time>
      </trkpt>
      <trkpt lat="42.229468" lon="2.169278">
        <ele>747.3</ele>
        <time>2019-08-19T03:01:40Z</time>
      </trkpt>
      <trkpt lat="42.229505" lon="2.169264">
        <ele>747.4</ele>
        <time>2019-08-19T03:01:43Z</time>
      </trkpt>
      <trkpt lat="42.229543" lon="2.169256">
        <ele>747.6</ele>
        <time>2019-08-19T03:01:45Z</time>
      </trkpt>
      <trkpt lat="42.229589" lon="2.169245">
        <ele>747.7</ele>
        <time>2019-08-19T03:01:47Z</time>
      </trkpt>
      <trkpt lat="42.229616" lon="2.169236">
        <ele>747.8</ele>
        <time>2019-08-19T03:01:48Z</time>
      </trkpt>
      <trkpt lat="42.229646" lon="2.169228">
        <ele>748</ele>
        <time>2019-08-19T03:01:49Z</time>
      </trkpt>
      <trkpt lat="42.229679" lon="2.169219">
        <ele>748.1</ele>
        <time>2019-08-19T03:01:50Z</time>
      </trkpt>
      <trkpt lat="42.22971" lon="2.16921">
        <ele>748.2</ele>
        <time>2019-08-19T03:01:51Z</time>
      </trkpt>
      <trkpt lat="42.229742" lon="2.169201">
        <ele>748.3</ele>
        <time>2019-08-19T03:01:52Z</time>
      </trkpt>
      <trkpt lat="42.229771" lon="2.169191">
        <ele>748.4</ele>
        <time>2019-08-19T03:01:53Z</time>
      </trkpt>
      <trkpt lat="42.229802" lon="2.16918">
        <ele>748.5</ele>
        <time>2019-08-19T03:01:54Z</time>
      </trkpt>
      <trkpt lat="42.229838" lon="2.169169">
        <ele>748.6</ele>
        <time>2019-08-19T03:01:55Z</time>
      </trkpt>
      <trkpt lat="42.229878" lon="2.169157">
        <ele>748.7</ele>
        <time>2019-08-19T03:01:56Z</time>
      </trkpt>
      <trkpt lat="42.229918" lon="2.169143">
        <ele>748.8</ele>
        <time>2019-08-19T03:01:57Z</time>
      </trkpt>
      <trkpt lat="42.229959" lon="2.169129">
        <ele>748.9</ele>
        <time>2019-08-19T03:01:58Z</time>
      </trkpt>
      <trkpt lat="42.230009" lon="2.169111">
        <ele>749.1</ele>
        <time>2019-08-19T03:01:59Z</time>
      </trkpt>
      <trkpt lat="42.230063" lon="2.169093">
        <ele>749.2</ele>
        <time>2019-08-19T03:02:00Z</time>
      </trkpt>
      <trkpt lat="42.230113" lon="2.169079">
        <ele>749.3</ele>
        <time>2019-08-19T03:02:01Z</time>
      </trkpt>
      <trkpt lat="42.230167" lon="2.169068">
        <ele>749.4</ele>
        <time>2019-08-19T03:02:02Z</time>
      </trkpt>
      <trkpt lat="42.230215" lon="2.169056">
        <ele>749.5</ele>
        <time>2019-08-19T03:02:03Z</time>
      </trkpt>
      <trkpt lat="42.230271" lon="2.169041">
        <ele>749.6</ele>
        <time>2019-08-19T03:02:04Z</time>
      </trkpt>
      <trkpt lat="42.230327" lon="2.169021">
        <ele>749.8</ele>
        <time>2019-08-19T03:02:05Z</time>
      </trkpt>
      <trkpt lat="42.230385" lon="2.168994">
        <ele>749.9</ele>
        <time>2019-08-19T03:02:06Z</time>
      </trkpt>
      <trkpt lat="42.230451" lon="2.16896">
        <ele>750</ele>
        <time>2019-08-19T03:02:07Z</time>
      </trkpt>
      <trkpt lat="42.230508" lon="2.168939">
        <ele>750.2</ele>
        <time>2019-08-19T03:02:08Z</time>
      </trkpt>
      <trkpt lat="42.230565" lon="2.168913">
        <ele>750.3</ele>
        <time>2019-08-19T03:02:09Z</time>
      </trkpt>
      <trkpt lat="42.230619" lon="2.168877">
        <ele>750.5</ele>
        <time>2019-08-19T03:02:10Z</time>
      </trkpt>
      <trkpt lat="42.230664" lon="2.168843">
        <ele>750.7</ele>
        <time>2019-08-19T03:02:11Z</time>
      </trkpt>
      <trkpt lat="42.230708" lon="2.168819">
        <ele>750.8</ele>
        <time>2019-08-19T03:02:12Z</time>
      </trkpt>
      <trkpt lat="42.230756" lon="2.168804">
        <ele>751</ele>
        <time>2019-08-19T03:02:13Z</time>
      </trkpt>
      <trkpt lat="42.230807" lon="2.168803">
        <ele>751.2</ele>
        <time>2019-08-19T03:02:14Z</time>
      </trkpt>
      <trkpt lat="42.230858" lon="2.168791">
        <ele>751.4</ele>
        <time>2019-08-19T03:02:15Z</time>
      </trkpt>
      <trkpt lat="42.230904" lon="2.168781">
        <ele>751.5</ele>
        <time>2019-08-19T03:02:16Z</time>
      </trkpt>
      <trkpt lat="42.230959" lon="2.168755">
        <ele>751.8</ele>
        <time>2019-08-19T03:02:17Z</time>
      </trkpt>
      <trkpt lat="42.231012" lon="2.168743">
        <ele>752</ele>
        <time>2019-08-19T03:02:18Z</time>
      </trkpt>
      <trkpt lat="42.231066" lon="2.168741">
        <ele>752.1</ele>
        <time>2019-08-19T03:02:19Z</time>
      </trkpt>
      <trkpt lat="42.231114" lon="2.168736">
        <ele>752.3</ele>
        <time>2019-08-19T03:02:20Z</time>
      </trkpt>
      <trkpt lat="42.231167" lon="2.168727">
        <ele>752.5</ele>
        <time>2019-08-19T03:02:21Z</time>
      </trkpt>
      <trkpt lat="42.231217" lon="2.168722">
        <ele>752.7</ele>
        <time>2019-08-19T03:02:22Z</time>
      </trkpt>
      <trkpt lat="42.231257" lon="2.168716">
        <ele>752.8</ele>
        <time>2019-08-19T03:02:23Z</time>
      </trkpt>
      <trkpt lat="42.231291" lon="2.168704">
        <ele>752.9</ele>
        <time>2019-08-19T03:02:24Z</time>
      </trkpt>
      <trkpt lat="42.231321" lon="2.168693">
        <ele>753</ele>
        <time>2019-08-19T03:02:25Z</time>
      </trkpt>
      <trkpt lat="42.231351" lon="2.168681">
        <ele>753.1</ele>
        <time>2019-08-19T03:02:26Z</time>
      </trkpt>
      <trkpt lat="42.231383" lon="2.168666">
        <ele>753.2</ele>
        <time>2019-08-19T03:02:27Z</time>
      </trkpt>
      <trkpt lat="42.231408" lon="2.168629">
        <ele>753.2</ele>
        <time>2019-08-19T03:02:28Z</time>
      </trkpt>
      <trkpt lat="42.231444" lon="2.1686">
        <ele>753.3</ele>
        <time>2019-08-19T03:02:29Z</time>
      </trkpt>
      <trkpt lat="42.231485" lon="2.168575">
        <ele>753.4</ele>
        <time>2019-08-19T03:02:30Z</time>
      </trkpt>
      <trkpt lat="42.23153" lon="2.168554">
        <ele>753.5</ele>
        <time>2019-08-19T03:02:31Z</time>
      </trkpt>
      <trkpt lat="42.231579" lon="2.168541">
        <ele>753.5</ele>
        <time>2019-08-19T03:02:32Z</time>
      </trkpt>
      <trkpt lat="42.231627" lon="2.168537">
        <ele>753.6</ele>
        <time>2019-08-19T03:02:33Z</time>
      </trkpt>
      <trkpt lat="42.231667" lon="2.168532">
        <ele>753.6</ele>
        <time>2019-08-19T03:02:34Z</time>
      </trkpt>
      <trkpt lat="42.231704" lon="2.168525">
        <ele>753.7</ele>
        <time>2019-08-19T03:02:35Z</time>
      </trkpt>
      <trkpt lat="42.231743" lon="2.168524">
        <ele>753.7</ele>
        <time>2019-08-19T03:02:36Z</time>
      </trkpt>
      <trkpt lat="42.231784" lon="2.168518">
        <ele>753.7</ele>
        <time>2019-08-19T03:02:37Z</time>
      </trkpt>
      <trkpt lat="42.231822" lon="2.168511">
        <ele>753.8</ele>
        <time>2019-08-19T03:02:38Z</time>
      </trkpt>
      <trkpt lat="42.231868" lon="2.168498">
        <ele>753.8</ele>
        <time>2019-08-19T03:02:39Z</time>
      </trkpt>
      <trkpt lat="42.231908" lon="2.168491">
        <ele>753.8</ele>
        <time>2019-08-19T03:02:40Z</time>
      </trkpt>
      <trkpt lat="42.231942" lon="2.168489">
        <ele>753.8</ele>
        <time>2019-08-19T03:02:41Z</time>
      </trkpt>
      <trkpt lat="42.231981" lon="2.168484">
        <ele>753.9</ele>
        <time>2019-08-19T03:02:42Z</time>
      </trkpt>
      <trkpt lat="42.232023" lon="2.168472">
        <ele>753.9</ele>
        <time>2019-08-19T03:02:43Z</time>
      </trkpt>
      <trkpt lat="42.232066" lon="2.168468">
        <ele>754</ele>
        <time>2019-08-19T03:02:44Z</time>
      </trkpt>
      <trkpt lat="42.232117" lon="2.168473">
        <ele>754</ele>
        <time>2019-08-19T03:02:45Z</time>
      </trkpt>
      <trkpt lat="42.232163" lon="2.168483">
        <ele>754.1</ele>
        <time>2019-08-19T03:02:46Z</time>
      </trkpt>
      <trkpt lat="42.232197" lon="2.16848">
        <ele>754.2</ele>
        <time>2019-08-19T03:02:47Z</time>
      </trkpt>
      <trkpt lat="42.232232" lon="2.16848">
        <ele>754.2</ele>
        <time>2019-08-19T03:02:48Z</time>
      </trkpt>
      <trkpt lat="42.232263" lon="2.168476">
        <ele>754.3</ele>
        <time>2019-08-19T03:02:49Z</time>
      </trkpt>
      <trkpt lat="42.23229" lon="2.168466">
        <ele>754.3</ele>
        <time>2019-08-19T03:02:50Z</time>
      </trkpt>
      <trkpt lat="42.232329" lon="2.168449">
        <ele>754.4</ele>
        <time>2019-08-19T03:02:51Z</time>
      </trkpt>
      <trkpt lat="42.232379" lon="2.168436">
        <ele>754.5</ele>
        <time>2019-08-19T03:02:52Z</time>
      </trkpt>
      <trkpt lat="42.232432" lon="2.168422">
        <ele>754.7</ele>
        <time>2019-08-19T03:02:53Z</time>
      </trkpt>
      <trkpt lat="42.232495" lon="2.16841">
        <ele>754.9</ele>
        <time>2019-08-19T03:02:54Z</time>
      </trkpt>
      <trkpt lat="42.232561" lon="2.168402">
        <ele>755.1</ele>
        <time>2019-08-19T03:02:55Z</time>
      </trkpt>
      <trkpt lat="42.23262" lon="2.168395">
        <ele>755.2</ele>
        <time>2019-08-19T03:02:56Z</time>
      </trkpt>
      <trkpt lat="42.232682" lon="2.168377">
        <ele>755.4</ele>
        <time>2019-08-19T03:02:57Z</time>
      </trkpt>
      <trkpt lat="42.232735" lon="2.16836">
        <ele>755.6</ele>
        <time>2019-08-19T03:02:58Z</time>
      </trkpt>
      <trkpt lat="42.232758" lon="2.168333">
        <ele>755.7</ele>
        <time>2019-08-19T03:02:59Z</time>
      </trkpt>
      <trkpt lat="42.232812" lon="2.16832">
        <ele>755.9</ele>
        <time>2019-08-19T03:03:01Z</time>
      </trkpt>
      <trkpt lat="42.232884" lon="2.168304">
        <ele>755.7</ele>
        <time>2019-08-19T03:03:02Z</time>
      </trkpt>
      <trkpt lat="42.232924" lon="2.168304">
        <ele>755.5</ele>
        <time>2019-08-19T03:03:03Z</time>
      </trkpt>
      <trkpt lat="42.232993" lon="2.168253">
        <ele>755.7</ele>
        <time>2019-08-19T03:03:04Z</time>
      </trkpt>
      <trkpt lat="42.233031" lon="2.168277">
        <ele>755.8</ele>
        <time>2019-08-19T03:03:05Z</time>
      </trkpt>
      <trkpt lat="42.23309" lon="2.168268">
        <ele>755.9</ele>
        <time>2019-08-19T03:03:06Z</time>
      </trkpt>
      <trkpt lat="42.233145" lon="2.168276">
        <ele>756</ele>
        <time>2019-08-19T03:03:07Z</time>
      </trkpt>
      <trkpt lat="42.233198" lon="2.168275">
        <ele>756.1</ele>
        <time>2019-08-19T03:03:08Z</time>
      </trkpt>
      <trkpt lat="42.233239" lon="2.16827">
        <ele>756.2</ele>
        <time>2019-08-19T03:03:09Z</time>
      </trkpt>
      <trkpt lat="42.233287" lon="2.168283">
        <ele>756.4</ele>
        <time>2019-08-19T03:03:10Z</time>
      </trkpt>
      <trkpt lat="42.23335" lon="2.16828">
        <ele>756.5</ele>
        <time>2019-08-19T03:03:11Z</time>
      </trkpt>
      <trkpt lat="42.23338" lon="2.168257">
        <ele>756.6</ele>
        <time>2019-08-19T03:03:12Z</time>
      </trkpt>
      <trkpt lat="42.233415" lon="2.168248">
        <ele>756.7</ele>
        <time>2019-08-19T03:03:13Z</time>
      </trkpt>
      <trkpt lat="42.233462" lon="2.168249">
        <ele>756.8</ele>
        <time>2019-08-19T03:03:14Z</time>
      </trkpt>
      <trkpt lat="42.233498" lon="2.168254">
        <ele>756.9</ele>
        <time>2019-08-19T03:03:15Z</time>
      </trkpt>
      <trkpt lat="42.233549" lon="2.168257">
        <ele>757</ele>
        <time>2019-08-19T03:03:17Z</time>
      </trkpt>
      <trkpt lat="42.233588" lon="2.168253">
        <ele>757.1</ele>
        <time>2019-08-19T03:03:18Z</time>
      </trkpt>
      <trkpt lat="42.233627" lon="2.168248">
        <ele>757.2</ele>
        <time>2019-08-19T03:03:19Z</time>
      </trkpt>
      <trkpt lat="42.233688" lon="2.168247">
        <ele>757.4</ele>
        <time>2019-08-19T03:03:20Z</time>
      </trkpt>
      <trkpt lat="42.233802" lon="2.16823">
        <ele>757.7</ele>
        <time>2019-08-19T03:03:21Z</time>
      </trkpt>
      <trkpt lat="42.233854" lon="2.168222">
        <ele>757.9</ele>
        <time>2019-08-19T03:03:22Z</time>
      </trkpt>
      <trkpt lat="42.233916" lon="2.168207">
        <ele>758.2</ele>
        <time>2019-08-19T03:03:23Z</time>
      </trkpt>
      <trkpt lat="42.233958" lon="2.168218">
        <ele>758.4</ele>
        <time>2019-08-19T03:03:24Z</time>
      </trkpt>
      <trkpt lat="42.233996" lon="2.168205">
        <ele>758.6</ele>
        <time>2019-08-19T03:03:25Z</time>
      </trkpt>
      <trkpt lat="42.234045" lon="2.168201">
        <ele>758.8</ele>
        <time>2019-08-19T03:03:26Z</time>
      </trkpt>
      <trkpt lat="42.234094" lon="2.168202">
        <ele>759.1</ele>
        <time>2019-08-19T03:03:27Z</time>
      </trkpt>
      <trkpt lat="42.234141" lon="2.168199">
        <ele>759.3</ele>
        <time>2019-08-19T03:03:28Z</time>
      </trkpt>
      <trkpt lat="42.234179" lon="2.168188">
        <ele>759.5</ele>
        <time>2019-08-19T03:03:29Z</time>
      </trkpt>
      <trkpt lat="42.234229" lon="2.168182">
        <ele>759.7</ele>
        <time>2019-08-19T03:03:31Z</time>
      </trkpt>
      <trkpt lat="42.23428" lon="2.168181">
        <ele>759.8</ele>
        <time>2019-08-19T03:03:33Z</time>
      </trkpt>
      <trkpt lat="42.234313" lon="2.168182">
        <ele>759.9</ele>
        <time>2019-08-19T03:03:34Z</time>
      </trkpt>
      <trkpt lat="42.234356" lon="2.168178">
        <ele>760</ele>
        <time>2019-08-19T03:03:35Z</time>
      </trkpt>
      <trkpt lat="42.2344" lon="2.168175">
        <ele>760.1</ele>
        <time>2019-08-19T03:03:36Z</time>
      </trkpt>
      <trkpt lat="42.234442" lon="2.16817">
        <ele>760.2</ele>
        <time>2019-08-19T03:03:37Z</time>
      </trkpt>
      <trkpt lat="42.234487" lon="2.168164">
        <ele>760.3</ele>
        <time>2019-08-19T03:03:38Z</time>
      </trkpt>
      <trkpt lat="42.234546" lon="2.168155">
        <ele>760.3</ele>
        <time>2019-08-19T03:03:39Z</time>
      </trkpt>
      <trkpt lat="42.234604" lon="2.168146">
        <ele>760.4</ele>
        <time>2019-08-19T03:03:40Z</time>
      </trkpt>
      <trkpt lat="42.234665" lon="2.168137">
        <ele>760.5</ele>
        <time>2019-08-19T03:03:41Z</time>
      </trkpt>
      <trkpt lat="42.234726" lon="2.168127">
        <ele>760.7</ele>
        <time>2019-08-19T03:03:42Z</time>
      </trkpt>
      <trkpt lat="42.234786" lon="2.168119">
        <ele>760.9</ele>
        <time>2019-08-19T03:03:43Z</time>
      </trkpt>
      <trkpt lat="42.23485" lon="2.16811">
        <ele>761.1</ele>
        <time>2019-08-19T03:03:44Z</time>
      </trkpt>
      <trkpt lat="42.234908" lon="2.168104">
        <ele>761.3</ele>
        <time>2019-08-19T03:03:45Z</time>
      </trkpt>
      <trkpt lat="42.234966" lon="2.168101">
        <ele>761.5</ele>
        <time>2019-08-19T03:03:46Z</time>
      </trkpt>
      <trkpt lat="42.235022" lon="2.168102">
        <ele>761.5</ele>
        <time>2019-08-19T03:03:47Z</time>
      </trkpt>
      <trkpt lat="42.235076" lon="2.168107">
        <ele>761.5</ele>
        <time>2019-08-19T03:03:48Z</time>
      </trkpt>
      <trkpt lat="42.235132" lon="2.168107">
        <ele>761.5</ele>
        <time>2019-08-19T03:03:49Z</time>
      </trkpt>
      <trkpt lat="42.235187" lon="2.168111">
        <ele>761.5</ele>
        <time>2019-08-19T03:03:50Z</time>
      </trkpt>
      <trkpt lat="42.235246" lon="2.168126">
        <ele>761.5</ele>
        <time>2019-08-19T03:03:51Z</time>
      </trkpt>
      <trkpt lat="42.235308" lon="2.168117">
        <ele>761.5</ele>
        <time>2019-08-19T03:03:52Z</time>
      </trkpt>
      <trkpt lat="42.235366" lon="2.16811">
        <ele>761.5</ele>
        <time>2019-08-19T03:03:53Z</time>
      </trkpt>
      <trkpt lat="42.235416" lon="2.168113">
        <ele>761.6</ele>
        <time>2019-08-19T03:03:54Z</time>
      </trkpt>
      <trkpt lat="42.235467" lon="2.168106">
        <ele>761.6</ele>
        <time>2019-08-19T03:03:55Z</time>
      </trkpt>
      <trkpt lat="42.23552" lon="2.168108">
        <ele>761.6</ele>
        <time>2019-08-19T03:03:56Z</time>
      </trkpt>
      <trkpt lat="42.235559" lon="2.168106">
        <ele>761.6</ele>
        <time>2019-08-19T03:03:57Z</time>
      </trkpt>
      <trkpt lat="42.235646" lon="2.168129">
        <ele>761.7</ele>
        <time>2019-08-19T03:03:58Z</time>
      </trkpt>
      <trkpt lat="42.235694" lon="2.168138">
        <ele>761.8</ele>
        <time>2019-08-19T03:03:59Z</time>
      </trkpt>
      <trkpt lat="42.235728" lon="2.1681">
        <ele>761.9</ele>
        <time>2019-08-19T03:04:00Z</time>
      </trkpt>
      <trkpt lat="42.235919" lon="2.168153">
        <ele>762.3</ele>
        <time>2019-08-19T03:04:06Z</time>
      </trkpt>
      <trkpt lat="42.236005" lon="2.168176">
        <ele>762.4</ele>
        <time>2019-08-19T03:04:07Z</time>
      </trkpt>
      <trkpt lat="42.236074" lon="2.168188">
        <ele>762.5</ele>
        <time>2019-08-19T03:04:08Z</time>
      </trkpt>
      <trkpt lat="42.236119" lon="2.168198">
        <ele>762.5</ele>
        <time>2019-08-19T03:04:09Z</time>
      </trkpt>
      <trkpt lat="42.236186" lon="2.168191">
        <ele>762.6</ele>
        <time>2019-08-19T03:04:10Z</time>
      </trkpt>
      <trkpt lat="42.236258" lon="2.1682">
        <ele>762.6</ele>
        <time>2019-08-19T03:04:11Z</time>
      </trkpt>
      <trkpt lat="42.236315" lon="2.168206">
        <ele>762.6</ele>
        <time>2019-08-19T03:04:12Z</time>
      </trkpt>
      <trkpt lat="42.236368" lon="2.168227">
        <ele>762.6</ele>
        <time>2019-08-19T03:04:13Z</time>
      </trkpt>
      <trkpt lat="42.236433" lon="2.168254">
        <ele>762.7</ele>
        <time>2019-08-19T03:04:14Z</time>
      </trkpt>
      <trkpt lat="42.236489" lon="2.168242">
        <ele>762.7</ele>
        <time>2019-08-19T03:04:15Z</time>
      </trkpt>
      <trkpt lat="42.236541" lon="2.168261">
        <ele>762.7</ele>
        <time>2019-08-19T03:04:16Z</time>
      </trkpt>
      <trkpt lat="42.236594" lon="2.168258">
        <ele>762.8</ele>
        <time>2019-08-19T03:04:17Z</time>
      </trkpt>
      <trkpt lat="42.236666" lon="2.168242">
        <ele>762.9</ele>
        <time>2019-08-19T03:04:18Z</time>
      </trkpt>
      <trkpt lat="42.236712" lon="2.168236">
        <ele>763</ele>
        <time>2019-08-19T03:04:19Z</time>
      </trkpt>
      <trkpt lat="42.236762" lon="2.168241">
        <ele>763.1</ele>
        <time>2019-08-19T03:04:20Z</time>
      </trkpt>
      <trkpt lat="42.236817" lon="2.168248">
        <ele>763.2</ele>
        <time>2019-08-19T03:04:21Z</time>
      </trkpt>
      <trkpt lat="42.236868" lon="2.16826">
        <ele>763.3</ele>
        <time>2019-08-19T03:04:22Z</time>
      </trkpt>
      <trkpt lat="42.236924" lon="2.168264">
        <ele>763.4</ele>
        <time>2019-08-19T03:04:23Z</time>
      </trkpt>
      <trkpt lat="42.236969" lon="2.168263">
        <ele>763.5</ele>
        <time>2019-08-19T03:04:24Z</time>
      </trkpt>
      <trkpt lat="42.237019" lon="2.168252">
        <ele>763.6</ele>
        <time>2019-08-19T03:04:25Z</time>
      </trkpt>
      <trkpt lat="42.237062" lon="2.168259">
        <ele>763.7</ele>
        <time>2019-08-19T03:04:26Z</time>
      </trkpt>
      <trkpt lat="42.23711" lon="2.168268">
        <ele>763.7</ele>
        <time>2019-08-19T03:04:27Z</time>
      </trkpt>
      <trkpt lat="42.237169" lon="2.168239">
        <ele>763.8</ele>
        <time>2019-08-19T03:04:28Z</time>
      </trkpt>
      <trkpt lat="42.237218" lon="2.168215">
        <ele>763.9</ele>
        <time>2019-08-19T03:04:29Z</time>
      </trkpt>
      <trkpt lat="42.237262" lon="2.168211">
        <ele>764</ele>
        <time>2019-08-19T03:04:30Z</time>
      </trkpt>
      <trkpt lat="42.237313" lon="2.168211">
        <ele>764.1</ele>
        <time>2019-08-19T03:04:31Z</time>
      </trkpt>
      <trkpt lat="42.237353" lon="2.168218">
        <ele>764.1</ele>
        <time>2019-08-19T03:04:32Z</time>
      </trkpt>
      <trkpt lat="42.2374" lon="2.168199">
        <ele>764.2</ele>
        <time>2019-08-19T03:04:33Z</time>
      </trkpt>
      <trkpt lat="42.237458" lon="2.16821">
        <ele>764.4</ele>
        <time>2019-08-19T03:04:34Z</time>
      </trkpt>
      <trkpt lat="42.237507" lon="2.168195">
        <ele>764.4</ele>
        <time>2019-08-19T03:04:35Z</time>
      </trkpt>
      <trkpt lat="42.237558" lon="2.168181">
        <ele>764.5</ele>
        <time>2019-08-19T03:04:36Z</time>
      </trkpt>
      <trkpt lat="42.237583" lon="2.16816">
        <ele>764.5</ele>
        <time>2019-08-19T03:04:37Z</time>
      </trkpt>
      <trkpt lat="42.237604" lon="2.16813">
        <ele>764.6</ele>
        <time>2019-08-19T03:04:40Z</time>
      </trkpt>
      <trkpt lat="42.237666" lon="2.168126">
        <ele>764.6</ele>
        <time>2019-08-19T03:04:42Z</time>
      </trkpt>
      <trkpt lat="42.237922" lon="2.168055">
        <ele>764.7</ele>
        <time>2019-08-19T03:04:44Z</time>
      </trkpt>
      <trkpt lat="42.237982" lon="2.168016">
        <ele>764.8</ele>
        <time>2019-08-19T03:04:46Z</time>
      </trkpt>
      <trkpt lat="42.238022" lon="2.167992">
        <ele>764.8</ele>
        <time>2019-08-19T03:04:47Z</time>
      </trkpt>
      <trkpt lat="42.238059" lon="2.168005">
        <ele>764.9</ele>
        <time>2019-08-19T03:04:48Z</time>
      </trkpt>
      <trkpt lat="42.238084" lon="2.167975">
        <ele>764.9</ele>
        <time>2019-08-19T03:04:49Z</time>
      </trkpt>
      <trkpt lat="42.238145" lon="2.167944">
        <ele>765</ele>
        <time>2019-08-19T03:04:50Z</time>
      </trkpt>
      <trkpt lat="42.238209" lon="2.167928">
        <ele>765.1</ele>
        <time>2019-08-19T03:04:51Z</time>
      </trkpt>
      <trkpt lat="42.238235" lon="2.167876">
        <ele>765.1</ele>
        <time>2019-08-19T03:04:52Z</time>
      </trkpt>
      <trkpt lat="42.238286" lon="2.167839">
        <ele>765.2</ele>
        <time>2019-08-19T03:04:53Z</time>
      </trkpt>
      <trkpt lat="42.238335" lon="2.16782">
        <ele>765.3</ele>
        <time>2019-08-19T03:04:54Z</time>
      </trkpt>
      <trkpt lat="42.238384" lon="2.167788">
        <ele>765.4</ele>
        <time>2019-08-19T03:04:55Z</time>
      </trkpt>
      <trkpt lat="42.238434" lon="2.167796">
        <ele>765.5</ele>
        <time>2019-08-19T03:04:56Z</time>
      </trkpt>
      <trkpt lat="42.238475" lon="2.16778">
        <ele>765.6</ele>
        <time>2019-08-19T03:04:57Z</time>
      </trkpt>
      <trkpt lat="42.238502" lon="2.167765">
        <ele>765.6</ele>
        <time>2019-08-19T03:04:58Z</time>
      </trkpt>
      <trkpt lat="42.238531" lon="2.167752">
        <ele>765.7</ele>
        <time>2019-08-19T03:05:00Z</time>
      </trkpt>
      <trkpt lat="42.238564" lon="2.167709">
        <ele>765.8</ele>
        <time>2019-08-19T03:05:02Z</time>
      </trkpt>
      <trkpt lat="42.238584" lon="2.167683">
        <ele>765.9</ele>
        <time>2019-08-19T03:05:03Z</time>
      </trkpt>
      <trkpt lat="42.238607" lon="2.167654">
        <ele>766</ele>
        <time>2019-08-19T03:05:04Z</time>
      </trkpt>
      <trkpt lat="42.238635" lon="2.167622">
        <ele>766.1</ele>
        <time>2019-08-19T03:05:05Z</time>
      </trkpt>
      <trkpt lat="42.23867" lon="2.167587">
        <ele>766.2</ele>
        <time>2019-08-19T03:05:06Z</time>
      </trkpt>
      <trkpt lat="42.238707" lon="2.167549">
        <ele>766.3</ele>
        <time>2019-08-19T03:05:07Z</time>
      </trkpt>
      <trkpt lat="42.238753" lon="2.167499">
        <ele>766.4</ele>
        <time>2019-08-19T03:05:08Z</time>
      </trkpt>
      <trkpt lat="42.238803" lon="2.167446">
        <ele>766.6</ele>
        <time>2019-08-19T03:05:09Z</time>
      </trkpt>
      <trkpt lat="42.238854" lon="2.167397">
        <ele>766.7</ele>
        <time>2019-08-19T03:05:10Z</time>
      </trkpt>
      <trkpt lat="42.238912" lon="2.167343">
        <ele>766.8</ele>
        <time>2019-08-19T03:05:11Z</time>
      </trkpt>
      <trkpt lat="42.238972" lon="2.167287">
        <ele>766.9</ele>
        <time>2019-08-19T03:05:12Z</time>
      </trkpt>
      <trkpt lat="42.239024" lon="2.167241">
        <ele>767</ele>
        <time>2019-08-19T03:05:13Z</time>
      </trkpt>
      <trkpt lat="42.239077" lon="2.167191">
        <ele>767</ele>
        <time>2019-08-19T03:05:14Z</time>
      </trkpt>
      <trkpt lat="42.2392" lon="2.167055">
        <ele>767.1</ele>
        <time>2019-08-19T03:05:15Z</time>
      </trkpt>
      <trkpt lat="42.239307" lon="2.166928">
        <ele>767.1</ele>
        <time>2019-08-19T03:05:16Z</time>
      </trkpt>
      <trkpt lat="42.239349" lon="2.166914">
        <ele>767.1</ele>
        <time>2019-08-19T03:05:17Z</time>
      </trkpt>
      <trkpt lat="42.239379" lon="2.166891">
        <ele>767.1</ele>
        <time>2019-08-19T03:05:18Z</time>
      </trkpt>
      <trkpt lat="42.239409" lon="2.166838">
        <ele>767.1</ele>
        <time>2019-08-19T03:05:19Z</time>
      </trkpt>
      <trkpt lat="42.239436" lon="2.166786">
        <ele>767.1</ele>
        <time>2019-08-19T03:05:20Z</time>
      </trkpt>
      <trkpt lat="42.23948" lon="2.166753">
        <ele>767.1</ele>
        <time>2019-08-19T03:05:21Z</time>
      </trkpt>
      <trkpt lat="42.239514" lon="2.166701">
        <ele>767.1</ele>
        <time>2019-08-19T03:05:23Z</time>
      </trkpt>
      <trkpt lat="42.239549" lon="2.166682">
        <ele>767.1</ele>
        <time>2019-08-19T03:05:25Z</time>
      </trkpt>
      <trkpt lat="42.2396" lon="2.166659">
        <ele>767.1</ele>
        <time>2019-08-19T03:05:27Z</time>
      </trkpt>
      <trkpt lat="42.239627" lon="2.166638">
        <ele>767.1</ele>
        <time>2019-08-19T03:05:28Z</time>
      </trkpt>
      <trkpt lat="42.239655" lon="2.166615">
        <ele>767.1</ele>
        <time>2019-08-19T03:05:29Z</time>
      </trkpt>
      <trkpt lat="42.239685" lon="2.166588">
        <ele>767.1</ele>
        <time>2019-08-19T03:05:30Z</time>
      </trkpt>
      <trkpt lat="42.239718" lon="2.166563">
        <ele>767.1</ele>
        <time>2019-08-19T03:05:31Z</time>
      </trkpt>
      <trkpt lat="42.239753" lon="2.166527">
        <ele>767.1</ele>
        <time>2019-08-19T03:05:32Z</time>
      </trkpt>
      <trkpt lat="42.239787" lon="2.166497">
        <ele>767.1</ele>
        <time>2019-08-19T03:05:33Z</time>
      </trkpt>
      <trkpt lat="42.239823" lon="2.166469">
        <ele>767.1</ele>
        <time>2019-08-19T03:05:34Z</time>
      </trkpt>
      <trkpt lat="42.239863" lon="2.166436">
        <ele>767.1</ele>
        <time>2019-08-19T03:05:35Z</time>
      </trkpt>
      <trkpt lat="42.239908" lon="2.166406">
        <ele>767.1</ele>
        <time>2019-08-19T03:05:36Z</time>
      </trkpt>
      <trkpt lat="42.239948" lon="2.166377">
        <ele>767.1</ele>
        <time>2019-08-19T03:05:37Z</time>
      </trkpt>
      <trkpt lat="42.239997" lon="2.166335">
        <ele>767.1</ele>
        <time>2019-08-19T03:05:38Z</time>
      </trkpt>
      <trkpt lat="42.240058" lon="2.16628">
        <ele>767</ele>
        <time>2019-08-19T03:05:39Z</time>
      </trkpt>
      <trkpt lat="42.240119" lon="2.16622">
        <ele>767.3</ele>
        <time>2019-08-19T03:05:40Z</time>
      </trkpt>
      <trkpt lat="42.240179" lon="2.166162">
        <ele>767.5</ele>
        <time>2019-08-19T03:05:41Z</time>
      </trkpt>
      <trkpt lat="42.240236" lon="2.166114">
        <ele>767.6</ele>
        <time>2019-08-19T03:05:42Z</time>
      </trkpt>
      <trkpt lat="42.240292" lon="2.166071">
        <ele>767.8</ele>
        <time>2019-08-19T03:05:43Z</time>
      </trkpt>
      <trkpt lat="42.240343" lon="2.166028">
        <ele>768</ele>
        <time>2019-08-19T03:05:44Z</time>
      </trkpt>
      <trkpt lat="42.240387" lon="2.165987">
        <ele>768.1</ele>
        <time>2019-08-19T03:05:45Z</time>
      </trkpt>
      <trkpt lat="42.24043" lon="2.165951">
        <ele>768.3</ele>
        <time>2019-08-19T03:05:46Z</time>
      </trkpt>
      <trkpt lat="42.240476" lon="2.16591">
        <ele>768.5</ele>
        <time>2019-08-19T03:05:47Z</time>
      </trkpt>
      <trkpt lat="42.240518" lon="2.165877">
        <ele>768.6</ele>
        <time>2019-08-19T03:05:48Z</time>
      </trkpt>
      <trkpt lat="42.24056" lon="2.165843">
        <ele>768.8</ele>
        <time>2019-08-19T03:05:49Z</time>
      </trkpt>
      <trkpt lat="42.240597" lon="2.165814">
        <ele>769</ele>
        <time>2019-08-19T03:05:50Z</time>
      </trkpt>
      <trkpt lat="42.24063" lon="2.165787">
        <ele>769.1</ele>
        <time>2019-08-19T03:05:51Z</time>
      </trkpt>
      <trkpt lat="42.240659" lon="2.165763">
        <ele>769.2</ele>
        <time>2019-08-19T03:05:52Z</time>
      </trkpt>
      <trkpt lat="42.240686" lon="2.165739">
        <ele>769.4</ele>
        <time>2019-08-19T03:05:53Z</time>
      </trkpt>
      <trkpt lat="42.240732" lon="2.165699">
        <ele>769.6</ele>
        <time>2019-08-19T03:05:55Z</time>
      </trkpt>
      <trkpt lat="42.240766" lon="2.165668">
        <ele>769.8</ele>
        <time>2019-08-19T03:05:56Z</time>
      </trkpt>
      <trkpt lat="42.240812" lon="2.165624">
        <ele>770</ele>
        <time>2019-08-19T03:05:57Z</time>
      </trkpt>
      <trkpt lat="42.240856" lon="2.16558">
        <ele>770.3</ele>
        <time>2019-08-19T03:05:58Z</time>
      </trkpt>
      <trkpt lat="42.240892" lon="2.165546">
        <ele>770.5</ele>
        <time>2019-08-19T03:05:59Z</time>
      </trkpt>
      <trkpt lat="42.240926" lon="2.165513">
        <ele>770.8</ele>
        <time>2019-08-19T03:06:00Z</time>
      </trkpt>
      <trkpt lat="42.240966" lon="2.165478">
        <ele>771</ele>
        <time>2019-08-19T03:06:01Z</time>
      </trkpt>
      <trkpt lat="42.241003" lon="2.165447">
        <ele>771.3</ele>
        <time>2019-08-19T03:06:02Z</time>
      </trkpt>
      <trkpt lat="42.241043" lon="2.165411">
        <ele>771.6</ele>
        <time>2019-08-19T03:06:03Z</time>
      </trkpt>
      <trkpt lat="42.241081" lon="2.165379">
        <ele>771.8</ele>
        <time>2019-08-19T03:06:04Z</time>
      </trkpt>
      <trkpt lat="42.241114" lon="2.165348">
        <ele>772</ele>
        <time>2019-08-19T03:06:05Z</time>
      </trkpt>
      <trkpt lat="42.241149" lon="2.165316">
        <ele>772.2</ele>
        <time>2019-08-19T03:06:06Z</time>
      </trkpt>
      <trkpt lat="42.241181" lon="2.165283">
        <ele>772.4</ele>
        <time>2019-08-19T03:06:07Z</time>
      </trkpt>
      <trkpt lat="42.241213" lon="2.16525">
        <ele>772.7</ele>
        <time>2019-08-19T03:06:08Z</time>
      </trkpt>
      <trkpt lat="42.241248" lon="2.165216">
        <ele>772.9</ele>
        <time>2019-08-19T03:06:09Z</time>
      </trkpt>
      <trkpt lat="42.241286" lon="2.165186">
        <ele>773.1</ele>
        <time>2019-08-19T03:06:10Z</time>
      </trkpt>
      <trkpt lat="42.241346" lon="2.165143">
        <ele>773.4</ele>
        <time>2019-08-19T03:06:11Z</time>
      </trkpt>
      <trkpt lat="42.24139" lon="2.165121">
        <ele>773.6</ele>
        <time>2019-08-19T03:06:12Z</time>
      </trkpt>
      <trkpt lat="42.241426" lon="2.165083">
        <ele>773.7</ele>
        <time>2019-08-19T03:06:13Z</time>
      </trkpt>
      <trkpt lat="42.24147" lon="2.165046">
        <ele>773.8</ele>
        <time>2019-08-19T03:06:14Z</time>
      </trkpt>
      <trkpt lat="42.241507" lon="2.165006">
        <ele>773.9</ele>
        <time>2019-08-19T03:06:15Z</time>
      </trkpt>
      <trkpt lat="42.241553" lon="2.164963">
        <ele>774</ele>
        <time>2019-08-19T03:06:16Z</time>
      </trkpt>
      <trkpt lat="42.241587" lon="2.164927">
        <ele>774</ele>
        <time>2019-08-19T03:06:17Z</time>
      </trkpt>
      <trkpt lat="42.241632" lon="2.164898">
        <ele>774.1</ele>
        <time>2019-08-19T03:06:18Z</time>
      </trkpt>
      <trkpt lat="42.241678" lon="2.164848">
        <ele>774.1</ele>
        <time>2019-08-19T03:06:19Z</time>
      </trkpt>
      <trkpt lat="42.241727" lon="2.164821">
        <ele>774.1</ele>
        <time>2019-08-19T03:06:20Z</time>
      </trkpt>
      <trkpt lat="42.241762" lon="2.164786">
        <ele>774.1</ele>
        <time>2019-08-19T03:06:21Z</time>
      </trkpt>
      <trkpt lat="42.241814" lon="2.164758">
        <ele>774.1</ele>
        <time>2019-08-19T03:06:22Z</time>
      </trkpt>
      <trkpt lat="42.241853" lon="2.164735">
        <ele>774.1</ele>
        <time>2019-08-19T03:06:23Z</time>
      </trkpt>
      <trkpt lat="42.2419" lon="2.164726">
        <ele>774.1</ele>
        <time>2019-08-19T03:06:24Z</time>
      </trkpt>
      <trkpt lat="42.241969" lon="2.164694">
        <ele>774.2</ele>
        <time>2019-08-19T03:06:25Z</time>
      </trkpt>
      <trkpt lat="42.242019" lon="2.164689">
        <ele>774.2</ele>
        <time>2019-08-19T03:06:26Z</time>
      </trkpt>
      <trkpt lat="42.242068" lon="2.164688">
        <ele>774.2</ele>
        <time>2019-08-19T03:06:27Z</time>
      </trkpt>
      <trkpt lat="42.242119" lon="2.16469">
        <ele>774.2</ele>
        <time>2019-08-19T03:06:28Z</time>
      </trkpt>
      <trkpt lat="42.242165" lon="2.164693">
        <ele>774.2</ele>
        <time>2019-08-19T03:06:29Z</time>
      </trkpt>
      <trkpt lat="42.242218" lon="2.16469">
        <ele>774.3</ele>
        <time>2019-08-19T03:06:30Z</time>
      </trkpt>
      <trkpt lat="42.242266" lon="2.164692">
        <ele>774.3</ele>
        <time>2019-08-19T03:06:31Z</time>
      </trkpt>
      <trkpt lat="42.242331" lon="2.164692">
        <ele>774.3</ele>
        <time>2019-08-19T03:06:32Z</time>
      </trkpt>
      <trkpt lat="42.242378" lon="2.164744">
        <ele>774.3</ele>
        <time>2019-08-19T03:06:33Z</time>
      </trkpt>
      <trkpt lat="42.242441" lon="2.16471">
        <ele>774.3</ele>
        <time>2019-08-19T03:06:34Z</time>
      </trkpt>
      <trkpt lat="42.242481" lon="2.164735">
        <ele>774.3</ele>
        <time>2019-08-19T03:06:35Z</time>
      </trkpt>
      <trkpt lat="42.242538" lon="2.164736">
        <ele>774.3</ele>
        <time>2019-08-19T03:06:36Z</time>
      </trkpt>
      <trkpt lat="42.242584" lon="2.164767">
        <ele>774.3</ele>
        <time>2019-08-19T03:06:37Z</time>
      </trkpt>
      <trkpt lat="42.242644" lon="2.164777">
        <ele>774.3</ele>
        <time>2019-08-19T03:06:38Z</time>
      </trkpt>
      <trkpt lat="42.242709" lon="2.164811">
        <ele>774.3</ele>
        <time>2019-08-19T03:06:39Z</time>
      </trkpt>
      <trkpt lat="42.242747" lon="2.164818">
        <ele>774.3</ele>
        <time>2019-08-19T03:06:40Z</time>
      </trkpt>
      <trkpt lat="42.242806" lon="2.164847">
        <ele>774.3</ele>
        <time>2019-08-19T03:06:41Z</time>
      </trkpt>
      <trkpt lat="42.242856" lon="2.16488">
        <ele>774.3</ele>
        <time>2019-08-19T03:06:42Z</time>
      </trkpt>
      <trkpt lat="42.242887" lon="2.164898">
        <ele>774.3</ele>
        <time>2019-08-19T03:06:43Z</time>
      </trkpt>
      <trkpt lat="42.242918" lon="2.16491">
        <ele>774.3</ele>
        <time>2019-08-19T03:06:46Z</time>
      </trkpt>
      <trkpt lat="42.242955" lon="2.164921">
        <ele>774.3</ele>
        <time>2019-08-19T03:06:47Z</time>
      </trkpt>
      <trkpt lat="42.242991" lon="2.164922">
        <ele>774.3</ele>
        <time>2019-08-19T03:06:48Z</time>
      </trkpt>
      <trkpt lat="42.243204" lon="2.165045">
        <ele>774.3</ele>
        <time>2019-08-19T03:06:50Z</time>
      </trkpt>
      <trkpt lat="42.243244" lon="2.165077">
        <ele>774.4</ele>
        <time>2019-08-19T03:06:51Z</time>
      </trkpt>
      <trkpt lat="42.243322" lon="2.165078">
        <ele>774.4</ele>
        <time>2019-08-19T03:06:52Z</time>
      </trkpt>
      <trkpt lat="42.243359" lon="2.165098">
        <ele>774.4</ele>
        <time>2019-08-19T03:06:54Z</time>
      </trkpt>
      <trkpt lat="42.243386" lon="2.165108">
        <ele>774.4</ele>
        <time>2019-08-19T03:06:55Z</time>
      </trkpt>
      <trkpt lat="42.243411" lon="2.16514">
        <ele>774.4</ele>
        <time>2019-08-19T03:06:56Z</time>
      </trkpt>
      <trkpt lat="42.243474" lon="2.165174">
        <ele>774.5</ele>
        <time>2019-08-19T03:06:58Z</time>
      </trkpt>
      <trkpt lat="42.24378" lon="2.165188">
        <ele>774.6</ele>
        <time>2019-08-19T03:07:00Z</time>
      </trkpt>
      <trkpt lat="42.243854" lon="2.165144">
        <ele>774.7</ele>
        <time>2019-08-19T03:07:01Z</time>
      </trkpt>
      <trkpt lat="42.243905" lon="2.165134">
        <ele>774.7</ele>
        <time>2019-08-19T03:07:02Z</time>
      </trkpt>
      <trkpt lat="42.243997" lon="2.165114">
        <ele>774.8</ele>
        <time>2019-08-19T03:07:03Z</time>
      </trkpt>
      <trkpt lat="42.244034" lon="2.165122">
        <ele>774.8</ele>
        <time>2019-08-19T03:07:04Z</time>
      </trkpt>
      <trkpt lat="42.2441" lon="2.165112">
        <ele>774.9</ele>
        <time>2019-08-19T03:07:05Z</time>
      </trkpt>
      <trkpt lat="42.244155" lon="2.165113">
        <ele>774.9</ele>
        <time>2019-08-19T03:07:06Z</time>
      </trkpt>
      <trkpt lat="42.244216" lon="2.16512">
        <ele>775</ele>
        <time>2019-08-19T03:07:07Z</time>
      </trkpt>
      <trkpt lat="42.244294" lon="2.165145">
        <ele>775</ele>
        <time>2019-08-19T03:07:08Z</time>
      </trkpt>
      <trkpt lat="42.244324" lon="2.165128">
        <ele>775</ele>
        <time>2019-08-19T03:07:09Z</time>
      </trkpt>
      <trkpt lat="42.244388" lon="2.165115">
        <ele>775.1</ele>
        <time>2019-08-19T03:07:10Z</time>
      </trkpt>
      <trkpt lat="42.24445" lon="2.165119">
        <ele>775.1</ele>
        <time>2019-08-19T03:07:11Z</time>
      </trkpt>
      <trkpt lat="42.244499" lon="2.165156">
        <ele>775.1</ele>
        <time>2019-08-19T03:07:12Z</time>
      </trkpt>
      <trkpt lat="42.244537" lon="2.165127">
        <ele>775.2</ele>
        <time>2019-08-19T03:07:13Z</time>
      </trkpt>
      <trkpt lat="42.244608" lon="2.16509">
        <ele>775.2</ele>
        <time>2019-08-19T03:07:14Z</time>
      </trkpt>
      <trkpt lat="42.244672" lon="2.164991">
        <ele>775.3</ele>
        <time>2019-08-19T03:07:15Z</time>
      </trkpt>
      <trkpt lat="42.24473" lon="2.164943">
        <ele>775.4</ele>
        <time>2019-08-19T03:07:18Z</time>
      </trkpt>
      <trkpt lat="42.24478" lon="2.164915">
        <ele>775.5</ele>
        <time>2019-08-19T03:07:19Z</time>
      </trkpt>
      <trkpt lat="42.244798" lon="2.164877">
        <ele>775.6</ele>
        <time>2019-08-19T03:07:20Z</time>
      </trkpt>
      <trkpt lat="42.244873" lon="2.164911">
        <ele>775.7</ele>
        <time>2019-08-19T03:07:21Z</time>
      </trkpt>
      <trkpt lat="42.244909" lon="2.164909">
        <ele>775.7</ele>
        <time>2019-08-19T03:07:24Z</time>
      </trkpt>
      <trkpt lat="42.244947" lon="2.164899">
        <ele>775.8</ele>
        <time>2019-08-19T03:07:26Z</time>
      </trkpt>
      <trkpt lat="42.244987" lon="2.164882">
        <ele>775.9</ele>
        <time>2019-08-19T03:07:28Z</time>
      </trkpt>
      <trkpt lat="42.245032" lon="2.164865">
        <ele>776</ele>
        <time>2019-08-19T03:07:30Z</time>
      </trkpt>
      <trkpt lat="42.245082" lon="2.164838">
        <ele>776.1</ele>
        <time>2019-08-19T03:07:32Z</time>
      </trkpt>
      <trkpt lat="42.245107" lon="2.164818">
        <ele>776.1</ele>
        <time>2019-08-19T03:07:33Z</time>
      </trkpt>
      <trkpt lat="42.245134" lon="2.164799">
        <ele>776.2</ele>
        <time>2019-08-19T03:07:34Z</time>
      </trkpt>
      <trkpt lat="42.245168" lon="2.164786">
        <ele>776.3</ele>
        <time>2019-08-19T03:07:35Z</time>
      </trkpt>
      <trkpt lat="42.2452" lon="2.164774">
        <ele>776.3</ele>
        <time>2019-08-19T03:07:36Z</time>
      </trkpt>
      <trkpt lat="42.245236" lon="2.164768">
        <ele>776.4</ele>
        <time>2019-08-19T03:07:37Z</time>
      </trkpt>
      <trkpt lat="42.245275" lon="2.164769">
        <ele>776.7</ele>
        <time>2019-08-19T03:07:38Z</time>
      </trkpt>
      <trkpt lat="42.245315" lon="2.164762">
        <ele>776.9</ele>
        <time>2019-08-19T03:07:39Z</time>
      </trkpt>
      <trkpt lat="42.245367" lon="2.164748">
        <ele>777.3</ele>
        <time>2019-08-19T03:07:40Z</time>
      </trkpt>
      <trkpt lat="42.245425" lon="2.164729">
        <ele>777.7</ele>
        <time>2019-08-19T03:07:41Z</time>
      </trkpt>
      <trkpt lat="42.245482" lon="2.164706">
        <ele>778.1</ele>
        <time>2019-08-19T03:07:42Z</time>
      </trkpt>
      <trkpt lat="42.245532" lon="2.164682">
        <ele>778.4</ele>
        <time>2019-08-19T03:07:43Z</time>
      </trkpt>
      <trkpt lat="42.24558" lon="2.164666">
        <ele>778.8</ele>
        <time>2019-08-19T03:07:44Z</time>
      </trkpt>
      <trkpt lat="42.245633" lon="2.164643">
        <ele>779.1</ele>
        <time>2019-08-19T03:07:45Z</time>
      </trkpt>
      <trkpt lat="42.245689" lon="2.164619">
        <ele>779.5</ele>
        <time>2019-08-19T03:07:46Z</time>
      </trkpt>
      <trkpt lat="42.245744" lon="2.164593">
        <ele>779.9</ele>
        <time>2019-08-19T03:07:47Z</time>
      </trkpt>
      <trkpt lat="42.245803" lon="2.164565">
        <ele>780.3</ele>
        <time>2019-08-19T03:07:48Z</time>
      </trkpt>
      <trkpt lat="42.245877" lon="2.164533">
        <ele>780.9</ele>
        <time>2019-08-19T03:07:49Z</time>
      </trkpt>
      <trkpt lat="42.245956" lon="2.164504">
        <ele>781.4</ele>
        <time>2019-08-19T03:07:50Z</time>
      </trkpt>
      <trkpt lat="42.246028" lon="2.164479">
        <ele>781.9</ele>
        <time>2019-08-19T03:07:51Z</time>
      </trkpt>
      <trkpt lat="42.246093" lon="2.164465">
        <ele>782.3</ele>
        <time>2019-08-19T03:07:52Z</time>
      </trkpt>
      <trkpt lat="42.246138" lon="2.164456">
        <ele>782.6</ele>
        <time>2019-08-19T03:07:53Z</time>
      </trkpt>
      <trkpt lat="42.246175" lon="2.164449">
        <ele>782.9</ele>
        <time>2019-08-19T03:07:54Z</time>
      </trkpt>
      <trkpt lat="42.24621" lon="2.164442">
        <ele>783.1</ele>
        <time>2019-08-19T03:07:55Z</time>
      </trkpt>
      <trkpt lat="42.246248" lon="2.164428">
        <ele>783.4</ele>
        <time>2019-08-19T03:07:56Z</time>
      </trkpt>
      <trkpt lat="42.246281" lon="2.164412">
        <ele>783.6</ele>
        <time>2019-08-19T03:07:57Z</time>
      </trkpt>
      <trkpt lat="42.246308" lon="2.164399">
        <ele>783.8</ele>
        <time>2019-08-19T03:07:58Z</time>
      </trkpt>
      <trkpt lat="42.246346" lon="2.16438">
        <ele>784</ele>
        <time>2019-08-19T03:07:59Z</time>
      </trkpt>
      <trkpt lat="42.246392" lon="2.164357">
        <ele>784.3</ele>
        <time>2019-08-19T03:08:00Z</time>
      </trkpt>
      <trkpt lat="42.246441" lon="2.16434">
        <ele>784.7</ele>
        <time>2019-08-19T03:08:01Z</time>
      </trkpt>
      <trkpt lat="42.24649" lon="2.164331">
        <ele>785</ele>
        <time>2019-08-19T03:08:02Z</time>
      </trkpt>
      <trkpt lat="42.246547" lon="2.164318">
        <ele>785.3</ele>
        <time>2019-08-19T03:08:03Z</time>
      </trkpt>
      <trkpt lat="42.246601" lon="2.164309">
        <ele>785.7</ele>
        <time>2019-08-19T03:08:04Z</time>
      </trkpt>
      <trkpt lat="42.246656" lon="2.164299">
        <ele>786</ele>
        <time>2019-08-19T03:08:05Z</time>
      </trkpt>
      <trkpt lat="42.246699" lon="2.164292">
        <ele>786.3</ele>
        <time>2019-08-19T03:08:06Z</time>
      </trkpt>
      <trkpt lat="42.24674" lon="2.164278">
        <ele>786.5</ele>
        <time>2019-08-19T03:08:07Z</time>
      </trkpt>
      <trkpt lat="42.246769" lon="2.164255">
        <ele>786.7</ele>
        <time>2019-08-19T03:08:08Z</time>
      </trkpt>
      <trkpt lat="42.246798" lon="2.16422">
        <ele>787</ele>
        <time>2019-08-19T03:08:09Z</time>
      </trkpt>
      <trkpt lat="42.246829" lon="2.164194">
        <ele>787.2</ele>
        <time>2019-08-19T03:08:10Z</time>
      </trkpt>
      <trkpt lat="42.246859" lon="2.164167">
        <ele>787.4</ele>
        <time>2019-08-19T03:08:11Z</time>
      </trkpt>
      <trkpt lat="42.246891" lon="2.164144">
        <ele>787.6</ele>
        <time>2019-08-19T03:08:12Z</time>
      </trkpt>
      <trkpt lat="42.24693" lon="2.164117">
        <ele>787.9</ele>
        <time>2019-08-19T03:08:13Z</time>
      </trkpt>
      <trkpt lat="42.246973" lon="2.164091">
        <ele>788.2</ele>
        <time>2019-08-19T03:08:14Z</time>
      </trkpt>
      <trkpt lat="42.247015" lon="2.164068">
        <ele>788.4</ele>
        <time>2019-08-19T03:08:15Z</time>
      </trkpt>
      <trkpt lat="42.247056" lon="2.164056">
        <ele>788.7</ele>
        <time>2019-08-19T03:08:16Z</time>
      </trkpt>
      <trkpt lat="42.247106" lon="2.164046">
        <ele>788.9</ele>
        <time>2019-08-19T03:08:17Z</time>
      </trkpt>
      <trkpt lat="42.247148" lon="2.164044">
        <ele>789.2</ele>
        <time>2019-08-19T03:08:18Z</time>
      </trkpt>
      <trkpt lat="42.24719" lon="2.164028">
        <ele>789.4</ele>
        <time>2019-08-19T03:08:19Z</time>
      </trkpt>
      <trkpt lat="42.247237" lon="2.16401">
        <ele>789.7</ele>
        <time>2019-08-19T03:08:20Z</time>
      </trkpt>
      <trkpt lat="42.247283" lon="2.163995">
        <ele>789.9</ele>
        <time>2019-08-19T03:08:21Z</time>
      </trkpt>
      <trkpt lat="42.247326" lon="2.163971">
        <ele>790.2</ele>
        <time>2019-08-19T03:08:22Z</time>
      </trkpt>
      <trkpt lat="42.247373" lon="2.163946">
        <ele>790.5</ele>
        <time>2019-08-19T03:08:23Z</time>
      </trkpt>
      <trkpt lat="42.247421" lon="2.163931">
        <ele>790.7</ele>
        <time>2019-08-19T03:08:24Z</time>
      </trkpt>
      <trkpt lat="42.247465" lon="2.163918">
        <ele>791</ele>
        <time>2019-08-19T03:08:25Z</time>
      </trkpt>
      <trkpt lat="42.247511" lon="2.163912">
        <ele>791.2</ele>
        <time>2019-08-19T03:08:26Z</time>
      </trkpt>
      <trkpt lat="42.24756" lon="2.16391">
        <ele>791.5</ele>
        <time>2019-08-19T03:08:27Z</time>
      </trkpt>
      <trkpt lat="42.247607" lon="2.163905">
        <ele>791.7</ele>
        <time>2019-08-19T03:08:28Z</time>
      </trkpt>
      <trkpt lat="42.247651" lon="2.163946">
        <ele>792</ele>
        <time>2019-08-19T03:08:29Z</time>
      </trkpt>
      <trkpt lat="42.247691" lon="2.163989">
        <ele>792.2</ele>
        <time>2019-08-19T03:08:30Z</time>
      </trkpt>
      <trkpt lat="42.247724" lon="2.164032">
        <ele>792.5</ele>
        <time>2019-08-19T03:08:31Z</time>
      </trkpt>
      <trkpt lat="42.24775" lon="2.164075">
        <ele>792.7</ele>
        <time>2019-08-19T03:08:32Z</time>
      </trkpt>
      <trkpt lat="42.247773" lon="2.164106">
        <ele>792.8</ele>
        <time>2019-08-19T03:08:33Z</time>
      </trkpt>
      <trkpt lat="42.247805" lon="2.164151">
        <ele>793.1</ele>
        <time>2019-08-19T03:08:35Z</time>
      </trkpt>
      <trkpt lat="42.247842" lon="2.164193">
        <ele>793.3</ele>
        <time>2019-08-19T03:08:37Z</time>
      </trkpt>
      <trkpt lat="42.247872" lon="2.16421">
        <ele>793.4</ele>
        <time>2019-08-19T03:08:38Z</time>
      </trkpt>
      <trkpt lat="42.247906" lon="2.164231">
        <ele>793.6</ele>
        <time>2019-08-19T03:08:39Z</time>
      </trkpt>
      <trkpt lat="42.247949" lon="2.164237">
        <ele>793.8</ele>
        <time>2019-08-19T03:08:40Z</time>
      </trkpt>
      <trkpt lat="42.247999" lon="2.164227">
        <ele>794</ele>
        <time>2019-08-19T03:08:41Z</time>
      </trkpt>
      <trkpt lat="42.248048" lon="2.164235">
        <ele>794.3</ele>
        <time>2019-08-19T03:08:42Z</time>
      </trkpt>
      <trkpt lat="42.248088" lon="2.164251">
        <ele>794.5</ele>
        <time>2019-08-19T03:08:43Z</time>
      </trkpt>
      <trkpt lat="42.248118" lon="2.164279">
        <ele>794.6</ele>
        <time>2019-08-19T03:08:44Z</time>
      </trkpt>
      <trkpt lat="42.248154" lon="2.164292">
        <ele>794.8</ele>
        <time>2019-08-19T03:08:45Z</time>
      </trkpt>
      <trkpt lat="42.24819" lon="2.164299">
        <ele>795</ele>
        <time>2019-08-19T03:08:46Z</time>
      </trkpt>
      <trkpt lat="42.24823" lon="2.164303">
        <ele>795.1</ele>
        <time>2019-08-19T03:08:47Z</time>
      </trkpt>
      <trkpt lat="42.248278" lon="2.164313">
        <ele>795.4</ele>
        <time>2019-08-19T03:08:48Z</time>
      </trkpt>
      <trkpt lat="42.248332" lon="2.164322">
        <ele>795.6</ele>
        <time>2019-08-19T03:08:49Z</time>
      </trkpt>
      <trkpt lat="42.24838" lon="2.16434">
        <ele>795.9</ele>
        <time>2019-08-19T03:08:50Z</time>
      </trkpt>
      <trkpt lat="42.248429" lon="2.164348">
        <ele>796.3</ele>
        <time>2019-08-19T03:08:51Z</time>
      </trkpt>
      <trkpt lat="42.248476" lon="2.164363">
        <ele>796.4</ele>
        <time>2019-08-19T03:08:52Z</time>
      </trkpt>
      <trkpt lat="42.248526" lon="2.164377">
        <ele>796.5</ele>
        <time>2019-08-19T03:08:53Z</time>
      </trkpt>
      <trkpt lat="42.248578" lon="2.164395">
        <ele>796.7</ele>
        <time>2019-08-19T03:08:54Z</time>
      </trkpt>
      <trkpt lat="42.248636" lon="2.164414">
        <ele>796.8</ele>
        <time>2019-08-19T03:08:55Z</time>
      </trkpt>
      <trkpt lat="42.248695" lon="2.164426">
        <ele>797</ele>
        <time>2019-08-19T03:08:56Z</time>
      </trkpt>
      <trkpt lat="42.248746" lon="2.164436">
        <ele>797.2</ele>
        <time>2019-08-19T03:08:57Z</time>
      </trkpt>
      <trkpt lat="42.248789" lon="2.164444">
        <ele>797.3</ele>
        <time>2019-08-19T03:08:58Z</time>
      </trkpt>
      <trkpt lat="42.24882" lon="2.164451">
        <ele>797.4</ele>
        <time>2019-08-19T03:08:59Z</time>
      </trkpt>
      <trkpt lat="42.248872" lon="2.164468">
        <ele>797.5</ele>
        <time>2019-08-19T03:09:01Z</time>
      </trkpt>
      <trkpt lat="42.248902" lon="2.164485">
        <ele>797.6</ele>
        <time>2019-08-19T03:09:02Z</time>
      </trkpt>
      <trkpt lat="42.248932" lon="2.164507">
        <ele>797.7</ele>
        <time>2019-08-19T03:09:03Z</time>
      </trkpt>
      <trkpt lat="42.248974" lon="2.164525">
        <ele>797.8</ele>
        <time>2019-08-19T03:09:04Z</time>
      </trkpt>
      <trkpt lat="42.249013" lon="2.164544">
        <ele>797.8</ele>
        <time>2019-08-19T03:09:05Z</time>
      </trkpt>
      <trkpt lat="42.249046" lon="2.164561">
        <ele>797.9</ele>
        <time>2019-08-19T03:09:06Z</time>
      </trkpt>
      <trkpt lat="42.249078" lon="2.164586">
        <ele>798</ele>
        <time>2019-08-19T03:09:07Z</time>
      </trkpt>
      <trkpt lat="42.249121" lon="2.164638">
        <ele>798.2</ele>
        <time>2019-08-19T03:09:09Z</time>
      </trkpt>
      <trkpt lat="42.249148" lon="2.164674">
        <ele>798.2</ele>
        <time>2019-08-19T03:09:10Z</time>
      </trkpt>
      <trkpt lat="42.249179" lon="2.164714">
        <ele>798.4</ele>
        <time>2019-08-19T03:09:11Z</time>
      </trkpt>
      <trkpt lat="42.249204" lon="2.164752">
        <ele>798.4</ele>
        <time>2019-08-19T03:09:12Z</time>
      </trkpt>
      <trkpt lat="42.249229" lon="2.164796">
        <ele>798.6</ele>
        <time>2019-08-19T03:09:13Z</time>
      </trkpt>
      <trkpt lat="42.249253" lon="2.164841">
        <ele>798.7</ele>
        <time>2019-08-19T03:09:14Z</time>
      </trkpt>
      <trkpt lat="42.249279" lon="2.164889">
        <ele>798.8</ele>
        <time>2019-08-19T03:09:15Z</time>
      </trkpt>
      <trkpt lat="42.249304" lon="2.164937">
        <ele>798.9</ele>
        <time>2019-08-19T03:09:16Z</time>
      </trkpt>
      <trkpt lat="42.24933" lon="2.164981">
        <ele>799.1</ele>
        <time>2019-08-19T03:09:17Z</time>
      </trkpt>
      <trkpt lat="42.249364" lon="2.165013">
        <ele>799.2</ele>
        <time>2019-08-19T03:09:18Z</time>
      </trkpt>
      <trkpt lat="42.24939" lon="2.165051">
        <ele>799.3</ele>
        <time>2019-08-19T03:09:19Z</time>
      </trkpt>
      <trkpt lat="42.249419" lon="2.165071">
        <ele>799.5</ele>
        <time>2019-08-19T03:09:20Z</time>
      </trkpt>
      <trkpt lat="42.249437" lon="2.165099">
        <ele>799.6</ele>
        <time>2019-08-19T03:09:21Z</time>
      </trkpt>
      <trkpt lat="42.249452" lon="2.165151">
        <ele>799.7</ele>
        <time>2019-08-19T03:09:22Z</time>
      </trkpt>
      <trkpt lat="42.249476" lon="2.165212">
        <ele>799.9</ele>
        <time>2019-08-19T03:09:23Z</time>
      </trkpt>
      <trkpt lat="42.249503" lon="2.165273">
        <ele>801.1</ele>
        <time>2019-08-19T03:09:24Z</time>
      </trkpt>
      <trkpt lat="42.249541" lon="2.165343">
        <ele>802.2</ele>
        <time>2019-08-19T03:09:25Z</time>
      </trkpt>
      <trkpt lat="42.24958" lon="2.165417">
        <ele>803.4</ele>
        <time>2019-08-19T03:09:26Z</time>
      </trkpt>
      <trkpt lat="42.249623" lon="2.165494">
        <ele>804.7</ele>
        <time>2019-08-19T03:09:27Z</time>
      </trkpt>
      <trkpt lat="42.249671" lon="2.165554">
        <ele>805.8</ele>
        <time>2019-08-19T03:09:28Z</time>
      </trkpt>
      <trkpt lat="42.249721" lon="2.165603">
        <ele>806.8</ele>
        <time>2019-08-19T03:09:29Z</time>
      </trkpt>
      <trkpt lat="42.249773" lon="2.16564">
        <ele>807.8</ele>
        <time>2019-08-19T03:09:30Z</time>
      </trkpt>
      <trkpt lat="42.249818" lon="2.165672">
        <ele>808.6</ele>
        <time>2019-08-19T03:09:31Z</time>
      </trkpt>
      <trkpt lat="42.249861" lon="2.165706">
        <ele>809.5</ele>
        <time>2019-08-19T03:09:32Z</time>
      </trkpt>
      <trkpt lat="42.249897" lon="2.165739">
        <ele>810.2</ele>
        <time>2019-08-19T03:09:33Z</time>
      </trkpt>
      <trkpt lat="42.249985" lon="2.16575">
        <ele>811.6</ele>
        <time>2019-08-19T03:09:34Z</time>
      </trkpt>
      <trkpt lat="42.250034" lon="2.165772">
        <ele>812.4</ele>
        <time>2019-08-19T03:09:35Z</time>
      </trkpt>
      <trkpt lat="42.250078" lon="2.165837">
        <ele>813.4</ele>
        <time>2019-08-19T03:09:36Z</time>
      </trkpt>
      <trkpt lat="42.250128" lon="2.165873">
        <ele>814.2</ele>
        <time>2019-08-19T03:09:37Z</time>
      </trkpt>
      <trkpt lat="42.250178" lon="2.165894">
        <ele>815</ele>
        <time>2019-08-19T03:09:38Z</time>
      </trkpt>
      <trkpt lat="42.250259" lon="2.165883">
        <ele>816.2</ele>
        <time>2019-08-19T03:09:39Z</time>
      </trkpt>
      <trkpt lat="42.250321" lon="2.165868">
        <ele>817</ele>
        <time>2019-08-19T03:09:40Z</time>
      </trkpt>
      <trkpt lat="42.250366" lon="2.165861">
        <ele>817.7</ele>
        <time>2019-08-19T03:09:41Z</time>
      </trkpt>
      <trkpt lat="42.250445" lon="2.165862">
        <ele>818.7</ele>
        <time>2019-08-19T03:09:42Z</time>
      </trkpt>
      <trkpt lat="42.250493" lon="2.165831">
        <ele>819.4</ele>
        <time>2019-08-19T03:09:43Z</time>
      </trkpt>
      <trkpt lat="42.250545" lon="2.165816">
        <ele>820.2</ele>
        <time>2019-08-19T03:09:44Z</time>
      </trkpt>
      <trkpt lat="42.250596" lon="2.165812">
        <ele>820.8</ele>
        <time>2019-08-19T03:09:45Z</time>
      </trkpt>
      <trkpt lat="42.250645" lon="2.165797">
        <ele>821.8</ele>
        <time>2019-08-19T03:09:46Z</time>
      </trkpt>
      <trkpt lat="42.250684" lon="2.165757">
        <ele>820.8</ele>
        <time>2019-08-19T03:09:47Z</time>
      </trkpt>
      <trkpt lat="42.250729" lon="2.165742">
        <ele>819.9</ele>
        <time>2019-08-19T03:09:48Z</time>
      </trkpt>
      <trkpt lat="42.250766" lon="2.165681">
        <ele>818.9</ele>
        <time>2019-08-19T03:09:49Z</time>
      </trkpt>
      <trkpt lat="42.250793" lon="2.165663">
        <ele>818.3</ele>
        <time>2019-08-19T03:09:50Z</time>
      </trkpt>
      <trkpt lat="42.25082" lon="2.165632">
        <ele>817.7</ele>
        <time>2019-08-19T03:09:52Z</time>
      </trkpt>
      <trkpt lat="42.250845" lon="2.165598">
        <ele>816.8</ele>
        <time>2019-08-19T03:09:53Z</time>
      </trkpt>
      <trkpt lat="42.250874" lon="2.165557">
        <ele>815.8</ele>
        <time>2019-08-19T03:09:54Z</time>
      </trkpt>
      <trkpt lat="42.2509" lon="2.165486">
        <ele>814.5</ele>
        <time>2019-08-19T03:09:55Z</time>
      </trkpt>
      <trkpt lat="42.250953" lon="2.165374">
        <ele>812.4</ele>
        <time>2019-08-19T03:09:56Z</time>
      </trkpt>
      <trkpt lat="42.250979" lon="2.165325">
        <ele>811.5</ele>
        <time>2019-08-19T03:09:57Z</time>
      </trkpt>
      <trkpt lat="42.251004" lon="2.165277">
        <ele>811.5</ele>
        <time>2019-08-19T03:09:58Z</time>
      </trkpt>
      <trkpt lat="42.251039" lon="2.165244">
        <ele>811.5</ele>
        <time>2019-08-19T03:09:59Z</time>
      </trkpt>
      <trkpt lat="42.251087" lon="2.165202">
        <ele>811.6</ele>
        <time>2019-08-19T03:10:00Z</time>
      </trkpt>
      <trkpt lat="42.251117" lon="2.165161">
        <ele>811.7</ele>
        <time>2019-08-19T03:10:01Z</time>
      </trkpt>
      <trkpt lat="42.251142" lon="2.165089">
        <ele>811.7</ele>
        <time>2019-08-19T03:10:02Z</time>
      </trkpt>
      <trkpt lat="42.251181" lon="2.165038">
        <ele>811.8</ele>
        <time>2019-08-19T03:10:03Z</time>
      </trkpt>
      <trkpt lat="42.251213" lon="2.164949">
        <ele>812</ele>
        <time>2019-08-19T03:10:04Z</time>
      </trkpt>
      <trkpt lat="42.251238" lon="2.164917">
        <ele>812</ele>
        <time>2019-08-19T03:10:07Z</time>
      </trkpt>
      <trkpt lat="42.251265" lon="2.16489">
        <ele>812.1</ele>
        <time>2019-08-19T03:10:09Z</time>
      </trkpt>
      <trkpt lat="42.251304" lon="2.164866">
        <ele>812.2</ele>
        <time>2019-08-19T03:10:11Z</time>
      </trkpt>
      <trkpt lat="42.251332" lon="2.164851">
        <ele>812.3</ele>
        <time>2019-08-19T03:10:12Z</time>
      </trkpt>
      <trkpt lat="42.251364" lon="2.164828">
        <ele>812.4</ele>
        <time>2019-08-19T03:10:13Z</time>
      </trkpt>
      <trkpt lat="42.251395" lon="2.164801">
        <ele>812.4</ele>
        <time>2019-08-19T03:10:14Z</time>
      </trkpt>
      <trkpt lat="42.25143" lon="2.164765">
        <ele>812.5</ele>
        <time>2019-08-19T03:10:15Z</time>
      </trkpt>
      <trkpt lat="42.251463" lon="2.164722">
        <ele>812.7</ele>
        <time>2019-08-19T03:10:16Z</time>
      </trkpt>
      <trkpt lat="42.251495" lon="2.16468">
        <ele>812.8</ele>
        <time>2019-08-19T03:10:17Z</time>
      </trkpt>
      <trkpt lat="42.251526" lon="2.164642">
        <ele>812.8</ele>
        <time>2019-08-19T03:10:18Z</time>
      </trkpt>
      <trkpt lat="42.251564" lon="2.164606">
        <ele>812.9</ele>
        <time>2019-08-19T03:10:19Z</time>
      </trkpt>
      <trkpt lat="42.251602" lon="2.164565">
        <ele>813</ele>
        <time>2019-08-19T03:10:20Z</time>
      </trkpt>
      <trkpt lat="42.25164" lon="2.164524">
        <ele>813.1</ele>
        <time>2019-08-19T03:10:21Z</time>
      </trkpt>
      <trkpt lat="42.25168" lon="2.164478">
        <ele>813.2</ele>
        <time>2019-08-19T03:10:22Z</time>
      </trkpt>
      <trkpt lat="42.251721" lon="2.164429">
        <ele>813.3</ele>
        <time>2019-08-19T03:10:23Z</time>
      </trkpt>
      <trkpt lat="42.251767" lon="2.164388">
        <ele>813.4</ele>
        <time>2019-08-19T03:10:24Z</time>
      </trkpt>
      <trkpt lat="42.251827" lon="2.164346">
        <ele>813.5</ele>
        <time>2019-08-19T03:10:25Z</time>
      </trkpt>
      <trkpt lat="42.252109" lon="2.164201">
        <ele>813.9</ele>
        <time>2019-08-19T03:10:27Z</time>
      </trkpt>
      <trkpt lat="42.252169" lon="2.164169">
        <ele>814</ele>
        <time>2019-08-19T03:10:28Z</time>
      </trkpt>
      <trkpt lat="42.252213" lon="2.164145">
        <ele>814.1</ele>
        <time>2019-08-19T03:10:29Z</time>
      </trkpt>
      <trkpt lat="42.252255" lon="2.164123">
        <ele>814.2</ele>
        <time>2019-08-19T03:10:30Z</time>
      </trkpt>
      <trkpt lat="42.252291" lon="2.164097">
        <ele>814.2</ele>
        <time>2019-08-19T03:10:31Z</time>
      </trkpt>
      <trkpt lat="42.252337" lon="2.164078">
        <ele>814.3</ele>
        <time>2019-08-19T03:10:32Z</time>
      </trkpt>
      <trkpt lat="42.252388" lon="2.164074">
        <ele>814.4</ele>
        <time>2019-08-19T03:10:33Z</time>
      </trkpt>
      <trkpt lat="42.252441" lon="2.164076">
        <ele>814.4</ele>
        <time>2019-08-19T03:10:34Z</time>
      </trkpt>
      <trkpt lat="42.252489" lon="2.164095">
        <ele>814.5</ele>
        <time>2019-08-19T03:10:35Z</time>
      </trkpt>
      <trkpt lat="42.252531" lon="2.164126">
        <ele>814.6</ele>
        <time>2019-08-19T03:10:36Z</time>
      </trkpt>
      <trkpt lat="42.252578" lon="2.164172">
        <ele>814.6</ele>
        <time>2019-08-19T03:10:37Z</time>
      </trkpt>
      <trkpt lat="42.252617" lon="2.164218">
        <ele>814.7</ele>
        <time>2019-08-19T03:10:38Z</time>
      </trkpt>
      <trkpt lat="42.252646" lon="2.164256">
        <ele>814.8</ele>
        <time>2019-08-19T03:10:39Z</time>
      </trkpt>
      <trkpt lat="42.252678" lon="2.164297">
        <ele>814.8</ele>
        <time>2019-08-19T03:10:40Z</time>
      </trkpt>
      <trkpt lat="42.252714" lon="2.164341">
        <ele>814.9</ele>
        <time>2019-08-19T03:10:41Z</time>
      </trkpt>
      <trkpt lat="42.252749" lon="2.164386">
        <ele>815</ele>
        <time>2019-08-19T03:10:42Z</time>
      </trkpt>
      <trkpt lat="42.252785" lon="2.16443">
        <ele>815</ele>
        <time>2019-08-19T03:10:43Z</time>
      </trkpt>
      <trkpt lat="42.252816" lon="2.164473">
        <ele>815.1</ele>
        <time>2019-08-19T03:10:44Z</time>
      </trkpt>
      <trkpt lat="42.252853" lon="2.164526">
        <ele>815.2</ele>
        <time>2019-08-19T03:10:45Z</time>
      </trkpt>
      <trkpt lat="42.252898" lon="2.164594">
        <ele>815.3</ele>
        <time>2019-08-19T03:10:46Z</time>
      </trkpt>
      <trkpt lat="42.252936" lon="2.164652">
        <ele>815.4</ele>
        <time>2019-08-19T03:10:47Z</time>
      </trkpt>
      <trkpt lat="42.252967" lon="2.164692">
        <ele>815.5</ele>
        <time>2019-08-19T03:10:48Z</time>
      </trkpt>
      <trkpt lat="42.252996" lon="2.16473">
        <ele>815.6</ele>
        <time>2019-08-19T03:10:49Z</time>
      </trkpt>
      <trkpt lat="42.253031" lon="2.164767">
        <ele>815.7</ele>
        <time>2019-08-19T03:10:50Z</time>
      </trkpt>
      <trkpt lat="42.253076" lon="2.16479">
        <ele>815.8</ele>
        <time>2019-08-19T03:10:51Z</time>
      </trkpt>
      <trkpt lat="42.253119" lon="2.164826">
        <ele>815.9</ele>
        <time>2019-08-19T03:10:52Z</time>
      </trkpt>
      <trkpt lat="42.253159" lon="2.164878">
        <ele>816</ele>
        <time>2019-08-19T03:10:53Z</time>
      </trkpt>
      <trkpt lat="42.253186" lon="2.164931">
        <ele>816.2</ele>
        <time>2019-08-19T03:10:54Z</time>
      </trkpt>
      <trkpt lat="42.25319" lon="2.16499">
        <ele>816.3</ele>
        <time>2019-08-19T03:10:55Z</time>
      </trkpt>
      <trkpt lat="42.253187" lon="2.165091">
        <ele>816.5</ele>
        <time>2019-08-19T03:10:56Z</time>
      </trkpt>
      <trkpt lat="42.253034" lon="2.165372">
        <ele>817.3</ele>
        <time>2019-08-19T03:10:58Z</time>
      </trkpt>
      <trkpt lat="42.253318" lon="2.165499">
        <ele>818.6</ele>
        <time>2019-08-19T03:11:00Z</time>
      </trkpt>
      <trkpt lat="42.253384" lon="2.165469">
        <ele>819</ele>
        <time>2019-08-19T03:11:01Z</time>
      </trkpt>
      <trkpt lat="42.253455" lon="2.165443">
        <ele>819.2</ele>
        <time>2019-08-19T03:11:02Z</time>
      </trkpt>
      <trkpt lat="42.25351" lon="2.165447">
        <ele>819.3</ele>
        <time>2019-08-19T03:11:03Z</time>
      </trkpt>
      <trkpt lat="42.253542" lon="2.165447">
        <ele>819.3</ele>
        <time>2019-08-19T03:11:04Z</time>
      </trkpt>
      <trkpt lat="42.253582" lon="2.165428">
        <ele>819.3</ele>
        <time>2019-08-19T03:11:06Z</time>
      </trkpt>
      <trkpt lat="42.253618" lon="2.165409">
        <ele>819.4</ele>
        <time>2019-08-19T03:11:07Z</time>
      </trkpt>
      <trkpt lat="42.253658" lon="2.165394">
        <ele>819.4</ele>
        <time>2019-08-19T03:11:08Z</time>
      </trkpt>
      <trkpt lat="42.253702" lon="2.165392">
        <ele>819.5</ele>
        <time>2019-08-19T03:11:09Z</time>
      </trkpt>
      <trkpt lat="42.253746" lon="2.165398">
        <ele>819.5</ele>
        <time>2019-08-19T03:11:10Z</time>
      </trkpt>
      <trkpt lat="42.253788" lon="2.165416">
        <ele>819.6</ele>
        <time>2019-08-19T03:11:11Z</time>
      </trkpt>
      <trkpt lat="42.253824" lon="2.165442">
        <ele>819.7</ele>
        <time>2019-08-19T03:11:12Z</time>
      </trkpt>
      <trkpt lat="42.253872" lon="2.165459">
        <ele>819.8</ele>
        <time>2019-08-19T03:11:13Z</time>
      </trkpt>
      <trkpt lat="42.25392" lon="2.165468">
        <ele>819.9</ele>
        <time>2019-08-19T03:11:14Z</time>
      </trkpt>
      <trkpt lat="42.253969" lon="2.165482">
        <ele>820</ele>
        <time>2019-08-19T03:11:15Z</time>
      </trkpt>
      <trkpt lat="42.254004" lon="2.165507">
        <ele>820</ele>
        <time>2019-08-19T03:11:16Z</time>
      </trkpt>
      <trkpt lat="42.25404" lon="2.16553">
        <ele>820.1</ele>
        <time>2019-08-19T03:11:17Z</time>
      </trkpt>
      <trkpt lat="42.254078" lon="2.165551">
        <ele>820.2</ele>
        <time>2019-08-19T03:11:18Z</time>
      </trkpt>
      <trkpt lat="42.25412" lon="2.165569">
        <ele>820.3</ele>
        <time>2019-08-19T03:11:19Z</time>
      </trkpt>
      <trkpt lat="42.254165" lon="2.165591">
        <ele>820.4</ele>
        <time>2019-08-19T03:11:20Z</time>
      </trkpt>
      <trkpt lat="42.254205" lon="2.165612">
        <ele>820.5</ele>
        <time>2019-08-19T03:11:21Z</time>
      </trkpt>
      <trkpt lat="42.254242" lon="2.165634">
        <ele>820.5</ele>
        <time>2019-08-19T03:11:22Z</time>
      </trkpt>
      <trkpt lat="42.254275" lon="2.165634">
        <ele>820.6</ele>
        <time>2019-08-19T03:11:23Z</time>
      </trkpt>
      <trkpt lat="42.25431" lon="2.165636">
        <ele>820.7</ele>
        <time>2019-08-19T03:11:24Z</time>
      </trkpt>
      <trkpt lat="42.254343" lon="2.165652">
        <ele>820.7</ele>
        <time>2019-08-19T03:11:25Z</time>
      </trkpt>
      <trkpt lat="42.254377" lon="2.165661">
        <ele>820.8</ele>
        <time>2019-08-19T03:11:26Z</time>
      </trkpt>
      <trkpt lat="42.254407" lon="2.165658">
        <ele>820.8</ele>
        <time>2019-08-19T03:11:27Z</time>
      </trkpt>
      <trkpt lat="42.254436" lon="2.165649">
        <ele>820.9</ele>
        <time>2019-08-19T03:11:28Z</time>
      </trkpt>
      <trkpt lat="42.254473" lon="2.165645">
        <ele>820.9</ele>
        <time>2019-08-19T03:11:29Z</time>
      </trkpt>
      <trkpt lat="42.254518" lon="2.165641">
        <ele>820.9</ele>
        <time>2019-08-19T03:11:30Z</time>
      </trkpt>
      <trkpt lat="42.254563" lon="2.165638">
        <ele>820.9</ele>
        <time>2019-08-19T03:11:31Z</time>
      </trkpt>
      <trkpt lat="42.254604" lon="2.165655">
        <ele>820.9</ele>
        <time>2019-08-19T03:11:32Z</time>
      </trkpt>
      <trkpt lat="42.254639" lon="2.165675">
        <ele>820.9</ele>
        <time>2019-08-19T03:11:33Z</time>
      </trkpt>
      <trkpt lat="42.25468" lon="2.165691">
        <ele>820.9</ele>
        <time>2019-08-19T03:11:34Z</time>
      </trkpt>
      <trkpt lat="42.254722" lon="2.165706">
        <ele>820.8</ele>
        <time>2019-08-19T03:11:35Z</time>
      </trkpt>
      <trkpt lat="42.25476" lon="2.165713">
        <ele>820.8</ele>
        <time>2019-08-19T03:11:36Z</time>
      </trkpt>
      <trkpt lat="42.254804" lon="2.165716">
        <ele>820.8</ele>
        <time>2019-08-19T03:11:37Z</time>
      </trkpt>
      <trkpt lat="42.254844" lon="2.165726">
        <ele>820.7</ele>
        <time>2019-08-19T03:11:38Z</time>
      </trkpt>
      <trkpt lat="42.254889" lon="2.165734">
        <ele>820.7</ele>
        <time>2019-08-19T03:11:39Z</time>
      </trkpt>
      <trkpt lat="42.254936" lon="2.165737">
        <ele>820.7</ele>
        <time>2019-08-19T03:11:40Z</time>
      </trkpt>
      <trkpt lat="42.254976" lon="2.16574">
        <ele>820.6</ele>
        <time>2019-08-19T03:11:41Z</time>
      </trkpt>
      <trkpt lat="42.255016" lon="2.165743">
        <ele>820.5</ele>
        <time>2019-08-19T03:11:42Z</time>
      </trkpt>
      <trkpt lat="42.255051" lon="2.165737">
        <ele>820.5</ele>
        <time>2019-08-19T03:11:43Z</time>
      </trkpt>
      <trkpt lat="42.255089" lon="2.165731">
        <ele>820.4</ele>
        <time>2019-08-19T03:11:44Z</time>
      </trkpt>
      <trkpt lat="42.255123" lon="2.1657">
        <ele>820.4</ele>
        <time>2019-08-19T03:11:45Z</time>
      </trkpt>
      <trkpt lat="42.255153" lon="2.165681">
        <ele>820.3</ele>
        <time>2019-08-19T03:11:46Z</time>
      </trkpt>
      <trkpt lat="42.255119" lon="2.165673">
        <ele>820.3</ele>
        <time>2019-08-19T03:11:48Z</time>
      </trkpt>
      <trkpt lat="42.255153" lon="2.165638">
        <ele>820.2</ele>
        <time>2019-08-19T03:11:49Z</time>
      </trkpt>
      <trkpt lat="42.255186" lon="2.165644">
        <ele>820.2</ele>
        <time>2019-08-19T03:11:50Z</time>
      </trkpt>
      <trkpt lat="42.255215" lon="2.165632">
        <ele>820.1</ele>
        <time>2019-08-19T03:11:51Z</time>
      </trkpt>
      <trkpt lat="42.255259" lon="2.165625">
        <ele>820</ele>
        <time>2019-08-19T03:11:52Z</time>
      </trkpt>
      <trkpt lat="42.255305" lon="2.165594">
        <ele>820</ele>
        <time>2019-08-19T03:11:53Z</time>
      </trkpt>
      <trkpt lat="42.255361" lon="2.165577">
        <ele>819.9</ele>
        <time>2019-08-19T03:11:55Z</time>
      </trkpt>
      <trkpt lat="42.255396" lon="2.165538">
        <ele>819.8</ele>
        <time>2019-08-19T03:11:56Z</time>
      </trkpt>
      <trkpt lat="42.255431" lon="2.165511">
        <ele>819.7</ele>
        <time>2019-08-19T03:11:57Z</time>
      </trkpt>
      <trkpt lat="42.255462" lon="2.165492">
        <ele>819.6</ele>
        <time>2019-08-19T03:11:58Z</time>
      </trkpt>
      <trkpt lat="42.2555" lon="2.165458">
        <ele>819.6</ele>
        <time>2019-08-19T03:12:03Z</time>
      </trkpt>
      <trkpt lat="42.25554" lon="2.165421">
        <ele>819.5</ele>
        <time>2019-08-19T03:12:05Z</time>
      </trkpt>
      <trkpt lat="42.25558" lon="2.165372">
        <ele>819.4</ele>
        <time>2019-08-19T03:12:07Z</time>
      </trkpt>
      <trkpt lat="42.255605" lon="2.165339">
        <ele>819.3</ele>
        <time>2019-08-19T03:12:08Z</time>
      </trkpt>
      <trkpt lat="42.255628" lon="2.165307">
        <ele>819.3</ele>
        <time>2019-08-19T03:12:09Z</time>
      </trkpt>
      <trkpt lat="42.255653" lon="2.165274">
        <ele>819.2</ele>
        <time>2019-08-19T03:12:10Z</time>
      </trkpt>
      <trkpt lat="42.255918" lon="2.164977">
        <ele>818.7</ele>
        <time>2019-08-19T03:12:12Z</time>
      </trkpt>
      <trkpt lat="42.255953" lon="2.164935">
        <ele>818.6</ele>
        <time>2019-08-19T03:12:13Z</time>
      </trkpt>
      <trkpt lat="42.255993" lon="2.164908">
        <ele>818.5</ele>
        <time>2019-08-19T03:12:14Z</time>
      </trkpt>
      <trkpt lat="42.256038" lon="2.164888">
        <ele>818.4</ele>
        <time>2019-08-19T03:12:15Z</time>
      </trkpt>
      <trkpt lat="42.256076" lon="2.164831">
        <ele>818.3</ele>
        <time>2019-08-19T03:12:16Z</time>
      </trkpt>
      <trkpt lat="42.256117" lon="2.164815">
        <ele>818.3</ele>
        <time>2019-08-19T03:12:17Z</time>
      </trkpt>
      <trkpt lat="42.256132" lon="2.164703">
        <ele>818.1</ele>
        <time>2019-08-19T03:12:18Z</time>
      </trkpt>
      <trkpt lat="42.256161" lon="2.164643">
        <ele>818</ele>
        <time>2019-08-19T03:12:19Z</time>
      </trkpt>
      <trkpt lat="42.256218" lon="2.16461">
        <ele>817.9</ele>
        <time>2019-08-19T03:12:20Z</time>
      </trkpt>
      <trkpt lat="42.256244" lon="2.164598">
        <ele>817.8</ele>
        <time>2019-08-19T03:12:21Z</time>
      </trkpt>
      <trkpt lat="42.256286" lon="2.164579">
        <ele>817.8</ele>
        <time>2019-08-19T03:12:22Z</time>
      </trkpt>
      <trkpt lat="42.256318" lon="2.164557">
        <ele>817.7</ele>
        <time>2019-08-19T03:12:23Z</time>
      </trkpt>
      <trkpt lat="42.256365" lon="2.164554">
        <ele>817.6</ele>
        <time>2019-08-19T03:12:25Z</time>
      </trkpt>
      <trkpt lat="42.256409" lon="2.164541">
        <ele>817.5</ele>
        <time>2019-08-19T03:12:26Z</time>
      </trkpt>
      <trkpt lat="42.256456" lon="2.164522">
        <ele>817.4</ele>
        <time>2019-08-19T03:12:27Z</time>
      </trkpt>
      <trkpt lat="42.256526" lon="2.164484">
        <ele>817.3</ele>
        <time>2019-08-19T03:12:28Z</time>
      </trkpt>
      <trkpt lat="42.256597" lon="2.164473">
        <ele>817.2</ele>
        <time>2019-08-19T03:12:29Z</time>
      </trkpt>
      <trkpt lat="42.256653" lon="2.164468">
        <ele>817.1</ele>
        <time>2019-08-19T03:12:30Z</time>
      </trkpt>
      <trkpt lat="42.256706" lon="2.164456">
        <ele>817</ele>
        <time>2019-08-19T03:12:31Z</time>
      </trkpt>
      <trkpt lat="42.256748" lon="2.164459">
        <ele>816.9</ele>
        <time>2019-08-19T03:12:32Z</time>
      </trkpt>
      <trkpt lat="42.25679" lon="2.164451">
        <ele>816.9</ele>
        <time>2019-08-19T03:12:33Z</time>
      </trkpt>
      <trkpt lat="42.256831" lon="2.164468">
        <ele>816.8</ele>
        <time>2019-08-19T03:12:34Z</time>
      </trkpt>
      <trkpt lat="42.256889" lon="2.16446">
        <ele>816.7</ele>
        <time>2019-08-19T03:12:35Z</time>
      </trkpt>
      <trkpt lat="42.256933" lon="2.16448">
        <ele>816.6</ele>
        <time>2019-08-19T03:12:36Z</time>
      </trkpt>
      <trkpt lat="42.256985" lon="2.164536">
        <ele>816.5</ele>
        <time>2019-08-19T03:12:37Z</time>
      </trkpt>
      <trkpt lat="42.25704" lon="2.164503">
        <ele>816.4</ele>
        <time>2019-08-19T03:12:38Z</time>
      </trkpt>
      <trkpt lat="42.257103" lon="2.164558">
        <ele>816.3</ele>
        <time>2019-08-19T03:12:39Z</time>
      </trkpt>
      <trkpt lat="42.257139" lon="2.164556">
        <ele>816.2</ele>
        <time>2019-08-19T03:12:41Z</time>
      </trkpt>
      <trkpt lat="42.257181" lon="2.164557">
        <ele>816.2</ele>
        <time>2019-08-19T03:12:43Z</time>
      </trkpt>
      <trkpt lat="42.257221" lon="2.164581">
        <ele>816.1</ele>
        <time>2019-08-19T03:12:45Z</time>
      </trkpt>
      <trkpt lat="42.257265" lon="2.164613">
        <ele>816</ele>
        <time>2019-08-19T03:12:47Z</time>
      </trkpt>
      <trkpt lat="42.257308" lon="2.164655">
        <ele>815.9</ele>
        <time>2019-08-19T03:12:49Z</time>
      </trkpt>
      <trkpt lat="42.257329" lon="2.16468">
        <ele>815.9</ele>
        <time>2019-08-19T03:12:50Z</time>
      </trkpt>
      <trkpt lat="42.257354" lon="2.164708">
        <ele>815.8</ele>
        <time>2019-08-19T03:12:52Z</time>
      </trkpt>
      <trkpt lat="42.257376" lon="2.164736">
        <ele>815.8</ele>
        <time>2019-08-19T03:12:53Z</time>
      </trkpt>
      <trkpt lat="42.2574" lon="2.164767">
        <ele>815.7</ele>
        <time>2019-08-19T03:12:54Z</time>
      </trkpt>
      <trkpt lat="42.257425" lon="2.164802">
        <ele>815.6</ele>
        <time>2019-08-19T03:12:55Z</time>
      </trkpt>
      <trkpt lat="42.257454" lon="2.16485">
        <ele>815.5</ele>
        <time>2019-08-19T03:12:56Z</time>
      </trkpt>
      <trkpt lat="42.257518" lon="2.164972">
        <ele>815.3</ele>
        <time>2019-08-19T03:12:57Z</time>
      </trkpt>
      <trkpt lat="42.257668" lon="2.165125">
        <ele>815</ele>
        <time>2019-08-19T03:12:58Z</time>
      </trkpt>
      <trkpt lat="42.257697" lon="2.16517">
        <ele>814.9</ele>
        <time>2019-08-19T03:12:59Z</time>
      </trkpt>
      <trkpt lat="42.257728" lon="2.165225">
        <ele>814.8</ele>
        <time>2019-08-19T03:13:00Z</time>
      </trkpt>
      <trkpt lat="42.257756" lon="2.165263">
        <ele>814.8</ele>
        <time>2019-08-19T03:13:01Z</time>
      </trkpt>
      <trkpt lat="42.257764" lon="2.165304">
        <ele>814.7</ele>
        <time>2019-08-19T03:13:02Z</time>
      </trkpt>
      <trkpt lat="42.257796" lon="2.165346">
        <ele>814.6</ele>
        <time>2019-08-19T03:13:03Z</time>
      </trkpt>
      <trkpt lat="42.257831" lon="2.165394">
        <ele>814.5</ele>
        <time>2019-08-19T03:13:04Z</time>
      </trkpt>
      <trkpt lat="42.257859" lon="2.165433">
        <ele>814.5</ele>
        <time>2019-08-19T03:13:05Z</time>
      </trkpt>
      <trkpt lat="42.25789" lon="2.165463">
        <ele>814.4</ele>
        <time>2019-08-19T03:13:06Z</time>
      </trkpt>
      <trkpt lat="42.25793" lon="2.165492">
        <ele>814.4</ele>
        <time>2019-08-19T03:13:07Z</time>
      </trkpt>
      <trkpt lat="42.257965" lon="2.165543">
        <ele>814.3</ele>
        <time>2019-08-19T03:13:08Z</time>
      </trkpt>
      <trkpt lat="42.257996" lon="2.16558">
        <ele>814.2</ele>
        <time>2019-08-19T03:13:09Z</time>
      </trkpt>
      <trkpt lat="42.258032" lon="2.165611">
        <ele>814.1</ele>
        <time>2019-08-19T03:13:10Z</time>
      </trkpt>
      <trkpt lat="42.258063" lon="2.16564">
        <ele>814</ele>
        <time>2019-08-19T03:13:12Z</time>
      </trkpt>
      <trkpt lat="42.258093" lon="2.165662">
        <ele>813.9</ele>
        <time>2019-08-19T03:13:15Z</time>
      </trkpt>
      <trkpt lat="42.258125" lon="2.165669">
        <ele>814.1</ele>
        <time>2019-08-19T03:13:17Z</time>
      </trkpt>
      <trkpt lat="42.258168" lon="2.165682">
        <ele>814.3</ele>
        <time>2019-08-19T03:13:19Z</time>
      </trkpt>
      <trkpt lat="42.258218" lon="2.165689">
        <ele>814.4</ele>
        <time>2019-08-19T03:13:21Z</time>
      </trkpt>
      <trkpt lat="42.258246" lon="2.16569">
        <ele>814.5</ele>
        <time>2019-08-19T03:13:22Z</time>
      </trkpt>
      <trkpt lat="42.25828" lon="2.165687">
        <ele>814.6</ele>
        <time>2019-08-19T03:13:23Z</time>
      </trkpt>
      <trkpt lat="42.258318" lon="2.165681">
        <ele>814.8</ele>
        <time>2019-08-19T03:13:24Z</time>
      </trkpt>
      <trkpt lat="42.258359" lon="2.165673">
        <ele>814.9</ele>
        <time>2019-08-19T03:13:25Z</time>
      </trkpt>
      <trkpt lat="42.258399" lon="2.165663">
        <ele>815.1</ele>
        <time>2019-08-19T03:13:26Z</time>
      </trkpt>
      <trkpt lat="42.258438" lon="2.165651">
        <ele>815.2</ele>
        <time>2019-08-19T03:13:27Z</time>
      </trkpt>
      <trkpt lat="42.258488" lon="2.165636">
        <ele>815.4</ele>
        <time>2019-08-19T03:13:28Z</time>
      </trkpt>
      <trkpt lat="42.258952" lon="2.165607">
        <ele>816.4</ele>
        <time>2019-08-19T03:13:30Z</time>
      </trkpt>
      <trkpt lat="42.259" lon="2.165583">
        <ele>816.5</ele>
        <time>2019-08-19T03:13:31Z</time>
      </trkpt>
      <trkpt lat="42.259045" lon="2.165574">
        <ele>816.5</ele>
        <time>2019-08-19T03:13:32Z</time>
      </trkpt>
      <trkpt lat="42.259107" lon="2.165581">
        <ele>816.6</ele>
        <time>2019-08-19T03:13:33Z</time>
      </trkpt>
      <trkpt lat="42.259161" lon="2.165591">
        <ele>816.6</ele>
        <time>2019-08-19T03:13:34Z</time>
      </trkpt>
      <trkpt lat="42.259211" lon="2.165569">
        <ele>816.6</ele>
        <time>2019-08-19T03:13:35Z</time>
      </trkpt>
      <trkpt lat="42.259278" lon="2.165543">
        <ele>816.6</ele>
        <time>2019-08-19T03:13:36Z</time>
      </trkpt>
      <trkpt lat="42.259331" lon="2.165538">
        <ele>816.7</ele>
        <time>2019-08-19T03:13:37Z</time>
      </trkpt>
      <trkpt lat="42.2594" lon="2.165511">
        <ele>816.7</ele>
        <time>2019-08-19T03:13:38Z</time>
      </trkpt>
      <trkpt lat="42.259475" lon="2.165501">
        <ele>816.7</ele>
        <time>2019-08-19T03:13:39Z</time>
      </trkpt>
      <trkpt lat="42.259517" lon="2.165457">
        <ele>816.8</ele>
        <time>2019-08-19T03:13:40Z</time>
      </trkpt>
      <trkpt lat="42.259573" lon="2.165478">
        <ele>816.8</ele>
        <time>2019-08-19T03:13:41Z</time>
      </trkpt>
      <trkpt lat="42.259617" lon="2.165452">
        <ele>816.9</ele>
        <time>2019-08-19T03:13:42Z</time>
      </trkpt>
      <trkpt lat="42.259654" lon="2.165416">
        <ele>816.9</ele>
        <time>2019-08-19T03:13:43Z</time>
      </trkpt>
      <trkpt lat="42.259723" lon="2.165378">
        <ele>817</ele>
        <time>2019-08-19T03:13:44Z</time>
      </trkpt>
      <trkpt lat="42.259755" lon="2.165347">
        <ele>817</ele>
        <time>2019-08-19T03:13:45Z</time>
      </trkpt>
      <trkpt lat="42.259799" lon="2.165321">
        <ele>817.1</ele>
        <time>2019-08-19T03:13:46Z</time>
      </trkpt>
      <trkpt lat="42.259842" lon="2.165314">
        <ele>817.1</ele>
        <time>2019-08-19T03:13:47Z</time>
      </trkpt>
      <trkpt lat="42.259902" lon="2.16533">
        <ele>817.2</ele>
        <time>2019-08-19T03:13:48Z</time>
      </trkpt>
      <trkpt lat="42.259944" lon="2.165308">
        <ele>817.2</ele>
        <time>2019-08-19T03:13:49Z</time>
      </trkpt>
      <trkpt lat="42.260016" lon="2.165235">
        <ele>817.3</ele>
        <time>2019-08-19T03:13:50Z</time>
      </trkpt>
      <trkpt lat="42.260059" lon="2.165153">
        <ele>817.3</ele>
        <time>2019-08-19T03:13:51Z</time>
      </trkpt>
      <trkpt lat="42.260099" lon="2.165125">
        <ele>817.3</ele>
        <time>2019-08-19T03:13:52Z</time>
      </trkpt>
      <trkpt lat="42.260146" lon="2.165072">
        <ele>817.4</ele>
        <time>2019-08-19T03:13:53Z</time>
      </trkpt>
      <trkpt lat="42.260162" lon="2.164995">
        <ele>817.4</ele>
        <time>2019-08-19T03:13:54Z</time>
      </trkpt>
      <trkpt lat="42.26021" lon="2.164906">
        <ele>817.4</ele>
        <time>2019-08-19T03:13:55Z</time>
      </trkpt>
      <trkpt lat="42.260275" lon="2.164916">
        <ele>817.5</ele>
        <time>2019-08-19T03:13:56Z</time>
      </trkpt>
      <trkpt lat="42.260366" lon="2.164946">
        <ele>817.5</ele>
        <time>2019-08-19T03:13:57Z</time>
      </trkpt>
      <trkpt lat="42.260459" lon="2.164888">
        <ele>817.6</ele>
        <time>2019-08-19T03:13:58Z</time>
      </trkpt>
      <trkpt lat="42.260524" lon="2.164869">
        <ele>817.6</ele>
        <time>2019-08-19T03:13:59Z</time>
      </trkpt>
      <trkpt lat="42.260566" lon="2.164888">
        <ele>817.6</ele>
        <time>2019-08-19T03:14:00Z</time>
      </trkpt>
      <trkpt lat="42.260598" lon="2.16488">
        <ele>817.6</ele>
        <time>2019-08-19T03:14:01Z</time>
      </trkpt>
      <trkpt lat="42.260634" lon="2.164862">
        <ele>817.6</ele>
        <time>2019-08-19T03:14:02Z</time>
      </trkpt>
      <trkpt lat="42.260671" lon="2.16485">
        <ele>817.6</ele>
        <time>2019-08-19T03:14:03Z</time>
      </trkpt>
      <trkpt lat="42.260711" lon="2.164848">
        <ele>817.6</ele>
        <time>2019-08-19T03:14:04Z</time>
      </trkpt>
      <trkpt lat="42.260754" lon="2.164813">
        <ele>817.6</ele>
        <time>2019-08-19T03:14:05Z</time>
      </trkpt>
      <trkpt lat="42.260812" lon="2.164797">
        <ele>817.6</ele>
        <time>2019-08-19T03:14:06Z</time>
      </trkpt>
      <trkpt lat="42.260855" lon="2.164783">
        <ele>817.6</ele>
        <time>2019-08-19T03:14:07Z</time>
      </trkpt>
      <trkpt lat="42.26089" lon="2.164744">
        <ele>817.7</ele>
        <time>2019-08-19T03:14:08Z</time>
      </trkpt>
      <trkpt lat="42.260927" lon="2.164733">
        <ele>817.7</ele>
        <time>2019-08-19T03:14:09Z</time>
      </trkpt>
      <trkpt lat="42.260965" lon="2.164722">
        <ele>817.7</ele>
        <time>2019-08-19T03:14:11Z</time>
      </trkpt>
      <trkpt lat="42.261011" lon="2.164709">
        <ele>817.7</ele>
        <time>2019-08-19T03:14:13Z</time>
      </trkpt>
      <trkpt lat="42.261058" lon="2.164686">
        <ele>817.7</ele>
        <time>2019-08-19T03:14:15Z</time>
      </trkpt>
      <trkpt lat="42.261084" lon="2.16466">
        <ele>817.7</ele>
        <time>2019-08-19T03:14:16Z</time>
      </trkpt>
      <trkpt lat="42.261115" lon="2.164626">
        <ele>817.8</ele>
        <time>2019-08-19T03:14:17Z</time>
      </trkpt>
      <trkpt lat="42.26115" lon="2.164589">
        <ele>817.8</ele>
        <time>2019-08-19T03:14:18Z</time>
      </trkpt>
      <trkpt lat="42.261184" lon="2.164547">
        <ele>817.8</ele>
        <time>2019-08-19T03:14:19Z</time>
      </trkpt>
      <trkpt lat="42.261219" lon="2.164507">
        <ele>817.8</ele>
        <time>2019-08-19T03:14:20Z</time>
      </trkpt>
      <trkpt lat="42.261253" lon="2.164466">
        <ele>817.9</ele>
        <time>2019-08-19T03:14:21Z</time>
      </trkpt>
      <trkpt lat="42.261292" lon="2.164429">
        <ele>817.9</ele>
        <time>2019-08-19T03:14:22Z</time>
      </trkpt>
      <trkpt lat="42.261329" lon="2.164382">
        <ele>817.9</ele>
        <time>2019-08-19T03:14:23Z</time>
      </trkpt>
      <trkpt lat="42.261364" lon="2.164324">
        <ele>818</ele>
        <time>2019-08-19T03:14:24Z</time>
      </trkpt>
      <trkpt lat="42.2614" lon="2.164261">
        <ele>818</ele>
        <time>2019-08-19T03:14:25Z</time>
      </trkpt>
      <trkpt lat="42.261589" lon="2.163859">
        <ele>818.2</ele>
        <time>2019-08-19T03:14:27Z</time>
      </trkpt>
      <trkpt lat="42.261627" lon="2.163827">
        <ele>818.2</ele>
        <time>2019-08-19T03:14:28Z</time>
      </trkpt>
      <trkpt lat="42.261654" lon="2.163763">
        <ele>818.2</ele>
        <time>2019-08-19T03:14:29Z</time>
      </trkpt>
      <trkpt lat="42.261682" lon="2.163754">
        <ele>818.3</ele>
        <time>2019-08-19T03:14:30Z</time>
      </trkpt>
      <trkpt lat="42.261689" lon="2.163694">
        <ele>818.3</ele>
        <time>2019-08-19T03:14:31Z</time>
      </trkpt>
      <trkpt lat="42.261707" lon="2.163593">
        <ele>818.4</ele>
        <time>2019-08-19T03:14:32Z</time>
      </trkpt>
      <trkpt lat="42.261756" lon="2.163535">
        <ele>818.4</ele>
        <time>2019-08-19T03:14:33Z</time>
      </trkpt>
      <trkpt lat="42.261757" lon="2.163373">
        <ele>818.6</ele>
        <time>2019-08-19T03:14:34Z</time>
      </trkpt>
      <trkpt lat="42.261789" lon="2.163339">
        <ele>818.6</ele>
        <time>2019-08-19T03:14:35Z</time>
      </trkpt>
      <trkpt lat="42.261813" lon="2.163276">
        <ele>818.7</ele>
        <time>2019-08-19T03:14:36Z</time>
      </trkpt>
      <trkpt lat="42.261852" lon="2.163232">
        <ele>818.8</ele>
        <time>2019-08-19T03:14:37Z</time>
      </trkpt>
      <trkpt lat="42.261899" lon="2.163156">
        <ele>818.9</ele>
        <time>2019-08-19T03:14:38Z</time>
      </trkpt>
      <trkpt lat="42.2619" lon="2.163094">
        <ele>819</ele>
        <time>2019-08-19T03:14:39Z</time>
      </trkpt>
      <trkpt lat="42.26193" lon="2.163051">
        <ele>819</ele>
        <time>2019-08-19T03:14:43Z</time>
      </trkpt>
      <trkpt lat="42.261959" lon="2.163009">
        <ele>819.1</ele>
        <time>2019-08-19T03:14:45Z</time>
      </trkpt>
      <trkpt lat="42.262002" lon="2.162968">
        <ele>819.1</ele>
        <time>2019-08-19T03:14:47Z</time>
      </trkpt>
      <trkpt lat="42.262027" lon="2.162946">
        <ele>819.2</ele>
        <time>2019-08-19T03:14:48Z</time>
      </trkpt>
      <trkpt lat="42.262053" lon="2.162925">
        <ele>819.2</ele>
        <time>2019-08-19T03:14:49Z</time>
      </trkpt>
      <trkpt lat="42.262077" lon="2.162905">
        <ele>819.2</ele>
        <time>2019-08-19T03:14:50Z</time>
      </trkpt>
      <trkpt lat="42.262101" lon="2.162888">
        <ele>819.3</ele>
        <time>2019-08-19T03:14:51Z</time>
      </trkpt>
      <trkpt lat="42.262126" lon="2.162874">
        <ele>819.3</ele>
        <time>2019-08-19T03:14:52Z</time>
      </trkpt>
      <trkpt lat="42.262154" lon="2.16286">
        <ele>819.3</ele>
        <time>2019-08-19T03:14:53Z</time>
      </trkpt>
      <trkpt lat="42.262184" lon="2.162842">
        <ele>819.4</ele>
        <time>2019-08-19T03:14:54Z</time>
      </trkpt>
      <trkpt lat="42.262215" lon="2.162824">
        <ele>819.4</ele>
        <time>2019-08-19T03:14:55Z</time>
      </trkpt>
      <trkpt lat="42.26225" lon="2.162801">
        <ele>819.4</ele>
        <time>2019-08-19T03:14:56Z</time>
      </trkpt>
      <trkpt lat="42.262285" lon="2.162778">
        <ele>819.4</ele>
        <time>2019-08-19T03:14:57Z</time>
      </trkpt>
      <trkpt lat="42.262322" lon="2.162756">
        <ele>819.5</ele>
        <time>2019-08-19T03:14:58Z</time>
      </trkpt>
      <trkpt lat="42.262358" lon="2.162741">
        <ele>819.5</ele>
        <time>2019-08-19T03:14:59Z</time>
      </trkpt>
      <trkpt lat="42.262395" lon="2.162725">
        <ele>819.5</ele>
        <time>2019-08-19T03:15:00Z</time>
      </trkpt>
      <trkpt lat="42.262433" lon="2.162708">
        <ele>819.5</ele>
        <time>2019-08-19T03:15:01Z</time>
      </trkpt>
      <trkpt lat="42.262472" lon="2.162692">
        <ele>819.6</ele>
        <time>2019-08-19T03:15:02Z</time>
      </trkpt>
      <trkpt lat="42.262516" lon="2.162676">
        <ele>819.6</ele>
        <time>2019-08-19T03:15:03Z</time>
      </trkpt>
      <trkpt lat="42.262563" lon="2.162659">
        <ele>819.6</ele>
        <time>2019-08-19T03:15:04Z</time>
      </trkpt>
      <trkpt lat="42.262613" lon="2.16264">
        <ele>819.7</ele>
        <time>2019-08-19T03:15:05Z</time>
      </trkpt>
      <trkpt lat="42.262673" lon="2.162626">
        <ele>819.7</ele>
        <time>2019-08-19T03:15:06Z</time>
      </trkpt>
      <trkpt lat="42.262954" lon="2.162557">
        <ele>819.9</ele>
        <time>2019-08-19T03:15:08Z</time>
      </trkpt>
      <trkpt lat="42.263005" lon="2.162567">
        <ele>819.9</ele>
        <time>2019-08-19T03:15:09Z</time>
      </trkpt>
      <trkpt lat="42.263051" lon="2.162585">
        <ele>819.9</ele>
        <time>2019-08-19T03:15:10Z</time>
      </trkpt>
      <trkpt lat="42.263109" lon="2.162605">
        <ele>820</ele>
        <time>2019-08-19T03:15:11Z</time>
      </trkpt>
      <trkpt lat="42.263167" lon="2.162625">
        <ele>820</ele>
        <time>2019-08-19T03:15:12Z</time>
      </trkpt>
      <trkpt lat="42.263202" lon="2.162642">
        <ele>820</ele>
        <time>2019-08-19T03:15:13Z</time>
      </trkpt>
      <trkpt lat="42.263245" lon="2.162669">
        <ele>820.1</ele>
        <time>2019-08-19T03:15:14Z</time>
      </trkpt>
      <trkpt lat="42.263294" lon="2.1627">
        <ele>820.1</ele>
        <time>2019-08-19T03:15:15Z</time>
      </trkpt>
      <trkpt lat="42.263351" lon="2.162733">
        <ele>820.1</ele>
        <time>2019-08-19T03:15:16Z</time>
      </trkpt>
      <trkpt lat="42.263414" lon="2.162761">
        <ele>820.1</ele>
        <time>2019-08-19T03:15:17Z</time>
      </trkpt>
      <trkpt lat="42.263466" lon="2.162786">
        <ele>820.2</ele>
        <time>2019-08-19T03:15:18Z</time>
      </trkpt>
      <trkpt lat="42.263517" lon="2.162819">
        <ele>820.2</ele>
        <time>2019-08-19T03:15:19Z</time>
      </trkpt>
      <trkpt lat="42.263557" lon="2.162843">
        <ele>820.2</ele>
        <time>2019-08-19T03:15:20Z</time>
      </trkpt>
      <trkpt lat="42.263603" lon="2.162879">
        <ele>820.2</ele>
        <time>2019-08-19T03:15:21Z</time>
      </trkpt>
      <trkpt lat="42.263654" lon="2.162913">
        <ele>820.2</ele>
        <time>2019-08-19T03:15:22Z</time>
      </trkpt>
      <trkpt lat="42.263714" lon="2.16294">
        <ele>820.2</ele>
        <time>2019-08-19T03:15:23Z</time>
      </trkpt>
      <trkpt lat="42.263774" lon="2.162951">
        <ele>820.4</ele>
        <time>2019-08-19T03:15:24Z</time>
      </trkpt>
      <trkpt lat="42.263834" lon="2.162952">
        <ele>820.5</ele>
        <time>2019-08-19T03:15:25Z</time>
      </trkpt>
      <trkpt lat="42.263895" lon="2.162964">
        <ele>820.7</ele>
        <time>2019-08-19T03:15:26Z</time>
      </trkpt>
      <trkpt lat="42.263962" lon="2.162989">
        <ele>821</ele>
        <time>2019-08-19T03:15:27Z</time>
      </trkpt>
      <trkpt lat="42.264007" lon="2.163018">
        <ele>821.1</ele>
        <time>2019-08-19T03:15:28Z</time>
      </trkpt>
      <trkpt lat="42.264057" lon="2.163051">
        <ele>821.3</ele>
        <time>2019-08-19T03:15:29Z</time>
      </trkpt>
      <trkpt lat="42.264113" lon="2.163076">
        <ele>821.4</ele>
        <time>2019-08-19T03:15:30Z</time>
      </trkpt>
      <trkpt lat="42.26417" lon="2.163109">
        <ele>821.6</ele>
        <time>2019-08-19T03:15:31Z</time>
      </trkpt>
      <trkpt lat="42.264229" lon="2.163073">
        <ele>821.7</ele>
        <time>2019-08-19T03:15:33Z</time>
      </trkpt>
      <trkpt lat="42.264237" lon="2.163034">
        <ele>821.8</ele>
        <time>2019-08-19T03:15:35Z</time>
      </trkpt>
      <trkpt lat="42.264288" lon="2.163049">
        <ele>822</ele>
        <time>2019-08-19T03:15:39Z</time>
      </trkpt>
      <trkpt lat="42.26433" lon="2.163072">
        <ele>822.1</ele>
        <time>2019-08-19T03:15:40Z</time>
      </trkpt>
      <trkpt lat="42.264388" lon="2.163138">
        <ele>822.3</ele>
        <time>2019-08-19T03:15:41Z</time>
      </trkpt>
      <trkpt lat="42.264493" lon="2.163267">
        <ele>822.7</ele>
        <time>2019-08-19T03:15:42Z</time>
      </trkpt>
      <trkpt lat="42.264523" lon="2.16329">
        <ele>822.9</ele>
        <time>2019-08-19T03:15:43Z</time>
      </trkpt>
      <trkpt lat="42.264548" lon="2.163314">
        <ele>823</ele>
        <time>2019-08-19T03:15:44Z</time>
      </trkpt>
      <trkpt lat="42.264589" lon="2.163319">
        <ele>823.1</ele>
        <time>2019-08-19T03:15:45Z</time>
      </trkpt>
      <trkpt lat="42.264648" lon="2.163352">
        <ele>823.3</ele>
        <time>2019-08-19T03:15:47Z</time>
      </trkpt>
      <trkpt lat="42.264692" lon="2.163357">
        <ele>823.5</ele>
        <time>2019-08-19T03:15:48Z</time>
      </trkpt>
      <trkpt lat="42.264758" lon="2.163318">
        <ele>823.7</ele>
        <time>2019-08-19T03:15:49Z</time>
      </trkpt>
      <trkpt lat="42.264784" lon="2.163296">
        <ele>823.8</ele>
        <time>2019-08-19T03:15:50Z</time>
      </trkpt>
      <trkpt lat="42.264822" lon="2.163307">
        <ele>823.9</ele>
        <time>2019-08-19T03:15:52Z</time>
      </trkpt>
      <trkpt lat="42.264863" lon="2.163295">
        <ele>824</ele>
        <time>2019-08-19T03:15:55Z</time>
      </trkpt>
      <trkpt lat="42.264896" lon="2.163276">
        <ele>824.1</ele>
        <time>2019-08-19T03:15:57Z</time>
      </trkpt>
      <trkpt lat="42.264932" lon="2.163256">
        <ele>824.2</ele>
        <time>2019-08-19T03:15:59Z</time>
      </trkpt>
      <trkpt lat="42.264976" lon="2.163231">
        <ele>824.3</ele>
        <time>2019-08-19T03:16:01Z</time>
      </trkpt>
      <trkpt lat="42.265" lon="2.163214">
        <ele>824.4</ele>
        <time>2019-08-19T03:16:02Z</time>
      </trkpt>
      <trkpt lat="42.265053" lon="2.163172">
        <ele>824.5</ele>
        <time>2019-08-19T03:16:04Z</time>
      </trkpt>
      <trkpt lat="42.265083" lon="2.163145">
        <ele>824.6</ele>
        <time>2019-08-19T03:16:05Z</time>
      </trkpt>
      <trkpt lat="42.265115" lon="2.163113">
        <ele>824.7</ele>
        <time>2019-08-19T03:16:06Z</time>
      </trkpt>
      <trkpt lat="42.26515" lon="2.163075">
        <ele>824.8</ele>
        <time>2019-08-19T03:16:07Z</time>
      </trkpt>
      <trkpt lat="42.265191" lon="2.163029">
        <ele>824.9</ele>
        <time>2019-08-19T03:16:08Z</time>
      </trkpt>
      <trkpt lat="42.265231" lon="2.162981">
        <ele>825</ele>
        <time>2019-08-19T03:16:09Z</time>
      </trkpt>
      <trkpt lat="42.265276" lon="2.162931">
        <ele>825.1</ele>
        <time>2019-08-19T03:16:10Z</time>
      </trkpt>
      <trkpt lat="42.265332" lon="2.162881">
        <ele>825.3</ele>
        <time>2019-08-19T03:16:11Z</time>
      </trkpt>
      <trkpt lat="42.265577" lon="2.162564">
        <ele>826</ele>
        <time>2019-08-19T03:16:13Z</time>
      </trkpt>
      <trkpt lat="42.265669" lon="2.162315">
        <ele>826.6</ele>
        <time>2019-08-19T03:16:14Z</time>
      </trkpt>
      <trkpt lat="42.265766" lon="2.162177">
        <ele>827.1</ele>
        <time>2019-08-19T03:16:15Z</time>
      </trkpt>
      <trkpt lat="42.265727" lon="2.162053">
        <ele>827.5</ele>
        <time>2019-08-19T03:16:16Z</time>
      </trkpt>
      <trkpt lat="42.26568" lon="2.161903">
        <ele>828</ele>
        <time>2019-08-19T03:16:17Z</time>
      </trkpt>
      <trkpt lat="42.265746" lon="2.161883">
        <ele>828.3</ele>
        <time>2019-08-19T03:16:19Z</time>
      </trkpt>
      <trkpt lat="42.265766" lon="2.161831">
        <ele>828.5</ele>
        <time>2019-08-19T03:16:20Z</time>
      </trkpt>
      <trkpt lat="42.265779" lon="2.161737">
        <ele>828.8</ele>
        <time>2019-08-19T03:16:21Z</time>
      </trkpt>
      <trkpt lat="42.265816" lon="2.16169">
        <ele>829</ele>
        <time>2019-08-19T03:16:22Z</time>
      </trkpt>
      <trkpt lat="42.265805" lon="2.161655">
        <ele>829.1</ele>
        <time>2019-08-19T03:16:23Z</time>
      </trkpt>
      <trkpt lat="42.265855" lon="2.161601">
        <ele>829.4</ele>
        <time>2019-08-19T03:16:24Z</time>
      </trkpt>
      <trkpt lat="42.265903" lon="2.161495">
        <ele>829.8</ele>
        <time>2019-08-19T03:16:25Z</time>
      </trkpt>
      <trkpt lat="42.265941" lon="2.161406">
        <ele>830.1</ele>
        <time>2019-08-19T03:16:26Z</time>
      </trkpt>
      <trkpt lat="42.26597" lon="2.161334">
        <ele>830.3</ele>
        <time>2019-08-19T03:16:27Z</time>
      </trkpt>
      <trkpt lat="42.266007" lon="2.161306">
        <ele>830.5</ele>
        <time>2019-08-19T03:16:29Z</time>
      </trkpt>
      <trkpt lat="42.266034" lon="2.161307">
        <ele>830.6</ele>
        <time>2019-08-19T03:16:30Z</time>
      </trkpt>
      <trkpt lat="42.266076" lon="2.161297">
        <ele>830.8</ele>
        <time>2019-08-19T03:16:32Z</time>
      </trkpt>
      <trkpt lat="42.26612" lon="2.161254">
        <ele>831</ele>
        <time>2019-08-19T03:16:34Z</time>
      </trkpt>
      <trkpt lat="42.26615" lon="2.161228">
        <ele>831.2</ele>
        <time>2019-08-19T03:16:35Z</time>
      </trkpt>
      <trkpt lat="42.266186" lon="2.161185">
        <ele>831.4</ele>
        <time>2019-08-19T03:16:36Z</time>
      </trkpt>
      <trkpt lat="42.266226" lon="2.161142">
        <ele>831.6</ele>
        <time>2019-08-19T03:16:37Z</time>
      </trkpt>
      <trkpt lat="42.266263" lon="2.161098">
        <ele>831.8</ele>
        <time>2019-08-19T03:16:38Z</time>
      </trkpt>
      <trkpt lat="42.266307" lon="2.161051">
        <ele>832.1</ele>
        <time>2019-08-19T03:16:39Z</time>
      </trkpt>
      <trkpt lat="42.266352" lon="2.161001">
        <ele>832.3</ele>
        <time>2019-08-19T03:16:40Z</time>
      </trkpt>
      <trkpt lat="42.266396" lon="2.160958">
        <ele>832.5</ele>
        <time>2019-08-19T03:16:41Z</time>
      </trkpt>
      <trkpt lat="42.266435" lon="2.160923">
        <ele>832.7</ele>
        <time>2019-08-19T03:16:42Z</time>
      </trkpt>
      <trkpt lat="42.266467" lon="2.160896">
        <ele>832.9</ele>
        <time>2019-08-19T03:16:43Z</time>
      </trkpt>
      <trkpt lat="42.266497" lon="2.16087">
        <ele>833.1</ele>
        <time>2019-08-19T03:16:44Z</time>
      </trkpt>
      <trkpt lat="42.26653" lon="2.160841">
        <ele>833.3</ele>
        <time>2019-08-19T03:16:45Z</time>
      </trkpt>
      <trkpt lat="42.266561" lon="2.160813">
        <ele>833.4</ele>
        <time>2019-08-19T03:16:46Z</time>
      </trkpt>
      <trkpt lat="42.266592" lon="2.160788">
        <ele>833.6</ele>
        <time>2019-08-19T03:16:47Z</time>
      </trkpt>
      <trkpt lat="42.266627" lon="2.160761">
        <ele>833.8</ele>
        <time>2019-08-19T03:16:48Z</time>
      </trkpt>
      <trkpt lat="42.266664" lon="2.160733">
        <ele>834</ele>
        <time>2019-08-19T03:16:49Z</time>
      </trkpt>
      <trkpt lat="42.266712" lon="2.1607">
        <ele>834.3</ele>
        <time>2019-08-19T03:16:50Z</time>
      </trkpt>
      <trkpt lat="42.266757" lon="2.160672">
        <ele>834.5</ele>
        <time>2019-08-19T03:16:51Z</time>
      </trkpt>
      <trkpt lat="42.266804" lon="2.160644">
        <ele>834.8</ele>
        <time>2019-08-19T03:16:52Z</time>
      </trkpt>
      <trkpt lat="42.266847" lon="2.160615">
        <ele>835</ele>
        <time>2019-08-19T03:16:53Z</time>
      </trkpt>
      <trkpt lat="42.266888" lon="2.160598">
        <ele>835.2</ele>
        <time>2019-08-19T03:16:54Z</time>
      </trkpt>
      <trkpt lat="42.266933" lon="2.160585">
        <ele>835.4</ele>
        <time>2019-08-19T03:16:55Z</time>
      </trkpt>
      <trkpt lat="42.26698" lon="2.160572">
        <ele>835.6</ele>
        <time>2019-08-19T03:16:56Z</time>
      </trkpt>
      <trkpt lat="42.267064" lon="2.160561">
        <ele>836</ele>
        <time>2019-08-19T03:16:57Z</time>
      </trkpt>
      <trkpt lat="42.267095" lon="2.160565">
        <ele>836.2</ele>
        <time>2019-08-19T03:16:58Z</time>
      </trkpt>
      <trkpt lat="42.267126" lon="2.160558">
        <ele>836.3</ele>
        <time>2019-08-19T03:16:59Z</time>
      </trkpt>
      <trkpt lat="42.267196" lon="2.160539">
        <ele>836.7</ele>
        <time>2019-08-19T03:17:01Z</time>
      </trkpt>
      <trkpt lat="42.267237" lon="2.160519">
        <ele>836.9</ele>
        <time>2019-08-19T03:17:02Z</time>
      </trkpt>
      <trkpt lat="42.267289" lon="2.160506">
        <ele>837.2</ele>
        <time>2019-08-19T03:17:03Z</time>
      </trkpt>
      <trkpt lat="42.267318" lon="2.160496">
        <ele>837.3</ele>
        <time>2019-08-19T03:17:05Z</time>
      </trkpt>
      <trkpt lat="42.267353" lon="2.160468">
        <ele>837.5</ele>
        <time>2019-08-19T03:17:07Z</time>
      </trkpt>
      <trkpt lat="42.267387" lon="2.160447">
        <ele>837.7</ele>
        <time>2019-08-19T03:17:08Z</time>
      </trkpt>
      <trkpt lat="42.267424" lon="2.160422">
        <ele>838</ele>
        <time>2019-08-19T03:17:09Z</time>
      </trkpt>
      <trkpt lat="42.267465" lon="2.160397">
        <ele>838.2</ele>
        <time>2019-08-19T03:17:10Z</time>
      </trkpt>
      <trkpt lat="42.267493" lon="2.160379">
        <ele>838.4</ele>
        <time>2019-08-19T03:17:11Z</time>
      </trkpt>
      <trkpt lat="42.267537" lon="2.160337">
        <ele>838.7</ele>
        <time>2019-08-19T03:17:12Z</time>
      </trkpt>
      <trkpt lat="42.267604" lon="2.160282">
        <ele>839.1</ele>
        <time>2019-08-19T03:17:13Z</time>
      </trkpt>
      <trkpt lat="42.267649" lon="2.160297">
        <ele>839.4</ele>
        <time>2019-08-19T03:17:14Z</time>
      </trkpt>
      <trkpt lat="42.267676" lon="2.160269">
        <ele>839.6</ele>
        <time>2019-08-19T03:17:15Z</time>
      </trkpt>
      <trkpt lat="42.267739" lon="2.160282">
        <ele>839.9</ele>
        <time>2019-08-19T03:17:16Z</time>
      </trkpt>
      <trkpt lat="42.26775" lon="2.160219">
        <ele>840.2</ele>
        <time>2019-08-19T03:17:17Z</time>
      </trkpt>
      <trkpt lat="42.267816" lon="2.160263">
        <ele>840.6</ele>
        <time>2019-08-19T03:17:18Z</time>
      </trkpt>
      <trkpt lat="42.267878" lon="2.160265">
        <ele>841</ele>
        <time>2019-08-19T03:17:19Z</time>
      </trkpt>
      <trkpt lat="42.267894" lon="2.160199">
        <ele>841.2</ele>
        <time>2019-08-19T03:17:20Z</time>
      </trkpt>
      <trkpt lat="42.26794" lon="2.160179">
        <ele>841.5</ele>
        <time>2019-08-19T03:17:21Z</time>
      </trkpt>
      <trkpt lat="42.267965" lon="2.160165">
        <ele>841.6</ele>
        <time>2019-08-19T03:17:22Z</time>
      </trkpt>
      <trkpt lat="42.267977" lon="2.160094">
        <ele>841.9</ele>
        <time>2019-08-19T03:17:23Z</time>
      </trkpt>
      <trkpt lat="42.268014" lon="2.160082">
        <ele>842.1</ele>
        <time>2019-08-19T03:17:25Z</time>
      </trkpt>
      <trkpt lat="42.268046" lon="2.16007">
        <ele>842.3</ele>
        <time>2019-08-19T03:17:27Z</time>
      </trkpt>
      <trkpt lat="42.268083" lon="2.160051">
        <ele>842.6</ele>
        <time>2019-08-19T03:17:29Z</time>
      </trkpt>
      <trkpt lat="42.268119" lon="2.160033">
        <ele>842.8</ele>
        <time>2019-08-19T03:17:31Z</time>
      </trkpt>
      <trkpt lat="42.268152" lon="2.160013">
        <ele>843</ele>
        <time>2019-08-19T03:17:33Z</time>
      </trkpt>
      <trkpt lat="42.268188" lon="2.159993">
        <ele>843.3</ele>
        <time>2019-08-19T03:17:35Z</time>
      </trkpt>
      <trkpt lat="42.268239" lon="2.159967">
        <ele>843.7</ele>
        <time>2019-08-19T03:17:37Z</time>
      </trkpt>
      <trkpt lat="42.268267" lon="2.159951">
        <ele>843.9</ele>
        <time>2019-08-19T03:17:38Z</time>
      </trkpt>
      <trkpt lat="42.268294" lon="2.159932">
        <ele>844.2</ele>
        <time>2019-08-19T03:17:39Z</time>
      </trkpt>
      <trkpt lat="42.268323" lon="2.159912">
        <ele>844.5</ele>
        <time>2019-08-19T03:17:40Z</time>
      </trkpt>
      <trkpt lat="42.268356" lon="2.159888">
        <ele>844.9</ele>
        <time>2019-08-19T03:17:41Z</time>
      </trkpt>
      <trkpt lat="42.268388" lon="2.159864">
        <ele>845.3</ele>
        <time>2019-08-19T03:17:42Z</time>
      </trkpt>
      <trkpt lat="42.268421" lon="2.159839">
        <ele>845.8</ele>
        <time>2019-08-19T03:17:43Z</time>
      </trkpt>
      <trkpt lat="42.268458" lon="2.159812">
        <ele>846.3</ele>
        <time>2019-08-19T03:17:44Z</time>
      </trkpt>
      <trkpt lat="42.268501" lon="2.159782">
        <ele>846.8</ele>
        <time>2019-08-19T03:17:45Z</time>
      </trkpt>
      <trkpt lat="42.268549" lon="2.159756">
        <ele>847.5</ele>
        <time>2019-08-19T03:17:46Z</time>
      </trkpt>
      <trkpt lat="42.268594" lon="2.159731">
        <ele>848.1</ele>
        <time>2019-08-19T03:17:47Z</time>
      </trkpt>
      <trkpt lat="42.268643" lon="2.159708">
        <ele>848.8</ele>
        <time>2019-08-19T03:17:48Z</time>
      </trkpt>
      <trkpt lat="42.268695" lon="2.159684">
        <ele>849.4</ele>
        <time>2019-08-19T03:17:49Z</time>
      </trkpt>
      <trkpt lat="42.268743" lon="2.159658">
        <ele>850</ele>
        <time>2019-08-19T03:17:50Z</time>
      </trkpt>
      <trkpt lat="42.268792" lon="2.159633">
        <ele>850.5</ele>
        <time>2019-08-19T03:17:51Z</time>
      </trkpt>
      <trkpt lat="42.268835" lon="2.15961">
        <ele>851</ele>
        <time>2019-08-19T03:17:52Z</time>
      </trkpt>
      <trkpt lat="42.268876" lon="2.15959">
        <ele>851.4</ele>
        <time>2019-08-19T03:17:53Z</time>
      </trkpt>
      <trkpt lat="42.268924" lon="2.159573">
        <ele>851.8</ele>
        <time>2019-08-19T03:17:54Z</time>
      </trkpt>
      <trkpt lat="42.268975" lon="2.159558">
        <ele>852.1</ele>
        <time>2019-08-19T03:17:55Z</time>
      </trkpt>
      <trkpt lat="42.269017" lon="2.159541">
        <ele>852.5</ele>
        <time>2019-08-19T03:17:56Z</time>
      </trkpt>
      <trkpt lat="42.269066" lon="2.159524">
        <ele>853.2</ele>
        <time>2019-08-19T03:17:57Z</time>
      </trkpt>
      <trkpt lat="42.269111" lon="2.159507">
        <ele>853.7</ele>
        <time>2019-08-19T03:17:58Z</time>
      </trkpt>
      <trkpt lat="42.269158" lon="2.159493">
        <ele>854.1</ele>
        <time>2019-08-19T03:17:59Z</time>
      </trkpt>
      <trkpt lat="42.269211" lon="2.159479">
        <ele>854.7</ele>
        <time>2019-08-19T03:18:00Z</time>
      </trkpt>
      <trkpt lat="42.269259" lon="2.159466">
        <ele>855.1</ele>
        <time>2019-08-19T03:18:01Z</time>
      </trkpt>
      <trkpt lat="42.269311" lon="2.159454">
        <ele>855.6</ele>
        <time>2019-08-19T03:18:02Z</time>
      </trkpt>
      <trkpt lat="42.269363" lon="2.159435">
        <ele>856.1</ele>
        <time>2019-08-19T03:18:03Z</time>
      </trkpt>
      <trkpt lat="42.269415" lon="2.159418">
        <ele>856.6</ele>
        <time>2019-08-19T03:18:04Z</time>
      </trkpt>
      <trkpt lat="42.269477" lon="2.159404">
        <ele>858.2</ele>
        <time>2019-08-19T03:18:05Z</time>
      </trkpt>
      <trkpt lat="42.269543" lon="2.159392">
        <ele>859.4</ele>
        <time>2019-08-19T03:18:06Z</time>
      </trkpt>
      <trkpt lat="42.269599" lon="2.159384">
        <ele>860.3</ele>
        <time>2019-08-19T03:18:07Z</time>
      </trkpt>
      <trkpt lat="42.269652" lon="2.159379">
        <ele>861.2</ele>
        <time>2019-08-19T03:18:08Z</time>
      </trkpt>
      <trkpt lat="42.269714" lon="2.15937">
        <ele>862.4</ele>
        <time>2019-08-19T03:18:09Z</time>
      </trkpt>
      <trkpt lat="42.269773" lon="2.159357">
        <ele>863.6</ele>
        <time>2019-08-19T03:18:10Z</time>
      </trkpt>
      <trkpt lat="42.269819" lon="2.159349">
        <ele>864.8</ele>
        <time>2019-08-19T03:18:11Z</time>
      </trkpt>
      <trkpt lat="42.269863" lon="2.159349">
        <ele>865.6</ele>
        <time>2019-08-19T03:18:12Z</time>
      </trkpt>
      <trkpt lat="42.269911" lon="2.159348">
        <ele>866.6</ele>
        <time>2019-08-19T03:18:13Z</time>
      </trkpt>
      <trkpt lat="42.269962" lon="2.159343">
        <ele>867.6</ele>
        <time>2019-08-19T03:18:14Z</time>
      </trkpt>
      <trkpt lat="42.270017" lon="2.159331">
        <ele>868.6</ele>
        <time>2019-08-19T03:18:15Z</time>
      </trkpt>
      <trkpt lat="42.270078" lon="2.159315">
        <ele>869.8</ele>
        <time>2019-08-19T03:18:16Z</time>
      </trkpt>
      <trkpt lat="42.270148" lon="2.159269">
        <ele>871.1</ele>
        <time>2019-08-19T03:18:17Z</time>
      </trkpt>
      <trkpt lat="42.270222" lon="2.159223">
        <ele>871.1</ele>
        <time>2019-08-19T03:18:18Z</time>
      </trkpt>
      <trkpt lat="42.270242" lon="2.159178">
        <ele>871</ele>
        <time>2019-08-19T03:18:19Z</time>
      </trkpt>
      <trkpt lat="42.270542" lon="2.159146">
        <ele>870.6</ele>
        <time>2019-08-19T03:18:24Z</time>
      </trkpt>
      <trkpt lat="42.270629" lon="2.159143">
        <ele>870.4</ele>
        <time>2019-08-19T03:18:25Z</time>
      </trkpt>
      <trkpt lat="42.27071" lon="2.159028">
        <ele>870</ele>
        <time>2019-08-19T03:18:26Z</time>
      </trkpt>
      <trkpt lat="42.270753" lon="2.159038">
        <ele>869.9</ele>
        <time>2019-08-19T03:18:27Z</time>
      </trkpt>
      <trkpt lat="42.270813" lon="2.159141">
        <ele>869.7</ele>
        <time>2019-08-19T03:18:28Z</time>
      </trkpt>
      <trkpt lat="42.270875" lon="2.15918">
        <ele>869.7</ele>
        <time>2019-08-19T03:18:29Z</time>
      </trkpt>
      <trkpt lat="42.270911" lon="2.159191">
        <ele>869.7</ele>
        <time>2019-08-19T03:18:30Z</time>
      </trkpt>
      <trkpt lat="42.270941" lon="2.159191">
        <ele>869.6</ele>
        <time>2019-08-19T03:18:31Z</time>
      </trkpt>
      <trkpt lat="42.270977" lon="2.159188">
        <ele>869.6</ele>
        <time>2019-08-19T03:18:32Z</time>
      </trkpt>
      <trkpt lat="42.271018" lon="2.159179">
        <ele>869.5</ele>
        <time>2019-08-19T03:18:33Z</time>
      </trkpt>
      <trkpt lat="42.271071" lon="2.159191">
        <ele>869.4</ele>
        <time>2019-08-19T03:18:34Z</time>
      </trkpt>
      <trkpt lat="42.271121" lon="2.159215">
        <ele>869.3</ele>
        <time>2019-08-19T03:18:35Z</time>
      </trkpt>
      <trkpt lat="42.27118" lon="2.15922">
        <ele>869.2</ele>
        <time>2019-08-19T03:18:37Z</time>
      </trkpt>
      <trkpt lat="42.271218" lon="2.159226">
        <ele>869.2</ele>
        <time>2019-08-19T03:18:38Z</time>
      </trkpt>
      <trkpt lat="42.271266" lon="2.159256">
        <ele>869.2</ele>
        <time>2019-08-19T03:18:39Z</time>
      </trkpt>
      <trkpt lat="42.271298" lon="2.159274">
        <ele>869.2</ele>
        <time>2019-08-19T03:18:41Z</time>
      </trkpt>
      <trkpt lat="42.27134" lon="2.159273">
        <ele>869.3</ele>
        <time>2019-08-19T03:18:44Z</time>
      </trkpt>
      <trkpt lat="42.271384" lon="2.159283">
        <ele>869.5</ele>
        <time>2019-08-19T03:18:46Z</time>
      </trkpt>
      <trkpt lat="42.271432" lon="2.159302">
        <ele>869.7</ele>
        <time>2019-08-19T03:18:48Z</time>
      </trkpt>
      <trkpt lat="42.271458" lon="2.159314">
        <ele>869.8</ele>
        <time>2019-08-19T03:18:49Z</time>
      </trkpt>
      <trkpt lat="42.271487" lon="2.159327">
        <ele>870</ele>
        <time>2019-08-19T03:18:50Z</time>
      </trkpt>
      <trkpt lat="42.271516" lon="2.15934">
        <ele>870.1</ele>
        <time>2019-08-19T03:18:51Z</time>
      </trkpt>
      <trkpt lat="42.27155" lon="2.159355">
        <ele>870.2</ele>
        <time>2019-08-19T03:18:52Z</time>
      </trkpt>
      <trkpt lat="42.271584" lon="2.159368">
        <ele>870.2</ele>
        <time>2019-08-19T03:18:53Z</time>
      </trkpt>
      <trkpt lat="42.27162" lon="2.15938">
        <ele>870.3</ele>
        <time>2019-08-19T03:18:54Z</time>
      </trkpt>
      <trkpt lat="42.271658" lon="2.15939">
        <ele>870.3</ele>
        <time>2019-08-19T03:18:55Z</time>
      </trkpt>
      <trkpt lat="42.271697" lon="2.159398">
        <ele>870.3</ele>
        <time>2019-08-19T03:18:56Z</time>
      </trkpt>
      <trkpt lat="42.271741" lon="2.159404">
        <ele>870.3</ele>
        <time>2019-08-19T03:18:57Z</time>
      </trkpt>
      <trkpt lat="42.271791" lon="2.159406">
        <ele>870.3</ele>
        <time>2019-08-19T03:18:58Z</time>
      </trkpt>
      <trkpt lat="42.271847" lon="2.159406">
        <ele>870.4</ele>
        <time>2019-08-19T03:18:59Z</time>
      </trkpt>
      <trkpt lat="42.27213" lon="2.159452">
        <ele>871</ele>
        <time>2019-08-19T03:19:01Z</time>
      </trkpt>
      <trkpt lat="42.272195" lon="2.159448">
        <ele>871</ele>
        <time>2019-08-19T03:19:02Z</time>
      </trkpt>
      <trkpt lat="42.272263" lon="2.159444">
        <ele>870.8</ele>
        <time>2019-08-19T03:19:03Z</time>
      </trkpt>
      <trkpt lat="42.272334" lon="2.159429">
        <ele>870.5</ele>
        <time>2019-08-19T03:19:04Z</time>
      </trkpt>
      <trkpt lat="42.272394" lon="2.15942">
        <ele>870.2</ele>
        <time>2019-08-19T03:19:05Z</time>
      </trkpt>
      <trkpt lat="42.272445" lon="2.159407">
        <ele>869.8</ele>
        <time>2019-08-19T03:19:06Z</time>
      </trkpt>
      <trkpt lat="42.272498" lon="2.159385">
        <ele>869.3</ele>
        <time>2019-08-19T03:19:07Z</time>
      </trkpt>
      <trkpt lat="42.272562" lon="2.159356">
        <ele>868.8</ele>
        <time>2019-08-19T03:19:08Z</time>
      </trkpt>
      <trkpt lat="42.272694" lon="2.159311">
        <ele>867.7</ele>
        <time>2019-08-19T03:19:09Z</time>
      </trkpt>
      <trkpt lat="42.272756" lon="2.159304">
        <ele>867.4</ele>
        <time>2019-08-19T03:19:10Z</time>
      </trkpt>
      <trkpt lat="42.27281" lon="2.159275">
        <ele>867.1</ele>
        <time>2019-08-19T03:19:11Z</time>
      </trkpt>
      <trkpt lat="42.272878" lon="2.159259">
        <ele>866.8</ele>
        <time>2019-08-19T03:19:12Z</time>
      </trkpt>
      <trkpt lat="42.272938" lon="2.159236">
        <ele>866.6</ele>
        <time>2019-08-19T03:19:13Z</time>
      </trkpt>
      <trkpt lat="42.272993" lon="2.159192">
        <ele>866.5</ele>
        <time>2019-08-19T03:19:14Z</time>
      </trkpt>
      <trkpt lat="42.27307" lon="2.159171">
        <ele>866.4</ele>
        <time>2019-08-19T03:19:15Z</time>
      </trkpt>
      <trkpt lat="42.273134" lon="2.159151">
        <ele>866.3</ele>
        <time>2019-08-19T03:19:16Z</time>
      </trkpt>
      <trkpt lat="42.273189" lon="2.159135">
        <ele>866.4</ele>
        <time>2019-08-19T03:19:17Z</time>
      </trkpt>
      <trkpt lat="42.273249" lon="2.159116">
        <ele>866.4</ele>
        <time>2019-08-19T03:19:18Z</time>
      </trkpt>
      <trkpt lat="42.273331" lon="2.159121">
        <ele>866.6</ele>
        <time>2019-08-19T03:19:19Z</time>
      </trkpt>
      <trkpt lat="42.27339" lon="2.159121">
        <ele>866.8</ele>
        <time>2019-08-19T03:19:20Z</time>
      </trkpt>
      <trkpt lat="42.273446" lon="2.159119">
        <ele>866.7</ele>
        <time>2019-08-19T03:19:21Z</time>
      </trkpt>
      <trkpt lat="42.273499" lon="2.159127">
        <ele>866.6</ele>
        <time>2019-08-19T03:19:22Z</time>
      </trkpt>
      <trkpt lat="42.273557" lon="2.159142">
        <ele>866.5</ele>
        <time>2019-08-19T03:19:23Z</time>
      </trkpt>
      <trkpt lat="42.273606" lon="2.159147">
        <ele>866.4</ele>
        <time>2019-08-19T03:19:24Z</time>
      </trkpt>
      <trkpt lat="42.273662" lon="2.159153">
        <ele>866.3</ele>
        <time>2019-08-19T03:19:25Z</time>
      </trkpt>
      <trkpt lat="42.273726" lon="2.159164">
        <ele>866.1</ele>
        <time>2019-08-19T03:19:26Z</time>
      </trkpt>
      <trkpt lat="42.273775" lon="2.159182">
        <ele>866</ele>
        <time>2019-08-19T03:19:27Z</time>
      </trkpt>
      <trkpt lat="42.273833" lon="2.159197">
        <ele>865.8</ele>
        <time>2019-08-19T03:19:28Z</time>
      </trkpt>
      <trkpt lat="42.273887" lon="2.15922">
        <ele>865.6</ele>
        <time>2019-08-19T03:19:29Z</time>
      </trkpt>
      <trkpt lat="42.273926" lon="2.159239">
        <ele>865.5</ele>
        <time>2019-08-19T03:19:30Z</time>
      </trkpt>
      <trkpt lat="42.273964" lon="2.159262">
        <ele>865.3</ele>
        <time>2019-08-19T03:19:31Z</time>
      </trkpt>
      <trkpt lat="42.274005" lon="2.15929">
        <ele>865.2</ele>
        <time>2019-08-19T03:19:32Z</time>
      </trkpt>
      <trkpt lat="42.274043" lon="2.159318">
        <ele>865</ele>
        <time>2019-08-19T03:19:33Z</time>
      </trkpt>
      <trkpt lat="42.274087" lon="2.159342">
        <ele>864.8</ele>
        <time>2019-08-19T03:19:34Z</time>
      </trkpt>
      <trkpt lat="42.274128" lon="2.159363">
        <ele>864.6</ele>
        <time>2019-08-19T03:19:35Z</time>
      </trkpt>
      <trkpt lat="42.274163" lon="2.159391">
        <ele>864.5</ele>
        <time>2019-08-19T03:19:37Z</time>
      </trkpt>
      <trkpt lat="42.274192" lon="2.159411">
        <ele>864.3</ele>
        <time>2019-08-19T03:19:39Z</time>
      </trkpt>
      <trkpt lat="42.27423" lon="2.159446">
        <ele>864.1</ele>
        <time>2019-08-19T03:19:41Z</time>
      </trkpt>
      <trkpt lat="42.274276" lon="2.15949">
        <ele>863.9</ele>
        <time>2019-08-19T03:19:43Z</time>
      </trkpt>
      <trkpt lat="42.274302" lon="2.159517">
        <ele>863.8</ele>
        <time>2019-08-19T03:19:44Z</time>
      </trkpt>
      <trkpt lat="42.274332" lon="2.159546">
        <ele>863.6</ele>
        <time>2019-08-19T03:19:45Z</time>
      </trkpt>
      <trkpt lat="42.274369" lon="2.15958">
        <ele>863.4</ele>
        <time>2019-08-19T03:19:46Z</time>
      </trkpt>
      <trkpt lat="42.274411" lon="2.159612">
        <ele>863.2</ele>
        <time>2019-08-19T03:19:47Z</time>
      </trkpt>
      <trkpt lat="42.274445" lon="2.159637">
        <ele>863</ele>
        <time>2019-08-19T03:19:48Z</time>
      </trkpt>
      <trkpt lat="42.274477" lon="2.159659">
        <ele>862.8</ele>
        <time>2019-08-19T03:19:49Z</time>
      </trkpt>
      <trkpt lat="42.27451" lon="2.159681">
        <ele>862.7</ele>
        <time>2019-08-19T03:19:50Z</time>
      </trkpt>
      <trkpt lat="42.274551" lon="2.159708">
        <ele>862.4</ele>
        <time>2019-08-19T03:19:51Z</time>
      </trkpt>
      <trkpt lat="42.274593" lon="2.159731">
        <ele>862.3</ele>
        <time>2019-08-19T03:19:52Z</time>
      </trkpt>
      <trkpt lat="42.274641" lon="2.159758">
        <ele>862.1</ele>
        <time>2019-08-19T03:19:53Z</time>
      </trkpt>
      <trkpt lat="42.274693" lon="2.159786">
        <ele>861.9</ele>
        <time>2019-08-19T03:19:54Z</time>
      </trkpt>
      <trkpt lat="42.274744" lon="2.159814">
        <ele>861.7</ele>
        <time>2019-08-19T03:19:55Z</time>
      </trkpt>
      <trkpt lat="42.274794" lon="2.159839">
        <ele>861.6</ele>
        <time>2019-08-19T03:19:56Z</time>
      </trkpt>
      <trkpt lat="42.274881" lon="2.15987">
        <ele>861.4</ele>
        <time>2019-08-19T03:19:57Z</time>
      </trkpt>
      <trkpt lat="42.274975" lon="2.159889">
        <ele>861.2</ele>
        <time>2019-08-19T03:19:58Z</time>
      </trkpt>
      <trkpt lat="42.275055" lon="2.15989">
        <ele>861.1</ele>
        <time>2019-08-19T03:19:59Z</time>
      </trkpt>
      <trkpt lat="42.275141" lon="2.159886">
        <ele>861</ele>
        <time>2019-08-19T03:20:00Z</time>
      </trkpt>
      <trkpt lat="42.275219" lon="2.159892">
        <ele>860.9</ele>
        <time>2019-08-19T03:20:01Z</time>
      </trkpt>
      <trkpt lat="42.275288" lon="2.159905">
        <ele>860.8</ele>
        <time>2019-08-19T03:20:02Z</time>
      </trkpt>
      <trkpt lat="42.275326" lon="2.159927">
        <ele>860.7</ele>
        <time>2019-08-19T03:20:04Z</time>
      </trkpt>
      <trkpt lat="42.275376" lon="2.159946">
        <ele>860.6</ele>
        <time>2019-08-19T03:20:05Z</time>
      </trkpt>
      <trkpt lat="42.275428" lon="2.159953">
        <ele>860.5</ele>
        <time>2019-08-19T03:20:06Z</time>
      </trkpt>
      <trkpt lat="42.275478" lon="2.159963">
        <ele>860.3</ele>
        <time>2019-08-19T03:20:07Z</time>
      </trkpt>
      <trkpt lat="42.275528" lon="2.159974">
        <ele>860</ele>
        <time>2019-08-19T03:20:08Z</time>
      </trkpt>
      <trkpt lat="42.27558" lon="2.159983">
        <ele>859.8</ele>
        <time>2019-08-19T03:20:09Z</time>
      </trkpt>
      <trkpt lat="42.275628" lon="2.159989">
        <ele>859.6</ele>
        <time>2019-08-19T03:20:10Z</time>
      </trkpt>
      <trkpt lat="42.275677" lon="2.15999">
        <ele>859.3</ele>
        <time>2019-08-19T03:20:11Z</time>
      </trkpt>
      <trkpt lat="42.275728" lon="2.159985">
        <ele>859.1</ele>
        <time>2019-08-19T03:20:12Z</time>
      </trkpt>
      <trkpt lat="42.275771" lon="2.159979">
        <ele>858.9</ele>
        <time>2019-08-19T03:20:13Z</time>
      </trkpt>
      <trkpt lat="42.27581" lon="2.159973">
        <ele>858.7</ele>
        <time>2019-08-19T03:20:14Z</time>
      </trkpt>
      <trkpt lat="42.275851" lon="2.159962">
        <ele>858.5</ele>
        <time>2019-08-19T03:20:15Z</time>
      </trkpt>
      <trkpt lat="42.275896" lon="2.159945">
        <ele>858.2</ele>
        <time>2019-08-19T03:20:16Z</time>
      </trkpt>
      <trkpt lat="42.27594" lon="2.159933">
        <ele>857.8</ele>
        <time>2019-08-19T03:20:17Z</time>
      </trkpt>
      <trkpt lat="42.275985" lon="2.159927">
        <ele>857.5</ele>
        <time>2019-08-19T03:20:18Z</time>
      </trkpt>
      <trkpt lat="42.276029" lon="2.159914">
        <ele>857.1</ele>
        <time>2019-08-19T03:20:19Z</time>
      </trkpt>
      <trkpt lat="42.276069" lon="2.159904">
        <ele>856.8</ele>
        <time>2019-08-19T03:20:20Z</time>
      </trkpt>
      <trkpt lat="42.276105" lon="2.159896">
        <ele>856.5</ele>
        <time>2019-08-19T03:20:21Z</time>
      </trkpt>
      <trkpt lat="42.276139" lon="2.159888">
        <ele>856.2</ele>
        <time>2019-08-19T03:20:22Z</time>
      </trkpt>
      <trkpt lat="42.276172" lon="2.159876">
        <ele>855.9</ele>
        <time>2019-08-19T03:20:23Z</time>
      </trkpt>
      <trkpt lat="42.276206" lon="2.159865">
        <ele>855.6</ele>
        <time>2019-08-19T03:20:24Z</time>
      </trkpt>
      <trkpt lat="42.276243" lon="2.159858">
        <ele>855.3</ele>
        <time>2019-08-19T03:20:25Z</time>
      </trkpt>
      <trkpt lat="42.27628" lon="2.15985">
        <ele>855.1</ele>
        <time>2019-08-19T03:20:26Z</time>
      </trkpt>
      <trkpt lat="42.276323" lon="2.159838">
        <ele>855.4</ele>
        <time>2019-08-19T03:20:27Z</time>
      </trkpt>
      <trkpt lat="42.276365" lon="2.159829">
        <ele>855.7</ele>
        <time>2019-08-19T03:20:28Z</time>
      </trkpt>
      <trkpt lat="42.276412" lon="2.159816">
        <ele>856</ele>
        <time>2019-08-19T03:20:29Z</time>
      </trkpt>
      <trkpt lat="42.276457" lon="2.159799">
        <ele>856.3</ele>
        <time>2019-08-19T03:20:30Z</time>
      </trkpt>
      <trkpt lat="42.276497" lon="2.159783">
        <ele>856.5</ele>
        <time>2019-08-19T03:20:31Z</time>
      </trkpt>
      <trkpt lat="42.276533" lon="2.15976">
        <ele>856.8</ele>
        <time>2019-08-19T03:20:32Z</time>
      </trkpt>
      <trkpt lat="42.276571" lon="2.159751">
        <ele>857</ele>
        <time>2019-08-19T03:20:33Z</time>
      </trkpt>
      <trkpt lat="42.276608" lon="2.159756">
        <ele>857.2</ele>
        <time>2019-08-19T03:20:34Z</time>
      </trkpt>
      <trkpt lat="42.276645" lon="2.159758">
        <ele>857.4</ele>
        <time>2019-08-19T03:20:35Z</time>
      </trkpt>
      <trkpt lat="42.276685" lon="2.159752">
        <ele>857.7</ele>
        <time>2019-08-19T03:20:36Z</time>
      </trkpt>
      <trkpt lat="42.276722" lon="2.159742">
        <ele>857.9</ele>
        <time>2019-08-19T03:20:37Z</time>
      </trkpt>
      <trkpt lat="42.276756" lon="2.159726">
        <ele>858.1</ele>
        <time>2019-08-19T03:20:38Z</time>
      </trkpt>
      <trkpt lat="42.27679" lon="2.159705">
        <ele>858.3</ele>
        <time>2019-08-19T03:20:39Z</time>
      </trkpt>
      <trkpt lat="42.276825" lon="2.159688">
        <ele>858.5</ele>
        <time>2019-08-19T03:20:40Z</time>
      </trkpt>
      <trkpt lat="42.276861" lon="2.159673">
        <ele>858.7</ele>
        <time>2019-08-19T03:20:41Z</time>
      </trkpt>
      <trkpt lat="42.276897" lon="2.159661">
        <ele>858.9</ele>
        <time>2019-08-19T03:20:42Z</time>
      </trkpt>
      <trkpt lat="42.276935" lon="2.159654">
        <ele>859.1</ele>
        <time>2019-08-19T03:20:43Z</time>
      </trkpt>
      <trkpt lat="42.276974" lon="2.159643">
        <ele>859.2</ele>
        <time>2019-08-19T03:20:44Z</time>
      </trkpt>
      <trkpt lat="42.277011" lon="2.159636">
        <ele>859.4</ele>
        <time>2019-08-19T03:20:45Z</time>
      </trkpt>
      <trkpt lat="42.277065" lon="2.159618">
        <ele>859.6</ele>
        <time>2019-08-19T03:20:47Z</time>
      </trkpt>
      <trkpt lat="42.2771" lon="2.1596">
        <ele>859.8</ele>
        <time>2019-08-19T03:20:48Z</time>
      </trkpt>
      <trkpt lat="42.277133" lon="2.159587">
        <ele>859.9</ele>
        <time>2019-08-19T03:20:49Z</time>
      </trkpt>
      <trkpt lat="42.277166" lon="2.159572">
        <ele>860.1</ele>
        <time>2019-08-19T03:20:50Z</time>
      </trkpt>
      <trkpt lat="42.277198" lon="2.159567">
        <ele>860.2</ele>
        <time>2019-08-19T03:20:51Z</time>
      </trkpt>
      <trkpt lat="42.277236" lon="2.159559">
        <ele>860.3</ele>
        <time>2019-08-19T03:20:52Z</time>
      </trkpt>
      <trkpt lat="42.277269" lon="2.159549">
        <ele>860.5</ele>
        <time>2019-08-19T03:20:53Z</time>
      </trkpt>
      <trkpt lat="42.277304" lon="2.159542">
        <ele>860.6</ele>
        <time>2019-08-19T03:20:54Z</time>
      </trkpt>
      <trkpt lat="42.277337" lon="2.159537">
        <ele>860.7</ele>
        <time>2019-08-19T03:20:55Z</time>
      </trkpt>
      <trkpt lat="42.277373" lon="2.159534">
        <ele>860.8</ele>
        <time>2019-08-19T03:20:56Z</time>
      </trkpt>
      <trkpt lat="42.277409" lon="2.15953">
        <ele>860.9</ele>
        <time>2019-08-19T03:20:57Z</time>
      </trkpt>
      <trkpt lat="42.277444" lon="2.159528">
        <ele>861</ele>
        <time>2019-08-19T03:20:58Z</time>
      </trkpt>
      <trkpt lat="42.277478" lon="2.159525">
        <ele>861.1</ele>
        <time>2019-08-19T03:20:59Z</time>
      </trkpt>
      <trkpt lat="42.277513" lon="2.159526">
        <ele>861.1</ele>
        <time>2019-08-19T03:21:00Z</time>
      </trkpt>
      <trkpt lat="42.27755" lon="2.15953">
        <ele>861.2</ele>
        <time>2019-08-19T03:21:01Z</time>
      </trkpt>
      <trkpt lat="42.27759" lon="2.159534">
        <ele>861.3</ele>
        <time>2019-08-19T03:21:02Z</time>
      </trkpt>
      <trkpt lat="42.27763" lon="2.159538">
        <ele>861.4</ele>
        <time>2019-08-19T03:21:03Z</time>
      </trkpt>
      <trkpt lat="42.277666" lon="2.159545">
        <ele>861.4</ele>
        <time>2019-08-19T03:21:04Z</time>
      </trkpt>
      <trkpt lat="42.277707" lon="2.15955">
        <ele>861.5</ele>
        <time>2019-08-19T03:21:05Z</time>
      </trkpt>
      <trkpt lat="42.277761" lon="2.159552">
        <ele>861.5</ele>
        <time>2019-08-19T03:21:06Z</time>
      </trkpt>
      <trkpt lat="42.277822" lon="2.159552">
        <ele>861.6</ele>
        <time>2019-08-19T03:21:07Z</time>
      </trkpt>
      <trkpt lat="42.277878" lon="2.159552">
        <ele>861.7</ele>
        <time>2019-08-19T03:21:08Z</time>
      </trkpt>
      <trkpt lat="42.277932" lon="2.159555">
        <ele>861.8</ele>
        <time>2019-08-19T03:21:09Z</time>
      </trkpt>
      <trkpt lat="42.277981" lon="2.15956">
        <ele>861.8</ele>
        <time>2019-08-19T03:21:10Z</time>
      </trkpt>
      <trkpt lat="42.278026" lon="2.159568">
        <ele>861.9</ele>
        <time>2019-08-19T03:21:11Z</time>
      </trkpt>
      <trkpt lat="42.27807" lon="2.159573">
        <ele>861.9</ele>
        <time>2019-08-19T03:21:12Z</time>
      </trkpt>
      <trkpt lat="42.278114" lon="2.15958">
        <ele>862</ele>
        <time>2019-08-19T03:21:13Z</time>
      </trkpt>
      <trkpt lat="42.27816" lon="2.159586">
        <ele>862</ele>
        <time>2019-08-19T03:21:14Z</time>
      </trkpt>
      <trkpt lat="42.278197" lon="2.159595">
        <ele>862.1</ele>
        <time>2019-08-19T03:21:15Z</time>
      </trkpt>
      <trkpt lat="42.278235" lon="2.159602">
        <ele>862.2</ele>
        <time>2019-08-19T03:21:16Z</time>
      </trkpt>
      <trkpt lat="42.278273" lon="2.15961">
        <ele>862.2</ele>
        <time>2019-08-19T03:21:17Z</time>
      </trkpt>
      <trkpt lat="42.27831" lon="2.159618">
        <ele>862.3</ele>
        <time>2019-08-19T03:21:18Z</time>
      </trkpt>
      <trkpt lat="42.278349" lon="2.159623">
        <ele>862.4</ele>
        <time>2019-08-19T03:21:19Z</time>
      </trkpt>
      <trkpt lat="42.278395" lon="2.15963">
        <ele>862.5</ele>
        <time>2019-08-19T03:21:20Z</time>
      </trkpt>
      <trkpt lat="42.278436" lon="2.159636">
        <ele>862.6</ele>
        <time>2019-08-19T03:21:21Z</time>
      </trkpt>
      <trkpt lat="42.278473" lon="2.159643">
        <ele>862.7</ele>
        <time>2019-08-19T03:21:22Z</time>
      </trkpt>
      <trkpt lat="42.278516" lon="2.159645">
        <ele>862.8</ele>
        <time>2019-08-19T03:21:23Z</time>
      </trkpt>
      <trkpt lat="42.278559" lon="2.159646">
        <ele>862.9</ele>
        <time>2019-08-19T03:21:24Z</time>
      </trkpt>
      <trkpt lat="42.278603" lon="2.159644">
        <ele>863.1</ele>
        <time>2019-08-19T03:21:25Z</time>
      </trkpt>
      <trkpt lat="42.278639" lon="2.159644">
        <ele>863.2</ele>
        <time>2019-08-19T03:21:26Z</time>
      </trkpt>
      <trkpt lat="42.27867" lon="2.159649">
        <ele>863.3</ele>
        <time>2019-08-19T03:21:27Z</time>
      </trkpt>
      <trkpt lat="42.278701" lon="2.159656">
        <ele>863.4</ele>
        <time>2019-08-19T03:21:28Z</time>
      </trkpt>
      <trkpt lat="42.278735" lon="2.15966">
        <ele>863.6</ele>
        <time>2019-08-19T03:21:29Z</time>
      </trkpt>
      <trkpt lat="42.278771" lon="2.159668">
        <ele>863.8</ele>
        <time>2019-08-19T03:21:30Z</time>
      </trkpt>
      <trkpt lat="42.278808" lon="2.159678">
        <ele>863.9</ele>
        <time>2019-08-19T03:21:31Z</time>
      </trkpt>
      <trkpt lat="42.278848" lon="2.159688">
        <ele>864.1</ele>
        <time>2019-08-19T03:21:32Z</time>
      </trkpt>
      <trkpt lat="42.278914" lon="2.159702">
        <ele>864.5</ele>
        <time>2019-08-19T03:21:33Z</time>
      </trkpt>
      <trkpt lat="42.278997" lon="2.159706">
        <ele>865</ele>
        <time>2019-08-19T03:21:34Z</time>
      </trkpt>
      <trkpt lat="42.279068" lon="2.159724">
        <ele>865.4</ele>
        <time>2019-08-19T03:21:35Z</time>
      </trkpt>
      <trkpt lat="42.279122" lon="2.159754">
        <ele>865.8</ele>
        <time>2019-08-19T03:21:36Z</time>
      </trkpt>
      <trkpt lat="42.279161" lon="2.159772">
        <ele>866.1</ele>
        <time>2019-08-19T03:21:37Z</time>
      </trkpt>
      <trkpt lat="42.279199" lon="2.159793">
        <ele>866.3</ele>
        <time>2019-08-19T03:21:38Z</time>
      </trkpt>
      <trkpt lat="42.279237" lon="2.159804">
        <ele>866.5</ele>
        <time>2019-08-19T03:21:39Z</time>
      </trkpt>
      <trkpt lat="42.279286" lon="2.15981">
        <ele>866.8</ele>
        <time>2019-08-19T03:21:40Z</time>
      </trkpt>
      <trkpt lat="42.279334" lon="2.159815">
        <ele>867</ele>
        <time>2019-08-19T03:21:41Z</time>
      </trkpt>
      <trkpt lat="42.279386" lon="2.159816">
        <ele>867.3</ele>
        <time>2019-08-19T03:21:42Z</time>
      </trkpt>
      <trkpt lat="42.279434" lon="2.159821">
        <ele>867.5</ele>
        <time>2019-08-19T03:21:43Z</time>
      </trkpt>
      <trkpt lat="42.279475" lon="2.159823">
        <ele>867.6</ele>
        <time>2019-08-19T03:21:44Z</time>
      </trkpt>
      <trkpt lat="42.279515" lon="2.159828">
        <ele>867.8</ele>
        <time>2019-08-19T03:21:45Z</time>
      </trkpt>
      <trkpt lat="42.279553" lon="2.159835">
        <ele>867.9</ele>
        <time>2019-08-19T03:21:46Z</time>
      </trkpt>
      <trkpt lat="42.279589" lon="2.159838">
        <ele>868</ele>
        <time>2019-08-19T03:21:47Z</time>
      </trkpt>
      <trkpt lat="42.279622" lon="2.15984">
        <ele>868.1</ele>
        <time>2019-08-19T03:21:48Z</time>
      </trkpt>
      <trkpt lat="42.279653" lon="2.159838">
        <ele>868.2</ele>
        <time>2019-08-19T03:21:49Z</time>
      </trkpt>
      <trkpt lat="42.279684" lon="2.15983">
        <ele>868.2</ele>
        <time>2019-08-19T03:21:50Z</time>
      </trkpt>
      <trkpt lat="42.279714" lon="2.159821">
        <ele>868.3</ele>
        <time>2019-08-19T03:21:51Z</time>
      </trkpt>
      <trkpt lat="42.279744" lon="2.159817">
        <ele>868.4</ele>
        <time>2019-08-19T03:21:52Z</time>
      </trkpt>
      <trkpt lat="42.279771" lon="2.15981">
        <ele>868.4</ele>
        <time>2019-08-19T03:21:53Z</time>
      </trkpt>
      <trkpt lat="42.2798" lon="2.159797">
        <ele>868.5</ele>
        <time>2019-08-19T03:21:54Z</time>
      </trkpt>
      <trkpt lat="42.279825" lon="2.159782">
        <ele>868.5</ele>
        <time>2019-08-19T03:21:55Z</time>
      </trkpt>
      <trkpt lat="42.279863" lon="2.159769">
        <ele>868.6</ele>
        <time>2019-08-19T03:21:57Z</time>
      </trkpt>
      <trkpt lat="42.279904" lon="2.159758">
        <ele>868.7</ele>
        <time>2019-08-19T03:21:59Z</time>
      </trkpt>
      <trkpt lat="42.279947" lon="2.159743">
        <ele>868.8</ele>
        <time>2019-08-19T03:22:01Z</time>
      </trkpt>
      <trkpt lat="42.279986" lon="2.159712">
        <ele>868.9</ele>
        <time>2019-08-19T03:22:03Z</time>
      </trkpt>
      <trkpt lat="42.28001" lon="2.159695">
        <ele>868.9</ele>
        <time>2019-08-19T03:22:04Z</time>
      </trkpt>
      <trkpt lat="42.280051" lon="2.159682">
        <ele>869</ele>
        <time>2019-08-19T03:22:05Z</time>
      </trkpt>
      <trkpt lat="42.280101" lon="2.159669">
        <ele>869.1</ele>
        <time>2019-08-19T03:22:06Z</time>
      </trkpt>
      <trkpt lat="42.280146" lon="2.159652">
        <ele>869.2</ele>
        <time>2019-08-19T03:22:07Z</time>
      </trkpt>
      <trkpt lat="42.280185" lon="2.159636">
        <ele>869.2</ele>
        <time>2019-08-19T03:22:08Z</time>
      </trkpt>
      <trkpt lat="42.280225" lon="2.15962">
        <ele>869.3</ele>
        <time>2019-08-19T03:22:09Z</time>
      </trkpt>
      <trkpt lat="42.280267" lon="2.159607">
        <ele>869.4</ele>
        <time>2019-08-19T03:22:10Z</time>
      </trkpt>
      <trkpt lat="42.280245" lon="2.159586">
        <ele>869.5</ele>
        <time>2019-08-19T03:22:12Z</time>
      </trkpt>
      <trkpt lat="42.280282" lon="2.159554">
        <ele>869.6</ele>
        <time>2019-08-19T03:22:13Z</time>
      </trkpt>
      <trkpt lat="42.280323" lon="2.159539">
        <ele>869.7</ele>
        <time>2019-08-19T03:22:14Z</time>
      </trkpt>
      <trkpt lat="42.280352" lon="2.159527">
        <ele>869.8</ele>
        <time>2019-08-19T03:22:15Z</time>
      </trkpt>
      <trkpt lat="42.280395" lon="2.159514">
        <ele>869.9</ele>
        <time>2019-08-19T03:22:16Z</time>
      </trkpt>
      <trkpt lat="42.280428" lon="2.159492">
        <ele>870</ele>
        <time>2019-08-19T03:22:17Z</time>
      </trkpt>
      <trkpt lat="42.28046" lon="2.159455">
        <ele>870.1</ele>
        <time>2019-08-19T03:22:18Z</time>
      </trkpt>
      <trkpt lat="42.280494" lon="2.159433">
        <ele>870.3</ele>
        <time>2019-08-19T03:22:19Z</time>
      </trkpt>
      <trkpt lat="42.280559" lon="2.159412">
        <ele>870.5</ele>
        <time>2019-08-19T03:22:21Z</time>
      </trkpt>
      <trkpt lat="42.2806" lon="2.159393">
        <ele>870.6</ele>
        <time>2019-08-19T03:22:22Z</time>
      </trkpt>
      <trkpt lat="42.280635" lon="2.159385">
        <ele>870.8</ele>
        <time>2019-08-19T03:22:23Z</time>
      </trkpt>
      <trkpt lat="42.280667" lon="2.159372">
        <ele>870.9</ele>
        <time>2019-08-19T03:22:24Z</time>
      </trkpt>
      <trkpt lat="42.280725" lon="2.159353">
        <ele>871.1</ele>
        <time>2019-08-19T03:22:26Z</time>
      </trkpt>
      <trkpt lat="42.280763" lon="2.159353">
        <ele>871.2</ele>
        <time>2019-08-19T03:22:28Z</time>
      </trkpt>
      <trkpt lat="42.280796" lon="2.159363">
        <ele>871.3</ele>
        <time>2019-08-19T03:22:30Z</time>
      </trkpt>
      <trkpt lat="42.280829" lon="2.159363">
        <ele>871.3</ele>
        <time>2019-08-19T03:22:31Z</time>
      </trkpt>
      <trkpt lat="42.280875" lon="2.159361">
        <ele>871.4</ele>
        <time>2019-08-19T03:22:32Z</time>
      </trkpt>
      <trkpt lat="42.281047" lon="2.159294">
        <ele>871.7</ele>
        <time>2019-08-19T03:22:34Z</time>
      </trkpt>
      <trkpt lat="42.281086" lon="2.159296">
        <ele>871.7</ele>
        <time>2019-08-19T03:22:35Z</time>
      </trkpt>
      <trkpt lat="42.281122" lon="2.159295">
        <ele>871.7</ele>
        <time>2019-08-19T03:22:36Z</time>
      </trkpt>
      <trkpt lat="42.281161" lon="2.159311">
        <ele>871.7</ele>
        <time>2019-08-19T03:22:37Z</time>
      </trkpt>
      <trkpt lat="42.281202" lon="2.159315">
        <ele>871.8</ele>
        <time>2019-08-19T03:22:38Z</time>
      </trkpt>
      <trkpt lat="42.281255" lon="2.159323">
        <ele>871.8</ele>
        <time>2019-08-19T03:22:39Z</time>
      </trkpt>
      <trkpt lat="42.281296" lon="2.159326">
        <ele>871.8</ele>
        <time>2019-08-19T03:22:40Z</time>
      </trkpt>
      <trkpt lat="42.281338" lon="2.15932">
        <ele>871.8</ele>
        <time>2019-08-19T03:22:41Z</time>
      </trkpt>
      <trkpt lat="42.281382" lon="2.159329">
        <ele>871.8</ele>
        <time>2019-08-19T03:22:42Z</time>
      </trkpt>
      <trkpt lat="42.281428" lon="2.15933">
        <ele>871.8</ele>
        <time>2019-08-19T03:22:43Z</time>
      </trkpt>
      <trkpt lat="42.281462" lon="2.159349">
        <ele>871.8</ele>
        <time>2019-08-19T03:22:44Z</time>
      </trkpt>
      <trkpt lat="42.281507" lon="2.159366">
        <ele>871.8</ele>
        <time>2019-08-19T03:22:45Z</time>
      </trkpt>
      <trkpt lat="42.281548" lon="2.159379">
        <ele>871.9</ele>
        <time>2019-08-19T03:22:46Z</time>
      </trkpt>
      <trkpt lat="42.281589" lon="2.159375">
        <ele>871.9</ele>
        <time>2019-08-19T03:22:47Z</time>
      </trkpt>
      <trkpt lat="42.281629" lon="2.159367">
        <ele>871.9</ele>
        <time>2019-08-19T03:22:48Z</time>
      </trkpt>
      <trkpt lat="42.281662" lon="2.159379">
        <ele>872</ele>
        <time>2019-08-19T03:22:49Z</time>
      </trkpt>
      <trkpt lat="42.281706" lon="2.159404">
        <ele>872</ele>
        <time>2019-08-19T03:22:50Z</time>
      </trkpt>
      <trkpt lat="42.281741" lon="2.159423">
        <ele>872</ele>
        <time>2019-08-19T03:22:51Z</time>
      </trkpt>
      <trkpt lat="42.281778" lon="2.159432">
        <ele>872.1</ele>
        <time>2019-08-19T03:22:52Z</time>
      </trkpt>
      <trkpt lat="42.281822" lon="2.159461">
        <ele>872.1</ele>
        <time>2019-08-19T03:22:53Z</time>
      </trkpt>
      <trkpt lat="42.281861" lon="2.159489">
        <ele>872.1</ele>
        <time>2019-08-19T03:22:54Z</time>
      </trkpt>
      <trkpt lat="42.281901" lon="2.1595">
        <ele>872.2</ele>
        <time>2019-08-19T03:22:55Z</time>
      </trkpt>
      <trkpt lat="42.281939" lon="2.159517">
        <ele>872.2</ele>
        <time>2019-08-19T03:22:56Z</time>
      </trkpt>
      <trkpt lat="42.281975" lon="2.159533">
        <ele>872.2</ele>
        <time>2019-08-19T03:22:57Z</time>
      </trkpt>
      <trkpt lat="42.282014" lon="2.15955">
        <ele>872.3</ele>
        <time>2019-08-19T03:22:58Z</time>
      </trkpt>
      <trkpt lat="42.282055" lon="2.159565">
        <ele>872.3</ele>
        <time>2019-08-19T03:22:59Z</time>
      </trkpt>
      <trkpt lat="42.282095" lon="2.159575">
        <ele>872.3</ele>
        <time>2019-08-19T03:23:00Z</time>
      </trkpt>
      <trkpt lat="42.282135" lon="2.159583">
        <ele>872.3</ele>
        <time>2019-08-19T03:23:01Z</time>
      </trkpt>
      <trkpt lat="42.282177" lon="2.159591">
        <ele>872.3</ele>
        <time>2019-08-19T03:23:02Z</time>
      </trkpt>
      <trkpt lat="42.282224" lon="2.159596">
        <ele>872.3</ele>
        <time>2019-08-19T03:23:03Z</time>
      </trkpt>
      <trkpt lat="42.28227" lon="2.159606">
        <ele>872.3</ele>
        <time>2019-08-19T03:23:04Z</time>
      </trkpt>
      <trkpt lat="42.282323" lon="2.159609">
        <ele>872.3</ele>
        <time>2019-08-19T03:23:05Z</time>
      </trkpt>
      <trkpt lat="42.282373" lon="2.159593">
        <ele>872.3</ele>
        <time>2019-08-19T03:23:06Z</time>
      </trkpt>
      <trkpt lat="42.282426" lon="2.159583">
        <ele>872.3</ele>
        <time>2019-08-19T03:23:07Z</time>
      </trkpt>
      <trkpt lat="42.282478" lon="2.159588">
        <ele>872.3</ele>
        <time>2019-08-19T03:23:08Z</time>
      </trkpt>
      <trkpt lat="42.282533" lon="2.159583">
        <ele>872.3</ele>
        <time>2019-08-19T03:23:09Z</time>
      </trkpt>
      <trkpt lat="42.282583" lon="2.159578">
        <ele>872.3</ele>
        <time>2019-08-19T03:23:10Z</time>
      </trkpt>
      <trkpt lat="42.282635" lon="2.159569">
        <ele>872.3</ele>
        <time>2019-08-19T03:23:11Z</time>
      </trkpt>
      <trkpt lat="42.282685" lon="2.159566">
        <ele>872.4</ele>
        <time>2019-08-19T03:23:12Z</time>
      </trkpt>
      <trkpt lat="42.282738" lon="2.159563">
        <ele>872.4</ele>
        <time>2019-08-19T03:23:13Z</time>
      </trkpt>
      <trkpt lat="42.282801" lon="2.159556">
        <ele>872.4</ele>
        <time>2019-08-19T03:23:14Z</time>
      </trkpt>
      <trkpt lat="42.282851" lon="2.159554">
        <ele>872.5</ele>
        <time>2019-08-19T03:23:15Z</time>
      </trkpt>
      <trkpt lat="42.282906" lon="2.159541">
        <ele>872.5</ele>
        <time>2019-08-19T03:23:16Z</time>
      </trkpt>
      <trkpt lat="42.282975" lon="2.15951">
        <ele>872.6</ele>
        <time>2019-08-19T03:23:17Z</time>
      </trkpt>
      <trkpt lat="42.28303" lon="2.159511">
        <ele>872.7</ele>
        <time>2019-08-19T03:23:18Z</time>
      </trkpt>
      <trkpt lat="42.283086" lon="2.159498">
        <ele>872.8</ele>
        <time>2019-08-19T03:23:19Z</time>
      </trkpt>
      <trkpt lat="42.283135" lon="2.15949">
        <ele>872.9</ele>
        <time>2019-08-19T03:23:20Z</time>
      </trkpt>
      <trkpt lat="42.283187" lon="2.159474">
        <ele>873</ele>
        <time>2019-08-19T03:23:21Z</time>
      </trkpt>
      <trkpt lat="42.283243" lon="2.159444">
        <ele>873.2</ele>
        <time>2019-08-19T03:23:22Z</time>
      </trkpt>
      <trkpt lat="42.283298" lon="2.159439">
        <ele>873.3</ele>
        <time>2019-08-19T03:23:23Z</time>
      </trkpt>
      <trkpt lat="42.28334" lon="2.159423">
        <ele>873.4</ele>
        <time>2019-08-19T03:23:24Z</time>
      </trkpt>
      <trkpt lat="42.283385" lon="2.159399">
        <ele>873.5</ele>
        <time>2019-08-19T03:23:25Z</time>
      </trkpt>
      <trkpt lat="42.283427" lon="2.15938">
        <ele>873.6</ele>
        <time>2019-08-19T03:23:26Z</time>
      </trkpt>
      <trkpt lat="42.283463" lon="2.159358">
        <ele>873.8</ele>
        <time>2019-08-19T03:23:27Z</time>
      </trkpt>
      <trkpt lat="42.283501" lon="2.159336">
        <ele>873.9</ele>
        <time>2019-08-19T03:23:28Z</time>
      </trkpt>
      <trkpt lat="42.283535" lon="2.159316">
        <ele>874</ele>
        <time>2019-08-19T03:23:29Z</time>
      </trkpt>
      <trkpt lat="42.283578" lon="2.159299">
        <ele>874.2</ele>
        <time>2019-08-19T03:23:30Z</time>
      </trkpt>
      <trkpt lat="42.283614" lon="2.15928">
        <ele>874.3</ele>
        <time>2019-08-19T03:23:31Z</time>
      </trkpt>
      <trkpt lat="42.283656" lon="2.159238">
        <ele>874.5</ele>
        <time>2019-08-19T03:23:32Z</time>
      </trkpt>
      <trkpt lat="42.283689" lon="2.159202">
        <ele>874.7</ele>
        <time>2019-08-19T03:23:33Z</time>
      </trkpt>
      <trkpt lat="42.283722" lon="2.159186">
        <ele>874.9</ele>
        <time>2019-08-19T03:23:34Z</time>
      </trkpt>
      <trkpt lat="42.283759" lon="2.15916">
        <ele>875.1</ele>
        <time>2019-08-19T03:23:35Z</time>
      </trkpt>
      <trkpt lat="42.283793" lon="2.159134">
        <ele>875.2</ele>
        <time>2019-08-19T03:23:36Z</time>
      </trkpt>
      <trkpt lat="42.28383" lon="2.159111">
        <ele>875.4</ele>
        <time>2019-08-19T03:23:37Z</time>
      </trkpt>
      <trkpt lat="42.283866" lon="2.159087">
        <ele>875.6</ele>
        <time>2019-08-19T03:23:38Z</time>
      </trkpt>
      <trkpt lat="42.283902" lon="2.159061">
        <ele>875.8</ele>
        <time>2019-08-19T03:23:39Z</time>
      </trkpt>
      <trkpt lat="42.28394" lon="2.159034">
        <ele>876</ele>
        <time>2019-08-19T03:23:40Z</time>
      </trkpt>
      <trkpt lat="42.283979" lon="2.159008">
        <ele>876.1</ele>
        <time>2019-08-19T03:23:41Z</time>
      </trkpt>
      <trkpt lat="42.284016" lon="2.158998">
        <ele>876.3</ele>
        <time>2019-08-19T03:23:42Z</time>
      </trkpt>
      <trkpt lat="42.284052" lon="2.158975">
        <ele>876.4</ele>
        <time>2019-08-19T03:23:43Z</time>
      </trkpt>
      <trkpt lat="42.284098" lon="2.158966">
        <ele>876.6</ele>
        <time>2019-08-19T03:23:44Z</time>
      </trkpt>
      <trkpt lat="42.284142" lon="2.158938">
        <ele>876.7</ele>
        <time>2019-08-19T03:23:45Z</time>
      </trkpt>
      <trkpt lat="42.284184" lon="2.158935">
        <ele>876.9</ele>
        <time>2019-08-19T03:23:46Z</time>
      </trkpt>
      <trkpt lat="42.284232" lon="2.158926">
        <ele>877</ele>
        <time>2019-08-19T03:23:47Z</time>
      </trkpt>
      <trkpt lat="42.284286" lon="2.15892">
        <ele>877.1</ele>
        <time>2019-08-19T03:23:48Z</time>
      </trkpt>
      <trkpt lat="42.28433" lon="2.158905">
        <ele>877.2</ele>
        <time>2019-08-19T03:23:49Z</time>
      </trkpt>
      <trkpt lat="42.284371" lon="2.158901">
        <ele>877.3</ele>
        <time>2019-08-19T03:23:50Z</time>
      </trkpt>
      <trkpt lat="42.284408" lon="2.158909">
        <ele>877.3</ele>
        <time>2019-08-19T03:23:51Z</time>
      </trkpt>
      <trkpt lat="42.284466" lon="2.158915">
        <ele>877.4</ele>
        <time>2019-08-19T03:23:52Z</time>
      </trkpt>
      <trkpt lat="42.28453" lon="2.158922">
        <ele>877.5</ele>
        <time>2019-08-19T03:23:53Z</time>
      </trkpt>
      <trkpt lat="42.284568" lon="2.158943">
        <ele>877.6</ele>
        <time>2019-08-19T03:23:54Z</time>
      </trkpt>
      <trkpt lat="42.284593" lon="2.158968">
        <ele>877.7</ele>
        <time>2019-08-19T03:23:55Z</time>
      </trkpt>
      <trkpt lat="42.284626" lon="2.158996">
        <ele>877.7</ele>
        <time>2019-08-19T03:23:56Z</time>
      </trkpt>
      <trkpt lat="42.284669" lon="2.159006">
        <ele>877.8</ele>
        <time>2019-08-19T03:23:57Z</time>
      </trkpt>
      <trkpt lat="42.284707" lon="2.159034">
        <ele>877.9</ele>
        <time>2019-08-19T03:23:58Z</time>
      </trkpt>
      <trkpt lat="42.284743" lon="2.159067">
        <ele>878</ele>
        <time>2019-08-19T03:23:59Z</time>
      </trkpt>
      <trkpt lat="42.284779" lon="2.159096">
        <ele>878.1</ele>
        <time>2019-08-19T03:24:00Z</time>
      </trkpt>
      <trkpt lat="42.284811" lon="2.159139">
        <ele>878.1</ele>
        <time>2019-08-19T03:24:01Z</time>
      </trkpt>
      <trkpt lat="42.284846" lon="2.159173">
        <ele>878.2</ele>
        <time>2019-08-19T03:24:02Z</time>
      </trkpt>
      <trkpt lat="42.284882" lon="2.159201">
        <ele>878.2</ele>
        <time>2019-08-19T03:24:03Z</time>
      </trkpt>
      <trkpt lat="42.284917" lon="2.159234">
        <ele>878.3</ele>
        <time>2019-08-19T03:24:04Z</time>
      </trkpt>
      <trkpt lat="42.284947" lon="2.159269">
        <ele>878.3</ele>
        <time>2019-08-19T03:24:05Z</time>
      </trkpt>
      <trkpt lat="42.284977" lon="2.159303">
        <ele>878.3</ele>
        <time>2019-08-19T03:24:06Z</time>
      </trkpt>
      <trkpt lat="42.285002" lon="2.15933">
        <ele>878.3</ele>
        <time>2019-08-19T03:24:07Z</time>
      </trkpt>
      <trkpt lat="42.285029" lon="2.159357">
        <ele>878.3</ele>
        <time>2019-08-19T03:24:08Z</time>
      </trkpt>
      <trkpt lat="42.285058" lon="2.159389">
        <ele>878.3</ele>
        <time>2019-08-19T03:24:09Z</time>
      </trkpt>
      <trkpt lat="42.285095" lon="2.159425">
        <ele>878.3</ele>
        <time>2019-08-19T03:24:10Z</time>
      </trkpt>
      <trkpt lat="42.285133" lon="2.15946">
        <ele>878.2</ele>
        <time>2019-08-19T03:24:11Z</time>
      </trkpt>
      <trkpt lat="42.285168" lon="2.159491">
        <ele>878.2</ele>
        <time>2019-08-19T03:24:12Z</time>
      </trkpt>
      <trkpt lat="42.285206" lon="2.159521">
        <ele>878.1</ele>
        <time>2019-08-19T03:24:13Z</time>
      </trkpt>
      <trkpt lat="42.285258" lon="2.159547">
        <ele>878.1</ele>
        <time>2019-08-19T03:24:14Z</time>
      </trkpt>
      <trkpt lat="42.285295" lon="2.159579">
        <ele>878</ele>
        <time>2019-08-19T03:24:15Z</time>
      </trkpt>
      <trkpt lat="42.285329" lon="2.159615">
        <ele>878</ele>
        <time>2019-08-19T03:24:16Z</time>
      </trkpt>
      <trkpt lat="42.285366" lon="2.159657">
        <ele>877.9</ele>
        <time>2019-08-19T03:24:17Z</time>
      </trkpt>
      <trkpt lat="42.285403" lon="2.159693">
        <ele>877.9</ele>
        <time>2019-08-19T03:24:18Z</time>
      </trkpt>
      <trkpt lat="42.285448" lon="2.159723">
        <ele>877.9</ele>
        <time>2019-08-19T03:24:19Z</time>
      </trkpt>
      <trkpt lat="42.285489" lon="2.159763">
        <ele>877.9</ele>
        <time>2019-08-19T03:24:20Z</time>
      </trkpt>
      <trkpt lat="42.285531" lon="2.159785">
        <ele>877.9</ele>
        <time>2019-08-19T03:24:21Z</time>
      </trkpt>
      <trkpt lat="42.285579" lon="2.159825">
        <ele>877.9</ele>
        <time>2019-08-19T03:24:22Z</time>
      </trkpt>
      <trkpt lat="42.285614" lon="2.159863">
        <ele>878</ele>
        <time>2019-08-19T03:24:23Z</time>
      </trkpt>
      <trkpt lat="42.285704" lon="2.159929">
        <ele>878.2</ele>
        <time>2019-08-19T03:24:24Z</time>
      </trkpt>
      <trkpt lat="42.285746" lon="2.159961">
        <ele>878.3</ele>
        <time>2019-08-19T03:24:25Z</time>
      </trkpt>
      <trkpt lat="42.285769" lon="2.160005">
        <ele>878.4</ele>
        <time>2019-08-19T03:24:26Z</time>
      </trkpt>
      <trkpt lat="42.285815" lon="2.160034">
        <ele>878.5</ele>
        <time>2019-08-19T03:24:27Z</time>
      </trkpt>
      <trkpt lat="42.285853" lon="2.160065">
        <ele>878.6</ele>
        <time>2019-08-19T03:24:28Z</time>
      </trkpt>
      <trkpt lat="42.285885" lon="2.160096">
        <ele>878.8</ele>
        <time>2019-08-19T03:24:29Z</time>
      </trkpt>
      <trkpt lat="42.285923" lon="2.160118">
        <ele>878.9</ele>
        <time>2019-08-19T03:24:30Z</time>
      </trkpt>
      <trkpt lat="42.285955" lon="2.160149">
        <ele>879</ele>
        <time>2019-08-19T03:24:31Z</time>
      </trkpt>
      <trkpt lat="42.285995" lon="2.160173">
        <ele>879.1</ele>
        <time>2019-08-19T03:24:32Z</time>
      </trkpt>
      <trkpt lat="42.286034" lon="2.160199">
        <ele>879.2</ele>
        <time>2019-08-19T03:24:33Z</time>
      </trkpt>
      <trkpt lat="42.286082" lon="2.16024">
        <ele>879.4</ele>
        <time>2019-08-19T03:24:34Z</time>
      </trkpt>
      <trkpt lat="42.286124" lon="2.160265">
        <ele>879.5</ele>
        <time>2019-08-19T03:24:35Z</time>
      </trkpt>
      <trkpt lat="42.28616" lon="2.160295">
        <ele>879.6</ele>
        <time>2019-08-19T03:24:36Z</time>
      </trkpt>
      <trkpt lat="42.286208" lon="2.160332">
        <ele>879.7</ele>
        <time>2019-08-19T03:24:38Z</time>
      </trkpt>
      <trkpt lat="42.286248" lon="2.160359">
        <ele>879.8</ele>
        <time>2019-08-19T03:24:39Z</time>
      </trkpt>
      <trkpt lat="42.286291" lon="2.160379">
        <ele>879.9</ele>
        <time>2019-08-19T03:24:40Z</time>
      </trkpt>
      <trkpt lat="42.286331" lon="2.1604">
        <ele>880</ele>
        <time>2019-08-19T03:24:41Z</time>
      </trkpt>
      <trkpt lat="42.286366" lon="2.160415">
        <ele>880.1</ele>
        <time>2019-08-19T03:24:42Z</time>
      </trkpt>
      <trkpt lat="42.286405" lon="2.160432">
        <ele>880.1</ele>
        <time>2019-08-19T03:24:43Z</time>
      </trkpt>
      <trkpt lat="42.286446" lon="2.160457">
        <ele>880.2</ele>
        <time>2019-08-19T03:24:44Z</time>
      </trkpt>
      <trkpt lat="42.286483" lon="2.160473">
        <ele>880.1</ele>
        <time>2019-08-19T03:24:45Z</time>
      </trkpt>
      <trkpt lat="42.28652" lon="2.160491">
        <ele>880</ele>
        <time>2019-08-19T03:24:46Z</time>
      </trkpt>
      <trkpt lat="42.286559" lon="2.160506">
        <ele>879.9</ele>
        <time>2019-08-19T03:24:47Z</time>
      </trkpt>
      <trkpt lat="42.286596" lon="2.16052">
        <ele>879.9</ele>
        <time>2019-08-19T03:24:48Z</time>
      </trkpt>
      <trkpt lat="42.286634" lon="2.160529">
        <ele>879.8</ele>
        <time>2019-08-19T03:24:49Z</time>
      </trkpt>
      <trkpt lat="42.286672" lon="2.160537">
        <ele>879.8</ele>
        <time>2019-08-19T03:24:50Z</time>
      </trkpt>
      <trkpt lat="42.286708" lon="2.160547">
        <ele>879.7</ele>
        <time>2019-08-19T03:24:51Z</time>
      </trkpt>
      <trkpt lat="42.286744" lon="2.160554">
        <ele>879.7</ele>
        <time>2019-08-19T03:24:52Z</time>
      </trkpt>
      <trkpt lat="42.28678" lon="2.160561">
        <ele>879.7</ele>
        <time>2019-08-19T03:24:53Z</time>
      </trkpt>
      <trkpt lat="42.286818" lon="2.160567">
        <ele>879.6</ele>
        <time>2019-08-19T03:24:54Z</time>
      </trkpt>
      <trkpt lat="42.286856" lon="2.160572">
        <ele>879.5</ele>
        <time>2019-08-19T03:24:55Z</time>
      </trkpt>
      <trkpt lat="42.28689" lon="2.160573">
        <ele>879.5</ele>
        <time>2019-08-19T03:24:56Z</time>
      </trkpt>
      <trkpt lat="42.286926" lon="2.160583">
        <ele>879.4</ele>
        <time>2019-08-19T03:24:57Z</time>
      </trkpt>
      <trkpt lat="42.286964" lon="2.160607">
        <ele>879.4</ele>
        <time>2019-08-19T03:24:58Z</time>
      </trkpt>
      <trkpt lat="42.286994" lon="2.160643">
        <ele>879.3</ele>
        <time>2019-08-19T03:24:59Z</time>
      </trkpt>
      <trkpt lat="42.287021" lon="2.160673">
        <ele>879.2</ele>
        <time>2019-08-19T03:25:00Z</time>
      </trkpt>
      <trkpt lat="42.287049" lon="2.160675">
        <ele>879.2</ele>
        <time>2019-08-19T03:25:01Z</time>
      </trkpt>
      <trkpt lat="42.287074" lon="2.160655">
        <ele>879.1</ele>
        <time>2019-08-19T03:25:02Z</time>
      </trkpt>
      <trkpt lat="42.287098" lon="2.160634">
        <ele>879.1</ele>
        <time>2019-08-19T03:25:03Z</time>
      </trkpt>
      <trkpt lat="42.287121" lon="2.160612">
        <ele>879</ele>
        <time>2019-08-19T03:25:04Z</time>
      </trkpt>
      <trkpt lat="42.287145" lon="2.160591">
        <ele>879</ele>
        <time>2019-08-19T03:25:05Z</time>
      </trkpt>
      <trkpt lat="42.287171" lon="2.16057">
        <ele>878.9</ele>
        <time>2019-08-19T03:25:06Z</time>
      </trkpt>
      <trkpt lat="42.287363" lon="2.160508">
        <ele>879.9</ele>
        <time>2019-08-19T03:25:08Z</time>
      </trkpt>
      <trkpt lat="42.287418" lon="2.1605">
        <ele>880.3</ele>
        <time>2019-08-19T03:25:10Z</time>
      </trkpt>
      <trkpt lat="42.287464" lon="2.160491">
        <ele>880.9</ele>
        <time>2019-08-19T03:25:11Z</time>
      </trkpt>
      <trkpt lat="42.287496" lon="2.160482">
        <ele>881.2</ele>
        <time>2019-08-19T03:25:12Z</time>
      </trkpt>
      <trkpt lat="42.28753" lon="2.160461">
        <ele>881.6</ele>
        <time>2019-08-19T03:25:13Z</time>
      </trkpt>
      <trkpt lat="42.287571" lon="2.160436">
        <ele>882.1</ele>
        <time>2019-08-19T03:25:14Z</time>
      </trkpt>
      <trkpt lat="42.287623" lon="2.160421">
        <ele>882.7</ele>
        <time>2019-08-19T03:25:15Z</time>
      </trkpt>
      <trkpt lat="42.287666" lon="2.160412">
        <ele>883.2</ele>
        <time>2019-08-19T03:25:16Z</time>
      </trkpt>
      <trkpt lat="42.287702" lon="2.160401">
        <ele>883.6</ele>
        <time>2019-08-19T03:25:17Z</time>
      </trkpt>
      <trkpt lat="42.287728" lon="2.160389">
        <ele>883.9</ele>
        <time>2019-08-19T03:25:18Z</time>
      </trkpt>
      <trkpt lat="42.287763" lon="2.160374">
        <ele>884.3</ele>
        <time>2019-08-19T03:25:19Z</time>
      </trkpt>
      <trkpt lat="42.28781" lon="2.160365">
        <ele>884.8</ele>
        <time>2019-08-19T03:25:20Z</time>
      </trkpt>
      <trkpt lat="42.287857" lon="2.160357">
        <ele>884.9</ele>
        <time>2019-08-19T03:25:21Z</time>
      </trkpt>
      <trkpt lat="42.287902" lon="2.160336">
        <ele>885</ele>
        <time>2019-08-19T03:25:22Z</time>
      </trkpt>
      <trkpt lat="42.287946" lon="2.160318">
        <ele>885.2</ele>
        <time>2019-08-19T03:25:23Z</time>
      </trkpt>
      <trkpt lat="42.287999" lon="2.160291">
        <ele>885.3</ele>
        <time>2019-08-19T03:25:24Z</time>
      </trkpt>
      <trkpt lat="42.288045" lon="2.160291">
        <ele>885.4</ele>
        <time>2019-08-19T03:25:25Z</time>
      </trkpt>
      <trkpt lat="42.288089" lon="2.160262">
        <ele>885.5</ele>
        <time>2019-08-19T03:25:26Z</time>
      </trkpt>
      <trkpt lat="42.288139" lon="2.160235">
        <ele>885.7</ele>
        <time>2019-08-19T03:25:27Z</time>
      </trkpt>
      <trkpt lat="42.288186" lon="2.160233">
        <ele>885.8</ele>
        <time>2019-08-19T03:25:28Z</time>
      </trkpt>
      <trkpt lat="42.288226" lon="2.160225">
        <ele>885.9</ele>
        <time>2019-08-19T03:25:29Z</time>
      </trkpt>
      <trkpt lat="42.28827" lon="2.160224">
        <ele>886.1</ele>
        <time>2019-08-19T03:25:30Z</time>
      </trkpt>
      <trkpt lat="42.288317" lon="2.160212">
        <ele>886.2</ele>
        <time>2019-08-19T03:25:31Z</time>
      </trkpt>
      <trkpt lat="42.288362" lon="2.160196">
        <ele>886.4</ele>
        <time>2019-08-19T03:25:32Z</time>
      </trkpt>
      <trkpt lat="42.288405" lon="2.160202">
        <ele>886.5</ele>
        <time>2019-08-19T03:25:33Z</time>
      </trkpt>
      <trkpt lat="42.288453" lon="2.160175">
        <ele>886.6</ele>
        <time>2019-08-19T03:25:34Z</time>
      </trkpt>
      <trkpt lat="42.288501" lon="2.160161">
        <ele>886.7</ele>
        <time>2019-08-19T03:25:35Z</time>
      </trkpt>
      <trkpt lat="42.288551" lon="2.160156">
        <ele>886.8</ele>
        <time>2019-08-19T03:25:36Z</time>
      </trkpt>
      <trkpt lat="42.288596" lon="2.16014">
        <ele>886.9</ele>
        <time>2019-08-19T03:25:37Z</time>
      </trkpt>
      <trkpt lat="42.288644" lon="2.160131">
        <ele>886.9</ele>
        <time>2019-08-19T03:25:38Z</time>
      </trkpt>
      <trkpt lat="42.288699" lon="2.160121">
        <ele>887</ele>
        <time>2019-08-19T03:25:39Z</time>
      </trkpt>
      <trkpt lat="42.288739" lon="2.160116">
        <ele>887.1</ele>
        <time>2019-08-19T03:25:40Z</time>
      </trkpt>
      <trkpt lat="42.288787" lon="2.160116">
        <ele>887.1</ele>
        <time>2019-08-19T03:25:41Z</time>
      </trkpt>
      <trkpt lat="42.288835" lon="2.160128">
        <ele>887.2</ele>
        <time>2019-08-19T03:25:42Z</time>
      </trkpt>
      <trkpt lat="42.288878" lon="2.160125">
        <ele>887.3</ele>
        <time>2019-08-19T03:25:43Z</time>
      </trkpt>
      <trkpt lat="42.288926" lon="2.160138">
        <ele>887.4</ele>
        <time>2019-08-19T03:25:44Z</time>
      </trkpt>
      <trkpt lat="42.288977" lon="2.160142">
        <ele>887.5</ele>
        <time>2019-08-19T03:25:45Z</time>
      </trkpt>
      <trkpt lat="42.289026" lon="2.160158">
        <ele>887.7</ele>
        <time>2019-08-19T03:25:46Z</time>
      </trkpt>
      <trkpt lat="42.289075" lon="2.160187">
        <ele>887.8</ele>
        <time>2019-08-19T03:25:47Z</time>
      </trkpt>
      <trkpt lat="42.289135" lon="2.160191">
        <ele>888.1</ele>
        <time>2019-08-19T03:25:48Z</time>
      </trkpt>
      <trkpt lat="42.289181" lon="2.160212">
        <ele>888.2</ele>
        <time>2019-08-19T03:25:49Z</time>
      </trkpt>
      <trkpt lat="42.289226" lon="2.160234">
        <ele>888.4</ele>
        <time>2019-08-19T03:25:50Z</time>
      </trkpt>
      <trkpt lat="42.289277" lon="2.160252">
        <ele>888.7</ele>
        <time>2019-08-19T03:25:51Z</time>
      </trkpt>
      <trkpt lat="42.289322" lon="2.160274">
        <ele>888.9</ele>
        <time>2019-08-19T03:25:52Z</time>
      </trkpt>
      <trkpt lat="42.289359" lon="2.160295">
        <ele>889.2</ele>
        <time>2019-08-19T03:25:53Z</time>
      </trkpt>
      <trkpt lat="42.289396" lon="2.160321">
        <ele>889.4</ele>
        <time>2019-08-19T03:25:54Z</time>
      </trkpt>
      <trkpt lat="42.289436" lon="2.16034">
        <ele>889.6</ele>
        <time>2019-08-19T03:25:55Z</time>
      </trkpt>
      <trkpt lat="42.289477" lon="2.160356">
        <ele>889.8</ele>
        <time>2019-08-19T03:25:56Z</time>
      </trkpt>
      <trkpt lat="42.289515" lon="2.160375">
        <ele>890.1</ele>
        <time>2019-08-19T03:25:57Z</time>
      </trkpt>
      <trkpt lat="42.289556" lon="2.160387">
        <ele>890.3</ele>
        <time>2019-08-19T03:25:58Z</time>
      </trkpt>
      <trkpt lat="42.289593" lon="2.160401">
        <ele>890.6</ele>
        <time>2019-08-19T03:25:59Z</time>
      </trkpt>
      <trkpt lat="42.289629" lon="2.160423">
        <ele>890.8</ele>
        <time>2019-08-19T03:26:00Z</time>
      </trkpt>
      <trkpt lat="42.289666" lon="2.160444">
        <ele>891.1</ele>
        <time>2019-08-19T03:26:01Z</time>
      </trkpt>
      <trkpt lat="42.289692" lon="2.160466">
        <ele>891.3</ele>
        <time>2019-08-19T03:26:02Z</time>
      </trkpt>
      <trkpt lat="42.28973" lon="2.160472">
        <ele>891.6</ele>
        <time>2019-08-19T03:26:03Z</time>
      </trkpt>
      <trkpt lat="42.28977" lon="2.160481">
        <ele>892</ele>
        <time>2019-08-19T03:26:04Z</time>
      </trkpt>
      <trkpt lat="42.289798" lon="2.160495">
        <ele>892.4</ele>
        <time>2019-08-19T03:26:05Z</time>
      </trkpt>
      <trkpt lat="42.289828" lon="2.160517">
        <ele>892.9</ele>
        <time>2019-08-19T03:26:06Z</time>
      </trkpt>
      <trkpt lat="42.289857" lon="2.160546">
        <ele>893.4</ele>
        <time>2019-08-19T03:26:07Z</time>
      </trkpt>
      <trkpt lat="42.289885" lon="2.160574">
        <ele>893.9</ele>
        <time>2019-08-19T03:26:08Z</time>
      </trkpt>
      <trkpt lat="42.289912" lon="2.1606">
        <ele>894.3</ele>
        <time>2019-08-19T03:26:09Z</time>
      </trkpt>
      <trkpt lat="42.289941" lon="2.160625">
        <ele>894.8</ele>
        <time>2019-08-19T03:26:10Z</time>
      </trkpt>
      <trkpt lat="42.28997" lon="2.160646">
        <ele>895.2</ele>
        <time>2019-08-19T03:26:11Z</time>
      </trkpt>
      <trkpt lat="42.290002" lon="2.160666">
        <ele>895.6</ele>
        <time>2019-08-19T03:26:12Z</time>
      </trkpt>
      <trkpt lat="42.290036" lon="2.16069">
        <ele>895.9</ele>
        <time>2019-08-19T03:26:13Z</time>
      </trkpt>
      <trkpt lat="42.290068" lon="2.160716">
        <ele>896.2</ele>
        <time>2019-08-19T03:26:14Z</time>
      </trkpt>
      <trkpt lat="42.290094" lon="2.160735">
        <ele>896.4</ele>
        <time>2019-08-19T03:26:15Z</time>
      </trkpt>
      <trkpt lat="42.290148" lon="2.160769">
        <ele>896.7</ele>
        <time>2019-08-19T03:26:17Z</time>
      </trkpt>
      <trkpt lat="42.29018" lon="2.160786">
        <ele>896.8</ele>
        <time>2019-08-19T03:26:18Z</time>
      </trkpt>
      <trkpt lat="42.290217" lon="2.1608">
        <ele>897</ele>
        <time>2019-08-19T03:26:19Z</time>
      </trkpt>
      <trkpt lat="42.290253" lon="2.160811">
        <ele>897.1</ele>
        <time>2019-08-19T03:26:20Z</time>
      </trkpt>
      <trkpt lat="42.290291" lon="2.160819">
        <ele>897.1</ele>
        <time>2019-08-19T03:26:21Z</time>
      </trkpt>
      <trkpt lat="42.290331" lon="2.160828">
        <ele>897.2</ele>
        <time>2019-08-19T03:26:22Z</time>
      </trkpt>
      <trkpt lat="42.290372" lon="2.160838">
        <ele>897.3</ele>
        <time>2019-08-19T03:26:23Z</time>
      </trkpt>
      <trkpt lat="42.290412" lon="2.160848">
        <ele>897.4</ele>
        <time>2019-08-19T03:26:24Z</time>
      </trkpt>
      <trkpt lat="42.290452" lon="2.160854">
        <ele>897.5</ele>
        <time>2019-08-19T03:26:25Z</time>
      </trkpt>
      <trkpt lat="42.29049" lon="2.160862">
        <ele>897.3</ele>
        <time>2019-08-19T03:26:26Z</time>
      </trkpt>
      <trkpt lat="42.290528" lon="2.16087">
        <ele>897.2</ele>
        <time>2019-08-19T03:26:27Z</time>
      </trkpt>
      <trkpt lat="42.290569" lon="2.160876">
        <ele>897.1</ele>
        <time>2019-08-19T03:26:28Z</time>
      </trkpt>
      <trkpt lat="42.290611" lon="2.160882">
        <ele>897.1</ele>
        <time>2019-08-19T03:26:29Z</time>
      </trkpt>
      <trkpt lat="42.290649" lon="2.16089">
        <ele>897.1</ele>
        <time>2019-08-19T03:26:30Z</time>
      </trkpt>
      <trkpt lat="42.290689" lon="2.160896">
        <ele>897.1</ele>
        <time>2019-08-19T03:26:31Z</time>
      </trkpt>
      <trkpt lat="42.290729" lon="2.160902">
        <ele>897.2</ele>
        <time>2019-08-19T03:26:32Z</time>
      </trkpt>
      <trkpt lat="42.290769" lon="2.160914">
        <ele>897.2</ele>
        <time>2019-08-19T03:26:33Z</time>
      </trkpt>
      <trkpt lat="42.290805" lon="2.160933">
        <ele>897.2</ele>
        <time>2019-08-19T03:26:34Z</time>
      </trkpt>
      <trkpt lat="42.290843" lon="2.160952">
        <ele>897.3</ele>
        <time>2019-08-19T03:26:35Z</time>
      </trkpt>
      <trkpt lat="42.290879" lon="2.160965">
        <ele>897.3</ele>
        <time>2019-08-19T03:26:36Z</time>
      </trkpt>
      <trkpt lat="42.290913" lon="2.160981">
        <ele>897.3</ele>
        <time>2019-08-19T03:26:37Z</time>
      </trkpt>
      <trkpt lat="42.290955" lon="2.160993">
        <ele>897.4</ele>
        <time>2019-08-19T03:26:38Z</time>
      </trkpt>
      <trkpt lat="42.290992" lon="2.161006">
        <ele>897.4</ele>
        <time>2019-08-19T03:26:39Z</time>
      </trkpt>
      <trkpt lat="42.291032" lon="2.161015">
        <ele>897.4</ele>
        <time>2019-08-19T03:26:40Z</time>
      </trkpt>
      <trkpt lat="42.291074" lon="2.16102">
        <ele>897.5</ele>
        <time>2019-08-19T03:26:41Z</time>
      </trkpt>
      <trkpt lat="42.29111" lon="2.161025">
        <ele>897.6</ele>
        <time>2019-08-19T03:26:42Z</time>
      </trkpt>
      <trkpt lat="42.291144" lon="2.161029">
        <ele>897.7</ele>
        <time>2019-08-19T03:26:43Z</time>
      </trkpt>
      <trkpt lat="42.291179" lon="2.161035">
        <ele>897.8</ele>
        <time>2019-08-19T03:26:44Z</time>
      </trkpt>
      <trkpt lat="42.291217" lon="2.161041">
        <ele>898</ele>
        <time>2019-08-19T03:26:45Z</time>
      </trkpt>
      <trkpt lat="42.291265" lon="2.161041">
        <ele>898.1</ele>
        <time>2019-08-19T03:26:46Z</time>
      </trkpt>
      <trkpt lat="42.291313" lon="2.161038">
        <ele>898.3</ele>
        <time>2019-08-19T03:26:47Z</time>
      </trkpt>
      <trkpt lat="42.291357" lon="2.161033">
        <ele>898.5</ele>
        <time>2019-08-19T03:26:48Z</time>
      </trkpt>
      <trkpt lat="42.291398" lon="2.161028">
        <ele>898.6</ele>
        <time>2019-08-19T03:26:49Z</time>
      </trkpt>
      <trkpt lat="42.291441" lon="2.161018">
        <ele>898.8</ele>
        <time>2019-08-19T03:26:50Z</time>
      </trkpt>
      <trkpt lat="42.291484" lon="2.161005">
        <ele>898.9</ele>
        <time>2019-08-19T03:26:51Z</time>
      </trkpt>
      <trkpt lat="42.291529" lon="2.160989">
        <ele>899.1</ele>
        <time>2019-08-19T03:26:52Z</time>
      </trkpt>
      <trkpt lat="42.291576" lon="2.160974">
        <ele>899.5</ele>
        <time>2019-08-19T03:26:53Z</time>
      </trkpt>
      <trkpt lat="42.291625" lon="2.160959">
        <ele>899.5</ele>
        <time>2019-08-19T03:26:54Z</time>
      </trkpt>
      <trkpt lat="42.291699" lon="2.160874">
        <ele>899.6</ele>
        <time>2019-08-19T03:26:55Z</time>
      </trkpt>
      <trkpt lat="42.291747" lon="2.160857">
        <ele>899.6</ele>
        <time>2019-08-19T03:26:56Z</time>
      </trkpt>
      <trkpt lat="42.291789" lon="2.160833">
        <ele>899.6</ele>
        <time>2019-08-19T03:26:57Z</time>
      </trkpt>
      <trkpt lat="42.291826" lon="2.160814">
        <ele>899.6</ele>
        <time>2019-08-19T03:26:58Z</time>
      </trkpt>
      <trkpt lat="42.291874" lon="2.160787">
        <ele>899.7</ele>
        <time>2019-08-19T03:26:59Z</time>
      </trkpt>
      <trkpt lat="42.291946" lon="2.160765">
        <ele>899.7</ele>
        <time>2019-08-19T03:27:00Z</time>
      </trkpt>
      <trkpt lat="42.291995" lon="2.160758">
        <ele>899.7</ele>
        <time>2019-08-19T03:27:01Z</time>
      </trkpt>
      <trkpt lat="42.292036" lon="2.160748">
        <ele>899.8</ele>
        <time>2019-08-19T03:27:02Z</time>
      </trkpt>
      <trkpt lat="42.292078" lon="2.160745">
        <ele>899.8</ele>
        <time>2019-08-19T03:27:03Z</time>
      </trkpt>
      <trkpt lat="42.29212" lon="2.160742">
        <ele>899.8</ele>
        <time>2019-08-19T03:27:04Z</time>
      </trkpt>
      <trkpt lat="42.292163" lon="2.160746">
        <ele>899.8</ele>
        <time>2019-08-19T03:27:05Z</time>
      </trkpt>
      <trkpt lat="42.292211" lon="2.160751">
        <ele>899.9</ele>
        <time>2019-08-19T03:27:06Z</time>
      </trkpt>
      <trkpt lat="42.292268" lon="2.160759">
        <ele>899.9</ele>
        <time>2019-08-19T03:27:07Z</time>
      </trkpt>
      <trkpt lat="42.292323" lon="2.160773">
        <ele>899.9</ele>
        <time>2019-08-19T03:27:08Z</time>
      </trkpt>
      <trkpt lat="42.292375" lon="2.160791">
        <ele>900</ele>
        <time>2019-08-19T03:27:09Z</time>
      </trkpt>
      <trkpt lat="42.292425" lon="2.160815">
        <ele>900</ele>
        <time>2019-08-19T03:27:10Z</time>
      </trkpt>
      <trkpt lat="42.292474" lon="2.160833">
        <ele>900.1</ele>
        <time>2019-08-19T03:27:11Z</time>
      </trkpt>
      <trkpt lat="42.292541" lon="2.160858">
        <ele>900.1</ele>
        <time>2019-08-19T03:27:12Z</time>
      </trkpt>
      <trkpt lat="42.292577" lon="2.16087">
        <ele>900.1</ele>
        <time>2019-08-19T03:27:13Z</time>
      </trkpt>
      <trkpt lat="42.292618" lon="2.160892">
        <ele>900.2</ele>
        <time>2019-08-19T03:27:14Z</time>
      </trkpt>
      <trkpt lat="42.292661" lon="2.160911">
        <ele>900.2</ele>
        <time>2019-08-19T03:27:15Z</time>
      </trkpt>
      <trkpt lat="42.292702" lon="2.160935">
        <ele>900.2</ele>
        <time>2019-08-19T03:27:16Z</time>
      </trkpt>
      <trkpt lat="42.292744" lon="2.160958">
        <ele>900.3</ele>
        <time>2019-08-19T03:27:17Z</time>
      </trkpt>
      <trkpt lat="42.292787" lon="2.160984">
        <ele>900.3</ele>
        <time>2019-08-19T03:27:18Z</time>
      </trkpt>
      <trkpt lat="42.292831" lon="2.161009">
        <ele>900.4</ele>
        <time>2019-08-19T03:27:19Z</time>
      </trkpt>
      <trkpt lat="42.292863" lon="2.161033">
        <ele>900.4</ele>
        <time>2019-08-19T03:27:20Z</time>
      </trkpt>
      <trkpt lat="42.292888" lon="2.161059">
        <ele>900.4</ele>
        <time>2019-08-19T03:27:21Z</time>
      </trkpt>
      <trkpt lat="42.292928" lon="2.161079">
        <ele>900.5</ele>
        <time>2019-08-19T03:27:22Z</time>
      </trkpt>
      <trkpt lat="42.292967" lon="2.161102">
        <ele>900.5</ele>
        <time>2019-08-19T03:27:23Z</time>
      </trkpt>
      <trkpt lat="42.293027" lon="2.161133">
        <ele>900.6</ele>
        <time>2019-08-19T03:27:24Z</time>
      </trkpt>
      <trkpt lat="42.293061" lon="2.161169">
        <ele>900.6</ele>
        <time>2019-08-19T03:27:25Z</time>
      </trkpt>
      <trkpt lat="42.2931" lon="2.161205">
        <ele>900.7</ele>
        <time>2019-08-19T03:27:26Z</time>
      </trkpt>
      <trkpt lat="42.293151" lon="2.161235">
        <ele>900.8</ele>
        <time>2019-08-19T03:27:27Z</time>
      </trkpt>
      <trkpt lat="42.293183" lon="2.161257">
        <ele>900.8</ele>
        <time>2019-08-19T03:27:28Z</time>
      </trkpt>
      <trkpt lat="42.293215" lon="2.161291">
        <ele>900.8</ele>
        <time>2019-08-19T03:27:30Z</time>
      </trkpt>
      <trkpt lat="42.293241" lon="2.161328">
        <ele>900.9</ele>
        <time>2019-08-19T03:27:32Z</time>
      </trkpt>
      <trkpt lat="42.293273" lon="2.161385">
        <ele>900.9</ele>
        <time>2019-08-19T03:27:34Z</time>
      </trkpt>
      <trkpt lat="42.293294" lon="2.161421">
        <ele>900.9</ele>
        <time>2019-08-19T03:27:35Z</time>
      </trkpt>
      <trkpt lat="42.293318" lon="2.161461">
        <ele>901</ele>
        <time>2019-08-19T03:27:36Z</time>
      </trkpt>
      <trkpt lat="42.293352" lon="2.161497">
        <ele>901</ele>
        <time>2019-08-19T03:27:37Z</time>
      </trkpt>
      <trkpt lat="42.293388" lon="2.161535">
        <ele>901</ele>
        <time>2019-08-19T03:27:38Z</time>
      </trkpt>
      <trkpt lat="42.293432" lon="2.161582">
        <ele>901</ele>
        <time>2019-08-19T03:27:39Z</time>
      </trkpt>
      <trkpt lat="42.293477" lon="2.161632">
        <ele>901.1</ele>
        <time>2019-08-19T03:27:40Z</time>
      </trkpt>
      <trkpt lat="42.293521" lon="2.161685">
        <ele>901.1</ele>
        <time>2019-08-19T03:27:41Z</time>
      </trkpt>
      <trkpt lat="42.293566" lon="2.161747">
        <ele>901.1</ele>
        <time>2019-08-19T03:27:42Z</time>
      </trkpt>
      <trkpt lat="42.293751" lon="2.162009">
        <ele>901.2</ele>
        <time>2019-08-19T03:27:44Z</time>
      </trkpt>
      <trkpt lat="42.293783" lon="2.16207">
        <ele>901.2</ele>
        <time>2019-08-19T03:27:45Z</time>
      </trkpt>
      <trkpt lat="42.293817" lon="2.162135">
        <ele>901.2</ele>
        <time>2019-08-19T03:27:46Z</time>
      </trkpt>
      <trkpt lat="42.293848" lon="2.1622">
        <ele>901.3</ele>
        <time>2019-08-19T03:27:47Z</time>
      </trkpt>
      <trkpt lat="42.293876" lon="2.16226">
        <ele>901.3</ele>
        <time>2019-08-19T03:27:48Z</time>
      </trkpt>
      <trkpt lat="42.2939" lon="2.162316">
        <ele>901.3</ele>
        <time>2019-08-19T03:27:49Z</time>
      </trkpt>
      <trkpt lat="42.293922" lon="2.162372">
        <ele>901.3</ele>
        <time>2019-08-19T03:27:50Z</time>
      </trkpt>
      <trkpt lat="42.29394" lon="2.162444">
        <ele>901.4</ele>
        <time>2019-08-19T03:27:51Z</time>
      </trkpt>
      <trkpt lat="42.293977" lon="2.162523">
        <ele>901.4</ele>
        <time>2019-08-19T03:27:52Z</time>
      </trkpt>
      <trkpt lat="42.293991" lon="2.162584">
        <ele>901.5</ele>
        <time>2019-08-19T03:27:53Z</time>
      </trkpt>
      <trkpt lat="42.294013" lon="2.162644">
        <ele>901.5</ele>
        <time>2019-08-19T03:27:54Z</time>
      </trkpt>
      <trkpt lat="42.294044" lon="2.162701">
        <ele>901.6</ele>
        <time>2019-08-19T03:27:55Z</time>
      </trkpt>
      <trkpt lat="42.29407" lon="2.162774">
        <ele>901.6</ele>
        <time>2019-08-19T03:27:56Z</time>
      </trkpt>
      <trkpt lat="42.294077" lon="2.162822">
        <ele>901.7</ele>
        <time>2019-08-19T03:27:57Z</time>
      </trkpt>
      <trkpt lat="42.294094" lon="2.162875">
        <ele>901.8</ele>
        <time>2019-08-19T03:27:58Z</time>
      </trkpt>
      <trkpt lat="42.294111" lon="2.162936">
        <ele>901.9</ele>
        <time>2019-08-19T03:27:59Z</time>
      </trkpt>
      <trkpt lat="42.29413" lon="2.163002">
        <ele>902</ele>
        <time>2019-08-19T03:28:00Z</time>
      </trkpt>
      <trkpt lat="42.294146" lon="2.163068">
        <ele>902.1</ele>
        <time>2019-08-19T03:28:01Z</time>
      </trkpt>
      <trkpt lat="42.294151" lon="2.163121">
        <ele>902.2</ele>
        <time>2019-08-19T03:28:02Z</time>
      </trkpt>
      <trkpt lat="42.294172" lon="2.163177">
        <ele>902.3</ele>
        <time>2019-08-19T03:28:03Z</time>
      </trkpt>
      <trkpt lat="42.294172" lon="2.163225">
        <ele>902.4</ele>
        <time>2019-08-19T03:28:04Z</time>
      </trkpt>
      <trkpt lat="42.294196" lon="2.163285">
        <ele>902.6</ele>
        <time>2019-08-19T03:28:05Z</time>
      </trkpt>
      <trkpt lat="42.294232" lon="2.163363">
        <ele>902.8</ele>
        <time>2019-08-19T03:28:06Z</time>
      </trkpt>
      <trkpt lat="42.294263" lon="2.163416">
        <ele>903</ele>
        <time>2019-08-19T03:28:07Z</time>
      </trkpt>
      <trkpt lat="42.294284" lon="2.163469">
        <ele>903.1</ele>
        <time>2019-08-19T03:28:08Z</time>
      </trkpt>
      <trkpt lat="42.294299" lon="2.163526">
        <ele>903.3</ele>
        <time>2019-08-19T03:28:09Z</time>
      </trkpt>
      <trkpt lat="42.294318" lon="2.163582">
        <ele>903.5</ele>
        <time>2019-08-19T03:28:10Z</time>
      </trkpt>
      <trkpt lat="42.294335" lon="2.163635">
        <ele>903.6</ele>
        <time>2019-08-19T03:28:11Z</time>
      </trkpt>
      <trkpt lat="42.294356" lon="2.163693">
        <ele>903.8</ele>
        <time>2019-08-19T03:28:12Z</time>
      </trkpt>
      <trkpt lat="42.294375" lon="2.163754">
        <ele>903.9</ele>
        <time>2019-08-19T03:28:13Z</time>
      </trkpt>
      <trkpt lat="42.294393" lon="2.16381">
        <ele>904.1</ele>
        <time>2019-08-19T03:28:14Z</time>
      </trkpt>
      <trkpt lat="42.294413" lon="2.163862">
        <ele>904.2</ele>
        <time>2019-08-19T03:28:15Z</time>
      </trkpt>
      <trkpt lat="42.294441" lon="2.163926">
        <ele>904.4</ele>
        <time>2019-08-19T03:28:16Z</time>
      </trkpt>
      <trkpt lat="42.294462" lon="2.163974">
        <ele>904.5</ele>
        <time>2019-08-19T03:28:17Z</time>
      </trkpt>
      <trkpt lat="42.294485" lon="2.164041">
        <ele>904.7</ele>
        <time>2019-08-19T03:28:18Z</time>
      </trkpt>
      <trkpt lat="42.294503" lon="2.164093">
        <ele>904.8</ele>
        <time>2019-08-19T03:28:19Z</time>
      </trkpt>
      <trkpt lat="42.294521" lon="2.164149">
        <ele>904.9</ele>
        <time>2019-08-19T03:28:20Z</time>
      </trkpt>
      <trkpt lat="42.294539" lon="2.164198">
        <ele>905</ele>
        <time>2019-08-19T03:28:21Z</time>
      </trkpt>
      <trkpt lat="42.294558" lon="2.164252">
        <ele>905.1</ele>
        <time>2019-08-19T03:28:22Z</time>
      </trkpt>
      <trkpt lat="42.294581" lon="2.164306">
        <ele>905.2</ele>
        <time>2019-08-19T03:28:23Z</time>
      </trkpt>
      <trkpt lat="42.294611" lon="2.164363">
        <ele>905.4</ele>
        <time>2019-08-19T03:28:24Z</time>
      </trkpt>
      <trkpt lat="42.294649" lon="2.16438">
        <ele>905.5</ele>
        <time>2019-08-19T03:28:25Z</time>
      </trkpt>
      <trkpt lat="42.294684" lon="2.164437">
        <ele>905.6</ele>
        <time>2019-08-19T03:28:26Z</time>
      </trkpt>
      <trkpt lat="42.294706" lon="2.164477">
        <ele>905.7</ele>
        <time>2019-08-19T03:28:27Z</time>
      </trkpt>
      <trkpt lat="42.294731" lon="2.164521">
        <ele>905.8</ele>
        <time>2019-08-19T03:28:29Z</time>
      </trkpt>
      <trkpt lat="42.294755" lon="2.16455">
        <ele>905.9</ele>
        <time>2019-08-19T03:28:30Z</time>
      </trkpt>
      <trkpt lat="42.294793" lon="2.164591">
        <ele>906</ele>
        <time>2019-08-19T03:28:31Z</time>
      </trkpt>
      <trkpt lat="42.294863" lon="2.164645">
        <ele>906.1</ele>
        <time>2019-08-19T03:28:32Z</time>
      </trkpt>
      <trkpt lat="42.294959" lon="2.164713">
        <ele>906.3</ele>
        <time>2019-08-19T03:28:33Z</time>
      </trkpt>
      <trkpt lat="42.294996" lon="2.164735">
        <ele>906.4</ele>
        <time>2019-08-19T03:28:34Z</time>
      </trkpt>
      <trkpt lat="42.295036" lon="2.164764">
        <ele>906.5</ele>
        <time>2019-08-19T03:28:35Z</time>
      </trkpt>
      <trkpt lat="42.295078" lon="2.164785">
        <ele>906.5</ele>
        <time>2019-08-19T03:28:36Z</time>
      </trkpt>
      <trkpt lat="42.295122" lon="2.16481">
        <ele>906.6</ele>
        <time>2019-08-19T03:28:37Z</time>
      </trkpt>
      <trkpt lat="42.29517" lon="2.164834">
        <ele>906.7</ele>
        <time>2019-08-19T03:28:38Z</time>
      </trkpt>
      <trkpt lat="42.295219" lon="2.164856">
        <ele>906.8</ele>
        <time>2019-08-19T03:28:39Z</time>
      </trkpt>
      <trkpt lat="42.295258" lon="2.16487">
        <ele>906.8</ele>
        <time>2019-08-19T03:28:40Z</time>
      </trkpt>
      <trkpt lat="42.295312" lon="2.16489">
        <ele>906.9</ele>
        <time>2019-08-19T03:28:41Z</time>
      </trkpt>
      <trkpt lat="42.295355" lon="2.164903">
        <ele>906.9</ele>
        <time>2019-08-19T03:28:42Z</time>
      </trkpt>
      <trkpt lat="42.295389" lon="2.164919">
        <ele>907</ele>
        <time>2019-08-19T03:28:43Z</time>
      </trkpt>
      <trkpt lat="42.295426" lon="2.164924">
        <ele>907</ele>
        <time>2019-08-19T03:28:44Z</time>
      </trkpt>
      <trkpt lat="42.295461" lon="2.164941">
        <ele>907</ele>
        <time>2019-08-19T03:28:45Z</time>
      </trkpt>
      <trkpt lat="42.295498" lon="2.16495">
        <ele>907.1</ele>
        <time>2019-08-19T03:28:46Z</time>
      </trkpt>
      <trkpt lat="42.295539" lon="2.164961">
        <ele>907.1</ele>
        <time>2019-08-19T03:28:47Z</time>
      </trkpt>
      <trkpt lat="42.29558" lon="2.164971">
        <ele>907.1</ele>
        <time>2019-08-19T03:28:48Z</time>
      </trkpt>
      <trkpt lat="42.295613" lon="2.164993">
        <ele>907.2</ele>
        <time>2019-08-19T03:28:49Z</time>
      </trkpt>
      <trkpt lat="42.29565" lon="2.165009">
        <ele>907.2</ele>
        <time>2019-08-19T03:28:50Z</time>
      </trkpt>
      <trkpt lat="42.295689" lon="2.165019">
        <ele>907.2</ele>
        <time>2019-08-19T03:28:51Z</time>
      </trkpt>
      <trkpt lat="42.295723" lon="2.165032">
        <ele>907.3</ele>
        <time>2019-08-19T03:28:52Z</time>
      </trkpt>
      <trkpt lat="42.295766" lon="2.165043">
        <ele>907.3</ele>
        <time>2019-08-19T03:28:53Z</time>
      </trkpt>
      <trkpt lat="42.295808" lon="2.165053">
        <ele>907.3</ele>
        <time>2019-08-19T03:28:54Z</time>
      </trkpt>
      <trkpt lat="42.295849" lon="2.165063">
        <ele>907.4</ele>
        <time>2019-08-19T03:28:55Z</time>
      </trkpt>
      <trkpt lat="42.29589" lon="2.165073">
        <ele>907.4</ele>
        <time>2019-08-19T03:28:56Z</time>
      </trkpt>
      <trkpt lat="42.29593" lon="2.165084">
        <ele>907.4</ele>
        <time>2019-08-19T03:28:57Z</time>
      </trkpt>
      <trkpt lat="42.29597" lon="2.165096">
        <ele>907.4</ele>
        <time>2019-08-19T03:28:58Z</time>
      </trkpt>
      <trkpt lat="42.296009" lon="2.165108">
        <ele>907.5</ele>
        <time>2019-08-19T03:28:59Z</time>
      </trkpt>
      <trkpt lat="42.296047" lon="2.165121">
        <ele>907.5</ele>
        <time>2019-08-19T03:29:00Z</time>
      </trkpt>
      <trkpt lat="42.296085" lon="2.165135">
        <ele>907.5</ele>
        <time>2019-08-19T03:29:01Z</time>
      </trkpt>
      <trkpt lat="42.296124" lon="2.16515">
        <ele>907.5</ele>
        <time>2019-08-19T03:29:02Z</time>
      </trkpt>
      <trkpt lat="42.296162" lon="2.165163">
        <ele>907.5</ele>
        <time>2019-08-19T03:29:03Z</time>
      </trkpt>
      <trkpt lat="42.296198" lon="2.165179">
        <ele>907.6</ele>
        <time>2019-08-19T03:29:04Z</time>
      </trkpt>
      <trkpt lat="42.296233" lon="2.165195">
        <ele>907.6</ele>
        <time>2019-08-19T03:29:05Z</time>
      </trkpt>
      <trkpt lat="42.296269" lon="2.16521">
        <ele>907.6</ele>
        <time>2019-08-19T03:29:06Z</time>
      </trkpt>
      <trkpt lat="42.296304" lon="2.165226">
        <ele>907.6</ele>
        <time>2019-08-19T03:29:07Z</time>
      </trkpt>
      <trkpt lat="42.296338" lon="2.165247">
        <ele>907.6</ele>
        <time>2019-08-19T03:29:08Z</time>
      </trkpt>
      <trkpt lat="42.296367" lon="2.165269">
        <ele>907.7</ele>
        <time>2019-08-19T03:29:09Z</time>
      </trkpt>
      <trkpt lat="42.296399" lon="2.165288">
        <ele>907.7</ele>
        <time>2019-08-19T03:29:10Z</time>
      </trkpt>
      <trkpt lat="42.296435" lon="2.165299">
        <ele>907.7</ele>
        <time>2019-08-19T03:29:11Z</time>
      </trkpt>
      <trkpt lat="42.296468" lon="2.165306">
        <ele>907.7</ele>
        <time>2019-08-19T03:29:12Z</time>
      </trkpt>
      <trkpt lat="42.296502" lon="2.165312">
        <ele>907.8</ele>
        <time>2019-08-19T03:29:13Z</time>
      </trkpt>
      <trkpt lat="42.296538" lon="2.165316">
        <ele>907.8</ele>
        <time>2019-08-19T03:29:14Z</time>
      </trkpt>
      <trkpt lat="42.296577" lon="2.165321">
        <ele>907.8</ele>
        <time>2019-08-19T03:29:15Z</time>
      </trkpt>
      <trkpt lat="42.296617" lon="2.165327">
        <ele>907.9</ele>
        <time>2019-08-19T03:29:16Z</time>
      </trkpt>
      <trkpt lat="42.296658" lon="2.165333">
        <ele>907.9</ele>
        <time>2019-08-19T03:29:17Z</time>
      </trkpt>
      <trkpt lat="42.2967" lon="2.165335">
        <ele>907.9</ele>
        <time>2019-08-19T03:29:18Z</time>
      </trkpt>
      <trkpt lat="42.296742" lon="2.165354">
        <ele>908</ele>
        <time>2019-08-19T03:29:19Z</time>
      </trkpt>
      <trkpt lat="42.296786" lon="2.165352">
        <ele>908</ele>
        <time>2019-08-19T03:29:20Z</time>
      </trkpt>
      <trkpt lat="42.296829" lon="2.16536">
        <ele>908.1</ele>
        <time>2019-08-19T03:29:21Z</time>
      </trkpt>
      <trkpt lat="42.296872" lon="2.165371">
        <ele>908.1</ele>
        <time>2019-08-19T03:29:22Z</time>
      </trkpt>
      <trkpt lat="42.296926" lon="2.165379">
        <ele>908.2</ele>
        <time>2019-08-19T03:29:23Z</time>
      </trkpt>
      <trkpt lat="42.296969" lon="2.165387">
        <ele>908.3</ele>
        <time>2019-08-19T03:29:24Z</time>
      </trkpt>
      <trkpt lat="42.297009" lon="2.16539">
        <ele>908.3</ele>
        <time>2019-08-19T03:29:25Z</time>
      </trkpt>
      <trkpt lat="42.297049" lon="2.165393">
        <ele>908.4</ele>
        <time>2019-08-19T03:29:26Z</time>
      </trkpt>
      <trkpt lat="42.297085" lon="2.165401">
        <ele>908.5</ele>
        <time>2019-08-19T03:29:27Z</time>
      </trkpt>
      <trkpt lat="42.297121" lon="2.165403">
        <ele>908.6</ele>
        <time>2019-08-19T03:29:28Z</time>
      </trkpt>
      <trkpt lat="42.297157" lon="2.165406">
        <ele>908.7</ele>
        <time>2019-08-19T03:29:29Z</time>
      </trkpt>
      <trkpt lat="42.297194" lon="2.165406">
        <ele>908.8</ele>
        <time>2019-08-19T03:29:30Z</time>
      </trkpt>
      <trkpt lat="42.297233" lon="2.165402">
        <ele>908.9</ele>
        <time>2019-08-19T03:29:31Z</time>
      </trkpt>
      <trkpt lat="42.297272" lon="2.165398">
        <ele>909.1</ele>
        <time>2019-08-19T03:29:32Z</time>
      </trkpt>
      <trkpt lat="42.297312" lon="2.165394">
        <ele>909.2</ele>
        <time>2019-08-19T03:29:33Z</time>
      </trkpt>
      <trkpt lat="42.297351" lon="2.165395">
        <ele>909.4</ele>
        <time>2019-08-19T03:29:34Z</time>
      </trkpt>
      <trkpt lat="42.297384" lon="2.165396">
        <ele>909.6</ele>
        <time>2019-08-19T03:29:35Z</time>
      </trkpt>
      <trkpt lat="42.297419" lon="2.165396">
        <ele>909.7</ele>
        <time>2019-08-19T03:29:36Z</time>
      </trkpt>
      <trkpt lat="42.297457" lon="2.165395">
        <ele>909.9</ele>
        <time>2019-08-19T03:29:37Z</time>
      </trkpt>
      <trkpt lat="42.297494" lon="2.165396">
        <ele>910.2</ele>
        <time>2019-08-19T03:29:38Z</time>
      </trkpt>
      <trkpt lat="42.297533" lon="2.1654">
        <ele>910.4</ele>
        <time>2019-08-19T03:29:39Z</time>
      </trkpt>
      <trkpt lat="42.297571" lon="2.165405">
        <ele>910.7</ele>
        <time>2019-08-19T03:29:40Z</time>
      </trkpt>
      <trkpt lat="42.29761" lon="2.165408">
        <ele>910.9</ele>
        <time>2019-08-19T03:29:41Z</time>
      </trkpt>
      <trkpt lat="42.297648" lon="2.165414">
        <ele>911.2</ele>
        <time>2019-08-19T03:29:42Z</time>
      </trkpt>
      <trkpt lat="42.297686" lon="2.165418">
        <ele>911.5</ele>
        <time>2019-08-19T03:29:43Z</time>
      </trkpt>
      <trkpt lat="42.297726" lon="2.165422">
        <ele>911.8</ele>
        <time>2019-08-19T03:29:44Z</time>
      </trkpt>
      <trkpt lat="42.297766" lon="2.165427">
        <ele>912</ele>
        <time>2019-08-19T03:29:45Z</time>
      </trkpt>
      <trkpt lat="42.297805" lon="2.165434">
        <ele>912.3</ele>
        <time>2019-08-19T03:29:46Z</time>
      </trkpt>
      <trkpt lat="42.297846" lon="2.165438">
        <ele>912.6</ele>
        <time>2019-08-19T03:29:47Z</time>
      </trkpt>
      <trkpt lat="42.297885" lon="2.165444">
        <ele>912.9</ele>
        <time>2019-08-19T03:29:48Z</time>
      </trkpt>
      <trkpt lat="42.297927" lon="2.165452">
        <ele>913.1</ele>
        <time>2019-08-19T03:29:49Z</time>
      </trkpt>
      <trkpt lat="42.297968" lon="2.165462">
        <ele>913.4</ele>
        <time>2019-08-19T03:29:50Z</time>
      </trkpt>
      <trkpt lat="42.29801" lon="2.165473">
        <ele>913.6</ele>
        <time>2019-08-19T03:29:51Z</time>
      </trkpt>
      <trkpt lat="42.29805" lon="2.165482">
        <ele>913.8</ele>
        <time>2019-08-19T03:29:52Z</time>
      </trkpt>
      <trkpt lat="42.298089" lon="2.165493">
        <ele>914</ele>
        <time>2019-08-19T03:29:53Z</time>
      </trkpt>
      <trkpt lat="42.298127" lon="2.165501">
        <ele>914.1</ele>
        <time>2019-08-19T03:29:54Z</time>
      </trkpt>
      <trkpt lat="42.298166" lon="2.16551">
        <ele>914.3</ele>
        <time>2019-08-19T03:29:55Z</time>
      </trkpt>
      <trkpt lat="42.298206" lon="2.165518">
        <ele>914.4</ele>
        <time>2019-08-19T03:29:56Z</time>
      </trkpt>
      <trkpt lat="42.298246" lon="2.165529">
        <ele>914.6</ele>
        <time>2019-08-19T03:29:57Z</time>
      </trkpt>
      <trkpt lat="42.298286" lon="2.165541">
        <ele>914.7</ele>
        <time>2019-08-19T03:29:58Z</time>
      </trkpt>
      <trkpt lat="42.298326" lon="2.165553">
        <ele>914.8</ele>
        <time>2019-08-19T03:29:59Z</time>
      </trkpt>
      <trkpt lat="42.298366" lon="2.165568">
        <ele>915</ele>
        <time>2019-08-19T03:30:00Z</time>
      </trkpt>
      <trkpt lat="42.298406" lon="2.165584">
        <ele>915.1</ele>
        <time>2019-08-19T03:30:01Z</time>
      </trkpt>
      <trkpt lat="42.298447" lon="2.1656">
        <ele>915.2</ele>
        <time>2019-08-19T03:30:02Z</time>
      </trkpt>
      <trkpt lat="42.298484" lon="2.165621">
        <ele>915.3</ele>
        <time>2019-08-19T03:30:03Z</time>
      </trkpt>
      <trkpt lat="42.298519" lon="2.165646">
        <ele>915.5</ele>
        <time>2019-08-19T03:30:04Z</time>
      </trkpt>
      <trkpt lat="42.298555" lon="2.165669">
        <ele>915.6</ele>
        <time>2019-08-19T03:30:05Z</time>
      </trkpt>
      <trkpt lat="42.298593" lon="2.165693">
        <ele>915.7</ele>
        <time>2019-08-19T03:30:06Z</time>
      </trkpt>
      <trkpt lat="42.298629" lon="2.165721">
        <ele>915.8</ele>
        <time>2019-08-19T03:30:07Z</time>
      </trkpt>
      <trkpt lat="42.298665" lon="2.165749">
        <ele>916</ele>
        <time>2019-08-19T03:30:08Z</time>
      </trkpt>
      <trkpt lat="42.298701" lon="2.165781">
        <ele>916.1</ele>
        <time>2019-08-19T03:30:09Z</time>
      </trkpt>
      <trkpt lat="42.298737" lon="2.16581">
        <ele>916.2</ele>
        <time>2019-08-19T03:30:10Z</time>
      </trkpt>
      <trkpt lat="42.298772" lon="2.165838">
        <ele>916.3</ele>
        <time>2019-08-19T03:30:11Z</time>
      </trkpt>
      <trkpt lat="42.298808" lon="2.165867">
        <ele>916.5</ele>
        <time>2019-08-19T03:30:12Z</time>
      </trkpt>
      <trkpt lat="42.298847" lon="2.165895">
        <ele>916.6</ele>
        <time>2019-08-19T03:30:13Z</time>
      </trkpt>
      <trkpt lat="42.298889" lon="2.165919">
        <ele>916.8</ele>
        <time>2019-08-19T03:30:14Z</time>
      </trkpt>
      <trkpt lat="42.298929" lon="2.165937">
        <ele>916.9</ele>
        <time>2019-08-19T03:30:15Z</time>
      </trkpt>
      <trkpt lat="42.298968" lon="2.165951">
        <ele>917</ele>
        <time>2019-08-19T03:30:16Z</time>
      </trkpt>
      <trkpt lat="42.299006" lon="2.165973">
        <ele>917.1</ele>
        <time>2019-08-19T03:30:17Z</time>
      </trkpt>
      <trkpt lat="42.299045" lon="2.166001">
        <ele>917.2</ele>
        <time>2019-08-19T03:30:18Z</time>
      </trkpt>
      <trkpt lat="42.299088" lon="2.166038">
        <ele>917.3</ele>
        <time>2019-08-19T03:30:19Z</time>
      </trkpt>
      <trkpt lat="42.299128" lon="2.166065">
        <ele>917.4</ele>
        <time>2019-08-19T03:30:20Z</time>
      </trkpt>
      <trkpt lat="42.299159" lon="2.166091">
        <ele>917.4</ele>
        <time>2019-08-19T03:30:21Z</time>
      </trkpt>
      <trkpt lat="42.299186" lon="2.166118">
        <ele>917.4</ele>
        <time>2019-08-19T03:30:22Z</time>
      </trkpt>
      <trkpt lat="42.299236" lon="2.166151">
        <ele>917.5</ele>
        <time>2019-08-19T03:30:23Z</time>
      </trkpt>
      <trkpt lat="42.299267" lon="2.166178">
        <ele>917.5</ele>
        <time>2019-08-19T03:30:24Z</time>
      </trkpt>
      <trkpt lat="42.299294" lon="2.166198">
        <ele>917.5</ele>
        <time>2019-08-19T03:30:25Z</time>
      </trkpt>
      <trkpt lat="42.299324" lon="2.166216">
        <ele>917.5</ele>
        <time>2019-08-19T03:30:26Z</time>
      </trkpt>
      <trkpt lat="42.299361" lon="2.166233">
        <ele>917.4</ele>
        <time>2019-08-19T03:30:27Z</time>
      </trkpt>
      <trkpt lat="42.299398" lon="2.166252">
        <ele>917.4</ele>
        <time>2019-08-19T03:30:28Z</time>
      </trkpt>
      <trkpt lat="42.299427" lon="2.166267">
        <ele>917.4</ele>
        <time>2019-08-19T03:30:29Z</time>
      </trkpt>
      <trkpt lat="42.299464" lon="2.166291">
        <ele>917.4</ele>
        <time>2019-08-19T03:30:30Z</time>
      </trkpt>
      <trkpt lat="42.299498" lon="2.166304">
        <ele>917.4</ele>
        <time>2019-08-19T03:30:31Z</time>
      </trkpt>
      <trkpt lat="42.299537" lon="2.166313">
        <ele>917.3</ele>
        <time>2019-08-19T03:30:32Z</time>
      </trkpt>
      <trkpt lat="42.299573" lon="2.166323">
        <ele>917.3</ele>
        <time>2019-08-19T03:30:33Z</time>
      </trkpt>
      <trkpt lat="42.29961" lon="2.166332">
        <ele>917.3</ele>
        <time>2019-08-19T03:30:34Z</time>
      </trkpt>
      <trkpt lat="42.299647" lon="2.166343">
        <ele>917.2</ele>
        <time>2019-08-19T03:30:35Z</time>
      </trkpt>
      <trkpt lat="42.299684" lon="2.166357">
        <ele>917.2</ele>
        <time>2019-08-19T03:30:36Z</time>
      </trkpt>
      <trkpt lat="42.299719" lon="2.166371">
        <ele>917.2</ele>
        <time>2019-08-19T03:30:37Z</time>
      </trkpt>
      <trkpt lat="42.299756" lon="2.166384">
        <ele>917.1</ele>
        <time>2019-08-19T03:30:38Z</time>
      </trkpt>
      <trkpt lat="42.299792" lon="2.166398">
        <ele>917.1</ele>
        <time>2019-08-19T03:30:39Z</time>
      </trkpt>
      <trkpt lat="42.29983" lon="2.16641">
        <ele>917.1</ele>
        <time>2019-08-19T03:30:40Z</time>
      </trkpt>
      <trkpt lat="42.299869" lon="2.166419">
        <ele>917</ele>
        <time>2019-08-19T03:30:41Z</time>
      </trkpt>
      <trkpt lat="42.299907" lon="2.166426">
        <ele>917</ele>
        <time>2019-08-19T03:30:42Z</time>
      </trkpt>
      <trkpt lat="42.299945" lon="2.166436">
        <ele>917</ele>
        <time>2019-08-19T03:30:43Z</time>
      </trkpt>
      <trkpt lat="42.299981" lon="2.166447">
        <ele>916.9</ele>
        <time>2019-08-19T03:30:44Z</time>
      </trkpt>
      <trkpt lat="42.300018" lon="2.166458">
        <ele>916.9</ele>
        <time>2019-08-19T03:30:45Z</time>
      </trkpt>
      <trkpt lat="42.300055" lon="2.16647">
        <ele>916.8</ele>
        <time>2019-08-19T03:30:46Z</time>
      </trkpt>
      <trkpt lat="42.300091" lon="2.166483">
        <ele>916.8</ele>
        <time>2019-08-19T03:30:47Z</time>
      </trkpt>
      <trkpt lat="42.300127" lon="2.166494">
        <ele>916.8</ele>
        <time>2019-08-19T03:30:48Z</time>
      </trkpt>
      <trkpt lat="42.30016" lon="2.166504">
        <ele>916.7</ele>
        <time>2019-08-19T03:30:49Z</time>
      </trkpt>
      <trkpt lat="42.300189" lon="2.166515">
        <ele>916.7</ele>
        <time>2019-08-19T03:30:50Z</time>
      </trkpt>
      <trkpt lat="42.300218" lon="2.166526">
        <ele>916.7</ele>
        <time>2019-08-19T03:30:51Z</time>
      </trkpt>
      <trkpt lat="42.300248" lon="2.166537">
        <ele>916.6</ele>
        <time>2019-08-19T03:30:52Z</time>
      </trkpt>
      <trkpt lat="42.30028" lon="2.166549">
        <ele>916.6</ele>
        <time>2019-08-19T03:30:53Z</time>
      </trkpt>
      <trkpt lat="42.300303" lon="2.166576">
        <ele>916.6</ele>
        <time>2019-08-19T03:30:54Z</time>
      </trkpt>
      <trkpt lat="42.300327" lon="2.166608">
        <ele>916.5</ele>
        <time>2019-08-19T03:30:55Z</time>
      </trkpt>
      <trkpt lat="42.30036" lon="2.166632">
        <ele>916.5</ele>
        <time>2019-08-19T03:30:56Z</time>
      </trkpt>
      <trkpt lat="42.300387" lon="2.166621">
        <ele>916.5</ele>
        <time>2019-08-19T03:30:57Z</time>
      </trkpt>
      <trkpt lat="42.300418" lon="2.166605">
        <ele>916.4</ele>
        <time>2019-08-19T03:30:59Z</time>
      </trkpt>
      <trkpt lat="42.300449" lon="2.166604">
        <ele>916.4</ele>
        <time>2019-08-19T03:31:01Z</time>
      </trkpt>
      <trkpt lat="42.300494" lon="2.1666">
        <ele>916.4</ele>
        <time>2019-08-19T03:31:03Z</time>
      </trkpt>
      <trkpt lat="42.300521" lon="2.166604">
        <ele>916.3</ele>
        <time>2019-08-19T03:31:04Z</time>
      </trkpt>
      <trkpt lat="42.300552" lon="2.166614">
        <ele>916.3</ele>
        <time>2019-08-19T03:31:05Z</time>
      </trkpt>
      <trkpt lat="42.300582" lon="2.166624">
        <ele>915.9</ele>
        <time>2019-08-19T03:31:06Z</time>
      </trkpt>
      <trkpt lat="42.300614" lon="2.166633">
        <ele>915.7</ele>
        <time>2019-08-19T03:31:07Z</time>
      </trkpt>
      <trkpt lat="42.300643" lon="2.166641">
        <ele>915.5</ele>
        <time>2019-08-19T03:31:08Z</time>
      </trkpt>
      <trkpt lat="42.300671" lon="2.166648">
        <ele>915.3</ele>
        <time>2019-08-19T03:31:09Z</time>
      </trkpt>
      <trkpt lat="42.300709" lon="2.166665">
        <ele>915</ele>
        <time>2019-08-19T03:31:10Z</time>
      </trkpt>
      <trkpt lat="42.300755" lon="2.166684">
        <ele>914.7</ele>
        <time>2019-08-19T03:31:11Z</time>
      </trkpt>
      <trkpt lat="42.300802" lon="2.166706">
        <ele>914.2</ele>
        <time>2019-08-19T03:31:12Z</time>
      </trkpt>
      <trkpt lat="42.300846" lon="2.166727">
        <ele>913.8</ele>
        <time>2019-08-19T03:31:13Z</time>
      </trkpt>
      <trkpt lat="42.300899" lon="2.166754">
        <ele>913.3</ele>
        <time>2019-08-19T03:31:14Z</time>
      </trkpt>
      <trkpt lat="42.30107" lon="2.166869">
        <ele>911.6</ele>
        <time>2019-08-19T03:31:16Z</time>
      </trkpt>
      <trkpt lat="42.301293" lon="2.166907">
        <ele>910.4</ele>
        <time>2019-08-19T03:31:26Z</time>
      </trkpt>
      <trkpt lat="42.301355" lon="2.166907">
        <ele>910.1</ele>
        <time>2019-08-19T03:31:27Z</time>
      </trkpt>
      <trkpt lat="42.30146" lon="2.166934">
        <ele>909.5</ele>
        <time>2019-08-19T03:31:28Z</time>
      </trkpt>
      <trkpt lat="42.301487" lon="2.166935">
        <ele>909.4</ele>
        <time>2019-08-19T03:31:29Z</time>
      </trkpt>
      <trkpt lat="42.301529" lon="2.166931">
        <ele>909.9</ele>
        <time>2019-08-19T03:31:31Z</time>
      </trkpt>
      <trkpt lat="42.30157" lon="2.166919">
        <ele>910.2</ele>
        <time>2019-08-19T03:31:32Z</time>
      </trkpt>
      <trkpt lat="42.301618" lon="2.166902">
        <ele>910.5</ele>
        <time>2019-08-19T03:31:33Z</time>
      </trkpt>
      <trkpt lat="42.301705" lon="2.166867">
        <ele>911.3</ele>
        <time>2019-08-19T03:31:34Z</time>
      </trkpt>
      <trkpt lat="42.301774" lon="2.166903">
        <ele>912</ele>
        <time>2019-08-19T03:31:35Z</time>
      </trkpt>
      <trkpt lat="42.301827" lon="2.166876">
        <ele>912.5</ele>
        <time>2019-08-19T03:31:37Z</time>
      </trkpt>
      <trkpt lat="42.301853" lon="2.166856">
        <ele>912.7</ele>
        <time>2019-08-19T03:31:38Z</time>
      </trkpt>
      <trkpt lat="42.301892" lon="2.166841">
        <ele>913.1</ele>
        <time>2019-08-19T03:31:39Z</time>
      </trkpt>
      <trkpt lat="42.301929" lon="2.166832">
        <ele>913.5</ele>
        <time>2019-08-19T03:31:40Z</time>
      </trkpt>
      <trkpt lat="42.301967" lon="2.166822">
        <ele>913.9</ele>
        <time>2019-08-19T03:31:42Z</time>
      </trkpt>
      <trkpt lat="42.302004" lon="2.166806">
        <ele>914.3</ele>
        <time>2019-08-19T03:31:44Z</time>
      </trkpt>
      <trkpt lat="42.302035" lon="2.166789">
        <ele>914.6</ele>
        <time>2019-08-19T03:31:45Z</time>
      </trkpt>
      <trkpt lat="42.302232" lon="2.166699">
        <ele>916.9</ele>
        <time>2019-08-19T03:31:47Z</time>
      </trkpt>
      <trkpt lat="42.30226" lon="2.16668">
        <ele>917.3</ele>
        <time>2019-08-19T03:31:48Z</time>
      </trkpt>
      <trkpt lat="42.30229" lon="2.16666">
        <ele>917.7</ele>
        <time>2019-08-19T03:31:49Z</time>
      </trkpt>
      <trkpt lat="42.302354" lon="2.166625">
        <ele>918.5</ele>
        <time>2019-08-19T03:31:50Z</time>
      </trkpt>
      <trkpt lat="42.302416" lon="2.166581">
        <ele>919.3</ele>
        <time>2019-08-19T03:31:51Z</time>
      </trkpt>
      <trkpt lat="42.302458" lon="2.166566">
        <ele>919.8</ele>
        <time>2019-08-19T03:31:52Z</time>
      </trkpt>
      <trkpt lat="42.302493" lon="2.166509">
        <ele>920.5</ele>
        <time>2019-08-19T03:31:54Z</time>
      </trkpt>
      <trkpt lat="42.302506" lon="2.166471">
        <ele>920.8</ele>
        <time>2019-08-19T03:31:55Z</time>
      </trkpt>
      <trkpt lat="42.30254" lon="2.166481">
        <ele>921.2</ele>
        <time>2019-08-19T03:31:56Z</time>
      </trkpt>
      <trkpt lat="42.302571" lon="2.166464">
        <ele>921.6</ele>
        <time>2019-08-19T03:31:57Z</time>
      </trkpt>
      <trkpt lat="42.302601" lon="2.166445">
        <ele>922</ele>
        <time>2019-08-19T03:31:58Z</time>
      </trkpt>
      <trkpt lat="42.302644" lon="2.166435">
        <ele>922.5</ele>
        <time>2019-08-19T03:31:59Z</time>
      </trkpt>
      <trkpt lat="42.302688" lon="2.166425">
        <ele>923</ele>
        <time>2019-08-19T03:32:00Z</time>
      </trkpt>
      <trkpt lat="42.302734" lon="2.166421">
        <ele>923.6</ele>
        <time>2019-08-19T03:32:01Z</time>
      </trkpt>
      <trkpt lat="42.302776" lon="2.166416">
        <ele>924</ele>
        <time>2019-08-19T03:32:02Z</time>
      </trkpt>
      <trkpt lat="42.302827" lon="2.166417">
        <ele>924.6</ele>
        <time>2019-08-19T03:32:03Z</time>
      </trkpt>
      <trkpt lat="42.30294" lon="2.166444">
        <ele>925.8</ele>
        <time>2019-08-19T03:32:04Z</time>
      </trkpt>
      <trkpt lat="42.302987" lon="2.166434">
        <ele>926.3</ele>
        <time>2019-08-19T03:32:05Z</time>
      </trkpt>
      <trkpt lat="42.303038" lon="2.166466">
        <ele>926.5</ele>
        <time>2019-08-19T03:32:06Z</time>
      </trkpt>
      <trkpt lat="42.30308" lon="2.166487">
        <ele>926.6</ele>
        <time>2019-08-19T03:32:07Z</time>
      </trkpt>
      <trkpt lat="42.303119" lon="2.16652">
        <ele>926.7</ele>
        <time>2019-08-19T03:32:08Z</time>
      </trkpt>
      <trkpt lat="42.303176" lon="2.16652">
        <ele>926.8</ele>
        <time>2019-08-19T03:32:10Z</time>
      </trkpt>
      <trkpt lat="42.303228" lon="2.166529">
        <ele>927</ele>
        <time>2019-08-19T03:32:13Z</time>
      </trkpt>
      <trkpt lat="42.303297" lon="2.16655">
        <ele>927.2</ele>
        <time>2019-08-19T03:32:15Z</time>
      </trkpt>
      <trkpt lat="42.303327" lon="2.166558">
        <ele>927.2</ele>
        <time>2019-08-19T03:32:16Z</time>
      </trkpt>
      <trkpt lat="42.303362" lon="2.16657">
        <ele>927.4</ele>
        <time>2019-08-19T03:32:17Z</time>
      </trkpt>
      <trkpt lat="42.303401" lon="2.166608">
        <ele>927.5</ele>
        <time>2019-08-19T03:32:18Z</time>
      </trkpt>
      <trkpt lat="42.303441" lon="2.166641">
        <ele>927.6</ele>
        <time>2019-08-19T03:32:19Z</time>
      </trkpt>
      <trkpt lat="42.303483" lon="2.166687">
        <ele>927.8</ele>
        <time>2019-08-19T03:32:20Z</time>
      </trkpt>
      <trkpt lat="42.303613" lon="2.166782">
        <ele>928</ele>
        <time>2019-08-19T03:32:21Z</time>
      </trkpt>
      <trkpt lat="42.303667" lon="2.166825">
        <ele>928.1</ele>
        <time>2019-08-19T03:32:22Z</time>
      </trkpt>
      <trkpt lat="42.3037" lon="2.166819">
        <ele>928.1</ele>
        <time>2019-08-19T03:32:23Z</time>
      </trkpt>
      <trkpt lat="42.303752" lon="2.166887">
        <ele>928.3</ele>
        <time>2019-08-19T03:32:25Z</time>
      </trkpt>
      <trkpt lat="42.303796" lon="2.166884">
        <ele>928.3</ele>
        <time>2019-08-19T03:32:26Z</time>
      </trkpt>
      <trkpt lat="42.30384" lon="2.166919">
        <ele>928.4</ele>
        <time>2019-08-19T03:32:27Z</time>
      </trkpt>
      <trkpt lat="42.303898" lon="2.1669">
        <ele>928.5</ele>
        <time>2019-08-19T03:32:28Z</time>
      </trkpt>
      <trkpt lat="42.303947" lon="2.166902">
        <ele>928.5</ele>
        <time>2019-08-19T03:32:30Z</time>
      </trkpt>
      <trkpt lat="42.303995" lon="2.166901">
        <ele>928.5</ele>
        <time>2019-08-19T03:32:32Z</time>
      </trkpt>
      <trkpt lat="42.304025" lon="2.16691">
        <ele>928.6</ele>
        <time>2019-08-19T03:32:34Z</time>
      </trkpt>
      <trkpt lat="42.304084" lon="2.16691">
        <ele>928.6</ele>
        <time>2019-08-19T03:32:36Z</time>
      </trkpt>
      <trkpt lat="42.304124" lon="2.166909">
        <ele>928.6</ele>
        <time>2019-08-19T03:32:37Z</time>
      </trkpt>
      <trkpt lat="42.304156" lon="2.166918">
        <ele>928.6</ele>
        <time>2019-08-19T03:32:38Z</time>
      </trkpt>
      <trkpt lat="42.304188" lon="2.16693">
        <ele>928.7</ele>
        <time>2019-08-19T03:32:39Z</time>
      </trkpt>
      <trkpt lat="42.304214" lon="2.166942">
        <ele>928.7</ele>
        <time>2019-08-19T03:32:40Z</time>
      </trkpt>
      <trkpt lat="42.304242" lon="2.166951">
        <ele>928.7</ele>
        <time>2019-08-19T03:32:41Z</time>
      </trkpt>
      <trkpt lat="42.30427" lon="2.166969">
        <ele>928.7</ele>
        <time>2019-08-19T03:32:42Z</time>
      </trkpt>
      <trkpt lat="42.304304" lon="2.166965">
        <ele>928.7</ele>
        <time>2019-08-19T03:32:43Z</time>
      </trkpt>
      <trkpt lat="42.304337" lon="2.166962">
        <ele>928.8</ele>
        <time>2019-08-19T03:32:44Z</time>
      </trkpt>
      <trkpt lat="42.304368" lon="2.166959">
        <ele>928.8</ele>
        <time>2019-08-19T03:32:45Z</time>
      </trkpt>
      <trkpt lat="42.304399" lon="2.166958">
        <ele>928.8</ele>
        <time>2019-08-19T03:32:46Z</time>
      </trkpt>
      <trkpt lat="42.304429" lon="2.166958">
        <ele>928.8</ele>
        <time>2019-08-19T03:32:47Z</time>
      </trkpt>
      <trkpt lat="42.304456" lon="2.166937">
        <ele>928.8</ele>
        <time>2019-08-19T03:32:48Z</time>
      </trkpt>
      <trkpt lat="42.304726" lon="2.166875">
        <ele>928.9</ele>
        <time>2019-08-19T03:32:50Z</time>
      </trkpt>
      <trkpt lat="42.304778" lon="2.166885">
        <ele>928.9</ele>
        <time>2019-08-19T03:32:51Z</time>
      </trkpt>
      <trkpt lat="42.304826" lon="2.166888">
        <ele>928.7</ele>
        <time>2019-08-19T03:32:52Z</time>
      </trkpt>
      <trkpt lat="42.304885" lon="2.166877">
        <ele>928.5</ele>
        <time>2019-08-19T03:32:53Z</time>
      </trkpt>
      <trkpt lat="42.304936" lon="2.166884">
        <ele>928.4</ele>
        <time>2019-08-19T03:32:55Z</time>
      </trkpt>
      <trkpt lat="42.304972" lon="2.166899">
        <ele>928.3</ele>
        <time>2019-08-19T03:32:56Z</time>
      </trkpt>
      <trkpt lat="42.305004" lon="2.166884">
        <ele>928.1</ele>
        <time>2019-08-19T03:32:58Z</time>
      </trkpt>
      <trkpt lat="42.30505" lon="2.166891">
        <ele>928</ele>
        <time>2019-08-19T03:33:00Z</time>
      </trkpt>
      <trkpt lat="42.305041" lon="2.166926">
        <ele>927.9</ele>
        <time>2019-08-19T03:33:01Z</time>
      </trkpt>
      <trkpt lat="42.305069" lon="2.166968">
        <ele>927.8</ele>
        <time>2019-08-19T03:33:03Z</time>
      </trkpt>
      <trkpt lat="42.305109" lon="2.16697">
        <ele>927.7</ele>
        <time>2019-08-19T03:33:04Z</time>
      </trkpt>
      <trkpt lat="42.305151" lon="2.166958">
        <ele>927.5</ele>
        <time>2019-08-19T03:33:05Z</time>
      </trkpt>
      <trkpt lat="42.30519" lon="2.166948">
        <ele>927.4</ele>
        <time>2019-08-19T03:33:06Z</time>
      </trkpt>
      <trkpt lat="42.305219" lon="2.166943">
        <ele>927.4</ele>
        <time>2019-08-19T03:33:07Z</time>
      </trkpt>
      <trkpt lat="42.305245" lon="2.16693">
        <ele>927.3</ele>
        <time>2019-08-19T03:33:08Z</time>
      </trkpt>
      <trkpt lat="42.305296" lon="2.166918">
        <ele>927.2</ele>
        <time>2019-08-19T03:33:10Z</time>
      </trkpt>
      <trkpt lat="42.305327" lon="2.166913">
        <ele>927.1</ele>
        <time>2019-08-19T03:33:12Z</time>
      </trkpt>
      <trkpt lat="42.30538" lon="2.1669">
        <ele>927</ele>
        <time>2019-08-19T03:33:14Z</time>
      </trkpt>
      <trkpt lat="42.305414" lon="2.1669">
        <ele>926.9</ele>
        <time>2019-08-19T03:33:15Z</time>
      </trkpt>
      <trkpt lat="42.305461" lon="2.166902">
        <ele>926.9</ele>
        <time>2019-08-19T03:33:16Z</time>
      </trkpt>
      <trkpt lat="42.305512" lon="2.166907">
        <ele>926.8</ele>
        <time>2019-08-19T03:33:17Z</time>
      </trkpt>
      <trkpt lat="42.305561" lon="2.166907">
        <ele>926.8</ele>
        <time>2019-08-19T03:33:18Z</time>
      </trkpt>
      <trkpt lat="42.305607" lon="2.166936">
        <ele>926.8</ele>
        <time>2019-08-19T03:33:19Z</time>
      </trkpt>
      <trkpt lat="42.30565" lon="2.16697">
        <ele>926.7</ele>
        <time>2019-08-19T03:33:20Z</time>
      </trkpt>
      <trkpt lat="42.305695" lon="2.166998">
        <ele>926.7</ele>
        <time>2019-08-19T03:33:21Z</time>
      </trkpt>
      <trkpt lat="42.305748" lon="2.167014">
        <ele>926.7</ele>
        <time>2019-08-19T03:33:22Z</time>
      </trkpt>
      <trkpt lat="42.305806" lon="2.16701">
        <ele>926.6</ele>
        <time>2019-08-19T03:33:23Z</time>
      </trkpt>
      <trkpt lat="42.305864" lon="2.166994">
        <ele>926.5</ele>
        <time>2019-08-19T03:33:24Z</time>
      </trkpt>
      <trkpt lat="42.305918" lon="2.166978">
        <ele>926.7</ele>
        <time>2019-08-19T03:33:25Z</time>
      </trkpt>
      <trkpt lat="42.30597" lon="2.166965">
        <ele>927</ele>
        <time>2019-08-19T03:33:26Z</time>
      </trkpt>
      <trkpt lat="42.306021" lon="2.166947">
        <ele>927.2</ele>
        <time>2019-08-19T03:33:27Z</time>
      </trkpt>
      <trkpt lat="42.306072" lon="2.166928">
        <ele>927.5</ele>
        <time>2019-08-19T03:33:28Z</time>
      </trkpt>
      <trkpt lat="42.306116" lon="2.16691">
        <ele>927.7</ele>
        <time>2019-08-19T03:33:29Z</time>
      </trkpt>
      <trkpt lat="42.306161" lon="2.166893">
        <ele>927.9</ele>
        <time>2019-08-19T03:33:30Z</time>
      </trkpt>
      <trkpt lat="42.306201" lon="2.166873">
        <ele>928.3</ele>
        <time>2019-08-19T03:33:31Z</time>
      </trkpt>
      <trkpt lat="42.306229" lon="2.166858">
        <ele>928.5</ele>
        <time>2019-08-19T03:33:32Z</time>
      </trkpt>
      <trkpt lat="42.306253" lon="2.166839">
        <ele>928.6</ele>
        <time>2019-08-19T03:33:33Z</time>
      </trkpt>
      <trkpt lat="42.30628" lon="2.16682">
        <ele>928.8</ele>
        <time>2019-08-19T03:33:34Z</time>
      </trkpt>
      <trkpt lat="42.306308" lon="2.166798">
        <ele>929</ele>
        <time>2019-08-19T03:33:35Z</time>
      </trkpt>
      <trkpt lat="42.306336" lon="2.166766">
        <ele>929.3</ele>
        <time>2019-08-19T03:33:36Z</time>
      </trkpt>
      <trkpt lat="42.306359" lon="2.16673">
        <ele>929.5</ele>
        <time>2019-08-19T03:33:37Z</time>
      </trkpt>
      <trkpt lat="42.306379" lon="2.166693">
        <ele>929.7</ele>
        <time>2019-08-19T03:33:38Z</time>
      </trkpt>
      <trkpt lat="42.306404" lon="2.166652">
        <ele>930</ele>
        <time>2019-08-19T03:33:39Z</time>
      </trkpt>
      <trkpt lat="42.306432" lon="2.166614">
        <ele>930.3</ele>
        <time>2019-08-19T03:33:40Z</time>
      </trkpt>
      <trkpt lat="42.306457" lon="2.166583">
        <ele>930.5</ele>
        <time>2019-08-19T03:33:41Z</time>
      </trkpt>
      <trkpt lat="42.306485" lon="2.166547">
        <ele>930.8</ele>
        <time>2019-08-19T03:33:42Z</time>
      </trkpt>
      <trkpt lat="42.306513" lon="2.16651">
        <ele>931.1</ele>
        <time>2019-08-19T03:33:43Z</time>
      </trkpt>
      <trkpt lat="42.306538" lon="2.166478">
        <ele>931.3</ele>
        <time>2019-08-19T03:33:44Z</time>
      </trkpt>
      <trkpt lat="42.306567" lon="2.166444">
        <ele>931.6</ele>
        <time>2019-08-19T03:33:45Z</time>
      </trkpt>
      <trkpt lat="42.306597" lon="2.166413">
        <ele>931.8</ele>
        <time>2019-08-19T03:33:46Z</time>
      </trkpt>
      <trkpt lat="42.306626" lon="2.166382">
        <ele>932.1</ele>
        <time>2019-08-19T03:33:47Z</time>
      </trkpt>
      <trkpt lat="42.306654" lon="2.166343">
        <ele>932.4</ele>
        <time>2019-08-19T03:33:48Z</time>
      </trkpt>
      <trkpt lat="42.30668" lon="2.166302">
        <ele>932.7</ele>
        <time>2019-08-19T03:33:49Z</time>
      </trkpt>
      <trkpt lat="42.306704" lon="2.166262">
        <ele>932.9</ele>
        <time>2019-08-19T03:33:50Z</time>
      </trkpt>
      <trkpt lat="42.306731" lon="2.166224">
        <ele>933.2</ele>
        <time>2019-08-19T03:33:51Z</time>
      </trkpt>
      <trkpt lat="42.306761" lon="2.166182">
        <ele>933.5</ele>
        <time>2019-08-19T03:33:52Z</time>
      </trkpt>
      <trkpt lat="42.306791" lon="2.166141">
        <ele>933.7</ele>
        <time>2019-08-19T03:33:53Z</time>
      </trkpt>
      <trkpt lat="42.306822" lon="2.1661">
        <ele>934</ele>
        <time>2019-08-19T03:33:54Z</time>
      </trkpt>
      <trkpt lat="42.306853" lon="2.166059">
        <ele>934.3</ele>
        <time>2019-08-19T03:33:55Z</time>
      </trkpt>
      <trkpt lat="42.306884" lon="2.166018">
        <ele>934.6</ele>
        <time>2019-08-19T03:33:56Z</time>
      </trkpt>
      <trkpt lat="42.306908" lon="2.165992">
        <ele>934.8</ele>
        <time>2019-08-19T03:33:57Z</time>
      </trkpt>
      <trkpt lat="42.306931" lon="2.165948">
        <ele>935</ele>
        <time>2019-08-19T03:33:59Z</time>
      </trkpt>
      <trkpt lat="42.30696" lon="2.165892">
        <ele>935.3</ele>
        <time>2019-08-19T03:34:01Z</time>
      </trkpt>
      <trkpt lat="42.306987" lon="2.165854">
        <ele>935.6</ele>
        <time>2019-08-19T03:34:02Z</time>
      </trkpt>
      <trkpt lat="42.307073" lon="2.165788">
        <ele>936.2</ele>
        <time>2019-08-19T03:34:03Z</time>
      </trkpt>
      <trkpt lat="42.307089" lon="2.165752">
        <ele>936.4</ele>
        <time>2019-08-19T03:34:04Z</time>
      </trkpt>
      <trkpt lat="42.30711" lon="2.165725">
        <ele>936.5</ele>
        <time>2019-08-19T03:34:05Z</time>
      </trkpt>
      <trkpt lat="42.307144" lon="2.165691">
        <ele>936.8</ele>
        <time>2019-08-19T03:34:06Z</time>
      </trkpt>
      <trkpt lat="42.30717" lon="2.165659">
        <ele>937</ele>
        <time>2019-08-19T03:34:07Z</time>
      </trkpt>
      <trkpt lat="42.307195" lon="2.165621">
        <ele>937.2</ele>
        <time>2019-08-19T03:34:08Z</time>
      </trkpt>
      <trkpt lat="42.307217" lon="2.165587">
        <ele>937.4</ele>
        <time>2019-08-19T03:34:09Z</time>
      </trkpt>
      <trkpt lat="42.307245" lon="2.165549">
        <ele>937.7</ele>
        <time>2019-08-19T03:34:10Z</time>
      </trkpt>
      <trkpt lat="42.307262" lon="2.165515">
        <ele>937.8</ele>
        <time>2019-08-19T03:34:11Z</time>
      </trkpt>
      <trkpt lat="42.307284" lon="2.165479">
        <ele>938</ele>
        <time>2019-08-19T03:34:12Z</time>
      </trkpt>
      <trkpt lat="42.307306" lon="2.165439">
        <ele>938.3</ele>
        <time>2019-08-19T03:34:13Z</time>
      </trkpt>
      <trkpt lat="42.307327" lon="2.165396">
        <ele>938.5</ele>
        <time>2019-08-19T03:34:14Z</time>
      </trkpt>
      <trkpt lat="42.307349" lon="2.165359">
        <ele>938.7</ele>
        <time>2019-08-19T03:34:15Z</time>
      </trkpt>
      <trkpt lat="42.307373" lon="2.165324">
        <ele>938.9</ele>
        <time>2019-08-19T03:34:16Z</time>
      </trkpt>
      <trkpt lat="42.307397" lon="2.16529">
        <ele>939.1</ele>
        <time>2019-08-19T03:34:17Z</time>
      </trkpt>
      <trkpt lat="42.307423" lon="2.165256">
        <ele>939.3</ele>
        <time>2019-08-19T03:34:18Z</time>
      </trkpt>
      <trkpt lat="42.307447" lon="2.165222">
        <ele>939.5</ele>
        <time>2019-08-19T03:34:19Z</time>
      </trkpt>
      <trkpt lat="42.30747" lon="2.165189">
        <ele>939.7</ele>
        <time>2019-08-19T03:34:20Z</time>
      </trkpt>
      <trkpt lat="42.30749" lon="2.165155">
        <ele>939.9</ele>
        <time>2019-08-19T03:34:21Z</time>
      </trkpt>
      <trkpt lat="42.307514" lon="2.165115">
        <ele>940.2</ele>
        <time>2019-08-19T03:34:22Z</time>
      </trkpt>
      <trkpt lat="42.307536" lon="2.165084">
        <ele>940.5</ele>
        <time>2019-08-19T03:34:23Z</time>
      </trkpt>
      <trkpt lat="42.307557" lon="2.165059">
        <ele>941</ele>
        <time>2019-08-19T03:34:24Z</time>
      </trkpt>
      <trkpt lat="42.30758" lon="2.165033">
        <ele>941.5</ele>
        <time>2019-08-19T03:34:25Z</time>
      </trkpt>
      <trkpt lat="42.307604" lon="2.165006">
        <ele>942.1</ele>
        <time>2019-08-19T03:34:26Z</time>
      </trkpt>
      <trkpt lat="42.307628" lon="2.164978">
        <ele>942.6</ele>
        <time>2019-08-19T03:34:27Z</time>
      </trkpt>
      <trkpt lat="42.307647" lon="2.164945">
        <ele>943</ele>
        <time>2019-08-19T03:34:28Z</time>
      </trkpt>
      <trkpt lat="42.307665" lon="2.164902">
        <ele>943.5</ele>
        <time>2019-08-19T03:34:29Z</time>
      </trkpt>
      <trkpt lat="42.307684" lon="2.164855">
        <ele>944.1</ele>
        <time>2019-08-19T03:34:30Z</time>
      </trkpt>
      <trkpt lat="42.307698" lon="2.164812">
        <ele>944.5</ele>
        <time>2019-08-19T03:34:31Z</time>
      </trkpt>
      <trkpt lat="42.30772" lon="2.164773">
        <ele>944.8</ele>
        <time>2019-08-19T03:34:32Z</time>
      </trkpt>
      <trkpt lat="42.307745" lon="2.16473">
        <ele>945.2</ele>
        <time>2019-08-19T03:34:33Z</time>
      </trkpt>
      <trkpt lat="42.307767" lon="2.164692">
        <ele>945.5</ele>
        <time>2019-08-19T03:34:34Z</time>
      </trkpt>
      <trkpt lat="42.307789" lon="2.164658">
        <ele>945.7</ele>
        <time>2019-08-19T03:34:35Z</time>
      </trkpt>
      <trkpt lat="42.307812" lon="2.164624">
        <ele>945.8</ele>
        <time>2019-08-19T03:34:36Z</time>
      </trkpt>
      <trkpt lat="42.307838" lon="2.164594">
        <ele>946</ele>
        <time>2019-08-19T03:34:37Z</time>
      </trkpt>
      <trkpt lat="42.307864" lon="2.164566">
        <ele>946.1</ele>
        <time>2019-08-19T03:34:38Z</time>
      </trkpt>
      <trkpt lat="42.307891" lon="2.164541">
        <ele>946.2</ele>
        <time>2019-08-19T03:34:39Z</time>
      </trkpt>
      <trkpt lat="42.307916" lon="2.164517">
        <ele>946.3</ele>
        <time>2019-08-19T03:34:40Z</time>
      </trkpt>
      <trkpt lat="42.307955" lon="2.164478">
        <ele>946.5</ele>
        <time>2019-08-19T03:34:42Z</time>
      </trkpt>
      <trkpt lat="42.307976" lon="2.164455">
        <ele>946.6</ele>
        <time>2019-08-19T03:34:43Z</time>
      </trkpt>
      <trkpt lat="42.307997" lon="2.164425">
        <ele>946.7</ele>
        <time>2019-08-19T03:34:44Z</time>
      </trkpt>
      <trkpt lat="42.308013" lon="2.164393">
        <ele>946.8</ele>
        <time>2019-08-19T03:34:45Z</time>
      </trkpt>
      <trkpt lat="42.308029" lon="2.164364">
        <ele>947</ele>
        <time>2019-08-19T03:34:46Z</time>
      </trkpt>
      <trkpt lat="42.308064" lon="2.164318">
        <ele>946.9</ele>
        <time>2019-08-19T03:34:48Z</time>
      </trkpt>
      <trkpt lat="42.308083" lon="2.164286">
        <ele>946.8</ele>
        <time>2019-08-19T03:34:49Z</time>
      </trkpt>
      <trkpt lat="42.308103" lon="2.164256">
        <ele>946.7</ele>
        <time>2019-08-19T03:34:50Z</time>
      </trkpt>
      <trkpt lat="42.308121" lon="2.164226">
        <ele>946.6</ele>
        <time>2019-08-19T03:34:51Z</time>
      </trkpt>
      <trkpt lat="42.308151" lon="2.164174">
        <ele>946.5</ele>
        <time>2019-08-19T03:34:53Z</time>
      </trkpt>
      <trkpt lat="42.308186" lon="2.164118">
        <ele>946.3</ele>
        <time>2019-08-19T03:34:55Z</time>
      </trkpt>
      <trkpt lat="42.308208" lon="2.164089">
        <ele>946.3</ele>
        <time>2019-08-19T03:34:56Z</time>
      </trkpt>
      <trkpt lat="42.308226" lon="2.164062">
        <ele>946.2</ele>
        <time>2019-08-19T03:34:57Z</time>
      </trkpt>
      <trkpt lat="42.308249" lon="2.164002">
        <ele>946.1</ele>
        <time>2019-08-19T03:34:59Z</time>
      </trkpt>
      <trkpt lat="42.308261" lon="2.163942">
        <ele>945.9</ele>
        <time>2019-08-19T03:35:01Z</time>
      </trkpt>
      <trkpt lat="42.308251" lon="2.163891">
        <ele>945.8</ele>
        <time>2019-08-19T03:35:04Z</time>
      </trkpt>
      <trkpt lat="42.308219" lon="2.163863">
        <ele>945.7</ele>
        <time>2019-08-19T03:35:06Z</time>
      </trkpt>
      <trkpt lat="42.308192" lon="2.163882">
        <ele>945.6</ele>
        <time>2019-08-19T03:35:08Z</time>
      </trkpt>
      <trkpt lat="42.30818" lon="2.163921">
        <ele>945.6</ele>
        <time>2019-08-19T03:35:09Z</time>
      </trkpt>
      <trkpt lat="42.308172" lon="2.163964">
        <ele>945.7</ele>
        <time>2019-08-19T03:35:10Z</time>
      </trkpt>
      <trkpt lat="42.308166" lon="2.164013">
        <ele>945.8</ele>
        <time>2019-08-19T03:35:11Z</time>
      </trkpt>
      <trkpt lat="42.308158" lon="2.164055">
        <ele>946</ele>
        <time>2019-08-19T03:35:12Z</time>
      </trkpt>
      <trkpt lat="42.30815" lon="2.164101">
        <ele>946.1</ele>
        <time>2019-08-19T03:35:13Z</time>
      </trkpt>
      <trkpt lat="42.308137" lon="2.16415">
        <ele>946.3</ele>
        <time>2019-08-19T03:35:14Z</time>
      </trkpt>
      <trkpt lat="42.308119" lon="2.164195">
        <ele>946.4</ele>
        <time>2019-08-19T03:35:15Z</time>
      </trkpt>
      <trkpt lat="42.3081" lon="2.164242">
        <ele>946.6</ele>
        <time>2019-08-19T03:35:16Z</time>
      </trkpt>
      <trkpt lat="42.308083" lon="2.164284">
        <ele>946.7</ele>
        <time>2019-08-19T03:35:17Z</time>
      </trkpt>
      <trkpt lat="42.308063" lon="2.164323">
        <ele>947</ele>
        <time>2019-08-19T03:35:18Z</time>
      </trkpt>
      <trkpt lat="42.308041" lon="2.164364">
        <ele>946.9</ele>
        <time>2019-08-19T03:35:19Z</time>
      </trkpt>
      <trkpt lat="42.308013" lon="2.164404">
        <ele>946.8</ele>
        <time>2019-08-19T03:35:20Z</time>
      </trkpt>
      <trkpt lat="42.307984" lon="2.164442">
        <ele>946.5</ele>
        <time>2019-08-19T03:35:21Z</time>
      </trkpt>
      <trkpt lat="42.307956" lon="2.16448">
        <ele>946.4</ele>
        <time>2019-08-19T03:35:22Z</time>
      </trkpt>
      <trkpt lat="42.307926" lon="2.164516">
        <ele>946.3</ele>
        <time>2019-08-19T03:35:23Z</time>
      </trkpt>
      <trkpt lat="42.307896" lon="2.164551">
        <ele>946.2</ele>
        <time>2019-08-19T03:35:24Z</time>
      </trkpt>
      <trkpt lat="42.307866" lon="2.164585">
        <ele>946</ele>
        <time>2019-08-19T03:35:25Z</time>
      </trkpt>
      <trkpt lat="42.307837" lon="2.164627">
        <ele>945.8</ele>
        <time>2019-08-19T03:35:26Z</time>
      </trkpt>
      <trkpt lat="42.307807" lon="2.164689">
        <ele>945.5</ele>
        <time>2019-08-19T03:35:27Z</time>
      </trkpt>
      <trkpt lat="42.307777" lon="2.164727">
        <ele>945.2</ele>
        <time>2019-08-19T03:35:28Z</time>
      </trkpt>
      <trkpt lat="42.307739" lon="2.164766">
        <ele>944.8</ele>
        <time>2019-08-19T03:35:29Z</time>
      </trkpt>
      <trkpt lat="42.307699" lon="2.164815">
        <ele>944.2</ele>
        <time>2019-08-19T03:35:30Z</time>
      </trkpt>
      <trkpt lat="42.307671" lon="2.164888">
        <ele>943.4</ele>
        <time>2019-08-19T03:35:31Z</time>
      </trkpt>
      <trkpt lat="42.307634" lon="2.164943">
        <ele>942.7</ele>
        <time>2019-08-19T03:35:32Z</time>
      </trkpt>
      <trkpt lat="42.307597" lon="2.165014">
        <ele>941.6</ele>
        <time>2019-08-19T03:35:33Z</time>
      </trkpt>
      <trkpt lat="42.307566" lon="2.165097">
        <ele>940.5</ele>
        <time>2019-08-19T03:35:34Z</time>
      </trkpt>
      <trkpt lat="42.30754" lon="2.165177">
        <ele>940.2</ele>
        <time>2019-08-19T03:35:35Z</time>
      </trkpt>
      <trkpt lat="42.307499" lon="2.165247">
        <ele>939.9</ele>
        <time>2019-08-19T03:35:36Z</time>
      </trkpt>
      <trkpt lat="42.307457" lon="2.165316">
        <ele>939.6</ele>
        <time>2019-08-19T03:35:37Z</time>
      </trkpt>
      <trkpt lat="42.307416" lon="2.16535">
        <ele>939.4</ele>
        <time>2019-08-19T03:35:38Z</time>
      </trkpt>
      <trkpt lat="42.307371" lon="2.165416">
        <ele>939.1</ele>
        <time>2019-08-19T03:35:39Z</time>
      </trkpt>
      <trkpt lat="42.307332" lon="2.165489">
        <ele>938.8</ele>
        <time>2019-08-19T03:35:40Z</time>
      </trkpt>
      <trkpt lat="42.307294" lon="2.165556">
        <ele>938.5</ele>
        <time>2019-08-19T03:35:41Z</time>
      </trkpt>
      <trkpt lat="42.307241" lon="2.165598">
        <ele>938.2</ele>
        <time>2019-08-19T03:35:42Z</time>
      </trkpt>
      <trkpt lat="42.307184" lon="2.165662">
        <ele>937.9</ele>
        <time>2019-08-19T03:35:43Z</time>
      </trkpt>
      <trkpt lat="42.307144" lon="2.165726">
        <ele>937.6</ele>
        <time>2019-08-19T03:35:44Z</time>
      </trkpt>
      <trkpt lat="42.307098" lon="2.165778">
        <ele>937.4</ele>
        <time>2019-08-19T03:35:45Z</time>
      </trkpt>
      <trkpt lat="42.307077" lon="2.165837">
        <ele>937.1</ele>
        <time>2019-08-19T03:35:46Z</time>
      </trkpt>
      <trkpt lat="42.307031" lon="2.165888">
        <ele>936.9</ele>
        <time>2019-08-19T03:35:47Z</time>
      </trkpt>
      <trkpt lat="42.306986" lon="2.165946">
        <ele>936.6</ele>
        <time>2019-08-19T03:35:48Z</time>
      </trkpt>
      <trkpt lat="42.306936" lon="2.165988">
        <ele>936.4</ele>
        <time>2019-08-19T03:35:49Z</time>
      </trkpt>
      <trkpt lat="42.306888" lon="2.166043">
        <ele>936.1</ele>
        <time>2019-08-19T03:35:50Z</time>
      </trkpt>
      <trkpt lat="42.306845" lon="2.166108">
        <ele>935.8</ele>
        <time>2019-08-19T03:35:51Z</time>
      </trkpt>
      <trkpt lat="42.306808" lon="2.166169">
        <ele>935.5</ele>
        <time>2019-08-19T03:35:52Z</time>
      </trkpt>
      <trkpt lat="42.306769" lon="2.166218">
        <ele>935.3</ele>
        <time>2019-08-19T03:35:53Z</time>
      </trkpt>
      <trkpt lat="42.306735" lon="2.166283">
        <ele>935</ele>
        <time>2019-08-19T03:35:54Z</time>
      </trkpt>
      <trkpt lat="42.306698" lon="2.166325">
        <ele>934.8</ele>
        <time>2019-08-19T03:35:55Z</time>
      </trkpt>
      <trkpt lat="42.306674" lon="2.166358">
        <ele>934.6</ele>
        <time>2019-08-19T03:35:56Z</time>
      </trkpt>
      <trkpt lat="42.306649" lon="2.166388">
        <ele>934.5</ele>
        <time>2019-08-19T03:35:58Z</time>
      </trkpt>
      <trkpt lat="42.306599" lon="2.166441">
        <ele>934.2</ele>
        <time>2019-08-19T03:36:00Z</time>
      </trkpt>
      <trkpt lat="42.30655" lon="2.166562">
        <ele>933.7</ele>
        <time>2019-08-19T03:36:01Z</time>
      </trkpt>
      <trkpt lat="42.306497" lon="2.166699">
        <ele>933.1</ele>
        <time>2019-08-19T03:36:02Z</time>
      </trkpt>
      <trkpt lat="42.306479" lon="2.166757">
        <ele>932.9</ele>
        <time>2019-08-19T03:36:03Z</time>
      </trkpt>
      <trkpt lat="42.306433" lon="2.166796">
        <ele>932.6</ele>
        <time>2019-08-19T03:36:05Z</time>
      </trkpt>
      <trkpt lat="42.306408" lon="2.166822">
        <ele>932.4</ele>
        <time>2019-08-19T03:36:06Z</time>
      </trkpt>
      <trkpt lat="42.306377" lon="2.166781">
        <ele>932.2</ele>
        <time>2019-08-19T03:36:07Z</time>
      </trkpt>
      <trkpt lat="42.30634" lon="2.166761">
        <ele>932</ele>
        <time>2019-08-19T03:36:08Z</time>
      </trkpt>
      <trkpt lat="42.306299" lon="2.166776">
        <ele>931.8</ele>
        <time>2019-08-19T03:36:09Z</time>
      </trkpt>
      <trkpt lat="42.306261" lon="2.166786">
        <ele>931.6</ele>
        <time>2019-08-19T03:36:11Z</time>
      </trkpt>
      <trkpt lat="42.306243" lon="2.166738">
        <ele>931.4</ele>
        <time>2019-08-19T03:36:14Z</time>
      </trkpt>
      <trkpt lat="42.306252" lon="2.1667">
        <ele>931.2</ele>
        <time>2019-08-19T03:36:15Z</time>
      </trkpt>
      <trkpt lat="42.306266" lon="2.166663">
        <ele>931</ele>
        <time>2019-08-19T03:36:16Z</time>
      </trkpt>
      <trkpt lat="42.306303" lon="2.166616">
        <ele>930.8</ele>
        <time>2019-08-19T03:36:18Z</time>
      </trkpt>
      <trkpt lat="42.306334" lon="2.166561">
        <ele>930.5</ele>
        <time>2019-08-19T03:36:20Z</time>
      </trkpt>
      <trkpt lat="42.306356" lon="2.166502">
        <ele>930.3</ele>
        <time>2019-08-19T03:36:22Z</time>
      </trkpt>
      <trkpt lat="42.30637" lon="2.166444">
        <ele>930</ele>
        <time>2019-08-19T03:36:24Z</time>
      </trkpt>
      <trkpt lat="42.306334" lon="2.166478">
        <ele>929.8</ele>
        <time>2019-08-19T03:36:30Z</time>
      </trkpt>
      <trkpt lat="42.306299" lon="2.166526">
        <ele>929.5</ele>
        <time>2019-08-19T03:36:32Z</time>
      </trkpt>
      <trkpt lat="42.306277" lon="2.166584">
        <ele>929.3</ele>
        <time>2019-08-19T03:36:34Z</time>
      </trkpt>
      <trkpt lat="42.306272" lon="2.16665">
        <ele>929.1</ele>
        <time>2019-08-19T03:36:36Z</time>
      </trkpt>
      <trkpt lat="42.306269" lon="2.166697">
        <ele>928.9</ele>
        <time>2019-08-19T03:36:38Z</time>
      </trkpt>
      <trkpt lat="42.306261" lon="2.166737">
        <ele>928.8</ele>
        <time>2019-08-19T03:36:40Z</time>
      </trkpt>
      <trkpt lat="42.306239" lon="2.166783">
        <ele>928.6</ele>
        <time>2019-08-19T03:36:42Z</time>
      </trkpt>
      <trkpt lat="42.306199" lon="2.166812">
        <ele>928.4</ele>
        <time>2019-08-19T03:36:44Z</time>
      </trkpt>
      <trkpt lat="42.306147" lon="2.166833">
        <ele>928.1</ele>
        <time>2019-08-19T03:36:47Z</time>
      </trkpt>
      <trkpt lat="42.306126" lon="2.166838">
        <ele>928</ele>
        <time>2019-08-19T03:36:56Z</time>
      </trkpt>
      <trkpt lat="42.306105" lon="2.166843">
        <ele>928</ele>
        <time>2019-08-19T03:37:14Z</time>
      </trkpt>
      <trkpt lat="42.306084" lon="2.166848">
        <ele>927.6</ele>
        <time>2019-08-19T03:37:15Z</time>
      </trkpt>
      <trkpt lat="42.306044" lon="2.16684">
        <ele>927.4</ele>
        <time>2019-08-19T03:37:16Z</time>
      </trkpt>
      <trkpt lat="42.306012" lon="2.166834">
        <ele>927.3</ele>
        <time>2019-08-19T03:37:17Z</time>
      </trkpt>
      <trkpt lat="42.305959" lon="2.166829">
        <ele>927</ele>
        <time>2019-08-19T03:37:19Z</time>
      </trkpt>
      <trkpt lat="42.305933" lon="2.166815">
        <ele>926.9</ele>
        <time>2019-08-19T03:37:20Z</time>
      </trkpt>
      <trkpt lat="42.305904" lon="2.166798">
        <ele>926.8</ele>
        <time>2019-08-19T03:37:22Z</time>
      </trkpt>
      <trkpt lat="42.305879" lon="2.166842">
        <ele>926.6</ele>
        <time>2019-08-19T03:37:25Z</time>
      </trkpt>
      <trkpt lat="42.305886" lon="2.166884">
        <ele>926.5</ele>
        <time>2019-08-19T03:37:26Z</time>
      </trkpt>
      <trkpt lat="42.3059" lon="2.166924">
        <ele>926.4</ele>
        <time>2019-08-19T03:37:27Z</time>
      </trkpt>
      <trkpt lat="42.305919" lon="2.166954">
        <ele>926.2</ele>
        <time>2019-08-19T03:37:28Z</time>
      </trkpt>
      <trkpt lat="42.305948" lon="2.167003">
        <ele>926</ele>
        <time>2019-08-19T03:37:30Z</time>
      </trkpt>
      <trkpt lat="42.305969" lon="2.167056">
        <ele>925.8</ele>
        <time>2019-08-19T03:37:32Z</time>
      </trkpt>
      <trkpt lat="42.305987" lon="2.167114">
        <ele>925.6</ele>
        <time>2019-08-19T03:37:34Z</time>
      </trkpt>
      <trkpt lat="42.305995" lon="2.167163">
        <ele>925.4</ele>
        <time>2019-08-19T03:37:36Z</time>
      </trkpt>
      <trkpt lat="42.306008" lon="2.167208">
        <ele>925.2</ele>
        <time>2019-08-19T03:37:38Z</time>
      </trkpt>
      <trkpt lat="42.30602" lon="2.167262">
        <ele>925</ele>
        <time>2019-08-19T03:37:40Z</time>
      </trkpt>
      <trkpt lat="42.306031" lon="2.167322">
        <ele>924.8</ele>
        <time>2019-08-19T03:37:42Z</time>
      </trkpt>
      <trkpt lat="42.306035" lon="2.167358">
        <ele>924.7</ele>
        <time>2019-08-19T03:37:44Z</time>
      </trkpt>
      <trkpt lat="42.306041" lon="2.167418">
        <ele>924.6</ele>
        <time>2019-08-19T03:37:47Z</time>
      </trkpt>
      <trkpt lat="42.30604" lon="2.167477">
        <ele>924.5</ele>
        <time>2019-08-19T03:37:49Z</time>
      </trkpt>
      <trkpt lat="42.306034" lon="2.167527">
        <ele>924.4</ele>
        <time>2019-08-19T03:37:51Z</time>
      </trkpt>
      <trkpt lat="42.306047" lon="2.167572">
        <ele>924.3</ele>
        <time>2019-08-19T03:37:53Z</time>
      </trkpt>
      <trkpt lat="42.306045" lon="2.16763">
        <ele>924.1</ele>
        <time>2019-08-19T03:37:55Z</time>
      </trkpt>
      <trkpt lat="42.306041" lon="2.167684">
        <ele>924</ele>
        <time>2019-08-19T03:37:57Z</time>
      </trkpt>
      <trkpt lat="42.306049" lon="2.167733">
        <ele>923.9</ele>
        <time>2019-08-19T03:37:59Z</time>
      </trkpt>
      <trkpt lat="42.306055" lon="2.167785">
        <ele>923.8</ele>
        <time>2019-08-19T03:38:01Z</time>
      </trkpt>
      <trkpt lat="42.306064" lon="2.167829">
        <ele>923.8</ele>
        <time>2019-08-19T03:38:03Z</time>
      </trkpt>
      <trkpt lat="42.306078" lon="2.167869">
        <ele>923.8</ele>
        <time>2019-08-19T03:38:05Z</time>
      </trkpt>
      <trkpt lat="42.306052" lon="2.167881">
        <ele>923.8</ele>
        <time>2019-08-19T03:38:09Z</time>
      </trkpt>
      <trkpt lat="42.30602" lon="2.167887">
        <ele>923.7</ele>
        <time>2019-08-19T03:38:11Z</time>
      </trkpt>
      <trkpt lat="42.306048" lon="2.167903">
        <ele>923.7</ele>
        <time>2019-08-19T03:38:18Z</time>
      </trkpt>
      <trkpt lat="42.306053" lon="2.167948">
        <ele>923.7</ele>
        <time>2019-08-19T03:38:21Z</time>
      </trkpt>
      <trkpt lat="42.30606" lon="2.167995">
        <ele>923.6</ele>
        <time>2019-08-19T03:38:25Z</time>
      </trkpt>
      <trkpt lat="42.306081" lon="2.168042">
        <ele>923.6</ele>
        <time>2019-08-19T03:38:27Z</time>
      </trkpt>
      <trkpt lat="42.306095" lon="2.168074">
        <ele>923.6</ele>
        <time>2019-08-19T03:38:29Z</time>
      </trkpt>
      <trkpt lat="42.306097" lon="2.168111">
        <ele>923.6</ele>
        <time>2019-08-19T03:38:32Z</time>
      </trkpt>
      <trkpt lat="42.306079" lon="2.168141">
        <ele>923.6</ele>
        <time>2019-08-19T03:38:35Z</time>
      </trkpt>
      <trkpt lat="42.306086" lon="2.168182">
        <ele>923.6</ele>
        <time>2019-08-19T03:38:43Z</time>
      </trkpt>
      <trkpt lat="42.306105" lon="2.168219">
        <ele>923.7</ele>
        <time>2019-08-19T03:38:45Z</time>
      </trkpt>
      <trkpt lat="42.306139" lon="2.168246">
        <ele>923.7</ele>
        <time>2019-08-19T03:38:47Z</time>
      </trkpt>
      <trkpt lat="42.306162" lon="2.168269">
        <ele>923.7</ele>
        <time>2019-08-19T03:38:49Z</time>
      </trkpt>
      <trkpt lat="42.306178" lon="2.168319">
        <ele>923.7</ele>
        <time>2019-08-19T03:38:51Z</time>
      </trkpt>
      <trkpt lat="42.306197" lon="2.168379">
        <ele>923.7</ele>
        <time>2019-08-19T03:38:53Z</time>
      </trkpt>
      <trkpt lat="42.306211" lon="2.16842">
        <ele>923.8</ele>
        <time>2019-08-19T03:38:55Z</time>
      </trkpt>
      <trkpt lat="42.306226" lon="2.168462">
        <ele>923.8</ele>
        <time>2019-08-19T03:38:57Z</time>
      </trkpt>
      <trkpt lat="42.30623" lon="2.168515">
        <ele>923.8</ele>
        <time>2019-08-19T03:38:59Z</time>
      </trkpt>
      <trkpt lat="42.306218" lon="2.168568">
        <ele>923.8</ele>
        <time>2019-08-19T03:39:01Z</time>
      </trkpt>
      <trkpt lat="42.30624" lon="2.168614">
        <ele>923.9</ele>
        <time>2019-08-19T03:39:04Z</time>
      </trkpt>
      <trkpt lat="42.306262" lon="2.168653">
        <ele>923.9</ele>
        <time>2019-08-19T03:39:06Z</time>
      </trkpt>
      <trkpt lat="42.306278" lon="2.168696">
        <ele>923.9</ele>
        <time>2019-08-19T03:39:08Z</time>
      </trkpt>
      <trkpt lat="42.306275" lon="2.16874">
        <ele>923.9</ele>
        <time>2019-08-19T03:39:11Z</time>
      </trkpt>
      <trkpt lat="42.306242" lon="2.168761">
        <ele>923.9</ele>
        <time>2019-08-19T03:39:14Z</time>
      </trkpt>
      <trkpt lat="42.30624" lon="2.16881">
        <ele>924</ele>
        <time>2019-08-19T03:39:18Z</time>
      </trkpt>
      <trkpt lat="42.30627" lon="2.168832">
        <ele>924</ele>
        <time>2019-08-19T03:39:20Z</time>
      </trkpt>
      <trkpt lat="42.306305" lon="2.168835">
        <ele>924</ele>
        <time>2019-08-19T03:39:22Z</time>
      </trkpt>
      <trkpt lat="42.306335" lon="2.168845">
        <ele>924</ele>
        <time>2019-08-19T03:39:24Z</time>
      </trkpt>
      <trkpt lat="42.30635" lon="2.168882">
        <ele>924</ele>
        <time>2019-08-19T03:39:27Z</time>
      </trkpt>
      <trkpt lat="42.306363" lon="2.168916">
        <ele>924.1</ele>
        <time>2019-08-19T03:39:33Z</time>
      </trkpt>
      <trkpt lat="42.306398" lon="2.168896">
        <ele>924.1</ele>
        <time>2019-08-19T03:39:42Z</time>
      </trkpt>
      <trkpt lat="42.306423" lon="2.16887">
        <ele>924.1</ele>
        <time>2019-08-19T03:39:44Z</time>
      </trkpt>
      <trkpt lat="42.306439" lon="2.168908">
        <ele>924.1</ele>
        <time>2019-08-19T03:39:48Z</time>
      </trkpt>
      <trkpt lat="42.306423" lon="2.168954">
        <ele>924.2</ele>
        <time>2019-08-19T03:39:51Z</time>
      </trkpt>
      <trkpt lat="42.306394" lon="2.168961">
        <ele>924.2</ele>
        <time>2019-08-19T03:40:11Z</time>
      </trkpt>
      <trkpt lat="42.306375" lon="2.168926">
        <ele>924.1</ele>
        <time>2019-08-19T03:40:37Z</time>
      </trkpt>
      <trkpt lat="42.3064" lon="2.168964">
        <ele>924.2</ele>
        <time>2019-08-19T03:40:45Z</time>
      </trkpt>
      <trkpt lat="42.306418" lon="2.169008">
        <ele>924.2</ele>
        <time>2019-08-19T03:40:47Z</time>
      </trkpt>
      <trkpt lat="42.306437" lon="2.169048">
        <ele>924.3</ele>
        <time>2019-08-19T03:40:51Z</time>
      </trkpt>
      <trkpt lat="42.306459" lon="2.16908">
        <ele>924.3</ele>
        <time>2019-08-19T03:40:55Z</time>
      </trkpt>
      <trkpt lat="42.306491" lon="2.169071">
        <ele>924.3</ele>
        <time>2019-08-19T03:40:58Z</time>
      </trkpt>
      <trkpt lat="42.306528" lon="2.169099">
        <ele>924.4</ele>
        <time>2019-08-19T03:41:01Z</time>
      </trkpt>
      <trkpt lat="42.306549" lon="2.169131">
        <ele>924.4</ele>
        <time>2019-08-19T03:41:03Z</time>
      </trkpt>
      <trkpt lat="42.306573" lon="2.169159">
        <ele>924.4</ele>
        <time>2019-08-19T03:41:05Z</time>
      </trkpt>
      <trkpt lat="42.306597" lon="2.169182">
        <ele>924.5</ele>
        <time>2019-08-19T03:41:07Z</time>
      </trkpt>
      <trkpt lat="42.306637" lon="2.169181">
        <ele>924.5</ele>
        <time>2019-08-19T03:41:10Z</time>
      </trkpt>
      <trkpt lat="42.306669" lon="2.169176">
        <ele>924.5</ele>
        <time>2019-08-19T03:41:13Z</time>
      </trkpt>
      <trkpt lat="42.30669" lon="2.169208">
        <ele>924.6</ele>
        <time>2019-08-19T03:41:15Z</time>
      </trkpt>
      <trkpt lat="42.306709" lon="2.169246">
        <ele>924.6</ele>
        <time>2019-08-19T03:41:17Z</time>
      </trkpt>
      <trkpt lat="42.306729" lon="2.16929">
        <ele>924.7</ele>
        <time>2019-08-19T03:41:19Z</time>
      </trkpt>
      <trkpt lat="42.306756" lon="2.169331">
        <ele>924.8</ele>
        <time>2019-08-19T03:41:21Z</time>
      </trkpt>
      <trkpt lat="42.306777" lon="2.169361">
        <ele>924.8</ele>
        <time>2019-08-19T03:41:23Z</time>
      </trkpt>
      <trkpt lat="42.306802" lon="2.169396">
        <ele>924.9</ele>
        <time>2019-08-19T03:41:25Z</time>
      </trkpt>
      <trkpt lat="42.306827" lon="2.169431">
        <ele>925</ele>
        <time>2019-08-19T03:41:27Z</time>
      </trkpt>
      <trkpt lat="42.306867" lon="2.169455">
        <ele>925.1</ele>
        <time>2019-08-19T03:41:29Z</time>
      </trkpt>
      <trkpt lat="42.306891" lon="2.169472">
        <ele>925.2</ele>
        <time>2019-08-19T03:41:30Z</time>
      </trkpt>
      <trkpt lat="42.306921" lon="2.169485">
        <ele>925.3</ele>
        <time>2019-08-19T03:41:32Z</time>
      </trkpt>
      <trkpt lat="42.306955" lon="2.169508">
        <ele>925.4</ele>
        <time>2019-08-19T03:41:35Z</time>
      </trkpt>
      <trkpt lat="42.306987" lon="2.169547">
        <ele>925.5</ele>
        <time>2019-08-19T03:41:38Z</time>
      </trkpt>
      <trkpt lat="42.307024" lon="2.169586">
        <ele>925.7</ele>
        <time>2019-08-19T03:41:40Z</time>
      </trkpt>
      <trkpt lat="42.307044" lon="2.169617">
        <ele>925.8</ele>
        <time>2019-08-19T03:41:41Z</time>
      </trkpt>
      <trkpt lat="42.307062" lon="2.169651">
        <ele>925.9</ele>
        <time>2019-08-19T03:41:42Z</time>
      </trkpt>
      <trkpt lat="42.307078" lon="2.169684">
        <ele>926</ele>
        <time>2019-08-19T03:41:43Z</time>
      </trkpt>
      <trkpt lat="42.307095" lon="2.169713">
        <ele>926</ele>
        <time>2019-08-19T03:41:44Z</time>
      </trkpt>
      <trkpt lat="42.307115" lon="2.169741">
        <ele>926.1</ele>
        <time>2019-08-19T03:41:45Z</time>
      </trkpt>
      <trkpt lat="42.307134" lon="2.169771">
        <ele>926.2</ele>
        <time>2019-08-19T03:41:46Z</time>
      </trkpt>
      <trkpt lat="42.307156" lon="2.169801">
        <ele>926.3</ele>
        <time>2019-08-19T03:41:47Z</time>
      </trkpt>
      <trkpt lat="42.307179" lon="2.169824">
        <ele>926.4</ele>
        <time>2019-08-19T03:41:48Z</time>
      </trkpt>
      <trkpt lat="42.307204" lon="2.169847">
        <ele>926.5</ele>
        <time>2019-08-19T03:41:49Z</time>
      </trkpt>
      <trkpt lat="42.307229" lon="2.169868">
        <ele>926.6</ele>
        <time>2019-08-19T03:41:50Z</time>
      </trkpt>
      <trkpt lat="42.307252" lon="2.169887">
        <ele>926.7</ele>
        <time>2019-08-19T03:41:51Z</time>
      </trkpt>
      <trkpt lat="42.307275" lon="2.169905">
        <ele>926.7</ele>
        <time>2019-08-19T03:41:52Z</time>
      </trkpt>
      <trkpt lat="42.307326" lon="2.169934">
        <ele>926.8</ele>
        <time>2019-08-19T03:41:54Z</time>
      </trkpt>
      <trkpt lat="42.307363" lon="2.169947">
        <ele>926.9</ele>
        <time>2019-08-19T03:41:55Z</time>
      </trkpt>
      <trkpt lat="42.307398" lon="2.169967">
        <ele>927</ele>
        <time>2019-08-19T03:41:56Z</time>
      </trkpt>
      <trkpt lat="42.307423" lon="2.169989">
        <ele>927</ele>
        <time>2019-08-19T03:41:57Z</time>
      </trkpt>
      <trkpt lat="42.307452" lon="2.170044">
        <ele>927.1</ele>
        <time>2019-08-19T03:41:59Z</time>
      </trkpt>
      <trkpt lat="42.307473" lon="2.170094">
        <ele>927.1</ele>
        <time>2019-08-19T03:42:01Z</time>
      </trkpt>
      <trkpt lat="42.307476" lon="2.170138">
        <ele>927.2</ele>
        <time>2019-08-19T03:42:04Z</time>
      </trkpt>
      <trkpt lat="42.307504" lon="2.170148">
        <ele>927.2</ele>
        <time>2019-08-19T03:42:07Z</time>
      </trkpt>
      <trkpt lat="42.307548" lon="2.170159">
        <ele>927.2</ele>
        <time>2019-08-19T03:42:10Z</time>
      </trkpt>
      <trkpt lat="42.307586" lon="2.17018">
        <ele>927.9</ele>
        <time>2019-08-19T03:42:12Z</time>
      </trkpt>
      <trkpt lat="42.307632" lon="2.170203">
        <ele>928.3</ele>
        <time>2019-08-19T03:42:14Z</time>
      </trkpt>
      <trkpt lat="42.307676" lon="2.170219">
        <ele>928.5</ele>
        <time>2019-08-19T03:42:16Z</time>
      </trkpt>
      <trkpt lat="42.307717" lon="2.170221">
        <ele>928.7</ele>
        <time>2019-08-19T03:42:18Z</time>
      </trkpt>
      <trkpt lat="42.307774" lon="2.170238">
        <ele>929</ele>
        <time>2019-08-19T03:42:20Z</time>
      </trkpt>
      <trkpt lat="42.307815" lon="2.170258">
        <ele>929.1</ele>
        <time>2019-08-19T03:42:21Z</time>
      </trkpt>
      <trkpt lat="42.307858" lon="2.170273">
        <ele>929.3</ele>
        <time>2019-08-19T03:42:22Z</time>
      </trkpt>
      <trkpt lat="42.307905" lon="2.170288">
        <ele>929.5</ele>
        <time>2019-08-19T03:42:23Z</time>
      </trkpt>
      <trkpt lat="42.307952" lon="2.1703">
        <ele>929.7</ele>
        <time>2019-08-19T03:42:24Z</time>
      </trkpt>
      <trkpt lat="42.307992" lon="2.170298">
        <ele>930</ele>
        <time>2019-08-19T03:42:25Z</time>
      </trkpt>
      <trkpt lat="42.30809" lon="2.170226">
        <ele>931</ele>
        <time>2019-08-19T03:42:26Z</time>
      </trkpt>
      <trkpt lat="42.3081" lon="2.170188">
        <ele>931.2</ele>
        <time>2019-08-19T03:42:28Z</time>
      </trkpt>
      <trkpt lat="42.30811" lon="2.17023">
        <ele>931.3</ele>
        <time>2019-08-19T03:42:30Z</time>
      </trkpt>
      <trkpt lat="42.308113" lon="2.170274">
        <ele>931.5</ele>
        <time>2019-08-19T03:42:34Z</time>
      </trkpt>
      <trkpt lat="42.308148" lon="2.17032">
        <ele>931.8</ele>
        <time>2019-08-19T03:42:40Z</time>
      </trkpt>
      <trkpt lat="42.308193" lon="2.170333">
        <ele>929.9</ele>
        <time>2019-08-19T03:42:42Z</time>
      </trkpt>
      <trkpt lat="42.308213" lon="2.170368">
        <ele>929.6</ele>
        <time>2019-08-19T03:42:44Z</time>
      </trkpt>
      <trkpt lat="42.308237" lon="2.170327">
        <ele>929.2</ele>
        <time>2019-08-19T03:42:47Z</time>
      </trkpt>
      <trkpt lat="42.308241" lon="2.17038">
        <ele>928.9</ele>
        <time>2019-08-19T03:43:57Z</time>
      </trkpt>
      <trkpt lat="42.308245" lon="2.170428">
        <ele>928.5</ele>
        <time>2019-08-19T03:43:59Z</time>
      </trkpt>
      <trkpt lat="42.308249" lon="2.170474">
        <ele>927.6</ele>
        <time>2019-08-19T03:44:01Z</time>
      </trkpt>
      <trkpt lat="42.308253" lon="2.170521">
        <ele>927</ele>
        <time>2019-08-19T03:44:03Z</time>
      </trkpt>
      <trkpt lat="42.308273" lon="2.170563">
        <ele>926.4</ele>
        <time>2019-08-19T03:44:05Z</time>
      </trkpt>
      <trkpt lat="42.308306" lon="2.170572">
        <ele>926</ele>
        <time>2019-08-19T03:44:07Z</time>
      </trkpt>
      <trkpt lat="42.308343" lon="2.170563">
        <ele>925.9</ele>
        <time>2019-08-19T03:44:09Z</time>
      </trkpt>
      <trkpt lat="42.30838" lon="2.17056">
        <ele>925.9</ele>
        <time>2019-08-19T03:44:11Z</time>
      </trkpt>
      <trkpt lat="42.308409" lon="2.170574">
        <ele>925.9</ele>
        <time>2019-08-19T03:44:12Z</time>
      </trkpt>
      <trkpt lat="42.308445" lon="2.170593">
        <ele>925.9</ele>
        <time>2019-08-19T03:44:13Z</time>
      </trkpt>
      <trkpt lat="42.308479" lon="2.170603">
        <ele>925.9</ele>
        <time>2019-08-19T03:44:14Z</time>
      </trkpt>
      <trkpt lat="42.308515" lon="2.17061">
        <ele>925.9</ele>
        <time>2019-08-19T03:44:15Z</time>
      </trkpt>
      <trkpt lat="42.30855" lon="2.170608">
        <ele>925.8</ele>
        <time>2019-08-19T03:44:16Z</time>
      </trkpt>
      <trkpt lat="42.308584" lon="2.170606">
        <ele>925.8</ele>
        <time>2019-08-19T03:44:17Z</time>
      </trkpt>
      <trkpt lat="42.308617" lon="2.170603">
        <ele>925.8</ele>
        <time>2019-08-19T03:44:18Z</time>
      </trkpt>
      <trkpt lat="42.308646" lon="2.170612">
        <ele>925.8</ele>
        <time>2019-08-19T03:44:19Z</time>
      </trkpt>
      <trkpt lat="42.308674" lon="2.17062">
        <ele>925.8</ele>
        <time>2019-08-19T03:44:20Z</time>
      </trkpt>
      <trkpt lat="42.308701" lon="2.170631">
        <ele>925.8</ele>
        <time>2019-08-19T03:44:21Z</time>
      </trkpt>
      <trkpt lat="42.30875" lon="2.170656">
        <ele>925.5</ele>
        <time>2019-08-19T03:44:23Z</time>
      </trkpt>
      <trkpt lat="42.308775" lon="2.170684">
        <ele>925.5</ele>
        <time>2019-08-19T03:44:25Z</time>
      </trkpt>
      <trkpt lat="42.308817" lon="2.1707">
        <ele>925.5</ele>
        <time>2019-08-19T03:44:27Z</time>
      </trkpt>
      <trkpt lat="42.308853" lon="2.170698">
        <ele>925.5</ele>
        <time>2019-08-19T03:44:29Z</time>
      </trkpt>
      <trkpt lat="42.308815" lon="2.170699">
        <ele>925.5</ele>
        <time>2019-08-19T03:44:37Z</time>
      </trkpt>
      <trkpt lat="42.308786" lon="2.170708">
        <ele>925.5</ele>
        <time>2019-08-19T03:44:46Z</time>
      </trkpt>
      <trkpt lat="42.308758" lon="2.170747">
        <ele>925.5</ele>
        <time>2019-08-19T03:44:50Z</time>
      </trkpt>
      <trkpt lat="42.308775" lon="2.170795">
        <ele>925.5</ele>
        <time>2019-08-19T03:44:53Z</time>
      </trkpt>
      <trkpt lat="42.308814" lon="2.170827">
        <ele>925.5</ele>
        <time>2019-08-19T03:44:55Z</time>
      </trkpt>
      <trkpt lat="42.308962" lon="2.171136">
        <ele>925.3</ele>
        <time>2019-08-19T03:45:00Z</time>
      </trkpt>
      <trkpt lat="42.308943" lon="2.171105">
        <ele>925.2</ele>
        <time>2019-08-19T03:45:01Z</time>
      </trkpt>
      <trkpt lat="42.30899" lon="2.171235">
        <ele>925.1</ele>
        <time>2019-08-19T03:45:12Z</time>
      </trkpt>
      <trkpt lat="42.309" lon="2.171274">
        <ele>925.1</ele>
        <time>2019-08-19T03:45:13Z</time>
      </trkpt>
      <trkpt lat="42.309005" lon="2.171321">
        <ele>925.1</ele>
        <time>2019-08-19T03:45:14Z</time>
      </trkpt>
      <trkpt lat="42.308979" lon="2.171435">
        <ele>925</ele>
        <time>2019-08-19T03:45:15Z</time>
      </trkpt>
      <trkpt lat="42.3091" lon="2.171386">
        <ele>925</ele>
        <time>2019-08-19T03:45:16Z</time>
      </trkpt>
      <trkpt lat="42.309108" lon="2.171435">
        <ele>925</ele>
        <time>2019-08-19T03:45:17Z</time>
      </trkpt>
      <trkpt lat="42.309124" lon="2.171496">
        <ele>925</ele>
        <time>2019-08-19T03:45:18Z</time>
      </trkpt>
      <trkpt lat="42.309123" lon="2.171543">
        <ele>925</ele>
        <time>2019-08-19T03:45:19Z</time>
      </trkpt>
      <trkpt lat="42.309163" lon="2.171549">
        <ele>925</ele>
        <time>2019-08-19T03:45:20Z</time>
      </trkpt>
      <trkpt lat="42.309182" lon="2.171592">
        <ele>925</ele>
        <time>2019-08-19T03:45:21Z</time>
      </trkpt>
      <trkpt lat="42.309219" lon="2.171621">
        <ele>925.1</ele>
        <time>2019-08-19T03:45:23Z</time>
      </trkpt>
      <trkpt lat="42.309255" lon="2.171665">
        <ele>925.1</ele>
        <time>2019-08-19T03:45:25Z</time>
      </trkpt>
      <trkpt lat="42.309284" lon="2.171706">
        <ele>925.2</ele>
        <time>2019-08-19T03:45:27Z</time>
      </trkpt>
      <trkpt lat="42.309317" lon="2.171752">
        <ele>925.5</ele>
        <time>2019-08-19T03:45:29Z</time>
      </trkpt>
      <trkpt lat="42.309349" lon="2.171796">
        <ele>925.7</ele>
        <time>2019-08-19T03:45:31Z</time>
      </trkpt>
      <trkpt lat="42.309382" lon="2.171839">
        <ele>925.9</ele>
        <time>2019-08-19T03:45:33Z</time>
      </trkpt>
      <trkpt lat="42.309426" lon="2.171887">
        <ele>927.3</ele>
        <time>2019-08-19T03:45:35Z</time>
      </trkpt>
      <trkpt lat="42.309454" lon="2.171906">
        <ele>927.7</ele>
        <time>2019-08-19T03:45:36Z</time>
      </trkpt>
      <trkpt lat="42.309486" lon="2.171933">
        <ele>928.2</ele>
        <time>2019-08-19T03:45:37Z</time>
      </trkpt>
      <trkpt lat="42.309523" lon="2.171963">
        <ele>928.6</ele>
        <time>2019-08-19T03:45:38Z</time>
      </trkpt>
      <trkpt lat="42.309559" lon="2.172018">
        <ele>929</ele>
        <time>2019-08-19T03:45:39Z</time>
      </trkpt>
      <trkpt lat="42.309585" lon="2.172055">
        <ele>929.2</ele>
        <time>2019-08-19T03:45:40Z</time>
      </trkpt>
      <trkpt lat="42.309612" lon="2.172092">
        <ele>929.4</ele>
        <time>2019-08-19T03:45:41Z</time>
      </trkpt>
      <trkpt lat="42.309632" lon="2.172128">
        <ele>929.5</ele>
        <time>2019-08-19T03:45:42Z</time>
      </trkpt>
      <trkpt lat="42.309652" lon="2.172163">
        <ele>929.6</ele>
        <time>2019-08-19T03:45:43Z</time>
      </trkpt>
      <trkpt lat="42.309671" lon="2.172201">
        <ele>929.6</ele>
        <time>2019-08-19T03:45:44Z</time>
      </trkpt>
      <trkpt lat="42.309695" lon="2.172251">
        <ele>929.7</ele>
        <time>2019-08-19T03:45:45Z</time>
      </trkpt>
      <trkpt lat="42.309713" lon="2.172296">
        <ele>929.8</ele>
        <time>2019-08-19T03:45:46Z</time>
      </trkpt>
      <trkpt lat="42.309731" lon="2.172342">
        <ele>929.8</ele>
        <time>2019-08-19T03:45:47Z</time>
      </trkpt>
      <trkpt lat="42.309751" lon="2.172387">
        <ele>929.9</ele>
        <time>2019-08-19T03:45:48Z</time>
      </trkpt>
      <trkpt lat="42.309774" lon="2.172434">
        <ele>930</ele>
        <time>2019-08-19T03:45:49Z</time>
      </trkpt>
      <trkpt lat="42.309796" lon="2.172486">
        <ele>930.1</ele>
        <time>2019-08-19T03:45:50Z</time>
      </trkpt>
      <trkpt lat="42.30981" lon="2.172541">
        <ele>930.2</ele>
        <time>2019-08-19T03:45:51Z</time>
      </trkpt>
      <trkpt lat="42.309825" lon="2.172596">
        <ele>930.4</ele>
        <time>2019-08-19T03:45:52Z</time>
      </trkpt>
      <trkpt lat="42.309843" lon="2.172651">
        <ele>930.5</ele>
        <time>2019-08-19T03:45:53Z</time>
      </trkpt>
      <trkpt lat="42.309861" lon="2.172702">
        <ele>930.7</ele>
        <time>2019-08-19T03:45:54Z</time>
      </trkpt>
      <trkpt lat="42.309879" lon="2.17275">
        <ele>930.9</ele>
        <time>2019-08-19T03:45:55Z</time>
      </trkpt>
      <trkpt lat="42.309895" lon="2.172798">
        <ele>931.2</ele>
        <time>2019-08-19T03:45:56Z</time>
      </trkpt>
      <trkpt lat="42.30991" lon="2.172839">
        <ele>931.4</ele>
        <time>2019-08-19T03:45:57Z</time>
      </trkpt>
      <trkpt lat="42.309923" lon="2.172881">
        <ele>931.6</ele>
        <time>2019-08-19T03:45:58Z</time>
      </trkpt>
      <trkpt lat="42.309946" lon="2.172922">
        <ele>931.8</ele>
        <time>2019-08-19T03:45:59Z</time>
      </trkpt>
      <trkpt lat="42.309967" lon="2.172961">
        <ele>932.1</ele>
        <time>2019-08-19T03:46:00Z</time>
      </trkpt>
      <trkpt lat="42.309984" lon="2.173">
        <ele>932.4</ele>
        <time>2019-08-19T03:46:01Z</time>
      </trkpt>
      <trkpt lat="42.31" lon="2.173038">
        <ele>932.7</ele>
        <time>2019-08-19T03:46:02Z</time>
      </trkpt>
      <trkpt lat="42.310017" lon="2.173075">
        <ele>933.1</ele>
        <time>2019-08-19T03:46:03Z</time>
      </trkpt>
      <trkpt lat="42.310038" lon="2.173109">
        <ele>933.4</ele>
        <time>2019-08-19T03:46:04Z</time>
      </trkpt>
      <trkpt lat="42.310056" lon="2.173141">
        <ele>933.8</ele>
        <time>2019-08-19T03:46:05Z</time>
      </trkpt>
      <trkpt lat="42.31008" lon="2.173178">
        <ele>934.2</ele>
        <time>2019-08-19T03:46:06Z</time>
      </trkpt>
      <trkpt lat="42.310105" lon="2.173216">
        <ele>934.8</ele>
        <time>2019-08-19T03:46:07Z</time>
      </trkpt>
      <trkpt lat="42.310134" lon="2.173256">
        <ele>935.5</ele>
        <time>2019-08-19T03:46:08Z</time>
      </trkpt>
      <trkpt lat="42.310163" lon="2.173298">
        <ele>936.2</ele>
        <time>2019-08-19T03:46:09Z</time>
      </trkpt>
      <trkpt lat="42.310195" lon="2.173335">
        <ele>936.8</ele>
        <time>2019-08-19T03:46:10Z</time>
      </trkpt>
      <trkpt lat="42.310229" lon="2.173362">
        <ele>937.3</ele>
        <time>2019-08-19T03:46:11Z</time>
      </trkpt>
      <trkpt lat="42.310265" lon="2.173382">
        <ele>937.6</ele>
        <time>2019-08-19T03:46:12Z</time>
      </trkpt>
      <trkpt lat="42.310303" lon="2.173391">
        <ele>938</ele>
        <time>2019-08-19T03:46:13Z</time>
      </trkpt>
      <trkpt lat="42.310341" lon="2.173405">
        <ele>938.3</ele>
        <time>2019-08-19T03:46:14Z</time>
      </trkpt>
      <trkpt lat="42.310372" lon="2.173438">
        <ele>938.7</ele>
        <time>2019-08-19T03:46:15Z</time>
      </trkpt>
      <trkpt lat="42.310401" lon="2.173476">
        <ele>939</ele>
        <time>2019-08-19T03:46:16Z</time>
      </trkpt>
      <trkpt lat="42.310427" lon="2.173515">
        <ele>939.2</ele>
        <time>2019-08-19T03:46:17Z</time>
      </trkpt>
      <trkpt lat="42.310454" lon="2.173555">
        <ele>939.4</ele>
        <time>2019-08-19T03:46:18Z</time>
      </trkpt>
      <trkpt lat="42.310476" lon="2.1736">
        <ele>939.5</ele>
        <time>2019-08-19T03:46:19Z</time>
      </trkpt>
      <trkpt lat="42.310468" lon="2.173675">
        <ele>939.7</ele>
        <time>2019-08-19T03:46:20Z</time>
      </trkpt>
      <trkpt lat="42.310496" lon="2.17373">
        <ele>939.9</ele>
        <time>2019-08-19T03:46:22Z</time>
      </trkpt>
      <trkpt lat="42.310527" lon="2.173747">
        <ele>940.1</ele>
        <time>2019-08-19T03:46:23Z</time>
      </trkpt>
      <trkpt lat="42.310551" lon="2.173776">
        <ele>940.3</ele>
        <time>2019-08-19T03:46:24Z</time>
      </trkpt>
      <trkpt lat="42.31059" lon="2.173797">
        <ele>940.6</ele>
        <time>2019-08-19T03:46:26Z</time>
      </trkpt>
      <trkpt lat="42.310627" lon="2.173823">
        <ele>940.8</ele>
        <time>2019-08-19T03:46:28Z</time>
      </trkpt>
      <trkpt lat="42.310671" lon="2.173842">
        <ele>941.2</ele>
        <time>2019-08-19T03:46:30Z</time>
      </trkpt>
      <trkpt lat="42.310703" lon="2.17386">
        <ele>941.5</ele>
        <time>2019-08-19T03:46:31Z</time>
      </trkpt>
      <trkpt lat="42.310731" lon="2.173875">
        <ele>941.7</ele>
        <time>2019-08-19T03:46:32Z</time>
      </trkpt>
      <trkpt lat="42.310756" lon="2.173896">
        <ele>942</ele>
        <time>2019-08-19T03:46:33Z</time>
      </trkpt>
      <trkpt lat="42.310783" lon="2.17392">
        <ele>942.2</ele>
        <time>2019-08-19T03:46:34Z</time>
      </trkpt>
      <trkpt lat="42.310806" lon="2.173944">
        <ele>942.5</ele>
        <time>2019-08-19T03:46:35Z</time>
      </trkpt>
      <trkpt lat="42.310847" lon="2.173987">
        <ele>943</ele>
        <time>2019-08-19T03:46:37Z</time>
      </trkpt>
      <trkpt lat="42.310872" lon="2.174008">
        <ele>943.2</ele>
        <time>2019-08-19T03:46:38Z</time>
      </trkpt>
      <trkpt lat="42.310923" lon="2.174041">
        <ele>943.7</ele>
        <time>2019-08-19T03:46:40Z</time>
      </trkpt>
      <trkpt lat="42.310955" lon="2.174053">
        <ele>943.9</ele>
        <time>2019-08-19T03:46:41Z</time>
      </trkpt>
      <trkpt lat="42.310989" lon="2.174069">
        <ele>944.1</ele>
        <time>2019-08-19T03:46:42Z</time>
      </trkpt>
      <trkpt lat="42.311024" lon="2.174082">
        <ele>944.3</ele>
        <time>2019-08-19T03:46:43Z</time>
      </trkpt>
      <trkpt lat="42.311058" lon="2.174093">
        <ele>944.5</ele>
        <time>2019-08-19T03:46:44Z</time>
      </trkpt>
      <trkpt lat="42.311091" lon="2.174101">
        <ele>944.8</ele>
        <time>2019-08-19T03:46:45Z</time>
      </trkpt>
      <trkpt lat="42.311144" lon="2.174109">
        <ele>945.3</ele>
        <time>2019-08-19T03:46:47Z</time>
      </trkpt>
      <trkpt lat="42.311174" lon="2.174111">
        <ele>945.5</ele>
        <time>2019-08-19T03:46:48Z</time>
      </trkpt>
      <trkpt lat="42.311202" lon="2.174112">
        <ele>945.7</ele>
        <time>2019-08-19T03:46:49Z</time>
      </trkpt>
      <trkpt lat="42.311233" lon="2.174114">
        <ele>945.9</ele>
        <time>2019-08-19T03:46:50Z</time>
      </trkpt>
      <trkpt lat="42.311265" lon="2.174118">
        <ele>946.2</ele>
        <time>2019-08-19T03:46:51Z</time>
      </trkpt>
      <trkpt lat="42.311295" lon="2.174118">
        <ele>946.4</ele>
        <time>2019-08-19T03:46:52Z</time>
      </trkpt>
      <trkpt lat="42.311358" lon="2.17412">
        <ele>946.9</ele>
        <time>2019-08-19T03:46:54Z</time>
      </trkpt>
      <trkpt lat="42.311401" lon="2.174128">
        <ele>947.5</ele>
        <time>2019-08-19T03:46:55Z</time>
      </trkpt>
      <trkpt lat="42.31144" lon="2.174138">
        <ele>948</ele>
        <time>2019-08-19T03:46:56Z</time>
      </trkpt>
      <trkpt lat="42.311477" lon="2.174151">
        <ele>948</ele>
        <time>2019-08-19T03:46:57Z</time>
      </trkpt>
      <trkpt lat="42.311516" lon="2.174171">
        <ele>948</ele>
        <time>2019-08-19T03:46:58Z</time>
      </trkpt>
      <trkpt lat="42.31158" lon="2.174231">
        <ele>948.1</ele>
        <time>2019-08-19T03:46:59Z</time>
      </trkpt>
      <trkpt lat="42.311615" lon="2.174257">
        <ele>948.1</ele>
        <time>2019-08-19T03:47:00Z</time>
      </trkpt>
      <trkpt lat="42.31165" lon="2.174295">
        <ele>948.1</ele>
        <time>2019-08-19T03:47:01Z</time>
      </trkpt>
      <trkpt lat="42.311681" lon="2.174335">
        <ele>948.1</ele>
        <time>2019-08-19T03:47:02Z</time>
      </trkpt>
      <trkpt lat="42.311711" lon="2.174361">
        <ele>948.2</ele>
        <time>2019-08-19T03:47:03Z</time>
      </trkpt>
      <trkpt lat="42.311742" lon="2.174392">
        <ele>948.2</ele>
        <time>2019-08-19T03:47:04Z</time>
      </trkpt>
      <trkpt lat="42.31177" lon="2.174433">
        <ele>948.2</ele>
        <time>2019-08-19T03:47:06Z</time>
      </trkpt>
      <trkpt lat="42.311798" lon="2.174481">
        <ele>948.3</ele>
        <time>2019-08-19T03:47:08Z</time>
      </trkpt>
      <trkpt lat="42.311827" lon="2.174531">
        <ele>948.4</ele>
        <time>2019-08-19T03:47:10Z</time>
      </trkpt>
      <trkpt lat="42.311895" lon="2.174634">
        <ele>948.6</ele>
        <time>2019-08-19T03:47:11Z</time>
      </trkpt>
      <trkpt lat="42.31191" lon="2.174672">
        <ele>948.6</ele>
        <time>2019-08-19T03:47:12Z</time>
      </trkpt>
      <trkpt lat="42.311931" lon="2.174719">
        <ele>948.7</ele>
        <time>2019-08-19T03:47:13Z</time>
      </trkpt>
      <trkpt lat="42.311978" lon="2.174777">
        <ele>948.8</ele>
        <time>2019-08-19T03:47:15Z</time>
      </trkpt>
      <trkpt lat="42.312007" lon="2.174813">
        <ele>948.9</ele>
        <time>2019-08-19T03:47:17Z</time>
      </trkpt>
      <trkpt lat="42.312033" lon="2.17485">
        <ele>949</ele>
        <time>2019-08-19T03:47:19Z</time>
      </trkpt>
      <trkpt lat="42.312058" lon="2.174891">
        <ele>949.1</ele>
        <time>2019-08-19T03:47:21Z</time>
      </trkpt>
      <trkpt lat="42.312076" lon="2.17492">
        <ele>949.1</ele>
        <time>2019-08-19T03:47:22Z</time>
      </trkpt>
      <trkpt lat="42.312099" lon="2.174956">
        <ele>949.3</ele>
        <time>2019-08-19T03:47:23Z</time>
      </trkpt>
      <trkpt lat="42.312124" lon="2.174992">
        <ele>949.4</ele>
        <time>2019-08-19T03:47:24Z</time>
      </trkpt>
      <trkpt lat="42.312151" lon="2.175029">
        <ele>949.5</ele>
        <time>2019-08-19T03:47:25Z</time>
      </trkpt>
      <trkpt lat="42.312184" lon="2.175068">
        <ele>949.6</ele>
        <time>2019-08-19T03:47:26Z</time>
      </trkpt>
      <trkpt lat="42.31223" lon="2.175121">
        <ele>949.8</ele>
        <time>2019-08-19T03:47:27Z</time>
      </trkpt>
      <trkpt lat="42.312267" lon="2.175179">
        <ele>949.8</ele>
        <time>2019-08-19T03:47:28Z</time>
      </trkpt>
      <trkpt lat="42.312292" lon="2.17522">
        <ele>949.9</ele>
        <time>2019-08-19T03:47:29Z</time>
      </trkpt>
      <trkpt lat="42.312318" lon="2.175251">
        <ele>949.9</ele>
        <time>2019-08-19T03:47:31Z</time>
      </trkpt>
      <trkpt lat="42.312353" lon="2.175299">
        <ele>949.9</ele>
        <time>2019-08-19T03:47:33Z</time>
      </trkpt>
      <trkpt lat="42.312369" lon="2.175345">
        <ele>949.9</ele>
        <time>2019-08-19T03:47:34Z</time>
      </trkpt>
      <trkpt lat="42.312399" lon="2.175397">
        <ele>949.9</ele>
        <time>2019-08-19T03:47:36Z</time>
      </trkpt>
      <trkpt lat="42.312426" lon="2.175447">
        <ele>949.8</ele>
        <time>2019-08-19T03:47:37Z</time>
      </trkpt>
      <trkpt lat="42.312449" lon="2.175485">
        <ele>949.8</ele>
        <time>2019-08-19T03:47:38Z</time>
      </trkpt>
      <trkpt lat="42.312468" lon="2.175514">
        <ele>949.8</ele>
        <time>2019-08-19T03:47:39Z</time>
      </trkpt>
      <trkpt lat="42.312486" lon="2.175546">
        <ele>949.8</ele>
        <time>2019-08-19T03:47:40Z</time>
      </trkpt>
      <trkpt lat="42.312505" lon="2.175577">
        <ele>949.7</ele>
        <time>2019-08-19T03:47:41Z</time>
      </trkpt>
      <trkpt lat="42.312524" lon="2.175606">
        <ele>949.7</ele>
        <time>2019-08-19T03:47:42Z</time>
      </trkpt>
      <trkpt lat="42.312556" lon="2.175652">
        <ele>949.7</ele>
        <time>2019-08-19T03:47:44Z</time>
      </trkpt>
      <trkpt lat="42.312586" lon="2.175707">
        <ele>949.6</ele>
        <time>2019-08-19T03:47:46Z</time>
      </trkpt>
      <trkpt lat="42.312585" lon="2.175752">
        <ele>949.6</ele>
        <time>2019-08-19T03:47:48Z</time>
      </trkpt>
      <trkpt lat="42.312557" lon="2.175791">
        <ele>949.6</ele>
        <time>2019-08-19T03:47:50Z</time>
      </trkpt>
      <trkpt lat="42.312535" lon="2.175817">
        <ele>949.6</ele>
        <time>2019-08-19T03:47:51Z</time>
      </trkpt>
      <trkpt lat="42.312511" lon="2.17585">
        <ele>949.6</ele>
        <time>2019-08-19T03:47:52Z</time>
      </trkpt>
      <trkpt lat="42.312483" lon="2.17588">
        <ele>949.6</ele>
        <time>2019-08-19T03:47:53Z</time>
      </trkpt>
      <trkpt lat="42.312452" lon="2.175913">
        <ele>949.7</ele>
        <time>2019-08-19T03:47:54Z</time>
      </trkpt>
      <trkpt lat="42.312428" lon="2.175932">
        <ele>949.7</ele>
        <time>2019-08-19T03:47:55Z</time>
      </trkpt>
      <trkpt lat="42.312397" lon="2.175944">
        <ele>949.7</ele>
        <time>2019-08-19T03:47:57Z</time>
      </trkpt>
      <trkpt lat="42.312359" lon="2.175953">
        <ele>949.8</ele>
        <time>2019-08-19T03:47:59Z</time>
      </trkpt>
      <trkpt lat="42.312311" lon="2.175971">
        <ele>949.9</ele>
        <time>2019-08-19T03:48:01Z</time>
      </trkpt>
      <trkpt lat="42.312289" lon="2.175993">
        <ele>949.9</ele>
        <time>2019-08-19T03:48:02Z</time>
      </trkpt>
      <trkpt lat="42.312271" lon="2.176027">
        <ele>949.9</ele>
        <time>2019-08-19T03:48:03Z</time>
      </trkpt>
      <trkpt lat="42.312257" lon="2.176067">
        <ele>950</ele>
        <time>2019-08-19T03:48:04Z</time>
      </trkpt>
      <trkpt lat="42.312249" lon="2.176112">
        <ele>950</ele>
        <time>2019-08-19T03:48:05Z</time>
      </trkpt>
      <trkpt lat="42.312247" lon="2.176156">
        <ele>950.1</ele>
        <time>2019-08-19T03:48:06Z</time>
      </trkpt>
      <trkpt lat="42.312247" lon="2.176202">
        <ele>950.1</ele>
        <time>2019-08-19T03:48:07Z</time>
      </trkpt>
      <trkpt lat="42.312247" lon="2.176244">
        <ele>950.1</ele>
        <time>2019-08-19T03:48:08Z</time>
      </trkpt>
      <trkpt lat="42.312249" lon="2.176287">
        <ele>950</ele>
        <time>2019-08-19T03:48:09Z</time>
      </trkpt>
      <trkpt lat="42.312253" lon="2.176333">
        <ele>950</ele>
        <time>2019-08-19T03:48:10Z</time>
      </trkpt>
      <trkpt lat="42.312259" lon="2.176384">
        <ele>950</ele>
        <time>2019-08-19T03:48:11Z</time>
      </trkpt>
      <trkpt lat="42.312266" lon="2.176434">
        <ele>949.9</ele>
        <time>2019-08-19T03:48:12Z</time>
      </trkpt>
      <trkpt lat="42.312275" lon="2.176489">
        <ele>949.9</ele>
        <time>2019-08-19T03:48:13Z</time>
      </trkpt>
      <trkpt lat="42.312285" lon="2.176549">
        <ele>949.9</ele>
        <time>2019-08-19T03:48:14Z</time>
      </trkpt>
      <trkpt lat="42.312294" lon="2.176603">
        <ele>949.9</ele>
        <time>2019-08-19T03:48:15Z</time>
      </trkpt>
      <trkpt lat="42.312303" lon="2.176657">
        <ele>949.9</ele>
        <time>2019-08-19T03:48:16Z</time>
      </trkpt>
      <trkpt lat="42.312315" lon="2.176714">
        <ele>949.9</ele>
        <time>2019-08-19T03:48:17Z</time>
      </trkpt>
      <trkpt lat="42.312328" lon="2.176772">
        <ele>950</ele>
        <time>2019-08-19T03:48:18Z</time>
      </trkpt>
      <trkpt lat="42.312323" lon="2.176918">
        <ele>950.2</ele>
        <time>2019-08-19T03:48:19Z</time>
      </trkpt>
      <trkpt lat="42.312335" lon="2.176956">
        <ele>950.2</ele>
        <time>2019-08-19T03:48:20Z</time>
      </trkpt>
      <trkpt lat="42.312353" lon="2.176984">
        <ele>950.2</ele>
        <time>2019-08-19T03:48:21Z</time>
      </trkpt>
      <trkpt lat="42.312375" lon="2.177021">
        <ele>950.3</ele>
        <time>2019-08-19T03:48:22Z</time>
      </trkpt>
      <trkpt lat="42.312389" lon="2.177072">
        <ele>950.3</ele>
        <time>2019-08-19T03:48:23Z</time>
      </trkpt>
      <trkpt lat="42.312411" lon="2.177132">
        <ele>950.3</ele>
        <time>2019-08-19T03:48:25Z</time>
      </trkpt>
      <trkpt lat="42.312433" lon="2.177187">
        <ele>950.3</ele>
        <time>2019-08-19T03:48:27Z</time>
      </trkpt>
      <trkpt lat="42.31245" lon="2.177231">
        <ele>950.3</ele>
        <time>2019-08-19T03:48:29Z</time>
      </trkpt>
      <trkpt lat="42.312475" lon="2.177312">
        <ele>950.3</ele>
        <time>2019-08-19T03:48:31Z</time>
      </trkpt>
      <trkpt lat="42.312499" lon="2.177386">
        <ele>950.3</ele>
        <time>2019-08-19T03:48:32Z</time>
      </trkpt>
      <trkpt lat="42.312516" lon="2.177457">
        <ele>950.3</ele>
        <time>2019-08-19T03:48:33Z</time>
      </trkpt>
      <trkpt lat="42.312525" lon="2.177501">
        <ele>950.3</ele>
        <time>2019-08-19T03:48:34Z</time>
      </trkpt>
      <trkpt lat="42.312533" lon="2.17754">
        <ele>950.3</ele>
        <time>2019-08-19T03:48:35Z</time>
      </trkpt>
      <trkpt lat="42.312536" lon="2.177583">
        <ele>950.3</ele>
        <time>2019-08-19T03:48:36Z</time>
      </trkpt>
      <trkpt lat="42.312543" lon="2.177631">
        <ele>950.3</ele>
        <time>2019-08-19T03:48:37Z</time>
      </trkpt>
      <trkpt lat="42.312559" lon="2.177665">
        <ele>950.3</ele>
        <time>2019-08-19T03:48:38Z</time>
      </trkpt>
      <trkpt lat="42.312561" lon="2.177728">
        <ele>950.3</ele>
        <time>2019-08-19T03:48:40Z</time>
      </trkpt>
      <trkpt lat="42.312566" lon="2.177769">
        <ele>950.3</ele>
        <time>2019-08-19T03:48:41Z</time>
      </trkpt>
      <trkpt lat="42.312558" lon="2.177812">
        <ele>950.3</ele>
        <time>2019-08-19T03:48:42Z</time>
      </trkpt>
      <trkpt lat="42.31254" lon="2.177861">
        <ele>950.3</ele>
        <time>2019-08-19T03:48:44Z</time>
      </trkpt>
      <trkpt lat="42.312516" lon="2.177913">
        <ele>950.3</ele>
        <time>2019-08-19T03:48:46Z</time>
      </trkpt>
      <trkpt lat="42.312476" lon="2.177945">
        <ele>950.4</ele>
        <time>2019-08-19T03:48:48Z</time>
      </trkpt>
      <trkpt lat="42.312437" lon="2.177973">
        <ele>950.8</ele>
        <time>2019-08-19T03:48:50Z</time>
      </trkpt>
      <trkpt lat="42.312402" lon="2.177997">
        <ele>951.2</ele>
        <time>2019-08-19T03:48:52Z</time>
      </trkpt>
      <trkpt lat="42.312371" lon="2.178013">
        <ele>951.6</ele>
        <time>2019-08-19T03:48:54Z</time>
      </trkpt>
      <trkpt lat="42.31234" lon="2.178026">
        <ele>951.7</ele>
        <time>2019-08-19T03:48:56Z</time>
      </trkpt>
      <trkpt lat="42.312308" lon="2.178029">
        <ele>951.8</ele>
        <time>2019-08-19T03:48:58Z</time>
      </trkpt>
      <trkpt lat="42.312285" lon="2.178071">
        <ele>951.9</ele>
        <time>2019-08-19T03:49:00Z</time>
      </trkpt>
      <trkpt lat="42.312279" lon="2.178133">
        <ele>952.1</ele>
        <time>2019-08-19T03:49:02Z</time>
      </trkpt>
      <trkpt lat="42.312266" lon="2.178196">
        <ele>952.2</ele>
        <time>2019-08-19T03:49:04Z</time>
      </trkpt>
      <trkpt lat="42.31225" lon="2.178265">
        <ele>952.4</ele>
        <time>2019-08-19T03:49:06Z</time>
      </trkpt>
      <trkpt lat="42.312231" lon="2.178334">
        <ele>952.6</ele>
        <time>2019-08-19T03:49:08Z</time>
      </trkpt>
      <trkpt lat="42.312208" lon="2.178397">
        <ele>952.8</ele>
        <time>2019-08-19T03:49:10Z</time>
      </trkpt>
      <trkpt lat="42.312191" lon="2.178431">
        <ele>952.9</ele>
        <time>2019-08-19T03:49:11Z</time>
      </trkpt>
      <trkpt lat="42.312162" lon="2.178472">
        <ele>953.1</ele>
        <time>2019-08-19T03:49:13Z</time>
      </trkpt>
      <trkpt lat="42.312142" lon="2.178504">
        <ele>953.3</ele>
        <time>2019-08-19T03:49:15Z</time>
      </trkpt>
      <trkpt lat="42.312129" lon="2.17854">
        <ele>953.4</ele>
        <time>2019-08-19T03:49:17Z</time>
      </trkpt>
      <trkpt lat="42.312114" lon="2.178598">
        <ele>953.6</ele>
        <time>2019-08-19T03:49:21Z</time>
      </trkpt>
      <trkpt lat="42.312098" lon="2.178639">
        <ele>953.8</ele>
        <time>2019-08-19T03:49:22Z</time>
      </trkpt>
      <trkpt lat="42.312084" lon="2.178674">
        <ele>953.9</ele>
        <time>2019-08-19T03:49:23Z</time>
      </trkpt>
      <trkpt lat="42.312052" lon="2.17872">
        <ele>954</ele>
        <time>2019-08-19T03:49:25Z</time>
      </trkpt>
      <trkpt lat="42.312019" lon="2.178729">
        <ele>954.1</ele>
        <time>2019-08-19T03:49:27Z</time>
      </trkpt>
      <trkpt lat="42.311984" lon="2.178739">
        <ele>954.2</ele>
        <time>2019-08-19T03:49:29Z</time>
      </trkpt>
      <trkpt lat="42.311966" lon="2.178781">
        <ele>954.3</ele>
        <time>2019-08-19T03:49:31Z</time>
      </trkpt>
      <trkpt lat="42.311951" lon="2.178828">
        <ele>954.4</ele>
        <time>2019-08-19T03:49:33Z</time>
      </trkpt>
      <trkpt lat="42.311921" lon="2.178868">
        <ele>954.6</ele>
        <time>2019-08-19T03:49:35Z</time>
      </trkpt>
      <trkpt lat="42.31189" lon="2.178893">
        <ele>954.7</ele>
        <time>2019-08-19T03:49:37Z</time>
      </trkpt>
      <trkpt lat="42.311851" lon="2.178912">
        <ele>954.9</ele>
        <time>2019-08-19T03:49:39Z</time>
      </trkpt>
      <trkpt lat="42.311823" lon="2.178906">
        <ele>955</ele>
        <time>2019-08-19T03:49:41Z</time>
      </trkpt>
      <trkpt lat="42.311795" lon="2.1789">
        <ele>955.2</ele>
        <time>2019-08-19T03:49:44Z</time>
      </trkpt>
      <trkpt lat="42.311761" lon="2.178876">
        <ele>955.5</ele>
        <time>2019-08-19T03:49:47Z</time>
      </trkpt>
      <trkpt lat="42.311743" lon="2.178839">
        <ele>955.8</ele>
        <time>2019-08-19T03:49:49Z</time>
      </trkpt>
      <trkpt lat="42.311737" lon="2.1788">
        <ele>956.1</ele>
        <time>2019-08-19T03:49:51Z</time>
      </trkpt>
      <trkpt lat="42.311744" lon="2.178759">
        <ele>956.4</ele>
        <time>2019-08-19T03:49:53Z</time>
      </trkpt>
      <trkpt lat="42.311764" lon="2.178718">
        <ele>956.7</ele>
        <time>2019-08-19T03:49:55Z</time>
      </trkpt>
      <trkpt lat="42.311793" lon="2.178669">
        <ele>957.2</ele>
        <time>2019-08-19T03:49:57Z</time>
      </trkpt>
      <trkpt lat="42.311823" lon="2.178627">
        <ele>957.5</ele>
        <time>2019-08-19T03:49:59Z</time>
      </trkpt>
      <trkpt lat="42.311855" lon="2.178594">
        <ele>957.9</ele>
        <time>2019-08-19T03:50:01Z</time>
      </trkpt>
      <trkpt lat="42.311882" lon="2.178563">
        <ele>958.2</ele>
        <time>2019-08-19T03:50:03Z</time>
      </trkpt>
      <trkpt lat="42.311902" lon="2.178529">
        <ele>958.4</ele>
        <time>2019-08-19T03:50:05Z</time>
      </trkpt>
      <trkpt lat="42.311922" lon="2.178495">
        <ele>958.6</ele>
        <time>2019-08-19T03:50:07Z</time>
      </trkpt>
      <trkpt lat="42.311942" lon="2.178461">
        <ele>958.9</ele>
        <time>2019-08-19T03:50:09Z</time>
      </trkpt>
      <trkpt lat="42.311961" lon="2.178426">
        <ele>959.2</ele>
        <time>2019-08-19T03:50:11Z</time>
      </trkpt>
      <trkpt lat="42.311977" lon="2.178383">
        <ele>959.5</ele>
        <time>2019-08-19T03:50:13Z</time>
      </trkpt>
      <trkpt lat="42.311991" lon="2.178309">
        <ele>959.9</ele>
        <time>2019-08-19T03:50:15Z</time>
      </trkpt>
      <trkpt lat="42.312004" lon="2.178271">
        <ele>960.2</ele>
        <time>2019-08-19T03:50:16Z</time>
      </trkpt>
      <trkpt lat="42.312019" lon="2.178223">
        <ele>960.5</ele>
        <time>2019-08-19T03:50:18Z</time>
      </trkpt>
      <trkpt lat="42.312028" lon="2.17817">
        <ele>960.8</ele>
        <time>2019-08-19T03:50:20Z</time>
      </trkpt>
      <trkpt lat="42.31203" lon="2.178105">
        <ele>961.3</ele>
        <time>2019-08-19T03:50:22Z</time>
      </trkpt>
      <trkpt lat="42.312029" lon="2.178039">
        <ele>961.7</ele>
        <time>2019-08-19T03:50:24Z</time>
      </trkpt>
      <trkpt lat="42.312035" lon="2.177981">
        <ele>962</ele>
        <time>2019-08-19T03:50:26Z</time>
      </trkpt>
      <trkpt lat="42.312054" lon="2.177929">
        <ele>962.4</ele>
        <time>2019-08-19T03:50:28Z</time>
      </trkpt>
      <trkpt lat="42.312065" lon="2.177877">
        <ele>962.7</ele>
        <time>2019-08-19T03:50:30Z</time>
      </trkpt>
      <trkpt lat="42.312066" lon="2.177827">
        <ele>963</ele>
        <time>2019-08-19T03:50:32Z</time>
      </trkpt>
      <trkpt lat="42.312069" lon="2.177784">
        <ele>963.2</ele>
        <time>2019-08-19T03:50:35Z</time>
      </trkpt>
      <trkpt lat="42.312077" lon="2.177739">
        <ele>963.5</ele>
        <time>2019-08-19T03:50:41Z</time>
      </trkpt>
      <trkpt lat="42.312084" lon="2.17769">
        <ele>963.7</ele>
        <time>2019-08-19T03:50:45Z</time>
      </trkpt>
      <trkpt lat="42.312072" lon="2.177637">
        <ele>964</ele>
        <time>2019-08-19T03:50:48Z</time>
      </trkpt>
      <trkpt lat="42.31206" lon="2.17759">
        <ele>964.3</ele>
        <time>2019-08-19T03:50:50Z</time>
      </trkpt>
      <trkpt lat="42.312051" lon="2.177549">
        <ele>964.4</ele>
        <time>2019-08-19T03:50:52Z</time>
      </trkpt>
      <trkpt lat="42.31203" lon="2.17751">
        <ele>964.6</ele>
        <time>2019-08-19T03:50:54Z</time>
      </trkpt>
      <trkpt lat="42.31201" lon="2.177468">
        <ele>964.8</ele>
        <time>2019-08-19T03:50:56Z</time>
      </trkpt>
      <trkpt lat="42.311996" lon="2.177424">
        <ele>964.9</ele>
        <time>2019-08-19T03:50:58Z</time>
      </trkpt>
      <trkpt lat="42.311976" lon="2.177386">
        <ele>965.1</ele>
        <time>2019-08-19T03:51:00Z</time>
      </trkpt>
      <trkpt lat="42.31196" lon="2.177345">
        <ele>965.3</ele>
        <time>2019-08-19T03:51:02Z</time>
      </trkpt>
      <trkpt lat="42.311948" lon="2.177297">
        <ele>965.6</ele>
        <time>2019-08-19T03:51:04Z</time>
      </trkpt>
      <trkpt lat="42.311932" lon="2.177255">
        <ele>965.8</ele>
        <time>2019-08-19T03:51:06Z</time>
      </trkpt>
      <trkpt lat="42.31191" lon="2.177216">
        <ele>966</ele>
        <time>2019-08-19T03:51:08Z</time>
      </trkpt>
      <trkpt lat="42.311883" lon="2.177179">
        <ele>966.2</ele>
        <time>2019-08-19T03:51:10Z</time>
      </trkpt>
      <trkpt lat="42.311856" lon="2.17714">
        <ele>966.3</ele>
        <time>2019-08-19T03:51:12Z</time>
      </trkpt>
      <trkpt lat="42.311836" lon="2.177104">
        <ele>966.5</ele>
        <time>2019-08-19T03:51:14Z</time>
      </trkpt>
      <trkpt lat="42.311821" lon="2.17707">
        <ele>966.6</ele>
        <time>2019-08-19T03:51:16Z</time>
      </trkpt>
      <trkpt lat="42.311802" lon="2.177023">
        <ele>966.8</ele>
        <time>2019-08-19T03:51:19Z</time>
      </trkpt>
      <trkpt lat="42.311789" lon="2.176987">
        <ele>967</ele>
        <time>2019-08-19T03:51:21Z</time>
      </trkpt>
      <trkpt lat="42.311771" lon="2.176949">
        <ele>967.2</ele>
        <time>2019-08-19T03:51:23Z</time>
      </trkpt>
      <trkpt lat="42.311753" lon="2.176915">
        <ele>967.4</ele>
        <time>2019-08-19T03:51:25Z</time>
      </trkpt>
      <trkpt lat="42.311735" lon="2.176883">
        <ele>967.5</ele>
        <time>2019-08-19T03:51:27Z</time>
      </trkpt>
      <trkpt lat="42.311719" lon="2.176845">
        <ele>967.7</ele>
        <time>2019-08-19T03:51:29Z</time>
      </trkpt>
      <trkpt lat="42.311701" lon="2.176805">
        <ele>967.9</ele>
        <time>2019-08-19T03:51:31Z</time>
      </trkpt>
      <trkpt lat="42.311688" lon="2.176764">
        <ele>968</ele>
        <time>2019-08-19T03:51:33Z</time>
      </trkpt>
      <trkpt lat="42.311674" lon="2.176728">
        <ele>968.2</ele>
        <time>2019-08-19T03:51:35Z</time>
      </trkpt>
      <trkpt lat="42.31166" lon="2.17669">
        <ele>968.3</ele>
        <time>2019-08-19T03:51:37Z</time>
      </trkpt>
      <trkpt lat="42.311641" lon="2.176659">
        <ele>968.4</ele>
        <time>2019-08-19T03:51:39Z</time>
      </trkpt>
      <trkpt lat="42.311619" lon="2.176629">
        <ele>968.6</ele>
        <time>2019-08-19T03:51:41Z</time>
      </trkpt>
      <trkpt lat="42.311599" lon="2.176598">
        <ele>968.7</ele>
        <time>2019-08-19T03:51:43Z</time>
      </trkpt>
      <trkpt lat="42.311579" lon="2.176566">
        <ele>968.8</ele>
        <time>2019-08-19T03:51:45Z</time>
      </trkpt>
      <trkpt lat="42.311551" lon="2.176535">
        <ele>968.9</ele>
        <time>2019-08-19T03:51:47Z</time>
      </trkpt>
      <trkpt lat="42.311523" lon="2.176513">
        <ele>969</ele>
        <time>2019-08-19T03:51:49Z</time>
      </trkpt>
      <trkpt lat="42.311491" lon="2.176494">
        <ele>969.1</ele>
        <time>2019-08-19T03:51:51Z</time>
      </trkpt>
      <trkpt lat="42.311462" lon="2.17648">
        <ele>969.2</ele>
        <time>2019-08-19T03:51:53Z</time>
      </trkpt>
      <trkpt lat="42.311429" lon="2.176464">
        <ele>969.3</ele>
        <time>2019-08-19T03:51:55Z</time>
      </trkpt>
      <trkpt lat="42.311396" lon="2.176447">
        <ele>969.5</ele>
        <time>2019-08-19T03:51:57Z</time>
      </trkpt>
      <trkpt lat="42.311361" lon="2.176431">
        <ele>969.7</ele>
        <time>2019-08-19T03:51:59Z</time>
      </trkpt>
      <trkpt lat="42.311325" lon="2.176411">
        <ele>969.8</ele>
        <time>2019-08-19T03:52:01Z</time>
      </trkpt>
      <trkpt lat="42.31129" lon="2.176394">
        <ele>970</ele>
        <time>2019-08-19T03:52:03Z</time>
      </trkpt>
      <trkpt lat="42.311253" lon="2.176382">
        <ele>970.3</ele>
        <time>2019-08-19T03:52:05Z</time>
      </trkpt>
      <trkpt lat="42.311218" lon="2.176368">
        <ele>970.6</ele>
        <time>2019-08-19T03:52:07Z</time>
      </trkpt>
      <trkpt lat="42.311186" lon="2.176352">
        <ele>970.8</ele>
        <time>2019-08-19T03:52:09Z</time>
      </trkpt>
      <trkpt lat="42.311152" lon="2.176344">
        <ele>971.2</ele>
        <time>2019-08-19T03:52:11Z</time>
      </trkpt>
      <trkpt lat="42.311118" lon="2.176341">
        <ele>971.5</ele>
        <time>2019-08-19T03:52:13Z</time>
      </trkpt>
      <trkpt lat="42.311086" lon="2.176337">
        <ele>971.8</ele>
        <time>2019-08-19T03:52:15Z</time>
      </trkpt>
      <trkpt lat="42.311059" lon="2.176331">
        <ele>972.1</ele>
        <time>2019-08-19T03:52:17Z</time>
      </trkpt>
      <trkpt lat="42.311023" lon="2.176331">
        <ele>972.5</ele>
        <time>2019-08-19T03:52:20Z</time>
      </trkpt>
      <trkpt lat="42.310994" lon="2.176346">
        <ele>972.8</ele>
        <time>2019-08-19T03:52:22Z</time>
      </trkpt>
      <trkpt lat="42.310984" lon="2.176388">
        <ele>973.2</ele>
        <time>2019-08-19T03:52:28Z</time>
      </trkpt>
      <trkpt lat="42.311011" lon="2.176426">
        <ele>973.7</ele>
        <time>2019-08-19T03:52:33Z</time>
      </trkpt>
      <trkpt lat="42.311042" lon="2.176459">
        <ele>974.5</ele>
        <time>2019-08-19T03:52:35Z</time>
      </trkpt>
      <trkpt lat="42.311069" lon="2.176471">
        <ele>974.6</ele>
        <time>2019-08-19T03:52:37Z</time>
      </trkpt>
      <trkpt lat="42.311097" lon="2.176467">
        <ele>974.6</ele>
        <time>2019-08-19T03:52:40Z</time>
      </trkpt>
      <trkpt lat="42.311124" lon="2.176469">
        <ele>974.6</ele>
        <time>2019-08-19T03:52:45Z</time>
      </trkpt>
      <trkpt lat="42.311092" lon="2.176473">
        <ele>974.7</ele>
        <time>2019-08-19T03:52:48Z</time>
      </trkpt>
      <trkpt lat="42.311058" lon="2.17648">
        <ele>974.7</ele>
        <time>2019-08-19T03:52:53Z</time>
      </trkpt>
      <trkpt lat="42.310993" lon="2.176453">
        <ele>974.8</ele>
        <time>2019-08-19T03:53:21Z</time>
      </trkpt>
      <trkpt lat="42.311011" lon="2.176423">
        <ele>974.8</ele>
        <time>2019-08-19T03:53:24Z</time>
      </trkpt>
      <trkpt lat="42.311025" lon="2.176454">
        <ele>974.8</ele>
        <time>2019-08-19T03:53:30Z</time>
      </trkpt>
    </trkseg>
  </trk>
</gpx>
